<?xml version='1.0' encoding='UTF-8'?><gpx version="1.1" creator="JPX - https://github.com/jenetics/jpx" xmlns="http://www.topografix.com/GPX/1/1"><trk><trkseg><trkpt lat="44.9817567" lon="9.7300033"><ele>81.0</ele><time>2026-05-01T13:26:14.995Z</time></trkpt><trkpt lat="44.98182" lon="9.730015"><ele>81.0</ele><time>2026-05-01T13:26:39.997Z</time></trkpt><trkpt lat="44.9819033" lon="9.730065"><ele>81.0</ele><time>2026-05-01T13:27:44.997Z</time></trkpt><trkpt lat="44.9819883" lon="9.7300833"><ele>81.0</ele><time>2026-05-01T13:27:46.997Z</time></trkpt><trkpt lat="44.9820533" lon="9.7301117"><ele>81.0</ele><time>2026-05-01T13:27:48.997Z</time></trkpt><trkpt lat="44.9820767" lon="9.7302133"><ele>81.0</ele><time>2026-05-01T13:27:51.997Z</time></trkpt><trkpt lat="44.9820633" lon="9.7303933"><ele>81.19999999999999</ele><time>2026-05-01T13:27:53.998Z</time></trkpt><trkpt lat="44.982045" lon="9.7305117"><ele>81.39999999999999</ele><time>2026-05-01T13:27:54.997Z</time></trkpt><trkpt lat="44.9820233" lon="9.7306583"><ele>81.6</ele><time>2026-05-01T13:27:55.998Z</time></trkpt><trkpt lat="44.9820017" lon="9.7308083"><ele>81.8</ele><time>2026-05-01T13:27:56.997Z</time></trkpt><trkpt lat="44.9819817" lon="9.7309567"><ele>82.0</ele><time>2026-05-01T13:27:57.997Z</time></trkpt><trkpt lat="44.981965" lon="9.7311117"><ele>81.5</ele><time>2026-05-01T13:27:58.997Z</time></trkpt><trkpt lat="44.981945" lon="9.7312783"><ele>81.0</ele><time>2026-05-01T13:27:59.997Z</time></trkpt><trkpt lat="44.9819233" lon="9.7314517"><ele>80.5</ele><time>2026-05-01T13:28:00.997Z</time></trkpt><trkpt lat="44.9819033" lon="9.73163"><ele>80.0</ele><time>2026-05-01T13:28:01.998Z</time></trkpt><trkpt lat="44.98188" lon="9.7318183"><ele>80.5</ele><time>2026-05-01T13:28:02.997Z</time></trkpt><trkpt lat="44.981855" lon="9.7320117"><ele>81.0</ele><time>2026-05-01T13:28:03.997Z</time></trkpt><trkpt lat="44.9818317" lon="9.7322133"><ele>81.5</ele><time>2026-05-01T13:28:04.996Z</time></trkpt><trkpt lat="44.9818067" lon="9.73242"><ele>82.0</ele><time>2026-05-01T13:28:05.998Z</time></trkpt><trkpt lat="44.9817817" lon="9.7326267"><ele>82.0</ele><time>2026-05-01T13:28:06.997Z</time></trkpt><trkpt lat="44.981755" lon="9.7328367"><ele>82.0</ele><time>2026-05-01T13:28:07.997Z</time></trkpt><trkpt lat="44.9817317" lon="9.73304"><ele>82.0</ele><time>2026-05-01T13:28:08.997Z</time></trkpt><trkpt lat="44.9817083" lon="9.7332417"><ele>82.0</ele><time>2026-05-01T13:28:09.997Z</time></trkpt><trkpt lat="44.981685" lon="9.733445"><ele>82.0</ele><time>2026-05-01T13:28:10.997Z</time></trkpt><trkpt lat="44.9816617" lon="9.7336517"><ele>82.0</ele><time>2026-05-01T13:28:11.998Z</time></trkpt><trkpt lat="44.9816333" lon="9.7338633"><ele>82.0</ele><time>2026-05-01T13:28:12.997Z</time></trkpt><trkpt lat="44.9816067" lon="9.7340767"><ele>82.0</ele><time>2026-05-01T13:28:13.998Z</time></trkpt><trkpt lat="44.9815817" lon="9.73429"><ele>82.0</ele><time>2026-05-01T13:28:14.998Z</time></trkpt><trkpt lat="44.9815567" lon="9.7345"><ele>82.0</ele><time>2026-05-01T13:28:15.998Z</time></trkpt><trkpt lat="44.98153" lon="9.73471"><ele>82.0</ele><time>2026-05-01T13:28:16.997Z</time></trkpt><trkpt lat="44.9815083" lon="9.7349233"><ele>82.0</ele><time>2026-05-01T13:28:17.997Z</time></trkpt><trkpt lat="44.9814883" lon="9.7351367"><ele>82.0</ele><time>2026-05-01T13:28:18.999Z</time></trkpt><trkpt lat="44.9814733" lon="9.735345"><ele>82.0</ele><time>2026-05-01T13:28:19.998Z</time></trkpt><trkpt lat="44.9814633" lon="9.7355483"><ele>82.0</ele><time>2026-05-01T13:28:20.997Z</time></trkpt><trkpt lat="44.9814533" lon="9.7357567"><ele>82.0</ele><time>2026-05-01T13:28:21.998Z</time></trkpt><trkpt lat="44.9814367" lon="9.7359667"><ele>82.0</ele><time>2026-05-01T13:28:22.997Z</time></trkpt><trkpt lat="44.9814167" lon="9.7361767"><ele>82.0</ele><time>2026-05-01T13:28:23.998Z</time></trkpt><trkpt lat="44.9813933" lon="9.73638"><ele>82.0</ele><time>2026-05-01T13:28:24.998Z</time></trkpt><trkpt lat="44.9813617" lon="9.7365833"><ele>82.0</ele><time>2026-05-01T13:28:25.997Z</time></trkpt><trkpt lat="44.981325" lon="9.7367867"><ele>82.0</ele><time>2026-05-01T13:28:26.997Z</time></trkpt><trkpt lat="44.981285" lon="9.73699"><ele>82.0</ele><time>2026-05-01T13:28:27.997Z</time></trkpt><trkpt lat="44.9812517" lon="9.737185"><ele>82.0</ele><time>2026-05-01T13:28:28.997Z</time></trkpt><trkpt lat="44.9812283" lon="9.737365"><ele>82.0</ele><time>2026-05-01T13:28:29.997Z</time></trkpt><trkpt lat="44.98121" lon="9.737535"><ele>82.0</ele><time>2026-05-01T13:28:30.997Z</time></trkpt><trkpt lat="44.981195" lon="9.7376917"><ele>82.75</ele><time>2026-05-01T13:28:31.998Z</time></trkpt><trkpt lat="44.9811767" lon="9.7378483"><ele>83.5</ele><time>2026-05-01T13:28:32.997Z</time></trkpt><trkpt lat="44.9811517" lon="9.7380133"><ele>84.25</ele><time>2026-05-01T13:28:33.997Z</time></trkpt><trkpt lat="44.981125" lon="9.7381883"><ele>85.0</ele><time>2026-05-01T13:28:34.997Z</time></trkpt><trkpt lat="44.9811" lon="9.73837"><ele>84.75</ele><time>2026-05-01T13:28:35.997Z</time></trkpt><trkpt lat="44.9810783" lon="9.738555"><ele>84.5</ele><time>2026-05-01T13:28:36.997Z</time></trkpt><trkpt lat="44.9810583" lon="9.7387317"><ele>84.25</ele><time>2026-05-01T13:28:37.998Z</time></trkpt><trkpt lat="44.981035" lon="9.7388967"><ele>84.0</ele><time>2026-05-01T13:28:38.998Z</time></trkpt><trkpt lat="44.9810133" lon="9.73906"><ele>84.0</ele><time>2026-05-01T13:28:39.997Z</time></trkpt><trkpt lat="44.98099" lon="9.7392217"><ele>84.0</ele><time>2026-05-01T13:28:40.996Z</time></trkpt><trkpt lat="44.9809683" lon="9.7393867"><ele>84.0</ele><time>2026-05-01T13:28:41.997Z</time></trkpt><trkpt lat="44.9809467" lon="9.7395483"><ele>84.0</ele><time>2026-05-01T13:28:42.997Z</time></trkpt><trkpt lat="44.980925" lon="9.7397033"><ele>83.83333333333333</ele><time>2026-05-01T13:28:43.998Z</time></trkpt><trkpt lat="44.9809033" lon="9.7398383"><ele>83.66666666666667</ele><time>2026-05-01T13:28:44.998Z</time></trkpt><trkpt lat="44.9808767" lon="9.7399517"><ele>83.5</ele><time>2026-05-01T13:28:45.998Z</time></trkpt><trkpt lat="44.9808483" lon="9.7400467"><ele>83.33333333333334</ele><time>2026-05-01T13:28:46.997Z</time></trkpt><trkpt lat="44.9808033" lon="9.7401267"><ele>83.16666666666667</ele><time>2026-05-01T13:28:47.997Z</time></trkpt><trkpt lat="44.9807383" lon="9.7401933"><ele>83.0</ele><time>2026-05-01T13:28:48.998Z</time></trkpt><trkpt lat="44.980655" lon="9.7402467"><ele>82.80000000000001</ele><time>2026-05-01T13:28:49.998Z</time></trkpt><trkpt lat="44.9805617" lon="9.7402933"><ele>82.6</ele><time>2026-05-01T13:28:50.998Z</time></trkpt><trkpt lat="44.980465" lon="9.7403417"><ele>82.4</ele><time>2026-05-01T13:28:51.998Z</time></trkpt><trkpt lat="44.980375" lon="9.7403883"><ele>82.19999999999999</ele><time>2026-05-01T13:28:52.997Z</time></trkpt><trkpt lat="44.980285" lon="9.7404317"><ele>82.0</ele><time>2026-05-01T13:28:53.998Z</time></trkpt><trkpt lat="44.9801933" lon="9.7404733"><ele>82.0</ele><time>2026-05-01T13:28:54.997Z</time></trkpt><trkpt lat="44.9800933" lon="9.7405167"><ele>82.0</ele><time>2026-05-01T13:28:55.998Z</time></trkpt><trkpt lat="44.9799867" lon="9.740565"><ele>82.0</ele><time>2026-05-01T13:28:56.997Z</time></trkpt><trkpt lat="44.9798717" lon="9.7406117"><ele>82.0</ele><time>2026-05-01T13:28:57.997Z</time></trkpt><trkpt lat="44.97975" lon="9.74066"><ele>82.5</ele><time>2026-05-01T13:28:58.997Z</time></trkpt><trkpt lat="44.9796183" lon="9.7406933"><ele>83.0</ele><time>2026-05-01T13:28:59.998Z</time></trkpt><trkpt lat="44.979485" lon="9.7407117"><ele>83.5</ele><time>2026-05-01T13:29:00.998Z</time></trkpt><trkpt lat="44.9793467" lon="9.7407167"><ele>84.0</ele><time>2026-05-01T13:29:01.997Z</time></trkpt><trkpt lat="44.9792083" lon="9.74072"><ele>84.25</ele><time>2026-05-01T13:29:02.997Z</time></trkpt><trkpt lat="44.9790683" lon="9.7407233"><ele>84.5</ele><time>2026-05-01T13:29:03.998Z</time></trkpt><trkpt lat="44.9789317" lon="9.74073"><ele>84.75</ele><time>2026-05-01T13:29:04.997Z</time></trkpt><trkpt lat="44.9787983" lon="9.7407367"><ele>85.0</ele><time>2026-05-01T13:29:05.997Z</time></trkpt><trkpt lat="44.9786667" lon="9.7407433"><ele>85.0</ele><time>2026-05-01T13:29:06.997Z</time></trkpt><trkpt lat="44.9785333" lon="9.740755"><ele>85.0</ele><time>2026-05-01T13:29:07.997Z</time></trkpt><trkpt lat="44.9783967" lon="9.7407717"><ele>85.0</ele><time>2026-05-01T13:29:08.998Z</time></trkpt><trkpt lat="44.9782533" lon="9.7407883"><ele>85.0</ele><time>2026-05-01T13:29:09.997Z</time></trkpt><trkpt lat="44.9781117" lon="9.7408067"><ele>85.5</ele><time>2026-05-01T13:29:10.997Z</time></trkpt><trkpt lat="44.9779683" lon="9.7408267"><ele>86.0</ele><time>2026-05-01T13:29:11.997Z</time></trkpt><trkpt lat="44.9778317" lon="9.7408483"><ele>86.5</ele><time>2026-05-01T13:29:12.998Z</time></trkpt><trkpt lat="44.9777" lon="9.7408733"><ele>87.0</ele><time>2026-05-01T13:29:13.997Z</time></trkpt><trkpt lat="44.9775767" lon="9.7408933"><ele>87.25</ele><time>2026-05-01T13:29:14.997Z</time></trkpt><trkpt lat="44.97746" lon="9.7409133"><ele>87.5</ele><time>2026-05-01T13:29:15.997Z</time></trkpt><trkpt lat="44.9773467" lon="9.7409317"><ele>87.75</ele><time>2026-05-01T13:29:16.997Z</time></trkpt><trkpt lat="44.9772317" lon="9.7409467"><ele>88.0</ele><time>2026-05-01T13:29:17.998Z</time></trkpt><trkpt lat="44.97711" lon="9.74096"><ele>88.0</ele><time>2026-05-01T13:29:18.997Z</time></trkpt><trkpt lat="44.9769817" lon="9.7409733"><ele>88.0</ele><time>2026-05-01T13:29:19.997Z</time></trkpt><trkpt lat="44.976855" lon="9.740985"><ele>88.0</ele><time>2026-05-01T13:29:20.997Z</time></trkpt><trkpt lat="44.9767217" lon="9.7409883"><ele>88.0</ele><time>2026-05-01T13:29:21.997Z</time></trkpt><trkpt lat="44.976585" lon="9.7409833"><ele>87.75</ele><time>2026-05-01T13:29:22.997Z</time></trkpt><trkpt lat="44.9764467" lon="9.7409717"><ele>87.5</ele><time>2026-05-01T13:29:23.997Z</time></trkpt><trkpt lat="44.9763033" lon="9.7409517"><ele>87.25</ele><time>2026-05-01T13:29:24.997Z</time></trkpt><trkpt lat="44.9761567" lon="9.7409283"><ele>87.0</ele><time>2026-05-01T13:29:25.997Z</time></trkpt><trkpt lat="44.9760083" lon="9.740905"><ele>87.0</ele><time>2026-05-01T13:29:26.997Z</time></trkpt><trkpt lat="44.9758567" lon="9.7408833"><ele>87.0</ele><time>2026-05-01T13:29:27.997Z</time></trkpt><trkpt lat="44.9756967" lon="9.7408583"><ele>87.0</ele><time>2026-05-01T13:29:28.997Z</time></trkpt><trkpt lat="44.9755267" lon="9.7408333"><ele>87.0</ele><time>2026-05-01T13:29:29.997Z</time></trkpt><trkpt lat="44.975345" lon="9.7408017"><ele>87.0</ele><time>2026-05-01T13:29:30.998Z</time></trkpt><trkpt lat="44.9751617" lon="9.740775"><ele>87.0</ele><time>2026-05-01T13:29:31.997Z</time></trkpt><trkpt lat="44.97498" lon="9.7407583"><ele>87.33333333333333</ele><time>2026-05-01T13:29:32.997Z</time></trkpt><trkpt lat="44.9747967" lon="9.7407483"><ele>87.66666666666666</ele><time>2026-05-01T13:29:33.998Z</time></trkpt><trkpt lat="44.9746167" lon="9.74074"><ele>88.0</ele><time>2026-05-01T13:29:34.998Z</time></trkpt><trkpt lat="44.9744417" lon="9.7407283"><ele>88.0</ele><time>2026-05-01T13:29:35.998Z</time></trkpt><trkpt lat="44.9742683" lon="9.7407183"><ele>88.0</ele><time>2026-05-01T13:29:36.997Z</time></trkpt><trkpt lat="44.9740967" lon="9.7407017"><ele>88.0</ele><time>2026-05-01T13:29:37.998Z</time></trkpt><trkpt lat="44.9739267" lon="9.7406833"><ele>87.0</ele><time>2026-05-01T13:29:38.998Z</time></trkpt><trkpt lat="44.9737583" lon="9.7406583"><ele>86.0</ele><time>2026-05-01T13:29:39.997Z</time></trkpt><trkpt lat="44.9735867" lon="9.74063"><ele>85.0</ele><time>2026-05-01T13:29:40.998Z</time></trkpt><trkpt lat="44.9734183" lon="9.740595"><ele>86.0</ele><time>2026-05-01T13:29:41.998Z</time></trkpt><trkpt lat="44.9732533" lon="9.74056"><ele>87.0</ele><time>2026-05-01T13:29:42.997Z</time></trkpt><trkpt lat="44.9730983" lon="9.74052"><ele>88.0</ele><time>2026-05-01T13:29:43.997Z</time></trkpt><trkpt lat="44.9729533" lon="9.7404733"><ele>88.0</ele><time>2026-05-01T13:29:44.998Z</time></trkpt><trkpt lat="44.9728283" lon="9.7404183"><ele>88.0</ele><time>2026-05-01T13:29:45.997Z</time></trkpt><trkpt lat="44.9727233" lon="9.7403417"><ele>88.0</ele><time>2026-05-01T13:29:46.997Z</time></trkpt><trkpt lat="44.97264" lon="9.7402367"><ele>88.0</ele><time>2026-05-01T13:29:47.998Z</time></trkpt><trkpt lat="44.972585" lon="9.7401067"><ele>88.0</ele><time>2026-05-01T13:29:48.996Z</time></trkpt><trkpt lat="44.972535" lon="9.7399733"><ele>88.0</ele><time>2026-05-01T13:29:49.997Z</time></trkpt><trkpt lat="44.972465" lon="9.739865"><ele>88.0</ele><time>2026-05-01T13:29:51Z</time></trkpt><trkpt lat="44.9723683" lon="9.7397983"><ele>88.0</ele><time>2026-05-01T13:29:51.997Z</time></trkpt><trkpt lat="44.9722483" lon="9.739775"><ele>88.0</ele><time>2026-05-01T13:29:52.998Z</time></trkpt><trkpt lat="44.9721217" lon="9.7397533"><ele>88.0</ele><time>2026-05-01T13:29:53.997Z</time></trkpt><trkpt lat="44.9719833" lon="9.7397117"><ele>88.0</ele><time>2026-05-01T13:29:54.996Z</time></trkpt><trkpt lat="44.9718317" lon="9.73967"><ele>88.0</ele><time>2026-05-01T13:29:55.997Z</time></trkpt><trkpt lat="44.9716733" lon="9.73965"><ele>88.0</ele><time>2026-05-01T13:29:56.998Z</time></trkpt><trkpt lat="44.9715133" lon="9.7396467"><ele>88.0</ele><time>2026-05-01T13:29:57.996Z</time></trkpt><trkpt lat="44.9713517" lon="9.7396583"><ele>88.0</ele><time>2026-05-01T13:29:58.998Z</time></trkpt><trkpt lat="44.9711867" lon="9.7396683"><ele>88.0</ele><time>2026-05-01T13:29:59.996Z</time></trkpt><trkpt lat="44.97102" lon="9.7396633"><ele>88.0</ele><time>2026-05-01T13:30:00.997Z</time></trkpt><trkpt lat="44.9708567" lon="9.73963"><ele>88.0</ele><time>2026-05-01T13:30:01.996Z</time></trkpt><trkpt lat="44.9706933" lon="9.7395683"><ele>87.66666666666666</ele><time>2026-05-01T13:30:02.997Z</time></trkpt><trkpt lat="44.97053" lon="9.7394967"><ele>87.33333333333333</ele><time>2026-05-01T13:30:03.997Z</time></trkpt><trkpt lat="44.9703617" lon="9.7394233"><ele>87.0</ele><time>2026-05-01T13:30:04.997Z</time></trkpt><trkpt lat="44.9701933" lon="9.7393483"><ele>87.66666666666667</ele><time>2026-05-01T13:30:05.998Z</time></trkpt><trkpt lat="44.9700233" lon="9.739275"><ele>88.33333333333334</ele><time>2026-05-01T13:30:06.998Z</time></trkpt><trkpt lat="44.96985" lon="9.7391983"><ele>89.0</ele><time>2026-05-01T13:30:07.997Z</time></trkpt><trkpt lat="44.969675" lon="9.7391217"><ele>89.0</ele><time>2026-05-01T13:30:08.997Z</time></trkpt><trkpt lat="44.9694967" lon="9.739045"><ele>89.0</ele><time>2026-05-01T13:30:09.996Z</time></trkpt><trkpt lat="44.9693183" lon="9.73897"><ele>89.0</ele><time>2026-05-01T13:30:10.996Z</time></trkpt><trkpt lat="44.9691433" lon="9.7388933"><ele>89.66666666666667</ele><time>2026-05-01T13:30:11.998Z</time></trkpt><trkpt lat="44.9689633" lon="9.7388133"><ele>90.33333333333333</ele><time>2026-05-01T13:30:12.997Z</time></trkpt><trkpt lat="44.9687783" lon="9.7387383"><ele>91.0</ele><time>2026-05-01T13:30:13.997Z</time></trkpt><trkpt lat="44.9685983" lon="9.73866"><ele>91.0</ele><time>2026-05-01T13:30:15Z</time></trkpt><trkpt lat="44.96842" lon="9.7385833"><ele>91.0</ele><time>2026-05-01T13:30:15.996Z</time></trkpt><trkpt lat="44.9682417" lon="9.7385083"><ele>91.0</ele><time>2026-05-01T13:30:16.997Z</time></trkpt><trkpt lat="44.968065" lon="9.738435"><ele>90.66666666666666</ele><time>2026-05-01T13:30:17.998Z</time></trkpt><trkpt lat="44.967885" lon="9.7383583"><ele>90.33333333333333</ele><time>2026-05-01T13:30:18.996Z</time></trkpt><trkpt lat="44.9677067" lon="9.7382833"><ele>90.0</ele><time>2026-05-01T13:30:19.998Z</time></trkpt><trkpt lat="44.9675317" lon="9.7382067"><ele>90.66666666666667</ele><time>2026-05-01T13:30:20.997Z</time></trkpt><trkpt lat="44.9673533" lon="9.7381317"><ele>91.33333333333334</ele><time>2026-05-01T13:30:21.996Z</time></trkpt><trkpt lat="44.967175" lon="9.7380567"><ele>92.0</ele><time>2026-05-01T13:30:22.998Z</time></trkpt><trkpt lat="44.9669967" lon="9.73799"><ele>92.0</ele><time>2026-05-01T13:30:23.998Z</time></trkpt><trkpt lat="44.9668217" lon="9.737935"><ele>92.0</ele><time>2026-05-01T13:30:24.997Z</time></trkpt><trkpt lat="44.96665" lon="9.7378983"><ele>92.0</ele><time>2026-05-01T13:30:25.997Z</time></trkpt><trkpt lat="44.9664783" lon="9.7378717"><ele>92.66666666666667</ele><time>2026-05-01T13:30:26.997Z</time></trkpt><trkpt lat="44.9663133" lon="9.7378517"><ele>93.33333333333333</ele><time>2026-05-01T13:30:27.997Z</time></trkpt><trkpt lat="44.9661483" lon="9.73784"><ele>94.0</ele><time>2026-05-01T13:30:28.997Z</time></trkpt><trkpt lat="44.9659833" lon="9.7378317"><ele>94.0</ele><time>2026-05-01T13:30:29.997Z</time></trkpt><trkpt lat="44.9658183" lon="9.737825"><ele>94.0</ele><time>2026-05-01T13:30:30.997Z</time></trkpt><trkpt lat="44.96565" lon="9.7378167"><ele>94.0</ele><time>2026-05-01T13:30:31.996Z</time></trkpt><trkpt lat="44.9654783" lon="9.7378117"><ele>94.0</ele><time>2026-05-01T13:30:32.997Z</time></trkpt><trkpt lat="44.9653067" lon="9.7378067"><ele>94.0</ele><time>2026-05-01T13:30:33.996Z</time></trkpt><trkpt lat="44.965135" lon="9.7378033"><ele>94.0</ele><time>2026-05-01T13:30:34.996Z</time></trkpt><trkpt lat="44.9649667" lon="9.7378"><ele>93.33333333333333</ele><time>2026-05-01T13:30:35.997Z</time></trkpt><trkpt lat="44.9647983" lon="9.7377967"><ele>92.66666666666667</ele><time>2026-05-01T13:30:36.997Z</time></trkpt><trkpt lat="44.9646283" lon="9.737795"><ele>92.0</ele><time>2026-05-01T13:30:37.997Z</time></trkpt><trkpt lat="44.964455" lon="9.7377933"><ele>92.0</ele><time>2026-05-01T13:30:38.998Z</time></trkpt><trkpt lat="44.9642783" lon="9.7377883"><ele>92.0</ele><time>2026-05-01T13:30:39.996Z</time></trkpt><trkpt lat="44.9640967" lon="9.7377833"><ele>92.0</ele><time>2026-05-01T13:30:40.997Z</time></trkpt><trkpt lat="44.9639033" lon="9.737775"><ele>92.66666666666667</ele><time>2026-05-01T13:30:41.997Z</time></trkpt><trkpt lat="44.9637" lon="9.7377717"><ele>93.33333333333333</ele><time>2026-05-01T13:30:42.997Z</time></trkpt><trkpt lat="44.9634967" lon="9.7377667"><ele>94.0</ele><time>2026-05-01T13:30:43.997Z</time></trkpt><trkpt lat="44.9632967" lon="9.7377617"><ele>94.66666666666666</ele><time>2026-05-01T13:30:44.997Z</time></trkpt><trkpt lat="44.9631033" lon="9.7377583"><ele>95.33333333333333</ele><time>2026-05-01T13:30:45.996Z</time></trkpt><trkpt lat="44.962915" lon="9.737755"><ele>96.0</ele><time>2026-05-01T13:30:46.997Z</time></trkpt><trkpt lat="44.9627267" lon="9.7377517"><ele>96.0</ele><time>2026-05-01T13:30:47.998Z</time></trkpt><trkpt lat="44.96254" lon="9.7377483"><ele>96.0</ele><time>2026-05-01T13:30:48.996Z</time></trkpt><trkpt lat="44.9623483" lon="9.73774"><ele>96.0</ele><time>2026-05-01T13:30:49.997Z</time></trkpt><trkpt lat="44.9621583" lon="9.737735"><ele>95.66666666666667</ele><time>2026-05-01T13:30:50.999Z</time></trkpt><trkpt lat="44.9619667" lon="9.7377317"><ele>95.33333333333334</ele><time>2026-05-01T13:30:51.996Z</time></trkpt><trkpt lat="44.9617783" lon="9.73773"><ele>95.0</ele><time>2026-05-01T13:30:52.996Z</time></trkpt><trkpt lat="44.96159" lon="9.7377283"><ele>95.0</ele><time>2026-05-01T13:30:53.999Z</time></trkpt><trkpt lat="44.961405" lon="9.7377267"><ele>95.0</ele><time>2026-05-01T13:30:54.996Z</time></trkpt><trkpt lat="44.9612167" lon="9.7377217"><ele>95.0</ele><time>2026-05-01T13:30:55.997Z</time></trkpt><trkpt lat="44.9610333" lon="9.7377183"><ele>95.33333333333334</ele><time>2026-05-01T13:30:56.997Z</time></trkpt><trkpt lat="44.9608467" lon="9.7377117"><ele>95.66666666666667</ele><time>2026-05-01T13:30:57.997Z</time></trkpt><trkpt lat="44.9606633" lon="9.7377067"><ele>96.0</ele><time>2026-05-01T13:30:58.998Z</time></trkpt><trkpt lat="44.9604767" lon="9.7377033"><ele>96.0</ele><time>2026-05-01T13:30:59.997Z</time></trkpt><trkpt lat="44.9602917" lon="9.7377"><ele>96.0</ele><time>2026-05-01T13:31:00.996Z</time></trkpt><trkpt lat="44.9601083" lon="9.7376967"><ele>96.0</ele><time>2026-05-01T13:31:01.997Z</time></trkpt><trkpt lat="44.959925" lon="9.7376967"><ele>97.0</ele><time>2026-05-01T13:31:02.996Z</time></trkpt><trkpt lat="44.9597433" lon="9.737695"><ele>98.0</ele><time>2026-05-01T13:31:03.996Z</time></trkpt><trkpt lat="44.959565" lon="9.73769"><ele>99.0</ele><time>2026-05-01T13:31:04.998Z</time></trkpt><trkpt lat="44.9593917" lon="9.7376833"><ele>99.0</ele><time>2026-05-01T13:31:05.998Z</time></trkpt><trkpt lat="44.9592217" lon="9.73768"><ele>99.0</ele><time>2026-05-01T13:31:06.997Z</time></trkpt><trkpt lat="44.9590633" lon="9.7376817"><ele>99.0</ele><time>2026-05-01T13:31:07.997Z</time></trkpt><trkpt lat="44.958915" lon="9.7376817"><ele>99.0</ele><time>2026-05-01T13:31:08.998Z</time></trkpt><trkpt lat="44.95878" lon="9.73768"><ele>99.0</ele><time>2026-05-01T13:31:09.997Z</time></trkpt><trkpt lat="44.9586633" lon="9.73768"><ele>99.0</ele><time>2026-05-01T13:31:10.997Z</time></trkpt><trkpt lat="44.958565" lon="9.7376683"><ele>99.0</ele><time>2026-05-01T13:31:11.996Z</time></trkpt><trkpt lat="44.9584767" lon="9.7376467"><ele>99.0</ele><time>2026-05-01T13:31:12.997Z</time></trkpt><trkpt lat="44.9584" lon="9.7376033"><ele>99.4</ele><time>2026-05-01T13:31:13.996Z</time></trkpt><trkpt lat="44.9583433" lon="9.7375533"><ele>99.80000000000001</ele><time>2026-05-01T13:31:14.997Z</time></trkpt><trkpt lat="44.9582783" lon="9.7374767"><ele>100.19999999999999</ele><time>2026-05-01T13:31:16.996Z</time></trkpt><trkpt lat="44.9582167" lon="9.7375233"><ele>100.6</ele><time>2026-05-01T13:31:18.995Z</time></trkpt><trkpt lat="44.9581217" lon="9.7376083"><ele>101.0</ele><time>2026-05-01T13:31:20.998Z</time></trkpt><trkpt lat="44.95799" lon="9.737565"><ele>101.0</ele><time>2026-05-01T13:31:22.996Z</time></trkpt><trkpt lat="44.957905" lon="9.73751"><ele>101.0</ele><time>2026-05-01T13:31:23.996Z</time></trkpt><trkpt lat="44.9578133" lon="9.7374467"><ele>101.0</ele><time>2026-05-01T13:31:24.995Z</time></trkpt><trkpt lat="44.9577183" lon="9.7373817"><ele>101.0</ele><time>2026-05-01T13:31:25.997Z</time></trkpt><trkpt lat="44.95763" lon="9.7373217"><ele>101.0</ele><time>2026-05-01T13:31:26.996Z</time></trkpt><trkpt lat="44.9575417" lon="9.7372683"><ele>101.19999999999999</ele><time>2026-05-01T13:31:27.997Z</time></trkpt><trkpt lat="44.9574467" lon="9.7372283"><ele>101.39999999999999</ele><time>2026-05-01T13:31:28.996Z</time></trkpt><trkpt lat="44.95735" lon="9.7371933"><ele>101.6</ele><time>2026-05-01T13:31:29.998Z</time></trkpt><trkpt lat="44.9572483" lon="9.7371633"><ele>101.8</ele><time>2026-05-01T13:31:30.997Z</time></trkpt><trkpt lat="44.957145" lon="9.7371417"><ele>102.0</ele><time>2026-05-01T13:31:31.996Z</time></trkpt><trkpt lat="44.9570417" lon="9.7371183"><ele>102.0</ele><time>2026-05-01T13:31:32.997Z</time></trkpt><trkpt lat="44.9569367" lon="9.7370917"><ele>102.0</ele><time>2026-05-01T13:31:33.996Z</time></trkpt><trkpt lat="44.95683" lon="9.7370583"><ele>102.0</ele><time>2026-05-01T13:31:34.997Z</time></trkpt><trkpt lat="44.9567183" lon="9.7370167"><ele>102.0</ele><time>2026-05-01T13:31:35.996Z</time></trkpt><trkpt lat="44.9566" lon="9.7369717"><ele>102.25</ele><time>2026-05-01T13:31:36.996Z</time></trkpt><trkpt lat="44.95648" lon="9.73693"><ele>102.5</ele><time>2026-05-01T13:31:37.996Z</time></trkpt><trkpt lat="44.9563567" lon="9.73689"><ele>102.75</ele><time>2026-05-01T13:31:38.997Z</time></trkpt><trkpt lat="44.9562333" lon="9.7368467"><ele>103.0</ele><time>2026-05-01T13:31:39.995Z</time></trkpt><trkpt lat="44.9561083" lon="9.7368067"><ele>103.25</ele><time>2026-05-01T13:31:40.996Z</time></trkpt><trkpt lat="44.95598" lon="9.7367667"><ele>103.5</ele><time>2026-05-01T13:31:41.995Z</time></trkpt><trkpt lat="44.95585" lon="9.7367233"><ele>103.75</ele><time>2026-05-01T13:31:42.996Z</time></trkpt><trkpt lat="44.9557183" lon="9.73668"><ele>104.0</ele><time>2026-05-01T13:31:43.999Z</time></trkpt><trkpt lat="44.955585" lon="9.7366383"><ele>104.0</ele><time>2026-05-01T13:31:44.996Z</time></trkpt><trkpt lat="44.9554517" lon="9.7365967"><ele>104.0</ele><time>2026-05-01T13:31:45.995Z</time></trkpt><trkpt lat="44.9553167" lon="9.7365533"><ele>104.0</ele><time>2026-05-01T13:31:46.996Z</time></trkpt><trkpt lat="44.9551833" lon="9.7365117"><ele>104.0</ele><time>2026-05-01T13:31:47.996Z</time></trkpt><trkpt lat="44.9550483" lon="9.7364717"><ele>104.5</ele><time>2026-05-01T13:31:48.995Z</time></trkpt><trkpt lat="44.954915" lon="9.7364267"><ele>105.0</ele><time>2026-05-01T13:31:49.997Z</time></trkpt><trkpt lat="44.9547817" lon="9.7363883"><ele>105.5</ele><time>2026-05-01T13:31:50.996Z</time></trkpt><trkpt lat="44.9546433" lon="9.7363483"><ele>106.0</ele><time>2026-05-01T13:31:51.996Z</time></trkpt><trkpt lat="44.954505" lon="9.73631"><ele>106.0</ele><time>2026-05-01T13:31:52.996Z</time></trkpt><trkpt lat="44.954365" lon="9.7362683"><ele>106.0</ele><time>2026-05-01T13:31:53.996Z</time></trkpt><trkpt lat="44.9542217" lon="9.7362267"><ele>106.0</ele><time>2026-05-01T13:31:54.996Z</time></trkpt><trkpt lat="44.9540783" lon="9.7361833"><ele>106.0</ele><time>2026-05-01T13:31:55.997Z</time></trkpt><trkpt lat="44.9539367" lon="9.73614"><ele>106.0</ele><time>2026-05-01T13:31:56.996Z</time></trkpt><trkpt lat="44.9538033" lon="9.7360983"><ele>106.0</ele><time>2026-05-01T13:31:57.996Z</time></trkpt><trkpt lat="44.953675" lon="9.73605"><ele>106.0</ele><time>2026-05-01T13:31:58.996Z</time></trkpt><trkpt lat="44.9535633" lon="9.73599"><ele>106.0</ele><time>2026-05-01T13:31:59.996Z</time></trkpt><trkpt lat="44.9534633" lon="9.7358967"><ele>106.0</ele><time>2026-05-01T13:32:00.996Z</time></trkpt><trkpt lat="44.9533767" lon="9.7357833"><ele>106.0</ele><time>2026-05-01T13:32:01.997Z</time></trkpt><trkpt lat="44.95332" lon="9.735635"><ele>106.0</ele><time>2026-05-01T13:32:02.997Z</time></trkpt><trkpt lat="44.9532683" lon="9.7354683"><ele>106.0</ele><time>2026-05-01T13:32:03.996Z</time></trkpt><trkpt lat="44.9532167" lon="9.7352917"><ele>105.5</ele><time>2026-05-01T13:32:04.997Z</time></trkpt><trkpt lat="44.9531617" lon="9.7351167"><ele>105.0</ele><time>2026-05-01T13:32:05.996Z</time></trkpt><trkpt lat="44.9531033" lon="9.7349383"><ele>104.5</ele><time>2026-05-01T13:32:06.995Z</time></trkpt><trkpt lat="44.9530517" lon="9.7347583"><ele>104.0</ele><time>2026-05-01T13:32:07.998Z</time></trkpt><trkpt lat="44.953" lon="9.7345833"><ele>104.0</ele><time>2026-05-01T13:32:08.999Z</time></trkpt><trkpt lat="44.9529533" lon="9.734415"><ele>104.0</ele><time>2026-05-01T13:32:09.996Z</time></trkpt><trkpt lat="44.9529067" lon="9.7342533"><ele>104.0</ele><time>2026-05-01T13:32:10.995Z</time></trkpt><trkpt lat="44.9528533" lon="9.7341"><ele>104.0</ele><time>2026-05-01T13:32:11.996Z</time></trkpt><trkpt lat="44.9527883" lon="9.73396"><ele>104.0</ele><time>2026-05-01T13:32:12.996Z</time></trkpt><trkpt lat="44.9527067" lon="9.733835"><ele>104.0</ele><time>2026-05-01T13:32:13.998Z</time></trkpt><trkpt lat="44.9526083" lon="9.7337283"><ele>104.0</ele><time>2026-05-01T13:32:14.997Z</time></trkpt><trkpt lat="44.9524983" lon="9.73364"><ele>104.0</ele><time>2026-05-01T13:32:15.996Z</time></trkpt><trkpt lat="44.95238" lon="9.7335733"><ele>104.25</ele><time>2026-05-01T13:32:16.998Z</time></trkpt><trkpt lat="44.9522533" lon="9.7335267"><ele>104.5</ele><time>2026-05-01T13:32:17.996Z</time></trkpt><trkpt lat="44.9521267" lon="9.7334933"><ele>104.75</ele><time>2026-05-01T13:32:18.996Z</time></trkpt><trkpt lat="44.952" lon="9.7334717"><ele>105.0</ele><time>2026-05-01T13:32:19.996Z</time></trkpt><trkpt lat="44.9518683" lon="9.7334617"><ele>105.0</ele><time>2026-05-01T13:32:20.996Z</time></trkpt><trkpt lat="44.9517383" lon="9.7334517"><ele>105.0</ele><time>2026-05-01T13:32:21.996Z</time></trkpt><trkpt lat="44.9516117" lon="9.7334417"><ele>105.0</ele><time>2026-05-01T13:32:22.996Z</time></trkpt><trkpt lat="44.951495" lon="9.7334317"><ele>105.0</ele><time>2026-05-01T13:32:23.996Z</time></trkpt><trkpt lat="44.951385" lon="9.7334217"><ele>105.0</ele><time>2026-05-01T13:32:24.996Z</time></trkpt><trkpt lat="44.9512867" lon="9.733415"><ele>105.0</ele><time>2026-05-01T13:32:25.998Z</time></trkpt><trkpt lat="44.9511967" lon="9.73341"><ele>105.0</ele><time>2026-05-01T13:32:26.996Z</time></trkpt><trkpt lat="44.951115" lon="9.7334033"><ele>105.0</ele><time>2026-05-01T13:32:27.995Z</time></trkpt><trkpt lat="44.9510383" lon="9.7333967"><ele>105.0</ele><time>2026-05-01T13:32:28.996Z</time></trkpt><trkpt lat="44.950965" lon="9.73339"><ele>105.0</ele><time>2026-05-01T13:32:29.997Z</time></trkpt><trkpt lat="44.9508867" lon="9.7333817"><ele>105.2</ele><time>2026-05-01T13:32:30.996Z</time></trkpt><trkpt lat="44.9508033" lon="9.7333683"><ele>105.4</ele><time>2026-05-01T13:32:31.995Z</time></trkpt><trkpt lat="44.95071" lon="9.733355"><ele>105.6</ele><time>2026-05-01T13:32:32.996Z</time></trkpt><trkpt lat="44.9506067" lon="9.73334"><ele>105.8</ele><time>2026-05-01T13:32:33.996Z</time></trkpt><trkpt lat="44.9504933" lon="9.7333217"><ele>106.0</ele><time>2026-05-01T13:32:34.996Z</time></trkpt><trkpt lat="44.9503783" lon="9.7333"><ele>106.0</ele><time>2026-05-01T13:32:35.998Z</time></trkpt><trkpt lat="44.9502667" lon="9.7332733"><ele>106.0</ele><time>2026-05-01T13:32:36.996Z</time></trkpt><trkpt lat="44.9501567" lon="9.7332433"><ele>106.0</ele><time>2026-05-01T13:32:37.997Z</time></trkpt><trkpt lat="44.950045" lon="9.733215"><ele>106.0</ele><time>2026-05-01T13:32:38.996Z</time></trkpt><trkpt lat="44.9499383" lon="9.7331883"><ele>106.0</ele><time>2026-05-01T13:32:39.996Z</time></trkpt><trkpt lat="44.9498317" lon="9.733165"><ele>105.75</ele><time>2026-05-01T13:32:40.997Z</time></trkpt><trkpt lat="44.949725" lon="9.7331367"><ele>105.5</ele><time>2026-05-01T13:32:41.996Z</time></trkpt><trkpt lat="44.94961" lon="9.733105"><ele>105.25</ele><time>2026-05-01T13:32:42.996Z</time></trkpt><trkpt lat="44.9494917" lon="9.7330733"><ele>105.0</ele><time>2026-05-01T13:32:43.997Z</time></trkpt><trkpt lat="44.9493717" lon="9.7330417"><ele>105.0</ele><time>2026-05-01T13:32:44.997Z</time></trkpt><trkpt lat="44.9492483" lon="9.733005"><ele>105.0</ele><time>2026-05-01T13:32:45.996Z</time></trkpt><trkpt lat="44.94912" lon="9.732965"><ele>105.0</ele><time>2026-05-01T13:32:46.997Z</time></trkpt><trkpt lat="44.9489917" lon="9.732925"><ele>105.0</ele><time>2026-05-01T13:32:47.999Z</time></trkpt><trkpt lat="44.9488567" lon="9.732885"><ele>105.0</ele><time>2026-05-01T13:32:48.996Z</time></trkpt><trkpt lat="44.9487233" lon="9.73284"><ele>105.0</ele><time>2026-05-01T13:32:49.997Z</time></trkpt><trkpt lat="44.9485833" lon="9.7328017"><ele>105.0</ele><time>2026-05-01T13:32:50.997Z</time></trkpt><trkpt lat="44.9484433" lon="9.73276"><ele>105.0</ele><time>2026-05-01T13:32:51.996Z</time></trkpt><trkpt lat="44.9482983" lon="9.7327183"><ele>105.0</ele><time>2026-05-01T13:32:52.997Z</time></trkpt><trkpt lat="44.9481483" lon="9.732675"><ele>105.0</ele><time>2026-05-01T13:32:53.998Z</time></trkpt><trkpt lat="44.9479917" lon="9.7326317"><ele>105.0</ele><time>2026-05-01T13:32:54.997Z</time></trkpt><trkpt lat="44.94783" lon="9.73259"><ele>105.0</ele><time>2026-05-01T13:32:55.999Z</time></trkpt><trkpt lat="44.9476667" lon="9.73255"><ele>105.0</ele><time>2026-05-01T13:32:56.998Z</time></trkpt><trkpt lat="44.947505" lon="9.73251"><ele>105.0</ele><time>2026-05-01T13:32:57.997Z</time></trkpt><trkpt lat="44.9473467" lon="9.7324733"><ele>105.33333333333334</ele><time>2026-05-01T13:32:58.995Z</time></trkpt><trkpt lat="44.9471883" lon="9.7324317"><ele>105.66666666666667</ele><time>2026-05-01T13:32:59.997Z</time></trkpt><trkpt lat="44.94703" lon="9.7323917"><ele>106.0</ele><time>2026-05-01T13:33:00.996Z</time></trkpt><trkpt lat="44.9468717" lon="9.7323533"><ele>106.0</ele><time>2026-05-01T13:33:01.996Z</time></trkpt><trkpt lat="44.9467167" lon="9.7323133"><ele>106.0</ele><time>2026-05-01T13:33:02.997Z</time></trkpt><trkpt lat="44.9465617" lon="9.732275"><ele>106.0</ele><time>2026-05-01T13:33:03.996Z</time></trkpt><trkpt lat="44.94641" lon="9.7322383"><ele>106.0</ele><time>2026-05-01T13:33:04.996Z</time></trkpt><trkpt lat="44.94626" lon="9.7322017"><ele>106.0</ele><time>2026-05-01T13:33:05.997Z</time></trkpt><trkpt lat="44.9461133" lon="9.7321683"><ele>106.0</ele><time>2026-05-01T13:33:06.997Z</time></trkpt><trkpt lat="44.945965" lon="9.7321317"><ele>106.66666666666667</ele><time>2026-05-01T13:33:07.999Z</time></trkpt><trkpt lat="44.9458133" lon="9.732095"><ele>107.33333333333334</ele><time>2026-05-01T13:33:08.996Z</time></trkpt><trkpt lat="44.9456583" lon="9.7320567"><ele>108.0</ele><time>2026-05-01T13:33:09.996Z</time></trkpt><trkpt lat="44.9455017" lon="9.73202"><ele>108.0</ele><time>2026-05-01T13:33:10.997Z</time></trkpt><trkpt lat="44.9453467" lon="9.731985"><ele>108.0</ele><time>2026-05-01T13:33:11.996Z</time></trkpt><trkpt lat="44.9451967" lon="9.7319533"><ele>108.0</ele><time>2026-05-01T13:33:12.996Z</time></trkpt><trkpt lat="44.9450533" lon="9.7319217"><ele>107.75</ele><time>2026-05-01T13:33:13.997Z</time></trkpt><trkpt lat="44.9449167" lon="9.7318933"><ele>107.5</ele><time>2026-05-01T13:33:14.997Z</time></trkpt><trkpt lat="44.944785" lon="9.731865"><ele>107.25</ele><time>2026-05-01T13:33:15.996Z</time></trkpt><trkpt lat="44.9446583" lon="9.7318367"><ele>107.0</ele><time>2026-05-01T13:33:16.996Z</time></trkpt><trkpt lat="44.944535" lon="9.7318067"><ele>107.6</ele><time>2026-05-01T13:33:17.996Z</time></trkpt><trkpt lat="44.9444183" lon="9.7317817"><ele>108.19999999999999</ele><time>2026-05-01T13:33:18.996Z</time></trkpt><trkpt lat="44.9443083" lon="9.7317567"><ele>108.8</ele><time>2026-05-01T13:33:19.997Z</time></trkpt><trkpt lat="44.9442083" lon="9.7317367"><ele>109.4</ele><time>2026-05-01T13:33:20.997Z</time></trkpt><trkpt lat="44.9441283" lon="9.73172"><ele>110.0</ele><time>2026-05-01T13:33:21.996Z</time></trkpt><trkpt lat="44.94404" lon="9.731665"><ele>110.0</ele><time>2026-05-01T13:33:23.996Z</time></trkpt><trkpt lat="44.9440367" lon="9.7315433"><ele>110.0</ele><time>2026-05-01T13:33:25.996Z</time></trkpt><trkpt lat="44.9440567" lon="9.73144"><ele>110.0</ele><time>2026-05-01T13:33:26.997Z</time></trkpt><trkpt lat="44.944085" lon="9.731305"><ele>110.0</ele><time>2026-05-01T13:33:27.996Z</time></trkpt><trkpt lat="44.9441167" lon="9.7311617"><ele>110.0</ele><time>2026-05-01T13:33:28.996Z</time></trkpt><trkpt lat="44.9441467" lon="9.731015"><ele>110.0</ele><time>2026-05-01T13:33:29.998Z</time></trkpt><trkpt lat="44.9441767" lon="9.7308583"><ele>110.0</ele><time>2026-05-01T13:33:30.997Z</time></trkpt><trkpt lat="44.9442033" lon="9.730695"><ele>110.0</ele><time>2026-05-01T13:33:31.997Z</time></trkpt><trkpt lat="44.9442317" lon="9.730525"><ele>110.0</ele><time>2026-05-01T13:33:32.996Z</time></trkpt><trkpt lat="44.9442617" lon="9.7303433"><ele>109.75</ele><time>2026-05-01T13:33:33.996Z</time></trkpt><trkpt lat="44.9442917" lon="9.7301533"><ele>109.5</ele><time>2026-05-01T13:33:34.997Z</time></trkpt><trkpt lat="44.9443233" lon="9.7299533"><ele>109.25</ele><time>2026-05-01T13:33:35.999Z</time></trkpt><trkpt lat="44.944355" lon="9.72975"><ele>109.0</ele><time>2026-05-01T13:33:36.997Z</time></trkpt><trkpt lat="44.9443883" lon="9.72954"><ele>108.66666666666667</ele><time>2026-05-01T13:33:37.996Z</time></trkpt><trkpt lat="44.94442" lon="9.7293283"><ele>108.33333333333334</ele><time>2026-05-01T13:33:38.997Z</time></trkpt><trkpt lat="44.9444517" lon="9.7291117"><ele>108.0</ele><time>2026-05-01T13:33:39.996Z</time></trkpt><trkpt lat="44.9444833" lon="9.7288967"><ele>108.0</ele><time>2026-05-01T13:33:40.996Z</time></trkpt><trkpt lat="44.944515" lon="9.728685"><ele>108.0</ele><time>2026-05-01T13:33:41.996Z</time></trkpt><trkpt lat="44.94455" lon="9.72848"><ele>108.0</ele><time>2026-05-01T13:33:42.996Z</time></trkpt><trkpt lat="44.944585" lon="9.7282817"><ele>108.0</ele><time>2026-05-01T13:33:43.996Z</time></trkpt><trkpt lat="44.9446183" lon="9.72809"><ele>108.0</ele><time>2026-05-01T13:33:44.997Z</time></trkpt><trkpt lat="44.9446517" lon="9.7279"><ele>108.0</ele><time>2026-05-01T13:33:45.996Z</time></trkpt><trkpt lat="44.944685" lon="9.7277117"><ele>108.0</ele><time>2026-05-01T13:33:46.996Z</time></trkpt><trkpt lat="44.94472" lon="9.727525"><ele>108.0</ele><time>2026-05-01T13:33:47.998Z</time></trkpt><trkpt lat="44.9447533" lon="9.72734"><ele>108.5</ele><time>2026-05-01T13:33:48.997Z</time></trkpt><trkpt lat="44.944785" lon="9.7271617"><ele>109.0</ele><time>2026-05-01T13:33:49.996Z</time></trkpt><trkpt lat="44.944815" lon="9.7269933"><ele>109.5</ele><time>2026-05-01T13:33:50.999Z</time></trkpt><trkpt lat="44.944845" lon="9.7268367"><ele>110.0</ele><time>2026-05-01T13:33:51.996Z</time></trkpt><trkpt lat="44.9448767" lon="9.7266933"><ele>110.49999999999999</ele><time>2026-05-01T13:33:52.997Z</time></trkpt><trkpt lat="44.94491" lon="9.7265633"><ele>111.0</ele><time>2026-05-01T13:33:53.996Z</time></trkpt><trkpt lat="44.9449417" lon="9.7264517"><ele>111.5</ele><time>2026-05-01T13:33:54.996Z</time></trkpt><trkpt lat="44.944955" lon="9.7263517"><ele>112.0</ele><time>2026-05-01T13:33:55.997Z</time></trkpt><trkpt lat="44.9449433" lon="9.7262583"><ele>112.49999999999999</ele><time>2026-05-01T13:33:56.996Z</time></trkpt><trkpt lat="44.9449067" lon="9.7261833"><ele>113.0</ele><time>2026-05-01T13:33:57.997Z</time></trkpt><trkpt lat="44.9448433" lon="9.7261183"><ele>112.66666666666666</ele><time>2026-05-01T13:33:58.996Z</time></trkpt><trkpt lat="44.94477" lon="9.7260517"><ele>112.33333333333333</ele><time>2026-05-01T13:33:59.997Z</time></trkpt><trkpt lat="44.944705" lon="9.7259783"><ele>112.0</ele><time>2026-05-01T13:34:00.997Z</time></trkpt><trkpt lat="44.9446517" lon="9.72591"><ele>111.66666666666666</ele><time>2026-05-01T13:34:01.996Z</time></trkpt><trkpt lat="44.944605" lon="9.72585"><ele>111.33333333333333</ele><time>2026-05-01T13:34:02.996Z</time></trkpt><trkpt lat="44.9445383" lon="9.7257533"><ele>111.0</ele><time>2026-05-01T13:34:04.996Z</time></trkpt><trkpt lat="44.9444817" lon="9.7256767"><ele>111.0</ele><time>2026-05-01T13:34:06.996Z</time></trkpt><trkpt lat="44.9443933" lon="9.7255667"><ele>111.0</ele><time>2026-05-01T13:34:08.997Z</time></trkpt><trkpt lat="44.9443333" lon="9.7254883"><ele>111.0</ele><time>2026-05-01T13:34:09.996Z</time></trkpt><trkpt lat="44.9442667" lon="9.7254083"><ele>111.0</ele><time>2026-05-01T13:34:10.996Z</time></trkpt><trkpt lat="44.94419" lon="9.7253367"><ele>111.0</ele><time>2026-05-01T13:34:11.997Z</time></trkpt><trkpt lat="44.9441067" lon="9.7252833"><ele>111.4</ele><time>2026-05-01T13:34:12.996Z</time></trkpt><trkpt lat="44.944015" lon="9.7252417"><ele>111.8</ele><time>2026-05-01T13:34:13.997Z</time></trkpt><trkpt lat="44.943915" lon="9.7252033"><ele>112.20000000000002</ele><time>2026-05-01T13:34:14.997Z</time></trkpt><trkpt lat="44.943815" lon="9.7251683"><ele>112.60000000000001</ele><time>2026-05-01T13:34:15.997Z</time></trkpt><trkpt lat="44.9437183" lon="9.7251333"><ele>113.0</ele><time>2026-05-01T13:34:16.997Z</time></trkpt><trkpt lat="44.943625" lon="9.7250983"><ele>112.99999999999999</ele><time>2026-05-01T13:34:17.998Z</time></trkpt><trkpt lat="44.9435367" lon="9.7250633"><ele>113.0</ele><time>2026-05-01T13:34:18.996Z</time></trkpt><trkpt lat="44.9434533" lon="9.72503"><ele>113.0</ele><time>2026-05-01T13:34:19.996Z</time></trkpt><trkpt lat="44.9433783" lon="9.7249967"><ele>113.0</ele><time>2026-05-01T13:34:20.996Z</time></trkpt><trkpt lat="44.9433067" lon="9.7249617"><ele>112.99999999999999</ele><time>2026-05-01T13:34:21.997Z</time></trkpt><trkpt lat="44.94324" lon="9.724935"><ele>113.0</ele><time>2026-05-01T13:34:22.997Z</time></trkpt><trkpt lat="44.9431267" lon="9.724935"><ele>113.4</ele><time>2026-05-01T13:34:24.997Z</time></trkpt><trkpt lat="44.9430417" lon="9.7249883"><ele>113.80000000000001</ele><time>2026-05-01T13:34:26.996Z</time></trkpt><trkpt lat="44.9429367" lon="9.724975"><ele>114.2</ele><time>2026-05-01T13:34:28.996Z</time></trkpt><trkpt lat="44.9428283" lon="9.7249233"><ele>114.6</ele><time>2026-05-01T13:34:30.997Z</time></trkpt><trkpt lat="44.9427617" lon="9.72484"><ele>115.0</ele><time>2026-05-01T13:34:32.997Z</time></trkpt><trkpt lat="44.94269" lon="9.7246933"><ele>115.00000000000001</ele><time>2026-05-01T13:34:34.996Z</time></trkpt><trkpt lat="44.9426317" lon="9.7246267"><ele>115.0</ele><time>2026-05-01T13:34:35.998Z</time></trkpt><trkpt lat="44.9425617" lon="9.7245633"><ele>115.0</ele><time>2026-05-01T13:34:36.997Z</time></trkpt><trkpt lat="44.9424883" lon="9.7245033"><ele>115.0</ele><time>2026-05-01T13:34:37.999Z</time></trkpt><trkpt lat="44.9424067" lon="9.7244383"><ele>115.00000000000001</ele><time>2026-05-01T13:34:38.997Z</time></trkpt><trkpt lat="44.9423217" lon="9.7243683"><ele>115.0</ele><time>2026-05-01T13:34:39.996Z</time></trkpt><trkpt lat="44.9422333" lon="9.7243083"><ele>115.00000000000001</ele><time>2026-05-01T13:34:40.996Z</time></trkpt><trkpt lat="44.94215" lon="9.7242533"><ele>115.0</ele><time>2026-05-01T13:34:41.996Z</time></trkpt><trkpt lat="44.9420717" lon="9.7242"><ele>115.0</ele><time>2026-05-01T13:34:42.996Z</time></trkpt><trkpt lat="44.9419983" lon="9.7241433"><ele>115.0</ele><time>2026-05-01T13:34:43.997Z</time></trkpt><trkpt lat="44.9419267" lon="9.7240833"><ele>115.00000000000001</ele><time>2026-05-01T13:34:44.997Z</time></trkpt><trkpt lat="44.941855" lon="9.7240267"><ele>115.0</ele><time>2026-05-01T13:34:45.996Z</time></trkpt><trkpt lat="44.9417867" lon="9.723975"><ele>114.99999999999999</ele><time>2026-05-01T13:34:46.996Z</time></trkpt><trkpt lat="44.9417183" lon="9.72393"><ele>115.0</ele><time>2026-05-01T13:34:47.998Z</time></trkpt><trkpt lat="44.9416583" lon="9.7238767"><ele>114.99999999999999</ele><time>2026-05-01T13:34:48.997Z</time></trkpt><trkpt lat="44.9416017" lon="9.72382"><ele>114.99999999999999</ele><time>2026-05-01T13:34:49.997Z</time></trkpt><trkpt lat="44.9415433" lon="9.7237617"><ele>115.0</ele><time>2026-05-01T13:34:50.996Z</time></trkpt><trkpt lat="44.9414817" lon="9.72371"><ele>114.99999999999999</ele><time>2026-05-01T13:34:51.996Z</time></trkpt><trkpt lat="44.9414183" lon="9.7236633"><ele>114.99999999999999</ele><time>2026-05-01T13:34:52.996Z</time></trkpt><trkpt lat="44.941345" lon="9.723625"><ele>115.0</ele><time>2026-05-01T13:34:53.996Z</time></trkpt><trkpt lat="44.9412667" lon="9.7236"><ele>115.0</ele><time>2026-05-01T13:34:54.996Z</time></trkpt><trkpt lat="44.9411783" lon="9.7235783"><ele>115.0</ele><time>2026-05-01T13:34:55.998Z</time></trkpt><trkpt lat="44.9410833" lon="9.7235617"><ele>115.0</ele><time>2026-05-01T13:34:56.999Z</time></trkpt><trkpt lat="44.940985" lon="9.7235417"><ele>115.0</ele><time>2026-05-01T13:34:57.996Z</time></trkpt><trkpt lat="44.940885" lon="9.7235233"><ele>115.0</ele><time>2026-05-01T13:34:58.996Z</time></trkpt><trkpt lat="44.9407867" lon="9.723505"><ele>115.0</ele><time>2026-05-01T13:34:59.997Z</time></trkpt><trkpt lat="44.9406933" lon="9.7234883"><ele>115.0</ele><time>2026-05-01T13:35:00.996Z</time></trkpt><trkpt lat="44.9405967" lon="9.7234683"><ele>115.0</ele><time>2026-05-01T13:35:01.997Z</time></trkpt><trkpt lat="44.9405" lon="9.7234467"><ele>115.0</ele><time>2026-05-01T13:35:02.996Z</time></trkpt><trkpt lat="44.9404033" lon="9.72342"><ele>115.0</ele><time>2026-05-01T13:35:03.997Z</time></trkpt><trkpt lat="44.940305" lon="9.7233983"><ele>115.0</ele><time>2026-05-01T13:35:05Z</time></trkpt><trkpt lat="44.9402033" lon="9.7233783"><ele>115.0</ele><time>2026-05-01T13:35:05.997Z</time></trkpt><trkpt lat="44.940105" lon="9.7233633"><ele>115.0</ele><time>2026-05-01T13:35:06.996Z</time></trkpt><trkpt lat="44.9400083" lon="9.7233483"><ele>115.0</ele><time>2026-05-01T13:35:07.996Z</time></trkpt><trkpt lat="44.9399117" lon="9.7233333"><ele>115.2</ele><time>2026-05-01T13:35:08.998Z</time></trkpt><trkpt lat="44.939815" lon="9.723315"><ele>115.4</ele><time>2026-05-01T13:35:09.997Z</time></trkpt><trkpt lat="44.9397267" lon="9.7232933"><ele>115.6</ele><time>2026-05-01T13:35:10.996Z</time></trkpt><trkpt lat="44.9396467" lon="9.7232717"><ele>115.8</ele><time>2026-05-01T13:35:11.997Z</time></trkpt><trkpt lat="44.9395783" lon="9.7232617"><ele>116.0</ele><time>2026-05-01T13:35:12.996Z</time></trkpt><trkpt lat="44.9394633" lon="9.723275"><ele>116.0</ele><time>2026-05-01T13:35:14.997Z</time></trkpt><trkpt lat="44.9393567" lon="9.7232967"><ele>116.0</ele><time>2026-05-01T13:35:16.996Z</time></trkpt><trkpt lat="44.9392583" lon="9.72333"><ele>116.0</ele><time>2026-05-01T13:35:18.997Z</time></trkpt><trkpt lat="44.93919" lon="9.72335"><ele>116.0</ele><time>2026-05-01T13:35:20.997Z</time></trkpt><trkpt lat="44.9392773" lon="9.7233485"><ele>116.0</ele><time>2026-05-01T13:35:32.998Z</time></trkpt><trkpt lat="44.9393717" lon="9.7233103"><ele>115.99999999999999</ele><time>2026-05-01T13:35:33.996Z</time></trkpt><trkpt lat="44.9394536" lon="9.7232872"><ele>116.0</ele><time>2026-05-01T13:35:34.996Z</time></trkpt><trkpt lat="44.9395192" lon="9.7232669"><ele>116.0</ele><time>2026-05-01T13:35:35.997Z</time></trkpt><trkpt lat="44.9396045" lon="9.7231869"><ele>116.0</ele><time>2026-05-01T13:35:37.998Z</time></trkpt><trkpt lat="44.9396459" lon="9.72304"><ele>115.99999999999999</ele><time>2026-05-01T13:35:39.996Z</time></trkpt><trkpt lat="44.9396537" lon="9.7229384"><ele>116.0</ele><time>2026-05-01T13:35:40.996Z</time></trkpt><trkpt lat="44.9396553" lon="9.7228239"><ele>115.99999999999999</ele><time>2026-05-01T13:35:41.998Z</time></trkpt><trkpt lat="44.9396601" lon="9.7227066"><ele>116.0</ele><time>2026-05-01T13:35:42.996Z</time></trkpt><trkpt lat="44.9396734" lon="9.7226019"><ele>116.0</ele><time>2026-05-01T13:35:43.997Z</time></trkpt><trkpt lat="44.9396894" lon="9.7225078"><ele>116.0</ele><time>2026-05-01T13:35:44.996Z</time></trkpt><trkpt lat="44.939717" lon="9.7223481"><ele>115.99999999999999</ele><time>2026-05-01T13:35:46.997Z</time></trkpt><trkpt lat="44.9397255" lon="9.7222312"><ele>116.0</ele><time>2026-05-01T13:35:48.996Z</time></trkpt><trkpt lat="44.939642" lon="9.7221581"><ele>116.0</ele><time>2026-05-01T13:35:51.997Z</time></trkpt><trkpt lat="44.93955" lon="9.7221146"><ele>116.0</ele><time>2026-05-01T13:35:53.999Z</time></trkpt><trkpt lat="44.9394319" lon="9.7220899"><ele>116.0</ele><time>2026-05-01T13:35:55.996Z</time></trkpt><trkpt lat="44.9393178" lon="9.7220981"><ele>116.0</ele><time>2026-05-01T13:35:57.996Z</time></trkpt><trkpt lat="44.9392095" lon="9.7221044"><ele>116.0</ele><time>2026-05-01T13:35:59.997Z</time></trkpt><trkpt lat="44.9390861" lon="9.7221042"><ele>115.85714285714288</ele><time>2026-05-01T13:36:01.998Z</time></trkpt><trkpt lat="44.9390216" lon="9.7221049"><ele>115.71428571428572</ele><time>2026-05-01T13:36:02.998Z</time></trkpt><trkpt lat="44.938956" lon="9.7221054"><ele>115.57142857142857</ele><time>2026-05-01T13:36:03.996Z</time></trkpt><trkpt lat="44.9388866" lon="9.7221084"><ele>115.42857142857143</ele><time>2026-05-01T13:36:04.997Z</time></trkpt><trkpt lat="44.9388125" lon="9.7221117"><ele>115.28571428571428</ele><time>2026-05-01T13:36:05.998Z</time></trkpt><trkpt lat="44.9387389" lon="9.7221147"><ele>115.14285714285712</ele><time>2026-05-01T13:36:06.997Z</time></trkpt><trkpt lat="44.9386672" lon="9.722122"><ele>114.99999999999999</ele><time>2026-05-01T13:36:07.997Z</time></trkpt><trkpt lat="44.9385967" lon="9.7221325"><ele>115.0</ele><time>2026-05-01T13:36:08.997Z</time></trkpt><trkpt lat="44.9385242" lon="9.7221392"><ele>115.0</ele><time>2026-05-01T13:36:09.997Z</time></trkpt><trkpt lat="44.9384526" lon="9.7221433"><ele>115.0</ele><time>2026-05-01T13:36:10.998Z</time></trkpt><trkpt lat="44.9383878" lon="9.722148"><ele>115.0</ele><time>2026-05-01T13:36:11.996Z</time></trkpt><trkpt lat="44.9382679" lon="9.7221673"><ele>115.0</ele><time>2026-05-01T13:36:13.997Z</time></trkpt><trkpt lat="44.9381461" lon="9.7221743"><ele>114.85714285714283</ele><time>2026-05-01T13:36:15.996Z</time></trkpt><trkpt lat="44.9380796" lon="9.7221683"><ele>114.71428571428571</ele><time>2026-05-01T13:36:16.996Z</time></trkpt><trkpt lat="44.9380083" lon="9.7221551"><ele>114.57142857142856</ele><time>2026-05-01T13:36:17.997Z</time></trkpt><trkpt lat="44.9379332" lon="9.7221291"><ele>114.42857142857142</ele><time>2026-05-01T13:36:18.996Z</time></trkpt><trkpt lat="44.937858" lon="9.7220949"><ele>114.28571428571428</ele><time>2026-05-01T13:36:19.998Z</time></trkpt><trkpt lat="44.9377896" lon="9.7220564"><ele>114.14285714285714</ele><time>2026-05-01T13:36:20.999Z</time></trkpt><trkpt lat="44.9377242" lon="9.7220202"><ele>114.0</ele><time>2026-05-01T13:36:21.997Z</time></trkpt><trkpt lat="44.9376566" lon="9.7219909"><ele>114.0</ele><time>2026-05-01T13:36:22.996Z</time></trkpt><trkpt lat="44.9375884" lon="9.7219644"><ele>113.99999999999999</ele><time>2026-05-01T13:36:23.998Z</time></trkpt><trkpt lat="44.9375204" lon="9.7219352"><ele>114.0</ele><time>2026-05-01T13:36:24.996Z</time></trkpt><trkpt lat="44.9374546" lon="9.7219092"><ele>114.0</ele><time>2026-05-01T13:36:25.997Z</time></trkpt><trkpt lat="44.9373881" lon="9.721886"><ele>113.99999999999999</ele><time>2026-05-01T13:36:26.996Z</time></trkpt><trkpt lat="44.9373213" lon="9.7218634"><ele>114.0</ele><time>2026-05-01T13:36:27.997Z</time></trkpt><trkpt lat="44.9372534" lon="9.7218344"><ele>114.0</ele><time>2026-05-01T13:36:28.997Z</time></trkpt><trkpt lat="44.9371853" lon="9.7218051"><ele>114.16666666666667</ele><time>2026-05-01T13:36:29.998Z</time></trkpt><trkpt lat="44.9371185" lon="9.7217769"><ele>114.33333333333334</ele><time>2026-05-01T13:36:30.997Z</time></trkpt><trkpt lat="44.9370546" lon="9.7217499"><ele>114.5</ele><time>2026-05-01T13:36:31.996Z</time></trkpt><trkpt lat="44.9369368" lon="9.7216977"><ele>114.66666666666667</ele><time>2026-05-01T13:36:33.997Z</time></trkpt><trkpt lat="44.9368772" lon="9.7216678"><ele>114.83333333333334</ele><time>2026-05-01T13:36:34.999Z</time></trkpt><trkpt lat="44.9367743" lon="9.7216097"><ele>115.0</ele><time>2026-05-01T13:36:36.997Z</time></trkpt><trkpt lat="44.9366808" lon="9.7215394"><ele>115.28571428571428</ele><time>2026-05-01T13:36:38.997Z</time></trkpt><trkpt lat="44.9366286" lon="9.7214864"><ele>115.57142857142857</ele><time>2026-05-01T13:36:39.996Z</time></trkpt><trkpt lat="44.9365739" lon="9.7214309"><ele>115.85714285714286</ele><time>2026-05-01T13:36:40.997Z</time></trkpt><trkpt lat="44.9365182" lon="9.7213761"><ele>116.14285714285714</ele><time>2026-05-01T13:36:41.996Z</time></trkpt><trkpt lat="44.9364662" lon="9.7213179"><ele>116.42857142857144</ele><time>2026-05-01T13:36:42.996Z</time></trkpt><trkpt lat="44.9364172" lon="9.721261"><ele>116.71428571428572</ele><time>2026-05-01T13:36:43.997Z</time></trkpt><trkpt lat="44.9363172" lon="9.7211738"><ele>117.0</ele><time>2026-05-01T13:36:45.996Z</time></trkpt><trkpt lat="44.9362113" lon="9.7211164"><ele>117.0</ele><time>2026-05-01T13:36:47.998Z</time></trkpt><trkpt lat="44.9361103" lon="9.7210511"><ele>116.99999999999999</ele><time>2026-05-01T13:36:49.997Z</time></trkpt><trkpt lat="44.9360206" lon="9.7209729"><ele>116.99999999999999</ele><time>2026-05-01T13:36:51.997Z</time></trkpt><trkpt lat="44.9359243" lon="9.7209207"><ele>117.0</ele><time>2026-05-01T13:36:53.997Z</time></trkpt><trkpt lat="44.9358619" lon="9.7208978"><ele>117.0</ele><time>2026-05-01T13:36:54.998Z</time></trkpt><trkpt lat="44.9357952" lon="9.7208711"><ele>117.0</ele><time>2026-05-01T13:36:55.997Z</time></trkpt><trkpt lat="44.9357273" lon="9.7208374"><ele>117.0</ele><time>2026-05-01T13:36:56.997Z</time></trkpt><trkpt lat="44.9356573" lon="9.7207982"><ele>117.0</ele><time>2026-05-01T13:36:57.996Z</time></trkpt><trkpt lat="44.935586" lon="9.7207522"><ele>117.0</ele><time>2026-05-01T13:36:58.997Z</time></trkpt><trkpt lat="44.9355088" lon="9.7207016"><ele>117.0</ele><time>2026-05-01T13:36:59.997Z</time></trkpt><trkpt lat="44.935425" lon="9.7206469"><ele>117.0</ele><time>2026-05-01T13:37:00.997Z</time></trkpt><trkpt lat="44.9353378" lon="9.7205899"><ele>117.0</ele><time>2026-05-01T13:37:01.998Z</time></trkpt><trkpt lat="44.93525" lon="9.7205326"><ele>116.99999999999999</ele><time>2026-05-01T13:37:02.997Z</time></trkpt><trkpt lat="44.9351664" lon="9.7204818"><ele>116.99999999999999</ele><time>2026-05-01T13:37:03.997Z</time></trkpt><trkpt lat="44.9350839" lon="9.7204328"><ele>117.0</ele><time>2026-05-01T13:37:04.997Z</time></trkpt><trkpt lat="44.9350016" lon="9.7203768"><ele>117.0</ele><time>2026-05-01T13:37:05.997Z</time></trkpt><trkpt lat="44.9349253" lon="9.7203142"><ele>117.0</ele><time>2026-05-01T13:37:06.997Z</time></trkpt><trkpt lat="44.9348526" lon="9.7202432"><ele>117.0</ele><time>2026-05-01T13:37:07.998Z</time></trkpt><trkpt lat="44.9347826" lon="9.72017"><ele>117.0</ele><time>2026-05-01T13:37:08.997Z</time></trkpt><trkpt lat="44.93472" lon="9.7200999"><ele>117.0</ele><time>2026-05-01T13:37:09.998Z</time></trkpt><trkpt lat="44.9346636" lon="9.7200372"><ele>117.0</ele><time>2026-05-01T13:37:10.997Z</time></trkpt><trkpt lat="44.9346119" lon="9.7199821"><ele>117.0</ele><time>2026-05-01T13:37:11.997Z</time></trkpt><trkpt lat="44.9345141" lon="9.7198816"><ele>117.0</ele><time>2026-05-01T13:37:13.997Z</time></trkpt><trkpt lat="44.9344636" lon="9.7198266"><ele>117.0</ele><time>2026-05-01T13:37:14.997Z</time></trkpt><trkpt lat="44.9344089" lon="9.7197693"><ele>117.0</ele><time>2026-05-01T13:37:15.997Z</time></trkpt><trkpt lat="44.9343449" lon="9.7197082"><ele>117.0</ele><time>2026-05-01T13:37:16.997Z</time></trkpt><trkpt lat="44.9342748" lon="9.7196433"><ele>117.0</ele><time>2026-05-01T13:37:17.997Z</time></trkpt><trkpt lat="44.9342034" lon="9.7195791"><ele>117.0</ele><time>2026-05-01T13:37:18.996Z</time></trkpt><trkpt lat="44.9341274" lon="9.7195196"><ele>117.16666666666667</ele><time>2026-05-01T13:37:19.997Z</time></trkpt><trkpt lat="44.9340491" lon="9.7194701"><ele>117.33333333333334</ele><time>2026-05-01T13:37:20.997Z</time></trkpt><trkpt lat="44.933965" lon="9.7194259"><ele>117.5</ele><time>2026-05-01T13:37:21.996Z</time></trkpt><trkpt lat="44.9338817" lon="9.719386"><ele>117.66666666666667</ele><time>2026-05-01T13:37:22.997Z</time></trkpt><trkpt lat="44.9338058" lon="9.7193453"><ele>117.83333333333334</ele><time>2026-05-01T13:37:23.997Z</time></trkpt><trkpt lat="44.933734" lon="9.7193005"><ele>118.0</ele><time>2026-05-01T13:37:24.997Z</time></trkpt><trkpt lat="44.9336658" lon="9.7192562"><ele>118.16666666666667</ele><time>2026-05-01T13:37:25.998Z</time></trkpt><trkpt lat="44.9336041" lon="9.7192026"><ele>118.33333333333334</ele><time>2026-05-01T13:37:26.997Z</time></trkpt><trkpt lat="44.9335478" lon="9.7191327"><ele>118.5</ele><time>2026-05-01T13:37:27.997Z</time></trkpt><trkpt lat="44.9334985" lon="9.7190554"><ele>118.66666666666666</ele><time>2026-05-01T13:37:28.998Z</time></trkpt><trkpt lat="44.9334567" lon="9.7189733"><ele>118.83333333333333</ele><time>2026-05-01T13:37:29.997Z</time></trkpt><trkpt lat="44.9334033" lon="9.718885"><ele>119.0</ele><time>2026-05-01T13:37:30.998Z</time></trkpt><trkpt lat="44.9333533" lon="9.7187983"><ele>119.16666666666666</ele><time>2026-05-01T13:37:31.998Z</time></trkpt><trkpt lat="44.9333067" lon="9.718705"><ele>119.33333333333333</ele><time>2026-05-01T13:37:32.997Z</time></trkpt><trkpt lat="44.9332583" lon="9.71861"><ele>119.5</ele><time>2026-05-01T13:37:33.996Z</time></trkpt><trkpt lat="44.93321" lon="9.71851"><ele>119.66666666666666</ele><time>2026-05-01T13:37:34.999Z</time></trkpt><trkpt lat="44.9331633" lon="9.718405"><ele>119.83333333333333</ele><time>2026-05-01T13:37:35.996Z</time></trkpt><trkpt lat="44.9331217" lon="9.7182933"><ele>120.0</ele><time>2026-05-01T13:37:36.996Z</time></trkpt><trkpt lat="44.93308" lon="9.7181817"><ele>120.0</ele><time>2026-05-01T13:37:37.996Z</time></trkpt><trkpt lat="44.93303" lon="9.7180683"><ele>120.0</ele><time>2026-05-01T13:37:38.997Z</time></trkpt><trkpt lat="44.9329783" lon="9.7179567"><ele>120.0</ele><time>2026-05-01T13:37:39.997Z</time></trkpt><trkpt lat="44.9329283" lon="9.7178517"><ele>120.0</ele><time>2026-05-01T13:37:40.996Z</time></trkpt><trkpt lat="44.932875" lon="9.7177583"><ele>120.0</ele><time>2026-05-01T13:37:41.998Z</time></trkpt><trkpt lat="44.9328267" lon="9.7176717"><ele>120.0</ele><time>2026-05-01T13:37:42.998Z</time></trkpt><trkpt lat="44.932785" lon="9.7175867"><ele>119.83333333333333</ele><time>2026-05-01T13:37:43.998Z</time></trkpt><trkpt lat="44.9327467" lon="9.717505"><ele>119.66666666666666</ele><time>2026-05-01T13:37:44.997Z</time></trkpt><trkpt lat="44.9327" lon="9.7174267"><ele>119.5</ele><time>2026-05-01T13:37:45.996Z</time></trkpt><trkpt lat="44.9326533" lon="9.7173483"><ele>119.33333333333333</ele><time>2026-05-01T13:37:46.997Z</time></trkpt><trkpt lat="44.932605" lon="9.7172683"><ele>119.16666666666666</ele><time>2026-05-01T13:37:47.998Z</time></trkpt><trkpt lat="44.932555" lon="9.7171817"><ele>119.0</ele><time>2026-05-01T13:37:48.996Z</time></trkpt><trkpt lat="44.9325" lon="9.7170867"><ele>119.16666666666666</ele><time>2026-05-01T13:37:49.996Z</time></trkpt><trkpt lat="44.9324417" lon="9.7169867"><ele>119.33333333333333</ele><time>2026-05-01T13:37:50.997Z</time></trkpt><trkpt lat="44.93239" lon="9.7168883"><ele>119.5</ele><time>2026-05-01T13:37:51.996Z</time></trkpt><trkpt lat="44.93234" lon="9.7167883"><ele>119.66666666666666</ele><time>2026-05-01T13:37:52.997Z</time></trkpt><trkpt lat="44.9322883" lon="9.7166883"><ele>119.83333333333333</ele><time>2026-05-01T13:37:53.997Z</time></trkpt><trkpt lat="44.932235" lon="9.7165917"><ele>120.0</ele><time>2026-05-01T13:37:54.996Z</time></trkpt><trkpt lat="44.9321767" lon="9.716505"><ele>120.0</ele><time>2026-05-01T13:37:55.997Z</time></trkpt><trkpt lat="44.9321133" lon="9.7164183"><ele>120.0</ele><time>2026-05-01T13:37:56.997Z</time></trkpt><trkpt lat="44.9320467" lon="9.716325"><ele>120.0</ele><time>2026-05-01T13:37:57.996Z</time></trkpt><trkpt lat="44.9319783" lon="9.7162283"><ele>120.0</ele><time>2026-05-01T13:37:58.997Z</time></trkpt><trkpt lat="44.9319117" lon="9.7161283"><ele>120.0</ele><time>2026-05-01T13:37:59.997Z</time></trkpt><trkpt lat="44.9318483" lon="9.7160267"><ele>120.0</ele><time>2026-05-01T13:38:00.998Z</time></trkpt><trkpt lat="44.9317833" lon="9.715925"><ele>120.0</ele><time>2026-05-01T13:38:01.998Z</time></trkpt><trkpt lat="44.93172" lon="9.7158333"><ele>120.0</ele><time>2026-05-01T13:38:02.999Z</time></trkpt><trkpt lat="44.93166" lon="9.7157517"><ele>120.0</ele><time>2026-05-01T13:38:03.998Z</time></trkpt><trkpt lat="44.9316017" lon="9.7156783"><ele>120.0</ele><time>2026-05-01T13:38:04.999Z</time></trkpt><trkpt lat="44.9315483" lon="9.7156117"><ele>120.0</ele><time>2026-05-01T13:38:05.999Z</time></trkpt><trkpt lat="44.9314983" lon="9.7155517"><ele>120.2</ele><time>2026-05-01T13:38:06.997Z</time></trkpt><trkpt lat="44.931425" lon="9.71543"><ele>120.4</ele><time>2026-05-01T13:38:08.997Z</time></trkpt><trkpt lat="44.9313467" lon="9.7152933"><ele>120.6</ele><time>2026-05-01T13:38:10.997Z</time></trkpt><trkpt lat="44.9313017" lon="9.7152117"><ele>120.8</ele><time>2026-05-01T13:38:11.996Z</time></trkpt><trkpt lat="44.931255" lon="9.71512"><ele>121.0</ele><time>2026-05-01T13:38:12.997Z</time></trkpt><trkpt lat="44.931205" lon="9.7150267"><ele>121.16666666666667</ele><time>2026-05-01T13:38:13.998Z</time></trkpt><trkpt lat="44.931155" lon="9.7149317"><ele>121.33333333333334</ele><time>2026-05-01T13:38:14.998Z</time></trkpt><trkpt lat="44.9311033" lon="9.7148333"><ele>121.5</ele><time>2026-05-01T13:38:15.997Z</time></trkpt><trkpt lat="44.9310533" lon="9.7147333"><ele>121.66666666666666</ele><time>2026-05-01T13:38:16.997Z</time></trkpt><trkpt lat="44.9310033" lon="9.7146367"><ele>121.83333333333333</ele><time>2026-05-01T13:38:17.998Z</time></trkpt><trkpt lat="44.930955" lon="9.7145433"><ele>122.0</ele><time>2026-05-01T13:38:18.998Z</time></trkpt><trkpt lat="44.93091" lon="9.7144533"><ele>122.33333333333333</ele><time>2026-05-01T13:38:19.996Z</time></trkpt><trkpt lat="44.9308617" lon="9.7143583"><ele>122.66666666666666</ele><time>2026-05-01T13:38:20.997Z</time></trkpt><trkpt lat="44.9308133" lon="9.714265"><ele>123.0</ele><time>2026-05-01T13:38:21.996Z</time></trkpt><trkpt lat="44.930765" lon="9.7141717"><ele>123.33333333333334</ele><time>2026-05-01T13:38:22.998Z</time></trkpt><trkpt lat="44.9307167" lon="9.7140733"><ele>123.66666666666667</ele><time>2026-05-01T13:38:23.996Z</time></trkpt><trkpt lat="44.9306667" lon="9.7139783"><ele>124.0</ele><time>2026-05-01T13:38:24.996Z</time></trkpt><trkpt lat="44.9306183" lon="9.7138867"><ele>124.0</ele><time>2026-05-01T13:38:25.996Z</time></trkpt><trkpt lat="44.9305783" lon="9.713795"><ele>124.00000000000001</ele><time>2026-05-01T13:38:26.997Z</time></trkpt><trkpt lat="44.9305483" lon="9.7137"><ele>124.0</ele><time>2026-05-01T13:38:27.997Z</time></trkpt><trkpt lat="44.9305233" lon="9.7136067"><ele>124.0</ele><time>2026-05-01T13:38:28.998Z</time></trkpt><trkpt lat="44.9305017" lon="9.7135133"><ele>124.00000000000001</ele><time>2026-05-01T13:38:29.998Z</time></trkpt><trkpt lat="44.93047" lon="9.7134183"><ele>124.0</ele><time>2026-05-01T13:38:30.996Z</time></trkpt><trkpt lat="44.9304283" lon="9.713325"><ele>124.0</ele><time>2026-05-01T13:38:31.996Z</time></trkpt><trkpt lat="44.9303767" lon="9.7132333"><ele>123.83333333333334</ele><time>2026-05-01T13:38:32.997Z</time></trkpt><trkpt lat="44.9303233" lon="9.7131433"><ele>123.66666666666667</ele><time>2026-05-01T13:38:33.997Z</time></trkpt><trkpt lat="44.930265" lon="9.713055"><ele>123.5</ele><time>2026-05-01T13:38:34.996Z</time></trkpt><trkpt lat="44.9302117" lon="9.7129783"><ele>123.33333333333334</ele><time>2026-05-01T13:38:35.996Z</time></trkpt><trkpt lat="44.9301617" lon="9.712905"><ele>123.16666666666667</ele><time>2026-05-01T13:38:36.996Z</time></trkpt><trkpt lat="44.930115" lon="9.7128267"><ele>123.0</ele><time>2026-05-01T13:38:37.997Z</time></trkpt><trkpt lat="44.9300667" lon="9.7127417"><ele>123.16666666666667</ele><time>2026-05-01T13:38:38.997Z</time></trkpt><trkpt lat="44.9300183" lon="9.7126567"><ele>123.33333333333334</ele><time>2026-05-01T13:38:39.999Z</time></trkpt><trkpt lat="44.9299667" lon="9.71257"><ele>123.5</ele><time>2026-05-01T13:38:40.999Z</time></trkpt><trkpt lat="44.92992" lon="9.7124817"><ele>123.66666666666667</ele><time>2026-05-01T13:38:41.999Z</time></trkpt><trkpt lat="44.929875" lon="9.7123967"><ele>123.83333333333334</ele><time>2026-05-01T13:38:42.998Z</time></trkpt><trkpt lat="44.92983" lon="9.712305"><ele>124.0</ele><time>2026-05-01T13:38:43.998Z</time></trkpt><trkpt lat="44.9297883" lon="9.7122133"><ele>124.0</ele><time>2026-05-01T13:38:44.998Z</time></trkpt><trkpt lat="44.9297433" lon="9.712125"><ele>124.00000000000001</ele><time>2026-05-01T13:38:45.996Z</time></trkpt><trkpt lat="44.9296967" lon="9.7120417"><ele>124.0</ele><time>2026-05-01T13:38:46.996Z</time></trkpt><trkpt lat="44.9296583" lon="9.7119583"><ele>124.0</ele><time>2026-05-01T13:38:47.996Z</time></trkpt><trkpt lat="44.9296217" lon="9.7118767"><ele>124.00000000000001</ele><time>2026-05-01T13:38:48.997Z</time></trkpt><trkpt lat="44.9295817" lon="9.7117833"><ele>124.0</ele><time>2026-05-01T13:38:49.996Z</time></trkpt><trkpt lat="44.9295383" lon="9.7116867"><ele>124.0</ele><time>2026-05-01T13:38:50.996Z</time></trkpt><trkpt lat="44.9294933" lon="9.711585"><ele>124.00000000000001</ele><time>2026-05-01T13:38:51.998Z</time></trkpt><trkpt lat="44.929445" lon="9.7114833"><ele>124.0</ele><time>2026-05-01T13:38:52.996Z</time></trkpt><trkpt lat="44.9293933" lon="9.7113833"><ele>124.0</ele><time>2026-05-01T13:38:53.997Z</time></trkpt><trkpt lat="44.929345" lon="9.711285"><ele>124.0</ele><time>2026-05-01T13:38:54.997Z</time></trkpt><trkpt lat="44.929295" lon="9.711175"><ele>124.00000000000001</ele><time>2026-05-01T13:38:55.996Z</time></trkpt><trkpt lat="44.92924" lon="9.7110617"><ele>124.0</ele><time>2026-05-01T13:38:56.997Z</time></trkpt><trkpt lat="44.9291833" lon="9.7109433"><ele>124.0</ele><time>2026-05-01T13:38:57.997Z</time></trkpt><trkpt lat="44.9291283" lon="9.7108233"><ele>124.0</ele><time>2026-05-01T13:38:58.997Z</time></trkpt><trkpt lat="44.9290783" lon="9.7107083"><ele>124.0</ele><time>2026-05-01T13:38:59.997Z</time></trkpt><trkpt lat="44.929035" lon="9.710595"><ele>124.0</ele><time>2026-05-01T13:39:00.998Z</time></trkpt><trkpt lat="44.928995" lon="9.710485"><ele>124.0</ele><time>2026-05-01T13:39:01.999Z</time></trkpt><trkpt lat="44.9289517" lon="9.7103833"><ele>124.0</ele><time>2026-05-01T13:39:02.998Z</time></trkpt><trkpt lat="44.9289133" lon="9.7102867"><ele>124.00000000000001</ele><time>2026-05-01T13:39:03.997Z</time></trkpt><trkpt lat="44.9288783" lon="9.7102"><ele>124.0</ele><time>2026-05-01T13:39:04.998Z</time></trkpt><trkpt lat="44.9288433" lon="9.7101167"><ele>124.0</ele><time>2026-05-01T13:39:05.998Z</time></trkpt><trkpt lat="44.928805" lon="9.7100317"><ele>124.00000000000001</ele><time>2026-05-01T13:39:06.997Z</time></trkpt><trkpt lat="44.9287667" lon="9.7099517"><ele>124.0</ele><time>2026-05-01T13:39:07.998Z</time></trkpt><trkpt lat="44.928725" lon="9.7098767"><ele>124.0</ele><time>2026-05-01T13:39:08.999Z</time></trkpt><trkpt lat="44.9286733" lon="9.7098133"><ele>124.16666666666667</ele><time>2026-05-01T13:39:09.998Z</time></trkpt><trkpt lat="44.92861" lon="9.7097517"><ele>124.33333333333334</ele><time>2026-05-01T13:39:10.998Z</time></trkpt><trkpt lat="44.9285383" lon="9.7096833"><ele>124.5</ele><time>2026-05-01T13:39:11.996Z</time></trkpt><trkpt lat="44.9284667" lon="9.7096117"><ele>124.66666666666666</ele><time>2026-05-01T13:39:12.996Z</time></trkpt><trkpt lat="44.928395" lon="9.709535"><ele>124.83333333333333</ele><time>2026-05-01T13:39:13.996Z</time></trkpt><trkpt lat="44.9283283" lon="9.7094617"><ele>125.0</ele><time>2026-05-01T13:39:14.997Z</time></trkpt><trkpt lat="44.9282783" lon="9.7093967"><ele>125.2</ele><time>2026-05-01T13:39:15.995Z</time></trkpt><trkpt lat="44.92821" lon="9.709275"><ele>125.4</ele><time>2026-05-01T13:39:17.997Z</time></trkpt><trkpt lat="44.9281717" lon="9.709145"><ele>125.6</ele><time>2026-05-01T13:39:19.997Z</time></trkpt><trkpt lat="44.928135" lon="9.70898"><ele>125.8</ele><time>2026-05-01T13:39:21.996Z</time></trkpt><trkpt lat="44.928115" lon="9.70888"><ele>126.0</ele><time>2026-05-01T13:39:22.996Z</time></trkpt><trkpt lat="44.9280967" lon="9.7087733"><ele>126.0</ele><time>2026-05-01T13:39:23.996Z</time></trkpt><trkpt lat="44.92808" lon="9.7086667"><ele>126.0</ele><time>2026-05-01T13:39:24.995Z</time></trkpt><trkpt lat="44.9280583" lon="9.7085533"><ele>126.0</ele><time>2026-05-01T13:39:25.995Z</time></trkpt><trkpt lat="44.9280367" lon="9.7084417"><ele>126.0</ele><time>2026-05-01T13:39:26.996Z</time></trkpt><trkpt lat="44.9280083" lon="9.708335"><ele>126.0</ele><time>2026-05-01T13:39:27.997Z</time></trkpt><trkpt lat="44.927985" lon="9.7082417"><ele>126.0</ele><time>2026-05-01T13:39:28.996Z</time></trkpt><trkpt lat="44.9279533" lon="9.70815"><ele>126.14285714285714</ele><time>2026-05-01T13:39:29.995Z</time></trkpt><trkpt lat="44.9279133" lon="9.70806"><ele>126.28571428571428</ele><time>2026-05-01T13:39:30.995Z</time></trkpt><trkpt lat="44.927865" lon="9.7079783"><ele>126.42857142857143</ele><time>2026-05-01T13:39:31.996Z</time></trkpt><trkpt lat="44.9278167" lon="9.7079"><ele>126.57142857142857</ele><time>2026-05-01T13:39:32.997Z</time></trkpt><trkpt lat="44.9277683" lon="9.7078267"><ele>126.71428571428571</ele><time>2026-05-01T13:39:33.997Z</time></trkpt><trkpt lat="44.9277167" lon="9.7077567"><ele>126.85714285714286</ele><time>2026-05-01T13:39:34.996Z</time></trkpt><trkpt lat="44.9276617" lon="9.7077017"><ele>127.0</ele><time>2026-05-01T13:39:35.997Z</time></trkpt><trkpt lat="44.9276017" lon="9.70766"><ele>127.16666666666667</ele><time>2026-05-01T13:39:36.996Z</time></trkpt><trkpt lat="44.9275283" lon="9.7076183"><ele>127.33333333333334</ele><time>2026-05-01T13:39:37.996Z</time></trkpt><trkpt lat="44.927455" lon="9.7075767"><ele>127.5</ele><time>2026-05-01T13:39:38.997Z</time></trkpt><trkpt lat="44.9273733" lon="9.7075383"><ele>127.66666666666666</ele><time>2026-05-01T13:39:39.997Z</time></trkpt><trkpt lat="44.9272957" lon="9.7075037"><ele>127.83333333333333</ele><time>2026-05-01T13:39:40.997Z</time></trkpt><trkpt lat="44.9272177" lon="9.7074717"><ele>128.0</ele><time>2026-05-01T13:39:41.996Z</time></trkpt><trkpt lat="44.9271439" lon="9.7074424"><ele>127.99999999999999</ele><time>2026-05-01T13:39:42.996Z</time></trkpt><trkpt lat="44.9270689" lon="9.7074164"><ele>128.0</ele><time>2026-05-01T13:39:43.996Z</time></trkpt><trkpt lat="44.926989" lon="9.7073972"><ele>128.0</ele><time>2026-05-01T13:39:44.996Z</time></trkpt><trkpt lat="44.9269059" lon="9.707396"><ele>128.0</ele><time>2026-05-01T13:39:45.996Z</time></trkpt><trkpt lat="44.9268179" lon="9.7074176"><ele>127.99999999999999</ele><time>2026-05-01T13:39:46.996Z</time></trkpt><trkpt lat="44.9267321" lon="9.7074577"><ele>128.0</ele><time>2026-05-01T13:39:47.995Z</time></trkpt><trkpt lat="44.9266513" lon="9.7075026"><ele>128.16666666666666</ele><time>2026-05-01T13:39:48.995Z</time></trkpt><trkpt lat="44.9265751" lon="9.7075448"><ele>128.33333333333331</ele><time>2026-05-01T13:39:49.995Z</time></trkpt><trkpt lat="44.9265017" lon="9.707577"><ele>128.5</ele><time>2026-05-01T13:39:50.996Z</time></trkpt><trkpt lat="44.9264373" lon="9.7075902"><ele>128.66666666666666</ele><time>2026-05-01T13:39:51.998Z</time></trkpt><trkpt lat="44.9263444" lon="9.7075905"><ele>128.83333333333334</ele><time>2026-05-01T13:39:53.996Z</time></trkpt><trkpt lat="44.9262495" lon="9.7076041"><ele>129.0</ele><time>2026-05-01T13:39:55.998Z</time></trkpt><trkpt lat="44.9261867" lon="9.7076123"><ele>129.0</ele><time>2026-05-01T13:39:56.996Z</time></trkpt><trkpt lat="44.9261152" lon="9.7076204"><ele>129.0</ele><time>2026-05-01T13:39:57.996Z</time></trkpt><trkpt lat="44.9260353" lon="9.7076346"><ele>129.0</ele><time>2026-05-01T13:39:58.996Z</time></trkpt><trkpt lat="44.9259498" lon="9.7076579"><ele>129.0</ele><time>2026-05-01T13:39:59.995Z</time></trkpt><trkpt lat="44.9258652" lon="9.7076855"><ele>129.0</ele><time>2026-05-01T13:40:00.995Z</time></trkpt><trkpt lat="44.9257817" lon="9.7077082"><ele>129.0</ele><time>2026-05-01T13:40:01.995Z</time></trkpt><trkpt lat="44.9256998" lon="9.7077208"><ele>128.83333333333334</ele><time>2026-05-01T13:40:02.996Z</time></trkpt><trkpt lat="44.9256207" lon="9.7077233"><ele>128.66666666666666</ele><time>2026-05-01T13:40:03.996Z</time></trkpt><trkpt lat="44.9255409" lon="9.7077159"><ele>128.5</ele><time>2026-05-01T13:40:04.996Z</time></trkpt><trkpt lat="44.925463" lon="9.7077029"><ele>128.33333333333331</ele><time>2026-05-01T13:40:05.996Z</time></trkpt><trkpt lat="44.92539" lon="9.707679"><ele>128.16666666666666</ele><time>2026-05-01T13:40:06.995Z</time></trkpt><trkpt lat="44.9253148" lon="9.7076446"><ele>128.0</ele><time>2026-05-01T13:40:07.996Z</time></trkpt><trkpt lat="44.9252326" lon="9.7076025"><ele>127.99999999999999</ele><time>2026-05-01T13:40:08.996Z</time></trkpt><trkpt lat="44.9251501" lon="9.7075577"><ele>128.0</ele><time>2026-05-01T13:40:09.996Z</time></trkpt><trkpt lat="44.9250706" lon="9.707517"><ele>128.0</ele><time>2026-05-01T13:40:10.996Z</time></trkpt><trkpt lat="44.9249916" lon="9.7074816"><ele>128.0</ele><time>2026-05-01T13:40:11.995Z</time></trkpt><trkpt lat="44.924919" lon="9.7074586"><ele>127.99999999999999</ele><time>2026-05-01T13:40:12.997Z</time></trkpt><trkpt lat="44.9248506" lon="9.7074457"><ele>128.0</ele><time>2026-05-01T13:40:13.995Z</time></trkpt><trkpt lat="44.9247234" lon="9.707459"><ele>128.33333333333331</ele><time>2026-05-01T13:40:15.995Z</time></trkpt><trkpt lat="44.9246476" lon="9.7074938"><ele>128.66666666666666</ele><time>2026-05-01T13:40:16.998Z</time></trkpt><trkpt lat="44.9245686" lon="9.7075414"><ele>129.0</ele><time>2026-05-01T13:40:17.997Z</time></trkpt><trkpt lat="44.924495" lon="9.7076036"><ele>129.33333333333334</ele><time>2026-05-01T13:40:18.996Z</time></trkpt><trkpt lat="44.9244349" lon="9.7076687"><ele>129.66666666666669</ele><time>2026-05-01T13:40:19.997Z</time></trkpt><trkpt lat="44.9243823" lon="9.7077289"><ele>130.0</ele><time>2026-05-01T13:40:20.996Z</time></trkpt><trkpt lat="44.9243273" lon="9.7077786"><ele>130.2</ele><time>2026-05-01T13:40:21.997Z</time></trkpt><trkpt lat="44.9242174" lon="9.7078297"><ele>130.4</ele><time>2026-05-01T13:40:23.997Z</time></trkpt><trkpt lat="44.9241317" lon="9.7078266"><ele>130.6</ele><time>2026-05-01T13:40:25.996Z</time></trkpt><trkpt lat="44.9240743" lon="9.707752"><ele>130.8</ele><time>2026-05-01T13:40:27.996Z</time></trkpt><trkpt lat="44.9240146" lon="9.7076034"><ele>131.0</ele><time>2026-05-01T13:40:29.997Z</time></trkpt><trkpt lat="44.9239716" lon="9.7075008"><ele>131.2</ele><time>2026-05-01T13:40:30.995Z</time></trkpt><trkpt lat="44.9239203" lon="9.707384"><ele>131.39999999999998</ele><time>2026-05-01T13:40:31.996Z</time></trkpt><trkpt lat="44.92387" lon="9.7072678"><ele>131.6</ele><time>2026-05-01T13:40:32.995Z</time></trkpt><trkpt lat="44.9238228" lon="9.707155"><ele>131.79999999999998</ele><time>2026-05-01T13:40:33.996Z</time></trkpt><trkpt lat="44.9237749" lon="9.7070441"><ele>132.0</ele><time>2026-05-01T13:40:34.996Z</time></trkpt><trkpt lat="44.9237246" lon="9.7069249"><ele>132.0</ele><time>2026-05-01T13:40:35.995Z</time></trkpt><trkpt lat="44.9236745" lon="9.7068063"><ele>132.0</ele><time>2026-05-01T13:40:36.997Z</time></trkpt><trkpt lat="44.923625" lon="9.70669"><ele>132.0</ele><time>2026-05-01T13:40:37.999Z</time></trkpt><trkpt lat="44.9235727" lon="9.7065673"><ele>132.0</ele><time>2026-05-01T13:40:39.001Z</time></trkpt><trkpt lat="44.9235209" lon="9.7064467"><ele>132.0</ele><time>2026-05-01T13:40:39.996Z</time></trkpt><trkpt lat="44.9234695" lon="9.706326"><ele>132.0</ele><time>2026-05-01T13:40:40.997Z</time></trkpt><trkpt lat="44.9234163" lon="9.7061986"><ele>132.0</ele><time>2026-05-01T13:40:41.996Z</time></trkpt><trkpt lat="44.9233616" lon="9.7060616"><ele>132.0</ele><time>2026-05-01T13:40:42.996Z</time></trkpt><trkpt lat="44.9233035" lon="9.7059181"><ele>132.0</ele><time>2026-05-01T13:40:43.997Z</time></trkpt><trkpt lat="44.923243" lon="9.7057724"><ele>132.25</ele><time>2026-05-01T13:40:44.996Z</time></trkpt><trkpt lat="44.9231817" lon="9.70562"><ele>132.5</ele><time>2026-05-01T13:40:45.995Z</time></trkpt><trkpt lat="44.9231167" lon="9.7054667"><ele>132.75</ele><time>2026-05-01T13:40:46.995Z</time></trkpt><trkpt lat="44.9230467" lon="9.70531"><ele>133.0</ele><time>2026-05-01T13:40:47.998Z</time></trkpt><trkpt lat="44.9229767" lon="9.7051517"><ele>133.0</ele><time>2026-05-01T13:40:48.997Z</time></trkpt><trkpt lat="44.922905" lon="9.7049867"><ele>133.0</ele><time>2026-05-01T13:40:49.997Z</time></trkpt><trkpt lat="44.9228317" lon="9.704815"><ele>133.0</ele><time>2026-05-01T13:40:50.997Z</time></trkpt><trkpt lat="44.922755" lon="9.7046367"><ele>133.0</ele><time>2026-05-01T13:40:51.997Z</time></trkpt><trkpt lat="44.92268" lon="9.7044633"><ele>133.0</ele><time>2026-05-01T13:40:52.996Z</time></trkpt><trkpt lat="44.9226067" lon="9.7043017"><ele>133.0</ele><time>2026-05-01T13:40:53.996Z</time></trkpt><trkpt lat="44.9225267" lon="9.704155"><ele>133.0</ele><time>2026-05-01T13:40:54.996Z</time></trkpt><trkpt lat="44.9224317" lon="9.7040283"><ele>133.0</ele><time>2026-05-01T13:40:55.996Z</time></trkpt><trkpt lat="44.9223267" lon="9.7039233"><ele>132.75</ele><time>2026-05-01T13:40:56.996Z</time></trkpt><trkpt lat="44.922215" lon="9.7038317"><ele>132.5</ele><time>2026-05-01T13:40:57.996Z</time></trkpt><trkpt lat="44.9221033" lon="9.703745"><ele>132.25</ele><time>2026-05-01T13:40:58.996Z</time></trkpt><trkpt lat="44.921995" lon="9.7036617"><ele>132.0</ele><time>2026-05-01T13:40:59.996Z</time></trkpt><trkpt lat="44.9218867" lon="9.7035733"><ele>132.0</ele><time>2026-05-01T13:41:00.996Z</time></trkpt><trkpt lat="44.921775" lon="9.70348"><ele>132.0</ele><time>2026-05-01T13:41:01.998Z</time></trkpt><trkpt lat="44.92166" lon="9.7033883"><ele>132.0</ele><time>2026-05-01T13:41:02.996Z</time></trkpt><trkpt lat="44.9215433" lon="9.7032983"><ele>132.0</ele><time>2026-05-01T13:41:03.997Z</time></trkpt><trkpt lat="44.921425" lon="9.7032133"><ele>133.0</ele><time>2026-05-01T13:41:04.996Z</time></trkpt><trkpt lat="44.92131" lon="9.703135"><ele>134.0</ele><time>2026-05-01T13:41:05.996Z</time></trkpt><trkpt lat="44.92119" lon="9.7030783"><ele>135.0</ele><time>2026-05-01T13:41:06.997Z</time></trkpt><trkpt lat="44.9210583" lon="9.7030633"><ele>136.0</ele><time>2026-05-01T13:41:07.996Z</time></trkpt><trkpt lat="44.9209167" lon="9.7030967"><ele>136.66666666666669</ele><time>2026-05-01T13:41:08.996Z</time></trkpt><trkpt lat="44.9207633" lon="9.7031683"><ele>137.33333333333334</ele><time>2026-05-01T13:41:09.996Z</time></trkpt><trkpt lat="44.92061" lon="9.7032533"><ele>138.0</ele><time>2026-05-01T13:41:10.996Z</time></trkpt><trkpt lat="44.9204683" lon="9.7033383"><ele>138.0</ele><time>2026-05-01T13:41:11.995Z</time></trkpt><trkpt lat="44.920335" lon="9.7034183"><ele>138.0</ele><time>2026-05-01T13:41:12.996Z</time></trkpt><trkpt lat="44.9202083" lon="9.7034933"><ele>138.0</ele><time>2026-05-01T13:41:13.997Z</time></trkpt><trkpt lat="44.9200917" lon="9.7035633"><ele>138.0</ele><time>2026-05-01T13:41:14.996Z</time></trkpt><trkpt lat="44.919985" lon="9.7036317"><ele>137.8</ele><time>2026-05-01T13:41:15.996Z</time></trkpt><trkpt lat="44.9198883" lon="9.703695"><ele>137.60000000000002</ele><time>2026-05-01T13:41:16.997Z</time></trkpt><trkpt lat="44.9198" lon="9.7037533"><ele>137.39999999999998</ele><time>2026-05-01T13:41:17.996Z</time></trkpt><trkpt lat="44.9197167" lon="9.703805"><ele>137.2</ele><time>2026-05-01T13:41:18.996Z</time></trkpt><trkpt lat="44.9196417" lon="9.7038433"><ele>137.0</ele><time>2026-05-01T13:41:19.998Z</time></trkpt><trkpt lat="44.9195683" lon="9.7038633"><ele>137.0</ele><time>2026-05-01T13:41:20.998Z</time></trkpt><trkpt lat="44.9195017" lon="9.703855"><ele>137.0</ele><time>2026-05-01T13:41:21.998Z</time></trkpt><trkpt lat="44.9194333" lon="9.703805"><ele>137.0</ele><time>2026-05-01T13:41:22.998Z</time></trkpt><trkpt lat="44.9193583" lon="9.7037067"><ele>137.0</ele><time>2026-05-01T13:41:23.999Z</time></trkpt><trkpt lat="44.9192667" lon="9.70358"><ele>137.0</ele><time>2026-05-01T13:41:24.996Z</time></trkpt><trkpt lat="44.9191533" lon="9.7034367"><ele>136.66666666666666</ele><time>2026-05-01T13:41:25.996Z</time></trkpt><trkpt lat="44.9190217" lon="9.70328"><ele>136.33333333333334</ele><time>2026-05-01T13:41:26.998Z</time></trkpt><trkpt lat="44.9188867" lon="9.703125"><ele>136.0</ele><time>2026-05-01T13:41:27.997Z</time></trkpt><trkpt lat="44.9187583" lon="9.7029833"><ele>136.0</ele><time>2026-05-01T13:41:28.996Z</time></trkpt><trkpt lat="44.9186267" lon="9.702845"><ele>136.0</ele><time>2026-05-01T13:41:29.998Z</time></trkpt><trkpt lat="44.9184967" lon="9.7027183"><ele>136.0</ele><time>2026-05-01T13:41:30.996Z</time></trkpt><trkpt lat="44.918365" lon="9.7026"><ele>136.33333333333334</ele><time>2026-05-01T13:41:31.996Z</time></trkpt><trkpt lat="44.918225" lon="9.7024883"><ele>136.66666666666666</ele><time>2026-05-01T13:41:32.996Z</time></trkpt><trkpt lat="44.9180733" lon="9.70238"><ele>137.0</ele><time>2026-05-01T13:41:33.998Z</time></trkpt><trkpt lat="44.9179033" lon="9.7022667"><ele>137.0</ele><time>2026-05-01T13:41:34.997Z</time></trkpt><trkpt lat="44.9177083" lon="9.702135"><ele>137.0</ele><time>2026-05-01T13:41:35.997Z</time></trkpt><trkpt lat="44.9175" lon="9.7019883"><ele>137.0</ele><time>2026-05-01T13:41:36.996Z</time></trkpt><trkpt lat="44.9172983" lon="9.70184"><ele>137.33333333333331</ele><time>2026-05-01T13:41:37.996Z</time></trkpt><trkpt lat="44.9171133" lon="9.7017017"><ele>137.66666666666666</ele><time>2026-05-01T13:41:38.998Z</time></trkpt><trkpt lat="44.916945" lon="9.7015733"><ele>138.0</ele><time>2026-05-01T13:41:39.996Z</time></trkpt><trkpt lat="44.9167933" lon="9.70146"><ele>138.5</ele><time>2026-05-01T13:41:40.997Z</time></trkpt><trkpt lat="44.916665" lon="9.7013583"><ele>139.0</ele><time>2026-05-01T13:41:41.996Z</time></trkpt><trkpt lat="44.9165533" lon="9.7012667"><ele>139.5</ele><time>2026-05-01T13:41:42.996Z</time></trkpt><trkpt lat="44.9164583" lon="9.7011817"><ele>140.0</ele><time>2026-05-01T13:41:43.997Z</time></trkpt><trkpt lat="44.9163767" lon="9.7010983"><ele>140.0</ele><time>2026-05-01T13:41:44.996Z</time></trkpt><trkpt lat="44.91631" lon="9.7010083"><ele>140.0</ele><time>2026-05-01T13:41:45.996Z</time></trkpt><trkpt lat="44.91626" lon="9.7009067"><ele>140.0</ele><time>2026-05-01T13:41:46.996Z</time></trkpt><trkpt lat="44.91623" lon="9.7007867"><ele>140.0</ele><time>2026-05-01T13:41:47.997Z</time></trkpt><trkpt lat="44.916215" lon="9.70064"><ele>140.0</ele><time>2026-05-01T13:41:48.999Z</time></trkpt><trkpt lat="44.91621" lon="9.70047"><ele>140.0</ele><time>2026-05-01T13:41:49.998Z</time></trkpt><trkpt lat="44.91621" lon="9.7002933"><ele>140.0</ele><time>2026-05-01T13:41:51Z</time></trkpt><trkpt lat="44.91621" lon="9.70012"><ele>140.0</ele><time>2026-05-01T13:41:51.996Z</time></trkpt><trkpt lat="44.9162083" lon="9.6999533"><ele>140.0</ele><time>2026-05-01T13:41:52.996Z</time></trkpt><trkpt lat="44.9162133" lon="9.6997867"><ele>140.0</ele><time>2026-05-01T13:41:53.997Z</time></trkpt><trkpt lat="44.916225" lon="9.6996283"><ele>140.0</ele><time>2026-05-01T13:41:54.997Z</time></trkpt><trkpt lat="44.9162433" lon="9.699475"><ele>140.0</ele><time>2026-05-01T13:41:55.997Z</time></trkpt><trkpt lat="44.9162567" lon="9.69933"><ele>140.0</ele><time>2026-05-01T13:41:56.997Z</time></trkpt><trkpt lat="44.916255" lon="9.699195"><ele>140.0</ele><time>2026-05-01T13:41:57.996Z</time></trkpt><trkpt lat="44.9162433" lon="9.699075"><ele>140.0</ele><time>2026-05-01T13:41:58.996Z</time></trkpt><trkpt lat="44.9162167" lon="9.6989617"><ele>140.0</ele><time>2026-05-01T13:41:59.997Z</time></trkpt><trkpt lat="44.916175" lon="9.6988567"><ele>140.0</ele><time>2026-05-01T13:42:00.997Z</time></trkpt><trkpt lat="44.9161183" lon="9.6987467"><ele>140.0</ele><time>2026-05-01T13:42:01.997Z</time></trkpt><trkpt lat="44.916055" lon="9.69864"><ele>140.0</ele><time>2026-05-01T13:42:02.997Z</time></trkpt><trkpt lat="44.9159883" lon="9.698535"><ele>140.0</ele><time>2026-05-01T13:42:03.996Z</time></trkpt><trkpt lat="44.915915" lon="9.6984383"><ele>140.0</ele><time>2026-05-01T13:42:04.996Z</time></trkpt><trkpt lat="44.91584" lon="9.698345"><ele>140.0</ele><time>2026-05-01T13:42:05.996Z</time></trkpt><trkpt lat="44.9157517" lon="9.6982583"><ele>140.0</ele><time>2026-05-01T13:42:06.996Z</time></trkpt><trkpt lat="44.9156583" lon="9.698185"><ele>140.0</ele><time>2026-05-01T13:42:07.999Z</time></trkpt><trkpt lat="44.9155667" lon="9.6981333"><ele>140.6</ele><time>2026-05-01T13:42:08.996Z</time></trkpt><trkpt lat="44.9154683" lon="9.6980967"><ele>141.2</ele><time>2026-05-01T13:42:09.996Z</time></trkpt><trkpt lat="44.9153717" lon="9.6980733"><ele>141.8</ele><time>2026-05-01T13:42:10.997Z</time></trkpt><trkpt lat="44.9152733" lon="9.6980617"><ele>142.4</ele><time>2026-05-01T13:42:11.996Z</time></trkpt><trkpt lat="44.9151717" lon="9.6980583"><ele>143.0</ele><time>2026-05-01T13:42:12.996Z</time></trkpt><trkpt lat="44.915065" lon="9.69806"><ele>143.25</ele><time>2026-05-01T13:42:13.997Z</time></trkpt><trkpt lat="44.9149533" lon="9.6980617"><ele>143.5</ele><time>2026-05-01T13:42:14.998Z</time></trkpt><trkpt lat="44.91484" lon="9.6980617"><ele>143.75</ele><time>2026-05-01T13:42:15.998Z</time></trkpt><trkpt lat="44.914725" lon="9.6980567"><ele>144.0</ele><time>2026-05-01T13:42:16.997Z</time></trkpt><trkpt lat="44.9146117" lon="9.6980467"><ele>144.0</ele><time>2026-05-01T13:42:17.996Z</time></trkpt><trkpt lat="44.9145067" lon="9.6980267"><ele>144.0</ele><time>2026-05-01T13:42:18.996Z</time></trkpt><trkpt lat="44.9144067" lon="9.698"><ele>144.0</ele><time>2026-05-01T13:42:19.996Z</time></trkpt><trkpt lat="44.9143083" lon="9.6979717"><ele>144.0</ele><time>2026-05-01T13:42:20.996Z</time></trkpt><trkpt lat="44.9142217" lon="9.6979467"><ele>144.0</ele><time>2026-05-01T13:42:21.995Z</time></trkpt><trkpt lat="44.9141417" lon="9.6979283"><ele>144.4</ele><time>2026-05-01T13:42:22.996Z</time></trkpt><trkpt lat="44.91407" lon="9.697915"><ele>144.8</ele><time>2026-05-01T13:42:23.996Z</time></trkpt><trkpt lat="44.9139533" lon="9.6978933"><ele>145.2</ele><time>2026-05-01T13:42:25.996Z</time></trkpt><trkpt lat="44.91387" lon="9.6979167"><ele>145.6</ele><time>2026-05-01T13:42:27.995Z</time></trkpt><trkpt lat="44.9137733" lon="9.6980067"><ele>146.0</ele><time>2026-05-01T13:42:29.997Z</time></trkpt><trkpt lat="44.9137067" lon="9.69806"><ele>146.0</ele><time>2026-05-01T13:42:30.997Z</time></trkpt><trkpt lat="44.9136233" lon="9.698105"><ele>146.0</ele><time>2026-05-01T13:42:31.997Z</time></trkpt><trkpt lat="44.9135367" lon="9.6981417"><ele>146.0</ele><time>2026-05-01T13:42:32.996Z</time></trkpt><trkpt lat="44.9134517" lon="9.698165"><ele>146.0</ele><time>2026-05-01T13:42:33.996Z</time></trkpt><trkpt lat="44.9133733" lon="9.6981717"><ele>146.0</ele><time>2026-05-01T13:42:34.998Z</time></trkpt><trkpt lat="44.9133017" lon="9.69815"><ele>146.0</ele><time>2026-05-01T13:42:35.997Z</time></trkpt><trkpt lat="44.9132317" lon="9.6981017"><ele>146.0</ele><time>2026-05-01T13:42:36.998Z</time></trkpt><trkpt lat="44.91316" lon="9.6980333"><ele>146.0</ele><time>2026-05-01T13:42:37.997Z</time></trkpt><trkpt lat="44.9130817" lon="9.6979533"><ele>146.0</ele><time>2026-05-01T13:42:38.997Z</time></trkpt><trkpt lat="44.9129967" lon="9.69788"><ele>146.0</ele><time>2026-05-01T13:42:39.996Z</time></trkpt><trkpt lat="44.9129017" lon="9.6978217"><ele>146.0</ele><time>2026-05-01T13:42:40.996Z</time></trkpt><trkpt lat="44.9127983" lon="9.697775"><ele>145.75</ele><time>2026-05-01T13:42:41.996Z</time></trkpt><trkpt lat="44.912685" lon="9.69774"><ele>145.5</ele><time>2026-05-01T13:42:42.996Z</time></trkpt><trkpt lat="44.91256" lon="9.6977083"><ele>145.25</ele><time>2026-05-01T13:42:43.996Z</time></trkpt><trkpt lat="44.9124367" lon="9.697675"><ele>145.0</ele><time>2026-05-01T13:42:44.996Z</time></trkpt><trkpt lat="44.9123233" lon="9.6976367"><ele>144.5</ele><time>2026-05-01T13:42:45.995Z</time></trkpt><trkpt lat="44.9122117" lon="9.6976033"><ele>144.0</ele><time>2026-05-01T13:42:46.996Z</time></trkpt><trkpt lat="44.9120933" lon="9.6975817"><ele>143.5</ele><time>2026-05-01T13:42:47.996Z</time></trkpt><trkpt lat="44.9119683" lon="9.69757"><ele>143.0</ele><time>2026-05-01T13:42:48.996Z</time></trkpt><trkpt lat="44.9118417" lon="9.6975633"><ele>143.75</ele><time>2026-05-01T13:42:49.996Z</time></trkpt><trkpt lat="44.91172" lon="9.697565"><ele>144.5</ele><time>2026-05-01T13:42:50.996Z</time></trkpt><trkpt lat="44.9116" lon="9.6975783"><ele>145.25</ele><time>2026-05-01T13:42:51.995Z</time></trkpt><trkpt lat="44.9114783" lon="9.697605"><ele>146.0</ele><time>2026-05-01T13:42:52.997Z</time></trkpt><trkpt lat="44.9113517" lon="9.6976467"><ele>146.0</ele><time>2026-05-01T13:42:53.997Z</time></trkpt><trkpt lat="44.911225" lon="9.6976933"><ele>146.0</ele><time>2026-05-01T13:42:54.996Z</time></trkpt><trkpt lat="44.911115" lon="9.6977467"><ele>146.0</ele><time>2026-05-01T13:42:55.995Z</time></trkpt><trkpt lat="44.9110217" lon="9.6978033"><ele>146.0</ele><time>2026-05-01T13:42:56.996Z</time></trkpt><trkpt lat="44.91094" lon="9.6978617"><ele>146.0</ele><time>2026-05-01T13:42:57.996Z</time></trkpt><trkpt lat="44.9108683" lon="9.6979167"><ele>146.6</ele><time>2026-05-01T13:42:58.996Z</time></trkpt><trkpt lat="44.9108017" lon="9.697965"><ele>147.2</ele><time>2026-05-01T13:42:59.995Z</time></trkpt><trkpt lat="44.9107117" lon="9.6980633"><ele>147.8</ele><time>2026-05-01T13:43:01.996Z</time></trkpt><trkpt lat="44.9106833" lon="9.698215"><ele>148.4</ele><time>2026-05-01T13:43:03.996Z</time></trkpt><trkpt lat="44.91068" lon="9.6983217"><ele>149.0</ele><time>2026-05-01T13:43:04.996Z</time></trkpt><trkpt lat="44.91067" lon="9.6984517"><ele>149.0</ele><time>2026-05-01T13:43:05.996Z</time></trkpt><trkpt lat="44.9106583" lon="9.6986"><ele>149.0</ele><time>2026-05-01T13:43:06.996Z</time></trkpt><trkpt lat="44.9106433" lon="9.69875"><ele>149.0</ele><time>2026-05-01T13:43:07.997Z</time></trkpt><trkpt lat="44.9106267" lon="9.6988867"><ele>149.0</ele><time>2026-05-01T13:43:08.996Z</time></trkpt><trkpt lat="44.91061" lon="9.69901"><ele>149.0</ele><time>2026-05-01T13:43:09.996Z</time></trkpt><trkpt lat="44.9105883" lon="9.6991283"><ele>149.0</ele><time>2026-05-01T13:43:10.996Z</time></trkpt><trkpt lat="44.91056" lon="9.6992383"><ele>149.0</ele><time>2026-05-01T13:43:11.996Z</time></trkpt><trkpt lat="44.9105217" lon="9.6993267"><ele>149.0</ele><time>2026-05-01T13:43:12.997Z</time></trkpt><trkpt lat="44.9104617" lon="9.6994033"><ele>149.0</ele><time>2026-05-01T13:43:13.998Z</time></trkpt><trkpt lat="44.910375" lon="9.699485"><ele>149.0</ele><time>2026-05-01T13:43:14.996Z</time></trkpt><trkpt lat="44.9102683" lon="9.69957"><ele>148.75</ele><time>2026-05-01T13:43:15.997Z</time></trkpt><trkpt lat="44.9101617" lon="9.69966"><ele>148.5</ele><time>2026-05-01T13:43:16.997Z</time></trkpt><trkpt lat="44.91006" lon="9.69975"><ele>148.25</ele><time>2026-05-01T13:43:17.996Z</time></trkpt><trkpt lat="44.9099667" lon="9.699825"><ele>148.0</ele><time>2026-05-01T13:43:18.998Z</time></trkpt><trkpt lat="44.90988" lon="9.6998917"><ele>148.0</ele><time>2026-05-01T13:43:19.998Z</time></trkpt><trkpt lat="44.9098" lon="9.6999583"><ele>148.0</ele><time>2026-05-01T13:43:20.997Z</time></trkpt><trkpt lat="44.9097367" lon="9.7000317"><ele>148.0</ele><time>2026-05-01T13:43:21.996Z</time></trkpt><trkpt lat="44.90969" lon="9.700115"><ele>148.0</ele><time>2026-05-01T13:43:22.995Z</time></trkpt><trkpt lat="44.9096617" lon="9.700215"><ele>148.0</ele><time>2026-05-01T13:43:23.997Z</time></trkpt><trkpt lat="44.9096467" lon="9.70033"><ele>148.0</ele><time>2026-05-01T13:43:24.996Z</time></trkpt><trkpt lat="44.9096333" lon="9.7004367"><ele>148.0</ele><time>2026-05-01T13:43:25.997Z</time></trkpt><trkpt lat="44.9096183" lon="9.7005383"><ele>148.0</ele><time>2026-05-01T13:43:26.997Z</time></trkpt><trkpt lat="44.9095983" lon="9.700625"><ele>148.0</ele><time>2026-05-01T13:43:27.996Z</time></trkpt><trkpt lat="44.9095433" lon="9.70076"><ele>148.0</ele><time>2026-05-01T13:43:29.998Z</time></trkpt><trkpt lat="44.9094717" lon="9.70082"><ele>148.0</ele><time>2026-05-01T13:43:31.996Z</time></trkpt><trkpt lat="44.9093883" lon="9.7008"><ele>148.0</ele><time>2026-05-01T13:43:34.996Z</time></trkpt><trkpt lat="44.9093017" lon="9.7007"><ele>148.0</ele><time>2026-05-01T13:43:36.996Z</time></trkpt><trkpt lat="44.9092517" lon="9.7006033"><ele>148.0</ele><time>2026-05-01T13:43:37.996Z</time></trkpt><trkpt lat="44.90919" lon="9.7004883"><ele>148.0</ele><time>2026-05-01T13:43:38.997Z</time></trkpt><trkpt lat="44.9091183" lon="9.700355"><ele>148.0</ele><time>2026-05-01T13:43:39.997Z</time></trkpt><trkpt lat="44.9090383" lon="9.7002117"><ele>148.0</ele><time>2026-05-01T13:43:40.996Z</time></trkpt><trkpt lat="44.9089583" lon="9.70006"><ele>148.0</ele><time>2026-05-01T13:43:41.997Z</time></trkpt><trkpt lat="44.908875" lon="9.6999"><ele>148.0</ele><time>2026-05-01T13:43:42.997Z</time></trkpt><trkpt lat="44.9087917" lon="9.699735"><ele>148.0</ele><time>2026-05-01T13:43:43.996Z</time></trkpt><trkpt lat="44.9087067" lon="9.699565"><ele>148.0</ele><time>2026-05-01T13:43:44.998Z</time></trkpt><trkpt lat="44.9086183" lon="9.6993917"><ele>148.0</ele><time>2026-05-01T13:43:45.996Z</time></trkpt><trkpt lat="44.90853" lon="9.6992217"><ele>148.0</ele><time>2026-05-01T13:43:46.998Z</time></trkpt><trkpt lat="44.90844" lon="9.6990517"><ele>148.0</ele><time>2026-05-01T13:43:47.996Z</time></trkpt><trkpt lat="44.90835" lon="9.6988783"><ele>148.25</ele><time>2026-05-01T13:43:48.996Z</time></trkpt><trkpt lat="44.90826" lon="9.6987083"><ele>148.5</ele><time>2026-05-01T13:43:49.996Z</time></trkpt><trkpt lat="44.9081767" lon="9.69854"><ele>148.75</ele><time>2026-05-01T13:43:50.996Z</time></trkpt><trkpt lat="44.9080933" lon="9.6983767"><ele>149.0</ele><time>2026-05-01T13:43:51.996Z</time></trkpt><trkpt lat="44.9080133" lon="9.698215"><ele>149.25</ele><time>2026-05-01T13:43:52.995Z</time></trkpt><trkpt lat="44.9079333" lon="9.698055"><ele>149.5</ele><time>2026-05-01T13:43:53.996Z</time></trkpt><trkpt lat="44.9078567" lon="9.6979067"><ele>149.75</ele><time>2026-05-01T13:43:54.996Z</time></trkpt><trkpt lat="44.9077817" lon="9.697775"><ele>150.0</ele><time>2026-05-01T13:43:55.997Z</time></trkpt><trkpt lat="44.9076983" lon="9.6976667"><ele>150.25</ele><time>2026-05-01T13:43:56.996Z</time></trkpt><trkpt lat="44.907605" lon="9.6975833"><ele>150.5</ele><time>2026-05-01T13:43:57.996Z</time></trkpt><trkpt lat="44.9074933" lon="9.69752"><ele>150.75</ele><time>2026-05-01T13:43:58.996Z</time></trkpt><trkpt lat="44.90737" lon="9.69747"><ele>151.0</ele><time>2026-05-01T13:43:59.996Z</time></trkpt><trkpt lat="44.9072467" lon="9.6974217"><ele>151.4</ele><time>2026-05-01T13:44:00.997Z</time></trkpt><trkpt lat="44.9071317" lon="9.6973783"><ele>151.8</ele><time>2026-05-01T13:44:01.997Z</time></trkpt><trkpt lat="44.9070283" lon="9.6973383"><ele>152.20000000000002</ele><time>2026-05-01T13:44:02.996Z</time></trkpt><trkpt lat="44.9069417" lon="9.6972933"><ele>152.6</ele><time>2026-05-01T13:44:03.996Z</time></trkpt><trkpt lat="44.90687" lon="9.6972333"><ele>153.0</ele><time>2026-05-01T13:44:04.995Z</time></trkpt><trkpt lat="44.9068233" lon="9.6971567"><ele>153.0</ele><time>2026-05-01T13:44:05.997Z</time></trkpt><trkpt lat="44.9068083" lon="9.6970533"><ele>153.0</ele><time>2026-05-01T13:44:06.996Z</time></trkpt><trkpt lat="44.90682" lon="9.69693"><ele>153.0</ele><time>2026-05-01T13:44:07.996Z</time></trkpt><trkpt lat="44.9068383" lon="9.6967733"><ele>153.0</ele><time>2026-05-01T13:44:08.996Z</time></trkpt><trkpt lat="44.9068583" lon="9.6965933"><ele>153.0</ele><time>2026-05-01T13:44:09.997Z</time></trkpt><trkpt lat="44.90688" lon="9.6964"><ele>153.0</ele><time>2026-05-01T13:44:10.997Z</time></trkpt><trkpt lat="44.9069067" lon="9.696195"><ele>153.0</ele><time>2026-05-01T13:44:11.996Z</time></trkpt><trkpt lat="44.9069417" lon="9.6959933"><ele>153.0</ele><time>2026-05-01T13:44:12.996Z</time></trkpt><trkpt lat="44.9069783" lon="9.69581"><ele>153.0</ele><time>2026-05-01T13:44:13.996Z</time></trkpt><trkpt lat="44.9070183" lon="9.695635"><ele>153.25</ele><time>2026-05-01T13:44:14.996Z</time></trkpt><trkpt lat="44.9070583" lon="9.6954633"><ele>153.5</ele><time>2026-05-01T13:44:15.997Z</time></trkpt><trkpt lat="44.907095" lon="9.6952833"><ele>153.75</ele><time>2026-05-01T13:44:16.997Z</time></trkpt><trkpt lat="44.9071267" lon="9.6950733"><ele>154.0</ele><time>2026-05-01T13:44:17.996Z</time></trkpt><trkpt lat="44.9071533" lon="9.694855"><ele>153.66666666666669</ele><time>2026-05-01T13:44:18.996Z</time></trkpt><trkpt lat="44.9071767" lon="9.6946233"><ele>153.33333333333334</ele><time>2026-05-01T13:44:19.996Z</time></trkpt><trkpt lat="44.9072" lon="9.6943667"><ele>153.0</ele><time>2026-05-01T13:44:20.996Z</time></trkpt><trkpt lat="44.9072183" lon="9.6940967"><ele>153.0</ele><time>2026-05-01T13:44:21.996Z</time></trkpt><trkpt lat="44.9072333" lon="9.6938383"><ele>153.0</ele><time>2026-05-01T13:44:22.997Z</time></trkpt><trkpt lat="44.9072433" lon="9.693595"><ele>153.0</ele><time>2026-05-01T13:44:23.997Z</time></trkpt><trkpt lat="44.9072533" lon="9.6933667"><ele>153.0</ele><time>2026-05-01T13:44:24.997Z</time></trkpt><trkpt lat="44.907265" lon="9.6931533"><ele>153.0</ele><time>2026-05-01T13:44:25.997Z</time></trkpt><trkpt lat="44.90728" lon="9.6929633"><ele>153.0</ele><time>2026-05-01T13:44:26.996Z</time></trkpt><trkpt lat="44.9072983" lon="9.6928017"><ele>153.0</ele><time>2026-05-01T13:44:27.997Z</time></trkpt><trkpt lat="44.9073233" lon="9.6926583"><ele>152.8</ele><time>2026-05-01T13:44:28.997Z</time></trkpt><trkpt lat="44.9073383" lon="9.6925283"><ele>152.60000000000002</ele><time>2026-05-01T13:44:29.998Z</time></trkpt><trkpt lat="44.9073317" lon="9.692415"><ele>152.39999999999998</ele><time>2026-05-01T13:44:30.997Z</time></trkpt><trkpt lat="44.907305" lon="9.6923033"><ele>152.2</ele><time>2026-05-01T13:44:31.999Z</time></trkpt><trkpt lat="44.90726" lon="9.6921867"><ele>152.0</ele><time>2026-05-01T13:44:32.998Z</time></trkpt><trkpt lat="44.9071967" lon="9.6920633"><ele>152.0</ele><time>2026-05-01T13:44:33.997Z</time></trkpt><trkpt lat="44.9071283" lon="9.6919383"><ele>152.0</ele><time>2026-05-01T13:44:35Z</time></trkpt><trkpt lat="44.90705" lon="9.691805"><ele>152.0</ele><time>2026-05-01T13:44:35.998Z</time></trkpt><trkpt lat="44.9069567" lon="9.6916717"><ele>152.0</ele><time>2026-05-01T13:44:36.998Z</time></trkpt><trkpt lat="44.9068533" lon="9.6915417"><ele>152.25</ele><time>2026-05-01T13:44:37.997Z</time></trkpt><trkpt lat="44.9067467" lon="9.6914117"><ele>152.5</ele><time>2026-05-01T13:44:38.998Z</time></trkpt><trkpt lat="44.906645" lon="9.6912867"><ele>152.75</ele><time>2026-05-01T13:44:39.997Z</time></trkpt><trkpt lat="44.9065467" lon="9.6911667"><ele>153.0</ele><time>2026-05-01T13:44:40.998Z</time></trkpt><trkpt lat="44.9064567" lon="9.6910567"><ele>153.4</ele><time>2026-05-01T13:44:41.997Z</time></trkpt><trkpt lat="44.9063733" lon="9.6909517"><ele>153.8</ele><time>2026-05-01T13:44:42.997Z</time></trkpt><trkpt lat="44.9062883" lon="9.6908683"><ele>154.2</ele><time>2026-05-01T13:44:43.997Z</time></trkpt><trkpt lat="44.90619" lon="9.6908133"><ele>154.6</ele><time>2026-05-01T13:44:44.999Z</time></trkpt><trkpt lat="44.9060717" lon="9.6907767"><ele>155.0</ele><time>2026-05-01T13:44:45.997Z</time></trkpt><trkpt lat="44.90594" lon="9.6907417"><ele>155.66666666666666</ele><time>2026-05-01T13:44:46.996Z</time></trkpt><trkpt lat="44.9057967" lon="9.6907117"><ele>156.33333333333334</ele><time>2026-05-01T13:44:47.997Z</time></trkpt><trkpt lat="44.9056433" lon="9.6906783"><ele>157.0</ele><time>2026-05-01T13:44:48.996Z</time></trkpt><trkpt lat="44.9054817" lon="9.6906433"><ele>157.0</ele><time>2026-05-01T13:44:49.997Z</time></trkpt><trkpt lat="44.9053183" lon="9.6906117"><ele>157.0</ele><time>2026-05-01T13:44:50.996Z</time></trkpt><trkpt lat="44.9051617" lon="9.69058"><ele>157.0</ele><time>2026-05-01T13:44:51.998Z</time></trkpt><trkpt lat="44.9050067" lon="9.69055"><ele>156.66666666666669</ele><time>2026-05-01T13:44:52.996Z</time></trkpt><trkpt lat="44.9048517" lon="9.6905183"><ele>156.33333333333334</ele><time>2026-05-01T13:44:53.998Z</time></trkpt><trkpt lat="44.9046983" lon="9.6904883"><ele>156.0</ele><time>2026-05-01T13:44:54.998Z</time></trkpt><trkpt lat="44.9045533" lon="9.6904567"><ele>156.0</ele><time>2026-05-01T13:44:55.997Z</time></trkpt><trkpt lat="44.9044167" lon="9.6904283"><ele>156.0</ele><time>2026-05-01T13:44:56.997Z</time></trkpt><trkpt lat="44.9042917" lon="9.690405"><ele>156.0</ele><time>2026-05-01T13:44:57.996Z</time></trkpt><trkpt lat="44.904175" lon="9.69039"><ele>156.0</ele><time>2026-05-01T13:44:58.997Z</time></trkpt><trkpt lat="44.9040667" lon="9.6903917"><ele>156.5</ele><time>2026-05-01T13:44:59.997Z</time></trkpt><trkpt lat="44.903965" lon="9.6904083"><ele>157.0</ele><time>2026-05-01T13:45:00.996Z</time></trkpt><trkpt lat="44.9038717" lon="9.69043"><ele>157.5</ele><time>2026-05-01T13:45:01.996Z</time></trkpt><trkpt lat="44.903785" lon="9.6904383"><ele>158.0</ele><time>2026-05-01T13:45:02.997Z</time></trkpt><trkpt lat="44.9037117" lon="9.6904333"><ele>158.5</ele><time>2026-05-01T13:45:03.996Z</time></trkpt><trkpt lat="44.9036433" lon="9.69042"><ele>159.0</ele><time>2026-05-01T13:45:04.996Z</time></trkpt><trkpt lat="44.9035433" lon="9.6903217"><ele>159.0</ele><time>2026-05-01T13:45:06.996Z</time></trkpt><trkpt lat="44.9034933" lon="9.6902417"><ele>159.0</ele><time>2026-05-01T13:45:07.996Z</time></trkpt><trkpt lat="44.903425" lon="9.690175"><ele>159.0</ele><time>2026-05-01T13:45:08.997Z</time></trkpt><trkpt lat="44.903325" lon="9.6901283"><ele>159.0</ele><time>2026-05-01T13:45:09.997Z</time></trkpt><trkpt lat="44.903205" lon="9.690085"><ele>159.0</ele><time>2026-05-01T13:45:10.997Z</time></trkpt><trkpt lat="44.90307" lon="9.6900383"><ele>159.0</ele><time>2026-05-01T13:45:11.996Z</time></trkpt><trkpt lat="44.9029183" lon="9.6899883"><ele>159.0</ele><time>2026-05-01T13:45:12.997Z</time></trkpt><trkpt lat="44.9027583" lon="9.6899367"><ele>159.0</ele><time>2026-05-01T13:45:13.997Z</time></trkpt><trkpt lat="44.902595" lon="9.6898833"><ele>159.0</ele><time>2026-05-01T13:45:14.996Z</time></trkpt><trkpt lat="44.9024267" lon="9.68983"><ele>159.0</ele><time>2026-05-01T13:45:15.996Z</time></trkpt><trkpt lat="44.9022533" lon="9.6897767"><ele>159.0</ele><time>2026-05-01T13:45:16.996Z</time></trkpt><trkpt lat="44.902075" lon="9.6897233"><ele>159.0</ele><time>2026-05-01T13:45:17.997Z</time></trkpt><trkpt lat="44.9019017" lon="9.6896717"><ele>159.0</ele><time>2026-05-01T13:45:18.996Z</time></trkpt><trkpt lat="44.90173" lon="9.689625"><ele>159.0</ele><time>2026-05-01T13:45:19.998Z</time></trkpt><trkpt lat="44.90156" lon="9.68958"><ele>159.33333333333334</ele><time>2026-05-01T13:45:20.997Z</time></trkpt><trkpt lat="44.9013867" lon="9.6895333"><ele>159.66666666666669</ele><time>2026-05-01T13:45:21.997Z</time></trkpt><trkpt lat="44.901215" lon="9.6894817"><ele>160.0</ele><time>2026-05-01T13:45:22.996Z</time></trkpt><trkpt lat="44.9010467" lon="9.6894333"><ele>160.0</ele><time>2026-05-01T13:45:23.997Z</time></trkpt><trkpt lat="44.9008883" lon="9.68939"><ele>160.0</ele><time>2026-05-01T13:45:24.997Z</time></trkpt><trkpt lat="44.9007367" lon="9.6893483"><ele>160.0</ele><time>2026-05-01T13:45:25.997Z</time></trkpt><trkpt lat="44.900585" lon="9.689305"><ele>160.0</ele><time>2026-05-01T13:45:26.997Z</time></trkpt><trkpt lat="44.9004333" lon="9.689255"><ele>160.0</ele><time>2026-05-01T13:45:27.996Z</time></trkpt><trkpt lat="44.9002833" lon="9.6892033"><ele>160.0</ele><time>2026-05-01T13:45:28.996Z</time></trkpt><trkpt lat="44.9001367" lon="9.68914"><ele>160.5</ele><time>2026-05-01T13:45:29.997Z</time></trkpt><trkpt lat="44.9" lon="9.6890633"><ele>161.0</ele><time>2026-05-01T13:45:30.997Z</time></trkpt><trkpt lat="44.8998733" lon="9.68898"><ele>161.5</ele><time>2026-05-01T13:45:31.996Z</time></trkpt><trkpt lat="44.8997567" lon="9.6889033"><ele>162.0</ele><time>2026-05-01T13:45:32.996Z</time></trkpt><trkpt lat="44.8996483" lon="9.6888417"><ele>162.0</ele><time>2026-05-01T13:45:33.996Z</time></trkpt><trkpt lat="44.899535" lon="9.6888"><ele>162.0</ele><time>2026-05-01T13:45:34.997Z</time></trkpt><trkpt lat="44.8994083" lon="9.6887883"><ele>162.0</ele><time>2026-05-01T13:45:35.997Z</time></trkpt><trkpt lat="44.89927" lon="9.6888067"><ele>162.0</ele><time>2026-05-01T13:45:36.996Z</time></trkpt><trkpt lat="44.899125" lon="9.688825"><ele>162.66666666666666</ele><time>2026-05-01T13:45:37.996Z</time></trkpt><trkpt lat="44.8989733" lon="9.6888317"><ele>163.33333333333331</ele><time>2026-05-01T13:45:38.997Z</time></trkpt><trkpt lat="44.89882" lon="9.688835"><ele>164.0</ele><time>2026-05-01T13:45:39.996Z</time></trkpt><trkpt lat="44.8986667" lon="9.6888333"><ele>164.0</ele><time>2026-05-01T13:45:40.998Z</time></trkpt><trkpt lat="44.8985133" lon="9.6888233"><ele>164.0</ele><time>2026-05-01T13:45:41.997Z</time></trkpt><trkpt lat="44.8983583" lon="9.6887967"><ele>164.0</ele><time>2026-05-01T13:45:42.997Z</time></trkpt><trkpt lat="44.8982" lon="9.6887583"><ele>163.66666666666666</ele><time>2026-05-01T13:45:43.998Z</time></trkpt><trkpt lat="44.8980417" lon="9.6887167"><ele>163.33333333333334</ele><time>2026-05-01T13:45:44.998Z</time></trkpt><trkpt lat="44.897885" lon="9.6886767"><ele>163.0</ele><time>2026-05-01T13:45:45.996Z</time></trkpt><trkpt lat="44.8977267" lon="9.6886383"><ele>163.0</ele><time>2026-05-01T13:45:46.997Z</time></trkpt><trkpt lat="44.89757" lon="9.6886017"><ele>163.0</ele><time>2026-05-01T13:45:47.996Z</time></trkpt><trkpt lat="44.89741" lon="9.688565"><ele>163.0</ele><time>2026-05-01T13:45:48.996Z</time></trkpt><trkpt lat="44.8972483" lon="9.6885283"><ele>163.33333333333334</ele><time>2026-05-01T13:45:49.996Z</time></trkpt><trkpt lat="44.8970783" lon="9.6884917"><ele>163.66666666666666</ele><time>2026-05-01T13:45:50.996Z</time></trkpt><trkpt lat="44.8969033" lon="9.6884533"><ele>164.0</ele><time>2026-05-01T13:45:51.997Z</time></trkpt><trkpt lat="44.89673" lon="9.6884067"><ele>164.33333333333331</ele><time>2026-05-01T13:45:52.996Z</time></trkpt><trkpt lat="44.89655" lon="9.68836"><ele>164.66666666666666</ele><time>2026-05-01T13:45:53.997Z</time></trkpt><trkpt lat="44.8963617" lon="9.6883117"><ele>165.0</ele><time>2026-05-01T13:45:54.997Z</time></trkpt><trkpt lat="44.896175" lon="9.6882683"><ele>165.0</ele><time>2026-05-01T13:45:55.998Z</time></trkpt><trkpt lat="44.8960017" lon="9.6882283"><ele>165.0</ele><time>2026-05-01T13:45:56.997Z</time></trkpt><trkpt lat="44.89584" lon="9.6881883"><ele>165.0</ele><time>2026-05-01T13:45:57.996Z</time></trkpt><trkpt lat="44.895685" lon="9.6881517"><ele>165.0</ele><time>2026-05-01T13:45:58.997Z</time></trkpt><trkpt lat="44.895535" lon="9.688115"><ele>165.0</ele><time>2026-05-01T13:45:59.998Z</time></trkpt><trkpt lat="44.8953867" lon="9.6880783"><ele>165.0</ele><time>2026-05-01T13:46:00.997Z</time></trkpt><trkpt lat="44.8952317" lon="9.68805"><ele>165.66666666666666</ele><time>2026-05-01T13:46:01.997Z</time></trkpt><trkpt lat="44.8950767" lon="9.6880317"><ele>166.33333333333331</ele><time>2026-05-01T13:46:02.996Z</time></trkpt><trkpt lat="44.8949217" lon="9.688045"><ele>167.0</ele><time>2026-05-01T13:46:03.996Z</time></trkpt><trkpt lat="44.8947667" lon="9.6880867"><ele>167.0</ele><time>2026-05-01T13:46:04.996Z</time></trkpt><trkpt lat="44.894615" lon="9.688145"><ele>167.0</ele><time>2026-05-01T13:46:05.996Z</time></trkpt><trkpt lat="44.8944683" lon="9.6882083"><ele>167.0</ele><time>2026-05-01T13:46:06.997Z</time></trkpt><trkpt lat="44.89433" lon="9.6882733"><ele>168.0</ele><time>2026-05-01T13:46:07.996Z</time></trkpt><trkpt lat="44.8942017" lon="9.68835"><ele>169.0</ele><time>2026-05-01T13:46:08.998Z</time></trkpt><trkpt lat="44.8940867" lon="9.68843"><ele>170.0</ele><time>2026-05-01T13:46:09.996Z</time></trkpt><trkpt lat="44.8939833" lon="9.6885083"><ele>171.0</ele><time>2026-05-01T13:46:10.997Z</time></trkpt><trkpt lat="44.8938867" lon="9.68857"><ele>171.0</ele><time>2026-05-01T13:46:11.996Z</time></trkpt><trkpt lat="44.8937883" lon="9.688605"><ele>171.0</ele><time>2026-05-01T13:46:12.997Z</time></trkpt><trkpt lat="44.893685" lon="9.688605"><ele>171.0</ele><time>2026-05-01T13:46:13.996Z</time></trkpt><trkpt lat="44.8935717" lon="9.688575"><ele>171.0</ele><time>2026-05-01T13:46:14.996Z</time></trkpt><trkpt lat="44.8934517" lon="9.6885333"><ele>171.0</ele><time>2026-05-01T13:46:15.996Z</time></trkpt><trkpt lat="44.8933383" lon="9.6884983"><ele>171.60000000000002</ele><time>2026-05-01T13:46:16.996Z</time></trkpt><trkpt lat="44.89324" lon="9.688465"><ele>172.2</ele><time>2026-05-01T13:46:17.996Z</time></trkpt><trkpt lat="44.8931483" lon="9.6884283"><ele>172.8</ele><time>2026-05-01T13:46:18.997Z</time></trkpt><trkpt lat="44.8930683" lon="9.6883933"><ele>173.39999999999998</ele><time>2026-05-01T13:46:19.998Z</time></trkpt><trkpt lat="44.8929917" lon="9.688355"><ele>174.0</ele><time>2026-05-01T13:46:20.999Z</time></trkpt><trkpt lat="44.8929083" lon="9.6883067"><ele>174.0</ele><time>2026-05-01T13:46:21.999Z</time></trkpt><trkpt lat="44.8928117" lon="9.6882483"><ele>174.0</ele><time>2026-05-01T13:46:22.997Z</time></trkpt><trkpt lat="44.8927033" lon="9.688185"><ele>174.0</ele><time>2026-05-01T13:46:23.998Z</time></trkpt><trkpt lat="44.892585" lon="9.68812"><ele>174.0</ele><time>2026-05-01T13:46:24.997Z</time></trkpt><trkpt lat="44.8924567" lon="9.6880467"><ele>174.33333333333334</ele><time>2026-05-01T13:46:25.997Z</time></trkpt><trkpt lat="44.8923217" lon="9.687955"><ele>174.66666666666669</ele><time>2026-05-01T13:46:26.996Z</time></trkpt><trkpt lat="44.892185" lon="9.687825"><ele>175.0</ele><time>2026-05-01T13:46:27.996Z</time></trkpt><trkpt lat="44.892055" lon="9.6876533"><ele>175.0</ele><time>2026-05-01T13:46:28.997Z</time></trkpt><trkpt lat="44.8919317" lon="9.6874583"><ele>175.0</ele><time>2026-05-01T13:46:29.996Z</time></trkpt><trkpt lat="44.8918133" lon="9.6872583"><ele>175.0</ele><time>2026-05-01T13:46:30.996Z</time></trkpt><trkpt lat="44.8917" lon="9.68706"><ele>177.33333333333334</ele><time>2026-05-01T13:46:31.996Z</time></trkpt><trkpt lat="44.8915867" lon="9.6868617"><ele>179.66666666666666</ele><time>2026-05-01T13:46:32.996Z</time></trkpt><trkpt lat="44.891475" lon="9.686665"><ele>182.0</ele><time>2026-05-01T13:46:33.999Z</time></trkpt><trkpt lat="44.89136" lon="9.686465"><ele>182.0</ele><time>2026-05-01T13:46:34.997Z</time></trkpt><trkpt lat="44.891245" lon="9.6862633"><ele>182.0</ele><time>2026-05-01T13:46:35.996Z</time></trkpt><trkpt lat="44.8911267" lon="9.6860617"><ele>182.0</ele><time>2026-05-01T13:46:36.996Z</time></trkpt><trkpt lat="44.8910083" lon="9.6858583"><ele>181.66666666666666</ele><time>2026-05-01T13:46:37.996Z</time></trkpt><trkpt lat="44.89089" lon="9.6856583"><ele>181.33333333333334</ele><time>2026-05-01T13:46:38.997Z</time></trkpt><trkpt lat="44.8907717" lon="9.68546"><ele>181.0</ele><time>2026-05-01T13:46:39.998Z</time></trkpt><trkpt lat="44.8906567" lon="9.685265"><ele>179.66666666666669</ele><time>2026-05-01T13:46:40.996Z</time></trkpt><trkpt lat="44.8905417" lon="9.6850733"><ele>178.33333333333334</ele><time>2026-05-01T13:46:41.996Z</time></trkpt><trkpt lat="44.8904267" lon="9.684885"><ele>177.0</ele><time>2026-05-01T13:46:42.997Z</time></trkpt><trkpt lat="44.8903117" lon="9.6846967"><ele>177.0</ele><time>2026-05-01T13:46:43.997Z</time></trkpt><trkpt lat="44.8902" lon="9.6845167"><ele>177.0</ele><time>2026-05-01T13:46:44.997Z</time></trkpt><trkpt lat="44.8900983" lon="9.6843433"><ele>177.0</ele><time>2026-05-01T13:46:45.996Z</time></trkpt><trkpt lat="44.8900033" lon="9.68418"><ele>177.75</ele><time>2026-05-01T13:46:46.996Z</time></trkpt><trkpt lat="44.8899117" lon="9.6840267"><ele>178.5</ele><time>2026-05-01T13:46:47.996Z</time></trkpt><trkpt lat="44.8898183" lon="9.683875"><ele>179.25</ele><time>2026-05-01T13:46:48.996Z</time></trkpt><trkpt lat="44.8897217" lon="9.683715"><ele>180.0</ele><time>2026-05-01T13:46:49.996Z</time></trkpt><trkpt lat="44.88962" lon="9.6835483"><ele>178.0</ele><time>2026-05-01T13:46:50.997Z</time></trkpt><trkpt lat="44.889515" lon="9.6833783"><ele>176.0</ele><time>2026-05-01T13:46:51.996Z</time></trkpt><trkpt lat="44.8894067" lon="9.6832"><ele>174.0</ele><time>2026-05-01T13:46:52.997Z</time></trkpt><trkpt lat="44.8892983" lon="9.683015"><ele>176.0</ele><time>2026-05-01T13:46:53.996Z</time></trkpt><trkpt lat="44.88919" lon="9.68282"><ele>178.0</ele><time>2026-05-01T13:46:54.996Z</time></trkpt><trkpt lat="44.8890817" lon="9.68262"><ele>180.0</ele><time>2026-05-01T13:46:55.996Z</time></trkpt><trkpt lat="44.888975" lon="9.682415"><ele>180.0</ele><time>2026-05-01T13:46:56.997Z</time></trkpt><trkpt lat="44.8888767" lon="9.6822117"><ele>180.0</ele><time>2026-05-01T13:46:57.997Z</time></trkpt><trkpt lat="44.888785" lon="9.6820033"><ele>180.0</ele><time>2026-05-01T13:46:58.996Z</time></trkpt><trkpt lat="44.8887" lon="9.68179"><ele>178.0</ele><time>2026-05-01T13:46:59.996Z</time></trkpt><trkpt lat="44.8886233" lon="9.6815683"><ele>176.0</ele><time>2026-05-01T13:47:00.996Z</time></trkpt><trkpt lat="44.888545" lon="9.6813433"><ele>174.0</ele><time>2026-05-01T13:47:01.996Z</time></trkpt><trkpt lat="44.8884667" lon="9.6811217"><ele>174.0</ele><time>2026-05-01T13:47:02.997Z</time></trkpt><trkpt lat="44.8883883" lon="9.6809033"><ele>174.0</ele><time>2026-05-01T13:47:03.996Z</time></trkpt><trkpt lat="44.8883133" lon="9.68069"><ele>174.0</ele><time>2026-05-01T13:47:04.997Z</time></trkpt><trkpt lat="44.88824" lon="9.6804767"><ele>174.0</ele><time>2026-05-01T13:47:05.997Z</time></trkpt><trkpt lat="44.888165" lon="9.6802667"><ele>174.0</ele><time>2026-05-01T13:47:06.997Z</time></trkpt><trkpt lat="44.8880917" lon="9.6800583"><ele>174.0</ele><time>2026-05-01T13:47:07.999Z</time></trkpt><trkpt lat="44.88802" lon="9.6798567"><ele>174.0</ele><time>2026-05-01T13:47:08.997Z</time></trkpt><trkpt lat="44.8879517" lon="9.6796633"><ele>174.0</ele><time>2026-05-01T13:47:09.997Z</time></trkpt><trkpt lat="44.8878867" lon="9.6794817"><ele>174.0</ele><time>2026-05-01T13:47:10.997Z</time></trkpt><trkpt lat="44.887825" lon="9.6793067"><ele>174.0</ele><time>2026-05-01T13:47:11.999Z</time></trkpt><trkpt lat="44.8877633" lon="9.6791333"><ele>174.75</ele><time>2026-05-01T13:47:12.997Z</time></trkpt><trkpt lat="44.8876983" lon="9.67896"><ele>175.5</ele><time>2026-05-01T13:47:13.999Z</time></trkpt><trkpt lat="44.887625" lon="9.6787883"><ele>176.25</ele><time>2026-05-01T13:47:14.999Z</time></trkpt><trkpt lat="44.8875467" lon="9.6786233"><ele>177.0</ele><time>2026-05-01T13:47:15.996Z</time></trkpt><trkpt lat="44.8874667" lon="9.6784717"><ele>177.5</ele><time>2026-05-01T13:47:16.997Z</time></trkpt><trkpt lat="44.8873833" lon="9.6783317"><ele>178.0</ele><time>2026-05-01T13:47:17.998Z</time></trkpt><trkpt lat="44.8872933" lon="9.6781967"><ele>178.5</ele><time>2026-05-01T13:47:18.997Z</time></trkpt><trkpt lat="44.8871933" lon="9.6780667"><ele>179.0</ele><time>2026-05-01T13:47:19.999Z</time></trkpt><trkpt lat="44.8870867" lon="9.677945"><ele>179.0</ele><time>2026-05-01T13:47:20.998Z</time></trkpt><trkpt lat="44.8869717" lon="9.6778317"><ele>179.0</ele><time>2026-05-01T13:47:21.997Z</time></trkpt><trkpt lat="44.88685" lon="9.67772"><ele>179.0</ele><time>2026-05-01T13:47:23Z</time></trkpt><trkpt lat="44.8867267" lon="9.6776117"><ele>179.0</ele><time>2026-05-01T13:47:23.997Z</time></trkpt><trkpt lat="44.8866" lon="9.6775033"><ele>178.66666666666666</ele><time>2026-05-01T13:47:24.998Z</time></trkpt><trkpt lat="44.8864717" lon="9.677395"><ele>178.33333333333334</ele><time>2026-05-01T13:47:25.999Z</time></trkpt><trkpt lat="44.8863417" lon="9.6772867"><ele>178.0</ele><time>2026-05-01T13:47:26.998Z</time></trkpt><trkpt lat="44.8862133" lon="9.6771783"><ele>178.0</ele><time>2026-05-01T13:47:27.997Z</time></trkpt><trkpt lat="44.8860833" lon="9.6770683"><ele>178.0</ele><time>2026-05-01T13:47:28.997Z</time></trkpt><trkpt lat="44.8859533" lon="9.6769567"><ele>178.0</ele><time>2026-05-01T13:47:29.996Z</time></trkpt><trkpt lat="44.8858233" lon="9.676845"><ele>178.75</ele><time>2026-05-01T13:47:30.996Z</time></trkpt><trkpt lat="44.885695" lon="9.6767383"><ele>179.5</ele><time>2026-05-01T13:47:31.996Z</time></trkpt><trkpt lat="44.8855683" lon="9.6766333"><ele>180.25</ele><time>2026-05-01T13:47:32.998Z</time></trkpt><trkpt lat="44.8854467" lon="9.6765333"><ele>181.0</ele><time>2026-05-01T13:47:33.996Z</time></trkpt><trkpt lat="44.8853283" lon="9.676435"><ele>181.0</ele><time>2026-05-01T13:47:34.996Z</time></trkpt><trkpt lat="44.8852083" lon="9.6763367"><ele>181.0</ele><time>2026-05-01T13:47:35.996Z</time></trkpt><trkpt lat="44.88509" lon="9.6762367"><ele>181.0</ele><time>2026-05-01T13:47:36.997Z</time></trkpt><trkpt lat="44.8849733" lon="9.676135"><ele>181.0</ele><time>2026-05-01T13:47:37.996Z</time></trkpt><trkpt lat="44.884855" lon="9.6760333"><ele>181.5</ele><time>2026-05-01T13:47:38.997Z</time></trkpt><trkpt lat="44.8847367" lon="9.6759333"><ele>182.0</ele><time>2026-05-01T13:47:39.996Z</time></trkpt><trkpt lat="44.8846183" lon="9.6758333"><ele>182.5</ele><time>2026-05-01T13:47:40.996Z</time></trkpt><trkpt lat="44.8844983" lon="9.6757317"><ele>183.0</ele><time>2026-05-01T13:47:41.997Z</time></trkpt><trkpt lat="44.8843767" lon="9.67563"><ele>184.0</ele><time>2026-05-01T13:47:42.998Z</time></trkpt><trkpt lat="44.8842583" lon="9.675525"><ele>185.0</ele><time>2026-05-01T13:47:43.999Z</time></trkpt><trkpt lat="44.8841467" lon="9.6754217"><ele>186.0</ele><time>2026-05-01T13:47:44.996Z</time></trkpt><trkpt lat="44.8840417" lon="9.6753083"><ele>187.0</ele><time>2026-05-01T13:47:45.997Z</time></trkpt><trkpt lat="44.8839433" lon="9.6751817"><ele>187.0</ele><time>2026-05-01T13:47:46.996Z</time></trkpt><trkpt lat="44.8838483" lon="9.6750467"><ele>187.0</ele><time>2026-05-01T13:47:47.998Z</time></trkpt><trkpt lat="44.883755" lon="9.6749083"><ele>187.0</ele><time>2026-05-01T13:47:48.996Z</time></trkpt><trkpt lat="44.88366" lon="9.6747667"><ele>187.0</ele><time>2026-05-01T13:47:49.997Z</time></trkpt><trkpt lat="44.8835633" lon="9.6746267"><ele>187.0</ele><time>2026-05-01T13:47:50.998Z</time></trkpt><trkpt lat="44.8834683" lon="9.6744867"><ele>187.0</ele><time>2026-05-01T13:47:51.999Z</time></trkpt><trkpt lat="44.883375" lon="9.67435"><ele>187.0</ele><time>2026-05-01T13:47:52.998Z</time></trkpt><trkpt lat="44.8832783" lon="9.674215"><ele>187.0</ele><time>2026-05-01T13:47:53.999Z</time></trkpt><trkpt lat="44.8831833" lon="9.6740833"><ele>187.5</ele><time>2026-05-01T13:47:54.998Z</time></trkpt><trkpt lat="44.8830833" lon="9.6739583"><ele>188.0</ele><time>2026-05-01T13:47:55.997Z</time></trkpt><trkpt lat="44.8829817" lon="9.6738417"><ele>188.5</ele><time>2026-05-01T13:47:56.997Z</time></trkpt><trkpt lat="44.8828817" lon="9.6737283"><ele>189.0</ele><time>2026-05-01T13:47:57.996Z</time></trkpt><trkpt lat="44.8827817" lon="9.67362"><ele>188.75</ele><time>2026-05-01T13:47:58.996Z</time></trkpt><trkpt lat="44.8826833" lon="9.6735117"><ele>188.5</ele><time>2026-05-01T13:47:59.997Z</time></trkpt><trkpt lat="44.882585" lon="9.6734017"><ele>188.25</ele><time>2026-05-01T13:48:00.996Z</time></trkpt><trkpt lat="44.8824867" lon="9.6732967"><ele>188.0</ele><time>2026-05-01T13:48:01.996Z</time></trkpt><trkpt lat="44.88239" lon="9.6731933"><ele>189.0</ele><time>2026-05-01T13:48:02.997Z</time></trkpt><trkpt lat="44.882295" lon="9.6730917"><ele>190.0</ele><time>2026-05-01T13:48:03.996Z</time></trkpt><trkpt lat="44.882195" lon="9.672985"><ele>191.0</ele><time>2026-05-01T13:48:04.997Z</time></trkpt><trkpt lat="44.8820917" lon="9.672875"><ele>192.0</ele><time>2026-05-01T13:48:05.997Z</time></trkpt><trkpt lat="44.8819933" lon="9.67277"><ele>192.0</ele><time>2026-05-01T13:48:06.996Z</time></trkpt><trkpt lat="44.881895" lon="9.6726667"><ele>192.0</ele><time>2026-05-01T13:48:07.997Z</time></trkpt><trkpt lat="44.8817983" lon="9.6725617"><ele>192.0</ele><time>2026-05-01T13:48:08.996Z</time></trkpt><trkpt lat="44.8817083" lon="9.6724633"><ele>192.0</ele><time>2026-05-01T13:48:09.996Z</time></trkpt><trkpt lat="44.8816283" lon="9.6723767"><ele>192.66666666666666</ele><time>2026-05-01T13:48:10.996Z</time></trkpt><trkpt lat="44.881555" lon="9.6722983"><ele>193.33333333333331</ele><time>2026-05-01T13:48:11.996Z</time></trkpt><trkpt lat="44.8814817" lon="9.6722233"><ele>194.0</ele><time>2026-05-01T13:48:12.996Z</time></trkpt><trkpt lat="44.881415" lon="9.6721567"><ele>194.66666666666666</ele><time>2026-05-01T13:48:13.997Z</time></trkpt><trkpt lat="44.8813483" lon="9.6721017"><ele>195.33333333333331</ele><time>2026-05-01T13:48:14.996Z</time></trkpt><trkpt lat="44.881285" lon="9.672065"><ele>196.0</ele><time>2026-05-01T13:48:15.996Z</time></trkpt><trkpt lat="44.8811717" lon="9.672105"><ele>196.0</ele><time>2026-05-01T13:48:17.998Z</time></trkpt><trkpt lat="44.8811133" lon="9.6721733"><ele>196.0</ele><time>2026-05-01T13:48:18.998Z</time></trkpt><trkpt lat="44.8810517" lon="9.672275"><ele>196.0</ele><time>2026-05-01T13:48:19.998Z</time></trkpt><trkpt lat="44.88097" lon="9.6724217"><ele>196.0</ele><time>2026-05-01T13:48:20.998Z</time></trkpt><trkpt lat="44.8808733" lon="9.6725683"><ele>196.0</ele><time>2026-05-01T13:48:21.997Z</time></trkpt><trkpt lat="44.88078" lon="9.6727067"><ele>197.20000000000002</ele><time>2026-05-01T13:48:22.997Z</time></trkpt><trkpt lat="44.880695" lon="9.6728267"><ele>198.4</ele><time>2026-05-01T13:48:23.997Z</time></trkpt><trkpt lat="44.880625" lon="9.6729383"><ele>199.6</ele><time>2026-05-01T13:48:24.996Z</time></trkpt><trkpt lat="44.880565" lon="9.6730567"><ele>200.8</ele><time>2026-05-01T13:48:25.997Z</time></trkpt><trkpt lat="44.8805167" lon="9.6731883"><ele>202.0</ele><time>2026-05-01T13:48:26.998Z</time></trkpt><trkpt lat="44.8804717" lon="9.673325"><ele>202.0</ele><time>2026-05-01T13:48:27.997Z</time></trkpt><trkpt lat="44.8804333" lon="9.6734517"><ele>202.0</ele><time>2026-05-01T13:48:28.996Z</time></trkpt><trkpt lat="44.880415" lon="9.673575"><ele>202.0</ele><time>2026-05-01T13:48:29.998Z</time></trkpt><trkpt lat="44.8804033" lon="9.6736867"><ele>202.0</ele><time>2026-05-01T13:48:30.997Z</time></trkpt><trkpt lat="44.8804417" lon="9.6738017"><ele>202.0</ele><time>2026-05-01T13:48:31.996Z</time></trkpt><trkpt lat="44.8805183" lon="9.67392"><ele>203.75</ele><time>2026-05-01T13:48:32.996Z</time></trkpt><trkpt lat="44.8806083" lon="9.674045"><ele>205.5</ele><time>2026-05-01T13:48:33.996Z</time></trkpt><trkpt lat="44.88069" lon="9.6741733"><ele>207.25</ele><time>2026-05-01T13:48:34.997Z</time></trkpt><trkpt lat="44.880755" lon="9.6743017"><ele>209.0</ele><time>2026-05-01T13:48:35.996Z</time></trkpt><trkpt lat="44.8808" lon="9.674425"><ele>211.00000000000003</ele><time>2026-05-01T13:48:36.997Z</time></trkpt><trkpt lat="44.8808267" lon="9.6745333"><ele>213.0</ele><time>2026-05-01T13:48:37.996Z</time></trkpt><trkpt lat="44.8808367" lon="9.67464"><ele>215.0</ele><time>2026-05-01T13:48:38.997Z</time></trkpt><trkpt lat="44.880825" lon="9.67474"><ele>217.0</ele><time>2026-05-01T13:48:39.996Z</time></trkpt><trkpt lat="44.8807917" lon="9.6748383"><ele>219.00000000000003</ele><time>2026-05-01T13:48:40.996Z</time></trkpt><trkpt lat="44.8807167" lon="9.6749483"><ele>221.0</ele><time>2026-05-01T13:48:41.996Z</time></trkpt><trkpt lat="44.880625" lon="9.675045"><ele>221.0</ele><time>2026-05-01T13:48:42.998Z</time></trkpt><trkpt lat="44.8805333" lon="9.6751067"><ele>221.00000000000003</ele><time>2026-05-01T13:48:43.996Z</time></trkpt><trkpt lat="44.8804433" lon="9.675125"><ele>221.00000000000003</ele><time>2026-05-01T13:48:45.001Z</time></trkpt><trkpt lat="44.88035" lon="9.6751083"><ele>221.0</ele><time>2026-05-01T13:48:45.997Z</time></trkpt><trkpt lat="44.88025" lon="9.6750583"><ele>221.0</ele><time>2026-05-01T13:48:46.996Z</time></trkpt><trkpt lat="44.8801467" lon="9.674985"><ele>224.8</ele><time>2026-05-01T13:48:47.996Z</time></trkpt><trkpt lat="44.880045" lon="9.6749083"><ele>228.60000000000002</ele><time>2026-05-01T13:48:48.999Z</time></trkpt><trkpt lat="44.87995" lon="9.67485"><ele>232.4</ele><time>2026-05-01T13:48:49.997Z</time></trkpt><trkpt lat="44.87986" lon="9.6748133"><ele>236.2</ele><time>2026-05-01T13:48:50.997Z</time></trkpt><trkpt lat="44.879765" lon="9.6748067"><ele>240.0</ele><time>2026-05-01T13:48:51.996Z</time></trkpt><trkpt lat="44.8796733" lon="9.6748233"><ele>240.0</ele><time>2026-05-01T13:48:52.996Z</time></trkpt><trkpt lat="44.8795983" lon="9.674865"><ele>240.0</ele><time>2026-05-01T13:48:53.998Z</time></trkpt><trkpt lat="44.8795217" lon="9.6749367"><ele>240.0</ele><time>2026-05-01T13:48:54.998Z</time></trkpt><trkpt lat="44.87945" lon="9.6750283"><ele>240.0</ele><time>2026-05-01T13:48:55.997Z</time></trkpt><trkpt lat="44.8793833" lon="9.6751217"><ele>240.0</ele><time>2026-05-01T13:48:56.997Z</time></trkpt><trkpt lat="44.879315" lon="9.675195"><ele>240.0</ele><time>2026-05-01T13:48:57.998Z</time></trkpt><trkpt lat="44.879235" lon="9.6752583"><ele>243.2</ele><time>2026-05-01T13:48:58.997Z</time></trkpt><trkpt lat="44.8791417" lon="9.6753083"><ele>246.4</ele><time>2026-05-01T13:48:59.998Z</time></trkpt><trkpt lat="44.8790367" lon="9.6753433"><ele>249.60000000000002</ele><time>2026-05-01T13:49:00.997Z</time></trkpt><trkpt lat="44.8789383" lon="9.6753867"><ele>252.8</ele><time>2026-05-01T13:49:01.998Z</time></trkpt><trkpt lat="44.878845" lon="9.6754483"><ele>256.0</ele><time>2026-05-01T13:49:02.997Z</time></trkpt><trkpt lat="44.878755" lon="9.6755233"><ele>256.0</ele><time>2026-05-01T13:49:03.998Z</time></trkpt><trkpt lat="44.87867" lon="9.6755967"><ele>256.0</ele><time>2026-05-01T13:49:04.998Z</time></trkpt><trkpt lat="44.8785883" lon="9.6756567"><ele>256.0</ele><time>2026-05-01T13:49:05.998Z</time></trkpt><trkpt lat="44.8784933" lon="9.6757083"><ele>256.0</ele><time>2026-05-01T13:49:06.997Z</time></trkpt><trkpt lat="44.8783783" lon="9.6757583"><ele>256.0</ele><time>2026-05-01T13:49:07.997Z</time></trkpt><trkpt lat="44.878255" lon="9.6758033"><ele>258.25</ele><time>2026-05-01T13:49:08.996Z</time></trkpt><trkpt lat="44.8781317" lon="9.6758433"><ele>260.5</ele><time>2026-05-01T13:49:09.997Z</time></trkpt><trkpt lat="44.8780167" lon="9.6758867"><ele>262.75</ele><time>2026-05-01T13:49:10.997Z</time></trkpt><trkpt lat="44.8779067" lon="9.67593"><ele>265.0</ele><time>2026-05-01T13:49:11.997Z</time></trkpt><trkpt lat="44.8777883" lon="9.6759667"><ele>265.0</ele><time>2026-05-01T13:49:12.996Z</time></trkpt><trkpt lat="44.8776667" lon="9.676005"><ele>265.0</ele><time>2026-05-01T13:49:13.996Z</time></trkpt><trkpt lat="44.8775417" lon="9.6760417"><ele>265.0</ele><time>2026-05-01T13:49:14.997Z</time></trkpt><trkpt lat="44.8774167" lon="9.6760817"><ele>265.0</ele><time>2026-05-01T13:49:15.996Z</time></trkpt><trkpt lat="44.8772817" lon="9.6761283"><ele>266.25</ele><time>2026-05-01T13:49:16.997Z</time></trkpt><trkpt lat="44.8771433" lon="9.6761733"><ele>267.5</ele><time>2026-05-01T13:49:17.998Z</time></trkpt><trkpt lat="44.8770067" lon="9.676225"><ele>268.75</ele><time>2026-05-01T13:49:18.996Z</time></trkpt><trkpt lat="44.8768767" lon="9.6762833"><ele>270.0</ele><time>2026-05-01T13:49:19.997Z</time></trkpt><trkpt lat="44.8767483" lon="9.6763383"><ele>270.25</ele><time>2026-05-01T13:49:20.997Z</time></trkpt><trkpt lat="44.8766267" lon="9.67639"><ele>270.5</ele><time>2026-05-01T13:49:21.997Z</time></trkpt><trkpt lat="44.87651" lon="9.67644"><ele>270.75</ele><time>2026-05-01T13:49:22.997Z</time></trkpt><trkpt lat="44.8764033" lon="9.67649"><ele>271.0</ele><time>2026-05-01T13:49:23.996Z</time></trkpt><trkpt lat="44.87631" lon="9.676555"><ele>271.0</ele><time>2026-05-01T13:49:24.997Z</time></trkpt><trkpt lat="44.8762283" lon="9.6766383"><ele>271.0</ele><time>2026-05-01T13:49:25.998Z</time></trkpt><trkpt lat="44.87616" lon="9.6767433"><ele>271.0</ele><time>2026-05-01T13:49:26.997Z</time></trkpt><trkpt lat="44.8760967" lon="9.676855"><ele>271.0</ele><time>2026-05-01T13:49:27.996Z</time></trkpt><trkpt lat="44.8760317" lon="9.6769467"><ele>271.0</ele><time>2026-05-01T13:49:28.997Z</time></trkpt><trkpt lat="44.87595" lon="9.6770167"><ele>274.0</ele><time>2026-05-01T13:49:29.996Z</time></trkpt><trkpt lat="44.8758433" lon="9.677065"><ele>277.0</ele><time>2026-05-01T13:49:30.996Z</time></trkpt><trkpt lat="44.8757233" lon="9.6771117"><ele>280.0</ele><time>2026-05-01T13:49:31.997Z</time></trkpt><trkpt lat="44.8755933" lon="9.6771583"><ele>283.0</ele><time>2026-05-01T13:49:32.997Z</time></trkpt><trkpt lat="44.8754667" lon="9.677205"><ele>283.0</ele><time>2026-05-01T13:49:33.996Z</time></trkpt><trkpt lat="44.875355" lon="9.6772533"><ele>283.0</ele><time>2026-05-01T13:49:34.997Z</time></trkpt><trkpt lat="44.8752483" lon="9.6773133"><ele>283.0</ele><time>2026-05-01T13:49:35.996Z</time></trkpt><trkpt lat="44.8751433" lon="9.67739"><ele>283.0</ele><time>2026-05-01T13:49:36.996Z</time></trkpt><trkpt lat="44.8750367" lon="9.6774817"><ele>284.25</ele><time>2026-05-01T13:49:37.996Z</time></trkpt><trkpt lat="44.8749283" lon="9.6775833"><ele>285.5</ele><time>2026-05-01T13:49:38.997Z</time></trkpt><trkpt lat="44.8748167" lon="9.6776967"><ele>286.75</ele><time>2026-05-01T13:49:39.997Z</time></trkpt><trkpt lat="44.8747067" lon="9.6778167"><ele>288.0</ele><time>2026-05-01T13:49:40.997Z</time></trkpt><trkpt lat="44.8745983" lon="9.677935"><ele>288.0</ele><time>2026-05-01T13:49:41.996Z</time></trkpt><trkpt lat="44.8744883" lon="9.6780533"><ele>288.0</ele><time>2026-05-01T13:49:42.999Z</time></trkpt><trkpt lat="44.874375" lon="9.678175"><ele>288.0</ele><time>2026-05-01T13:49:43.998Z</time></trkpt><trkpt lat="44.8742583" lon="9.678295"><ele>288.0</ele><time>2026-05-01T13:49:44.999Z</time></trkpt><trkpt lat="44.87414" lon="9.6784117"><ele>289.5</ele><time>2026-05-01T13:49:45.996Z</time></trkpt><trkpt lat="44.8740283" lon="9.6785283"><ele>291.0</ele><time>2026-05-01T13:49:46.997Z</time></trkpt><trkpt lat="44.8739233" lon="9.6786533"><ele>292.5</ele><time>2026-05-01T13:49:47.996Z</time></trkpt><trkpt lat="44.8738233" lon="9.67879"><ele>294.0</ele><time>2026-05-01T13:49:48.995Z</time></trkpt><trkpt lat="44.8737267" lon="9.678925"><ele>294.0</ele><time>2026-05-01T13:49:49.997Z</time></trkpt><trkpt lat="44.873635" lon="9.67905"><ele>294.0</ele><time>2026-05-01T13:49:50.998Z</time></trkpt><trkpt lat="44.87355" lon="9.6791533"><ele>294.0</ele><time>2026-05-01T13:49:51.996Z</time></trkpt><trkpt lat="44.8734733" lon="9.6792433"><ele>294.0</ele><time>2026-05-01T13:49:52.997Z</time></trkpt><trkpt lat="44.8734017" lon="9.6793167"><ele>294.0</ele><time>2026-05-01T13:49:53.998Z</time></trkpt><trkpt lat="44.8733317" lon="9.6793633"><ele>295.8</ele><time>2026-05-01T13:49:54.997Z</time></trkpt><trkpt lat="44.873255" lon="9.67939"><ele>297.59999999999997</ele><time>2026-05-01T13:49:55.997Z</time></trkpt><trkpt lat="44.8731733" lon="9.67939"><ele>299.4</ele><time>2026-05-01T13:49:56.998Z</time></trkpt><trkpt lat="44.8730817" lon="9.6793633"><ele>301.2</ele><time>2026-05-01T13:49:57.996Z</time></trkpt><trkpt lat="44.8729867" lon="9.67934"><ele>303.0</ele><time>2026-05-01T13:49:58.997Z</time></trkpt><trkpt lat="44.8728867" lon="9.6793383"><ele>303.0</ele><time>2026-05-01T13:49:59.996Z</time></trkpt><trkpt lat="44.872795" lon="9.6793483"><ele>303.0</ele><time>2026-05-01T13:50:00.997Z</time></trkpt><trkpt lat="44.8727067" lon="9.6793417"><ele>303.0</ele><time>2026-05-01T13:50:01.997Z</time></trkpt><trkpt lat="44.8726167" lon="9.6793183"><ele>303.0</ele><time>2026-05-01T13:50:02.998Z</time></trkpt><trkpt lat="44.872515" lon="9.67927"><ele>303.0</ele><time>2026-05-01T13:50:03.999Z</time></trkpt><trkpt lat="44.8723933" lon="9.6792217"><ele>305.0</ele><time>2026-05-01T13:50:04.998Z</time></trkpt><trkpt lat="44.8722567" lon="9.6791767"><ele>307.0</ele><time>2026-05-01T13:50:05.996Z</time></trkpt><trkpt lat="44.872115" lon="9.6791433"><ele>309.0</ele><time>2026-05-01T13:50:06.996Z</time></trkpt><trkpt lat="44.87199" lon="9.6791167"><ele>311.0</ele><time>2026-05-01T13:50:07.996Z</time></trkpt><trkpt lat="44.8718817" lon="9.67909"><ele>311.0</ele><time>2026-05-01T13:50:08.996Z</time></trkpt><trkpt lat="44.8717867" lon="9.6790633"><ele>311.0</ele><time>2026-05-01T13:50:09.996Z</time></trkpt><trkpt lat="44.8717" lon="9.6790317"><ele>311.0</ele><time>2026-05-01T13:50:10.997Z</time></trkpt><trkpt lat="44.871625" lon="9.679"><ele>311.0</ele><time>2026-05-01T13:50:11.997Z</time></trkpt><trkpt lat="44.8715667" lon="9.6789567"><ele>311.0</ele><time>2026-05-01T13:50:12.997Z</time></trkpt><trkpt lat="44.8715067" lon="9.6788117"><ele>311.33333333333337</ele><time>2026-05-01T13:50:14.998Z</time></trkpt><trkpt lat="44.8714917" lon="9.6787217"><ele>311.6666666666667</ele><time>2026-05-01T13:50:15.996Z</time></trkpt><trkpt lat="44.8714833" lon="9.6786217"><ele>312.0</ele><time>2026-05-01T13:50:16.996Z</time></trkpt><trkpt lat="44.87145" lon="9.67852"><ele>312.3333333333333</ele><time>2026-05-01T13:50:17.997Z</time></trkpt><trkpt lat="44.871395" lon="9.6784217"><ele>312.66666666666663</ele><time>2026-05-01T13:50:18.996Z</time></trkpt><trkpt lat="44.87132" lon="9.6783417"><ele>313.0</ele><time>2026-05-01T13:50:19.997Z</time></trkpt><trkpt lat="44.871235" lon="9.6782917"><ele>313.4</ele><time>2026-05-01T13:50:20.997Z</time></trkpt><trkpt lat="44.8711417" lon="9.6782667"><ele>313.8</ele><time>2026-05-01T13:50:21.997Z</time></trkpt><trkpt lat="44.8710417" lon="9.6782483"><ele>314.2</ele><time>2026-05-01T13:50:22.998Z</time></trkpt><trkpt lat="44.8709383" lon="9.678235"><ele>314.6</ele><time>2026-05-01T13:50:23.996Z</time></trkpt><trkpt lat="44.87083" lon="9.678225"><ele>315.0</ele><time>2026-05-01T13:50:24.997Z</time></trkpt><trkpt lat="44.87072" lon="9.6782167"><ele>315.8</ele><time>2026-05-01T13:50:25.997Z</time></trkpt><trkpt lat="44.8706133" lon="9.6782033"><ele>316.6</ele><time>2026-05-01T13:50:26.996Z</time></trkpt><trkpt lat="44.8705083" lon="9.67819"><ele>317.4</ele><time>2026-05-01T13:50:27.997Z</time></trkpt><trkpt lat="44.87042" lon="9.678175"><ele>318.2</ele><time>2026-05-01T13:50:28.996Z</time></trkpt><trkpt lat="44.8703367" lon="9.678145"><ele>319.0</ele><time>2026-05-01T13:50:29.999Z</time></trkpt><trkpt lat="44.87026" lon="9.6780833"><ele>319.0</ele><time>2026-05-01T13:50:30.998Z</time></trkpt><trkpt lat="44.8701917" lon="9.6779983"><ele>319.0</ele><time>2026-05-01T13:50:31.997Z</time></trkpt><trkpt lat="44.87013" lon="9.6779067"><ele>319.0</ele><time>2026-05-01T13:50:32.997Z</time></trkpt><trkpt lat="44.8700617" lon="9.6778283"><ele>319.0</ele><time>2026-05-01T13:50:33.996Z</time></trkpt><trkpt lat="44.8699833" lon="9.6777667"><ele>319.0</ele><time>2026-05-01T13:50:34.997Z</time></trkpt><trkpt lat="44.869895" lon="9.6777067"><ele>319.25</ele><time>2026-05-01T13:50:35.996Z</time></trkpt><trkpt lat="44.869795" lon="9.67764"><ele>319.5</ele><time>2026-05-01T13:50:36.997Z</time></trkpt><trkpt lat="44.869685" lon="9.67757"><ele>319.75</ele><time>2026-05-01T13:50:37.996Z</time></trkpt><trkpt lat="44.869575" lon="9.6774983"><ele>320.0</ele><time>2026-05-01T13:50:38.998Z</time></trkpt><trkpt lat="44.869475" lon="9.6774333"><ele>320.0</ele><time>2026-05-01T13:50:39.996Z</time></trkpt><trkpt lat="44.8693817" lon="9.6773583"><ele>320.0</ele><time>2026-05-01T13:50:40.996Z</time></trkpt><trkpt lat="44.8692867" lon="9.6772917"><ele>320.0</ele><time>2026-05-01T13:50:41.997Z</time></trkpt><trkpt lat="44.869195" lon="9.6772367"><ele>320.0</ele><time>2026-05-01T13:50:42.998Z</time></trkpt><trkpt lat="44.86911" lon="9.6771683"><ele>320.0</ele><time>2026-05-01T13:50:43.996Z</time></trkpt><trkpt lat="44.8690167" lon="9.6770917"><ele>320.25</ele><time>2026-05-01T13:50:44.999Z</time></trkpt><trkpt lat="44.8689183" lon="9.67702"><ele>320.5</ele><time>2026-05-01T13:50:45.996Z</time></trkpt><trkpt lat="44.8688167" lon="9.6769467"><ele>320.75</ele><time>2026-05-01T13:50:46.996Z</time></trkpt><trkpt lat="44.868715" lon="9.6768667"><ele>321.0</ele><time>2026-05-01T13:50:47.997Z</time></trkpt><trkpt lat="44.8686133" lon="9.6767767"><ele>321.0</ele><time>2026-05-01T13:50:48.996Z</time></trkpt><trkpt lat="44.86851" lon="9.6766833"><ele>321.0</ele><time>2026-05-01T13:50:49.997Z</time></trkpt><trkpt lat="44.8684117" lon="9.67659"><ele>321.0</ele><time>2026-05-01T13:50:50.996Z</time></trkpt><trkpt lat="44.8683167" lon="9.6764933"><ele>321.0</ele><time>2026-05-01T13:50:51.998Z</time></trkpt><trkpt lat="44.868225" lon="9.6763983"><ele>321.6</ele><time>2026-05-01T13:50:52.996Z</time></trkpt><trkpt lat="44.8681483" lon="9.67631"><ele>322.20000000000005</ele><time>2026-05-01T13:50:53.996Z</time></trkpt><trkpt lat="44.8680783" lon="9.676225"><ele>322.79999999999995</ele><time>2026-05-01T13:50:54.996Z</time></trkpt><trkpt lat="44.8680117" lon="9.67615"><ele>323.4</ele><time>2026-05-01T13:50:55.996Z</time></trkpt><trkpt lat="44.8679383" lon="9.676085"><ele>324.0</ele><time>2026-05-01T13:50:56.997Z</time></trkpt><trkpt lat="44.8678567" lon="9.6760367"><ele>324.0</ele><time>2026-05-01T13:50:58Z</time></trkpt><trkpt lat="44.867775" lon="9.676005"><ele>324.0</ele><time>2026-05-01T13:50:58.996Z</time></trkpt><trkpt lat="44.8676967" lon="9.6759867"><ele>324.0</ele><time>2026-05-01T13:50:59.995Z</time></trkpt><trkpt lat="44.8676217" lon="9.6759817"><ele>324.0</ele><time>2026-05-01T13:51:00.994Z</time></trkpt><trkpt lat="44.86754" lon="9.6759833"><ele>324.0</ele><time>2026-05-01T13:51:01.996Z</time></trkpt><trkpt lat="44.8674483" lon="9.6759883"><ele>324.0</ele><time>2026-05-01T13:51:02.996Z</time></trkpt><trkpt lat="44.8673517" lon="9.675995"><ele>326.4</ele><time>2026-05-01T13:51:03.995Z</time></trkpt><trkpt lat="44.8672483" lon="9.6759967"><ele>328.79999999999995</ele><time>2026-05-01T13:51:04.995Z</time></trkpt><trkpt lat="44.8671467" lon="9.67599"><ele>331.20000000000005</ele><time>2026-05-01T13:51:05.995Z</time></trkpt><trkpt lat="44.86705" lon="9.6759833"><ele>333.6</ele><time>2026-05-01T13:51:06.995Z</time></trkpt><trkpt lat="44.8669533" lon="9.675975"><ele>336.0</ele><time>2026-05-01T13:51:07.995Z</time></trkpt><trkpt lat="44.8668567" lon="9.6759667"><ele>336.5</ele><time>2026-05-01T13:51:08.996Z</time></trkpt><trkpt lat="44.8667617" lon="9.6759567"><ele>337.0</ele><time>2026-05-01T13:51:09.995Z</time></trkpt><trkpt lat="44.86667" lon="9.67595"><ele>337.5</ele><time>2026-05-01T13:51:10.995Z</time></trkpt><trkpt lat="44.8665867" lon="9.675945"><ele>338.0</ele><time>2026-05-01T13:51:11.995Z</time></trkpt><trkpt lat="44.8665117" lon="9.6759433"><ele>338.5</ele><time>2026-05-01T13:51:12.995Z</time></trkpt><trkpt lat="44.8664417" lon="9.67594"><ele>339.0</ele><time>2026-05-01T13:51:13.996Z</time></trkpt><trkpt lat="44.8663683" lon="9.6759383"><ele>339.0</ele><time>2026-05-01T13:51:14.996Z</time></trkpt><trkpt lat="44.8662917" lon="9.675935"><ele>339.0</ele><time>2026-05-01T13:51:15.995Z</time></trkpt><trkpt lat="44.8662133" lon="9.6759317"><ele>339.0</ele><time>2026-05-01T13:51:16.996Z</time></trkpt><trkpt lat="44.8661317" lon="9.6759317"><ele>339.0</ele><time>2026-05-01T13:51:17.995Z</time></trkpt><trkpt lat="44.866045" lon="9.675925"><ele>339.0</ele><time>2026-05-01T13:51:18.996Z</time></trkpt><trkpt lat="44.8659533" lon="9.67591"><ele>339.0</ele><time>2026-05-01T13:51:19.995Z</time></trkpt><trkpt lat="44.8658617" lon="9.67589"><ele>340.0</ele><time>2026-05-01T13:51:20.998Z</time></trkpt><trkpt lat="44.8657683" lon="9.67586"><ele>341.0</ele><time>2026-05-01T13:51:21.997Z</time></trkpt><trkpt lat="44.865675" lon="9.67582"><ele>342.0</ele><time>2026-05-01T13:51:22.997Z</time></trkpt><trkpt lat="44.8655817" lon="9.6757733"><ele>343.0</ele><time>2026-05-01T13:51:23.998Z</time></trkpt><trkpt lat="44.8654883" lon="9.6757233"><ele>344.0</ele><time>2026-05-01T13:51:24.997Z</time></trkpt><trkpt lat="44.8653967" lon="9.6756667"><ele>344.0</ele><time>2026-05-01T13:51:25.997Z</time></trkpt><trkpt lat="44.8653033" lon="9.675605"><ele>344.0</ele><time>2026-05-01T13:51:26.997Z</time></trkpt><trkpt lat="44.86521" lon="9.6755417"><ele>344.0</ele><time>2026-05-01T13:51:27.997Z</time></trkpt><trkpt lat="44.8651167" lon="9.6754767"><ele>344.0</ele><time>2026-05-01T13:51:28.997Z</time></trkpt><trkpt lat="44.865025" lon="9.67541"><ele>344.0</ele><time>2026-05-01T13:51:29.996Z</time></trkpt><trkpt lat="44.8649333" lon="9.67534"><ele>344.79999999999995</ele><time>2026-05-01T13:51:30.996Z</time></trkpt><trkpt lat="44.8648433" lon="9.6752717"><ele>345.59999999999997</ele><time>2026-05-01T13:51:31.997Z</time></trkpt><trkpt lat="44.8647583" lon="9.6752033"><ele>346.4</ele><time>2026-05-01T13:51:32.996Z</time></trkpt><trkpt lat="44.864685" lon="9.6751383"><ele>347.2</ele><time>2026-05-01T13:51:33.995Z</time></trkpt><trkpt lat="44.8646133" lon="9.6750767"><ele>348.0</ele><time>2026-05-01T13:51:34.995Z</time></trkpt><trkpt lat="44.864535" lon="9.6750117"><ele>348.4</ele><time>2026-05-01T13:51:35.997Z</time></trkpt><trkpt lat="44.8644467" lon="9.6749433"><ele>348.79999999999995</ele><time>2026-05-01T13:51:36.995Z</time></trkpt><trkpt lat="44.8643583" lon="9.6748767"><ele>349.2</ele><time>2026-05-01T13:51:37.998Z</time></trkpt><trkpt lat="44.8642667" lon="9.6748117"><ele>349.6</ele><time>2026-05-01T13:51:38.995Z</time></trkpt><trkpt lat="44.8641717" lon="9.6747533"><ele>350.0</ele><time>2026-05-01T13:51:39.995Z</time></trkpt><trkpt lat="44.864075" lon="9.674695"><ele>351.4</ele><time>2026-05-01T13:51:40.996Z</time></trkpt><trkpt lat="44.8639817" lon="9.6746417"><ele>352.8</ele><time>2026-05-01T13:51:41.995Z</time></trkpt><trkpt lat="44.8638933" lon="9.6745967"><ele>354.20000000000005</ele><time>2026-05-01T13:51:42.996Z</time></trkpt><trkpt lat="44.863805" lon="9.6745533"><ele>355.6</ele><time>2026-05-01T13:51:43.997Z</time></trkpt><trkpt lat="44.86372" lon="9.674505"><ele>357.0</ele><time>2026-05-01T13:51:44.995Z</time></trkpt><trkpt lat="44.8636383" lon="9.67445"><ele>356.6</ele><time>2026-05-01T13:51:45.995Z</time></trkpt><trkpt lat="44.8635567" lon="9.6743867"><ele>356.20000000000005</ele><time>2026-05-01T13:51:46.997Z</time></trkpt><trkpt lat="44.8634717" lon="9.6743183"><ele>355.8</ele><time>2026-05-01T13:51:47.995Z</time></trkpt><trkpt lat="44.8633867" lon="9.67425"><ele>355.4</ele><time>2026-05-01T13:51:48.995Z</time></trkpt><trkpt lat="44.8633" lon="9.674175"><ele>355.0</ele><time>2026-05-01T13:51:49.995Z</time></trkpt><trkpt lat="44.86321" lon="9.6740933"><ele>355.0</ele><time>2026-05-01T13:51:50.996Z</time></trkpt><trkpt lat="44.86312" lon="9.6740133"><ele>355.0</ele><time>2026-05-01T13:51:51.996Z</time></trkpt><trkpt lat="44.8630217" lon="9.6739217"><ele>355.0</ele><time>2026-05-01T13:51:52.998Z</time></trkpt><trkpt lat="44.8629233" lon="9.673825"><ele>355.0</ele><time>2026-05-01T13:51:53.997Z</time></trkpt><trkpt lat="44.862825" lon="9.6737283"><ele>355.0</ele><time>2026-05-01T13:51:54.997Z</time></trkpt><trkpt lat="44.862725" lon="9.67363"><ele>355.0</ele><time>2026-05-01T13:51:55.997Z</time></trkpt><trkpt lat="44.862625" lon="9.6735433"><ele>355.0</ele><time>2026-05-01T13:51:56.998Z</time></trkpt><trkpt lat="44.8625167" lon="9.6734633"><ele>355.0</ele><time>2026-05-01T13:51:57.996Z</time></trkpt><trkpt lat="44.8624033" lon="9.6733883"><ele>356.25</ele><time>2026-05-01T13:51:58.999Z</time></trkpt><trkpt lat="44.86228" lon="9.6733117"><ele>357.5</ele><time>2026-05-01T13:51:59.999Z</time></trkpt><trkpt lat="44.8621583" lon="9.6732333"><ele>358.75</ele><time>2026-05-01T13:52:00.996Z</time></trkpt><trkpt lat="44.8620383" lon="9.67315"><ele>360.0</ele><time>2026-05-01T13:52:01.997Z</time></trkpt><trkpt lat="44.86192" lon="9.6730617"><ele>360.0</ele><time>2026-05-01T13:52:02.997Z</time></trkpt><trkpt lat="44.8618083" lon="9.6729783"><ele>360.0</ele><time>2026-05-01T13:52:03.995Z</time></trkpt><trkpt lat="44.861705" lon="9.6729067"><ele>360.0</ele><time>2026-05-01T13:52:04.996Z</time></trkpt><trkpt lat="44.861605" lon="9.67285"><ele>360.0</ele><time>2026-05-01T13:52:05.997Z</time></trkpt><trkpt lat="44.8615" lon="9.6728183"><ele>360.6</ele><time>2026-05-01T13:52:06.996Z</time></trkpt><trkpt lat="44.8613933" lon="9.6728"><ele>361.2</ele><time>2026-05-01T13:52:07.996Z</time></trkpt><trkpt lat="44.8612817" lon="9.6727983"><ele>361.79999999999995</ele><time>2026-05-01T13:52:08.996Z</time></trkpt><trkpt lat="44.86117" lon="9.672805"><ele>362.4</ele><time>2026-05-01T13:52:09.996Z</time></trkpt><trkpt lat="44.861055" lon="9.6728167"><ele>363.0</ele><time>2026-05-01T13:52:10.997Z</time></trkpt><trkpt lat="44.860945" lon="9.6728333"><ele>364.59999999999997</ele><time>2026-05-01T13:52:11.998Z</time></trkpt><trkpt lat="44.8608317" lon="9.67284"><ele>366.2</ele><time>2026-05-01T13:52:12.997Z</time></trkpt><trkpt lat="44.86072" lon="9.67285"><ele>367.8</ele><time>2026-05-01T13:52:13.997Z</time></trkpt><trkpt lat="44.8606217" lon="9.6728567"><ele>369.4</ele><time>2026-05-01T13:52:14.997Z</time></trkpt><trkpt lat="44.8605267" lon="9.672865"><ele>371.0</ele><time>2026-05-01T13:52:15.997Z</time></trkpt><trkpt lat="44.8604433" lon="9.672875"><ele>371.0</ele><time>2026-05-01T13:52:16.996Z</time></trkpt><trkpt lat="44.8603617" lon="9.6728917"><ele>371.0</ele><time>2026-05-01T13:52:17.996Z</time></trkpt><trkpt lat="44.8602867" lon="9.6729267"><ele>371.0</ele><time>2026-05-01T13:52:18.995Z</time></trkpt><trkpt lat="44.86021" lon="9.6729717"><ele>371.0</ele><time>2026-05-01T13:52:19.996Z</time></trkpt><trkpt lat="44.8601317" lon="9.6730333"><ele>371.0</ele><time>2026-05-01T13:52:20.996Z</time></trkpt><trkpt lat="44.86006" lon="9.6731033"><ele>371.0</ele><time>2026-05-01T13:52:21.998Z</time></trkpt><trkpt lat="44.8599967" lon="9.67318"><ele>373.0</ele><time>2026-05-01T13:52:22.996Z</time></trkpt><trkpt lat="44.85994" lon="9.673265"><ele>375.0</ele><time>2026-05-01T13:52:23.997Z</time></trkpt><trkpt lat="44.859895" lon="9.673345"><ele>377.0</ele><time>2026-05-01T13:52:24.997Z</time></trkpt><trkpt lat="44.85984" lon="9.6734583"><ele>379.0</ele><time>2026-05-01T13:52:26.998Z</time></trkpt><trkpt lat="44.8597367" lon="9.67345"><ele>381.0</ele><time>2026-05-01T13:52:35.996Z</time></trkpt><trkpt lat="44.8596433" lon="9.6733183"><ele>381.0</ele><time>2026-05-01T13:52:37.996Z</time></trkpt><trkpt lat="44.859585" lon="9.6732417"><ele>381.0</ele><time>2026-05-01T13:52:38.997Z</time></trkpt><trkpt lat="44.859515" lon="9.6731667"><ele>381.0</ele><time>2026-05-01T13:52:39.995Z</time></trkpt><trkpt lat="44.859435" lon="9.6730917"><ele>381.0</ele><time>2026-05-01T13:52:40.996Z</time></trkpt><trkpt lat="44.859345" lon="9.6730117"><ele>381.0</ele><time>2026-05-01T13:52:41.995Z</time></trkpt><trkpt lat="44.8592567" lon="9.6729267"><ele>381.25</ele><time>2026-05-01T13:52:42.996Z</time></trkpt><trkpt lat="44.85917" lon="9.6728383"><ele>381.5</ele><time>2026-05-01T13:52:43.996Z</time></trkpt><trkpt lat="44.8590817" lon="9.6727417"><ele>381.75</ele><time>2026-05-01T13:52:44.995Z</time></trkpt><trkpt lat="44.85899" lon="9.67264"><ele>382.0</ele><time>2026-05-01T13:52:45.996Z</time></trkpt><trkpt lat="44.8588967" lon="9.6725333"><ele>383.75</ele><time>2026-05-01T13:52:46.995Z</time></trkpt><trkpt lat="44.8588033" lon="9.67242"><ele>385.5</ele><time>2026-05-01T13:52:47.996Z</time></trkpt><trkpt lat="44.8587067" lon="9.6722967"><ele>387.25</ele><time>2026-05-01T13:52:48.997Z</time></trkpt><trkpt lat="44.8586117" lon="9.672175"><ele>389.0</ele><time>2026-05-01T13:52:49.996Z</time></trkpt><trkpt lat="44.8585233" lon="9.6720617"><ele>391.0</ele><time>2026-05-01T13:52:50.997Z</time></trkpt><trkpt lat="44.858445" lon="9.67195"><ele>393.0</ele><time>2026-05-01T13:52:51.998Z</time></trkpt><trkpt lat="44.8583733" lon="9.6718283"><ele>395.0</ele><time>2026-05-01T13:52:52.998Z</time></trkpt><trkpt lat="44.8583183" lon="9.671695"><ele>397.0</ele><time>2026-05-01T13:52:53.997Z</time></trkpt><trkpt lat="44.8582783" lon="9.67154"><ele>397.0</ele><time>2026-05-01T13:52:54.997Z</time></trkpt><trkpt lat="44.8582483" lon="9.6713583"><ele>397.0</ele><time>2026-05-01T13:52:55.997Z</time></trkpt><trkpt lat="44.8582283" lon="9.6711733"><ele>397.0</ele><time>2026-05-01T13:52:56.999Z</time></trkpt><trkpt lat="44.8582117" lon="9.6710033"><ele>397.0</ele><time>2026-05-01T13:52:57.996Z</time></trkpt><trkpt lat="44.8581867" lon="9.6708483"><ele>397.6</ele><time>2026-05-01T13:52:58.995Z</time></trkpt><trkpt lat="44.8581467" lon="9.6707067"><ele>398.20000000000005</ele><time>2026-05-01T13:52:59.996Z</time></trkpt><trkpt lat="44.8580817" lon="9.6705817"><ele>398.8</ele><time>2026-05-01T13:53:00.996Z</time></trkpt><trkpt lat="44.8580033" lon="9.6704683"><ele>399.4</ele><time>2026-05-01T13:53:01.996Z</time></trkpt><trkpt lat="44.8579183" lon="9.6703633"><ele>400.0</ele><time>2026-05-01T13:53:02.996Z</time></trkpt><trkpt lat="44.85783" lon="9.6702633"><ele>400.0</ele><time>2026-05-01T13:53:03.996Z</time></trkpt><trkpt lat="44.8577367" lon="9.6701633"><ele>400.0</ele><time>2026-05-01T13:53:04.995Z</time></trkpt><trkpt lat="44.8576383" lon="9.67006"><ele>400.0</ele><time>2026-05-01T13:53:05.995Z</time></trkpt><trkpt lat="44.8575333" lon="9.6699533"><ele>400.0</ele><time>2026-05-01T13:53:06.996Z</time></trkpt><trkpt lat="44.8574267" lon="9.6698467"><ele>399.75</ele><time>2026-05-01T13:53:07.995Z</time></trkpt><trkpt lat="44.857315" lon="9.6697383"><ele>399.5</ele><time>2026-05-01T13:53:08.997Z</time></trkpt><trkpt lat="44.857205" lon="9.6696367"><ele>399.25</ele><time>2026-05-01T13:53:09.995Z</time></trkpt><trkpt lat="44.8571033" lon="9.6695433"><ele>399.0</ele><time>2026-05-01T13:53:10.997Z</time></trkpt><trkpt lat="44.8570083" lon="9.6694533"><ele>399.3333333333333</ele><time>2026-05-01T13:53:11.995Z</time></trkpt><trkpt lat="44.8569233" lon="9.6693733"><ele>399.66666666666663</ele><time>2026-05-01T13:53:12.996Z</time></trkpt><trkpt lat="44.856845" lon="9.6692917"><ele>400.0</ele><time>2026-05-01T13:53:13.997Z</time></trkpt><trkpt lat="44.8567767" lon="9.66921"><ele>400.3333333333333</ele><time>2026-05-01T13:53:14.996Z</time></trkpt><trkpt lat="44.8567233" lon="9.6691233"><ele>400.66666666666663</ele><time>2026-05-01T13:53:15.995Z</time></trkpt><trkpt lat="44.8566833" lon="9.66903"><ele>401.0</ele><time>2026-05-01T13:53:16.996Z</time></trkpt><trkpt lat="44.8566583" lon="9.668915"><ele>401.0</ele><time>2026-05-01T13:53:17.997Z</time></trkpt><trkpt lat="44.8566367" lon="9.6687833"><ele>401.0</ele><time>2026-05-01T13:53:18.995Z</time></trkpt><trkpt lat="44.856615" lon="9.6686567"><ele>401.0</ele><time>2026-05-01T13:53:19.999Z</time></trkpt><trkpt lat="44.856585" lon="9.6685333"><ele>401.0</ele><time>2026-05-01T13:53:20.997Z</time></trkpt><trkpt lat="44.8565467" lon="9.6684217"><ele>401.0</ele><time>2026-05-01T13:53:21.997Z</time></trkpt><trkpt lat="44.85649" lon="9.66833"><ele>399.8</ele><time>2026-05-01T13:53:22.997Z</time></trkpt><trkpt lat="44.8564133" lon="9.6682617"><ele>398.6</ele><time>2026-05-01T13:53:23.999Z</time></trkpt><trkpt lat="44.8563167" lon="9.6682117"><ele>397.4</ele><time>2026-05-01T13:53:24.995Z</time></trkpt><trkpt lat="44.856205" lon="9.6681667"><ele>396.2</ele><time>2026-05-01T13:53:25.996Z</time></trkpt><trkpt lat="44.8560967" lon="9.668115"><ele>395.0</ele><time>2026-05-01T13:53:26.996Z</time></trkpt><trkpt lat="44.856" lon="9.6680517"><ele>394.4</ele><time>2026-05-01T13:53:27.997Z</time></trkpt><trkpt lat="44.8559117" lon="9.6679717"><ele>393.8</ele><time>2026-05-01T13:53:28.996Z</time></trkpt><trkpt lat="44.8558283" lon="9.6678783"><ele>393.20000000000005</ele><time>2026-05-01T13:53:29.996Z</time></trkpt><trkpt lat="44.8557533" lon="9.667785"><ele>392.6</ele><time>2026-05-01T13:53:30.995Z</time></trkpt><trkpt lat="44.8556817" lon="9.6676967"><ele>392.0</ele><time>2026-05-01T13:53:31.997Z</time></trkpt><trkpt lat="44.8556167" lon="9.6676183"><ele>391.99999999999994</ele><time>2026-05-01T13:53:32.996Z</time></trkpt><trkpt lat="44.8555567" lon="9.6675467"><ele>392.0</ele><time>2026-05-01T13:53:33.996Z</time></trkpt><trkpt lat="44.8555067" lon="9.6674833"><ele>392.0</ele><time>2026-05-01T13:53:34.995Z</time></trkpt><trkpt lat="44.8554467" lon="9.6674067"><ele>392.0</ele><time>2026-05-01T13:53:36.995Z</time></trkpt><trkpt lat="44.8553817" lon="9.6673933"><ele>391.99999999999994</ele><time>2026-05-01T13:54:37.997Z</time></trkpt><trkpt lat="44.8552883" lon="9.6674533"><ele>392.0</ele><time>2026-05-01T13:54:39.996Z</time></trkpt><trkpt lat="44.8551733" lon="9.66751"><ele>391.6</ele><time>2026-05-01T13:54:41.997Z</time></trkpt><trkpt lat="44.8551" lon="9.6675083"><ele>391.20000000000005</ele><time>2026-05-01T13:54:42.998Z</time></trkpt><trkpt lat="44.8550217" lon="9.667475"><ele>390.8</ele><time>2026-05-01T13:54:43.998Z</time></trkpt><trkpt lat="44.85493" lon="9.6674233"><ele>390.4</ele><time>2026-05-01T13:54:44.997Z</time></trkpt><trkpt lat="44.85483" lon="9.6673617"><ele>390.0</ele><time>2026-05-01T13:54:45.998Z</time></trkpt><trkpt lat="44.854725" lon="9.6673017"><ele>390.0</ele><time>2026-05-01T13:54:46.995Z</time></trkpt><trkpt lat="44.8546233" lon="9.66726"><ele>390.0</ele><time>2026-05-01T13:54:47.996Z</time></trkpt><trkpt lat="44.8545233" lon="9.6672383"><ele>390.0</ele><time>2026-05-01T13:54:48.996Z</time></trkpt><trkpt lat="44.8544183" lon="9.66723"><ele>390.0</ele><time>2026-05-01T13:54:49.997Z</time></trkpt><trkpt lat="44.8543083" lon="9.6672433"><ele>390.0</ele><time>2026-05-01T13:54:50.997Z</time></trkpt><trkpt lat="44.8542017" lon="9.66728"><ele>389.4</ele><time>2026-05-01T13:54:51.995Z</time></trkpt><trkpt lat="44.8541033" lon="9.6673383"><ele>388.8</ele><time>2026-05-01T13:54:52.996Z</time></trkpt><trkpt lat="44.8540133" lon="9.6674067"><ele>388.20000000000005</ele><time>2026-05-01T13:54:53.996Z</time></trkpt><trkpt lat="44.85392" lon="9.667475"><ele>387.6</ele><time>2026-05-01T13:54:54.998Z</time></trkpt><trkpt lat="44.8538167" lon="9.66753"><ele>387.0</ele><time>2026-05-01T13:54:55.997Z</time></trkpt><trkpt lat="44.85371" lon="9.6675633"><ele>387.0</ele><time>2026-05-01T13:54:56.999Z</time></trkpt><trkpt lat="44.8536067" lon="9.66758"><ele>387.0</ele><time>2026-05-01T13:54:57.996Z</time></trkpt><trkpt lat="44.8535" lon="9.6675717"><ele>387.0</ele><time>2026-05-01T13:54:58.995Z</time></trkpt><trkpt lat="44.8533817" lon="9.667545"><ele>387.0</ele><time>2026-05-01T13:54:59.995Z</time></trkpt><trkpt lat="44.8532567" lon="9.667505"><ele>386.0</ele><time>2026-05-01T13:55:00.995Z</time></trkpt><trkpt lat="44.853135" lon="9.6674633"><ele>385.0</ele><time>2026-05-01T13:55:01.995Z</time></trkpt><trkpt lat="44.85302" lon="9.66742"><ele>384.0</ele><time>2026-05-01T13:55:02.997Z</time></trkpt><trkpt lat="44.8529067" lon="9.6673733"><ele>383.0</ele><time>2026-05-01T13:55:03.996Z</time></trkpt><trkpt lat="44.8528017" lon="9.6673317"><ele>383.0</ele><time>2026-05-01T13:55:04.997Z</time></trkpt><trkpt lat="44.8527067" lon="9.6672883"><ele>383.0</ele><time>2026-05-01T13:55:05.996Z</time></trkpt><trkpt lat="44.85263" lon="9.6672517"><ele>383.0</ele><time>2026-05-01T13:55:06.996Z</time></trkpt><trkpt lat="44.8525683" lon="9.6672317"><ele>383.0</ele><time>2026-05-01T13:55:07.995Z</time></trkpt><trkpt lat="44.8524683" lon="9.6672717"><ele>383.0</ele><time>2026-05-01T13:55:09.996Z</time></trkpt><trkpt lat="44.8524167" lon="9.6674467"><ele>381.75</ele><time>2026-05-01T13:55:11.995Z</time></trkpt><trkpt lat="44.8524383" lon="9.66759"><ele>380.5</ele><time>2026-05-01T13:55:12.996Z</time></trkpt><trkpt lat="44.852475" lon="9.667745"><ele>379.25</ele><time>2026-05-01T13:55:13.997Z</time></trkpt><trkpt lat="44.8525283" lon="9.66791"><ele>378.0</ele><time>2026-05-01T13:55:14.996Z</time></trkpt><trkpt lat="44.8525867" lon="9.6680867"><ele>375.5</ele><time>2026-05-01T13:55:15.996Z</time></trkpt><trkpt lat="44.8526433" lon="9.6682617"><ele>373.0</ele><time>2026-05-01T13:55:16.995Z</time></trkpt><trkpt lat="44.8526933" lon="9.66843"><ele>370.5</ele><time>2026-05-01T13:55:17.995Z</time></trkpt><trkpt lat="44.8527433" lon="9.6685867"><ele>368.0</ele><time>2026-05-01T13:55:18.997Z</time></trkpt><trkpt lat="44.8527867" lon="9.6687417"><ele>367.2</ele><time>2026-05-01T13:55:19.996Z</time></trkpt><trkpt lat="44.8528167" lon="9.6688833"><ele>366.4</ele><time>2026-05-01T13:55:20.995Z</time></trkpt><trkpt lat="44.85283" lon="9.6690217"><ele>365.59999999999997</ele><time>2026-05-01T13:55:21.998Z</time></trkpt><trkpt lat="44.8528333" lon="9.6691633"><ele>364.79999999999995</ele><time>2026-05-01T13:55:22.996Z</time></trkpt><trkpt lat="44.85284" lon="9.6693217"><ele>364.0</ele><time>2026-05-01T13:55:23.998Z</time></trkpt><trkpt lat="44.8528617" lon="9.6694817"><ele>364.0</ele><time>2026-05-01T13:55:24.995Z</time></trkpt><trkpt lat="44.8529" lon="9.66965"><ele>364.0</ele><time>2026-05-01T13:55:25.995Z</time></trkpt><trkpt lat="44.852955" lon="9.669815"><ele>364.0</ele><time>2026-05-01T13:55:26.996Z</time></trkpt><trkpt lat="44.8530183" lon="9.6699733"><ele>364.0</ele><time>2026-05-01T13:55:27.995Z</time></trkpt><trkpt lat="44.8530817" lon="9.6701267"><ele>364.0</ele><time>2026-05-01T13:55:28.997Z</time></trkpt><trkpt lat="44.8531467" lon="9.6702683"><ele>364.0</ele><time>2026-05-01T13:55:29.995Z</time></trkpt><trkpt lat="44.85321" lon="9.6704117"><ele>364.0</ele><time>2026-05-01T13:55:30.995Z</time></trkpt><trkpt lat="44.853265" lon="9.6705517"><ele>364.0</ele><time>2026-05-01T13:55:31.996Z</time></trkpt><trkpt lat="44.8533183" lon="9.6706883"><ele>364.75</ele><time>2026-05-01T13:55:32.995Z</time></trkpt><trkpt lat="44.8533717" lon="9.6708283"><ele>365.5</ele><time>2026-05-01T13:55:33.995Z</time></trkpt><trkpt lat="44.8534267" lon="9.6709733"><ele>366.25</ele><time>2026-05-01T13:55:34.995Z</time></trkpt><trkpt lat="44.8534717" lon="9.6711167"><ele>367.0</ele><time>2026-05-01T13:55:35.996Z</time></trkpt><trkpt lat="44.85351" lon="9.6712617"><ele>361.25</ele><time>2026-05-01T13:55:36.995Z</time></trkpt><trkpt lat="44.8535367" lon="9.6714133"><ele>355.5</ele><time>2026-05-01T13:55:37.996Z</time></trkpt><trkpt lat="44.8535517" lon="9.6715717"><ele>349.75</ele><time>2026-05-01T13:55:38.996Z</time></trkpt><trkpt lat="44.8535617" lon="9.6717317"><ele>344.0</ele><time>2026-05-01T13:55:39.995Z</time></trkpt><trkpt lat="44.85357" lon="9.6718917"><ele>341.75</ele><time>2026-05-01T13:55:40.995Z</time></trkpt><trkpt lat="44.8535817" lon="9.6720567"><ele>339.5</ele><time>2026-05-01T13:55:41.996Z</time></trkpt><trkpt lat="44.8536117" lon="9.6722133"><ele>337.25</ele><time>2026-05-01T13:55:42.995Z</time></trkpt><trkpt lat="44.8536567" lon="9.6723633"><ele>335.0</ele><time>2026-05-01T13:55:43.998Z</time></trkpt><trkpt lat="44.853705" lon="9.67251"><ele>335.0</ele><time>2026-05-01T13:55:44.996Z</time></trkpt><trkpt lat="44.8537517" lon="9.6726467"><ele>335.0</ele><time>2026-05-01T13:55:45.999Z</time></trkpt><trkpt lat="44.85378" lon="9.67277"><ele>335.0</ele><time>2026-05-01T13:55:46.996Z</time></trkpt><trkpt lat="44.85379" lon="9.6728817"><ele>335.0</ele><time>2026-05-01T13:55:47.995Z</time></trkpt><trkpt lat="44.8537833" lon="9.67298"><ele>335.0</ele><time>2026-05-01T13:55:48.995Z</time></trkpt><trkpt lat="44.853755" lon="9.6730717"><ele>335.0</ele><time>2026-05-01T13:55:49.995Z</time></trkpt><trkpt lat="44.85371" lon="9.6731367"><ele>335.25</ele><time>2026-05-01T13:55:50.996Z</time></trkpt><trkpt lat="44.85364" lon="9.6731833"><ele>335.5</ele><time>2026-05-01T13:55:51.996Z</time></trkpt><trkpt lat="44.8535283" lon="9.67323"><ele>335.75</ele><time>2026-05-01T13:55:52.996Z</time></trkpt><trkpt lat="44.853415" lon="9.6732967"><ele>336.0</ele><time>2026-05-01T13:55:53.995Z</time></trkpt><trkpt lat="44.8532983" lon="9.6733867"><ele>336.6</ele><time>2026-05-01T13:55:54.996Z</time></trkpt><trkpt lat="44.8531883" lon="9.673475"><ele>337.20000000000005</ele><time>2026-05-01T13:55:55.996Z</time></trkpt><trkpt lat="44.8530817" lon="9.6735467"><ele>337.79999999999995</ele><time>2026-05-01T13:55:56.995Z</time></trkpt><trkpt lat="44.852995" lon="9.6736217"><ele>338.4</ele><time>2026-05-01T13:55:57.996Z</time></trkpt><trkpt lat="44.8529267" lon="9.673725"><ele>339.0</ele><time>2026-05-01T13:55:58.996Z</time></trkpt><trkpt lat="44.8528733" lon="9.67386"><ele>336.5</ele><time>2026-05-01T13:55:59.996Z</time></trkpt><trkpt lat="44.8528383" lon="9.6740183"><ele>334.0</ele><time>2026-05-01T13:56:00.997Z</time></trkpt><trkpt lat="44.85282" lon="9.6741817"><ele>331.5</ele><time>2026-05-01T13:56:01.996Z</time></trkpt><trkpt lat="44.852825" lon="9.6743467"><ele>329.0</ele><time>2026-05-01T13:56:02.997Z</time></trkpt><trkpt lat="44.8528467" lon="9.6745083"><ele>327.79999999999995</ele><time>2026-05-01T13:56:03.997Z</time></trkpt><trkpt lat="44.85287" lon="9.67466"><ele>326.59999999999997</ele><time>2026-05-01T13:56:04.996Z</time></trkpt><trkpt lat="44.85288" lon="9.674815"><ele>325.4</ele><time>2026-05-01T13:56:05.995Z</time></trkpt><trkpt lat="44.85286" lon="9.6749667"><ele>324.2</ele><time>2026-05-01T13:56:06.995Z</time></trkpt><trkpt lat="44.8528133" lon="9.6751067"><ele>323.0</ele><time>2026-05-01T13:56:07.997Z</time></trkpt><trkpt lat="44.852755" lon="9.6752333"><ele>322.4</ele><time>2026-05-01T13:56:08.996Z</time></trkpt><trkpt lat="44.8527" lon="9.6753433"><ele>321.79999999999995</ele><time>2026-05-01T13:56:10.082Z</time></trkpt><trkpt lat="44.85265" lon="9.675455"><ele>321.2</ele><time>2026-05-01T13:56:10.995Z</time></trkpt><trkpt lat="44.8526033" lon="9.67557"><ele>320.6</ele><time>2026-05-01T13:56:11.996Z</time></trkpt><trkpt lat="44.8525583" lon="9.6756967"><ele>320.0</ele><time>2026-05-01T13:56:12.996Z</time></trkpt><trkpt lat="44.8525117" lon="9.67583"><ele>320.0</ele><time>2026-05-01T13:56:13.996Z</time></trkpt><trkpt lat="44.8524733" lon="9.675975"><ele>320.0</ele><time>2026-05-01T13:56:14.997Z</time></trkpt><trkpt lat="44.8524383" lon="9.676125"><ele>320.0</ele><time>2026-05-01T13:56:15.997Z</time></trkpt><trkpt lat="44.8524033" lon="9.6762633"><ele>320.0</ele><time>2026-05-01T13:56:16.995Z</time></trkpt><trkpt lat="44.852365" lon="9.6763817"><ele>320.0</ele><time>2026-05-01T13:56:17.997Z</time></trkpt><trkpt lat="44.8523133" lon="9.676485"><ele>317.5</ele><time>2026-05-01T13:56:18.995Z</time></trkpt><trkpt lat="44.8522383" lon="9.67656"><ele>315.0</ele><time>2026-05-01T13:56:19.995Z</time></trkpt><trkpt lat="44.8521367" lon="9.6766233"><ele>312.5</ele><time>2026-05-01T13:56:20.996Z</time></trkpt><trkpt lat="44.8520167" lon="9.6766867"><ele>310.0</ele><time>2026-05-01T13:56:21.996Z</time></trkpt><trkpt lat="44.8518933" lon="9.6767567"><ele>307.5</ele><time>2026-05-01T13:56:22.996Z</time></trkpt><trkpt lat="44.8517683" lon="9.6768233"><ele>305.0</ele><time>2026-05-01T13:56:23.995Z</time></trkpt><trkpt lat="44.8516367" lon="9.676865"><ele>302.5</ele><time>2026-05-01T13:56:24.996Z</time></trkpt><trkpt lat="44.8514983" lon="9.6768683"><ele>300.0</ele><time>2026-05-01T13:56:26.08Z</time></trkpt><trkpt lat="44.8513533" lon="9.6768517"><ele>300.0</ele><time>2026-05-01T13:56:26.996Z</time></trkpt><trkpt lat="44.8512117" lon="9.6768317"><ele>300.0</ele><time>2026-05-01T13:56:27.996Z</time></trkpt><trkpt lat="44.8510717" lon="9.67683"><ele>300.0</ele><time>2026-05-01T13:56:28.996Z</time></trkpt><trkpt lat="44.85094" lon="9.676835"><ele>300.0</ele><time>2026-05-01T13:56:29.996Z</time></trkpt><trkpt lat="44.85083" lon="9.6768333"><ele>298.6</ele><time>2026-05-01T13:56:30.995Z</time></trkpt><trkpt lat="44.85074" lon="9.6768467"><ele>297.2</ele><time>2026-05-01T13:56:31.996Z</time></trkpt><trkpt lat="44.8506617" lon="9.676885"><ele>295.8</ele><time>2026-05-01T13:56:32.997Z</time></trkpt><trkpt lat="44.8506017" lon="9.6769833"><ele>294.4</ele><time>2026-05-01T13:56:33.996Z</time></trkpt><trkpt lat="44.8505417" lon="9.677115"><ele>293.0</ele><time>2026-05-01T13:56:34.995Z</time></trkpt><trkpt lat="44.8504817" lon="9.6772633"><ele>291.0</ele><time>2026-05-01T13:56:35.996Z</time></trkpt><trkpt lat="44.8504217" lon="9.6774217"><ele>289.0</ele><time>2026-05-01T13:56:36.996Z</time></trkpt><trkpt lat="44.8503717" lon="9.6775833"><ele>287.0</ele><time>2026-05-01T13:56:37.996Z</time></trkpt><trkpt lat="44.8503383" lon="9.67774"><ele>285.0</ele><time>2026-05-01T13:56:38.996Z</time></trkpt><trkpt lat="44.8503233" lon="9.6778917"><ele>284.8</ele><time>2026-05-01T13:56:39.995Z</time></trkpt><trkpt lat="44.8503233" lon="9.6780517"><ele>284.6</ele><time>2026-05-01T13:56:40.996Z</time></trkpt><trkpt lat="44.8503283" lon="9.6781967"><ele>284.4</ele><time>2026-05-01T13:56:41.996Z</time></trkpt><trkpt lat="44.8503283" lon="9.67834"><ele>284.2</ele><time>2026-05-01T13:56:42.996Z</time></trkpt><trkpt lat="44.8503117" lon="9.6784783"><ele>284.0</ele><time>2026-05-01T13:56:43.995Z</time></trkpt><trkpt lat="44.85028" lon="9.6785967"><ele>284.0</ele><time>2026-05-01T13:56:44.996Z</time></trkpt><trkpt lat="44.8502317" lon="9.6787017"><ele>284.0</ele><time>2026-05-01T13:56:45.997Z</time></trkpt><trkpt lat="44.8501733" lon="9.6787883"><ele>284.0</ele><time>2026-05-01T13:56:46.997Z</time></trkpt><trkpt lat="44.8500883" lon="9.67886"><ele>284.0</ele><time>2026-05-01T13:56:47.996Z</time></trkpt><trkpt lat="44.8499917" lon="9.6789067"><ele>284.0</ele><time>2026-05-01T13:56:48.996Z</time></trkpt><trkpt lat="44.8499133" lon="9.678955"><ele>285.5</ele><time>2026-05-01T13:56:49.996Z</time></trkpt><trkpt lat="44.8498517" lon="9.6790133"><ele>287.0</ele><time>2026-05-01T13:56:50.997Z</time></trkpt><trkpt lat="44.8498133" lon="9.6790967"><ele>288.5</ele><time>2026-05-01T13:56:51.995Z</time></trkpt><trkpt lat="44.849795" lon="9.67919"><ele>290.0</ele><time>2026-05-01T13:56:52.995Z</time></trkpt><trkpt lat="44.8497917" lon="9.6792983"><ele>291.5</ele><time>2026-05-01T13:56:53.996Z</time></trkpt><trkpt lat="44.8497983" lon="9.6794367"><ele>293.0</ele><time>2026-05-01T13:56:54.997Z</time></trkpt><trkpt lat="44.849815" lon="9.67962"><ele>294.4</ele><time>2026-05-01T13:56:55.997Z</time></trkpt><trkpt lat="44.8498367" lon="9.6798067"><ele>295.8</ele><time>2026-05-01T13:56:56.996Z</time></trkpt><trkpt lat="44.849855" lon="9.6799733"><ele>297.2</ele><time>2026-05-01T13:56:57.995Z</time></trkpt><trkpt lat="44.8498733" lon="9.6801033"><ele>298.6</ele><time>2026-05-01T13:56:58.997Z</time></trkpt><trkpt lat="44.8498933" lon="9.680225"><ele>300.0</ele><time>2026-05-01T13:56:59.996Z</time></trkpt><trkpt lat="44.8499133" lon="9.680335"><ele>300.6666666666667</ele><time>2026-05-01T13:57:00.996Z</time></trkpt><trkpt lat="44.84993" lon="9.6804367"><ele>301.3333333333333</ele><time>2026-05-01T13:57:01.996Z</time></trkpt><trkpt lat="44.849935" lon="9.68053"><ele>302.0</ele><time>2026-05-01T13:57:02.996Z</time></trkpt><trkpt lat="44.8499233" lon="9.680625"><ele>302.66666666666663</ele><time>2026-05-01T13:57:03.998Z</time></trkpt><trkpt lat="44.8498967" lon="9.6807217"><ele>303.3333333333333</ele><time>2026-05-01T13:57:04.998Z</time></trkpt><trkpt lat="44.84984" lon="9.6808083"><ele>304.0</ele><time>2026-05-01T13:57:05.997Z</time></trkpt><trkpt lat="44.849765" lon="9.6808683"><ele>304.0</ele><time>2026-05-01T13:57:06.998Z</time></trkpt><trkpt lat="44.8496833" lon="9.680905"><ele>304.0</ele><time>2026-05-01T13:57:08Z</time></trkpt><trkpt lat="44.849595" lon="9.6809133"><ele>304.0</ele><time>2026-05-01T13:57:08.997Z</time></trkpt><trkpt lat="44.849505" lon="9.6809"><ele>304.0</ele><time>2026-05-01T13:57:09.997Z</time></trkpt><trkpt lat="44.8494117" lon="9.6808417"><ele>304.0</ele><time>2026-05-01T13:57:10.998Z</time></trkpt><trkpt lat="44.8493033" lon="9.680765"><ele>307.5</ele><time>2026-05-01T13:57:11.997Z</time></trkpt><trkpt lat="44.8492017" lon="9.680685"><ele>311.0</ele><time>2026-05-01T13:57:13Z</time></trkpt><trkpt lat="44.8491033" lon="9.6806033"><ele>314.5</ele><time>2026-05-01T13:57:13.997Z</time></trkpt><trkpt lat="44.8489967" lon="9.6805283"><ele>318.0</ele><time>2026-05-01T13:57:14.998Z</time></trkpt><trkpt lat="44.84889" lon="9.6804583"><ele>318.0</ele><time>2026-05-01T13:57:15.995Z</time></trkpt><trkpt lat="44.8487767" lon="9.6803967"><ele>318.0</ele><time>2026-05-01T13:57:16.997Z</time></trkpt><trkpt lat="44.8486733" lon="9.6803267"><ele>318.0</ele><time>2026-05-01T13:57:17.996Z</time></trkpt><trkpt lat="44.848585" lon="9.680255"><ele>318.0</ele><time>2026-05-01T13:57:18.996Z</time></trkpt><trkpt lat="44.8485117" lon="9.6802133"><ele>318.0</ele><time>2026-05-01T13:57:19.996Z</time></trkpt><trkpt lat="44.8484417" lon="9.6802083"><ele>319.0</ele><time>2026-05-01T13:57:20.997Z</time></trkpt><trkpt lat="44.8483733" lon="9.6802383"><ele>320.0</ele><time>2026-05-01T13:57:21.996Z</time></trkpt><trkpt lat="44.8483117" lon="9.6802983"><ele>321.0</ele><time>2026-05-01T13:57:22.996Z</time></trkpt><trkpt lat="44.8482567" lon="9.6803983"><ele>322.0</ele><time>2026-05-01T13:57:23.997Z</time></trkpt><trkpt lat="44.8482167" lon="9.6805267"><ele>323.0</ele><time>2026-05-01T13:57:24.996Z</time></trkpt><trkpt lat="44.8481883" lon="9.6806683"><ele>324.0</ele><time>2026-05-01T13:57:25.997Z</time></trkpt><trkpt lat="44.84816" lon="9.68082"><ele>325.2</ele><time>2026-05-01T13:57:26.997Z</time></trkpt><trkpt lat="44.8481267" lon="9.6809633"><ele>326.4</ele><time>2026-05-01T13:57:27.996Z</time></trkpt><trkpt lat="44.848075" lon="9.6811017"><ele>327.6</ele><time>2026-05-01T13:57:28.997Z</time></trkpt><trkpt lat="44.8480267" lon="9.6812433"><ele>328.8</ele><time>2026-05-01T13:57:29.997Z</time></trkpt><trkpt lat="44.8479867" lon="9.6813817"><ele>330.0</ele><time>2026-05-01T13:57:30.996Z</time></trkpt><trkpt lat="44.8479617" lon="9.6815017"><ele>330.8</ele><time>2026-05-01T13:57:31.996Z</time></trkpt><trkpt lat="44.8479517" lon="9.6816133"><ele>331.6</ele><time>2026-05-01T13:57:32.999Z</time></trkpt><trkpt lat="44.84796" lon="9.6817217"><ele>332.4</ele><time>2026-05-01T13:57:33.996Z</time></trkpt><trkpt lat="44.848025" lon="9.6818683"><ele>333.2</ele><time>2026-05-01T13:57:34.997Z</time></trkpt><trkpt lat="44.8480883" lon="9.6820083"><ele>334.0</ele><time>2026-05-01T13:57:35.995Z</time></trkpt><trkpt lat="44.848165" lon="9.6821567"><ele>337.75</ele><time>2026-05-01T13:57:36.995Z</time></trkpt><trkpt lat="44.8482467" lon="9.6823067"><ele>341.5</ele><time>2026-05-01T13:57:37.995Z</time></trkpt><trkpt lat="44.84832" lon="9.6824533"><ele>345.25</ele><time>2026-05-01T13:57:38.995Z</time></trkpt><trkpt lat="44.8483767" lon="9.6825933"><ele>349.0</ele><time>2026-05-01T13:57:39.996Z</time></trkpt><trkpt lat="44.8484117" lon="9.6827433"><ele>348.0</ele><time>2026-05-01T13:57:40.997Z</time></trkpt><trkpt lat="44.8484317" lon="9.6829083"><ele>347.0</ele><time>2026-05-01T13:57:41.996Z</time></trkpt><trkpt lat="44.848455" lon="9.68309"><ele>346.0</ele><time>2026-05-01T13:57:42.996Z</time></trkpt><trkpt lat="44.84848" lon="9.6832867"><ele>345.0</ele><time>2026-05-01T13:57:43.995Z</time></trkpt><trkpt lat="44.848505" lon="9.6834867"><ele>347.0</ele><time>2026-05-01T13:57:44.996Z</time></trkpt><trkpt lat="44.848525" lon="9.6836767"><ele>349.0</ele><time>2026-05-01T13:57:45.997Z</time></trkpt><trkpt lat="44.8485417" lon="9.683835"><ele>351.0</ele><time>2026-05-01T13:57:46.996Z</time></trkpt><trkpt lat="44.8485467" lon="9.6839717"><ele>353.0</ele><time>2026-05-01T13:57:47.996Z</time></trkpt><trkpt lat="44.84854" lon="9.6841133"><ele>355.0</ele><time>2026-05-01T13:57:48.996Z</time></trkpt><trkpt lat="44.848525" lon="9.6842667"><ele>357.25</ele><time>2026-05-01T13:57:49.997Z</time></trkpt><trkpt lat="44.8485067" lon="9.6844367"><ele>359.5</ele><time>2026-05-01T13:57:50.996Z</time></trkpt><trkpt lat="44.8484933" lon="9.68461"><ele>361.75</ele><time>2026-05-01T13:57:51.996Z</time></trkpt><trkpt lat="44.84849" lon="9.6847767"><ele>364.0</ele><time>2026-05-01T13:57:52.997Z</time></trkpt><trkpt lat="44.8485" lon="9.6849317"><ele>364.0</ele><time>2026-05-01T13:57:54.076Z</time></trkpt><trkpt lat="44.8485217" lon="9.685085"><ele>364.0</ele><time>2026-05-01T13:57:54.996Z</time></trkpt><trkpt lat="44.84856" lon="9.6852417"><ele>364.0</ele><time>2026-05-01T13:57:55.996Z</time></trkpt><trkpt lat="44.8486167" lon="9.6854033"><ele>364.0</ele><time>2026-05-01T13:57:56.996Z</time></trkpt><trkpt lat="44.8486883" lon="9.68557"><ele>366.5</ele><time>2026-05-01T13:57:57.996Z</time></trkpt><trkpt lat="44.8487583" lon="9.685735"><ele>369.0</ele><time>2026-05-01T13:57:58.996Z</time></trkpt><trkpt lat="44.8488167" lon="9.685895"><ele>371.5</ele><time>2026-05-01T13:57:59.996Z</time></trkpt><trkpt lat="44.8488633" lon="9.6860467"><ele>374.0</ele><time>2026-05-01T13:58:00.997Z</time></trkpt><trkpt lat="44.8489" lon="9.686195"><ele>375.25</ele><time>2026-05-01T13:58:01.996Z</time></trkpt><trkpt lat="44.84893" lon="9.6863533"><ele>376.5</ele><time>2026-05-01T13:58:02.996Z</time></trkpt><trkpt lat="44.848955" lon="9.686525"><ele>377.75</ele><time>2026-05-01T13:58:03.996Z</time></trkpt><trkpt lat="44.8489767" lon="9.6867133"><ele>379.0</ele><time>2026-05-01T13:58:04.996Z</time></trkpt><trkpt lat="44.8489983" lon="9.68691"><ele>379.5</ele><time>2026-05-01T13:58:05.996Z</time></trkpt><trkpt lat="44.8490167" lon="9.6870983"><ele>380.0</ele><time>2026-05-01T13:58:06.996Z</time></trkpt><trkpt lat="44.84903" lon="9.687275"><ele>380.5</ele><time>2026-05-01T13:58:07.995Z</time></trkpt><trkpt lat="44.84904" lon="9.687445"><ele>381.0</ele><time>2026-05-01T13:58:09Z</time></trkpt><trkpt lat="44.84905" lon="9.68761"><ele>380.6</ele><time>2026-05-01T13:58:09.997Z</time></trkpt><trkpt lat="44.84906" lon="9.6877633"><ele>380.20000000000005</ele><time>2026-05-01T13:58:10.996Z</time></trkpt><trkpt lat="44.84907" lon="9.687895"><ele>379.79999999999995</ele><time>2026-05-01T13:58:11.997Z</time></trkpt><trkpt lat="44.8490767" lon="9.6879983"><ele>379.4</ele><time>2026-05-01T13:58:12.996Z</time></trkpt><trkpt lat="44.849075" lon="9.6881233"><ele>379.0</ele><time>2026-05-01T13:58:14.997Z</time></trkpt><trkpt lat="44.8489833" lon="9.68809"><ele>379.0</ele><time>2026-05-01T13:58:17.996Z</time></trkpt><trkpt lat="44.8489" lon="9.6879467"><ele>379.0</ele><time>2026-05-01T13:58:19.997Z</time></trkpt><trkpt lat="44.84885" lon="9.68786"><ele>379.0</ele><time>2026-05-01T13:58:20.999Z</time></trkpt><trkpt lat="44.84879" lon="9.68777"><ele>379.0</ele><time>2026-05-01T13:58:21.998Z</time></trkpt><trkpt lat="44.84873" lon="9.6876717"><ele>379.0</ele><time>2026-05-01T13:58:22.999Z</time></trkpt><trkpt lat="44.8486667" lon="9.6875717"><ele>379.4</ele><time>2026-05-01T13:58:23.998Z</time></trkpt><trkpt lat="44.8486083" lon="9.6874667"><ele>379.79999999999995</ele><time>2026-05-01T13:58:24.996Z</time></trkpt><trkpt lat="44.8485583" lon="9.6873583"><ele>380.20000000000005</ele><time>2026-05-01T13:58:25.997Z</time></trkpt><trkpt lat="44.84851" lon="9.6872417"><ele>380.6</ele><time>2026-05-01T13:58:26.997Z</time></trkpt><trkpt lat="44.8484667" lon="9.6871183"><ele>381.0</ele><time>2026-05-01T13:58:27.996Z</time></trkpt><trkpt lat="44.8484233" lon="9.6869867"><ele>383.20000000000005</ele><time>2026-05-01T13:58:28.996Z</time></trkpt><trkpt lat="44.8483767" lon="9.686855"><ele>385.40000000000003</ele><time>2026-05-01T13:58:30.002Z</time></trkpt><trkpt lat="44.8483217" lon="9.68673"><ele>387.6</ele><time>2026-05-01T13:58:30.997Z</time></trkpt><trkpt lat="44.8482583" lon="9.686605"><ele>389.8</ele><time>2026-05-01T13:58:31.998Z</time></trkpt><trkpt lat="44.8481883" lon="9.6864783"><ele>392.0</ele><time>2026-05-01T13:58:32.996Z</time></trkpt><trkpt lat="44.848115" lon="9.6863433"><ele>392.0</ele><time>2026-05-01T13:58:33.997Z</time></trkpt><trkpt lat="44.8480367" lon="9.68621"><ele>392.0</ele><time>2026-05-01T13:58:34.997Z</time></trkpt><trkpt lat="44.84795" lon="9.68608"><ele>392.0</ele><time>2026-05-01T13:58:35.996Z</time></trkpt><trkpt lat="44.847855" lon="9.6859467"><ele>392.0</ele><time>2026-05-01T13:58:36.996Z</time></trkpt><trkpt lat="44.84775" lon="9.6858083"><ele>391.75</ele><time>2026-05-01T13:58:37.996Z</time></trkpt><trkpt lat="44.84764" lon="9.6856683"><ele>391.5</ele><time>2026-05-01T13:58:38.997Z</time></trkpt><trkpt lat="44.8475283" lon="9.6855317"><ele>391.25</ele><time>2026-05-01T13:58:39.996Z</time></trkpt><trkpt lat="44.8474183" lon="9.6854"><ele>391.0</ele><time>2026-05-01T13:58:40.996Z</time></trkpt><trkpt lat="44.8473067" lon="9.68527"><ele>391.25</ele><time>2026-05-01T13:58:41.997Z</time></trkpt><trkpt lat="44.8471983" lon="9.6851367"><ele>391.5</ele><time>2026-05-01T13:58:42.997Z</time></trkpt><trkpt lat="44.847095" lon="9.6849983"><ele>391.75</ele><time>2026-05-01T13:58:43.996Z</time></trkpt><trkpt lat="44.847" lon="9.6848617"><ele>392.0</ele><time>2026-05-01T13:58:44.997Z</time></trkpt><trkpt lat="44.8469167" lon="9.68473"><ele>392.0</ele><time>2026-05-01T13:58:45.996Z</time></trkpt><trkpt lat="44.8468417" lon="9.68461"><ele>392.0</ele><time>2026-05-01T13:58:46.996Z</time></trkpt><trkpt lat="44.846765" lon="9.6845033"><ele>392.0</ele><time>2026-05-01T13:58:47.997Z</time></trkpt><trkpt lat="44.8466833" lon="9.684415"><ele>392.0</ele><time>2026-05-01T13:58:48.997Z</time></trkpt><trkpt lat="44.846595" lon="9.6843417"><ele>392.0</ele><time>2026-05-01T13:58:49.997Z</time></trkpt><trkpt lat="44.846505" lon="9.6842883"><ele>393.0</ele><time>2026-05-01T13:58:50.999Z</time></trkpt><trkpt lat="44.8464067" lon="9.6842517"><ele>394.0</ele><time>2026-05-01T13:58:51.997Z</time></trkpt><trkpt lat="44.846295" lon="9.6842433"><ele>395.0</ele><time>2026-05-01T13:58:52.998Z</time></trkpt><trkpt lat="44.8461817" lon="9.68424"><ele>396.0</ele><time>2026-05-01T13:58:53.998Z</time></trkpt><trkpt lat="44.8460583" lon="9.6842417"><ele>398.0</ele><time>2026-05-01T13:58:54.996Z</time></trkpt><trkpt lat="44.845935" lon="9.684225"><ele>400.0</ele><time>2026-05-01T13:58:55.996Z</time></trkpt><trkpt lat="44.84581" lon="9.6841867"><ele>402.0</ele><time>2026-05-01T13:58:56.998Z</time></trkpt><trkpt lat="44.8456867" lon="9.684135"><ele>404.0</ele><time>2026-05-01T13:58:57.997Z</time></trkpt><trkpt lat="44.84557" lon="9.68408"><ele>404.0</ele><time>2026-05-01T13:58:58.997Z</time></trkpt><trkpt lat="44.84546" lon="9.6840167"><ele>404.0</ele><time>2026-05-01T13:58:59.997Z</time></trkpt><trkpt lat="44.8453533" lon="9.6839417"><ele>404.0</ele><time>2026-05-01T13:59:00.998Z</time></trkpt><trkpt lat="44.8452567" lon="9.68385"><ele>404.0</ele><time>2026-05-01T13:59:01.996Z</time></trkpt><trkpt lat="44.84516" lon="9.683755"><ele>403.25</ele><time>2026-05-01T13:59:02.998Z</time></trkpt><trkpt lat="44.845055" lon="9.6836683"><ele>402.5</ele><time>2026-05-01T13:59:03.996Z</time></trkpt><trkpt lat="44.84494" lon="9.6836067"><ele>401.75</ele><time>2026-05-01T13:59:04.996Z</time></trkpt><trkpt lat="44.8448167" lon="9.6835617"><ele>401.0</ele><time>2026-05-01T13:59:05.996Z</time></trkpt><trkpt lat="44.8446967" lon="9.6835383"><ele>402.20000000000005</ele><time>2026-05-01T13:59:06.997Z</time></trkpt><trkpt lat="44.8445833" lon="9.6835283"><ele>403.40000000000003</ele><time>2026-05-01T13:59:07.996Z</time></trkpt><trkpt lat="44.8444767" lon="9.68352"><ele>404.6</ele><time>2026-05-01T13:59:08.996Z</time></trkpt><trkpt lat="44.8443767" lon="9.6835017"><ele>405.8</ele><time>2026-05-01T13:59:09.998Z</time></trkpt><trkpt lat="44.8442817" lon="9.6834767"><ele>407.0</ele><time>2026-05-01T13:59:10.997Z</time></trkpt><trkpt lat="44.844195" lon="9.6834467"><ele>406.99999999999994</ele><time>2026-05-01T13:59:11.996Z</time></trkpt><trkpt lat="44.8441133" lon="9.6834133"><ele>407.0</ele><time>2026-05-01T13:59:12.996Z</time></trkpt><trkpt lat="44.844035" lon="9.68338"><ele>407.0</ele><time>2026-05-01T13:59:13.996Z</time></trkpt><trkpt lat="44.8439567" lon="9.6833483"><ele>407.0</ele><time>2026-05-01T13:59:14.996Z</time></trkpt><trkpt lat="44.8438817" lon="9.6833083"><ele>406.99999999999994</ele><time>2026-05-01T13:59:15.995Z</time></trkpt><trkpt lat="44.8438067" lon="9.68326"><ele>407.0</ele><time>2026-05-01T13:59:16.996Z</time></trkpt><trkpt lat="44.8437367" lon="9.683205"><ele>406.99999999999994</ele><time>2026-05-01T13:59:17.997Z</time></trkpt><trkpt lat="44.8436683" lon="9.6831517"><ele>407.0</ele><time>2026-05-01T13:59:19Z</time></trkpt><trkpt lat="44.843605" lon="9.683095"><ele>407.0</ele><time>2026-05-01T13:59:19.996Z</time></trkpt><trkpt lat="44.8435417" lon="9.683045"><ele>407.0</ele><time>2026-05-01T13:59:20.998Z</time></trkpt><trkpt lat="44.8434717" lon="9.6830017"><ele>406.99999999999994</ele><time>2026-05-01T13:59:21.997Z</time></trkpt><trkpt lat="44.8433983" lon="9.6829683"><ele>407.0</ele><time>2026-05-01T13:59:22.997Z</time></trkpt><trkpt lat="44.843325" lon="9.6829367"><ele>405.8333333333333</ele><time>2026-05-01T13:59:23.998Z</time></trkpt><trkpt lat="44.84325" lon="9.6829"><ele>404.66666666666663</ele><time>2026-05-01T13:59:24.997Z</time></trkpt><trkpt lat="44.8431767" lon="9.6828633"><ele>403.5</ele><time>2026-05-01T13:59:25.996Z</time></trkpt><trkpt lat="44.8431117" lon="9.68283"><ele>402.33333333333337</ele><time>2026-05-01T13:59:26.999Z</time></trkpt><trkpt lat="44.8430017" lon="9.6827867"><ele>401.1666666666667</ele><time>2026-05-01T13:59:28.995Z</time></trkpt><trkpt lat="44.8429083" lon="9.6828083"><ele>400.0</ele><time>2026-05-01T13:59:30.997Z</time></trkpt><trkpt lat="44.8428333" lon="9.6829083"><ele>400.0</ele><time>2026-05-01T13:59:32.998Z</time></trkpt><trkpt lat="44.8427533" lon="9.6830217"><ele>400.0</ele><time>2026-05-01T13:59:34.996Z</time></trkpt><trkpt lat="44.842655" lon="9.68308"><ele>400.0</ele><time>2026-05-01T13:59:36.997Z</time></trkpt><trkpt lat="44.8425417" lon="9.683005"><ele>400.0</ele><time>2026-05-01T13:59:38.996Z</time></trkpt><trkpt lat="44.8424767" lon="9.6829333"><ele>400.0</ele><time>2026-05-01T13:59:39.997Z</time></trkpt><trkpt lat="44.8424083" lon="9.6828367"><ele>400.4</ele><time>2026-05-01T13:59:40.997Z</time></trkpt><trkpt lat="44.8423367" lon="9.6827317"><ele>400.8</ele><time>2026-05-01T13:59:41.998Z</time></trkpt><trkpt lat="44.8422633" lon="9.6826267"><ele>401.20000000000005</ele><time>2026-05-01T13:59:42.996Z</time></trkpt><trkpt lat="44.8421983" lon="9.68252"><ele>401.6</ele><time>2026-05-01T13:59:43.996Z</time></trkpt><trkpt lat="44.842135" lon="9.68241"><ele>402.0</ele><time>2026-05-01T13:59:44.997Z</time></trkpt><trkpt lat="44.84206" lon="9.6823117"><ele>402.0</ele><time>2026-05-01T13:59:45.997Z</time></trkpt><trkpt lat="44.841965" lon="9.68222"><ele>402.0</ele><time>2026-05-01T13:59:46.997Z</time></trkpt><trkpt lat="44.8418617" lon="9.6821283"><ele>402.0</ele><time>2026-05-01T13:59:47.996Z</time></trkpt><trkpt lat="44.8417667" lon="9.68202"><ele>402.0</ele><time>2026-05-01T13:59:48.997Z</time></trkpt><trkpt lat="44.841665" lon="9.6819083"><ele>403.20000000000005</ele><time>2026-05-01T13:59:49.997Z</time></trkpt><trkpt lat="44.841555" lon="9.6818133"><ele>404.4</ele><time>2026-05-01T13:59:50.997Z</time></trkpt><trkpt lat="44.841455" lon="9.6817333"><ele>405.6</ele><time>2026-05-01T13:59:51.996Z</time></trkpt><trkpt lat="44.84136" lon="9.68168"><ele>406.79999999999995</ele><time>2026-05-01T13:59:52.996Z</time></trkpt><trkpt lat="44.8412767" lon="9.6816433"><ele>408.0</ele><time>2026-05-01T13:59:53.996Z</time></trkpt><trkpt lat="44.84121" lon="9.6815983"><ele>408.0</ele><time>2026-05-01T13:59:54.997Z</time></trkpt><trkpt lat="44.8411367" lon="9.6815317"><ele>408.0</ele><time>2026-05-01T13:59:55.997Z</time></trkpt><trkpt lat="44.8410617" lon="9.6814417"><ele>408.0</ele><time>2026-05-01T13:59:56.998Z</time></trkpt><trkpt lat="44.8409967" lon="9.6813483"><ele>408.0</ele><time>2026-05-01T13:59:57.996Z</time></trkpt><trkpt lat="44.8409383" lon="9.6812433"><ele>408.0</ele><time>2026-05-01T13:59:58.997Z</time></trkpt><trkpt lat="44.84088" lon="9.6811117"><ele>406.75</ele><time>2026-05-01T13:59:59.996Z</time></trkpt><trkpt lat="44.8408117" lon="9.6809583"><ele>405.5</ele><time>2026-05-01T14:00:00.999Z</time></trkpt><trkpt lat="44.8407383" lon="9.6807967"><ele>404.25</ele><time>2026-05-01T14:00:01.998Z</time></trkpt><trkpt lat="44.8406633" lon="9.68064"><ele>403.0</ele><time>2026-05-01T14:00:02.996Z</time></trkpt><trkpt lat="44.840595" lon="9.6805017"><ele>403.0</ele><time>2026-05-01T14:00:03.997Z</time></trkpt><trkpt lat="44.8405333" lon="9.6803683"><ele>403.0</ele><time>2026-05-01T14:00:04.996Z</time></trkpt><trkpt lat="44.8404817" lon="9.6802367"><ele>403.0</ele><time>2026-05-01T14:00:05.996Z</time></trkpt><trkpt lat="44.8404333" lon="9.6801133"><ele>403.0</ele><time>2026-05-01T14:00:06.998Z</time></trkpt><trkpt lat="44.8403783" lon="9.6800017"><ele>403.0</ele><time>2026-05-01T14:00:07.997Z</time></trkpt><trkpt lat="44.8403133" lon="9.679905"><ele>402.79999999999995</ele><time>2026-05-01T14:00:08.996Z</time></trkpt><trkpt lat="44.840245" lon="9.6798183"><ele>402.6</ele><time>2026-05-01T14:00:09.996Z</time></trkpt><trkpt lat="44.8401733" lon="9.6797383"><ele>402.4</ele><time>2026-05-01T14:00:10.996Z</time></trkpt><trkpt lat="44.8401017" lon="9.6796617"><ele>402.20000000000005</ele><time>2026-05-01T14:00:11.996Z</time></trkpt><trkpt lat="44.8400333" lon="9.679575"><ele>402.0</ele><time>2026-05-01T14:00:12.996Z</time></trkpt><trkpt lat="44.8399583" lon="9.6794983"><ele>402.40000000000003</ele><time>2026-05-01T14:00:13.996Z</time></trkpt><trkpt lat="44.839875" lon="9.6794283"><ele>402.8</ele><time>2026-05-01T14:00:14.997Z</time></trkpt><trkpt lat="44.83978" lon="9.6793683"><ele>403.2</ele><time>2026-05-01T14:00:15.996Z</time></trkpt><trkpt lat="44.8396867" lon="9.6793067"><ele>403.6</ele><time>2026-05-01T14:00:16.997Z</time></trkpt><trkpt lat="44.8395967" lon="9.679255"><ele>404.0</ele><time>2026-05-01T14:00:17.996Z</time></trkpt><trkpt lat="44.83951" lon="9.6792083"><ele>404.0</ele><time>2026-05-01T14:00:18.997Z</time></trkpt><trkpt lat="44.8394317" lon="9.6791617"><ele>404.0</ele><time>2026-05-01T14:00:19.998Z</time></trkpt><trkpt lat="44.8393617" lon="9.67911"><ele>404.0</ele><time>2026-05-01T14:00:20.997Z</time></trkpt><trkpt lat="44.8393" lon="9.6790617"><ele>404.0</ele><time>2026-05-01T14:00:21.997Z</time></trkpt><trkpt lat="44.83924" lon="9.6790133"><ele>404.0</ele><time>2026-05-01T14:00:22.996Z</time></trkpt><trkpt lat="44.8391833" lon="9.6789517"><ele>404.0</ele><time>2026-05-01T14:00:23.997Z</time></trkpt><trkpt lat="44.8391267" lon="9.678885"><ele>404.0</ele><time>2026-05-01T14:00:24.997Z</time></trkpt><trkpt lat="44.8390717" lon="9.678825"><ele>404.8333333333333</ele><time>2026-05-01T14:00:25.996Z</time></trkpt><trkpt lat="44.8390133" lon="9.6787683"><ele>405.66666666666663</ele><time>2026-05-01T14:00:26.997Z</time></trkpt><trkpt lat="44.8389483" lon="9.67872"><ele>406.5</ele><time>2026-05-01T14:00:27.997Z</time></trkpt><trkpt lat="44.8388767" lon="9.678685"><ele>407.33333333333337</ele><time>2026-05-01T14:00:28.997Z</time></trkpt><trkpt lat="44.838805" lon="9.6786683"><ele>408.1666666666667</ele><time>2026-05-01T14:00:29.997Z</time></trkpt><trkpt lat="44.8387233" lon="9.67867"><ele>409.0</ele><time>2026-05-01T14:00:30.996Z</time></trkpt><trkpt lat="44.838635" lon="9.678695"><ele>409.0</ele><time>2026-05-01T14:00:31.996Z</time></trkpt><trkpt lat="44.8385417" lon="9.67873"><ele>409.0</ele><time>2026-05-01T14:00:32.996Z</time></trkpt><trkpt lat="44.8384467" lon="9.67876"><ele>409.0</ele><time>2026-05-01T14:00:33.997Z</time></trkpt><trkpt lat="44.8383567" lon="9.6787767"><ele>409.0</ele><time>2026-05-01T14:00:34.997Z</time></trkpt><trkpt lat="44.838265" lon="9.6787833"><ele>409.0</ele><time>2026-05-01T14:00:35.997Z</time></trkpt><trkpt lat="44.8381767" lon="9.67876"><ele>408.2</ele><time>2026-05-01T14:00:36.996Z</time></trkpt><trkpt lat="44.8380867" lon="9.67871"><ele>407.4</ele><time>2026-05-01T14:00:37.996Z</time></trkpt><trkpt lat="44.838" lon="9.6786317"><ele>406.6</ele><time>2026-05-01T14:00:38.997Z</time></trkpt><trkpt lat="44.8379083" lon="9.678535"><ele>405.8</ele><time>2026-05-01T14:00:39.998Z</time></trkpt><trkpt lat="44.8378167" lon="9.678425"><ele>405.0</ele><time>2026-05-01T14:00:40.997Z</time></trkpt><trkpt lat="44.8377333" lon="9.67831"><ele>402.75</ele><time>2026-05-01T14:00:41.996Z</time></trkpt><trkpt lat="44.8376483" lon="9.67819"><ele>400.5</ele><time>2026-05-01T14:00:42.996Z</time></trkpt><trkpt lat="44.8375683" lon="9.6780717"><ele>398.25</ele><time>2026-05-01T14:00:43.996Z</time></trkpt><trkpt lat="44.8374883" lon="9.6779633"><ele>396.0</ele><time>2026-05-01T14:00:44.996Z</time></trkpt><trkpt lat="44.8374133" lon="9.67786"><ele>393.6</ele><time>2026-05-01T14:00:45.997Z</time></trkpt><trkpt lat="44.837345" lon="9.6777583"><ele>391.20000000000005</ele><time>2026-05-01T14:00:46.996Z</time></trkpt><trkpt lat="44.8372817" lon="9.6776583"><ele>388.79999999999995</ele><time>2026-05-01T14:00:47.998Z</time></trkpt><trkpt lat="44.8372267" lon="9.6775533"><ele>386.4</ele><time>2026-05-01T14:00:48.998Z</time></trkpt><trkpt lat="44.837175" lon="9.677445"><ele>384.0</ele><time>2026-05-01T14:00:49.999Z</time></trkpt><trkpt lat="44.83713" lon="9.677345"><ele>384.0</ele><time>2026-05-01T14:00:50.998Z</time></trkpt><trkpt lat="44.83709" lon="9.67727"><ele>384.0</ele><time>2026-05-01T14:00:51.998Z</time></trkpt><trkpt lat="44.8370433" lon="9.6771833"><ele>384.0</ele><time>2026-05-01T14:00:54Z</time></trkpt><trkpt lat="44.8369933" lon="9.6771167"><ele>384.0</ele><time>2026-05-01T14:00:55.997Z</time></trkpt><trkpt lat="44.836895" lon="9.6770417"><ele>384.0</ele><time>2026-05-01T14:00:57.997Z</time></trkpt><trkpt lat="44.8368333" lon="9.6770133"><ele>384.0</ele><time>2026-05-01T14:00:58.996Z</time></trkpt><trkpt lat="44.8367633" lon="9.6769783"><ele>385.5</ele><time>2026-05-01T14:00:59.996Z</time></trkpt><trkpt lat="44.836695" lon="9.6769283"><ele>387.0</ele><time>2026-05-01T14:01:00.997Z</time></trkpt><trkpt lat="44.8366233" lon="9.6768667"><ele>388.5</ele><time>2026-05-01T14:01:01.998Z</time></trkpt><trkpt lat="44.836555" lon="9.67681"><ele>390.0</ele><time>2026-05-01T14:01:02.997Z</time></trkpt><trkpt lat="44.8364917" lon="9.6767517"><ele>391.5</ele><time>2026-05-01T14:01:03.998Z</time></trkpt><trkpt lat="44.836425" lon="9.6766917"><ele>393.0</ele><time>2026-05-01T14:01:04.998Z</time></trkpt><trkpt lat="44.8363633" lon="9.6766233"><ele>393.0</ele><time>2026-05-01T14:01:05.998Z</time></trkpt><trkpt lat="44.836315" lon="9.6765517"><ele>393.0</ele><time>2026-05-01T14:01:06.998Z</time></trkpt><trkpt lat="44.8362667" lon="9.6764683"><ele>393.0</ele><time>2026-05-01T14:01:07.998Z</time></trkpt><trkpt lat="44.8362217" lon="9.676375"><ele>393.0</ele><time>2026-05-01T14:01:08.998Z</time></trkpt><trkpt lat="44.83618" lon="9.6762767"><ele>393.0</ele><time>2026-05-01T14:01:09.998Z</time></trkpt><trkpt lat="44.83615" lon="9.6761783"><ele>393.0</ele><time>2026-05-01T14:01:10.998Z</time></trkpt><trkpt lat="44.8361233" lon="9.6760783"><ele>392.8333333333333</ele><time>2026-05-01T14:01:11.997Z</time></trkpt><trkpt lat="44.8361017" lon="9.6759683"><ele>392.66666666666663</ele><time>2026-05-01T14:01:12.996Z</time></trkpt><trkpt lat="44.83608" lon="9.6758567"><ele>392.5</ele><time>2026-05-01T14:01:13.997Z</time></trkpt><trkpt lat="44.83605" lon="9.675765"><ele>392.3333333333333</ele><time>2026-05-01T14:01:14.996Z</time></trkpt><trkpt lat="44.83601" lon="9.6756817"><ele>392.16666666666663</ele><time>2026-05-01T14:01:15.996Z</time></trkpt><trkpt lat="44.8359567" lon="9.6756133"><ele>392.0</ele><time>2026-05-01T14:01:16.996Z</time></trkpt><trkpt lat="44.83589" lon="9.6755617"><ele>394.6</ele><time>2026-05-01T14:01:17.997Z</time></trkpt><trkpt lat="44.835805" lon="9.6755333"><ele>397.20000000000005</ele><time>2026-05-01T14:01:18.997Z</time></trkpt><trkpt lat="44.8357133" lon="9.6755167"><ele>399.8</ele><time>2026-05-01T14:01:19.996Z</time></trkpt><trkpt lat="44.8356033" lon="9.675515"><ele>402.4</ele><time>2026-05-01T14:01:20.997Z</time></trkpt><trkpt lat="44.8354867" lon="9.6755167"><ele>405.0</ele><time>2026-05-01T14:01:21.996Z</time></trkpt><trkpt lat="44.8353767" lon="9.67552"><ele>405.0</ele><time>2026-05-01T14:01:22.996Z</time></trkpt><trkpt lat="44.8352733" lon="9.6755267"><ele>405.0</ele><time>2026-05-01T14:01:23.997Z</time></trkpt><trkpt lat="44.8351567" lon="9.675545"><ele>405.0</ele><time>2026-05-01T14:01:24.996Z</time></trkpt><trkpt lat="44.8350317" lon="9.6755667"><ele>405.0</ele><time>2026-05-01T14:01:25.996Z</time></trkpt><trkpt lat="44.8348983" lon="9.6755967"><ele>405.5</ele><time>2026-05-01T14:01:26.999Z</time></trkpt><trkpt lat="44.8347667" lon="9.6756267"><ele>406.0</ele><time>2026-05-01T14:01:27.996Z</time></trkpt><trkpt lat="44.8346433" lon="9.6756583"><ele>406.5</ele><time>2026-05-01T14:01:28.997Z</time></trkpt><trkpt lat="44.8345267" lon="9.675685"><ele>407.0</ele><time>2026-05-01T14:01:29.996Z</time></trkpt><trkpt lat="44.8344183" lon="9.6756983"><ele>406.99999999999994</ele><time>2026-05-01T14:01:30.997Z</time></trkpt><trkpt lat="44.8343217" lon="9.6757033"><ele>407.0</ele><time>2026-05-01T14:01:31.996Z</time></trkpt><trkpt lat="44.8342283" lon="9.6757033"><ele>407.0</ele><time>2026-05-01T14:01:32.996Z</time></trkpt><trkpt lat="44.8341417" lon="9.6756967"><ele>407.0</ele><time>2026-05-01T14:01:33.996Z</time></trkpt><trkpt lat="44.834065" lon="9.675685"><ele>406.99999999999994</ele><time>2026-05-01T14:01:34.997Z</time></trkpt><trkpt lat="44.833995" lon="9.6756683"><ele>407.0</ele><time>2026-05-01T14:01:35.996Z</time></trkpt><trkpt lat="44.8338733" lon="9.6756333"><ele>406.49999999999994</ele><time>2026-05-01T14:01:37.996Z</time></trkpt><trkpt lat="44.8338067" lon="9.6756133"><ele>406.0</ele><time>2026-05-01T14:01:38.997Z</time></trkpt><trkpt lat="44.8337367" lon="9.67559"><ele>405.5</ele><time>2026-05-01T14:01:39.996Z</time></trkpt><trkpt lat="44.8336683" lon="9.6755733"><ele>405.0</ele><time>2026-05-01T14:01:40.996Z</time></trkpt><trkpt lat="44.833605" lon="9.6755583"><ele>404.49999999999994</ele><time>2026-05-01T14:01:41.996Z</time></trkpt><trkpt lat="44.8335417" lon="9.6755417"><ele>404.0</ele><time>2026-05-01T14:01:42.995Z</time></trkpt><trkpt lat="44.8334267" lon="9.6754717"><ele>403.79999999999995</ele><time>2026-05-01T14:01:44.996Z</time></trkpt><trkpt lat="44.83337" lon="9.6754267"><ele>403.59999999999997</ele><time>2026-05-01T14:01:45.997Z</time></trkpt><trkpt lat="44.83326" lon="9.6753333"><ele>403.4</ele><time>2026-05-01T14:01:47.996Z</time></trkpt><trkpt lat="44.8331533" lon="9.675245"><ele>403.2</ele><time>2026-05-01T14:01:49.997Z</time></trkpt><trkpt lat="44.8330417" lon="9.67518"><ele>403.0</ele><time>2026-05-01T14:01:51.996Z</time></trkpt><trkpt lat="44.8329517" lon="9.6751233"><ele>402.00000000000006</ele><time>2026-05-01T14:01:53.997Z</time></trkpt><trkpt lat="44.832885" lon="9.6750817"><ele>401.0</ele><time>2026-05-01T14:01:55.996Z</time></trkpt><trkpt lat="44.83283" lon="9.6750383"><ele>400.0</ele><time>2026-05-01T14:01:57.996Z</time></trkpt><trkpt lat="44.8327344" lon="9.6749344"><ele>399.0</ele><time>2026-05-01T14:01:59.996Z</time></trkpt><trkpt lat="44.8326743" lon="9.6748511"><ele>398.00000000000006</ele><time>2026-05-01T14:02:00.996Z</time></trkpt><trkpt lat="44.8326088" lon="9.674755"><ele>397.0</ele><time>2026-05-01T14:02:01.996Z</time></trkpt><trkpt lat="44.8325411" lon="9.6746532"><ele>397.1666666666667</ele><time>2026-05-01T14:02:02.997Z</time></trkpt><trkpt lat="44.8324764" lon="9.6745558"><ele>397.33333333333337</ele><time>2026-05-01T14:02:03.996Z</time></trkpt><trkpt lat="44.832419" lon="9.6744624"><ele>397.5</ele><time>2026-05-01T14:02:04.996Z</time></trkpt><trkpt lat="44.8323659" lon="9.6743658"><ele>397.66666666666663</ele><time>2026-05-01T14:02:05.997Z</time></trkpt><trkpt lat="44.8323147" lon="9.6742646"><ele>397.8333333333333</ele><time>2026-05-01T14:02:06.996Z</time></trkpt><trkpt lat="44.8322688" lon="9.6741592"><ele>398.0</ele><time>2026-05-01T14:02:07.997Z</time></trkpt><trkpt lat="44.8322234" lon="9.6740506"><ele>398.0</ele><time>2026-05-01T14:02:08.997Z</time></trkpt><trkpt lat="44.8321726" lon="9.6739381"><ele>398.0</ele><time>2026-05-01T14:02:09.996Z</time></trkpt><trkpt lat="44.8321175" lon="9.6738238"><ele>398.0</ele><time>2026-05-01T14:02:10.997Z</time></trkpt><trkpt lat="44.8320607" lon="9.6737038"><ele>398.0</ele><time>2026-05-01T14:02:11.998Z</time></trkpt><trkpt lat="44.8320059" lon="9.6735915"><ele>398.0</ele><time>2026-05-01T14:02:12.996Z</time></trkpt><trkpt lat="44.8319572" lon="9.6735026"><ele>398.59999999999997</ele><time>2026-05-01T14:02:13.997Z</time></trkpt><trkpt lat="44.831875" lon="9.6733987"><ele>399.2</ele><time>2026-05-01T14:02:15.996Z</time></trkpt><trkpt lat="44.8317669" lon="9.6733871"><ele>399.8</ele><time>2026-05-01T14:02:17.996Z</time></trkpt><trkpt lat="44.8317011" lon="9.6734088"><ele>400.4</ele><time>2026-05-01T14:02:18.997Z</time></trkpt><trkpt lat="44.8316203" lon="9.673429"><ele>401.0</ele><time>2026-05-01T14:02:19.997Z</time></trkpt><trkpt lat="44.8315336" lon="9.6734492"><ele>403.8333333333333</ele><time>2026-05-01T14:02:20.997Z</time></trkpt><trkpt lat="44.8314452" lon="9.6734699"><ele>406.66666666666663</ele><time>2026-05-01T14:02:21.996Z</time></trkpt><trkpt lat="44.8313564" lon="9.6734846"><ele>409.5</ele><time>2026-05-01T14:02:22.996Z</time></trkpt><trkpt lat="44.831273" lon="9.6734992"><ele>412.33333333333337</ele><time>2026-05-01T14:02:23.996Z</time></trkpt><trkpt lat="44.8311957" lon="9.6735127"><ele>415.1666666666667</ele><time>2026-05-01T14:02:24.997Z</time></trkpt><trkpt lat="44.8311224" lon="9.6735358"><ele>418.0</ele><time>2026-05-01T14:02:25.996Z</time></trkpt><trkpt lat="44.8310564" lon="9.6735804"><ele>417.00000000000006</ele><time>2026-05-01T14:02:26.997Z</time></trkpt><trkpt lat="44.8309974" lon="9.6736503"><ele>416.0</ele><time>2026-05-01T14:02:27.997Z</time></trkpt><trkpt lat="44.8309457" lon="9.6737388"><ele>415.0</ele><time>2026-05-01T14:02:28.997Z</time></trkpt><trkpt lat="44.8309001" lon="9.673836"><ele>414.0</ele><time>2026-05-01T14:02:29.999Z</time></trkpt><trkpt lat="44.8308601" lon="9.6739301"><ele>413.00000000000006</ele><time>2026-05-01T14:02:30.996Z</time></trkpt><trkpt lat="44.8308242" lon="9.6740074"><ele>412.0</ele><time>2026-05-01T14:02:31.996Z</time></trkpt><trkpt lat="44.8307586" lon="9.6740993"><ele>415.33333333333337</ele><time>2026-05-01T14:02:33.996Z</time></trkpt><trkpt lat="44.830677" lon="9.6741203"><ele>418.6666666666667</ele><time>2026-05-01T14:02:35.997Z</time></trkpt><trkpt lat="44.8305553" lon="9.6740808"><ele>422.0</ele><time>2026-05-01T14:02:37.998Z</time></trkpt><trkpt lat="44.8304854" lon="9.6740483"><ele>425.33333333333337</ele><time>2026-05-01T14:02:38.998Z</time></trkpt><trkpt lat="44.8304167" lon="9.6740162"><ele>428.6666666666667</ele><time>2026-05-01T14:02:39.996Z</time></trkpt><trkpt lat="44.8303454" lon="9.6739886"><ele>432.0</ele><time>2026-05-01T14:02:40.997Z</time></trkpt><trkpt lat="44.8302746" lon="9.6739648"><ele>432.0</ele><time>2026-05-01T14:02:41.997Z</time></trkpt><trkpt lat="44.8302035" lon="9.6739433"><ele>432.0</ele><time>2026-05-01T14:02:42.997Z</time></trkpt><trkpt lat="44.8301275" lon="9.6739156"><ele>432.0</ele><time>2026-05-01T14:02:43.996Z</time></trkpt><trkpt lat="44.8300464" lon="9.6738773"><ele>432.0</ele><time>2026-05-01T14:02:44.998Z</time></trkpt><trkpt lat="44.8299664" lon="9.6738259"><ele>432.0</ele><time>2026-05-01T14:02:45.996Z</time></trkpt><trkpt lat="44.8298891" lon="9.6737631"><ele>432.0</ele><time>2026-05-01T14:02:46.997Z</time></trkpt><trkpt lat="44.8298167" lon="9.6736933"><ele>432.6666666666667</ele><time>2026-05-01T14:02:47.997Z</time></trkpt><trkpt lat="44.8297467" lon="9.67362"><ele>433.33333333333337</ele><time>2026-05-01T14:02:48.996Z</time></trkpt><trkpt lat="44.8296783" lon="9.6735417"><ele>434.0</ele><time>2026-05-01T14:02:49.996Z</time></trkpt><trkpt lat="44.829615" lon="9.67346"><ele>434.6666666666667</ele><time>2026-05-01T14:02:50.996Z</time></trkpt><trkpt lat="44.8295567" lon="9.67338"><ele>435.33333333333337</ele><time>2026-05-01T14:02:51.996Z</time></trkpt><trkpt lat="44.8294967" lon="9.67331"><ele>436.0</ele><time>2026-05-01T14:02:52.996Z</time></trkpt><trkpt lat="44.8294333" lon="9.673255"><ele>436.42857142857144</ele><time>2026-05-01T14:02:53.996Z</time></trkpt><trkpt lat="44.8293667" lon="9.6732233"><ele>436.8571428571429</ele><time>2026-05-01T14:02:54.997Z</time></trkpt><trkpt lat="44.8292983" lon="9.673225"><ele>437.2857142857143</ele><time>2026-05-01T14:02:55.997Z</time></trkpt><trkpt lat="44.82923" lon="9.6732467"><ele>437.7142857142857</ele><time>2026-05-01T14:02:56.996Z</time></trkpt><trkpt lat="44.82916" lon="9.6732917"><ele>438.1428571428571</ele><time>2026-05-01T14:02:57.997Z</time></trkpt><trkpt lat="44.829095" lon="9.6733317"><ele>438.57142857142856</ele><time>2026-05-01T14:02:58.996Z</time></trkpt><trkpt lat="44.8290217" lon="9.673355"><ele>439.0</ele><time>2026-05-01T14:02:59.997Z</time></trkpt><trkpt lat="44.82894" lon="9.673365"><ele>442.6</ele><time>2026-05-01T14:03:00.997Z</time></trkpt><trkpt lat="44.8288467" lon="9.67336"><ele>446.2</ele><time>2026-05-01T14:03:01.996Z</time></trkpt><trkpt lat="44.828745" lon="9.6733533"><ele>449.80000000000007</ele><time>2026-05-01T14:03:02.997Z</time></trkpt><trkpt lat="44.828645" lon="9.6733483"><ele>453.40000000000003</ele><time>2026-05-01T14:03:03.998Z</time></trkpt><trkpt lat="44.8285517" lon="9.6733467"><ele>457.0</ele><time>2026-05-01T14:03:04.997Z</time></trkpt><trkpt lat="44.82846" lon="9.67334"><ele>458.00000000000006</ele><time>2026-05-01T14:03:05.997Z</time></trkpt><trkpt lat="44.82837" lon="9.673325"><ele>459.0</ele><time>2026-05-01T14:03:06.997Z</time></trkpt><trkpt lat="44.8282867" lon="9.6732983"><ele>460.0</ele><time>2026-05-01T14:03:07.996Z</time></trkpt><trkpt lat="44.8282083" lon="9.673265"><ele>461.0</ele><time>2026-05-01T14:03:08.998Z</time></trkpt><trkpt lat="44.828135" lon="9.6732217"><ele>462.00000000000006</ele><time>2026-05-01T14:03:09.996Z</time></trkpt><trkpt lat="44.8280667" lon="9.67317"><ele>463.0</ele><time>2026-05-01T14:03:10.996Z</time></trkpt><trkpt lat="44.828005" lon="9.6731233"><ele>463.0</ele><time>2026-05-01T14:03:11.997Z</time></trkpt><trkpt lat="44.8279033" lon="9.6730933"><ele>462.99999999999994</ele><time>2026-05-01T14:03:13.996Z</time></trkpt><trkpt lat="44.8277833" lon="9.6731317"><ele>462.99999999999994</ele><time>2026-05-01T14:03:15.997Z</time></trkpt><trkpt lat="44.8277067" lon="9.67315"><ele>463.0</ele><time>2026-05-01T14:03:16.997Z</time></trkpt><trkpt lat="44.8276233" lon="9.6731617"><ele>463.0</ele><time>2026-05-01T14:03:17.997Z</time></trkpt><trkpt lat="44.8275433" lon="9.6731783"><ele>464.33333333333337</ele><time>2026-05-01T14:03:18.998Z</time></trkpt><trkpt lat="44.827465" lon="9.6732067"><ele>465.6666666666667</ele><time>2026-05-01T14:03:19.997Z</time></trkpt><trkpt lat="44.8273867" lon="9.6732517"><ele>467.0</ele><time>2026-05-01T14:03:20.997Z</time></trkpt><trkpt lat="44.827305" lon="9.6733017"><ele>468.33333333333337</ele><time>2026-05-01T14:03:21.997Z</time></trkpt><trkpt lat="44.8272217" lon="9.6733567"><ele>469.6666666666667</ele><time>2026-05-01T14:03:22.997Z</time></trkpt><trkpt lat="44.8271367" lon="9.6734133"><ele>471.0</ele><time>2026-05-01T14:03:23.997Z</time></trkpt><trkpt lat="44.827055" lon="9.6734733"><ele>471.0</ele><time>2026-05-01T14:03:24.997Z</time></trkpt><trkpt lat="44.8269783" lon="9.6735417"><ele>471.0</ele><time>2026-05-01T14:03:25.997Z</time></trkpt><trkpt lat="44.8269067" lon="9.6736117"><ele>471.0</ele><time>2026-05-01T14:03:26.998Z</time></trkpt><trkpt lat="44.8268383" lon="9.6736667"><ele>471.0</ele><time>2026-05-01T14:03:27.998Z</time></trkpt><trkpt lat="44.8267667" lon="9.6736967"><ele>471.0</ele><time>2026-05-01T14:03:28.998Z</time></trkpt><trkpt lat="44.82669" lon="9.673695"><ele>471.0</ele><time>2026-05-01T14:03:29.998Z</time></trkpt><trkpt lat="44.826605" lon="9.6736583"><ele>473.25</ele><time>2026-05-01T14:03:30.997Z</time></trkpt><trkpt lat="44.826505" lon="9.67359"><ele>475.5</ele><time>2026-05-01T14:03:31.999Z</time></trkpt><trkpt lat="44.826395" lon="9.6735167"><ele>477.75</ele><time>2026-05-01T14:03:32.997Z</time></trkpt><trkpt lat="44.8262783" lon="9.6734417"><ele>480.0</ele><time>2026-05-01T14:03:33.997Z</time></trkpt><trkpt lat="44.82617" lon="9.6733617"><ele>480.0</ele><time>2026-05-01T14:03:34.997Z</time></trkpt><trkpt lat="44.8260717" lon="9.6732633"><ele>480.0</ele><time>2026-05-01T14:03:35.997Z</time></trkpt><trkpt lat="44.8259867" lon="9.6731417"><ele>480.0</ele><time>2026-05-01T14:03:36.997Z</time></trkpt><trkpt lat="44.8259067" lon="9.6730167"><ele>480.0</ele><time>2026-05-01T14:03:37.997Z</time></trkpt><trkpt lat="44.82582" lon="9.6729033"><ele>482.5</ele><time>2026-05-01T14:03:38.998Z</time></trkpt><trkpt lat="44.8257217" lon="9.6728083"><ele>485.0</ele><time>2026-05-01T14:03:39.997Z</time></trkpt><trkpt lat="44.8256167" lon="9.67272"><ele>487.5</ele><time>2026-05-01T14:03:40.997Z</time></trkpt><trkpt lat="44.8255083" lon="9.6726217"><ele>490.0</ele><time>2026-05-01T14:03:41.996Z</time></trkpt><trkpt lat="44.8254083" lon="9.6724983"><ele>490.0</ele><time>2026-05-01T14:03:42.999Z</time></trkpt><trkpt lat="44.825315" lon="9.6723667"><ele>490.0</ele><time>2026-05-01T14:03:43.997Z</time></trkpt><trkpt lat="44.825215" lon="9.6722367"><ele>490.0</ele><time>2026-05-01T14:03:44.997Z</time></trkpt><trkpt lat="44.8251117" lon="9.6721217"><ele>490.0</ele><time>2026-05-01T14:03:45.997Z</time></trkpt><trkpt lat="44.8250133" lon="9.672015"><ele>493.25</ele><time>2026-05-01T14:03:46.996Z</time></trkpt><trkpt lat="44.82492" lon="9.6719117"><ele>496.5</ele><time>2026-05-01T14:03:47.997Z</time></trkpt><trkpt lat="44.82483" lon="9.6718033"><ele>499.75</ele><time>2026-05-01T14:03:48.996Z</time></trkpt><trkpt lat="44.8247483" lon="9.6716833"><ele>503.0</ele><time>2026-05-01T14:03:49.997Z</time></trkpt><trkpt lat="44.8246767" lon="9.671555"><ele>503.0</ele><time>2026-05-01T14:03:50.997Z</time></trkpt><trkpt lat="44.8246083" lon="9.67142"><ele>503.0</ele><time>2026-05-01T14:03:51.997Z</time></trkpt><trkpt lat="44.8245333" lon="9.67129"><ele>503.0</ele><time>2026-05-01T14:03:52.996Z</time></trkpt><trkpt lat="44.8244467" lon="9.6711717"><ele>503.0</ele><time>2026-05-01T14:03:53.997Z</time></trkpt><trkpt lat="44.8243467" lon="9.6710667"><ele>505.75</ele><time>2026-05-01T14:03:54.997Z</time></trkpt><trkpt lat="44.8242383" lon="9.6709717"><ele>508.5</ele><time>2026-05-01T14:03:55.998Z</time></trkpt><trkpt lat="44.8241267" lon="9.6708767"><ele>511.25</ele><time>2026-05-01T14:03:56.997Z</time></trkpt><trkpt lat="44.82402" lon="9.6707733"><ele>514.0</ele><time>2026-05-01T14:03:57.996Z</time></trkpt><trkpt lat="44.8239133" lon="9.670675"><ele>514.0</ele><time>2026-05-01T14:03:58.996Z</time></trkpt><trkpt lat="44.8238067" lon="9.6705967"><ele>514.0</ele><time>2026-05-01T14:03:59.997Z</time></trkpt><trkpt lat="44.823695" lon="9.670535"><ele>514.0</ele><time>2026-05-01T14:04:00.996Z</time></trkpt><trkpt lat="44.8235733" lon="9.6704883"><ele>514.0</ele><time>2026-05-01T14:04:01.999Z</time></trkpt><trkpt lat="44.8234483" lon="9.6704483"><ele>515.5</ele><time>2026-05-01T14:04:02.996Z</time></trkpt><trkpt lat="44.82332" lon="9.6704167"><ele>517.0</ele><time>2026-05-01T14:04:03.995Z</time></trkpt><trkpt lat="44.8231917" lon="9.6703817"><ele>518.5</ele><time>2026-05-01T14:04:04.995Z</time></trkpt><trkpt lat="44.82306" lon="9.6703367"><ele>520.0</ele><time>2026-05-01T14:04:05.997Z</time></trkpt><trkpt lat="44.8229333" lon="9.670285"><ele>520.25</ele><time>2026-05-01T14:04:06.997Z</time></trkpt><trkpt lat="44.8228167" lon="9.6702333"><ele>520.5</ele><time>2026-05-01T14:04:07.998Z</time></trkpt><trkpt lat="44.8227" lon="9.6701783"><ele>520.75</ele><time>2026-05-01T14:04:08.996Z</time></trkpt><trkpt lat="44.8225767" lon="9.67012"><ele>521.0</ele><time>2026-05-01T14:04:09.995Z</time></trkpt><trkpt lat="44.8224517" lon="9.6700617"><ele>521.75</ele><time>2026-05-01T14:04:10.995Z</time></trkpt><trkpt lat="44.82233" lon="9.6699967"><ele>522.5</ele><time>2026-05-01T14:04:11.996Z</time></trkpt><trkpt lat="44.8222183" lon="9.66992"><ele>523.25</ele><time>2026-05-01T14:04:12.995Z</time></trkpt><trkpt lat="44.8221117" lon="9.6698183"><ele>524.0</ele><time>2026-05-01T14:04:13.996Z</time></trkpt><trkpt lat="44.82202" lon="9.6696867"><ele>524.0</ele><time>2026-05-01T14:04:14.996Z</time></trkpt><trkpt lat="44.821945" lon="9.6695183"><ele>524.0</ele><time>2026-05-01T14:04:15.996Z</time></trkpt><trkpt lat="44.8218817" lon="9.6693283"><ele>524.0</ele><time>2026-05-01T14:04:16.996Z</time></trkpt><trkpt lat="44.82182" lon="9.6691383"><ele>524.0</ele><time>2026-05-01T14:04:17.995Z</time></trkpt><trkpt lat="44.8217533" lon="9.6689617"><ele>525.0</ele><time>2026-05-01T14:04:18.995Z</time></trkpt><trkpt lat="44.8216667" lon="9.66879"><ele>526.0</ele><time>2026-05-01T14:04:19.997Z</time></trkpt><trkpt lat="44.821575" lon="9.6686217"><ele>527.0</ele><time>2026-05-01T14:04:20.995Z</time></trkpt><trkpt lat="44.821485" lon="9.6684517"><ele>527.0</ele><time>2026-05-01T14:04:21.995Z</time></trkpt><trkpt lat="44.821395" lon="9.6682867"><ele>527.0</ele><time>2026-05-01T14:04:22.996Z</time></trkpt><trkpt lat="44.8213" lon="9.6681217"><ele>527.0</ele><time>2026-05-01T14:04:23.995Z</time></trkpt><trkpt lat="44.8212083" lon="9.6679567"><ele>527.0</ele><time>2026-05-01T14:04:24.995Z</time></trkpt><trkpt lat="44.82113" lon="9.6677933"><ele>528.25</ele><time>2026-05-01T14:04:25.995Z</time></trkpt><trkpt lat="44.8210667" lon="9.6676333"><ele>529.5</ele><time>2026-05-01T14:04:26.997Z</time></trkpt><trkpt lat="44.82101" lon="9.6674683"><ele>530.75</ele><time>2026-05-01T14:04:27.996Z</time></trkpt><trkpt lat="44.82095" lon="9.6673033"><ele>532.0</ele><time>2026-05-01T14:04:28.996Z</time></trkpt><trkpt lat="44.820895" lon="9.6671483"><ele>532.0</ele><time>2026-05-01T14:04:29.995Z</time></trkpt><trkpt lat="44.8208433" lon="9.6670117"><ele>532.0</ele><time>2026-05-01T14:04:30.997Z</time></trkpt><trkpt lat="44.820795" lon="9.6668867"><ele>532.0</ele><time>2026-05-01T14:04:31.996Z</time></trkpt><trkpt lat="44.8207517" lon="9.6667717"><ele>532.0</ele><time>2026-05-01T14:04:32.998Z</time></trkpt><trkpt lat="44.8207183" lon="9.6666583"><ele>532.0</ele><time>2026-05-01T14:04:33.996Z</time></trkpt><trkpt lat="44.8206983" lon="9.6665383"><ele>531.8333333333334</ele><time>2026-05-01T14:04:34.996Z</time></trkpt><trkpt lat="44.8207133" lon="9.6664167"><ele>531.6666666666667</ele><time>2026-05-01T14:04:35.997Z</time></trkpt><trkpt lat="44.8207567" lon="9.6663017"><ele>531.5</ele><time>2026-05-01T14:04:36.997Z</time></trkpt><trkpt lat="44.8207967" lon="9.6661917"><ele>531.3333333333334</ele><time>2026-05-01T14:04:37.998Z</time></trkpt><trkpt lat="44.8208217" lon="9.6660833"><ele>531.1666666666666</ele><time>2026-05-01T14:04:38.997Z</time></trkpt><trkpt lat="44.8208217" lon="9.6659683"><ele>531.0</ele><time>2026-05-01T14:04:39.997Z</time></trkpt><trkpt lat="44.8207917" lon="9.6658467"><ele>529.4</ele><time>2026-05-01T14:04:40.997Z</time></trkpt><trkpt lat="44.820735" lon="9.6657317"><ele>527.8</ele><time>2026-05-01T14:04:41.997Z</time></trkpt><trkpt lat="44.8206617" lon="9.6656267"><ele>526.1999999999999</ele><time>2026-05-01T14:04:42.998Z</time></trkpt><trkpt lat="44.8205833" lon="9.665545"><ele>524.6</ele><time>2026-05-01T14:04:43.997Z</time></trkpt><trkpt lat="44.8204983" lon="9.665485"><ele>523.0</ele><time>2026-05-01T14:04:44.997Z</time></trkpt><trkpt lat="44.820405" lon="9.6654483"><ele>523.0</ele><time>2026-05-01T14:04:45.998Z</time></trkpt><trkpt lat="44.82031" lon="9.6654333"><ele>523.0</ele><time>2026-05-01T14:04:46.995Z</time></trkpt><trkpt lat="44.8202133" lon="9.6654283"><ele>523.0</ele><time>2026-05-01T14:04:47.996Z</time></trkpt><trkpt lat="44.8201167" lon="9.665425"><ele>523.0</ele><time>2026-05-01T14:04:48.997Z</time></trkpt><trkpt lat="44.8200217" lon="9.6654283"><ele>523.0</ele><time>2026-05-01T14:04:49.996Z</time></trkpt><trkpt lat="44.8199333" lon="9.6654267"><ele>522.1666666666667</ele><time>2026-05-01T14:04:50.997Z</time></trkpt><trkpt lat="44.8198483" lon="9.6654167"><ele>521.3333333333334</ele><time>2026-05-01T14:04:51.998Z</time></trkpt><trkpt lat="44.819765" lon="9.6654183"><ele>520.5</ele><time>2026-05-01T14:04:52.997Z</time></trkpt><trkpt lat="44.8196833" lon="9.6654483"><ele>519.6666666666666</ele><time>2026-05-01T14:04:53.997Z</time></trkpt><trkpt lat="44.8196083" lon="9.6655167"><ele>518.8333333333333</ele><time>2026-05-01T14:04:54.998Z</time></trkpt><trkpt lat="44.8195317" lon="9.6655917"><ele>518.0</ele><time>2026-05-01T14:04:55.997Z</time></trkpt><trkpt lat="44.8194533" lon="9.665655"><ele>518.0</ele><time>2026-05-01T14:04:56.998Z</time></trkpt><trkpt lat="44.8193717" lon="9.665705"><ele>518.0</ele><time>2026-05-01T14:04:57.998Z</time></trkpt><trkpt lat="44.81928" lon="9.6657383"><ele>518.0</ele><time>2026-05-01T14:04:58.997Z</time></trkpt><trkpt lat="44.8191883" lon="9.6657567"><ele>518.0</ele><time>2026-05-01T14:04:59.997Z</time></trkpt><trkpt lat="44.8191033" lon="9.66577"><ele>518.0</ele><time>2026-05-01T14:05:00.997Z</time></trkpt><trkpt lat="44.8190233" lon="9.6657783"><ele>518.0</ele><time>2026-05-01T14:05:01.997Z</time></trkpt><trkpt lat="44.8189517" lon="9.665765"><ele>516.5</ele><time>2026-05-01T14:05:02.997Z</time></trkpt><trkpt lat="44.818845" lon="9.6657"><ele>515.0</ele><time>2026-05-01T14:05:04.995Z</time></trkpt><trkpt lat="44.8187933" lon="9.66562"><ele>513.5</ele><time>2026-05-01T14:05:06.996Z</time></trkpt><trkpt lat="44.8188033" lon="9.6654933"><ele>512.0</ele><time>2026-05-01T14:05:09.996Z</time></trkpt><trkpt lat="44.8188317" lon="9.66541"><ele>510.49999999999994</ele><time>2026-05-01T14:05:10.996Z</time></trkpt><trkpt lat="44.8188733" lon="9.6652983"><ele>509.0</ele><time>2026-05-01T14:05:11.996Z</time></trkpt><trkpt lat="44.8189167" lon="9.6651767"><ele>508.79999999999995</ele><time>2026-05-01T14:05:12.995Z</time></trkpt><trkpt lat="44.818965" lon="9.6650467"><ele>508.59999999999997</ele><time>2026-05-01T14:05:13.995Z</time></trkpt><trkpt lat="44.8190133" lon="9.6649217"><ele>508.4</ele><time>2026-05-01T14:05:14.996Z</time></trkpt><trkpt lat="44.819065" lon="9.6647883"><ele>508.2</ele><time>2026-05-01T14:05:15.997Z</time></trkpt><trkpt lat="44.8191167" lon="9.664655"><ele>508.0</ele><time>2026-05-01T14:05:16.995Z</time></trkpt><trkpt lat="44.8191667" lon="9.66452"><ele>510.0</ele><time>2026-05-01T14:05:17.997Z</time></trkpt><trkpt lat="44.8192183" lon="9.664375"><ele>512.0</ele><time>2026-05-01T14:05:18.997Z</time></trkpt><trkpt lat="44.819265" lon="9.6642217"><ele>514.0</ele><time>2026-05-01T14:05:19.996Z</time></trkpt><trkpt lat="44.8193083" lon="9.6640617"><ele>516.0</ele><time>2026-05-01T14:05:20.998Z</time></trkpt><trkpt lat="44.81935" lon="9.6639"><ele>510.5</ele><time>2026-05-01T14:05:21.997Z</time></trkpt><trkpt lat="44.8193883" lon="9.6637283"><ele>505.0</ele><time>2026-05-01T14:05:22.995Z</time></trkpt><trkpt lat="44.8194283" lon="9.6635567"><ele>499.5</ele><time>2026-05-01T14:05:23.998Z</time></trkpt><trkpt lat="44.8194633" lon="9.6633883"><ele>494.0</ele><time>2026-05-01T14:05:24.998Z</time></trkpt><trkpt lat="44.819495" lon="9.663225"><ele>494.0</ele><time>2026-05-01T14:05:25.997Z</time></trkpt><trkpt lat="44.8195267" lon="9.6630567"><ele>494.0</ele><time>2026-05-01T14:05:26.997Z</time></trkpt><trkpt lat="44.8195517" lon="9.66289"><ele>494.0</ele><time>2026-05-01T14:05:27.996Z</time></trkpt><trkpt lat="44.8195617" lon="9.6627183"><ele>494.0</ele><time>2026-05-01T14:05:28.995Z</time></trkpt><trkpt lat="44.8195467" lon="9.662535"><ele>495.0</ele><time>2026-05-01T14:05:29.998Z</time></trkpt><trkpt lat="44.819515" lon="9.6623467"><ele>496.0</ele><time>2026-05-01T14:05:30.997Z</time></trkpt><trkpt lat="44.8194717" lon="9.662165"><ele>497.0</ele><time>2026-05-01T14:05:31.996Z</time></trkpt><trkpt lat="44.819425" lon="9.6619983"><ele>498.0</ele><time>2026-05-01T14:05:32.996Z</time></trkpt><trkpt lat="44.8193767" lon="9.6618367"><ele>498.0</ele><time>2026-05-01T14:05:33.996Z</time></trkpt><trkpt lat="44.819325" lon="9.6616733"><ele>498.0</ele><time>2026-05-01T14:05:34.997Z</time></trkpt><trkpt lat="44.819275" lon="9.6615133"><ele>498.0</ele><time>2026-05-01T14:05:35.999Z</time></trkpt><trkpt lat="44.8192283" lon="9.6613617"><ele>498.0</ele><time>2026-05-01T14:05:36.998Z</time></trkpt><trkpt lat="44.8191867" lon="9.661215"><ele>501.2</ele><time>2026-05-01T14:05:37.997Z</time></trkpt><trkpt lat="44.819145" lon="9.6610717"><ele>504.4</ele><time>2026-05-01T14:05:38.997Z</time></trkpt><trkpt lat="44.8190983" lon="9.6609417"><ele>507.59999999999997</ele><time>2026-05-01T14:05:39.997Z</time></trkpt><trkpt lat="44.8190267" lon="9.6608367"><ele>510.79999999999995</ele><time>2026-05-01T14:05:40.995Z</time></trkpt><trkpt lat="44.8189283" lon="9.660755"><ele>514.0</ele><time>2026-05-01T14:05:41.996Z</time></trkpt><trkpt lat="44.8188267" lon="9.6606867"><ele>514.0</ele><time>2026-05-01T14:05:42.995Z</time></trkpt><trkpt lat="44.818735" lon="9.660615"><ele>514.0</ele><time>2026-05-01T14:05:43.996Z</time></trkpt><trkpt lat="44.818655" lon="9.6605333"><ele>514.0</ele><time>2026-05-01T14:05:44.996Z</time></trkpt><trkpt lat="44.8185917" lon="9.660435"><ele>514.0</ele><time>2026-05-01T14:05:45.995Z</time></trkpt><trkpt lat="44.8185617" lon="9.6603117"><ele>514.0</ele><time>2026-05-01T14:05:46.996Z</time></trkpt><trkpt lat="44.8185533" lon="9.6601667"><ele>512.25</ele><time>2026-05-01T14:05:47.997Z</time></trkpt><trkpt lat="44.8185583" lon="9.6600083"><ele>510.5</ele><time>2026-05-01T14:05:48.996Z</time></trkpt><trkpt lat="44.8185617" lon="9.6598483"><ele>508.75</ele><time>2026-05-01T14:05:49.996Z</time></trkpt><trkpt lat="44.818545" lon="9.6596833"><ele>507.0</ele><time>2026-05-01T14:05:50.998Z</time></trkpt><trkpt lat="44.818505" lon="9.6595133"><ele>512.5</ele><time>2026-05-01T14:05:51.997Z</time></trkpt><trkpt lat="44.8184483" lon="9.65934"><ele>518.0</ele><time>2026-05-01T14:05:52.996Z</time></trkpt><trkpt lat="44.81838" lon="9.6591583"><ele>523.5</ele><time>2026-05-01T14:05:53.997Z</time></trkpt><trkpt lat="44.8183133" lon="9.658975"><ele>529.0</ele><time>2026-05-01T14:05:54.996Z</time></trkpt><trkpt lat="44.81825" lon="9.6587983"><ele>529.0</ele><time>2026-05-01T14:05:55.995Z</time></trkpt><trkpt lat="44.818205" lon="9.6586333"><ele>529.0</ele><time>2026-05-01T14:05:56.997Z</time></trkpt><trkpt lat="44.8181783" lon="9.6584783"><ele>529.0</ele><time>2026-05-01T14:05:57.995Z</time></trkpt><trkpt lat="44.8181783" lon="9.6583333"><ele>529.0</ele><time>2026-05-01T14:05:58.996Z</time></trkpt><trkpt lat="44.8182133" lon="9.6581917"><ele>529.0</ele><time>2026-05-01T14:05:59.996Z</time></trkpt><trkpt lat="44.818265" lon="9.6580617"><ele>528.2</ele><time>2026-05-01T14:06:00.997Z</time></trkpt><trkpt lat="44.8183117" lon="9.6579367"><ele>527.4</ele><time>2026-05-01T14:06:01.996Z</time></trkpt><trkpt lat="44.81834" lon="9.657815"><ele>526.6</ele><time>2026-05-01T14:06:02.995Z</time></trkpt><trkpt lat="44.81835" lon="9.6576983"><ele>525.8</ele><time>2026-05-01T14:06:03.996Z</time></trkpt><trkpt lat="44.8183233" lon="9.657585"><ele>525.0</ele><time>2026-05-01T14:06:04.997Z</time></trkpt><trkpt lat="44.81828" lon="9.6574683"><ele>525.0</ele><time>2026-05-01T14:06:05.996Z</time></trkpt><trkpt lat="44.8181783" lon="9.6573833"><ele>525.0</ele><time>2026-05-01T14:06:06.996Z</time></trkpt><trkpt lat="44.8180617" lon="9.6573167"><ele>525.0</ele><time>2026-05-01T14:06:07.996Z</time></trkpt><trkpt lat="44.817935" lon="9.6572717"><ele>525.0</ele><time>2026-05-01T14:06:08.995Z</time></trkpt><trkpt lat="44.817815" lon="9.65724"><ele>525.0</ele><time>2026-05-01T14:06:09.995Z</time></trkpt><trkpt lat="44.8177067" lon="9.657205"><ele>525.0</ele><time>2026-05-01T14:06:10.997Z</time></trkpt><trkpt lat="44.8176117" lon="9.6571533"><ele>525.0</ele><time>2026-05-01T14:06:11.996Z</time></trkpt><trkpt lat="44.8175317" lon="9.6570733"><ele>525.0</ele><time>2026-05-01T14:06:12.996Z</time></trkpt><trkpt lat="44.81747" lon="9.6569667"><ele>525.0</ele><time>2026-05-01T14:06:13.996Z</time></trkpt><trkpt lat="44.8174183" lon="9.6568533"><ele>525.0</ele><time>2026-05-01T14:06:14.997Z</time></trkpt><trkpt lat="44.8173617" lon="9.65675"><ele>525.0</ele><time>2026-05-01T14:06:15.995Z</time></trkpt><trkpt lat="44.8172783" lon="9.6566683"><ele>525.0</ele><time>2026-05-01T14:06:16.996Z</time></trkpt><trkpt lat="44.8171733" lon="9.656605"><ele>525.0</ele><time>2026-05-01T14:06:17.996Z</time></trkpt><trkpt lat="44.81706" lon="9.656565"><ele>525.0</ele><time>2026-05-01T14:06:18.996Z</time></trkpt><trkpt lat="44.8169433" lon="9.6565483"><ele>525.0</ele><time>2026-05-01T14:06:19.995Z</time></trkpt><trkpt lat="44.8168233" lon="9.65656"><ele>525.0</ele><time>2026-05-01T14:06:20.996Z</time></trkpt><trkpt lat="44.8167117" lon="9.6565967"><ele>525.0</ele><time>2026-05-01T14:06:21.995Z</time></trkpt><trkpt lat="44.8166083" lon="9.6566383"><ele>525.0</ele><time>2026-05-01T14:06:22.995Z</time></trkpt><trkpt lat="44.8165167" lon="9.6566467"><ele>525.0</ele><time>2026-05-01T14:06:23.995Z</time></trkpt><trkpt lat="44.8164383" lon="9.65662"><ele>526.1666666666666</ele><time>2026-05-01T14:06:24.995Z</time></trkpt><trkpt lat="44.8163817" lon="9.6565533"><ele>527.3333333333334</ele><time>2026-05-01T14:06:25.996Z</time></trkpt><trkpt lat="44.8163417" lon="9.6564667"><ele>528.5</ele><time>2026-05-01T14:06:26.997Z</time></trkpt><trkpt lat="44.8163133" lon="9.6563533"><ele>529.6666666666667</ele><time>2026-05-01T14:06:27.996Z</time></trkpt><trkpt lat="44.816305" lon="9.6562433"><ele>530.8333333333334</ele><time>2026-05-01T14:06:28.996Z</time></trkpt><trkpt lat="44.8162967" lon="9.65614"><ele>532.0</ele><time>2026-05-01T14:06:29.997Z</time></trkpt><trkpt lat="44.8162883" lon="9.656045"><ele>532.0</ele><time>2026-05-01T14:06:30.996Z</time></trkpt><trkpt lat="44.8162383" lon="9.6559733"><ele>532.0</ele><time>2026-05-01T14:06:32.996Z</time></trkpt><trkpt lat="44.8162033" lon="9.6560667"><ele>532.0</ele><time>2026-05-01T14:06:34.996Z</time></trkpt><trkpt lat="44.8162033" lon="9.65616"><ele>532.0</ele><time>2026-05-01T14:06:35.996Z</time></trkpt><trkpt lat="44.8162083" lon="9.65628"><ele>532.0</ele><time>2026-05-01T14:06:36.997Z</time></trkpt><trkpt lat="44.8162017" lon="9.65641"><ele>532.0</ele><time>2026-05-01T14:06:37.998Z</time></trkpt><trkpt lat="44.816175" lon="9.65655"><ele>533.4</ele><time>2026-05-01T14:06:38.996Z</time></trkpt><trkpt lat="44.8161467" lon="9.6566933"><ele>534.8000000000001</ele><time>2026-05-01T14:06:39.996Z</time></trkpt><trkpt lat="44.8161333" lon="9.6568433"><ele>536.2</ele><time>2026-05-01T14:06:40.996Z</time></trkpt><trkpt lat="44.8161267" lon="9.6569867"><ele>537.6</ele><time>2026-05-01T14:06:41.995Z</time></trkpt><trkpt lat="44.8161183" lon="9.657115"><ele>539.0</ele><time>2026-05-01T14:06:42.995Z</time></trkpt><trkpt lat="44.8160933" lon="9.6572167"><ele>541.4</ele><time>2026-05-01T14:06:43.995Z</time></trkpt><trkpt lat="44.8160517" lon="9.65731"><ele>543.8</ele><time>2026-05-01T14:06:44.995Z</time></trkpt><trkpt lat="44.8159833" lon="9.6573883"><ele>546.2</ele><time>2026-05-01T14:06:45.995Z</time></trkpt><trkpt lat="44.8158917" lon="9.65745"><ele>548.6</ele><time>2026-05-01T14:06:46.995Z</time></trkpt><trkpt lat="44.8157833" lon="9.6575083"><ele>551.0</ele><time>2026-05-01T14:06:47.995Z</time></trkpt><trkpt lat="44.8156583" lon="9.6575633"><ele>552.8</ele><time>2026-05-01T14:06:48.995Z</time></trkpt><trkpt lat="44.815535" lon="9.6576183"><ele>554.6</ele><time>2026-05-01T14:06:49.996Z</time></trkpt><trkpt lat="44.81543" lon="9.6576717"><ele>556.4</ele><time>2026-05-01T14:06:50.996Z</time></trkpt><trkpt lat="44.8153367" lon="9.657735"><ele>558.2</ele><time>2026-05-01T14:06:51.995Z</time></trkpt><trkpt lat="44.815265" lon="9.6578183"><ele>560.0</ele><time>2026-05-01T14:06:52.995Z</time></trkpt><trkpt lat="44.8152117" lon="9.6579217"><ele>561.6666666666666</ele><time>2026-05-01T14:06:53.995Z</time></trkpt><trkpt lat="44.8151783" lon="9.658035"><ele>563.3333333333333</ele><time>2026-05-01T14:06:54.996Z</time></trkpt><trkpt lat="44.8151583" lon="9.658135"><ele>565.0</ele><time>2026-05-01T14:06:55.996Z</time></trkpt><trkpt lat="44.8151367" lon="9.65822"><ele>566.6666666666666</ele><time>2026-05-01T14:06:56.996Z</time></trkpt><trkpt lat="44.8150583" lon="9.6582867"><ele>568.3333333333334</ele><time>2026-05-01T14:06:58.996Z</time></trkpt><trkpt lat="44.8149533" lon="9.65822"><ele>570.0</ele><time>2026-05-01T14:07:00.996Z</time></trkpt><trkpt lat="44.8148967" lon="9.6581667"><ele>570.0</ele><time>2026-05-01T14:07:01.998Z</time></trkpt><trkpt lat="44.8148317" lon="9.6580917"><ele>570.0</ele><time>2026-05-01T14:07:02.997Z</time></trkpt><trkpt lat="44.814765" lon="9.6580067"><ele>570.0</ele><time>2026-05-01T14:07:03.998Z</time></trkpt><trkpt lat="44.8146967" lon="9.6579283"><ele>570.0</ele><time>2026-05-01T14:07:04.997Z</time></trkpt><trkpt lat="44.8146317" lon="9.6578483"><ele>570.0</ele><time>2026-05-01T14:07:05.998Z</time></trkpt><trkpt lat="44.81457" lon="9.65777"><ele>570.0</ele><time>2026-05-01T14:07:06.998Z</time></trkpt><trkpt lat="44.814515" lon="9.6577"><ele>570.8</ele><time>2026-05-01T14:07:07.997Z</time></trkpt><trkpt lat="44.8144617" lon="9.6576417"><ele>571.6</ele><time>2026-05-01T14:07:08.997Z</time></trkpt><trkpt lat="44.8143533" lon="9.6575383"><ele>572.4</ele><time>2026-05-01T14:07:10.997Z</time></trkpt><trkpt lat="44.8142817" lon="9.6574583"><ele>573.2</ele><time>2026-05-01T14:07:11.996Z</time></trkpt><trkpt lat="44.814215" lon="9.6573483"><ele>574.0</ele><time>2026-05-01T14:07:12.995Z</time></trkpt><trkpt lat="44.8141617" lon="9.6572"><ele>575.25</ele><time>2026-05-01T14:07:13.997Z</time></trkpt><trkpt lat="44.8141133" lon="9.657045"><ele>576.5</ele><time>2026-05-01T14:07:14.996Z</time></trkpt><trkpt lat="44.81407" lon="9.6568833"><ele>577.75</ele><time>2026-05-01T14:07:15.995Z</time></trkpt><trkpt lat="44.8140217" lon="9.6567167"><ele>579.0</ele><time>2026-05-01T14:07:16.996Z</time></trkpt><trkpt lat="44.8139683" lon="9.6565483"><ele>581.2</ele><time>2026-05-01T14:07:17.996Z</time></trkpt><trkpt lat="44.813915" lon="9.65639"><ele>583.4</ele><time>2026-05-01T14:07:18.995Z</time></trkpt><trkpt lat="44.81387" lon="9.65625"><ele>585.6</ele><time>2026-05-01T14:07:19.995Z</time></trkpt><trkpt lat="44.813825" lon="9.656125"><ele>587.8</ele><time>2026-05-01T14:07:20.996Z</time></trkpt><trkpt lat="44.8137767" lon="9.656015"><ele>590.0</ele><time>2026-05-01T14:07:21.997Z</time></trkpt><trkpt lat="44.8137183" lon="9.6559183"><ele>590.0</ele><time>2026-05-01T14:07:22.995Z</time></trkpt><trkpt lat="44.8136517" lon="9.6558217"><ele>590.0</ele><time>2026-05-01T14:07:23.997Z</time></trkpt><trkpt lat="44.813595" lon="9.655715"><ele>590.0</ele><time>2026-05-01T14:07:24.997Z</time></trkpt><trkpt lat="44.81355" lon="9.6555883"><ele>590.0</ele><time>2026-05-01T14:07:25.995Z</time></trkpt><trkpt lat="44.8135267" lon="9.6554533"><ele>590.0</ele><time>2026-05-01T14:07:26.996Z</time></trkpt><trkpt lat="44.8135067" lon="9.65532"><ele>590.1666666666666</ele><time>2026-05-01T14:07:27.997Z</time></trkpt><trkpt lat="44.8134933" lon="9.655185"><ele>590.3333333333333</ele><time>2026-05-01T14:07:28.996Z</time></trkpt><trkpt lat="44.813485" lon="9.65506"><ele>590.5</ele><time>2026-05-01T14:07:29.995Z</time></trkpt><trkpt lat="44.8134783" lon="9.6549367"><ele>590.6666666666666</ele><time>2026-05-01T14:07:30.996Z</time></trkpt><trkpt lat="44.8134717" lon="9.6548233"><ele>590.8333333333334</ele><time>2026-05-01T14:07:31.996Z</time></trkpt><trkpt lat="44.8134633" lon="9.6547217"><ele>591.0</ele><time>2026-05-01T14:07:32.996Z</time></trkpt><trkpt lat="44.8134467" lon="9.65463"><ele>591.0</ele><time>2026-05-01T14:07:33.997Z</time></trkpt><trkpt lat="44.813415" lon="9.6545533"><ele>591.0</ele><time>2026-05-01T14:07:34.997Z</time></trkpt><trkpt lat="44.8133067" lon="9.654465"><ele>591.0</ele><time>2026-05-01T14:07:36.997Z</time></trkpt><trkpt lat="44.8132383" lon="9.654445"><ele>591.0</ele><time>2026-05-01T14:07:37.996Z</time></trkpt><trkpt lat="44.8131667" lon="9.6544367"><ele>591.0</ele><time>2026-05-01T14:07:38.997Z</time></trkpt><trkpt lat="44.8131017" lon="9.6544367"><ele>591.0</ele><time>2026-05-01T14:07:39.996Z</time></trkpt><trkpt lat="44.8129867" lon="9.6544817"><ele>591.0</ele><time>2026-05-01T14:07:41.997Z</time></trkpt><trkpt lat="44.812885" lon="9.65457"><ele>591.0</ele><time>2026-05-01T14:07:43.996Z</time></trkpt><trkpt lat="44.8128017" lon="9.6546567"><ele>591.0</ele><time>2026-05-01T14:07:45.997Z</time></trkpt><trkpt lat="44.8127333" lon="9.6547267"><ele>591.0</ele><time>2026-05-01T14:07:47.995Z</time></trkpt><trkpt lat="44.8126533" lon="9.6547733"><ele>591.0</ele><time>2026-05-01T14:07:49.997Z</time></trkpt><trkpt lat="44.8125633" lon="9.6547283"><ele>589.0</ele><time>2026-05-01T14:07:51.996Z</time></trkpt><trkpt lat="44.81249" lon="9.654595"><ele>587.0</ele><time>2026-05-01T14:07:53.997Z</time></trkpt><trkpt lat="44.812405" lon="9.65449"><ele>585.0</ele><time>2026-05-01T14:07:55.995Z</time></trkpt><trkpt lat="44.8122867" lon="9.6544683"><ele>583.0</ele><time>2026-05-01T14:07:57.997Z</time></trkpt><trkpt lat="44.8122233" lon="9.6544817"><ele>581.0</ele><time>2026-05-01T14:07:58.996Z</time></trkpt><trkpt lat="44.81216" lon="9.6545067"><ele>581.0</ele><time>2026-05-01T14:07:59.997Z</time></trkpt><trkpt lat="44.8120933" lon="9.6545467"><ele>581.0</ele><time>2026-05-01T14:08:00.996Z</time></trkpt><trkpt lat="44.8120233" lon="9.6545933"><ele>581.0</ele><time>2026-05-01T14:08:01.997Z</time></trkpt><trkpt lat="44.8119517" lon="9.654645"><ele>581.0</ele><time>2026-05-01T14:08:02.995Z</time></trkpt><trkpt lat="44.8118783" lon="9.654695"><ele>581.0</ele><time>2026-05-01T14:08:03.997Z</time></trkpt><trkpt lat="44.8117983" lon="9.6547383"><ele>581.0</ele><time>2026-05-01T14:08:04.997Z</time></trkpt><trkpt lat="44.8117167" lon="9.6547667"><ele>580.0</ele><time>2026-05-01T14:08:05.996Z</time></trkpt><trkpt lat="44.8116333" lon="9.654785"><ele>579.0</ele><time>2026-05-01T14:08:06.996Z</time></trkpt><trkpt lat="44.8115483" lon="9.6547967"><ele>578.0</ele><time>2026-05-01T14:08:07.996Z</time></trkpt><trkpt lat="44.811465" lon="9.6548017"><ele>577.0</ele><time>2026-05-01T14:08:08.997Z</time></trkpt><trkpt lat="44.811385" lon="9.6548017"><ele>576.0</ele><time>2026-05-01T14:08:09.996Z</time></trkpt><trkpt lat="44.8112967" lon="9.6547867"><ele>575.0</ele><time>2026-05-01T14:08:10.995Z</time></trkpt><trkpt lat="44.811205" lon="9.6547617"><ele>575.0</ele><time>2026-05-01T14:08:11.997Z</time></trkpt><trkpt lat="44.811115" lon="9.6547317"><ele>575.0</ele><time>2026-05-01T14:08:12.996Z</time></trkpt><trkpt lat="44.81103" lon="9.6546967"><ele>575.0</ele><time>2026-05-01T14:08:13.995Z</time></trkpt><trkpt lat="44.81094" lon="9.654665"><ele>575.0</ele><time>2026-05-01T14:08:14.997Z</time></trkpt><trkpt lat="44.8108483" lon="9.6546333"><ele>575.0</ele><time>2026-05-01T14:08:15.996Z</time></trkpt><trkpt lat="44.8107567" lon="9.65459"><ele>575.2</ele><time>2026-05-01T14:08:16.997Z</time></trkpt><trkpt lat="44.8106633" lon="9.6545383"><ele>575.4</ele><time>2026-05-01T14:08:17.996Z</time></trkpt><trkpt lat="44.81056" lon="9.6545067"><ele>575.6</ele><time>2026-05-01T14:08:18.996Z</time></trkpt><trkpt lat="44.8104417" lon="9.6545033"><ele>575.8</ele><time>2026-05-01T14:08:19.996Z</time></trkpt><trkpt lat="44.8103183" lon="9.65452"><ele>576.0</ele><time>2026-05-01T14:08:20.998Z</time></trkpt><trkpt lat="44.81021" lon="9.654545"><ele>578.2</ele><time>2026-05-01T14:08:21.996Z</time></trkpt><trkpt lat="44.8101117" lon="9.6545817"><ele>580.4000000000001</ele><time>2026-05-01T14:08:22.996Z</time></trkpt><trkpt lat="44.8100183" lon="9.65464"><ele>582.6</ele><time>2026-05-01T14:08:23.996Z</time></trkpt><trkpt lat="44.8099317" lon="9.6547267"><ele>584.8000000000001</ele><time>2026-05-01T14:08:24.995Z</time></trkpt><trkpt lat="44.8098583" lon="9.6548217"><ele>587.0</ele><time>2026-05-01T14:08:25.995Z</time></trkpt><trkpt lat="44.8098017" lon="9.6549133"><ele>587.0</ele><time>2026-05-01T14:08:26.996Z</time></trkpt><trkpt lat="44.8097533" lon="9.6549917"><ele>587.0</ele><time>2026-05-01T14:08:27.996Z</time></trkpt><trkpt lat="44.8097067" lon="9.6550517"><ele>587.0</ele><time>2026-05-01T14:08:28.996Z</time></trkpt><trkpt lat="44.8096017" lon="9.6550833"><ele>587.0</ele><time>2026-05-01T14:08:30.997Z</time></trkpt><trkpt lat="44.8094867" lon="9.6550017"><ele>587.0</ele><time>2026-05-01T14:08:32.996Z</time></trkpt><trkpt lat="44.809425" lon="9.6549283"><ele>587.0</ele><time>2026-05-01T14:08:33.995Z</time></trkpt><trkpt lat="44.8093617" lon="9.6548367"><ele>587.0</ele><time>2026-05-01T14:08:34.997Z</time></trkpt><trkpt lat="44.8092983" lon="9.6547417"><ele>587.0</ele><time>2026-05-01T14:08:35.998Z</time></trkpt><trkpt lat="44.8092367" lon="9.6546567"><ele>587.0</ele><time>2026-05-01T14:08:36.996Z</time></trkpt><trkpt lat="44.8091767" lon="9.6545817"><ele>587.0</ele><time>2026-05-01T14:08:37.996Z</time></trkpt><trkpt lat="44.80911" lon="9.654525"><ele>587.0</ele><time>2026-05-01T14:08:38.998Z</time></trkpt><trkpt lat="44.8090367" lon="9.654475"><ele>589.1666666666666</ele><time>2026-05-01T14:08:39.997Z</time></trkpt><trkpt lat="44.8089583" lon="9.6544267"><ele>591.3333333333333</ele><time>2026-05-01T14:08:40.997Z</time></trkpt><trkpt lat="44.8088867" lon="9.654375"><ele>593.5</ele><time>2026-05-01T14:08:41.996Z</time></trkpt><trkpt lat="44.80882" lon="9.6543167"><ele>595.6666666666666</ele><time>2026-05-01T14:08:42.996Z</time></trkpt><trkpt lat="44.8087583" lon="9.654255"><ele>597.8333333333334</ele><time>2026-05-01T14:08:43.997Z</time></trkpt><trkpt lat="44.808705" lon="9.654185"><ele>600.0</ele><time>2026-05-01T14:08:44.997Z</time></trkpt><trkpt lat="44.808665" lon="9.6541"><ele>600.0</ele><time>2026-05-01T14:08:45.995Z</time></trkpt><trkpt lat="44.8086367" lon="9.654"><ele>600.0</ele><time>2026-05-01T14:08:46.996Z</time></trkpt><trkpt lat="44.8086133" lon="9.6538967"><ele>600.0</ele><time>2026-05-01T14:08:47.996Z</time></trkpt><trkpt lat="44.8085967" lon="9.6537967"><ele>600.0</ele><time>2026-05-01T14:08:48.996Z</time></trkpt><trkpt lat="44.80858" lon="9.6537083"><ele>600.0</ele><time>2026-05-01T14:08:49.996Z</time></trkpt><trkpt lat="44.808505" lon="9.653595"><ele>600.0</ele><time>2026-05-01T14:08:51.995Z</time></trkpt><trkpt lat="44.8083967" lon="9.6535967"><ele>602.5</ele><time>2026-05-01T14:08:53.996Z</time></trkpt><trkpt lat="44.808295" lon="9.6536933"><ele>605.0</ele><time>2026-05-01T14:08:55.996Z</time></trkpt><trkpt lat="44.8082533" lon="9.6537667"><ele>607.5</ele><time>2026-05-01T14:08:56.996Z</time></trkpt><trkpt lat="44.8082167" lon="9.65385"><ele>610.0</ele><time>2026-05-01T14:08:57.996Z</time></trkpt><trkpt lat="44.8081817" lon="9.6539417"><ele>612.5</ele><time>2026-05-01T14:08:58.996Z</time></trkpt><trkpt lat="44.8081433" lon="9.6540467"><ele>615.0</ele><time>2026-05-01T14:08:59.996Z</time></trkpt><trkpt lat="44.8081017" lon="9.6541583"><ele>615.0</ele><time>2026-05-01T14:09:00.995Z</time></trkpt><trkpt lat="44.8080533" lon="9.6542683"><ele>615.0</ele><time>2026-05-01T14:09:01.996Z</time></trkpt><trkpt lat="44.8080083" lon="9.654375"><ele>615.0</ele><time>2026-05-01T14:09:02.997Z</time></trkpt><trkpt lat="44.80797" lon="9.65448"><ele>615.0</ele><time>2026-05-01T14:09:03.996Z</time></trkpt><trkpt lat="44.80794" lon="9.6545833"><ele>615.0</ele><time>2026-05-01T14:09:04.997Z</time></trkpt><trkpt lat="44.80792" lon="9.654695"><ele>615.0</ele><time>2026-05-01T14:09:05.997Z</time></trkpt><trkpt lat="44.8079017" lon="9.6548117"><ele>614.8333333333334</ele><time>2026-05-01T14:09:06.997Z</time></trkpt><trkpt lat="44.8078867" lon="9.6549283"><ele>614.6666666666666</ele><time>2026-05-01T14:09:07.996Z</time></trkpt><trkpt lat="44.8078733" lon="9.6550433"><ele>614.5</ele><time>2026-05-01T14:09:08.996Z</time></trkpt><trkpt lat="44.8078533" lon="9.655145"><ele>614.3333333333333</ele><time>2026-05-01T14:09:09.996Z</time></trkpt><trkpt lat="44.8078233" lon="9.655235"><ele>614.1666666666666</ele><time>2026-05-01T14:09:10.996Z</time></trkpt><trkpt lat="44.80778" lon="9.6553183"><ele>614.0</ele><time>2026-05-01T14:09:11.997Z</time></trkpt><trkpt lat="44.8077267" lon="9.6553933"><ele>614.0</ele><time>2026-05-01T14:09:12.997Z</time></trkpt><trkpt lat="44.80768" lon="9.655465"><ele>614.0</ele><time>2026-05-01T14:09:13.997Z</time></trkpt><trkpt lat="44.8076533" lon="9.6556133"><ele>614.0</ele><time>2026-05-01T14:09:15.996Z</time></trkpt><trkpt lat="44.8076817" lon="9.655695"><ele>614.0</ele><time>2026-05-01T14:09:16.996Z</time></trkpt><trkpt lat="44.8077683" lon="9.6558467"><ele>614.0</ele><time>2026-05-01T14:09:18.995Z</time></trkpt><trkpt lat="44.8078133" lon="9.6559417"><ele>614.0</ele><time>2026-05-01T14:09:19.997Z</time></trkpt><trkpt lat="44.8078483" lon="9.656035"><ele>614.0</ele><time>2026-05-01T14:09:20.998Z</time></trkpt><trkpt lat="44.807875" lon="9.6561217"><ele>614.0</ele><time>2026-05-01T14:09:21.996Z</time></trkpt><trkpt lat="44.8078867" lon="9.65628"><ele>614.0</ele><time>2026-05-01T14:09:23.997Z</time></trkpt><trkpt lat="44.8078383" lon="9.6563967"><ele>614.0</ele><time>2026-05-01T14:09:25.996Z</time></trkpt><trkpt lat="44.8077617" lon="9.656495"><ele>614.2</ele><time>2026-05-01T14:09:27.996Z</time></trkpt><trkpt lat="44.8076833" lon="9.6566233"><ele>614.4</ele><time>2026-05-01T14:09:29.996Z</time></trkpt><trkpt lat="44.807645" lon="9.6566967"><ele>614.6</ele><time>2026-05-01T14:09:30.996Z</time></trkpt><trkpt lat="44.8076083" lon="9.6567717"><ele>614.8</ele><time>2026-05-01T14:09:31.997Z</time></trkpt><trkpt lat="44.8075467" lon="9.6569233"><ele>615.0</ele><time>2026-05-01T14:09:33.997Z</time></trkpt><trkpt lat="44.80749" lon="9.6570867"><ele>621.6</ele><time>2026-05-01T14:09:35.998Z</time></trkpt><trkpt lat="44.8074567" lon="9.6571717"><ele>628.2</ele><time>2026-05-01T14:09:37Z</time></trkpt><trkpt lat="44.807415" lon="9.6572483"><ele>634.8</ele><time>2026-05-01T14:09:37.998Z</time></trkpt><trkpt lat="44.8073717" lon="9.6573167"><ele>641.4</ele><time>2026-05-01T14:09:38.998Z</time></trkpt><trkpt lat="44.8072933" lon="9.6574467"><ele>648.0</ele><time>2026-05-01T14:09:40.998Z</time></trkpt><trkpt lat="44.80729" lon="9.6576317"><ele>648.0</ele><time>2026-05-01T14:09:42.997Z</time></trkpt><trkpt lat="44.8073233" lon="9.6577233"><ele>648.0</ele><time>2026-05-01T14:09:43.999Z</time></trkpt><trkpt lat="44.807365" lon="9.6578233"><ele>648.0</ele><time>2026-05-01T14:09:44.998Z</time></trkpt><trkpt lat="44.8073967" lon="9.65792"><ele>648.0</ele><time>2026-05-01T14:09:45.997Z</time></trkpt><trkpt lat="44.8074183" lon="9.6580067"><ele>648.0</ele><time>2026-05-01T14:09:46.996Z</time></trkpt><trkpt lat="44.8074167" lon="9.65816"><ele>648.0</ele><time>2026-05-01T14:09:48.996Z</time></trkpt><trkpt lat="44.8073233" lon="9.6582717"><ele>647.2</ele><time>2026-05-01T14:09:50.997Z</time></trkpt><trkpt lat="44.8072433" lon="9.658315"><ele>646.4</ele><time>2026-05-01T14:09:51.997Z</time></trkpt><trkpt lat="44.8071417" lon="9.6583667"><ele>645.6</ele><time>2026-05-01T14:09:52.998Z</time></trkpt><trkpt lat="44.8070517" lon="9.6584283"><ele>644.8000000000001</ele><time>2026-05-01T14:09:53.999Z</time></trkpt><trkpt lat="44.80695" lon="9.6584917"><ele>644.0</ele><time>2026-05-01T14:09:54.998Z</time></trkpt><trkpt lat="44.8068533" lon="9.65856"><ele>641.6</ele><time>2026-05-01T14:09:55.996Z</time></trkpt><trkpt lat="44.806755" lon="9.658605"><ele>639.2</ele><time>2026-05-01T14:09:56.996Z</time></trkpt><trkpt lat="44.8066717" lon="9.6586267"><ele>636.8000000000001</ele><time>2026-05-01T14:09:57.998Z</time></trkpt><trkpt lat="44.806575" lon="9.6586317"><ele>634.4000000000001</ele><time>2026-05-01T14:09:58.997Z</time></trkpt><trkpt lat="44.8064717" lon="9.658615"><ele>632.0</ele><time>2026-05-01T14:09:59.997Z</time></trkpt><trkpt lat="44.80637" lon="9.6586"><ele>637.6</ele><time>2026-05-01T14:10:00.996Z</time></trkpt><trkpt lat="44.806265" lon="9.6585733"><ele>643.2</ele><time>2026-05-01T14:10:01.996Z</time></trkpt><trkpt lat="44.806165" lon="9.6585267"><ele>648.8</ele><time>2026-05-01T14:10:02.996Z</time></trkpt><trkpt lat="44.806065" lon="9.6584833"><ele>654.4</ele><time>2026-05-01T14:10:03.996Z</time></trkpt><trkpt lat="44.80597" lon="9.6584417"><ele>660.0</ele><time>2026-05-01T14:10:04.997Z</time></trkpt><trkpt lat="44.8058783" lon="9.6584017"><ele>660.0</ele><time>2026-05-01T14:10:05.997Z</time></trkpt><trkpt lat="44.8057867" lon="9.6583767"><ele>660.0</ele><time>2026-05-01T14:10:06.996Z</time></trkpt><trkpt lat="44.8056883" lon="9.6583717"><ele>660.0</ele><time>2026-05-01T14:10:07.996Z</time></trkpt><trkpt lat="44.8055917" lon="9.6583733"><ele>660.0</ele><time>2026-05-01T14:10:08.997Z</time></trkpt><trkpt lat="44.8055" lon="9.6583667"><ele>660.0</ele><time>2026-05-01T14:10:09.997Z</time></trkpt><trkpt lat="44.805405" lon="9.6583567"><ele>660.0</ele><time>2026-05-01T14:10:10.996Z</time></trkpt><trkpt lat="44.8053183" lon="9.6583433"><ele>660.0</ele><time>2026-05-01T14:10:11.997Z</time></trkpt><trkpt lat="44.80522" lon="9.65836"><ele>660.0</ele><time>2026-05-01T14:10:12.998Z</time></trkpt><trkpt lat="44.8051133" lon="9.6583933"><ele>660.0</ele><time>2026-05-01T14:10:13.996Z</time></trkpt><trkpt lat="44.8049933" lon="9.6584333"><ele>660.0</ele><time>2026-05-01T14:10:14.996Z</time></trkpt><trkpt lat="44.80487" lon="9.6584733"><ele>660.5</ele><time>2026-05-01T14:10:15.996Z</time></trkpt><trkpt lat="44.8047583" lon="9.6585167"><ele>661.0</ele><time>2026-05-01T14:10:16.996Z</time></trkpt><trkpt lat="44.8046617" lon="9.658565"><ele>661.5</ele><time>2026-05-01T14:10:17.996Z</time></trkpt><trkpt lat="44.8045883" lon="9.6586233"><ele>662.0</ele><time>2026-05-01T14:10:18.997Z</time></trkpt><trkpt lat="44.8045283" lon="9.6586917"><ele>662.5</ele><time>2026-05-01T14:10:19.997Z</time></trkpt><trkpt lat="44.80449" lon="9.6587683"><ele>663.0</ele><time>2026-05-01T14:10:20.996Z</time></trkpt><trkpt lat="44.80448" lon="9.6588567"><ele>661.2</ele><time>2026-05-01T14:10:21.997Z</time></trkpt><trkpt lat="44.8044867" lon="9.6589467"><ele>659.4</ele><time>2026-05-01T14:10:22.996Z</time></trkpt><trkpt lat="44.8045133" lon="9.659065"><ele>657.6</ele><time>2026-05-01T14:10:23.997Z</time></trkpt><trkpt lat="44.8045533" lon="9.6592"><ele>655.8000000000001</ele><time>2026-05-01T14:10:24.998Z</time></trkpt><trkpt lat="44.8045967" lon="9.659335"><ele>654.0</ele><time>2026-05-01T14:10:25.997Z</time></trkpt><trkpt lat="44.8046333" lon="9.6594633"><ele>654.0</ele><time>2026-05-01T14:10:26.997Z</time></trkpt><trkpt lat="44.8046617" lon="9.6595833"><ele>654.0</ele><time>2026-05-01T14:10:27.998Z</time></trkpt><trkpt lat="44.8046917" lon="9.6597117"><ele>654.0</ele><time>2026-05-01T14:10:28.996Z</time></trkpt><trkpt lat="44.804705" lon="9.659845"><ele>654.0</ele><time>2026-05-01T14:10:29.996Z</time></trkpt><trkpt lat="44.80471" lon="9.6599767"><ele>654.0</ele><time>2026-05-01T14:10:30.997Z</time></trkpt><trkpt lat="44.8047067" lon="9.6601083"><ele>654.0</ele><time>2026-05-01T14:10:31.996Z</time></trkpt><trkpt lat="44.804705" lon="9.6602283"><ele>654.0</ele><time>2026-05-01T14:10:32.997Z</time></trkpt><trkpt lat="44.8046967" lon="9.6603283"><ele>654.0</ele><time>2026-05-01T14:10:33.996Z</time></trkpt><trkpt lat="44.80469" lon="9.6604667"><ele>654.0</ele><time>2026-05-01T14:10:35.997Z</time></trkpt><trkpt lat="44.80472" lon="9.66059"><ele>654.0</ele><time>2026-05-01T14:10:38.997Z</time></trkpt><trkpt lat="44.8047817" lon="9.6606733"><ele>654.0</ele><time>2026-05-01T14:10:40.997Z</time></trkpt><trkpt lat="44.8048467" lon="9.6607917"><ele>655.3333333333334</ele><time>2026-05-01T14:10:42.997Z</time></trkpt><trkpt lat="44.8048733" lon="9.6609567"><ele>656.6666666666666</ele><time>2026-05-01T14:10:44.997Z</time></trkpt><trkpt lat="44.8048733" lon="9.6610467"><ele>658.0</ele><time>2026-05-01T14:10:45.998Z</time></trkpt><trkpt lat="44.804865" lon="9.6611433"><ele>659.3333333333333</ele><time>2026-05-01T14:10:46.996Z</time></trkpt><trkpt lat="44.8048483" lon="9.6612367"><ele>660.6666666666666</ele><time>2026-05-01T14:10:47.996Z</time></trkpt><trkpt lat="44.80483" lon="9.6613283"><ele>662.0</ele><time>2026-05-01T14:10:48.996Z</time></trkpt><trkpt lat="44.80481" lon="9.6614217"><ele>662.2857142857143</ele><time>2026-05-01T14:10:49.996Z</time></trkpt><trkpt lat="44.8047933" lon="9.66151"><ele>662.5714285714286</ele><time>2026-05-01T14:10:50.997Z</time></trkpt><trkpt lat="44.8047867" lon="9.6616"><ele>662.8571428571429</ele><time>2026-05-01T14:10:51.996Z</time></trkpt><trkpt lat="44.8047933" lon="9.6616917"><ele>663.1428571428571</ele><time>2026-05-01T14:10:52.996Z</time></trkpt><trkpt lat="44.804815" lon="9.66178"><ele>663.4285714285714</ele><time>2026-05-01T14:10:53.997Z</time></trkpt><trkpt lat="44.8048417" lon="9.6618733"><ele>663.7142857142857</ele><time>2026-05-01T14:10:54.997Z</time></trkpt><trkpt lat="44.80486" lon="9.661975"><ele>664.0</ele><time>2026-05-01T14:10:55.996Z</time></trkpt><trkpt lat="44.8048717" lon="9.66208"><ele>662.5714285714286</ele><time>2026-05-01T14:10:56.996Z</time></trkpt><trkpt lat="44.8048783" lon="9.6621833"><ele>661.1428571428572</ele><time>2026-05-01T14:10:57.997Z</time></trkpt><trkpt lat="44.8048867" lon="9.6622867"><ele>659.7142857142858</ele><time>2026-05-01T14:10:58.997Z</time></trkpt><trkpt lat="44.8049083" lon="9.6623817"><ele>658.2857142857142</ele><time>2026-05-01T14:10:59.997Z</time></trkpt><trkpt lat="44.804945" lon="9.6624733"><ele>656.8571428571429</ele><time>2026-05-01T14:11:00.996Z</time></trkpt><trkpt lat="44.8049917" lon="9.6625617"><ele>655.4285714285714</ele><time>2026-05-01T14:11:01.996Z</time></trkpt><trkpt lat="44.8050417" lon="9.6626467"><ele>654.0</ele><time>2026-05-01T14:11:02.997Z</time></trkpt><trkpt lat="44.8050883" lon="9.6627333"><ele>651.8333333333334</ele><time>2026-05-01T14:11:03.998Z</time></trkpt><trkpt lat="44.805135" lon="9.6628233"><ele>649.6666666666666</ele><time>2026-05-01T14:11:04.996Z</time></trkpt><trkpt lat="44.8051767" lon="9.6629167"><ele>647.5</ele><time>2026-05-01T14:11:05.996Z</time></trkpt><trkpt lat="44.80522" lon="9.66301"><ele>645.3333333333333</ele><time>2026-05-01T14:11:06.997Z</time></trkpt><trkpt lat="44.8052717" lon="9.66309"><ele>643.1666666666666</ele><time>2026-05-01T14:11:07.997Z</time></trkpt><trkpt lat="44.8053267" lon="9.6631567"><ele>641.0</ele><time>2026-05-01T14:11:09.002Z</time></trkpt><trkpt lat="44.8053817" lon="9.6632083"><ele>640.8</ele><time>2026-05-01T14:11:09.998Z</time></trkpt><trkpt lat="44.8054383" lon="9.6632567"><ele>640.5999999999999</ele><time>2026-05-01T14:11:10.996Z</time></trkpt><trkpt lat="44.8055267" lon="9.6633733"><ele>640.4</ele><time>2026-05-01T14:11:12.996Z</time></trkpt><trkpt lat="44.805585" lon="9.6635133"><ele>640.2</ele><time>2026-05-01T14:11:14.996Z</time></trkpt><trkpt lat="44.805605" lon="9.663665"><ele>640.0</ele><time>2026-05-01T14:11:16.997Z</time></trkpt><trkpt lat="44.8055933" lon="9.6638267"><ele>637.0</ele><time>2026-05-01T14:11:18.997Z</time></trkpt><trkpt lat="44.80557" lon="9.663995"><ele>634.0</ele><time>2026-05-01T14:11:20.998Z</time></trkpt><trkpt lat="44.8055667" lon="9.664085"><ele>631.0</ele><time>2026-05-01T14:11:21.997Z</time></trkpt><trkpt lat="44.8055683" lon="9.6642533"><ele>628.0</ele><time>2026-05-01T14:11:23.997Z</time></trkpt><trkpt lat="44.8055733" lon="9.6644133"><ele>625.0</ele><time>2026-05-01T14:11:25.997Z</time></trkpt><trkpt lat="44.805575" lon="9.6645667"><ele>624.3333333333334</ele><time>2026-05-01T14:11:27.997Z</time></trkpt><trkpt lat="44.8056117" lon="9.66472"><ele>623.6666666666667</ele><time>2026-05-01T14:11:29.997Z</time></trkpt><trkpt lat="44.8056883" lon="9.6648467"><ele>623.0</ele><time>2026-05-01T14:11:31.997Z</time></trkpt><trkpt lat="44.8057267" lon="9.66492"><ele>622.3333333333334</ele><time>2026-05-01T14:11:32.999Z</time></trkpt><trkpt lat="44.8057617" lon="9.665"><ele>621.6666666666666</ele><time>2026-05-01T14:11:33.997Z</time></trkpt><trkpt lat="44.8057933" lon="9.6650817"><ele>621.0</ele><time>2026-05-01T14:11:34.996Z</time></trkpt><trkpt lat="44.805835" lon="9.6652367"><ele>620.0</ele><time>2026-05-01T14:11:36.996Z</time></trkpt><trkpt lat="44.8058717" lon="9.6653833"><ele>619.0</ele><time>2026-05-01T14:11:38.997Z</time></trkpt><trkpt lat="44.805945" lon="9.6654917"><ele>618.0</ele><time>2026-05-01T14:11:40.996Z</time></trkpt><trkpt lat="44.8060233" lon="9.6656083"><ele>617.0</ele><time>2026-05-01T14:11:42.998Z</time></trkpt><trkpt lat="44.80609" lon="9.66576"><ele>615.8571428571429</ele><time>2026-05-01T14:11:44.998Z</time></trkpt><trkpt lat="44.8061142" lon="9.6658528"><ele>614.7142857142857</ele><time>2026-05-01T14:11:45.997Z</time></trkpt><trkpt lat="44.8061428" lon="9.6659457"><ele>613.5714285714286</ele><time>2026-05-01T14:11:46.997Z</time></trkpt><trkpt lat="44.8061815" lon="9.666034"><ele>612.4285714285714</ele><time>2026-05-01T14:11:47.998Z</time></trkpt><trkpt lat="44.8062265" lon="9.6661204"><ele>611.2857142857142</ele><time>2026-05-01T14:11:49Z</time></trkpt><trkpt lat="44.80627" lon="9.6662042"><ele>610.1428571428571</ele><time>2026-05-01T14:11:49.998Z</time></trkpt><trkpt lat="44.8063079" lon="9.6662913"><ele>609.0</ele><time>2026-05-01T14:11:51Z</time></trkpt><trkpt lat="44.8063372" lon="9.6663851"><ele>609.0</ele><time>2026-05-01T14:11:51.998Z</time></trkpt><trkpt lat="44.806359" lon="9.6664798"><ele>609.0</ele><time>2026-05-01T14:11:52.998Z</time></trkpt><trkpt lat="44.8063681" lon="9.6665764"><ele>609.0</ele><time>2026-05-01T14:11:53.998Z</time></trkpt><trkpt lat="44.806372" lon="9.6666792"><ele>609.0</ele><time>2026-05-01T14:11:54.996Z</time></trkpt><trkpt lat="44.8063731" lon="9.6667873"><ele>609.0</ele><time>2026-05-01T14:11:55.996Z</time></trkpt><trkpt lat="44.8063738" lon="9.6668938"><ele>609.0</ele><time>2026-05-01T14:11:56.996Z</time></trkpt><trkpt lat="44.806378" lon="9.6669886"><ele>609.0</ele><time>2026-05-01T14:11:57.996Z</time></trkpt><trkpt lat="44.8063876" lon="9.6671563"><ele>609.1428571428571</ele><time>2026-05-01T14:11:59.996Z</time></trkpt><trkpt lat="44.8063988" lon="9.6673229"><ele>609.2857142857142</ele><time>2026-05-01T14:12:01.996Z</time></trkpt><trkpt lat="44.8064032" lon="9.6674125"><ele>609.4285714285714</ele><time>2026-05-01T14:12:02.997Z</time></trkpt><trkpt lat="44.8064118" lon="9.6675059"><ele>609.5714285714286</ele><time>2026-05-01T14:12:03.996Z</time></trkpt><trkpt lat="44.8064192" lon="9.6676017"><ele>609.7142857142857</ele><time>2026-05-01T14:12:04.997Z</time></trkpt><trkpt lat="44.8064293" lon="9.6676943"><ele>609.8571428571429</ele><time>2026-05-01T14:12:05.996Z</time></trkpt><trkpt lat="44.8064395" lon="9.6677839"><ele>610.0</ele><time>2026-05-01T14:12:06.997Z</time></trkpt><trkpt lat="44.8064713" lon="9.6679505"><ele>607.8</ele><time>2026-05-01T14:12:08.999Z</time></trkpt><trkpt lat="44.8065479" lon="9.668082"><ele>605.6</ele><time>2026-05-01T14:12:10.996Z</time></trkpt><trkpt lat="44.8066016" lon="9.6681919"><ele>603.4</ele><time>2026-05-01T14:12:12.997Z</time></trkpt><trkpt lat="44.8065814" lon="9.6682883"><ele>601.2</ele><time>2026-05-01T14:12:14.998Z</time></trkpt><trkpt lat="44.8065035" lon="9.6683113"><ele>599.0</ele><time>2026-05-01T14:12:16.996Z</time></trkpt><trkpt lat="44.8064011" lon="9.6682923"><ele>599.0</ele><time>2026-05-01T14:12:18.997Z</time></trkpt><trkpt lat="44.8063022" lon="9.6683144"><ele>599.0</ele><time>2026-05-01T14:12:20.997Z</time></trkpt><trkpt lat="44.8062212" lon="9.6683294"><ele>599.0</ele><time>2026-05-01T14:12:22.996Z</time></trkpt><trkpt lat="44.8061472" lon="9.6683546"><ele>599.0</ele><time>2026-05-01T14:12:25Z</time></trkpt><trkpt lat="44.80611" lon="9.6684276"><ele>599.0</ele><time>2026-05-01T14:12:26.997Z</time></trkpt><trkpt lat="44.8061174" lon="9.6685235"><ele>599.0</ele><time>2026-05-01T14:12:28.997Z</time></trkpt><trkpt lat="44.8061476" lon="9.6686443"><ele>595.4</ele><time>2026-05-01T14:12:30.997Z</time></trkpt><trkpt lat="44.8061719" lon="9.6687866"><ele>591.8</ele><time>2026-05-01T14:12:32.997Z</time></trkpt><trkpt lat="44.8062245" lon="9.6688976"><ele>588.2</ele><time>2026-05-01T14:12:34.996Z</time></trkpt><trkpt lat="44.8063021" lon="9.6689274"><ele>584.6</ele><time>2026-05-01T14:12:36.999Z</time></trkpt><trkpt lat="44.8063884" lon="9.6689045"><ele>581.0</ele><time>2026-05-01T14:12:38.997Z</time></trkpt><trkpt lat="44.8064715" lon="9.6689347"><ele>581.0</ele><time>2026-05-01T14:12:40.996Z</time></trkpt><trkpt lat="44.8065618" lon="9.6690108"><ele>581.0</ele><time>2026-05-01T14:12:42.998Z</time></trkpt><trkpt lat="44.8066591" lon="9.6691126"><ele>581.0</ele><time>2026-05-01T14:12:44.997Z</time></trkpt><trkpt lat="44.8067395" lon="9.6692058"><ele>581.0</ele><time>2026-05-01T14:12:46.996Z</time></trkpt><trkpt lat="44.8067627" lon="9.6693157"><ele>581.0</ele><time>2026-05-01T14:12:48.996Z</time></trkpt><trkpt lat="44.8067356" lon="9.6694233"><ele>577.2</ele><time>2026-05-01T14:12:50.997Z</time></trkpt><trkpt lat="44.8066556" lon="9.6694761"><ele>573.4000000000001</ele><time>2026-05-01T14:12:52.997Z</time></trkpt><trkpt lat="44.8065474" lon="9.6694855"><ele>569.6</ele><time>2026-05-01T14:12:54.997Z</time></trkpt><trkpt lat="44.8064389" lon="9.6695425"><ele>565.8000000000001</ele><time>2026-05-01T14:12:56.997Z</time></trkpt><trkpt lat="44.8063585" lon="9.6695889"><ele>562.0</ele><time>2026-05-01T14:12:58.996Z</time></trkpt><trkpt lat="44.8062721" lon="9.6696378"><ele>562.0</ele><time>2026-05-01T14:13:01.996Z</time></trkpt><trkpt lat="44.8061948" lon="9.6696302"><ele>562.0</ele><time>2026-05-01T14:13:03.996Z</time></trkpt><trkpt lat="44.8061033" lon="9.6695873"><ele>562.0</ele><time>2026-05-01T14:13:05.997Z</time></trkpt><trkpt lat="44.8059873" lon="9.6695158"><ele>562.0</ele><time>2026-05-01T14:13:07.996Z</time></trkpt><trkpt lat="44.8059276" lon="9.6694677"><ele>562.0</ele><time>2026-05-01T14:13:08.997Z</time></trkpt><trkpt lat="44.8058715" lon="9.6694125"><ele>562.0</ele><time>2026-05-01T14:13:09.996Z</time></trkpt><trkpt lat="44.8058166" lon="9.6693459"><ele>562.8571428571429</ele><time>2026-05-01T14:13:10.997Z</time></trkpt><trkpt lat="44.8057622" lon="9.6692736"><ele>563.7142857142858</ele><time>2026-05-01T14:13:11.997Z</time></trkpt><trkpt lat="44.8057155" lon="9.6691906"><ele>564.5714285714286</ele><time>2026-05-01T14:13:12.998Z</time></trkpt><trkpt lat="44.8056752" lon="9.6691032"><ele>565.4285714285714</ele><time>2026-05-01T14:13:13.998Z</time></trkpt><trkpt lat="44.8056365" lon="9.6690143"><ele>566.2857142857142</ele><time>2026-05-01T14:13:14.997Z</time></trkpt><trkpt lat="44.8055884" lon="9.6689335"><ele>567.1428571428571</ele><time>2026-05-01T14:13:15.998Z</time></trkpt><trkpt lat="44.8055334" lon="9.6688703"><ele>568.0</ele><time>2026-05-01T14:13:16.996Z</time></trkpt><trkpt lat="44.8054683" lon="9.6688283"><ele>568.0</ele><time>2026-05-01T14:13:17.999Z</time></trkpt><trkpt lat="44.8054" lon="9.6687933"><ele>568.0</ele><time>2026-05-01T14:13:18.997Z</time></trkpt><trkpt lat="44.80533" lon="9.6687617"><ele>568.0</ele><time>2026-05-01T14:13:19.997Z</time></trkpt><trkpt lat="44.8052617" lon="9.668725"><ele>568.0</ele><time>2026-05-01T14:13:20.996Z</time></trkpt><trkpt lat="44.8051967" lon="9.6686783"><ele>568.0</ele><time>2026-05-01T14:13:21.997Z</time></trkpt><trkpt lat="44.8051333" lon="9.66864"><ele>568.0</ele><time>2026-05-01T14:13:22.998Z</time></trkpt><trkpt lat="44.8050683" lon="9.6686117"><ele>568.0</ele><time>2026-05-01T14:13:23.998Z</time></trkpt><trkpt lat="44.805" lon="9.6685933"><ele>566.3333333333334</ele><time>2026-05-01T14:13:24.997Z</time></trkpt><trkpt lat="44.8049283" lon="9.6685883"><ele>564.6666666666667</ele><time>2026-05-01T14:13:25.997Z</time></trkpt><trkpt lat="44.8048617" lon="9.6685933"><ele>563.0</ele><time>2026-05-01T14:13:26.997Z</time></trkpt><trkpt lat="44.80475" lon="9.668635"><ele>561.3333333333334</ele><time>2026-05-01T14:13:28.996Z</time></trkpt><trkpt lat="44.8046567" lon="9.66873"><ele>559.6666666666666</ele><time>2026-05-01T14:13:30.996Z</time></trkpt><trkpt lat="44.8046217" lon="9.6688067"><ele>558.0</ele><time>2026-05-01T14:13:31.997Z</time></trkpt><trkpt lat="44.8045967" lon="9.668895"><ele>555.8333333333334</ele><time>2026-05-01T14:13:32.996Z</time></trkpt><trkpt lat="44.804575" lon="9.668985"><ele>553.6666666666666</ele><time>2026-05-01T14:13:33.996Z</time></trkpt><trkpt lat="44.80455" lon="9.6690767"><ele>551.5</ele><time>2026-05-01T14:13:34.996Z</time></trkpt><trkpt lat="44.8045233" lon="9.669185"><ele>549.3333333333333</ele><time>2026-05-01T14:13:35.996Z</time></trkpt><trkpt lat="44.804495" lon="9.6692933"><ele>547.1666666666666</ele><time>2026-05-01T14:13:36.996Z</time></trkpt><trkpt lat="44.8044667" lon="9.6694"><ele>545.0</ele><time>2026-05-01T14:13:37.997Z</time></trkpt><trkpt lat="44.8044383" lon="9.6694967"><ele>542.0</ele><time>2026-05-01T14:13:38.998Z</time></trkpt><trkpt lat="44.804415" lon="9.66958"><ele>539.0</ele><time>2026-05-01T14:13:39.996Z</time></trkpt><trkpt lat="44.804385" lon="9.6697167"><ele>536.0</ele><time>2026-05-01T14:13:41.996Z</time></trkpt><trkpt lat="44.804365" lon="9.6698683"><ele>533.0</ele><time>2026-05-01T14:13:43.996Z</time></trkpt><trkpt lat="44.804335" lon="9.6700367"><ele>530.0</ele><time>2026-05-01T14:13:45.996Z</time></trkpt><trkpt lat="44.8042767" lon="9.6701917"><ele>526.6</ele><time>2026-05-01T14:13:47.998Z</time></trkpt><trkpt lat="44.8041933" lon="9.6703133"><ele>523.2</ele><time>2026-05-01T14:13:49.997Z</time></trkpt><trkpt lat="44.8040917" lon="9.670395"><ele>519.8</ele><time>2026-05-01T14:13:51.997Z</time></trkpt><trkpt lat="44.8040383" lon="9.6704467"><ele>516.4</ele><time>2026-05-01T14:13:52.997Z</time></trkpt><trkpt lat="44.803985" lon="9.6704983"><ele>513.0</ele><time>2026-05-01T14:13:53.997Z</time></trkpt><trkpt lat="44.8038767" lon="9.67057"><ele>513.0</ele><time>2026-05-01T14:13:55.997Z</time></trkpt><trkpt lat="44.8037883" lon="9.670625"><ele>513.0</ele><time>2026-05-01T14:13:57.996Z</time></trkpt><trkpt lat="44.8037167" lon="9.6706817"><ele>513.0</ele><time>2026-05-01T14:13:59.997Z</time></trkpt><trkpt lat="44.8036467" lon="9.670725"><ele>513.0</ele><time>2026-05-01T14:14:01.997Z</time></trkpt><trkpt lat="44.8035667" lon="9.6707733"><ele>513.0</ele><time>2026-05-01T14:14:03.996Z</time></trkpt><trkpt lat="44.8034667" lon="9.6708117"><ele>513.0</ele><time>2026-05-01T14:14:05.996Z</time></trkpt><trkpt lat="44.8033467" lon="9.6708517"><ele>513.5</ele><time>2026-05-01T14:14:07.996Z</time></trkpt><trkpt lat="44.803285" lon="9.6708733"><ele>514.0</ele><time>2026-05-01T14:14:08.996Z</time></trkpt><trkpt lat="44.8032183" lon="9.6709017"><ele>514.5</ele><time>2026-05-01T14:14:09.997Z</time></trkpt><trkpt lat="44.8031583" lon="9.6709333"><ele>515.0</ele><time>2026-05-01T14:14:10.996Z</time></trkpt><trkpt lat="44.8030567" lon="9.6709967"><ele>515.5</ele><time>2026-05-01T14:14:12.997Z</time></trkpt><trkpt lat="44.802995" lon="9.6710883"><ele>516.0</ele><time>2026-05-01T14:14:14.997Z</time></trkpt><trkpt lat="44.8030133" lon="9.6712017"><ele>513.6</ele><time>2026-05-01T14:14:16.996Z</time></trkpt><trkpt lat="44.8030967" lon="9.6712767"><ele>511.20000000000005</ele><time>2026-05-01T14:14:18.996Z</time></trkpt><trkpt lat="44.803205" lon="9.67132"><ele>508.79999999999995</ele><time>2026-05-01T14:14:20.996Z</time></trkpt><trkpt lat="44.8033033" lon="9.6713783"><ele>506.4</ele><time>2026-05-01T14:14:22.996Z</time></trkpt><trkpt lat="44.80336" lon="9.6714417"><ele>504.0</ele><time>2026-05-01T14:14:25Z</time></trkpt><trkpt lat="44.8033317" lon="9.6715367"><ele>504.0</ele><time>2026-05-01T14:14:27.996Z</time></trkpt><trkpt lat="44.8032717" lon="9.67159"><ele>504.0</ele><time>2026-05-01T14:14:29.997Z</time></trkpt><trkpt lat="44.8031883" lon="9.6716533"><ele>504.0</ele><time>2026-05-01T14:14:31.998Z</time></trkpt><trkpt lat="44.8031" lon="9.67175"><ele>504.0</ele><time>2026-05-01T14:14:33.997Z</time></trkpt><trkpt lat="44.8030133" lon="9.67187"><ele>504.0</ele><time>2026-05-01T14:14:35.997Z</time></trkpt><trkpt lat="44.8029283" lon="9.6719967"><ele>501.2</ele><time>2026-05-01T14:14:37.997Z</time></trkpt><trkpt lat="44.80284" lon="9.67211"><ele>498.4</ele><time>2026-05-01T14:14:39.997Z</time></trkpt><trkpt lat="44.802745" lon="9.6721917"><ele>495.6</ele><time>2026-05-01T14:14:41.999Z</time></trkpt><trkpt lat="44.80265" lon="9.67224"><ele>492.8</ele><time>2026-05-01T14:14:43.999Z</time></trkpt><trkpt lat="44.8025483" lon="9.67225"><ele>490.0</ele><time>2026-05-01T14:14:45.997Z</time></trkpt><trkpt lat="44.8024333" lon="9.6722333"><ele>489.8571428571429</ele><time>2026-05-01T14:14:47.996Z</time></trkpt><trkpt lat="44.80237" lon="9.6722133"><ele>489.7142857142857</ele><time>2026-05-01T14:14:48.996Z</time></trkpt><trkpt lat="44.8023017" lon="9.67219"><ele>489.57142857142856</ele><time>2026-05-01T14:14:49.997Z</time></trkpt><trkpt lat="44.8022333" lon="9.6721617"><ele>489.42857142857144</ele><time>2026-05-01T14:14:50.996Z</time></trkpt><trkpt lat="44.8021678" lon="9.6721253"><ele>489.28571428571433</ele><time>2026-05-01T14:14:51.996Z</time></trkpt><trkpt lat="44.8021052" lon="9.6720783"><ele>489.14285714285717</ele><time>2026-05-01T14:14:52.997Z</time></trkpt><trkpt lat="44.8020485" lon="9.6720183"><ele>489.0</ele><time>2026-05-01T14:14:53.997Z</time></trkpt><trkpt lat="44.8019886" lon="9.6719447"><ele>489.6666666666667</ele><time>2026-05-01T14:14:54.996Z</time></trkpt><trkpt lat="44.8019264" lon="9.6718687"><ele>490.33333333333337</ele><time>2026-05-01T14:14:55.997Z</time></trkpt><trkpt lat="44.8018604" lon="9.6718023"><ele>491.0</ele><time>2026-05-01T14:14:56.997Z</time></trkpt><trkpt lat="44.801792" lon="9.6717483"><ele>491.6666666666667</ele><time>2026-05-01T14:14:57.996Z</time></trkpt><trkpt lat="44.8017245" lon="9.6717037"><ele>492.33333333333337</ele><time>2026-05-01T14:14:58.996Z</time></trkpt><trkpt lat="44.8016614" lon="9.6716719"><ele>493.0</ele><time>2026-05-01T14:14:59.996Z</time></trkpt><trkpt lat="44.801565" lon="9.671707"><ele>493.00000000000006</ele><time>2026-05-01T14:15:01.996Z</time></trkpt><trkpt lat="44.8015252" lon="9.6717834"><ele>493.0</ele><time>2026-05-01T14:15:02.996Z</time></trkpt><trkpt lat="44.8014849" lon="9.6718764"><ele>493.0</ele><time>2026-05-01T14:15:03.996Z</time></trkpt><trkpt lat="44.8014387" lon="9.6719698"><ele>493.0</ele><time>2026-05-01T14:15:04.996Z</time></trkpt><trkpt lat="44.8013892" lon="9.6720488"><ele>493.00000000000006</ele><time>2026-05-01T14:15:05.996Z</time></trkpt><trkpt lat="44.8013351" lon="9.6720962"><ele>493.0</ele><time>2026-05-01T14:15:06.997Z</time></trkpt><trkpt lat="44.801203" lon="9.672114"><ele>492.2</ele><time>2026-05-01T14:15:08.997Z</time></trkpt><trkpt lat="44.801115" lon="9.6720981"><ele>491.4</ele><time>2026-05-01T14:15:09.996Z</time></trkpt><trkpt lat="44.8010206" lon="9.672091"><ele>490.59999999999997</ele><time>2026-05-01T14:15:10.996Z</time></trkpt><trkpt lat="44.8009259" lon="9.6721288"><ele>489.79999999999995</ele><time>2026-05-01T14:15:11.997Z</time></trkpt><trkpt lat="44.8008238" lon="9.672216"><ele>489.0</ele><time>2026-05-01T14:15:12.997Z</time></trkpt><trkpt lat="44.800723" lon="9.672317"><ele>489.0</ele><time>2026-05-01T14:15:13.996Z</time></trkpt><trkpt lat="44.8006206" lon="9.6724202"><ele>489.0</ele><time>2026-05-01T14:15:14.996Z</time></trkpt><trkpt lat="44.800521" lon="9.6725213"><ele>489.0</ele><time>2026-05-01T14:15:15.996Z</time></trkpt><trkpt lat="44.8004306" lon="9.6726199"><ele>489.0</ele><time>2026-05-01T14:15:16.997Z</time></trkpt><trkpt lat="44.8003507" lon="9.6727088"><ele>486.2</ele><time>2026-05-01T14:15:17.996Z</time></trkpt><trkpt lat="44.8002722" lon="9.6727932"><ele>483.4</ele><time>2026-05-01T14:15:18.996Z</time></trkpt><trkpt lat="44.8001943" lon="9.6728768"><ele>480.6</ele><time>2026-05-01T14:15:19.996Z</time></trkpt><trkpt lat="44.8001144" lon="9.6729542"><ele>477.8</ele><time>2026-05-01T14:15:20.997Z</time></trkpt><trkpt lat="44.8000374" lon="9.6730237"><ele>475.0</ele><time>2026-05-01T14:15:21.996Z</time></trkpt><trkpt lat="44.7999633" lon="9.6730843"><ele>475.0</ele><time>2026-05-01T14:15:22.997Z</time></trkpt><trkpt lat="44.7998748" lon="9.6731243"><ele>475.0</ele><time>2026-05-01T14:15:23.996Z</time></trkpt><trkpt lat="44.7997744" lon="9.6731438"><ele>475.0</ele><time>2026-05-01T14:15:24.998Z</time></trkpt><trkpt lat="44.7996615" lon="9.6731618"><ele>475.0</ele><time>2026-05-01T14:15:25.997Z</time></trkpt><trkpt lat="44.7995526" lon="9.6731865"><ele>475.0</ele><time>2026-05-01T14:15:26.997Z</time></trkpt><trkpt lat="44.7994581" lon="9.6732006"><ele>475.00000000000006</ele><time>2026-05-01T14:15:27.996Z</time></trkpt><trkpt lat="44.7993747" lon="9.6732006"><ele>475.0</ele><time>2026-05-01T14:15:28.996Z</time></trkpt><trkpt lat="44.7993005" lon="9.6731886"><ele>475.0</ele><time>2026-05-01T14:15:29.996Z</time></trkpt><trkpt lat="44.7992341" lon="9.6731488"><ele>475.0</ele><time>2026-05-01T14:15:30.996Z</time></trkpt><trkpt lat="44.7991733" lon="9.673075"><ele>475.00000000000006</ele><time>2026-05-01T14:15:31.996Z</time></trkpt><trkpt lat="44.799115" lon="9.6729983"><ele>475.0</ele><time>2026-05-01T14:15:32.997Z</time></trkpt><trkpt lat="44.7990617" lon="9.672915"><ele>474.6666666666667</ele><time>2026-05-01T14:15:33.996Z</time></trkpt><trkpt lat="44.7990067" lon="9.6728317"><ele>474.33333333333337</ele><time>2026-05-01T14:15:34.996Z</time></trkpt><trkpt lat="44.798945" lon="9.6727633"><ele>474.0</ele><time>2026-05-01T14:15:35.997Z</time></trkpt><trkpt lat="44.7988733" lon="9.6727033"><ele>473.66666666666663</ele><time>2026-05-01T14:15:36.997Z</time></trkpt><trkpt lat="44.7987967" lon="9.67266"><ele>473.3333333333333</ele><time>2026-05-01T14:15:37.997Z</time></trkpt><trkpt lat="44.7987117" lon="9.6726283"><ele>473.0</ele><time>2026-05-01T14:15:38.996Z</time></trkpt><trkpt lat="44.7986183" lon="9.6726017"><ele>472.2</ele><time>2026-05-01T14:15:39.996Z</time></trkpt><trkpt lat="44.79852" lon="9.6725717"><ele>471.4</ele><time>2026-05-01T14:15:40.996Z</time></trkpt><trkpt lat="44.7984217" lon="9.6725383"><ele>470.59999999999997</ele><time>2026-05-01T14:15:41.996Z</time></trkpt><trkpt lat="44.7983217" lon="9.6725017"><ele>469.79999999999995</ele><time>2026-05-01T14:15:42.996Z</time></trkpt><trkpt lat="44.7982233" lon="9.672465"><ele>469.0</ele><time>2026-05-01T14:15:43.996Z</time></trkpt><trkpt lat="44.7981417" lon="9.6724383"><ele>469.0</ele><time>2026-05-01T14:15:44.997Z</time></trkpt><trkpt lat="44.79806" lon="9.6724483"><ele>469.0</ele><time>2026-05-01T14:15:45.997Z</time></trkpt><trkpt lat="44.797985" lon="9.6724883"><ele>469.0</ele><time>2026-05-01T14:15:46.996Z</time></trkpt><trkpt lat="44.7979167" lon="9.6725367"><ele>469.0</ele><time>2026-05-01T14:15:47.996Z</time></trkpt><trkpt lat="44.79785" lon="9.6725833"><ele>469.0</ele><time>2026-05-01T14:15:48.996Z</time></trkpt><trkpt lat="44.797785" lon="9.672615"><ele>469.0</ele><time>2026-05-01T14:15:49.996Z</time></trkpt><trkpt lat="44.7977217" lon="9.6726267"><ele>469.0</ele><time>2026-05-01T14:15:50.996Z</time></trkpt><trkpt lat="44.7975933" lon="9.6726017"><ele>468.33333333333337</ele><time>2026-05-01T14:15:52.996Z</time></trkpt><trkpt lat="44.79752" lon="9.67257"><ele>467.6666666666667</ele><time>2026-05-01T14:15:53.997Z</time></trkpt><trkpt lat="44.7974433" lon="9.672525"><ele>467.0</ele><time>2026-05-01T14:15:54.996Z</time></trkpt><trkpt lat="44.7973683" lon="9.672475"><ele>466.33333333333337</ele><time>2026-05-01T14:15:55.996Z</time></trkpt><trkpt lat="44.7972967" lon="9.6724267"><ele>465.6666666666667</ele><time>2026-05-01T14:15:56.997Z</time></trkpt><trkpt lat="44.7972267" lon="9.6723733"><ele>465.0</ele><time>2026-05-01T14:15:57.998Z</time></trkpt><trkpt lat="44.79715" lon="9.6723133"><ele>465.0</ele><time>2026-05-01T14:15:58.996Z</time></trkpt><trkpt lat="44.7970717" lon="9.67225"><ele>465.0</ele><time>2026-05-01T14:15:59.997Z</time></trkpt><trkpt lat="44.797" lon="9.672185"><ele>465.0</ele><time>2026-05-01T14:16:00.996Z</time></trkpt><trkpt lat="44.7969333" lon="9.6721233"><ele>465.0</ele><time>2026-05-01T14:16:01.996Z</time></trkpt><trkpt lat="44.796865" lon="9.6720583"><ele>465.0</ele><time>2026-05-01T14:16:02.997Z</time></trkpt><trkpt lat="44.7967917" lon="9.671985"><ele>465.0</ele><time>2026-05-01T14:16:03.996Z</time></trkpt><trkpt lat="44.796715" lon="9.67191"><ele>466.0</ele><time>2026-05-01T14:16:05.069Z</time></trkpt><trkpt lat="44.796635" lon="9.67184"><ele>467.0</ele><time>2026-05-01T14:16:05.997Z</time></trkpt><trkpt lat="44.796555" lon="9.6717767"><ele>468.0</ele><time>2026-05-01T14:16:06.998Z</time></trkpt><trkpt lat="44.7964717" lon="9.6717217"><ele>469.0</ele><time>2026-05-01T14:16:07.996Z</time></trkpt><trkpt lat="44.7963883" lon="9.6716767"><ele>470.0</ele><time>2026-05-01T14:16:08.996Z</time></trkpt><trkpt lat="44.7963033" lon="9.671635"><ele>469.99999999999994</ele><time>2026-05-01T14:16:09.997Z</time></trkpt><trkpt lat="44.7962217" lon="9.6715933"><ele>470.0</ele><time>2026-05-01T14:16:10.996Z</time></trkpt><trkpt lat="44.7961467" lon="9.6715483"><ele>470.0</ele><time>2026-05-01T14:16:11.997Z</time></trkpt><trkpt lat="44.7960867" lon="9.6715083"><ele>470.0</ele><time>2026-05-01T14:16:12.996Z</time></trkpt><trkpt lat="44.796005" lon="9.67141"><ele>469.99999999999994</ele><time>2026-05-01T14:16:14.996Z</time></trkpt><trkpt lat="44.7959683" lon="9.6712683"><ele>470.0</ele><time>2026-05-01T14:16:16.997Z</time></trkpt><trkpt lat="44.7959483" lon="9.6711017"><ele>472.0</ele><time>2026-05-01T14:16:18.996Z</time></trkpt><trkpt lat="44.7959317" lon="9.6710133"><ele>474.0</ele><time>2026-05-01T14:16:19.996Z</time></trkpt><trkpt lat="44.795875" lon="9.6708733"><ele>476.0</ele><time>2026-05-01T14:16:21.998Z</time></trkpt><trkpt lat="44.79575" lon="9.6708067"><ele>478.0</ele><time>2026-05-01T14:16:23.996Z</time></trkpt><trkpt lat="44.7956733" lon="9.6707783"><ele>480.0</ele><time>2026-05-01T14:16:24.997Z</time></trkpt><trkpt lat="44.7955917" lon="9.670755"><ele>480.0</ele><time>2026-05-01T14:16:25.996Z</time></trkpt><trkpt lat="44.7955083" lon="9.67073"><ele>480.0</ele><time>2026-05-01T14:16:26.996Z</time></trkpt><trkpt lat="44.79543" lon="9.6706983"><ele>480.0</ele><time>2026-05-01T14:16:27.997Z</time></trkpt><trkpt lat="44.795355" lon="9.6706667"><ele>480.0</ele><time>2026-05-01T14:16:28.996Z</time></trkpt><trkpt lat="44.7952967" lon="9.6706183"><ele>480.0</ele><time>2026-05-01T14:16:29.996Z</time></trkpt><trkpt lat="44.7952483" lon="9.6705533"><ele>480.0</ele><time>2026-05-01T14:16:30.997Z</time></trkpt><trkpt lat="44.7952083" lon="9.670465"><ele>479.3333333333333</ele><time>2026-05-01T14:16:31.996Z</time></trkpt><trkpt lat="44.79516" lon="9.670365"><ele>478.66666666666663</ele><time>2026-05-01T14:16:32.996Z</time></trkpt><trkpt lat="44.7951183" lon="9.6702667"><ele>478.0</ele><time>2026-05-01T14:16:33.996Z</time></trkpt><trkpt lat="44.7950783" lon="9.6701817"><ele>477.3333333333333</ele><time>2026-05-01T14:16:34.997Z</time></trkpt><trkpt lat="44.795055" lon="9.6700983"><ele>476.66666666666663</ele><time>2026-05-01T14:16:35.996Z</time></trkpt><trkpt lat="44.7950683" lon="9.6699567"><ele>476.0</ele><time>2026-05-01T14:16:37.997Z</time></trkpt><trkpt lat="44.7951583" lon="9.6698217"><ele>479.4</ele><time>2026-05-01T14:16:39.997Z</time></trkpt><trkpt lat="44.795205" lon="9.6697517"><ele>482.8</ele><time>2026-05-01T14:16:40.998Z</time></trkpt><trkpt lat="44.7952633" lon="9.669625"><ele>486.19999999999993</ele><time>2026-05-01T14:16:42.996Z</time></trkpt><trkpt lat="44.7952717" lon="9.6695033"><ele>489.59999999999997</ele><time>2026-05-01T14:16:44.997Z</time></trkpt><trkpt lat="44.79514" lon="9.6693717"><ele>493.0</ele><time>2026-05-01T14:16:46.997Z</time></trkpt><trkpt lat="44.7950417" lon="9.6693133"><ele>494.0</ele><time>2026-05-01T14:16:47.996Z</time></trkpt><trkpt lat="44.7949533" lon="9.6692567"><ele>494.99999999999994</ele><time>2026-05-01T14:16:48.998Z</time></trkpt><trkpt lat="44.7948633" lon="9.6691933"><ele>495.99999999999994</ele><time>2026-05-01T14:16:49.997Z</time></trkpt><trkpt lat="44.79478" lon="9.6691267"><ele>497.0</ele><time>2026-05-01T14:16:50.996Z</time></trkpt><trkpt lat="44.7946917" lon="9.66908"><ele>498.0</ele><time>2026-05-01T14:16:51.996Z</time></trkpt><trkpt lat="44.7945917" lon="9.6690733"><ele>498.0</ele><time>2026-05-01T14:16:52.998Z</time></trkpt><trkpt lat="44.7944967" lon="9.6690783"><ele>498.0</ele><time>2026-05-01T14:16:53.997Z</time></trkpt><trkpt lat="44.7944133" lon="9.66909"><ele>498.0</ele><time>2026-05-01T14:16:54.998Z</time></trkpt><trkpt lat="44.7943433" lon="9.6691017"><ele>498.0</ele><time>2026-05-01T14:16:55.996Z</time></trkpt><trkpt lat="44.7942467" lon="9.6690733"><ele>498.0</ele><time>2026-05-01T14:16:57.996Z</time></trkpt><trkpt lat="44.7942133" lon="9.6689867"><ele>498.0</ele><time>2026-05-01T14:16:59.997Z</time></trkpt><trkpt lat="44.7942817" lon="9.6689"><ele>498.0</ele><time>2026-05-01T14:17:01.998Z</time></trkpt><trkpt lat="44.7943783" lon="9.6688383"><ele>498.0</ele><time>2026-05-01T14:17:03.996Z</time></trkpt><trkpt lat="44.7944367" lon="9.6687833"><ele>498.0</ele><time>2026-05-01T14:17:06.997Z</time></trkpt><trkpt lat="44.7944667" lon="9.6686867"><ele>498.0</ele><time>2026-05-01T14:17:20.997Z</time></trkpt><trkpt lat="44.79448" lon="9.6685983"><ele>498.0</ele><time>2026-05-01T14:17:21.997Z</time></trkpt><trkpt lat="44.7945117" lon="9.6685067"><ele>498.0</ele><time>2026-05-01T14:17:22.996Z</time></trkpt><trkpt lat="44.794555" lon="9.66842"><ele>501.0</ele><time>2026-05-01T14:17:23.997Z</time></trkpt><trkpt lat="44.7946133" lon="9.6683533"><ele>503.99999999999994</ele><time>2026-05-01T14:17:24.996Z</time></trkpt><trkpt lat="44.794685" lon="9.668285"><ele>506.99999999999994</ele><time>2026-05-01T14:17:25.998Z</time></trkpt><trkpt lat="44.7947617" lon="9.668215"><ele>510.0</ele><time>2026-05-01T14:17:26.996Z</time></trkpt><trkpt lat="44.79484" lon="9.668135"><ele>513.0</ele><time>2026-05-01T14:17:27.998Z</time></trkpt><trkpt lat="44.794915" lon="9.6680383"><ele>513.0</ele><time>2026-05-01T14:17:28.996Z</time></trkpt><trkpt lat="44.7949833" lon="9.6679317"><ele>513.0</ele><time>2026-05-01T14:17:29.997Z</time></trkpt><trkpt lat="44.7950517" lon="9.667795"><ele>513.0</ele><time>2026-05-01T14:17:30.997Z</time></trkpt><trkpt lat="44.7951067" lon="9.6676233"><ele>513.0</ele><time>2026-05-01T14:17:31.996Z</time></trkpt><trkpt lat="44.795165" lon="9.6674533"><ele>515.6</ele><time>2026-05-01T14:17:32.997Z</time></trkpt><trkpt lat="44.7952167" lon="9.6672983"><ele>518.1999999999999</ele><time>2026-05-01T14:17:33.997Z</time></trkpt><trkpt lat="44.795255" lon="9.6671533"><ele>520.8</ele><time>2026-05-01T14:17:34.996Z</time></trkpt><trkpt lat="44.7952717" lon="9.6670117"><ele>523.4</ele><time>2026-05-01T14:17:35.996Z</time></trkpt><trkpt lat="44.7952883" lon="9.6668833"><ele>526.0</ele><time>2026-05-01T14:17:36.998Z</time></trkpt><trkpt lat="44.7953033" lon="9.6667567"><ele>528.2</ele><time>2026-05-01T14:17:37.996Z</time></trkpt><trkpt lat="44.7953217" lon="9.6666433"><ele>530.4000000000001</ele><time>2026-05-01T14:17:38.996Z</time></trkpt><trkpt lat="44.79536" lon="9.6665183"><ele>532.6</ele><time>2026-05-01T14:17:39.997Z</time></trkpt><trkpt lat="44.7954067" lon="9.6664167"><ele>534.8000000000001</ele><time>2026-05-01T14:17:40.996Z</time></trkpt><trkpt lat="44.7954717" lon="9.6663017"><ele>537.0</ele><time>2026-05-01T14:17:41.997Z</time></trkpt><trkpt lat="44.7955283" lon="9.6661833"><ele>538.2</ele><time>2026-05-01T14:17:42.997Z</time></trkpt><trkpt lat="44.7955783" lon="9.6660567"><ele>539.4000000000001</ele><time>2026-05-01T14:17:43.996Z</time></trkpt><trkpt lat="44.7956133" lon="9.66591"><ele>540.5999999999999</ele><time>2026-05-01T14:17:44.997Z</time></trkpt><trkpt lat="44.79564" lon="9.6657583"><ele>541.8</ele><time>2026-05-01T14:17:45.996Z</time></trkpt><trkpt lat="44.7956717" lon="9.6656133"><ele>543.0</ele><time>2026-05-01T14:17:46.997Z</time></trkpt><trkpt lat="44.7957" lon="9.6654767"><ele>543.0</ele><time>2026-05-01T14:17:47.997Z</time></trkpt><trkpt lat="44.7957267" lon="9.6653517"><ele>543.0</ele><time>2026-05-01T14:17:48.997Z</time></trkpt><trkpt lat="44.7957567" lon="9.66524"><ele>543.0</ele><time>2026-05-01T14:17:49.997Z</time></trkpt><trkpt lat="44.79579" lon="9.6651383"><ele>543.0</ele><time>2026-05-01T14:17:50.997Z</time></trkpt><trkpt lat="44.7958333" lon="9.6650667"><ele>543.0</ele><time>2026-05-01T14:17:51.997Z</time></trkpt><trkpt lat="44.7959433" lon="9.6649917"><ele>543.0</ele><time>2026-05-01T14:17:53.998Z</time></trkpt><trkpt lat="44.7960183" lon="9.665005"><ele>545.8333333333334</ele><time>2026-05-01T14:17:54.996Z</time></trkpt><trkpt lat="44.7961" lon="9.6650283"><ele>548.6666666666666</ele><time>2026-05-01T14:17:55.996Z</time></trkpt><trkpt lat="44.7961833" lon="9.66504"><ele>551.5</ele><time>2026-05-01T14:17:56.996Z</time></trkpt><trkpt lat="44.7962517" lon="9.6650183"><ele>554.3333333333333</ele><time>2026-05-01T14:17:57.997Z</time></trkpt><trkpt lat="44.796305" lon="9.664965"><ele>557.1666666666666</ele><time>2026-05-01T14:17:58.996Z</time></trkpt><trkpt lat="44.7963333" lon="9.664885"><ele>560.0</ele><time>2026-05-01T14:17:59.997Z</time></trkpt><trkpt lat="44.7963333" lon="9.6647283"><ele>560.0</ele><time>2026-05-01T14:18:01.996Z</time></trkpt><trkpt lat="44.796255" lon="9.664585"><ele>560.0</ele><time>2026-05-01T14:18:03.997Z</time></trkpt><trkpt lat="44.7961983" lon="9.6645217"><ele>560.0</ele><time>2026-05-01T14:18:04.997Z</time></trkpt><trkpt lat="44.7961467" lon="9.6644617"><ele>560.0</ele><time>2026-05-01T14:18:05.996Z</time></trkpt><trkpt lat="44.796085" lon="9.6643317"><ele>560.0</ele><time>2026-05-01T14:18:07.997Z</time></trkpt><trkpt lat="44.7960583" lon="9.6641633"><ele>561.8333333333333</ele><time>2026-05-01T14:18:09.996Z</time></trkpt><trkpt lat="44.796065" lon="9.6640717"><ele>563.6666666666666</ele><time>2026-05-01T14:18:10.996Z</time></trkpt><trkpt lat="44.7960583" lon="9.663925"><ele>565.5</ele><time>2026-05-01T14:18:12.996Z</time></trkpt><trkpt lat="44.7959967" lon="9.6638383"><ele>567.3333333333334</ele><time>2026-05-01T14:18:14.997Z</time></trkpt><trkpt lat="44.79589" lon="9.663815"><ele>569.1666666666667</ele><time>2026-05-01T14:18:16.996Z</time></trkpt><trkpt lat="44.7958183" lon="9.663845"><ele>571.0</ele><time>2026-05-01T14:18:17.997Z</time></trkpt><trkpt lat="44.7957433" lon="9.6638983"><ele>571.0</ele><time>2026-05-01T14:18:18.996Z</time></trkpt><trkpt lat="44.795665" lon="9.6639683"><ele>571.0</ele><time>2026-05-01T14:18:19.996Z</time></trkpt><trkpt lat="44.795585" lon="9.6640483"><ele>571.0</ele><time>2026-05-01T14:18:20.997Z</time></trkpt><trkpt lat="44.79551" lon="9.6641167"><ele>571.0</ele><time>2026-05-01T14:18:21.997Z</time></trkpt><trkpt lat="44.7954317" lon="9.66418"><ele>571.0</ele><time>2026-05-01T14:18:22.998Z</time></trkpt><trkpt lat="44.79535" lon="9.6642333"><ele>571.0</ele><time>2026-05-01T14:18:23.997Z</time></trkpt><trkpt lat="44.795275" lon="9.6642717"><ele>571.0</ele><time>2026-05-01T14:18:24.997Z</time></trkpt><trkpt lat="44.7952" lon="9.664305"><ele>571.0</ele><time>2026-05-01T14:18:25.996Z</time></trkpt><trkpt lat="44.795135" lon="9.6643417"><ele>571.0</ele><time>2026-05-01T14:18:26.997Z</time></trkpt><trkpt lat="44.7950367" lon="9.66439"><ele>571.0</ele><time>2026-05-01T14:18:28.997Z</time></trkpt><trkpt lat="44.7949633" lon="9.66435"><ele>571.0</ele><time>2026-05-01T14:18:30.996Z</time></trkpt><trkpt lat="44.7949433" lon="9.6642217"><ele>571.0</ele><time>2026-05-01T14:18:32.997Z</time></trkpt><trkpt lat="44.7949667" lon="9.6641383"><ele>571.0</ele><time>2026-05-01T14:18:33.996Z</time></trkpt><trkpt lat="44.7949983" lon="9.66403"><ele>571.0</ele><time>2026-05-01T14:18:34.996Z</time></trkpt><trkpt lat="44.7950283" lon="9.66393"><ele>571.0</ele><time>2026-05-01T14:18:35.996Z</time></trkpt><trkpt lat="44.7950633" lon="9.6638517"><ele>571.0</ele><time>2026-05-01T14:18:36.996Z</time></trkpt><trkpt lat="44.79511" lon="9.6637883"><ele>571.0</ele><time>2026-05-01T14:18:37.996Z</time></trkpt><trkpt lat="44.795165" lon="9.6637433"><ele>571.0</ele><time>2026-05-01T14:18:38.996Z</time></trkpt><trkpt lat="44.7952517" lon="9.6636417"><ele>573.5</ele><time>2026-05-01T14:18:40.996Z</time></trkpt><trkpt lat="44.795285" lon="9.6634917"><ele>576.0</ele><time>2026-05-01T14:18:42.997Z</time></trkpt><trkpt lat="44.79529" lon="9.6633933"><ele>578.5</ele><time>2026-05-01T14:18:43.996Z</time></trkpt><trkpt lat="44.795305" lon="9.66328"><ele>581.0</ele><time>2026-05-01T14:18:44.997Z</time></trkpt><trkpt lat="44.7953217" lon="9.6631517"><ele>583.5</ele><time>2026-05-01T14:18:45.996Z</time></trkpt><trkpt lat="44.7953483" lon="9.6630267"><ele>586.0</ele><time>2026-05-01T14:18:46.996Z</time></trkpt><trkpt lat="44.7953717" lon="9.6629117"><ele>586.0</ele><time>2026-05-01T14:18:47.997Z</time></trkpt><trkpt lat="44.7953883" lon="9.66281"><ele>586.0</ele><time>2026-05-01T14:18:48.996Z</time></trkpt><trkpt lat="44.795395" lon="9.6627183"><ele>586.0</ele><time>2026-05-01T14:18:49.998Z</time></trkpt><trkpt lat="44.7953533" lon="9.6625583"><ele>586.0</ele><time>2026-05-01T14:18:51.996Z</time></trkpt><trkpt lat="44.795305" lon="9.6624883"><ele>586.0</ele><time>2026-05-01T14:18:52.997Z</time></trkpt><trkpt lat="44.7952183" lon="9.6624233"><ele>586.0</ele><time>2026-05-01T14:18:53.997Z</time></trkpt><trkpt lat="44.7951583" lon="9.6623433"><ele>588.8</ele><time>2026-05-01T14:18:54.997Z</time></trkpt><trkpt lat="44.7950983" lon="9.6622483"><ele>591.6</ele><time>2026-05-01T14:18:55.998Z</time></trkpt><trkpt lat="44.7950483" lon="9.6621417"><ele>594.4</ele><time>2026-05-01T14:18:56.997Z</time></trkpt><trkpt lat="44.7950033" lon="9.6620283"><ele>597.2</ele><time>2026-05-01T14:18:57.997Z</time></trkpt><trkpt lat="44.7949533" lon="9.66192"><ele>600.0</ele><time>2026-05-01T14:18:58.996Z</time></trkpt><trkpt lat="44.7949033" lon="9.6618133"><ele>601.3333333333334</ele><time>2026-05-01T14:18:59.996Z</time></trkpt><trkpt lat="44.7948467" lon="9.66172"><ele>602.6666666666666</ele><time>2026-05-01T14:19:00.996Z</time></trkpt><trkpt lat="44.7947833" lon="9.6616333"><ele>604.0</ele><time>2026-05-01T14:19:01.997Z</time></trkpt><trkpt lat="44.79472" lon="9.6615567"><ele>605.3333333333333</ele><time>2026-05-01T14:19:02.996Z</time></trkpt><trkpt lat="44.7946567" lon="9.6614783"><ele>606.6666666666666</ele><time>2026-05-01T14:19:03.998Z</time></trkpt><trkpt lat="44.7945917" lon="9.661395"><ele>608.0</ele><time>2026-05-01T14:19:04.998Z</time></trkpt><trkpt lat="44.79452" lon="9.6613183"><ele>608.0</ele><time>2026-05-01T14:19:05.998Z</time></trkpt><trkpt lat="44.7944417" lon="9.6612533"><ele>608.0</ele><time>2026-05-01T14:19:06.997Z</time></trkpt><trkpt lat="44.7943667" lon="9.6611783"><ele>608.0</ele><time>2026-05-01T14:19:07.997Z</time></trkpt><trkpt lat="44.7942917" lon="9.6610917"><ele>608.0</ele><time>2026-05-01T14:19:08.998Z</time></trkpt><trkpt lat="44.7942083" lon="9.661"><ele>608.0</ele><time>2026-05-01T14:19:09.996Z</time></trkpt><trkpt lat="44.7941183" lon="9.6609067"><ele>608.0</ele><time>2026-05-01T14:19:10.996Z</time></trkpt><trkpt lat="44.79404" lon="9.6608167"><ele>608.0</ele><time>2026-05-01T14:19:11.998Z</time></trkpt><trkpt lat="44.7939667" lon="9.660745"><ele>608.0</ele><time>2026-05-01T14:19:12.996Z</time></trkpt><trkpt lat="44.79389" lon="9.6606867"><ele>608.0</ele><time>2026-05-01T14:19:13.997Z</time></trkpt><trkpt lat="44.7938033" lon="9.6606417"><ele>608.0</ele><time>2026-05-01T14:19:14.998Z</time></trkpt><trkpt lat="44.7937083" lon="9.6606167"><ele>608.0</ele><time>2026-05-01T14:19:15.997Z</time></trkpt><trkpt lat="44.7936083" lon="9.6606133"><ele>608.0</ele><time>2026-05-01T14:19:16.996Z</time></trkpt><trkpt lat="44.79351" lon="9.66064"><ele>608.0</ele><time>2026-05-01T14:19:17.996Z</time></trkpt><trkpt lat="44.7934133" lon="9.660695"><ele>608.0</ele><time>2026-05-01T14:19:18.996Z</time></trkpt><trkpt lat="44.79332" lon="9.6607717"><ele>608.0</ele><time>2026-05-01T14:19:19.997Z</time></trkpt><trkpt lat="44.793235" lon="9.6608583"><ele>607.8333333333333</ele><time>2026-05-01T14:19:20.997Z</time></trkpt><trkpt lat="44.79316" lon="9.6609383"><ele>607.6666666666666</ele><time>2026-05-01T14:19:21.997Z</time></trkpt><trkpt lat="44.793095" lon="9.660995"><ele>607.5</ele><time>2026-05-01T14:19:22.996Z</time></trkpt><trkpt lat="44.793035" lon="9.66103"><ele>607.3333333333334</ele><time>2026-05-01T14:19:23.995Z</time></trkpt><trkpt lat="44.79291" lon="9.6609867"><ele>607.1666666666667</ele><time>2026-05-01T14:19:25.996Z</time></trkpt><trkpt lat="44.7928517" lon="9.660915"><ele>607.0</ele><time>2026-05-01T14:19:26.997Z</time></trkpt><trkpt lat="44.7928117" lon="9.6607417"><ele>607.0</ele><time>2026-05-01T14:19:28.997Z</time></trkpt><trkpt lat="44.7928283" lon="9.660625"><ele>607.0</ele><time>2026-05-01T14:19:29.997Z</time></trkpt><trkpt lat="44.7928533" lon="9.6604867"><ele>607.0</ele><time>2026-05-01T14:19:30.997Z</time></trkpt><trkpt lat="44.7928633" lon="9.66034"><ele>607.0</ele><time>2026-05-01T14:19:31.996Z</time></trkpt><trkpt lat="44.7928567" lon="9.6601917"><ele>607.0</ele><time>2026-05-01T14:19:32.996Z</time></trkpt><trkpt lat="44.79284" lon="9.6600383"><ele>608.3333333333334</ele><time>2026-05-01T14:19:33.996Z</time></trkpt><trkpt lat="44.79281" lon="9.6598967"><ele>609.6666666666667</ele><time>2026-05-01T14:19:34.997Z</time></trkpt><trkpt lat="44.792775" lon="9.65977"><ele>611.0</ele><time>2026-05-01T14:19:35.996Z</time></trkpt><trkpt lat="44.7927383" lon="9.6596517"><ele>612.3333333333334</ele><time>2026-05-01T14:19:36.996Z</time></trkpt><trkpt lat="44.79271" lon="9.659545"><ele>613.6666666666666</ele><time>2026-05-01T14:19:37.997Z</time></trkpt><trkpt lat="44.7926917" lon="9.6594583"><ele>615.0</ele><time>2026-05-01T14:19:38.997Z</time></trkpt><trkpt lat="44.7926783" lon="9.65934"><ele>614.0</ele><time>2026-05-01T14:19:40.997Z</time></trkpt><trkpt lat="44.7926317" lon="9.6592383"><ele>613.0</ele><time>2026-05-01T14:21:49.996Z</time></trkpt><trkpt lat="44.7925867" lon="9.6591233"><ele>612.0</ele><time>2026-05-01T14:21:51.997Z</time></trkpt><trkpt lat="44.7925089" lon="9.6590265"><ele>611.0</ele><time>2026-05-01T14:21:53.996Z</time></trkpt><trkpt lat="44.7923765" lon="9.6589863"><ele>610.0</ele><time>2026-05-01T14:21:55.997Z</time></trkpt><trkpt lat="44.7922956" lon="9.6589619"><ele>610.0</ele><time>2026-05-01T14:21:56.998Z</time></trkpt><trkpt lat="44.792215" lon="9.6589252"><ele>610.0</ele><time>2026-05-01T14:21:57.996Z</time></trkpt><trkpt lat="44.792141" lon="9.6588712"><ele>610.0</ele><time>2026-05-01T14:21:58.996Z</time></trkpt><trkpt lat="44.7920691" lon="9.6587963"><ele>610.0</ele><time>2026-05-01T14:21:59.999Z</time></trkpt><trkpt lat="44.7920015" lon="9.6587034"><ele>610.0</ele><time>2026-05-01T14:22:00.997Z</time></trkpt><trkpt lat="44.791939" lon="9.6585912"><ele>610.5</ele><time>2026-05-01T14:22:01.998Z</time></trkpt><trkpt lat="44.7918782" lon="9.6584765"><ele>611.0</ele><time>2026-05-01T14:22:02.998Z</time></trkpt><trkpt lat="44.7918197" lon="9.6583802"><ele>611.5</ele><time>2026-05-01T14:22:03.997Z</time></trkpt><trkpt lat="44.7917601" lon="9.6583069"><ele>612.0</ele><time>2026-05-01T14:22:04.997Z</time></trkpt><trkpt lat="44.7916971" lon="9.6582636"><ele>612.5</ele><time>2026-05-01T14:22:05.997Z</time></trkpt><trkpt lat="44.7916281" lon="9.658252"><ele>613.0</ele><time>2026-05-01T14:22:06.998Z</time></trkpt><trkpt lat="44.7915526" lon="9.6582719"><ele>613.0</ele><time>2026-05-01T14:22:07.997Z</time></trkpt><trkpt lat="44.7914762" lon="9.658301"><ele>613.0</ele><time>2026-05-01T14:22:08.997Z</time></trkpt><trkpt lat="44.7914052" lon="9.6583114"><ele>613.0</ele><time>2026-05-01T14:22:09.997Z</time></trkpt><trkpt lat="44.7913355" lon="9.6582978"><ele>613.0</ele><time>2026-05-01T14:22:10.998Z</time></trkpt><trkpt lat="44.7912566" lon="9.6582593"><ele>613.0</ele><time>2026-05-01T14:22:11.997Z</time></trkpt><trkpt lat="44.7911738" lon="9.6581963"><ele>613.0</ele><time>2026-05-01T14:22:12.998Z</time></trkpt><trkpt lat="44.7911007" lon="9.6581239"><ele>613.0</ele><time>2026-05-01T14:22:13.998Z</time></trkpt><trkpt lat="44.7910446" lon="9.6580435"><ele>613.0</ele><time>2026-05-01T14:22:14.997Z</time></trkpt><trkpt lat="44.7910042" lon="9.6579526"><ele>613.0</ele><time>2026-05-01T14:22:15.996Z</time></trkpt><trkpt lat="44.7909832" lon="9.6578516"><ele>613.0</ele><time>2026-05-01T14:22:16.996Z</time></trkpt><trkpt lat="44.7909613" lon="9.6577603"><ele>613.0</ele><time>2026-05-01T14:22:17.996Z</time></trkpt><trkpt lat="44.7909201" lon="9.6576915"><ele>613.0</ele><time>2026-05-01T14:22:18.997Z</time></trkpt><trkpt lat="44.7908568" lon="9.6576488"><ele>613.0</ele><time>2026-05-01T14:22:19.996Z</time></trkpt><trkpt lat="44.7907727" lon="9.6576071"><ele>613.4</ele><time>2026-05-01T14:22:20.997Z</time></trkpt><trkpt lat="44.7906767" lon="9.6575428"><ele>613.8</ele><time>2026-05-01T14:22:21.997Z</time></trkpt><trkpt lat="44.7905779" lon="9.6574497"><ele>614.2</ele><time>2026-05-01T14:22:22.998Z</time></trkpt><trkpt lat="44.7904802" lon="9.6573625"><ele>614.6</ele><time>2026-05-01T14:22:23.998Z</time></trkpt><trkpt lat="44.7903799" lon="9.6573125"><ele>615.0</ele><time>2026-05-01T14:22:24.997Z</time></trkpt><trkpt lat="44.7902776" lon="9.6573019"><ele>615.0</ele><time>2026-05-01T14:22:25.997Z</time></trkpt><trkpt lat="44.7901821" lon="9.6573139"><ele>615.0</ele><time>2026-05-01T14:22:26.999Z</time></trkpt><trkpt lat="44.7900921" lon="9.6573217"><ele>615.0</ele><time>2026-05-01T14:22:27.997Z</time></trkpt><trkpt lat="44.7900002" lon="9.6572987"><ele>615.0</ele><time>2026-05-01T14:22:28.997Z</time></trkpt><trkpt lat="44.7899084" lon="9.6572477"><ele>615.0</ele><time>2026-05-01T14:22:29.997Z</time></trkpt><trkpt lat="44.7898169" lon="9.6571781"><ele>613.25</ele><time>2026-05-01T14:22:30.999Z</time></trkpt><trkpt lat="44.7897256" lon="9.6570875"><ele>611.5</ele><time>2026-05-01T14:22:31.996Z</time></trkpt><trkpt lat="44.7896322" lon="9.656985"><ele>609.75</ele><time>2026-05-01T14:22:32.997Z</time></trkpt><trkpt lat="44.7895383" lon="9.6568765"><ele>608.0</ele><time>2026-05-01T14:22:33.997Z</time></trkpt><trkpt lat="44.7894451" lon="9.6567588"><ele>609.25</ele><time>2026-05-01T14:22:34.996Z</time></trkpt><trkpt lat="44.7893499" lon="9.6566349"><ele>610.5</ele><time>2026-05-01T14:22:35.998Z</time></trkpt><trkpt lat="44.7892431" lon="9.6565066"><ele>611.75</ele><time>2026-05-01T14:22:36.996Z</time></trkpt><trkpt lat="44.7891125" lon="9.6563688"><ele>613.0</ele><time>2026-05-01T14:22:37.997Z</time></trkpt><trkpt lat="44.7889595" lon="9.6562212"><ele>615.3333333333334</ele><time>2026-05-01T14:22:38.997Z</time></trkpt><trkpt lat="44.7888001" lon="9.6560791"><ele>617.6666666666666</ele><time>2026-05-01T14:22:39.997Z</time></trkpt><trkpt lat="44.7886541" lon="9.655954"><ele>620.0</ele><time>2026-05-01T14:22:40.997Z</time></trkpt><trkpt lat="44.788525" lon="9.6558467"><ele>618.6</ele><time>2026-05-01T14:22:41.998Z</time></trkpt><trkpt lat="44.788415" lon="9.6557517"><ele>617.2</ele><time>2026-05-01T14:22:42.997Z</time></trkpt><trkpt lat="44.788325" lon="9.6556683"><ele>615.8</ele><time>2026-05-01T14:22:43.997Z</time></trkpt><trkpt lat="44.7882583" lon="9.655585"><ele>614.4</ele><time>2026-05-01T14:22:44.997Z</time></trkpt><trkpt lat="44.7882117" lon="9.6554933"><ele>613.0</ele><time>2026-05-01T14:22:45.999Z</time></trkpt><trkpt lat="44.788175" lon="9.655395"><ele>614.4</ele><time>2026-05-01T14:22:46.997Z</time></trkpt><trkpt lat="44.7881533" lon="9.655275"><ele>615.8</ele><time>2026-05-01T14:22:47.997Z</time></trkpt><trkpt lat="44.788135" lon="9.655145"><ele>617.2</ele><time>2026-05-01T14:22:48.997Z</time></trkpt><trkpt lat="44.788115" lon="9.65502"><ele>618.6</ele><time>2026-05-01T14:22:49.997Z</time></trkpt><trkpt lat="44.7880717" lon="9.6549017"><ele>620.0</ele><time>2026-05-01T14:22:50.998Z</time></trkpt><trkpt lat="44.78801" lon="9.6547817"><ele>620.0</ele><time>2026-05-01T14:22:51.998Z</time></trkpt><trkpt lat="44.787935" lon="9.6546633"><ele>620.0</ele><time>2026-05-01T14:22:52.997Z</time></trkpt><trkpt lat="44.7878667" lon="9.654555"><ele>620.0</ele><time>2026-05-01T14:22:53.997Z</time></trkpt><trkpt lat="44.7878067" lon="9.6544433"><ele>620.0</ele><time>2026-05-01T14:22:54.997Z</time></trkpt><trkpt lat="44.7877483" lon="9.6543283"><ele>620.0</ele><time>2026-05-01T14:22:55.997Z</time></trkpt><trkpt lat="44.7877" lon="9.6541983"><ele>621.0</ele><time>2026-05-01T14:22:56.997Z</time></trkpt><trkpt lat="44.7876567" lon="9.6540667"><ele>622.0</ele><time>2026-05-01T14:22:57.997Z</time></trkpt><trkpt lat="44.7876233" lon="9.65394"><ele>623.0</ele><time>2026-05-01T14:22:58.996Z</time></trkpt><trkpt lat="44.787585" lon="9.6538233"><ele>624.0</ele><time>2026-05-01T14:22:59.996Z</time></trkpt><trkpt lat="44.7875267" lon="9.65372"><ele>625.0</ele><time>2026-05-01T14:23:00.997Z</time></trkpt><trkpt lat="44.7874383" lon="9.6536317"><ele>626.2</ele><time>2026-05-01T14:23:02Z</time></trkpt><trkpt lat="44.7873433" lon="9.6535483"><ele>627.4</ele><time>2026-05-01T14:23:02.997Z</time></trkpt><trkpt lat="44.7872533" lon="9.6534633"><ele>628.6</ele><time>2026-05-01T14:23:03.999Z</time></trkpt><trkpt lat="44.7871717" lon="9.653375"><ele>629.8</ele><time>2026-05-01T14:23:04.998Z</time></trkpt><trkpt lat="44.787105" lon="9.6532633"><ele>631.0</ele><time>2026-05-01T14:23:05.998Z</time></trkpt><trkpt lat="44.78705" lon="9.6531233"><ele>631.0</ele><time>2026-05-01T14:23:06.998Z</time></trkpt><trkpt lat="44.7869933" lon="9.6529583"><ele>631.0</ele><time>2026-05-01T14:23:07.996Z</time></trkpt><trkpt lat="44.7869283" lon="9.6527917"><ele>631.0</ele><time>2026-05-01T14:23:08.998Z</time></trkpt><trkpt lat="44.7868683" lon="9.6526383"><ele>631.0</ele><time>2026-05-01T14:23:09.996Z</time></trkpt><trkpt lat="44.7868183" lon="9.65247"><ele>631.25</ele><time>2026-05-01T14:23:10.997Z</time></trkpt><trkpt lat="44.7867733" lon="9.652285"><ele>631.5</ele><time>2026-05-01T14:23:11.998Z</time></trkpt><trkpt lat="44.786725" lon="9.65209"><ele>631.75</ele><time>2026-05-01T14:23:12.998Z</time></trkpt><trkpt lat="44.786665" lon="9.6518783"><ele>632.0</ele><time>2026-05-01T14:23:13.997Z</time></trkpt><trkpt lat="44.786605" lon="9.651665"><ele>635.0</ele><time>2026-05-01T14:23:14.997Z</time></trkpt><trkpt lat="44.786555" lon="9.6514617"><ele>638.0</ele><time>2026-05-01T14:23:15.997Z</time></trkpt><trkpt lat="44.786505" lon="9.6512583"><ele>641.0</ele><time>2026-05-01T14:23:16.996Z</time></trkpt><trkpt lat="44.7864483" lon="9.651065"><ele>643.25</ele><time>2026-05-01T14:23:17.996Z</time></trkpt><trkpt lat="44.78639" lon="9.6508817"><ele>645.5</ele><time>2026-05-01T14:23:18.997Z</time></trkpt><trkpt lat="44.7863533" lon="9.6507083"><ele>647.75</ele><time>2026-05-01T14:23:19.997Z</time></trkpt><trkpt lat="44.7863433" lon="9.65053"><ele>650.0</ele><time>2026-05-01T14:23:20.998Z</time></trkpt><trkpt lat="44.7863567" lon="9.65033"><ele>651.0</ele><time>2026-05-01T14:23:21.997Z</time></trkpt><trkpt lat="44.7863783" lon="9.65012"><ele>652.0</ele><time>2026-05-01T14:23:22.997Z</time></trkpt><trkpt lat="44.7863983" lon="9.64991"><ele>653.0</ele><time>2026-05-01T14:23:23.998Z</time></trkpt><trkpt lat="44.78641" lon="9.6497167"><ele>654.0</ele><time>2026-05-01T14:23:24.999Z</time></trkpt><trkpt lat="44.7864117" lon="9.6495417"><ele>655.25</ele><time>2026-05-01T14:23:25.996Z</time></trkpt><trkpt lat="44.7863967" lon="9.6493767"><ele>656.5</ele><time>2026-05-01T14:23:26.998Z</time></trkpt><trkpt lat="44.7863583" lon="9.6492117"><ele>657.75</ele><time>2026-05-01T14:23:27.996Z</time></trkpt><trkpt lat="44.7862967" lon="9.6490583"><ele>659.0</ele><time>2026-05-01T14:23:28.996Z</time></trkpt><trkpt lat="44.7862167" lon="9.6489183"><ele>659.0</ele><time>2026-05-01T14:23:29.996Z</time></trkpt><trkpt lat="44.7861167" lon="9.6487967"><ele>659.0</ele><time>2026-05-01T14:23:30.997Z</time></trkpt><trkpt lat="44.7860083" lon="9.6487033"><ele>659.0</ele><time>2026-05-01T14:23:31.998Z</time></trkpt><trkpt lat="44.7858967" lon="9.6486333"><ele>659.0</ele><time>2026-05-01T14:23:32.998Z</time></trkpt><trkpt lat="44.7857883" lon="9.6485883"><ele>659.8000000000001</ele><time>2026-05-01T14:23:33.996Z</time></trkpt><trkpt lat="44.785685" lon="9.6485567"><ele>660.6</ele><time>2026-05-01T14:23:34.999Z</time></trkpt><trkpt lat="44.785585" lon="9.6485117"><ele>661.4</ele><time>2026-05-01T14:23:35.998Z</time></trkpt><trkpt lat="44.7854917" lon="9.6484333"><ele>662.2</ele><time>2026-05-01T14:23:37.003Z</time></trkpt><trkpt lat="44.7854017" lon="9.6483183"><ele>663.0</ele><time>2026-05-01T14:23:37.997Z</time></trkpt><trkpt lat="44.78531" lon="9.6481867"><ele>663.0</ele><time>2026-05-01T14:23:38.999Z</time></trkpt><trkpt lat="44.78521" lon="9.6480583"><ele>663.0</ele><time>2026-05-01T14:23:39.996Z</time></trkpt><trkpt lat="44.7850983" lon="9.6479467"><ele>663.0</ele><time>2026-05-01T14:23:40.996Z</time></trkpt><trkpt lat="44.78498" lon="9.647855"><ele>663.0</ele><time>2026-05-01T14:23:41.997Z</time></trkpt><trkpt lat="44.78486" lon="9.64778"><ele>665.0</ele><time>2026-05-01T14:23:42.997Z</time></trkpt><trkpt lat="44.7847467" lon="9.6477233"><ele>667.0</ele><time>2026-05-01T14:23:43.997Z</time></trkpt><trkpt lat="44.7846383" lon="9.6476717"><ele>669.0</ele><time>2026-05-01T14:23:44.998Z</time></trkpt><trkpt lat="44.7845367" lon="9.64762"><ele>671.0</ele><time>2026-05-01T14:23:45.997Z</time></trkpt><trkpt lat="44.78443" lon="9.6475833"><ele>671.25</ele><time>2026-05-01T14:23:46.998Z</time></trkpt><trkpt lat="44.7843067" lon="9.6475733"><ele>671.5</ele><time>2026-05-01T14:23:47.998Z</time></trkpt><trkpt lat="44.78419" lon="9.6475683"><ele>671.75</ele><time>2026-05-01T14:23:48.997Z</time></trkpt><trkpt lat="44.7840783" lon="9.6475633"><ele>672.0</ele><time>2026-05-01T14:23:49.997Z</time></trkpt><trkpt lat="44.783975" lon="9.6475467"><ele>672.0</ele><time>2026-05-01T14:23:50.997Z</time></trkpt><trkpt lat="44.7838667" lon="9.6475333"><ele>672.0</ele><time>2026-05-01T14:23:51.996Z</time></trkpt><trkpt lat="44.7837567" lon="9.6475533"><ele>672.0</ele><time>2026-05-01T14:23:52.997Z</time></trkpt><trkpt lat="44.7836567" lon="9.647585"><ele>672.0</ele><time>2026-05-01T14:23:53.997Z</time></trkpt><trkpt lat="44.78357" lon="9.6476133"><ele>672.0</ele><time>2026-05-01T14:23:54.996Z</time></trkpt><trkpt lat="44.7834967" lon="9.6476317"><ele>672.0</ele><time>2026-05-01T14:23:55.996Z</time></trkpt><trkpt lat="44.7834317" lon="9.6476283"><ele>672.0</ele><time>2026-05-01T14:23:56.996Z</time></trkpt><trkpt lat="44.783355" lon="9.6475467"><ele>672.0</ele><time>2026-05-01T14:23:58.996Z</time></trkpt><trkpt lat="44.78342" lon="9.6473883"><ele>672.0</ele><time>2026-05-01T14:24:00.998Z</time></trkpt><trkpt lat="44.7835117" lon="9.6472933"><ele>672.0</ele><time>2026-05-01T14:24:01.996Z</time></trkpt><trkpt lat="44.7836433" lon="9.6471983"><ele>672.0</ele><time>2026-05-01T14:24:02.996Z</time></trkpt><trkpt lat="44.7837783" lon="9.6470983"><ele>672.0</ele><time>2026-05-01T14:24:03.996Z</time></trkpt><trkpt lat="44.7839167" lon="9.6470033"><ele>672.0</ele><time>2026-05-01T14:24:04.996Z</time></trkpt><trkpt lat="44.7840433" lon="9.646925"><ele>672.0</ele><time>2026-05-01T14:24:05.996Z</time></trkpt><trkpt lat="44.7841583" lon="9.64686"><ele>675.0</ele><time>2026-05-01T14:24:06.996Z</time></trkpt><trkpt lat="44.7842667" lon="9.6468183"><ele>678.0</ele><time>2026-05-01T14:24:07.996Z</time></trkpt><trkpt lat="44.784375" lon="9.6468067"><ele>681.0</ele><time>2026-05-01T14:24:08.997Z</time></trkpt><trkpt lat="44.7844817" lon="9.646815"><ele>684.0</ele><time>2026-05-01T14:24:09.996Z</time></trkpt><trkpt lat="44.784605" lon="9.6468033"><ele>684.0</ele><time>2026-05-01T14:24:10.996Z</time></trkpt><trkpt lat="44.7847417" lon="9.64678"><ele>684.0</ele><time>2026-05-01T14:24:11.997Z</time></trkpt><trkpt lat="44.78488" lon="9.6467583"><ele>684.0</ele><time>2026-05-01T14:24:12.996Z</time></trkpt><trkpt lat="44.7850167" lon="9.6467367"><ele>684.0</ele><time>2026-05-01T14:24:13.998Z</time></trkpt><trkpt lat="44.78515" lon="9.646695"><ele>683.4000000000001</ele><time>2026-05-01T14:24:14.998Z</time></trkpt><trkpt lat="44.7852733" lon="9.6466533"><ele>682.8</ele><time>2026-05-01T14:24:15.996Z</time></trkpt><trkpt lat="44.7853867" lon="9.6466183"><ele>682.2</ele><time>2026-05-01T14:24:16.996Z</time></trkpt><trkpt lat="44.78548" lon="9.6465933"><ele>681.5999999999999</ele><time>2026-05-01T14:24:17.997Z</time></trkpt><trkpt lat="44.7855567" lon="9.646565"><ele>681.0</ele><time>2026-05-01T14:24:18.996Z</time></trkpt><trkpt lat="44.7856217" lon="9.646535"><ele>681.0</ele><time>2026-05-01T14:24:19.997Z</time></trkpt><trkpt lat="44.7856767" lon="9.64648"><ele>681.0</ele><time>2026-05-01T14:24:21.998Z</time></trkpt><trkpt lat="44.7856183" lon="9.6463833"><ele>681.0</ele><time>2026-05-01T14:24:24.998Z</time></trkpt><trkpt lat="44.785555" lon="9.64634"><ele>681.0</ele><time>2026-05-01T14:24:25.997Z</time></trkpt><trkpt lat="44.7854767" lon="9.6462833"><ele>681.0</ele><time>2026-05-01T14:24:26.997Z</time></trkpt><trkpt lat="44.7853933" lon="9.6462067"><ele>681.0</ele><time>2026-05-01T14:24:27.997Z</time></trkpt><trkpt lat="44.78531" lon="9.6461017"><ele>680.75</ele><time>2026-05-01T14:24:28.998Z</time></trkpt><trkpt lat="44.78524" lon="9.645965"><ele>680.5</ele><time>2026-05-01T14:24:29.998Z</time></trkpt><trkpt lat="44.7851817" lon="9.6458033"><ele>680.25</ele><time>2026-05-01T14:24:30.999Z</time></trkpt><trkpt lat="44.7851367" lon="9.6456367"><ele>680.0</ele><time>2026-05-01T14:24:31.996Z</time></trkpt><trkpt lat="44.7850967" lon="9.6454833"><ele>681.75</ele><time>2026-05-01T14:24:32.997Z</time></trkpt><trkpt lat="44.7850417" lon="9.6453517"><ele>683.5</ele><time>2026-05-01T14:24:33.996Z</time></trkpt><trkpt lat="44.7849667" lon="9.64524"><ele>685.25</ele><time>2026-05-01T14:24:34.995Z</time></trkpt><trkpt lat="44.7848633" lon="9.6451467"><ele>687.0</ele><time>2026-05-01T14:24:35.995Z</time></trkpt><trkpt lat="44.7847267" lon="9.6450567"><ele>687.0</ele><time>2026-05-01T14:24:36.995Z</time></trkpt><trkpt lat="44.7845733" lon="9.6449583"><ele>687.0</ele><time>2026-05-01T14:24:37.996Z</time></trkpt><trkpt lat="44.7844133" lon="9.64486"><ele>687.0</ele><time>2026-05-01T14:24:38.996Z</time></trkpt><trkpt lat="44.7842567" lon="9.6447667"><ele>689.5</ele><time>2026-05-01T14:24:39.996Z</time></trkpt><trkpt lat="44.78411" lon="9.6446767"><ele>692.0</ele><time>2026-05-01T14:24:40.997Z</time></trkpt><trkpt lat="44.7839717" lon="9.644595"><ele>694.5</ele><time>2026-05-01T14:24:41.995Z</time></trkpt><trkpt lat="44.7838467" lon="9.644525"><ele>697.0</ele><time>2026-05-01T14:24:42.995Z</time></trkpt><trkpt lat="44.7837317" lon="9.644465"><ele>697.5</ele><time>2026-05-01T14:24:43.995Z</time></trkpt><trkpt lat="44.7836117" lon="9.6444333"><ele>698.0</ele><time>2026-05-01T14:24:44.996Z</time></trkpt><trkpt lat="44.783475" lon="9.6444417"><ele>698.5</ele><time>2026-05-01T14:24:45.995Z</time></trkpt><trkpt lat="44.78333" lon="9.64447"><ele>699.0</ele><time>2026-05-01T14:24:46.995Z</time></trkpt><trkpt lat="44.7831817" lon="9.6445067"><ele>699.0</ele><time>2026-05-01T14:24:47.997Z</time></trkpt><trkpt lat="44.78304" lon="9.6445333"><ele>699.0</ele><time>2026-05-01T14:24:48.996Z</time></trkpt><trkpt lat="44.7829033" lon="9.644535"><ele>699.0</ele><time>2026-05-01T14:24:49.996Z</time></trkpt><trkpt lat="44.7827767" lon="9.64449"><ele>699.0</ele><time>2026-05-01T14:24:50.998Z</time></trkpt><trkpt lat="44.7826617" lon="9.6444133"><ele>698.75</ele><time>2026-05-01T14:24:51.998Z</time></trkpt><trkpt lat="44.7825567" lon="9.64434"><ele>698.5</ele><time>2026-05-01T14:24:53.069Z</time></trkpt><trkpt lat="44.7824483" lon="9.6443"><ele>698.25</ele><time>2026-05-01T14:24:53.998Z</time></trkpt><trkpt lat="44.78233" lon="9.6443033"><ele>698.0</ele><time>2026-05-01T14:24:54.996Z</time></trkpt><trkpt lat="44.7822" lon="9.6443533"><ele>698.0</ele><time>2026-05-01T14:24:55.996Z</time></trkpt><trkpt lat="44.782065" lon="9.6444417"><ele>698.0</ele><time>2026-05-01T14:24:56.996Z</time></trkpt><trkpt lat="44.7819317" lon="9.6445517"><ele>698.0</ele><time>2026-05-01T14:24:57.996Z</time></trkpt><trkpt lat="44.7818" lon="9.644665"><ele>702.0</ele><time>2026-05-01T14:24:58.996Z</time></trkpt><trkpt lat="44.78166" lon="9.6447567"><ele>706.0</ele><time>2026-05-01T14:24:59.995Z</time></trkpt><trkpt lat="44.781505" lon="9.64481"><ele>710.0</ele><time>2026-05-01T14:25:00.997Z</time></trkpt><trkpt lat="44.7813367" lon="9.6448433"><ele>710.0</ele><time>2026-05-01T14:25:01.996Z</time></trkpt><trkpt lat="44.781165" lon="9.644875"><ele>710.0</ele><time>2026-05-01T14:25:02.997Z</time></trkpt><trkpt lat="44.78101" lon="9.6449033"><ele>710.0</ele><time>2026-05-01T14:25:03.995Z</time></trkpt><trkpt lat="44.7808667" lon="9.6449333"><ele>709.75</ele><time>2026-05-01T14:25:04.995Z</time></trkpt><trkpt lat="44.7807417" lon="9.644975"><ele>709.5</ele><time>2026-05-01T14:25:05.996Z</time></trkpt><trkpt lat="44.7806333" lon="9.6450467"><ele>709.25</ele><time>2026-05-01T14:25:06.996Z</time></trkpt><trkpt lat="44.7805467" lon="9.645165"><ele>709.0</ele><time>2026-05-01T14:25:07.996Z</time></trkpt><trkpt lat="44.7804683" lon="9.6453283"><ele>712.0</ele><time>2026-05-01T14:25:08.997Z</time></trkpt><trkpt lat="44.7803983" lon="9.645525"><ele>715.0</ele><time>2026-05-01T14:25:09.997Z</time></trkpt><trkpt lat="44.7803283" lon="9.6457333"><ele>718.0</ele><time>2026-05-01T14:25:10.996Z</time></trkpt><trkpt lat="44.78025" lon="9.64595"><ele>717.0</ele><time>2026-05-01T14:25:12.002Z</time></trkpt><trkpt lat="44.7801583" lon="9.6461633"><ele>716.0</ele><time>2026-05-01T14:25:12.998Z</time></trkpt><trkpt lat="44.78005" lon="9.64635"><ele>715.0</ele><time>2026-05-01T14:25:13.996Z</time></trkpt><trkpt lat="44.7799367" lon="9.6465167"><ele>715.0</ele><time>2026-05-01T14:25:14.996Z</time></trkpt><trkpt lat="44.77982" lon="9.6466617"><ele>715.0</ele><time>2026-05-01T14:25:15.995Z</time></trkpt><trkpt lat="44.7797033" lon="9.64677"><ele>715.0</ele><time>2026-05-01T14:25:16.995Z</time></trkpt><trkpt lat="44.77958" lon="9.6468267"><ele>715.0</ele><time>2026-05-01T14:25:17.996Z</time></trkpt><trkpt lat="44.7794533" lon="9.6468467"><ele>715.25</ele><time>2026-05-01T14:25:18.997Z</time></trkpt><trkpt lat="44.77933" lon="9.646815"><ele>715.5</ele><time>2026-05-01T14:25:19.996Z</time></trkpt><trkpt lat="44.77921" lon="9.6467283"><ele>715.75</ele><time>2026-05-01T14:25:20.997Z</time></trkpt><trkpt lat="44.7791" lon="9.646625"><ele>716.0</ele><time>2026-05-01T14:25:21.997Z</time></trkpt><trkpt lat="44.7789883" lon="9.64654"><ele>716.0</ele><time>2026-05-01T14:25:22.996Z</time></trkpt><trkpt lat="44.7788733" lon="9.6464967"><ele>716.0</ele><time>2026-05-01T14:25:23.997Z</time></trkpt><trkpt lat="44.7787433" lon="9.646505"><ele>716.0</ele><time>2026-05-01T14:25:24.997Z</time></trkpt><trkpt lat="44.7786183" lon="9.6465533"><ele>716.0</ele><time>2026-05-01T14:25:25.995Z</time></trkpt><trkpt lat="44.7785067" lon="9.6466267"><ele>716.8</ele><time>2026-05-01T14:25:26.996Z</time></trkpt><trkpt lat="44.7784183" lon="9.6467183"><ele>717.5999999999999</ele><time>2026-05-01T14:25:27.995Z</time></trkpt><trkpt lat="44.7783483" lon="9.646825"><ele>718.4</ele><time>2026-05-01T14:25:28.996Z</time></trkpt><trkpt lat="44.77829" lon="9.6469417"><ele>719.2</ele><time>2026-05-01T14:25:29.996Z</time></trkpt><trkpt lat="44.7782283" lon="9.6470783"><ele>720.0</ele><time>2026-05-01T14:25:30.995Z</time></trkpt><trkpt lat="44.778155" lon="9.6472267"><ele>720.0</ele><time>2026-05-01T14:25:31.995Z</time></trkpt><trkpt lat="44.7780717" lon="9.6473783"><ele>720.0</ele><time>2026-05-01T14:25:32.996Z</time></trkpt><trkpt lat="44.7779717" lon="9.647515"><ele>720.0</ele><time>2026-05-01T14:25:33.995Z</time></trkpt><trkpt lat="44.7778567" lon="9.6476217"><ele>720.0</ele><time>2026-05-01T14:25:34.996Z</time></trkpt><trkpt lat="44.7777317" lon="9.64768"><ele>718.75</ele><time>2026-05-01T14:25:35.995Z</time></trkpt><trkpt lat="44.7775967" lon="9.6476933"><ele>717.5</ele><time>2026-05-01T14:25:36.996Z</time></trkpt><trkpt lat="44.777465" lon="9.64766"><ele>716.25</ele><time>2026-05-01T14:25:37.997Z</time></trkpt><trkpt lat="44.77735" lon="9.6476017"><ele>715.0</ele><time>2026-05-01T14:25:38.996Z</time></trkpt><trkpt lat="44.777255" lon="9.647515"><ele>715.0</ele><time>2026-05-01T14:25:39.995Z</time></trkpt><trkpt lat="44.7771783" lon="9.6474033"><ele>715.0</ele><time>2026-05-01T14:25:40.997Z</time></trkpt><trkpt lat="44.777115" lon="9.6472767"><ele>715.0</ele><time>2026-05-01T14:25:41.996Z</time></trkpt><trkpt lat="44.7770617" lon="9.6471567"><ele>715.0</ele><time>2026-05-01T14:25:42.996Z</time></trkpt><trkpt lat="44.7769917" lon="9.6470683"><ele>715.0</ele><time>2026-05-01T14:25:43.996Z</time></trkpt><trkpt lat="44.7769" lon="9.6470267"><ele>716.5</ele><time>2026-05-01T14:25:44.996Z</time></trkpt><trkpt lat="44.7767817" lon="9.6470417"><ele>718.0</ele><time>2026-05-01T14:25:45.996Z</time></trkpt><trkpt lat="44.77666" lon="9.6470883"><ele>719.5</ele><time>2026-05-01T14:25:46.995Z</time></trkpt><trkpt lat="44.776545" lon="9.6471367"><ele>721.0</ele><time>2026-05-01T14:25:47.995Z</time></trkpt><trkpt lat="44.7764317" lon="9.6471883"><ele>721.0</ele><time>2026-05-01T14:25:48.995Z</time></trkpt><trkpt lat="44.776325" lon="9.647245"><ele>721.0</ele><time>2026-05-01T14:25:49.997Z</time></trkpt><trkpt lat="44.776225" lon="9.6473"><ele>721.0</ele><time>2026-05-01T14:25:50.996Z</time></trkpt><trkpt lat="44.77614" lon="9.6473733"><ele>721.0</ele><time>2026-05-01T14:25:51.995Z</time></trkpt><trkpt lat="44.7760733" lon="9.6474733"><ele>721.0</ele><time>2026-05-01T14:25:52.996Z</time></trkpt><trkpt lat="44.77602" lon="9.6475983"><ele>720.0</ele><time>2026-05-01T14:25:53.995Z</time></trkpt><trkpt lat="44.7759717" lon="9.6477317"><ele>719.0</ele><time>2026-05-01T14:25:54.995Z</time></trkpt><trkpt lat="44.77593" lon="9.64787"><ele>718.0</ele><time>2026-05-01T14:25:55.997Z</time></trkpt><trkpt lat="44.7759017" lon="9.6480167"><ele>717.0</ele><time>2026-05-01T14:25:56.997Z</time></trkpt><trkpt lat="44.7758867" lon="9.6481633"><ele>716.0</ele><time>2026-05-01T14:25:57.997Z</time></trkpt><trkpt lat="44.7758767" lon="9.6483117"><ele>716.0</ele><time>2026-05-01T14:25:58.996Z</time></trkpt><trkpt lat="44.775855" lon="9.6484467"><ele>716.0</ele><time>2026-05-01T14:25:59.997Z</time></trkpt><trkpt lat="44.775815" lon="9.6485667"><ele>716.0</ele><time>2026-05-01T14:26:00.996Z</time></trkpt><trkpt lat="44.7757517" lon="9.6486567"><ele>716.0</ele><time>2026-05-01T14:26:01.996Z</time></trkpt><trkpt lat="44.7756667" lon="9.648715"><ele>716.0</ele><time>2026-05-01T14:26:02.996Z</time></trkpt><trkpt lat="44.775565" lon="9.648735"><ele>715.75</ele><time>2026-05-01T14:26:03.996Z</time></trkpt><trkpt lat="44.775455" lon="9.6487283"><ele>715.5</ele><time>2026-05-01T14:26:04.995Z</time></trkpt><trkpt lat="44.7753383" lon="9.64871"><ele>715.25</ele><time>2026-05-01T14:26:05.997Z</time></trkpt><trkpt lat="44.7752133" lon="9.6486867"><ele>715.0</ele><time>2026-05-01T14:26:06.997Z</time></trkpt><trkpt lat="44.775085" lon="9.64866"><ele>714.75</ele><time>2026-05-01T14:26:07.996Z</time></trkpt><trkpt lat="44.774955" lon="9.64863"><ele>714.5</ele><time>2026-05-01T14:26:09Z</time></trkpt><trkpt lat="44.774825" lon="9.6486"><ele>714.25</ele><time>2026-05-01T14:26:09.996Z</time></trkpt><trkpt lat="44.7746983" lon="9.64857"><ele>714.0</ele><time>2026-05-01T14:26:10.997Z</time></trkpt><trkpt lat="44.7745717" lon="9.6485383"><ele>714.5</ele><time>2026-05-01T14:26:11.997Z</time></trkpt><trkpt lat="44.7744467" lon="9.6484933"><ele>715.0</ele><time>2026-05-01T14:26:12.996Z</time></trkpt><trkpt lat="44.7743133" lon="9.64844"><ele>715.5</ele><time>2026-05-01T14:26:13.997Z</time></trkpt><trkpt lat="44.77418" lon="9.6483783"><ele>716.0</ele><time>2026-05-01T14:26:14.996Z</time></trkpt><trkpt lat="44.7740417" lon="9.6483217"><ele>716.0</ele><time>2026-05-01T14:26:15.997Z</time></trkpt><trkpt lat="44.7738983" lon="9.6482683"><ele>716.0</ele><time>2026-05-01T14:26:16.995Z</time></trkpt><trkpt lat="44.77376" lon="9.648215"><ele>716.0</ele><time>2026-05-01T14:26:17.995Z</time></trkpt><trkpt lat="44.773625" lon="9.6481683"><ele>716.0</ele><time>2026-05-01T14:26:18.997Z</time></trkpt><trkpt lat="44.7734933" lon="9.64813"><ele>716.75</ele><time>2026-05-01T14:26:19.995Z</time></trkpt><trkpt lat="44.7733583" lon="9.648095"><ele>717.5</ele><time>2026-05-01T14:26:20.996Z</time></trkpt><trkpt lat="44.7732183" lon="9.6480617"><ele>718.25</ele><time>2026-05-01T14:26:21.996Z</time></trkpt><trkpt lat="44.773075" lon="9.6480267"><ele>719.0</ele><time>2026-05-01T14:26:22.995Z</time></trkpt><trkpt lat="44.7729267" lon="9.6479833"><ele>719.0</ele><time>2026-05-01T14:26:23.997Z</time></trkpt><trkpt lat="44.7727683" lon="9.6479383"><ele>719.0</ele><time>2026-05-01T14:26:24.995Z</time></trkpt><trkpt lat="44.7726183" lon="9.6478817"><ele>719.0</ele><time>2026-05-01T14:26:25.997Z</time></trkpt><trkpt lat="44.7724783" lon="9.6478283"><ele>719.75</ele><time>2026-05-01T14:26:26.997Z</time></trkpt><trkpt lat="44.772345" lon="9.6477967"><ele>720.5</ele><time>2026-05-01T14:26:27.997Z</time></trkpt><trkpt lat="44.7722167" lon="9.6478017"><ele>721.25</ele><time>2026-05-01T14:26:28.997Z</time></trkpt><trkpt lat="44.7720883" lon="9.64785"><ele>722.0</ele><time>2026-05-01T14:26:29.999Z</time></trkpt><trkpt lat="44.7719633" lon="9.6479333"><ele>724.25</ele><time>2026-05-01T14:26:30.997Z</time></trkpt><trkpt lat="44.7718467" lon="9.6480533"><ele>726.5</ele><time>2026-05-01T14:26:31.996Z</time></trkpt><trkpt lat="44.7717383" lon="9.6481883"><ele>728.75</ele><time>2026-05-01T14:26:32.997Z</time></trkpt><trkpt lat="44.7716317" lon="9.6483167"><ele>731.0</ele><time>2026-05-01T14:26:33.995Z</time></trkpt><trkpt lat="44.7715217" lon="9.648425"><ele>731.0</ele><time>2026-05-01T14:26:34.997Z</time></trkpt><trkpt lat="44.7714017" lon="9.6485133"><ele>731.0</ele><time>2026-05-01T14:26:35.995Z</time></trkpt><trkpt lat="44.77127" lon="9.6485767"><ele>731.0</ele><time>2026-05-01T14:26:36.996Z</time></trkpt><trkpt lat="44.7711317" lon="9.6486233"><ele>731.0</ele><time>2026-05-01T14:26:37.996Z</time></trkpt><trkpt lat="44.7709833" lon="9.6486667"><ele>731.6666666666666</ele><time>2026-05-01T14:26:38.997Z</time></trkpt><trkpt lat="44.7708333" lon="9.64872"><ele>732.3333333333334</ele><time>2026-05-01T14:26:39.997Z</time></trkpt><trkpt lat="44.7706783" lon="9.6487817"><ele>733.0</ele><time>2026-05-01T14:26:40.996Z</time></trkpt><trkpt lat="44.7705183" lon="9.6488517"><ele>733.0</ele><time>2026-05-01T14:26:41.996Z</time></trkpt><trkpt lat="44.7703583" lon="9.6489283"><ele>733.0</ele><time>2026-05-01T14:26:42.996Z</time></trkpt><trkpt lat="44.7702" lon="9.6490217"><ele>733.0</ele><time>2026-05-01T14:26:43.997Z</time></trkpt><trkpt lat="44.7700533" lon="9.6491383"><ele>736.5</ele><time>2026-05-01T14:26:44.996Z</time></trkpt><trkpt lat="44.769925" lon="9.649275"><ele>740.0</ele><time>2026-05-01T14:26:45.996Z</time></trkpt><trkpt lat="44.7698183" lon="9.64941"><ele>743.5</ele><time>2026-05-01T14:26:46.997Z</time></trkpt><trkpt lat="44.7697183" lon="9.6495367"><ele>747.0</ele><time>2026-05-01T14:26:47.996Z</time></trkpt><trkpt lat="44.7696283" lon="9.6496467"><ele>747.0</ele><time>2026-05-01T14:26:48.996Z</time></trkpt><trkpt lat="44.7695367" lon="9.649735"><ele>747.0</ele><time>2026-05-01T14:26:49.995Z</time></trkpt><trkpt lat="44.7694417" lon="9.6498017"><ele>747.0</ele><time>2026-05-01T14:26:50.996Z</time></trkpt><trkpt lat="44.7693417" lon="9.6498367"><ele>747.0</ele><time>2026-05-01T14:26:51.995Z</time></trkpt><trkpt lat="44.7692383" lon="9.649835"><ele>747.0</ele><time>2026-05-01T14:26:52.995Z</time></trkpt><trkpt lat="44.7691267" lon="9.6498"><ele>748.5</ele><time>2026-05-01T14:26:53.996Z</time></trkpt><trkpt lat="44.7690083" lon="9.6497367"><ele>750.0</ele><time>2026-05-01T14:26:54.996Z</time></trkpt><trkpt lat="44.768875" lon="9.64966"><ele>751.5</ele><time>2026-05-01T14:26:55.995Z</time></trkpt><trkpt lat="44.768735" lon="9.6495983"><ele>753.0</ele><time>2026-05-01T14:26:56.997Z</time></trkpt><trkpt lat="44.76859" lon="9.6495683"><ele>754.6666666666666</ele><time>2026-05-01T14:26:57.996Z</time></trkpt><trkpt lat="44.76844" lon="9.6495883"><ele>756.3333333333333</ele><time>2026-05-01T14:26:58.996Z</time></trkpt><trkpt lat="44.7682833" lon="9.6496433"><ele>758.0</ele><time>2026-05-01T14:26:59.999Z</time></trkpt><trkpt lat="44.7681233" lon="9.6497233"><ele>758.0</ele><time>2026-05-01T14:27:00.997Z</time></trkpt><trkpt lat="44.7679667" lon="9.6498133"><ele>758.0</ele><time>2026-05-01T14:27:01.996Z</time></trkpt><trkpt lat="44.7678133" lon="9.6499067"><ele>758.0</ele><time>2026-05-01T14:27:02.996Z</time></trkpt><trkpt lat="44.767665" lon="9.649995"><ele>758.25</ele><time>2026-05-01T14:27:03.996Z</time></trkpt><trkpt lat="44.76753" lon="9.6500833"><ele>758.5</ele><time>2026-05-01T14:27:04.998Z</time></trkpt><trkpt lat="44.7674067" lon="9.6501783"><ele>758.75</ele><time>2026-05-01T14:27:05.995Z</time></trkpt><trkpt lat="44.76729" lon="9.6502717"><ele>759.0</ele><time>2026-05-01T14:27:06.996Z</time></trkpt><trkpt lat="44.76718" lon="9.6503467"><ele>759.0</ele><time>2026-05-01T14:27:07.999Z</time></trkpt><trkpt lat="44.7670633" lon="9.650395"><ele>759.0</ele><time>2026-05-01T14:27:08.997Z</time></trkpt><trkpt lat="44.7669333" lon="9.6504333"><ele>759.0</ele><time>2026-05-01T14:27:09.997Z</time></trkpt><trkpt lat="44.76679" lon="9.6504567"><ele>759.0</ele><time>2026-05-01T14:27:10.996Z</time></trkpt><trkpt lat="44.7666483" lon="9.6504633"><ele>761.25</ele><time>2026-05-01T14:27:11.997Z</time></trkpt><trkpt lat="44.766515" lon="9.650465"><ele>763.5</ele><time>2026-05-01T14:27:12.996Z</time></trkpt><trkpt lat="44.7663933" lon="9.650475"><ele>765.75</ele><time>2026-05-01T14:27:13.996Z</time></trkpt><trkpt lat="44.7662867" lon="9.6505067"><ele>768.0</ele><time>2026-05-01T14:27:14.995Z</time></trkpt><trkpt lat="44.7662" lon="9.65055"><ele>768.0</ele><time>2026-05-01T14:27:15.996Z</time></trkpt><trkpt lat="44.7661333" lon="9.6505933"><ele>768.0</ele><time>2026-05-01T14:27:16.995Z</time></trkpt><trkpt lat="44.7660817" lon="9.650645"><ele>768.0</ele><time>2026-05-01T14:27:17.996Z</time></trkpt><trkpt lat="44.76601" lon="9.6507583"><ele>768.0</ele><time>2026-05-01T14:27:19.996Z</time></trkpt><trkpt lat="44.7659333" lon="9.6508033"><ele>768.0</ele><time>2026-05-01T14:27:21.998Z</time></trkpt><trkpt lat="44.765835" lon="9.6507883"><ele>768.0</ele><time>2026-05-01T14:27:24Z</time></trkpt><trkpt lat="44.7657533" lon="9.6506967"><ele>769.3333333333334</ele><time>2026-05-01T14:27:26.031Z</time></trkpt><trkpt lat="44.7657517" lon="9.65054"><ele>770.6666666666667</ele><time>2026-05-01T14:27:27.998Z</time></trkpt><trkpt lat="44.765785" lon="9.6504567"><ele>772.0</ele><time>2026-05-01T14:27:28.998Z</time></trkpt><trkpt lat="44.7658383" lon="9.65038"><ele>773.3333333333334</ele><time>2026-05-01T14:27:29.998Z</time></trkpt><trkpt lat="44.765905" lon="9.6503167"><ele>774.6666666666667</ele><time>2026-05-01T14:27:30.997Z</time></trkpt><trkpt lat="44.76599" lon="9.65026"><ele>776.0</ele><time>2026-05-01T14:27:31.999Z</time></trkpt><trkpt lat="44.7660833" lon="9.6501967"><ele>777.0</ele><time>2026-05-01T14:27:33.003Z</time></trkpt><trkpt lat="44.7661817" lon="9.65012"><ele>778.0</ele><time>2026-05-01T14:27:33.997Z</time></trkpt><trkpt lat="44.7662833" lon="9.65002"><ele>779.0</ele><time>2026-05-01T14:27:34.995Z</time></trkpt><trkpt lat="44.7663833" lon="9.6499067"><ele>780.0</ele><time>2026-05-01T14:27:35.997Z</time></trkpt><trkpt lat="44.7664867" lon="9.6497883"><ele>780.0</ele><time>2026-05-01T14:27:36.997Z</time></trkpt><trkpt lat="44.7665933" lon="9.6496633"><ele>780.0</ele><time>2026-05-01T14:27:37.996Z</time></trkpt><trkpt lat="44.7667" lon="9.649535"><ele>780.0</ele><time>2026-05-01T14:27:38.996Z</time></trkpt><trkpt lat="44.7668067" lon="9.6494"><ele>780.0</ele><time>2026-05-01T14:27:39.997Z</time></trkpt><trkpt lat="44.7669167" lon="9.649265"><ele>780.75</ele><time>2026-05-01T14:27:40.996Z</time></trkpt><trkpt lat="44.7670283" lon="9.6491433"><ele>781.5</ele><time>2026-05-01T14:27:41.995Z</time></trkpt><trkpt lat="44.7671333" lon="9.64903"><ele>782.25</ele><time>2026-05-01T14:27:42.995Z</time></trkpt><trkpt lat="44.7672317" lon="9.6489167"><ele>783.0</ele><time>2026-05-01T14:27:43.995Z</time></trkpt><trkpt lat="44.7673083" lon="9.6488083"><ele>783.0</ele><time>2026-05-01T14:27:44.997Z</time></trkpt><trkpt lat="44.7673667" lon="9.648695"><ele>783.0</ele><time>2026-05-01T14:27:45.995Z</time></trkpt><trkpt lat="44.76741" lon="9.6485867"><ele>783.0</ele><time>2026-05-01T14:27:46.996Z</time></trkpt><trkpt lat="44.7674333" lon="9.648475"><ele>783.0</ele><time>2026-05-01T14:27:47.995Z</time></trkpt><trkpt lat="44.767435" lon="9.6483617"><ele>783.0</ele><time>2026-05-01T14:27:48.996Z</time></trkpt><trkpt lat="44.7674133" lon="9.64826"><ele>783.0</ele><time>2026-05-01T14:27:49.996Z</time></trkpt><trkpt lat="44.767355" lon="9.6481617"><ele>786.0</ele><time>2026-05-01T14:27:50.997Z</time></trkpt><trkpt lat="44.7672733" lon="9.6480733"><ele>789.0</ele><time>2026-05-01T14:27:51.996Z</time></trkpt><trkpt lat="44.7671683" lon="9.6479733"><ele>792.0</ele><time>2026-05-01T14:27:52.997Z</time></trkpt><trkpt lat="44.7670617" lon="9.6478783"><ele>795.0</ele><time>2026-05-01T14:27:53.999Z</time></trkpt><trkpt lat="44.7669533" lon="9.6477733"><ele>798.0</ele><time>2026-05-01T14:27:54.997Z</time></trkpt><trkpt lat="44.766845" lon="9.64767"><ele>801.0</ele><time>2026-05-01T14:27:55.997Z</time></trkpt><trkpt lat="44.7667467" lon="9.6475667"><ele>804.0</ele><time>2026-05-01T14:27:56.997Z</time></trkpt><trkpt lat="44.7666617" lon="9.6474733"><ele>807.0</ele><time>2026-05-01T14:27:57.996Z</time></trkpt><trkpt lat="44.7665833" lon="9.6473783"><ele>807.0</ele><time>2026-05-01T14:27:58.997Z</time></trkpt><trkpt lat="44.7665167" lon="9.6472883"><ele>807.0</ele><time>2026-05-01T14:27:59.996Z</time></trkpt><trkpt lat="44.76647" lon="9.6471983"><ele>807.0</ele><time>2026-05-01T14:28:00.997Z</time></trkpt><trkpt lat="44.7664417" lon="9.6471"><ele>807.0</ele><time>2026-05-01T14:28:01.997Z</time></trkpt><trkpt lat="44.7664217" lon="9.64699"><ele>807.0</ele><time>2026-05-01T14:28:02.996Z</time></trkpt><trkpt lat="44.7664133" lon="9.646875"><ele>807.0</ele><time>2026-05-01T14:28:03.995Z</time></trkpt><trkpt lat="44.7664217" lon="9.6467617"><ele>807.2</ele><time>2026-05-01T14:28:04.996Z</time></trkpt><trkpt lat="44.7664367" lon="9.6466267"><ele>807.4000000000001</ele><time>2026-05-01T14:28:05.996Z</time></trkpt><trkpt lat="44.7664633" lon="9.6464833"><ele>807.5999999999999</ele><time>2026-05-01T14:28:06.995Z</time></trkpt><trkpt lat="44.7665" lon="9.64635"><ele>807.8</ele><time>2026-05-01T14:28:07.996Z</time></trkpt><trkpt lat="44.7665433" lon="9.646225"><ele>808.0</ele><time>2026-05-01T14:28:08.997Z</time></trkpt><trkpt lat="44.7665683" lon="9.6461033"><ele>808.5999999999999</ele><time>2026-05-01T14:28:09.996Z</time></trkpt><trkpt lat="44.7665783" lon="9.64598"><ele>809.1999999999999</ele><time>2026-05-01T14:28:10.996Z</time></trkpt><trkpt lat="44.7665717" lon="9.6458533"><ele>809.8</ele><time>2026-05-01T14:28:11.997Z</time></trkpt><trkpt lat="44.7665417" lon="9.6457117"><ele>810.4</ele><time>2026-05-01T14:28:12.996Z</time></trkpt><trkpt lat="44.766515" lon="9.6455633"><ele>811.0</ele><time>2026-05-01T14:28:13.997Z</time></trkpt><trkpt lat="44.7664983" lon="9.6454067"><ele>811.25</ele><time>2026-05-01T14:28:14.998Z</time></trkpt><trkpt lat="44.7664933" lon="9.64524"><ele>811.5</ele><time>2026-05-01T14:28:15.997Z</time></trkpt><trkpt lat="44.7665" lon="9.6450717"><ele>811.75</ele><time>2026-05-01T14:28:16.996Z</time></trkpt><trkpt lat="44.7665033" lon="9.6448983"><ele>812.0</ele><time>2026-05-01T14:28:17.995Z</time></trkpt><trkpt lat="44.7665033" lon="9.6447217"><ele>812.0</ele><time>2026-05-01T14:28:18.995Z</time></trkpt><trkpt lat="44.7665033" lon="9.6445417"><ele>812.0</ele><time>2026-05-01T14:28:19.996Z</time></trkpt><trkpt lat="44.766505" lon="9.6443617"><ele>812.0</ele><time>2026-05-01T14:28:20.997Z</time></trkpt><trkpt lat="44.7665183" lon="9.6441867"><ele>812.0</ele><time>2026-05-01T14:28:21.995Z</time></trkpt><trkpt lat="44.7665433" lon="9.6440183"><ele>812.4000000000001</ele><time>2026-05-01T14:28:22.996Z</time></trkpt><trkpt lat="44.7665733" lon="9.6438533"><ele>812.8000000000001</ele><time>2026-05-01T14:28:23.998Z</time></trkpt><trkpt lat="44.7666033" lon="9.6437"><ele>813.2</ele><time>2026-05-01T14:28:24.997Z</time></trkpt><trkpt lat="44.76664" lon="9.6435617"><ele>813.6</ele><time>2026-05-01T14:28:25.998Z</time></trkpt><trkpt lat="44.76668" lon="9.6434433"><ele>814.0</ele><time>2026-05-01T14:28:26.998Z</time></trkpt><trkpt lat="44.7667183" lon="9.6433367"><ele>814.6666666666666</ele><time>2026-05-01T14:28:27.997Z</time></trkpt><trkpt lat="44.7667467" lon="9.6432317"><ele>815.3333333333333</ele><time>2026-05-01T14:28:28.998Z</time></trkpt><trkpt lat="44.7667617" lon="9.6431283"><ele>816.0</ele><time>2026-05-01T14:28:29.997Z</time></trkpt><trkpt lat="44.7667617" lon="9.6430217"><ele>816.6666666666667</ele><time>2026-05-01T14:28:30.995Z</time></trkpt><trkpt lat="44.766745" lon="9.6429183"><ele>817.3333333333334</ele><time>2026-05-01T14:28:31.998Z</time></trkpt><trkpt lat="44.76672" lon="9.6428167"><ele>818.0</ele><time>2026-05-01T14:28:32.998Z</time></trkpt><trkpt lat="44.766675" lon="9.6427167"><ele>818.0</ele><time>2026-05-01T14:28:33.995Z</time></trkpt><trkpt lat="44.7665983" lon="9.642625"><ele>818.0</ele><time>2026-05-01T14:28:34.997Z</time></trkpt><trkpt lat="44.7665" lon="9.642545"><ele>818.0</ele><time>2026-05-01T14:28:35.996Z</time></trkpt><trkpt lat="44.7663883" lon="9.6424767"><ele>818.0</ele><time>2026-05-01T14:28:36.997Z</time></trkpt><trkpt lat="44.766275" lon="9.6424033"><ele>818.0</ele><time>2026-05-01T14:28:37.996Z</time></trkpt><trkpt lat="44.7661633" lon="9.6423233"><ele>818.0</ele><time>2026-05-01T14:28:38.995Z</time></trkpt><trkpt lat="44.7660517" lon="9.6422283"><ele>818.0</ele><time>2026-05-01T14:28:39.997Z</time></trkpt><trkpt lat="44.7659483" lon="9.6421283"><ele>818.0</ele><time>2026-05-01T14:28:40.997Z</time></trkpt><trkpt lat="44.765845" lon="9.642025"><ele>816.5</ele><time>2026-05-01T14:28:41.996Z</time></trkpt><trkpt lat="44.7657367" lon="9.641925"><ele>815.0</ele><time>2026-05-01T14:28:42.996Z</time></trkpt><trkpt lat="44.7656267" lon="9.6418367"><ele>813.5</ele><time>2026-05-01T14:28:43.997Z</time></trkpt><trkpt lat="44.76551" lon="9.6417617"><ele>812.0</ele><time>2026-05-01T14:28:44.997Z</time></trkpt><trkpt lat="44.7653883" lon="9.6416933"><ele>812.0</ele><time>2026-05-01T14:28:45.995Z</time></trkpt><trkpt lat="44.7652633" lon="9.6416333"><ele>812.0</ele><time>2026-05-01T14:28:46.997Z</time></trkpt><trkpt lat="44.7651417" lon="9.641585"><ele>812.0</ele><time>2026-05-01T14:28:47.996Z</time></trkpt><trkpt lat="44.7650217" lon="9.6415517"><ele>812.0</ele><time>2026-05-01T14:28:48.997Z</time></trkpt><trkpt lat="44.7649017" lon="9.6415383"><ele>814.0</ele><time>2026-05-01T14:28:49.996Z</time></trkpt><trkpt lat="44.7647833" lon="9.64154"><ele>816.0</ele><time>2026-05-01T14:28:50.996Z</time></trkpt><trkpt lat="44.7646733" lon="9.6415383"><ele>818.0</ele><time>2026-05-01T14:28:51.996Z</time></trkpt><trkpt lat="44.7645667" lon="9.6415217"><ele>820.0</ele><time>2026-05-01T14:28:52.997Z</time></trkpt><trkpt lat="44.7644633" lon="9.641485"><ele>822.0</ele><time>2026-05-01T14:28:53.997Z</time></trkpt><trkpt lat="44.764375" lon="9.6414383"><ele>823.1666666666666</ele><time>2026-05-01T14:28:54.997Z</time></trkpt><trkpt lat="44.7642933" lon="9.6414033"><ele>824.3333333333333</ele><time>2026-05-01T14:28:55.996Z</time></trkpt><trkpt lat="44.7642117" lon="9.6413883"><ele>825.5</ele><time>2026-05-01T14:28:56.996Z</time></trkpt><trkpt lat="44.7641317" lon="9.6414017"><ele>826.6666666666666</ele><time>2026-05-01T14:28:57.996Z</time></trkpt><trkpt lat="44.76405" lon="9.6414467"><ele>827.8333333333333</ele><time>2026-05-01T14:28:58.997Z</time></trkpt><trkpt lat="44.7639683" lon="9.6415217"><ele>829.0</ele><time>2026-05-01T14:28:59.997Z</time></trkpt><trkpt lat="44.7638833" lon="9.641605"><ele>829.0</ele><time>2026-05-01T14:29:00.996Z</time></trkpt><trkpt lat="44.7637933" lon="9.641685"><ele>829.0</ele><time>2026-05-01T14:29:01.996Z</time></trkpt><trkpt lat="44.7637083" lon="9.6417583"><ele>829.0</ele><time>2026-05-01T14:29:02.997Z</time></trkpt><trkpt lat="44.7636333" lon="9.641825"><ele>829.0</ele><time>2026-05-01T14:29:03.996Z</time></trkpt><trkpt lat="44.7635667" lon="9.6418883"><ele>829.0</ele><time>2026-05-01T14:29:04.996Z</time></trkpt><trkpt lat="44.763505" lon="9.64196"><ele>830.4999999999999</ele><time>2026-05-01T14:29:05.995Z</time></trkpt><trkpt lat="44.7634517" lon="9.6420383"><ele>832.0</ele><time>2026-05-01T14:29:06.995Z</time></trkpt><trkpt lat="44.7634083" lon="9.6421433"><ele>833.5</ele><time>2026-05-01T14:29:07.996Z</time></trkpt><trkpt lat="44.7633583" lon="9.6422483"><ele>835.0</ele><time>2026-05-01T14:29:08.995Z</time></trkpt><trkpt lat="44.7632967" lon="9.64235"><ele>836.4999999999999</ele><time>2026-05-01T14:29:09.995Z</time></trkpt><trkpt lat="44.7632233" lon="9.6424467"><ele>838.0</ele><time>2026-05-01T14:29:10.995Z</time></trkpt><trkpt lat="44.7631433" lon="9.6425533"><ele>838.0</ele><time>2026-05-01T14:29:11.996Z</time></trkpt><trkpt lat="44.7630567" lon="9.64266"><ele>838.0</ele><time>2026-05-01T14:29:12.996Z</time></trkpt><trkpt lat="44.7629683" lon="9.6427517"><ele>838.0</ele><time>2026-05-01T14:29:13.997Z</time></trkpt><trkpt lat="44.762865" lon="9.64282"><ele>838.0</ele><time>2026-05-01T14:29:14.995Z</time></trkpt><trkpt lat="44.7627517" lon="9.6428633"><ele>843.5</ele><time>2026-05-01T14:29:15.995Z</time></trkpt><trkpt lat="44.7626317" lon="9.6428967"><ele>849.0</ele><time>2026-05-01T14:29:16.996Z</time></trkpt><trkpt lat="44.7625083" lon="9.642925"><ele>854.5</ele><time>2026-05-01T14:29:17.997Z</time></trkpt><trkpt lat="44.7623833" lon="9.64296"><ele>860.0</ele><time>2026-05-01T14:29:18.996Z</time></trkpt><trkpt lat="44.7622633" lon="9.6430083"><ele>860.0</ele><time>2026-05-01T14:29:19.996Z</time></trkpt><trkpt lat="44.76216" lon="9.643065"><ele>860.0</ele><time>2026-05-01T14:29:20.996Z</time></trkpt><trkpt lat="44.7620717" lon="9.64313"><ele>860.0</ele><time>2026-05-01T14:29:21.996Z</time></trkpt><trkpt lat="44.76199" lon="9.643185"><ele>860.0</ele><time>2026-05-01T14:29:22.996Z</time></trkpt><trkpt lat="44.761925" lon="9.6432683"><ele>860.0</ele><time>2026-05-01T14:29:23.996Z</time></trkpt><trkpt lat="44.7618683" lon="9.6433733"><ele>858.6</ele><time>2026-05-01T14:29:24.996Z</time></trkpt><trkpt lat="44.76182" lon="9.6434817"><ele>857.2</ele><time>2026-05-01T14:29:25.997Z</time></trkpt><trkpt lat="44.7617783" lon="9.643575"><ele>855.8</ele><time>2026-05-01T14:29:26.997Z</time></trkpt><trkpt lat="44.7617383" lon="9.64365"><ele>854.4</ele><time>2026-05-01T14:29:27.995Z</time></trkpt><trkpt lat="44.7616383" lon="9.643705"><ele>853.0</ele><time>2026-05-01T14:29:29.996Z</time></trkpt><trkpt lat="44.7615233" lon="9.6437167"><ele>853.1666666666666</ele><time>2026-05-01T14:29:31.998Z</time></trkpt><trkpt lat="44.7614" lon="9.64375"><ele>853.3333333333333</ele><time>2026-05-01T14:29:33.998Z</time></trkpt><trkpt lat="44.761335" lon="9.6437533"><ele>853.5</ele><time>2026-05-01T14:29:34.997Z</time></trkpt><trkpt lat="44.761265" lon="9.64374"><ele>853.6666666666667</ele><time>2026-05-01T14:29:35.997Z</time></trkpt><trkpt lat="44.7611867" lon="9.6437083"><ele>853.8333333333334</ele><time>2026-05-01T14:29:36.997Z</time></trkpt><trkpt lat="44.7610983" lon="9.6436733"><ele>854.0</ele><time>2026-05-01T14:29:37.998Z</time></trkpt><trkpt lat="44.76099" lon="9.643645"><ele>851.4000000000001</ele><time>2026-05-01T14:29:38.998Z</time></trkpt><trkpt lat="44.760875" lon="9.6436233"><ele>848.8000000000001</ele><time>2026-05-01T14:29:39.998Z</time></trkpt><trkpt lat="44.7607633" lon="9.643605"><ele>846.2</ele><time>2026-05-01T14:29:40.996Z</time></trkpt><trkpt lat="44.760655" lon="9.6435833"><ele>843.5999999999999</ele><time>2026-05-01T14:29:41.998Z</time></trkpt><trkpt lat="44.7605533" lon="9.643565"><ele>841.0</ele><time>2026-05-01T14:29:42.998Z</time></trkpt><trkpt lat="44.760465" lon="9.6435467"><ele>841.0</ele><time>2026-05-01T14:29:43.998Z</time></trkpt><trkpt lat="44.7603783" lon="9.6435267"><ele>841.0</ele><time>2026-05-01T14:29:44.997Z</time></trkpt><trkpt lat="44.760285" lon="9.6435183"><ele>841.0</ele><time>2026-05-01T14:29:45.997Z</time></trkpt><trkpt lat="44.76019" lon="9.6435183"><ele>841.0</ele><time>2026-05-01T14:29:46.995Z</time></trkpt><trkpt lat="44.7600983" lon="9.6435183"><ele>841.0</ele><time>2026-05-01T14:29:47.997Z</time></trkpt><trkpt lat="44.7600067" lon="9.6435217"><ele>840.3333333333333</ele><time>2026-05-01T14:29:48.996Z</time></trkpt><trkpt lat="44.75992" lon="9.6435317"><ele>839.6666666666666</ele><time>2026-05-01T14:29:49.997Z</time></trkpt><trkpt lat="44.759835" lon="9.6435483"><ele>839.0</ele><time>2026-05-01T14:29:50.999Z</time></trkpt><trkpt lat="44.75975" lon="9.6435717"><ele>838.3333333333333</ele><time>2026-05-01T14:29:51.998Z</time></trkpt><trkpt lat="44.7596633" lon="9.6436033"><ele>837.6666666666666</ele><time>2026-05-01T14:29:52.998Z</time></trkpt><trkpt lat="44.7595767" lon="9.6436383"><ele>837.0</ele><time>2026-05-01T14:29:53.998Z</time></trkpt><trkpt lat="44.75949" lon="9.6436717"><ele>837.1666666666666</ele><time>2026-05-01T14:29:55Z</time></trkpt><trkpt lat="44.7594017" lon="9.643695"><ele>837.3333333333333</ele><time>2026-05-01T14:29:55.999Z</time></trkpt><trkpt lat="44.759315" lon="9.6437"><ele>837.5</ele><time>2026-05-01T14:29:56.999Z</time></trkpt><trkpt lat="44.7592333" lon="9.643675"><ele>837.6666666666666</ele><time>2026-05-01T14:29:57.998Z</time></trkpt><trkpt lat="44.7591533" lon="9.6436367"><ele>837.8333333333333</ele><time>2026-05-01T14:29:58.997Z</time></trkpt><trkpt lat="44.7590717" lon="9.6436"><ele>838.0</ele><time>2026-05-01T14:29:59.998Z</time></trkpt><trkpt lat="44.7589867" lon="9.6435517"><ele>838.0</ele><time>2026-05-01T14:30:00.995Z</time></trkpt><trkpt lat="44.7588983" lon="9.6434883"><ele>838.0</ele><time>2026-05-01T14:30:01.996Z</time></trkpt><trkpt lat="44.7588133" lon="9.64342"><ele>838.0</ele><time>2026-05-01T14:30:02.998Z</time></trkpt><trkpt lat="44.7587283" lon="9.6433517"><ele>838.0</ele><time>2026-05-01T14:30:03.995Z</time></trkpt><trkpt lat="44.7586433" lon="9.6432867"><ele>838.0</ele><time>2026-05-01T14:30:04.995Z</time></trkpt><trkpt lat="44.75856" lon="9.643225"><ele>838.6666666666666</ele><time>2026-05-01T14:30:05.997Z</time></trkpt><trkpt lat="44.758475" lon="9.6431617"><ele>839.3333333333333</ele><time>2026-05-01T14:30:06.998Z</time></trkpt><trkpt lat="44.758395" lon="9.6430983"><ele>840.0</ele><time>2026-05-01T14:30:07.999Z</time></trkpt><trkpt lat="44.7583167" lon="9.643035"><ele>840.6666666666667</ele><time>2026-05-01T14:30:08.998Z</time></trkpt><trkpt lat="44.758245" lon="9.6429717"><ele>841.3333333333334</ele><time>2026-05-01T14:30:09.998Z</time></trkpt><trkpt lat="44.758175" lon="9.6429067"><ele>842.0</ele><time>2026-05-01T14:30:10.997Z</time></trkpt><trkpt lat="44.7581017" lon="9.6428333"><ele>840.4000000000001</ele><time>2026-05-01T14:30:11.996Z</time></trkpt><trkpt lat="44.7580333" lon="9.6427483"><ele>838.8000000000001</ele><time>2026-05-01T14:30:12.996Z</time></trkpt><trkpt lat="44.7579683" lon="9.6426633"><ele>837.2</ele><time>2026-05-01T14:30:13.997Z</time></trkpt><trkpt lat="44.7579" lon="9.64257"><ele>835.6</ele><time>2026-05-01T14:30:14.996Z</time></trkpt><trkpt lat="44.75783" lon="9.6424667"><ele>834.0</ele><time>2026-05-01T14:30:15.995Z</time></trkpt><trkpt lat="44.7577683" lon="9.642355"><ele>834.0</ele><time>2026-05-01T14:30:16.996Z</time></trkpt><trkpt lat="44.7577067" lon="9.64224"><ele>834.0</ele><time>2026-05-01T14:30:17.995Z</time></trkpt><trkpt lat="44.7576383" lon="9.64212"><ele>834.0</ele><time>2026-05-01T14:30:18.996Z</time></trkpt><trkpt lat="44.7575667" lon="9.6420033"><ele>834.0</ele><time>2026-05-01T14:30:19.996Z</time></trkpt><trkpt lat="44.7575" lon="9.6418933"><ele>834.0</ele><time>2026-05-01T14:30:20.996Z</time></trkpt><trkpt lat="44.7574333" lon="9.64178"><ele>835.2</ele><time>2026-05-01T14:30:21.997Z</time></trkpt><trkpt lat="44.7573733" lon="9.6416617"><ele>836.4000000000001</ele><time>2026-05-01T14:30:22.997Z</time></trkpt><trkpt lat="44.7573117" lon="9.6415433"><ele>837.6</ele><time>2026-05-01T14:30:23.995Z</time></trkpt><trkpt lat="44.7572467" lon="9.6414267"><ele>838.8</ele><time>2026-05-01T14:30:24.996Z</time></trkpt><trkpt lat="44.757175" lon="9.641315"><ele>840.0</ele><time>2026-05-01T14:30:25.997Z</time></trkpt><trkpt lat="44.7571" lon="9.6412117"><ele>838.8</ele><time>2026-05-01T14:30:26.998Z</time></trkpt><trkpt lat="44.757025" lon="9.641115"><ele>837.6</ele><time>2026-05-01T14:30:27.997Z</time></trkpt><trkpt lat="44.75695" lon="9.6410167"><ele>836.4000000000001</ele><time>2026-05-01T14:30:28.996Z</time></trkpt><trkpt lat="44.7568783" lon="9.6409183"><ele>835.2</ele><time>2026-05-01T14:30:29.996Z</time></trkpt><trkpt lat="44.7568067" lon="9.64082"><ele>834.0</ele><time>2026-05-01T14:30:30.996Z</time></trkpt><trkpt lat="44.7567317" lon="9.6407167"><ele>837.4000000000001</ele><time>2026-05-01T14:30:31.996Z</time></trkpt><trkpt lat="44.756655" lon="9.6406183"><ele>840.8</ele><time>2026-05-01T14:30:32.996Z</time></trkpt><trkpt lat="44.756575" lon="9.6405167"><ele>844.2</ele><time>2026-05-01T14:30:33.997Z</time></trkpt><trkpt lat="44.7565017" lon="9.6404183"><ele>847.5999999999999</ele><time>2026-05-01T14:30:34.996Z</time></trkpt><trkpt lat="44.756435" lon="9.64033"><ele>851.0</ele><time>2026-05-01T14:30:35.996Z</time></trkpt><trkpt lat="44.7563733" lon="9.64025"><ele>851.1666666666667</ele><time>2026-05-01T14:30:36.997Z</time></trkpt><trkpt lat="44.7563167" lon="9.6401767"><ele>851.3333333333334</ele><time>2026-05-01T14:30:37.997Z</time></trkpt><trkpt lat="44.75626" lon="9.6401133"><ele>851.5</ele><time>2026-05-01T14:30:38.996Z</time></trkpt><trkpt lat="44.756205" lon="9.6400517"><ele>851.6666666666667</ele><time>2026-05-01T14:30:39.997Z</time></trkpt><trkpt lat="44.7561417" lon="9.6399983"><ele>851.8333333333334</ele><time>2026-05-01T14:30:40.997Z</time></trkpt><trkpt lat="44.75607" lon="9.6399533"><ele>852.0</ele><time>2026-05-01T14:30:41.997Z</time></trkpt><trkpt lat="44.7559883" lon="9.639925"><ele>853.0</ele><time>2026-05-01T14:30:42.996Z</time></trkpt><trkpt lat="44.7559017" lon="9.6399033"><ele>854.0</ele><time>2026-05-01T14:30:43.996Z</time></trkpt><trkpt lat="44.755805" lon="9.63988"><ele>855.0</ele><time>2026-05-01T14:30:44.995Z</time></trkpt><trkpt lat="44.7557033" lon="9.6398533"><ele>856.0</ele><time>2026-05-01T14:30:45.995Z</time></trkpt><trkpt lat="44.7556" lon="9.63982"><ele>857.0</ele><time>2026-05-01T14:30:46.996Z</time></trkpt><trkpt lat="44.7555" lon="9.6397817"><ele>857.0</ele><time>2026-05-01T14:30:47.997Z</time></trkpt><trkpt lat="44.7554033" lon="9.6397483"><ele>857.0</ele><time>2026-05-01T14:30:48.996Z</time></trkpt><trkpt lat="44.7553033" lon="9.6397067"><ele>857.0</ele><time>2026-05-01T14:30:49.997Z</time></trkpt><trkpt lat="44.7552117" lon="9.6396583"><ele>857.0</ele><time>2026-05-01T14:30:50.996Z</time></trkpt><trkpt lat="44.7551267" lon="9.6396167"><ele>857.0</ele><time>2026-05-01T14:30:51.995Z</time></trkpt><trkpt lat="44.7550417" lon="9.6395933"><ele>858.1666666666667</ele><time>2026-05-01T14:30:52.996Z</time></trkpt><trkpt lat="44.7549633" lon="9.6395983"><ele>859.3333333333334</ele><time>2026-05-01T14:30:53.995Z</time></trkpt><trkpt lat="44.7548833" lon="9.6396233"><ele>860.5</ele><time>2026-05-01T14:30:54.996Z</time></trkpt><trkpt lat="44.754805" lon="9.63968"><ele>861.6666666666667</ele><time>2026-05-01T14:30:55.996Z</time></trkpt><trkpt lat="44.7547317" lon="9.639765"><ele>862.8333333333334</ele><time>2026-05-01T14:30:56.998Z</time></trkpt><trkpt lat="44.7546583" lon="9.6398617"><ele>864.0</ele><time>2026-05-01T14:30:57.998Z</time></trkpt><trkpt lat="44.7545733" lon="9.639955"><ele>864.0</ele><time>2026-05-01T14:30:58.997Z</time></trkpt><trkpt lat="44.7544767" lon="9.6400267"><ele>864.0000000000001</ele><time>2026-05-01T14:30:59.998Z</time></trkpt><trkpt lat="44.754375" lon="9.6400867"><ele>864.0000000000001</ele><time>2026-05-01T14:31:00.998Z</time></trkpt><trkpt lat="44.7542783" lon="9.6401467"><ele>864.0</ele><time>2026-05-01T14:31:01.998Z</time></trkpt><trkpt lat="44.7541917" lon="9.6402183"><ele>864.0</ele><time>2026-05-01T14:31:02.997Z</time></trkpt><trkpt lat="44.7541117" lon="9.6403083"><ele>865.2</ele><time>2026-05-01T14:31:03.997Z</time></trkpt><trkpt lat="44.754025" lon="9.6404083"><ele>866.4000000000001</ele><time>2026-05-01T14:31:04.997Z</time></trkpt><trkpt lat="44.75394" lon="9.64052"><ele>867.6</ele><time>2026-05-01T14:31:05.998Z</time></trkpt><trkpt lat="44.7538617" lon="9.64063"><ele>868.8</ele><time>2026-05-01T14:31:06.998Z</time></trkpt><trkpt lat="44.7537883" lon="9.6407217"><ele>870.0</ele><time>2026-05-01T14:31:07.998Z</time></trkpt><trkpt lat="44.75371" lon="9.6407967"><ele>870.0</ele><time>2026-05-01T14:31:08.996Z</time></trkpt><trkpt lat="44.7536317" lon="9.64085"><ele>870.0</ele><time>2026-05-01T14:31:09.996Z</time></trkpt><trkpt lat="44.753545" lon="9.640875"><ele>870.0</ele><time>2026-05-01T14:31:10.996Z</time></trkpt><trkpt lat="44.7534417" lon="9.6408733"><ele>870.0</ele><time>2026-05-01T14:31:11.997Z</time></trkpt><trkpt lat="44.75333" lon="9.640855"><ele>870.0</ele><time>2026-05-01T14:31:12.996Z</time></trkpt><trkpt lat="44.75322" lon="9.6408333"><ele>869.8</ele><time>2026-05-01T14:31:13.996Z</time></trkpt><trkpt lat="44.7531133" lon="9.6408233"><ele>869.6</ele><time>2026-05-01T14:31:14.997Z</time></trkpt><trkpt lat="44.7530183" lon="9.6408117"><ele>869.4000000000001</ele><time>2026-05-01T14:31:15.997Z</time></trkpt><trkpt lat="44.7529333" lon="9.6407867"><ele>869.2</ele><time>2026-05-01T14:31:16.995Z</time></trkpt><trkpt lat="44.7528483" lon="9.6407433"><ele>869.0</ele><time>2026-05-01T14:31:17.996Z</time></trkpt><trkpt lat="44.7527683" lon="9.6406667"><ele>870.2</ele><time>2026-05-01T14:31:18.995Z</time></trkpt><trkpt lat="44.7527" lon="9.640565"><ele>871.4000000000001</ele><time>2026-05-01T14:31:19.995Z</time></trkpt><trkpt lat="44.7526367" lon="9.6404633"><ele>872.6</ele><time>2026-05-01T14:31:20.997Z</time></trkpt><trkpt lat="44.752575" lon="9.6403717"><ele>873.8</ele><time>2026-05-01T14:31:21.996Z</time></trkpt><trkpt lat="44.752515" lon="9.6402883"><ele>875.0</ele><time>2026-05-01T14:31:22.996Z</time></trkpt><trkpt lat="44.7524433" lon="9.6402167"><ele>872.4</ele><time>2026-05-01T14:31:23.995Z</time></trkpt><trkpt lat="44.75235" lon="9.6401667"><ele>869.8</ele><time>2026-05-01T14:31:24.996Z</time></trkpt><trkpt lat="44.7522383" lon="9.6401367"><ele>867.2</ele><time>2026-05-01T14:31:25.996Z</time></trkpt><trkpt lat="44.7521233" lon="9.6401217"><ele>864.6</ele><time>2026-05-01T14:31:26.996Z</time></trkpt><trkpt lat="44.75202" lon="9.6400983"><ele>862.0</ele><time>2026-05-01T14:31:27.996Z</time></trkpt><trkpt lat="44.7519267" lon="9.6400617"><ele>862.6666666666666</ele><time>2026-05-01T14:31:28.997Z</time></trkpt><trkpt lat="44.75185" lon="9.640005"><ele>863.3333333333333</ele><time>2026-05-01T14:31:29.997Z</time></trkpt><trkpt lat="44.7517833" lon="9.6399317"><ele>864.0</ele><time>2026-05-01T14:31:30.998Z</time></trkpt><trkpt lat="44.75173" lon="9.6398283"><ele>864.6666666666667</ele><time>2026-05-01T14:31:31.997Z</time></trkpt><trkpt lat="44.7516833" lon="9.639715"><ele>865.3333333333334</ele><time>2026-05-01T14:31:32.998Z</time></trkpt><trkpt lat="44.7516317" lon="9.6396083"><ele>866.0</ele><time>2026-05-01T14:31:33.997Z</time></trkpt><trkpt lat="44.7515717" lon="9.63951"><ele>864.0</ele><time>2026-05-01T14:31:34.997Z</time></trkpt><trkpt lat="44.7514933" lon="9.6394233"><ele>861.9999999999999</ele><time>2026-05-01T14:31:35.998Z</time></trkpt><trkpt lat="44.7513983" lon="9.6393417"><ele>859.9999999999999</ele><time>2026-05-01T14:31:36.998Z</time></trkpt><trkpt lat="44.7512983" lon="9.6392767"><ele>858.0</ele><time>2026-05-01T14:31:37.999Z</time></trkpt><trkpt lat="44.7511967" lon="9.639225"><ele>856.0</ele><time>2026-05-01T14:31:38.998Z</time></trkpt><trkpt lat="44.7511" lon="9.6391733"><ele>858.1999999999999</ele><time>2026-05-01T14:31:39.998Z</time></trkpt><trkpt lat="44.751015" lon="9.6391067"><ele>860.3999999999999</ele><time>2026-05-01T14:31:40.997Z</time></trkpt><trkpt lat="44.750935" lon="9.63904"><ele>862.6</ele><time>2026-05-01T14:31:41.998Z</time></trkpt><trkpt lat="44.7508517" lon="9.6389817"><ele>864.8</ele><time>2026-05-01T14:31:42.995Z</time></trkpt><trkpt lat="44.75076" lon="9.63894"><ele>867.0</ele><time>2026-05-01T14:31:43.996Z</time></trkpt><trkpt lat="44.7506633" lon="9.6389083"><ele>867.0</ele><time>2026-05-01T14:31:44.996Z</time></trkpt><trkpt lat="44.75057" lon="9.6388783"><ele>867.0</ele><time>2026-05-01T14:31:45.996Z</time></trkpt><trkpt lat="44.75049" lon="9.6388483"><ele>867.0</ele><time>2026-05-01T14:31:46.996Z</time></trkpt><trkpt lat="44.75041" lon="9.6388133"><ele>867.0</ele><time>2026-05-01T14:31:47.998Z</time></trkpt><trkpt lat="44.7503367" lon="9.6387917"><ele>867.0</ele><time>2026-05-01T14:31:48.996Z</time></trkpt><trkpt lat="44.7502667" lon="9.638785"><ele>867.0</ele><time>2026-05-01T14:31:49.995Z</time></trkpt><trkpt lat="44.7502067" lon="9.638815"><ele>867.6</ele><time>2026-05-01T14:31:50.997Z</time></trkpt><trkpt lat="44.750145" lon="9.6388533"><ele>868.2</ele><time>2026-05-01T14:31:51.995Z</time></trkpt><trkpt lat="44.7500883" lon="9.63893"><ele>868.8</ele><time>2026-05-01T14:31:52.996Z</time></trkpt><trkpt lat="44.75003" lon="9.6390283"><ele>869.4</ele><time>2026-05-01T14:31:53.997Z</time></trkpt><trkpt lat="44.7499767" lon="9.639175"><ele>870.0</ele><time>2026-05-01T14:31:54.997Z</time></trkpt><trkpt lat="44.74993" lon="9.6393383"><ele>870.5</ele><time>2026-05-01T14:31:55.998Z</time></trkpt><trkpt lat="44.7498983" lon="9.6395217"><ele>871.0</ele><time>2026-05-01T14:31:56.998Z</time></trkpt><trkpt lat="44.7498717" lon="9.6396933"><ele>871.5</ele><time>2026-05-01T14:31:57.995Z</time></trkpt><trkpt lat="44.7498517" lon="9.6398633"><ele>872.0</ele><time>2026-05-01T14:31:58.995Z</time></trkpt><trkpt lat="44.749825" lon="9.6400417"><ele>872.0</ele><time>2026-05-01T14:31:59.995Z</time></trkpt><trkpt lat="44.7497917" lon="9.6401983"><ele>872.0</ele><time>2026-05-01T14:32:00.995Z</time></trkpt><trkpt lat="44.7497533" lon="9.6403467"><ele>872.0</ele><time>2026-05-01T14:32:01.996Z</time></trkpt><trkpt lat="44.749715" lon="9.6404967"><ele>872.0</ele><time>2026-05-01T14:32:02.996Z</time></trkpt><trkpt lat="44.7496833" lon="9.6406533"><ele>873.75</ele><time>2026-05-01T14:32:03.996Z</time></trkpt><trkpt lat="44.7496617" lon="9.6408167"><ele>875.5</ele><time>2026-05-01T14:32:04.996Z</time></trkpt><trkpt lat="44.749645" lon="9.64099"><ele>877.25</ele><time>2026-05-01T14:32:05.995Z</time></trkpt><trkpt lat="44.7496367" lon="9.64117"><ele>879.0</ele><time>2026-05-01T14:32:06.995Z</time></trkpt><trkpt lat="44.74963" lon="9.64136"><ele>878.75</ele><time>2026-05-01T14:32:07.996Z</time></trkpt><trkpt lat="44.7496267" lon="9.641545"><ele>878.5</ele><time>2026-05-01T14:32:08.996Z</time></trkpt><trkpt lat="44.7496267" lon="9.6417233"><ele>878.25</ele><time>2026-05-01T14:32:09.995Z</time></trkpt><trkpt lat="44.749625" lon="9.6418867"><ele>878.0</ele><time>2026-05-01T14:32:10.996Z</time></trkpt><trkpt lat="44.7496183" lon="9.6420517"><ele>878.0</ele><time>2026-05-01T14:32:11.996Z</time></trkpt><trkpt lat="44.749605" lon="9.6422133"><ele>878.0</ele><time>2026-05-01T14:32:12.996Z</time></trkpt><trkpt lat="44.749595" lon="9.6423667"><ele>878.0</ele><time>2026-05-01T14:32:13.997Z</time></trkpt><trkpt lat="44.7495933" lon="9.6425117"><ele>878.0</ele><time>2026-05-01T14:32:14.996Z</time></trkpt><trkpt lat="44.7496" lon="9.6426483"><ele>878.0</ele><time>2026-05-01T14:32:15.996Z</time></trkpt><trkpt lat="44.7496083" lon="9.6427683"><ele>878.4</ele><time>2026-05-01T14:32:16.996Z</time></trkpt><trkpt lat="44.7496133" lon="9.6428933"><ele>878.8</ele><time>2026-05-01T14:32:17.996Z</time></trkpt><trkpt lat="44.74961" lon="9.64301"><ele>879.2</ele><time>2026-05-01T14:32:18.996Z</time></trkpt><trkpt lat="44.74959" lon="9.6431167"><ele>879.6</ele><time>2026-05-01T14:32:19.996Z</time></trkpt><trkpt lat="44.7495583" lon="9.6432383"><ele>880.0</ele><time>2026-05-01T14:32:20.995Z</time></trkpt><trkpt lat="44.749515" lon="9.6433833"><ele>880.0</ele><time>2026-05-01T14:32:21.996Z</time></trkpt><trkpt lat="44.7494683" lon="9.643535"><ele>880.0</ele><time>2026-05-01T14:32:22.996Z</time></trkpt><trkpt lat="44.74942" lon="9.6436833"><ele>880.0</ele><time>2026-05-01T14:32:23.997Z</time></trkpt><trkpt lat="44.74937" lon="9.6438317"><ele>880.0</ele><time>2026-05-01T14:32:24.995Z</time></trkpt><trkpt lat="44.7493183" lon="9.6439683"><ele>877.3333333333333</ele><time>2026-05-01T14:32:25.995Z</time></trkpt><trkpt lat="44.7492667" lon="9.6441033"><ele>874.6666666666666</ele><time>2026-05-01T14:32:26.996Z</time></trkpt><trkpt lat="44.7492167" lon="9.6442233"><ele>872.0</ele><time>2026-05-01T14:32:27.996Z</time></trkpt><trkpt lat="44.7491717" lon="9.6443317"><ele>869.3333333333333</ele><time>2026-05-01T14:32:28.997Z</time></trkpt><trkpt lat="44.7491317" lon="9.6444267"><ele>866.6666666666666</ele><time>2026-05-01T14:32:29.996Z</time></trkpt><trkpt lat="44.7490883" lon="9.6445033"><ele>864.0</ele><time>2026-05-01T14:32:30.996Z</time></trkpt><trkpt lat="44.7490417" lon="9.6445767"><ele>864.0</ele><time>2026-05-01T14:32:31.996Z</time></trkpt><trkpt lat="44.7489883" lon="9.6446633"><ele>864.0000000000001</ele><time>2026-05-01T14:32:32.996Z</time></trkpt><trkpt lat="44.7489267" lon="9.6447633"><ele>864.0000000000001</ele><time>2026-05-01T14:32:33.997Z</time></trkpt><trkpt lat="44.74885" lon="9.6448617"><ele>864.0</ele><time>2026-05-01T14:32:34.996Z</time></trkpt><trkpt lat="44.7487567" lon="9.6449483"><ele>864.0</ele><time>2026-05-01T14:32:35.997Z</time></trkpt><trkpt lat="44.74867" lon="9.6450483"><ele>864.0</ele><time>2026-05-01T14:32:36.996Z</time></trkpt><trkpt lat="44.7485833" lon="9.6451667"><ele>864.0</ele><time>2026-05-01T14:32:37.998Z</time></trkpt><trkpt lat="44.7485033" lon="9.6453033"><ele>864.0</ele><time>2026-05-01T14:32:38.997Z</time></trkpt><trkpt lat="44.7484317" lon="9.645435"><ele>864.0</ele><time>2026-05-01T14:32:39.996Z</time></trkpt><trkpt lat="44.74835" lon="9.6455633"><ele>864.0</ele><time>2026-05-01T14:32:40.996Z</time></trkpt><trkpt lat="44.7482583" lon="9.645685"><ele>864.0</ele><time>2026-05-01T14:32:41.996Z</time></trkpt><trkpt lat="44.748165" lon="9.6457833"><ele>864.0</ele><time>2026-05-01T14:32:42.996Z</time></trkpt><trkpt lat="44.7480767" lon="9.6458783"><ele>864.0</ele><time>2026-05-01T14:32:43.997Z</time></trkpt><trkpt lat="44.748" lon="9.6459883"><ele>864.0</ele><time>2026-05-01T14:32:44.996Z</time></trkpt><trkpt lat="44.7479367" lon="9.6461233"><ele>864.0</ele><time>2026-05-01T14:32:45.997Z</time></trkpt><trkpt lat="44.747885" lon="9.64629"><ele>864.0</ele><time>2026-05-01T14:32:46.996Z</time></trkpt><trkpt lat="44.7478467" lon="9.6464567"><ele>864.0</ele><time>2026-05-01T14:32:47.996Z</time></trkpt><trkpt lat="44.747815" lon="9.6466233"><ele>867.5</ele><time>2026-05-01T14:32:48.996Z</time></trkpt><trkpt lat="44.7477967" lon="9.646805"><ele>871.0</ele><time>2026-05-01T14:32:49.997Z</time></trkpt><trkpt lat="44.7477967" lon="9.647005"><ele>874.5</ele><time>2026-05-01T14:32:50.996Z</time></trkpt><trkpt lat="44.7477967" lon="9.647205"><ele>878.0</ele><time>2026-05-01T14:32:51.996Z</time></trkpt><trkpt lat="44.747775" lon="9.647415"><ele>881.0</ele><time>2026-05-01T14:32:52.995Z</time></trkpt><trkpt lat="44.7477317" lon="9.6476333"><ele>884.0</ele><time>2026-05-01T14:32:53.996Z</time></trkpt><trkpt lat="44.74768" lon="9.64784"><ele>887.0</ele><time>2026-05-01T14:32:54.995Z</time></trkpt><trkpt lat="44.7476433" lon="9.64804"><ele>882.0</ele><time>2026-05-01T14:32:55.997Z</time></trkpt><trkpt lat="44.7476283" lon="9.6482517"><ele>877.0</ele><time>2026-05-01T14:32:56.997Z</time></trkpt><trkpt lat="44.7476367" lon="9.6484817"><ele>872.0</ele><time>2026-05-01T14:32:57.996Z</time></trkpt><trkpt lat="44.74764" lon="9.6487117"><ele>872.0</ele><time>2026-05-01T14:32:58.995Z</time></trkpt><trkpt lat="44.7476183" lon="9.648925"><ele>872.0</ele><time>2026-05-01T14:32:59.997Z</time></trkpt><trkpt lat="44.7475617" lon="9.6491267"><ele>872.0</ele><time>2026-05-01T14:33:00.996Z</time></trkpt><trkpt lat="44.74749" lon="9.64933"><ele>875.3333333333334</ele><time>2026-05-01T14:33:01.997Z</time></trkpt><trkpt lat="44.7474333" lon="9.649535"><ele>878.6666666666667</ele><time>2026-05-01T14:33:02.996Z</time></trkpt><trkpt lat="44.7473883" lon="9.6497367"><ele>882.0</ele><time>2026-05-01T14:33:03.997Z</time></trkpt><trkpt lat="44.747345" lon="9.6499333"><ele>882.0</ele><time>2026-05-01T14:33:04.997Z</time></trkpt><trkpt lat="44.7473033" lon="9.6501183"><ele>882.0</ele><time>2026-05-01T14:33:05.996Z</time></trkpt><trkpt lat="44.7472633" lon="9.6502883"><ele>882.0</ele><time>2026-05-01T14:33:06.996Z</time></trkpt><trkpt lat="44.7472117" lon="9.6504467"><ele>882.0</ele><time>2026-05-01T14:33:07.997Z</time></trkpt><trkpt lat="44.7471367" lon="9.6505917"><ele>880.25</ele><time>2026-05-01T14:33:08.996Z</time></trkpt><trkpt lat="44.74704" lon="9.65072"><ele>878.5</ele><time>2026-05-01T14:33:09.996Z</time></trkpt><trkpt lat="44.746925" lon="9.6508483"><ele>876.75</ele><time>2026-05-01T14:33:10.996Z</time></trkpt><trkpt lat="44.746805" lon="9.65098"><ele>875.0</ele><time>2026-05-01T14:33:11.996Z</time></trkpt><trkpt lat="44.7466983" lon="9.65111"><ele>877.75</ele><time>2026-05-01T14:33:12.996Z</time></trkpt><trkpt lat="44.74661" lon="9.6512433"><ele>880.5</ele><time>2026-05-01T14:33:13.997Z</time></trkpt><trkpt lat="44.7465433" lon="9.6513867"><ele>883.25</ele><time>2026-05-01T14:33:14.996Z</time></trkpt><trkpt lat="44.7464917" lon="9.6515483"><ele>886.0</ele><time>2026-05-01T14:33:15.995Z</time></trkpt><trkpt lat="44.74646" lon="9.651735"><ele>886.0</ele><time>2026-05-01T14:33:16.996Z</time></trkpt><trkpt lat="44.7464433" lon="9.651945"><ele>886.0</ele><time>2026-05-01T14:33:17.997Z</time></trkpt><trkpt lat="44.74643" lon="9.6521517"><ele>886.0</ele><time>2026-05-01T14:33:18.996Z</time></trkpt><trkpt lat="44.74642" lon="9.6523367"><ele>886.0</ele><time>2026-05-01T14:33:19.996Z</time></trkpt><trkpt lat="44.7463967" lon="9.6525017"><ele>887.0</ele><time>2026-05-01T14:33:20.998Z</time></trkpt><trkpt lat="44.7463467" lon="9.652655"><ele>888.0</ele><time>2026-05-01T14:33:21.997Z</time></trkpt><trkpt lat="44.7462683" lon="9.6528017"><ele>889.0</ele><time>2026-05-01T14:33:22.997Z</time></trkpt><trkpt lat="44.7461767" lon="9.6529583"><ele>890.0</ele><time>2026-05-01T14:33:23.996Z</time></trkpt><trkpt lat="44.7460833" lon="9.6531167"><ele>890.25</ele><time>2026-05-01T14:33:24.997Z</time></trkpt><trkpt lat="44.746" lon="9.6532633"><ele>890.5</ele><time>2026-05-01T14:33:25.997Z</time></trkpt><trkpt lat="44.745925" lon="9.6534083"><ele>890.75</ele><time>2026-05-01T14:33:26.998Z</time></trkpt><trkpt lat="44.7458633" lon="9.653565"><ele>891.0</ele><time>2026-05-01T14:33:27.998Z</time></trkpt><trkpt lat="44.7458167" lon="9.653745"><ele>891.0</ele><time>2026-05-01T14:33:28.997Z</time></trkpt><trkpt lat="44.74578" lon="9.6539333"><ele>891.0</ele><time>2026-05-01T14:33:29.996Z</time></trkpt><trkpt lat="44.7457383" lon="9.654095"><ele>891.0</ele><time>2026-05-01T14:33:30.997Z</time></trkpt><trkpt lat="44.74567" lon="9.6542167"><ele>891.0</ele><time>2026-05-01T14:33:31.996Z</time></trkpt><trkpt lat="44.7455733" lon="9.6543"><ele>891.0</ele><time>2026-05-01T14:33:32.997Z</time></trkpt><trkpt lat="44.7454533" lon="9.6543633"><ele>891.0</ele><time>2026-05-01T14:33:33.996Z</time></trkpt><trkpt lat="44.745325" lon="9.65444"><ele>891.0</ele><time>2026-05-01T14:33:34.995Z</time></trkpt><trkpt lat="44.7452067" lon="9.654545"><ele>891.0</ele><time>2026-05-01T14:33:35.996Z</time></trkpt><trkpt lat="44.7451017" lon="9.6546867"><ele>890.0</ele><time>2026-05-01T14:33:36.999Z</time></trkpt><trkpt lat="44.7450217" lon="9.6548583"><ele>889.0</ele><time>2026-05-01T14:33:37.998Z</time></trkpt><trkpt lat="44.74495" lon="9.65503"><ele>888.0</ele><time>2026-05-01T14:33:38.998Z</time></trkpt><trkpt lat="44.7448733" lon="9.65518"><ele>887.0</ele><time>2026-05-01T14:33:39.997Z</time></trkpt><trkpt lat="44.7447783" lon="9.65529"><ele>887.0</ele><time>2026-05-01T14:33:40.997Z</time></trkpt><trkpt lat="44.7446717" lon="9.6553733"><ele>887.0</ele><time>2026-05-01T14:33:41.997Z</time></trkpt><trkpt lat="44.7445583" lon="9.65544"><ele>887.0</ele><time>2026-05-01T14:33:42.996Z</time></trkpt><trkpt lat="44.7444567" lon="9.6555033"><ele>887.0</ele><time>2026-05-01T14:33:43.998Z</time></trkpt><trkpt lat="44.744375" lon="9.6555767"><ele>887.0</ele><time>2026-05-01T14:33:45.001Z</time></trkpt><trkpt lat="44.7443167" lon="9.655665"><ele>887.0</ele><time>2026-05-01T14:33:45.997Z</time></trkpt><trkpt lat="44.7443017" lon="9.65579"><ele>887.0</ele><time>2026-05-01T14:33:46.997Z</time></trkpt><trkpt lat="44.7443233" lon="9.65594"><ele>887.0</ele><time>2026-05-01T14:33:47.997Z</time></trkpt><trkpt lat="44.7443767" lon="9.65612"><ele>887.0</ele><time>2026-05-01T14:33:48.996Z</time></trkpt><trkpt lat="44.744445" lon="9.656325"><ele>891.3333333333334</ele><time>2026-05-01T14:33:49.997Z</time></trkpt><trkpt lat="44.7445167" lon="9.6565333"><ele>895.6666666666667</ele><time>2026-05-01T14:33:50.998Z</time></trkpt><trkpt lat="44.7445933" lon="9.6567333"><ele>900.0</ele><time>2026-05-01T14:33:51.998Z</time></trkpt><trkpt lat="44.7446733" lon="9.6569117"><ele>900.25</ele><time>2026-05-01T14:33:52.997Z</time></trkpt><trkpt lat="44.74474" lon="9.6570767"><ele>900.5</ele><time>2026-05-01T14:33:53.998Z</time></trkpt><trkpt lat="44.7447833" lon="9.65724"><ele>900.75</ele><time>2026-05-01T14:33:54.996Z</time></trkpt><trkpt lat="44.7447917" lon="9.6574017"><ele>901.0</ele><time>2026-05-01T14:33:55.996Z</time></trkpt><trkpt lat="44.7447667" lon="9.65757"><ele>901.0</ele><time>2026-05-01T14:33:56.996Z</time></trkpt><trkpt lat="44.7447217" lon="9.6577317"><ele>901.0</ele><time>2026-05-01T14:33:57.996Z</time></trkpt><trkpt lat="44.744685" lon="9.657895"><ele>901.0</ele><time>2026-05-01T14:33:58.996Z</time></trkpt><trkpt lat="44.7446733" lon="9.6580783"><ele>901.0</ele><time>2026-05-01T14:33:59.996Z</time></trkpt><trkpt lat="44.7446767" lon="9.65827"><ele>901.0</ele><time>2026-05-01T14:34:00.996Z</time></trkpt><trkpt lat="44.7446783" lon="9.6584583"><ele>901.0</ele><time>2026-05-01T14:34:01.999Z</time></trkpt><trkpt lat="44.74468" lon="9.6586467"><ele>901.0</ele><time>2026-05-01T14:34:02.996Z</time></trkpt><trkpt lat="44.7446883" lon="9.6588267"><ele>901.0</ele><time>2026-05-01T14:34:03.996Z</time></trkpt><trkpt lat="44.744695" lon="9.6590033"><ele>902.0</ele><time>2026-05-01T14:34:04.996Z</time></trkpt><trkpt lat="44.7446917" lon="9.6591817"><ele>903.0</ele><time>2026-05-01T14:34:05.997Z</time></trkpt><trkpt lat="44.7446717" lon="9.65936"><ele>904.0</ele><time>2026-05-01T14:34:06.995Z</time></trkpt><trkpt lat="44.7446483" lon="9.6595217"><ele>905.0</ele><time>2026-05-01T14:34:07.996Z</time></trkpt><trkpt lat="44.744615" lon="9.6596567"><ele>904.6</ele><time>2026-05-01T14:34:08.998Z</time></trkpt><trkpt lat="44.7445683" lon="9.659765"><ele>904.2</ele><time>2026-05-01T14:34:09.996Z</time></trkpt><trkpt lat="44.744505" lon="9.6598517"><ele>903.8</ele><time>2026-05-01T14:34:10.997Z</time></trkpt><trkpt lat="44.74442" lon="9.6599033"><ele>903.4</ele><time>2026-05-01T14:34:11.998Z</time></trkpt><trkpt lat="44.74431" lon="9.6599283"><ele>903.0</ele><time>2026-05-01T14:34:12.997Z</time></trkpt><trkpt lat="44.7442017" lon="9.659955"><ele>903.0</ele><time>2026-05-01T14:34:13.996Z</time></trkpt><trkpt lat="44.7441083" lon="9.65999"><ele>903.0</ele><time>2026-05-01T14:34:14.997Z</time></trkpt><trkpt lat="44.7440317" lon="9.6600483"><ele>903.0</ele><time>2026-05-01T14:34:15.995Z</time></trkpt><trkpt lat="44.7439683" lon="9.6601333"><ele>903.0</ele><time>2026-05-01T14:34:16.996Z</time></trkpt><trkpt lat="44.7439317" lon="9.6602683"><ele>903.0</ele><time>2026-05-01T14:34:17.996Z</time></trkpt><trkpt lat="44.7439233" lon="9.660425"><ele>904.8</ele><time>2026-05-01T14:34:18.997Z</time></trkpt><trkpt lat="44.74392" lon="9.6605817"><ele>906.5999999999999</ele><time>2026-05-01T14:34:19.997Z</time></trkpt><trkpt lat="44.7439083" lon="9.660725"><ele>908.4000000000001</ele><time>2026-05-01T14:34:20.996Z</time></trkpt><trkpt lat="44.74388" lon="9.6608583"><ele>910.2</ele><time>2026-05-01T14:34:21.996Z</time></trkpt><trkpt lat="44.7438183" lon="9.66096"><ele>912.0</ele><time>2026-05-01T14:34:22.996Z</time></trkpt><trkpt lat="44.7437267" lon="9.6610317"><ele>912.0</ele><time>2026-05-01T14:34:23.996Z</time></trkpt><trkpt lat="44.7436183" lon="9.6610967"><ele>912.0</ele><time>2026-05-01T14:34:24.996Z</time></trkpt><trkpt lat="44.7435067" lon="9.6611733"><ele>912.0</ele><time>2026-05-01T14:34:25.996Z</time></trkpt><trkpt lat="44.7434133" lon="9.661285"><ele>912.0</ele><time>2026-05-01T14:34:26.997Z</time></trkpt><trkpt lat="44.7433467" lon="9.6614417"><ele>912.25</ele><time>2026-05-01T14:34:27.996Z</time></trkpt><trkpt lat="44.743305" lon="9.6616217"><ele>912.5</ele><time>2026-05-01T14:34:28.995Z</time></trkpt><trkpt lat="44.7432667" lon="9.6617933"><ele>912.75</ele><time>2026-05-01T14:34:29.997Z</time></trkpt><trkpt lat="44.743215" lon="9.66194"><ele>913.0</ele><time>2026-05-01T14:34:30.997Z</time></trkpt><trkpt lat="44.7431383" lon="9.6620717"><ele>914.5</ele><time>2026-05-01T14:34:31.997Z</time></trkpt><trkpt lat="44.7430367" lon="9.6621817"><ele>916.0</ele><time>2026-05-01T14:34:32.996Z</time></trkpt><trkpt lat="44.742915" lon="9.6622733"><ele>917.5</ele><time>2026-05-01T14:34:33.997Z</time></trkpt><trkpt lat="44.7427817" lon="9.662365"><ele>919.0</ele><time>2026-05-01T14:34:34.998Z</time></trkpt><trkpt lat="44.7426483" lon="9.6624583"><ele>919.0</ele><time>2026-05-01T14:34:35.997Z</time></trkpt><trkpt lat="44.7425117" lon="9.6625517"><ele>919.0</ele><time>2026-05-01T14:34:36.997Z</time></trkpt><trkpt lat="44.7423767" lon="9.6626383"><ele>919.0</ele><time>2026-05-01T14:34:37.997Z</time></trkpt><trkpt lat="44.742245" lon="9.6627233"><ele>919.0</ele><time>2026-05-01T14:34:38.998Z</time></trkpt><trkpt lat="44.7421183" lon="9.662795"><ele>919.25</ele><time>2026-05-01T14:34:39.997Z</time></trkpt><trkpt lat="44.7419917" lon="9.6628567"><ele>919.5</ele><time>2026-05-01T14:34:40.997Z</time></trkpt><trkpt lat="44.74186" lon="9.6628917"><ele>919.75</ele><time>2026-05-01T14:34:41.998Z</time></trkpt><trkpt lat="44.7417333" lon="9.6628933"><ele>920.0</ele><time>2026-05-01T14:34:42.999Z</time></trkpt><trkpt lat="44.7416167" lon="9.6628867"><ele>920.0</ele><time>2026-05-01T14:34:43.998Z</time></trkpt><trkpt lat="44.7415117" lon="9.6628917"><ele>920.0</ele><time>2026-05-01T14:34:44.999Z</time></trkpt><trkpt lat="44.741415" lon="9.6629333"><ele>920.0</ele><time>2026-05-01T14:34:45.996Z</time></trkpt><trkpt lat="44.7413383" lon="9.6630167"><ele>920.0</ele><time>2026-05-01T14:34:46.997Z</time></trkpt><trkpt lat="44.7412817" lon="9.6631417"><ele>920.0</ele><time>2026-05-01T14:34:47.996Z</time></trkpt><trkpt lat="44.74125" lon="9.6633017"><ele>920.0</ele><time>2026-05-01T14:34:48.997Z</time></trkpt><trkpt lat="44.7412317" lon="9.66349"><ele>920.0</ele><time>2026-05-01T14:34:49.997Z</time></trkpt><trkpt lat="44.74121" lon="9.6636867"><ele>920.0</ele><time>2026-05-01T14:34:50.999Z</time></trkpt><trkpt lat="44.7411783" lon="9.6638767"><ele>920.0</ele><time>2026-05-01T14:34:51.997Z</time></trkpt><trkpt lat="44.74114" lon="9.6640517"><ele>920.6</ele><time>2026-05-01T14:34:52.997Z</time></trkpt><trkpt lat="44.741095" lon="9.664205"><ele>921.2</ele><time>2026-05-01T14:34:53.997Z</time></trkpt><trkpt lat="44.7410483" lon="9.664345"><ele>921.8</ele><time>2026-05-01T14:34:54.997Z</time></trkpt><trkpt lat="44.7410017" lon="9.66447"><ele>922.4</ele><time>2026-05-01T14:34:55.998Z</time></trkpt><trkpt lat="44.7409483" lon="9.6645717"><ele>923.0</ele><time>2026-05-01T14:34:56.998Z</time></trkpt><trkpt lat="44.740885" lon="9.6646517"><ele>923.5999999999999</ele><time>2026-05-01T14:34:57.997Z</time></trkpt><trkpt lat="44.7408117" lon="9.6647233"><ele>924.1999999999999</ele><time>2026-05-01T14:34:58.998Z</time></trkpt><trkpt lat="44.7407217" lon="9.66478"><ele>924.8</ele><time>2026-05-01T14:34:59.998Z</time></trkpt><trkpt lat="44.7406283" lon="9.664835"><ele>925.4</ele><time>2026-05-01T14:35:00.999Z</time></trkpt><trkpt lat="44.7405383" lon="9.6648833"><ele>926.0</ele><time>2026-05-01T14:35:01.999Z</time></trkpt><trkpt lat="44.740455" lon="9.664935"><ele>926.0</ele><time>2026-05-01T14:35:02.998Z</time></trkpt><trkpt lat="44.7403767" lon="9.6649867"><ele>925.9999999999999</ele><time>2026-05-01T14:35:03.998Z</time></trkpt><trkpt lat="44.740305" lon="9.6650333"><ele>925.9999999999999</ele><time>2026-05-01T14:35:04.997Z</time></trkpt><trkpt lat="44.74024" lon="9.66507"><ele>926.0</ele><time>2026-05-01T14:35:05.997Z</time></trkpt><trkpt lat="44.7401267" lon="9.6651133"><ele>926.0</ele><time>2026-05-01T14:35:07.995Z</time></trkpt><trkpt lat="44.74003" lon="9.6651333"><ele>926.1999999999999</ele><time>2026-05-01T14:35:09.996Z</time></trkpt><trkpt lat="44.7399567" lon="9.6651483"><ele>926.3999999999999</ele><time>2026-05-01T14:35:11.997Z</time></trkpt><trkpt lat="44.7398833" lon="9.665175"><ele>926.6</ele><time>2026-05-01T14:35:14.996Z</time></trkpt><trkpt lat="44.7399131" lon="9.6652532"><ele>926.8</ele><time>2026-05-01T14:38:28.058Z</time></trkpt><trkpt lat="44.7398652" lon="9.6651487"><ele>927.0</ele><time>2026-05-01T15:07:30.058Z</time></trkpt><trkpt lat="44.739646" lon="9.6652296"><ele>927.0</ele><time>2026-05-01T15:07:36.031Z</time></trkpt><trkpt lat="44.7395899" lon="9.6652758"><ele>927.0</ele><time>2026-05-01T15:07:38.066Z</time></trkpt><trkpt lat="44.7396683" lon="9.665235"><ele>927.0</ele><time>2026-05-01T15:07:40.996Z</time></trkpt><trkpt lat="44.7397417" lon="9.66519"><ele>927.0</ele><time>2026-05-01T15:07:43.996Z</time></trkpt><trkpt lat="44.739825" lon="9.6651683"><ele>927.0</ele><time>2026-05-01T15:07:46.996Z</time></trkpt><trkpt lat="44.7398933" lon="9.66513"><ele>927.0</ele><time>2026-05-01T15:07:50.997Z</time></trkpt><trkpt lat="44.73999" lon="9.6651583"><ele>927.0</ele><time>2026-05-01T15:08:40.997Z</time></trkpt><trkpt lat="44.7400717" lon="9.6651283"><ele>927.0</ele><time>2026-05-01T15:08:42.996Z</time></trkpt><trkpt lat="44.7401333" lon="9.66511"><ele>927.0</ele><time>2026-05-01T15:08:43.997Z</time></trkpt><trkpt lat="44.740215" lon="9.6650733"><ele>927.0</ele><time>2026-05-01T15:08:44.996Z</time></trkpt><trkpt lat="44.740325" lon="9.6650017"><ele>927.0</ele><time>2026-05-01T15:08:45.996Z</time></trkpt><trkpt lat="44.740445" lon="9.66492"><ele>926.8</ele><time>2026-05-01T15:08:46.996Z</time></trkpt><trkpt lat="44.74056" lon="9.664845"><ele>926.6</ele><time>2026-05-01T15:08:47.997Z</time></trkpt><trkpt lat="44.7406583" lon="9.6647833"><ele>926.3999999999999</ele><time>2026-05-01T15:08:48.997Z</time></trkpt><trkpt lat="44.74074" lon="9.664735"><ele>926.1999999999999</ele><time>2026-05-01T15:08:49.996Z</time></trkpt><trkpt lat="44.7408067" lon="9.664695"><ele>926.0</ele><time>2026-05-01T15:08:50.997Z</time></trkpt><trkpt lat="44.7409033" lon="9.6646267"><ele>926.0</ele><time>2026-05-01T15:08:52.995Z</time></trkpt><trkpt lat="44.74099" lon="9.6645017"><ele>925.9999999999999</ele><time>2026-05-01T15:08:54.995Z</time></trkpt><trkpt lat="44.7410317" lon="9.664405"><ele>925.9999999999999</ele><time>2026-05-01T15:08:55.996Z</time></trkpt><trkpt lat="44.7410683" lon="9.664285"><ele>926.0</ele><time>2026-05-01T15:08:56.995Z</time></trkpt><trkpt lat="44.741105" lon="9.66416"><ele>926.0</ele><time>2026-05-01T15:08:57.995Z</time></trkpt><trkpt lat="44.7411433" lon="9.6640317"><ele>925.5999999999999</ele><time>2026-05-01T15:08:58.997Z</time></trkpt><trkpt lat="44.7411833" lon="9.663895"><ele>925.1999999999999</ele><time>2026-05-01T15:08:59.996Z</time></trkpt><trkpt lat="44.7412167" lon="9.6637417"><ele>924.8000000000001</ele><time>2026-05-01T15:09:00.995Z</time></trkpt><trkpt lat="44.7412367" lon="9.6635883"><ele>924.4000000000001</ele><time>2026-05-01T15:09:01.997Z</time></trkpt><trkpt lat="44.7412467" lon="9.6634383"><ele>924.0</ele><time>2026-05-01T15:09:02.997Z</time></trkpt><trkpt lat="44.7412533" lon="9.663295"><ele>923.2</ele><time>2026-05-01T15:09:03.995Z</time></trkpt><trkpt lat="44.7412733" lon="9.6631667"><ele>922.4000000000001</ele><time>2026-05-01T15:09:04.996Z</time></trkpt><trkpt lat="44.7413117" lon="9.66305"><ele>921.6</ele><time>2026-05-01T15:09:05.995Z</time></trkpt><trkpt lat="44.7413733" lon="9.6629533"><ele>920.8</ele><time>2026-05-01T15:09:06.995Z</time></trkpt><trkpt lat="44.74146" lon="9.6628883"><ele>920.0</ele><time>2026-05-01T15:09:07.996Z</time></trkpt><trkpt lat="44.741565" lon="9.6628617"><ele>920.0</ele><time>2026-05-01T15:09:08.997Z</time></trkpt><trkpt lat="44.7416883" lon="9.6628667"><ele>920.0</ele><time>2026-05-01T15:09:09.995Z</time></trkpt><trkpt lat="44.7418217" lon="9.6628733"><ele>920.0</ele><time>2026-05-01T15:09:10.996Z</time></trkpt><trkpt lat="44.741955" lon="9.6628417"><ele>920.0</ele><time>2026-05-01T15:09:11.996Z</time></trkpt><trkpt lat="44.74209" lon="9.66278"><ele>919.75</ele><time>2026-05-01T15:09:12.996Z</time></trkpt><trkpt lat="44.7422217" lon="9.6627017"><ele>919.5</ele><time>2026-05-01T15:09:13.996Z</time></trkpt><trkpt lat="44.7423533" lon="9.66262"><ele>919.25</ele><time>2026-05-01T15:09:14.996Z</time></trkpt><trkpt lat="44.7424783" lon="9.66254"><ele>919.0</ele><time>2026-05-01T15:09:15.996Z</time></trkpt><trkpt lat="44.7426033" lon="9.6624667"><ele>919.75</ele><time>2026-05-01T15:09:16.996Z</time></trkpt><trkpt lat="44.7427283" lon="9.6623983"><ele>920.5</ele><time>2026-05-01T15:09:17.996Z</time></trkpt><trkpt lat="44.7428517" lon="9.6623283"><ele>921.25</ele><time>2026-05-01T15:09:18.996Z</time></trkpt><trkpt lat="44.74297" lon="9.6622533"><ele>922.0</ele><time>2026-05-01T15:09:19.995Z</time></trkpt><trkpt lat="44.7430783" lon="9.6621767"><ele>922.0</ele><time>2026-05-01T15:09:20.997Z</time></trkpt><trkpt lat="44.7431683" lon="9.6620867"><ele>922.0</ele><time>2026-05-01T15:09:21.995Z</time></trkpt><trkpt lat="44.74324" lon="9.6619783"><ele>922.0</ele><time>2026-05-01T15:09:22.995Z</time></trkpt><trkpt lat="44.74329" lon="9.66184"><ele>922.0</ele><time>2026-05-01T15:09:23.995Z</time></trkpt><trkpt lat="44.7433233" lon="9.6616783"><ele>922.0</ele><time>2026-05-01T15:09:24.996Z</time></trkpt><trkpt lat="44.7433583" lon="9.6615167"><ele>922.25</ele><time>2026-05-01T15:09:25.995Z</time></trkpt><trkpt lat="44.7434017" lon="9.6613583"><ele>922.5</ele><time>2026-05-01T15:09:26.996Z</time></trkpt><trkpt lat="44.7434733" lon="9.661235"><ele>922.75</ele><time>2026-05-01T15:09:27.995Z</time></trkpt><trkpt lat="44.74357" lon="9.6611417"><ele>923.0</ele><time>2026-05-01T15:09:28.995Z</time></trkpt><trkpt lat="44.7436767" lon="9.6610683"><ele>920.8</ele><time>2026-05-01T15:09:29.995Z</time></trkpt><trkpt lat="44.74378" lon="9.661"><ele>918.5999999999999</ele><time>2026-05-01T15:09:30.997Z</time></trkpt><trkpt lat="44.74387" lon="9.660915"><ele>916.4000000000001</ele><time>2026-05-01T15:09:31.995Z</time></trkpt><trkpt lat="44.74393" lon="9.660805"><ele>914.2</ele><time>2026-05-01T15:09:32.997Z</time></trkpt><trkpt lat="44.7439533" lon="9.660655"><ele>912.0</ele><time>2026-05-01T15:09:33.995Z</time></trkpt><trkpt lat="44.74395" lon="9.660475"><ele>912.0</ele><time>2026-05-01T15:09:34.996Z</time></trkpt><trkpt lat="44.7439567" lon="9.6603033"><ele>912.0</ele><time>2026-05-01T15:09:35.997Z</time></trkpt><trkpt lat="44.7439817" lon="9.660155"><ele>912.0</ele><time>2026-05-01T15:09:36.995Z</time></trkpt><trkpt lat="44.7440267" lon="9.6600467"><ele>912.0</ele><time>2026-05-01T15:09:37.997Z</time></trkpt><trkpt lat="44.7440967" lon="9.65997"><ele>912.0</ele><time>2026-05-01T15:09:38.995Z</time></trkpt><trkpt lat="44.7441967" lon="9.6599217"><ele>912.4000000000001</ele><time>2026-05-01T15:09:39.996Z</time></trkpt><trkpt lat="44.744315" lon="9.659895"><ele>912.8000000000001</ele><time>2026-05-01T15:09:40.995Z</time></trkpt><trkpt lat="44.7444233" lon="9.6598617"><ele>913.2</ele><time>2026-05-01T15:09:41.996Z</time></trkpt><trkpt lat="44.74452" lon="9.6598133"><ele>913.6</ele><time>2026-05-01T15:09:42.996Z</time></trkpt><trkpt lat="44.744595" lon="9.65973"><ele>914.0</ele><time>2026-05-01T15:09:43.995Z</time></trkpt><trkpt lat="44.74465" lon="9.6596117"><ele>914.0</ele><time>2026-05-01T15:09:44.996Z</time></trkpt><trkpt lat="44.7446867" lon="9.659465"><ele>914.0</ele><time>2026-05-01T15:09:45.996Z</time></trkpt><trkpt lat="44.7447067" lon="9.6593083"><ele>914.0</ele><time>2026-05-01T15:09:46.996Z</time></trkpt><trkpt lat="44.7447183" lon="9.6591467"><ele>914.0</ele><time>2026-05-01T15:09:47.997Z</time></trkpt><trkpt lat="44.7447183" lon="9.658985"><ele>911.75</ele><time>2026-05-01T15:09:48.996Z</time></trkpt><trkpt lat="44.7447133" lon="9.6588167"><ele>909.5</ele><time>2026-05-01T15:09:49.996Z</time></trkpt><trkpt lat="44.7447033" lon="9.6586483"><ele>907.25</ele><time>2026-05-01T15:09:50.996Z</time></trkpt><trkpt lat="44.7446983" lon="9.6584717"><ele>905.0</ele><time>2026-05-01T15:09:51.996Z</time></trkpt><trkpt lat="44.7446967" lon="9.658305"><ele>904.2</ele><time>2026-05-01T15:09:53.001Z</time></trkpt><trkpt lat="44.7446933" lon="9.658155"><ele>903.4</ele><time>2026-05-01T15:09:53.996Z</time></trkpt><trkpt lat="44.74469" lon="9.65802"><ele>902.5999999999999</ele><time>2026-05-01T15:09:54.996Z</time></trkpt><trkpt lat="44.7447017" lon="9.6578867"><ele>901.8</ele><time>2026-05-01T15:09:55.995Z</time></trkpt><trkpt lat="44.7447317" lon="9.657745"><ele>901.0</ele><time>2026-05-01T15:09:56.997Z</time></trkpt><trkpt lat="44.7447683" lon="9.6576"><ele>901.0</ele><time>2026-05-01T15:09:57.998Z</time></trkpt><trkpt lat="44.7448" lon="9.6574633"><ele>900.9999999999999</ele><time>2026-05-01T15:09:58.996Z</time></trkpt><trkpt lat="44.7448117" lon="9.6573217"><ele>900.9999999999999</ele><time>2026-05-01T15:09:59.996Z</time></trkpt><trkpt lat="44.744795" lon="9.657175"><ele>901.0</ele><time>2026-05-01T15:10:00.995Z</time></trkpt><trkpt lat="44.74475" lon="9.6570233"><ele>901.0</ele><time>2026-05-01T15:10:01.996Z</time></trkpt><trkpt lat="44.74469" lon="9.6568633"><ele>900.75</ele><time>2026-05-01T15:10:02.996Z</time></trkpt><trkpt lat="44.7446217" lon="9.656695"><ele>900.5</ele><time>2026-05-01T15:10:03.997Z</time></trkpt><trkpt lat="44.7445583" lon="9.656525"><ele>900.25</ele><time>2026-05-01T15:10:04.998Z</time></trkpt><trkpt lat="44.744505" lon="9.6563567"><ele>900.0</ele><time>2026-05-01T15:10:05.999Z</time></trkpt><trkpt lat="44.744455" lon="9.6561967"><ele>899.6</ele><time>2026-05-01T15:10:06.997Z</time></trkpt><trkpt lat="44.7444" lon="9.6560533"><ele>899.2</ele><time>2026-05-01T15:10:07.996Z</time></trkpt><trkpt lat="44.74436" lon="9.6559267"><ele>898.8</ele><time>2026-05-01T15:10:08.996Z</time></trkpt><trkpt lat="44.74434" lon="9.6558067"><ele>898.4</ele><time>2026-05-01T15:10:09.996Z</time></trkpt><trkpt lat="44.74434" lon="9.6556933"><ele>898.0</ele><time>2026-05-01T15:10:10.996Z</time></trkpt><trkpt lat="44.7443733" lon="9.6555967"><ele>898.0</ele><time>2026-05-01T15:10:12.085Z</time></trkpt><trkpt lat="44.7444383" lon="9.655515"><ele>898.0</ele><time>2026-05-01T15:10:12.996Z</time></trkpt><trkpt lat="44.7445167" lon="9.655445"><ele>898.0</ele><time>2026-05-01T15:10:13.996Z</time></trkpt><trkpt lat="44.744625" lon="9.6553833"><ele>898.0</ele><time>2026-05-01T15:10:14.996Z</time></trkpt><trkpt lat="44.7447467" lon="9.6553067"><ele>898.0</ele><time>2026-05-01T15:10:15.996Z</time></trkpt><trkpt lat="44.7448517" lon="9.6551967"><ele>895.25</ele><time>2026-05-01T15:10:16.996Z</time></trkpt><trkpt lat="44.7449367" lon="9.6550533"><ele>892.5</ele><time>2026-05-01T15:10:17.998Z</time></trkpt><trkpt lat="44.7450067" lon="9.654895"><ele>889.75</ele><time>2026-05-01T15:10:18.997Z</time></trkpt><trkpt lat="44.7450683" lon="9.654745"><ele>887.0</ele><time>2026-05-01T15:10:19.997Z</time></trkpt><trkpt lat="44.745145" lon="9.65462"><ele>888.0</ele><time>2026-05-01T15:10:20.997Z</time></trkpt><trkpt lat="44.7452417" lon="9.6545183"><ele>889.0</ele><time>2026-05-01T15:10:21.997Z</time></trkpt><trkpt lat="44.745345" lon="9.6544383"><ele>890.0</ele><time>2026-05-01T15:10:22.996Z</time></trkpt><trkpt lat="44.7454517" lon="9.654375"><ele>891.0</ele><time>2026-05-01T15:10:23.997Z</time></trkpt><trkpt lat="44.745555" lon="9.65432"><ele>891.0</ele><time>2026-05-01T15:10:24.996Z</time></trkpt><trkpt lat="44.7456433" lon="9.65425"><ele>890.9999999999999</ele><time>2026-05-01T15:10:25.997Z</time></trkpt><trkpt lat="44.7457117" lon="9.65415"><ele>890.9999999999999</ele><time>2026-05-01T15:10:26.997Z</time></trkpt><trkpt lat="44.7457567" lon="9.6540117"><ele>891.0</ele><time>2026-05-01T15:10:27.996Z</time></trkpt><trkpt lat="44.7457917" lon="9.653855"><ele>891.0</ele><time>2026-05-01T15:10:28.995Z</time></trkpt><trkpt lat="44.7458267" lon="9.6536917"><ele>888.75</ele><time>2026-05-01T15:10:29.997Z</time></trkpt><trkpt lat="44.7458683" lon="9.6535383"><ele>886.5</ele><time>2026-05-01T15:10:30.995Z</time></trkpt><trkpt lat="44.74593" lon="9.6533967"><ele>884.25</ele><time>2026-05-01T15:10:31.996Z</time></trkpt><trkpt lat="44.7460083" lon="9.6532667"><ele>882.0</ele><time>2026-05-01T15:10:32.997Z</time></trkpt><trkpt lat="44.7460967" lon="9.6531317"><ele>884.0</ele><time>2026-05-01T15:10:33.996Z</time></trkpt><trkpt lat="44.74618" lon="9.6529883"><ele>886.0</ele><time>2026-05-01T15:10:34.996Z</time></trkpt><trkpt lat="44.7462583" lon="9.6528483"><ele>888.0</ele><time>2026-05-01T15:10:35.996Z</time></trkpt><trkpt lat="44.7463283" lon="9.6527133"><ele>890.0</ele><time>2026-05-01T15:10:36.996Z</time></trkpt><trkpt lat="44.7463833" lon="9.6525717"><ele>890.0</ele><time>2026-05-01T15:10:37.996Z</time></trkpt><trkpt lat="44.74642" lon="9.652415"><ele>890.0</ele><time>2026-05-01T15:10:38.996Z</time></trkpt><trkpt lat="44.7464383" lon="9.652245"><ele>890.0</ele><time>2026-05-01T15:10:39.997Z</time></trkpt><trkpt lat="44.74645" lon="9.6520683"><ele>890.0</ele><time>2026-05-01T15:10:40.997Z</time></trkpt><trkpt lat="44.7464617" lon="9.6518933"><ele>889.0</ele><time>2026-05-01T15:10:41.996Z</time></trkpt><trkpt lat="44.7464767" lon="9.6517267"><ele>888.0</ele><time>2026-05-01T15:10:42.997Z</time></trkpt><trkpt lat="44.7465" lon="9.6515717"><ele>887.0</ele><time>2026-05-01T15:10:43.996Z</time></trkpt><trkpt lat="44.74654" lon="9.6514267"><ele>886.0</ele><time>2026-05-01T15:10:44.996Z</time></trkpt><trkpt lat="44.7466033" lon="9.6512867"><ele>886.0</ele><time>2026-05-01T15:10:45.997Z</time></trkpt><trkpt lat="44.7466867" lon="9.6511483"><ele>886.0</ele><time>2026-05-01T15:10:46.996Z</time></trkpt><trkpt lat="44.746785" lon="9.6510167"><ele>886.0</ele><time>2026-05-01T15:10:47.998Z</time></trkpt><trkpt lat="44.7468917" lon="9.6508933"><ele>886.0</ele><time>2026-05-01T15:10:48.996Z</time></trkpt><trkpt lat="44.7469967" lon="9.6507767"><ele>887.0</ele><time>2026-05-01T15:10:49.997Z</time></trkpt><trkpt lat="44.7470933" lon="9.6506583"><ele>888.0</ele><time>2026-05-01T15:10:50.996Z</time></trkpt><trkpt lat="44.747175" lon="9.65053"><ele>889.0</ele><time>2026-05-01T15:10:51.996Z</time></trkpt><trkpt lat="44.7472383" lon="9.650385"><ele>890.0</ele><time>2026-05-01T15:10:52.997Z</time></trkpt><trkpt lat="44.7472867" lon="9.6502233"><ele>888.0</ele><time>2026-05-01T15:10:53.998Z</time></trkpt><trkpt lat="44.7473267" lon="9.6500467"><ele>886.0</ele><time>2026-05-01T15:10:54.996Z</time></trkpt><trkpt lat="44.747365" lon="9.649865"><ele>884.0</ele><time>2026-05-01T15:10:55.996Z</time></trkpt><trkpt lat="44.7474067" lon="9.649685"><ele>882.0</ele><time>2026-05-01T15:10:56.996Z</time></trkpt><trkpt lat="44.7474517" lon="9.6495067"><ele>879.5</ele><time>2026-05-01T15:10:57.996Z</time></trkpt><trkpt lat="44.7475017" lon="9.649335"><ele>877.0</ele><time>2026-05-01T15:10:58.996Z</time></trkpt><trkpt lat="44.747555" lon="9.6491717"><ele>874.5</ele><time>2026-05-01T15:10:59.996Z</time></trkpt><trkpt lat="44.74761" lon="9.64901"><ele>872.0</ele><time>2026-05-01T15:11:00.996Z</time></trkpt><trkpt lat="44.7476433" lon="9.6488317"><ele>872.0</ele><time>2026-05-01T15:11:01.997Z</time></trkpt><trkpt lat="44.7476533" lon="9.64864"><ele>872.0</ele><time>2026-05-01T15:11:02.998Z</time></trkpt><trkpt lat="44.7476483" lon="9.6484533"><ele>872.0</ele><time>2026-05-01T15:11:03.996Z</time></trkpt><trkpt lat="44.7476417" lon="9.6482783"><ele>872.0</ele><time>2026-05-01T15:11:04.997Z</time></trkpt><trkpt lat="44.74765" lon="9.6481017"><ele>870.25</ele><time>2026-05-01T15:11:05.996Z</time></trkpt><trkpt lat="44.7476733" lon="9.6479183"><ele>868.5</ele><time>2026-05-01T15:11:06.997Z</time></trkpt><trkpt lat="44.74771" lon="9.6477383"><ele>866.75</ele><time>2026-05-01T15:11:07.996Z</time></trkpt><trkpt lat="44.747745" lon="9.64756"><ele>865.0</ele><time>2026-05-01T15:11:08.998Z</time></trkpt><trkpt lat="44.74778" lon="9.6473883"><ele>868.25</ele><time>2026-05-01T15:11:09.996Z</time></trkpt><trkpt lat="44.7478" lon="9.6472133"><ele>871.5</ele><time>2026-05-01T15:11:10.996Z</time></trkpt><trkpt lat="44.7478067" lon="9.6470417"><ele>874.75</ele><time>2026-05-01T15:11:11.996Z</time></trkpt><trkpt lat="44.7478017" lon="9.6468767"><ele>878.0</ele><time>2026-05-01T15:11:12.996Z</time></trkpt><trkpt lat="44.74781" lon="9.64672"><ele>878.0</ele><time>2026-05-01T15:11:13.996Z</time></trkpt><trkpt lat="44.747835" lon="9.6465767"><ele>878.0</ele><time>2026-05-01T15:11:14.997Z</time></trkpt><trkpt lat="44.747865" lon="9.6464417"><ele>878.0</ele><time>2026-05-01T15:11:15.997Z</time></trkpt><trkpt lat="44.7478983" lon="9.6463117"><ele>878.0</ele><time>2026-05-01T15:11:16.996Z</time></trkpt><trkpt lat="44.7479367" lon="9.6461883"><ele>878.0</ele><time>2026-05-01T15:11:17.997Z</time></trkpt><trkpt lat="44.747985" lon="9.6460717"><ele>875.2</ele><time>2026-05-01T15:11:18.997Z</time></trkpt><trkpt lat="44.74805" lon="9.6459617"><ele>872.4</ele><time>2026-05-01T15:11:19.997Z</time></trkpt><trkpt lat="44.748125" lon="9.645865"><ele>869.6000000000001</ele><time>2026-05-01T15:11:20.998Z</time></trkpt><trkpt lat="44.7482067" lon="9.6457783"><ele>866.8000000000001</ele><time>2026-05-01T15:11:21.996Z</time></trkpt><trkpt lat="44.7482933" lon="9.645685"><ele>864.0</ele><time>2026-05-01T15:11:22.997Z</time></trkpt><trkpt lat="44.7483767" lon="9.6455783"><ele>864.0</ele><time>2026-05-01T15:11:23.996Z</time></trkpt><trkpt lat="44.74845" lon="9.64545"><ele>864.0</ele><time>2026-05-01T15:11:24.996Z</time></trkpt><trkpt lat="44.74852" lon="9.645315"><ele>864.0</ele><time>2026-05-01T15:11:25.997Z</time></trkpt><trkpt lat="44.748585" lon="9.6451883"><ele>864.0</ele><time>2026-05-01T15:11:26.997Z</time></trkpt><trkpt lat="44.7486567" lon="9.6450783"><ele>864.0</ele><time>2026-05-01T15:11:27.996Z</time></trkpt><trkpt lat="44.7487383" lon="9.6449917"><ele>864.0000000000001</ele><time>2026-05-01T15:11:28.997Z</time></trkpt><trkpt lat="44.748825" lon="9.6449183"><ele>864.0000000000001</ele><time>2026-05-01T15:11:29.995Z</time></trkpt><trkpt lat="44.7489" lon="9.64483"><ele>864.0</ele><time>2026-05-01T15:11:30.997Z</time></trkpt><trkpt lat="44.748965" lon="9.64473"><ele>864.0</ele><time>2026-05-01T15:11:31.998Z</time></trkpt><trkpt lat="44.7490233" lon="9.64462"><ele>864.0</ele><time>2026-05-01T15:11:32.996Z</time></trkpt><trkpt lat="44.749085" lon="9.6444983"><ele>864.0</ele><time>2026-05-01T15:11:33.996Z</time></trkpt><trkpt lat="44.7491433" lon="9.6443683"><ele>864.0</ele><time>2026-05-01T15:11:34.997Z</time></trkpt><trkpt lat="44.7492033" lon="9.6442233"><ele>864.0</ele><time>2026-05-01T15:11:35.997Z</time></trkpt><trkpt lat="44.749265" lon="9.6440683"><ele>862.0</ele><time>2026-05-01T15:11:36.997Z</time></trkpt><trkpt lat="44.7493267" lon="9.6439"><ele>860.0</ele><time>2026-05-01T15:11:37.997Z</time></trkpt><trkpt lat="44.7493883" lon="9.64373"><ele>858.0</ele><time>2026-05-01T15:11:38.996Z</time></trkpt><trkpt lat="44.7494467" lon="9.64356"><ele>856.0</ele><time>2026-05-01T15:11:39.997Z</time></trkpt><trkpt lat="44.7494983" lon="9.6434017"><ele>860.4</ele><time>2026-05-01T15:11:40.997Z</time></trkpt><trkpt lat="44.7495417" lon="9.643255"><ele>864.8</ele><time>2026-05-01T15:11:41.996Z</time></trkpt><trkpt lat="44.7495767" lon="9.643115"><ele>869.1999999999999</ele><time>2026-05-01T15:11:42.997Z</time></trkpt><trkpt lat="44.7495967" lon="9.64298"><ele>873.5999999999999</ele><time>2026-05-01T15:11:43.995Z</time></trkpt><trkpt lat="44.7496" lon="9.6428383"><ele>878.0</ele><time>2026-05-01T15:11:44.996Z</time></trkpt><trkpt lat="44.7495917" lon="9.6426817"><ele>878.0</ele><time>2026-05-01T15:11:45.996Z</time></trkpt><trkpt lat="44.7495867" lon="9.6425117"><ele>878.0</ele><time>2026-05-01T15:11:46.996Z</time></trkpt><trkpt lat="44.749595" lon="9.6423383"><ele>878.0</ele><time>2026-05-01T15:11:47.997Z</time></trkpt><trkpt lat="44.749615" lon="9.6421633"><ele>878.0</ele><time>2026-05-01T15:11:48.996Z</time></trkpt><trkpt lat="44.749625" lon="9.641975"><ele>878.75</ele><time>2026-05-01T15:11:49.996Z</time></trkpt><trkpt lat="44.74963" lon="9.6417867"><ele>879.5</ele><time>2026-05-01T15:11:50.996Z</time></trkpt><trkpt lat="44.7496367" lon="9.6416017"><ele>880.25</ele><time>2026-05-01T15:11:51.996Z</time></trkpt><trkpt lat="44.7496383" lon="9.6414267"><ele>881.0</ele><time>2026-05-01T15:11:52.996Z</time></trkpt><trkpt lat="44.74964" lon="9.6412583"><ele>880.5999999999999</ele><time>2026-05-01T15:11:53.996Z</time></trkpt><trkpt lat="44.74964" lon="9.6411017"><ele>880.1999999999999</ele><time>2026-05-01T15:11:54.996Z</time></trkpt><trkpt lat="44.74964" lon="9.6409617"><ele>879.8000000000001</ele><time>2026-05-01T15:11:55.997Z</time></trkpt><trkpt lat="44.74965" lon="9.6408367"><ele>879.4000000000001</ele><time>2026-05-01T15:11:56.996Z</time></trkpt><trkpt lat="44.7496667" lon="9.6407083"><ele>879.0</ele><time>2026-05-01T15:11:57.996Z</time></trkpt><trkpt lat="44.7496967" lon="9.640565"><ele>879.0</ele><time>2026-05-01T15:11:58.996Z</time></trkpt><trkpt lat="44.7497367" lon="9.640415"><ele>879.0</ele><time>2026-05-01T15:11:59.996Z</time></trkpt><trkpt lat="44.7497733" lon="9.64026"><ele>879.0</ele><time>2026-05-01T15:12:00.997Z</time></trkpt><trkpt lat="44.7498083" lon="9.6401"><ele>879.0</ele><time>2026-05-01T15:12:01.997Z</time></trkpt><trkpt lat="44.7498383" lon="9.6399333"><ele>877.25</ele><time>2026-05-01T15:12:02.996Z</time></trkpt><trkpt lat="44.749865" lon="9.6397633"><ele>875.5</ele><time>2026-05-01T15:12:03.996Z</time></trkpt><trkpt lat="44.7498933" lon="9.6396067"><ele>873.75</ele><time>2026-05-01T15:12:04.997Z</time></trkpt><trkpt lat="44.7499267" lon="9.6394567"><ele>872.0</ele><time>2026-05-01T15:12:05.997Z</time></trkpt><trkpt lat="44.7499633" lon="9.639305"><ele>871.6666666666667</ele><time>2026-05-01T15:12:06.996Z</time></trkpt><trkpt lat="44.7500067" lon="9.6391717"><ele>871.3333333333334</ele><time>2026-05-01T15:12:07.997Z</time></trkpt><trkpt lat="44.750055" lon="9.6390567"><ele>871.0</ele><time>2026-05-01T15:12:08.996Z</time></trkpt><trkpt lat="44.7501017" lon="9.6389567"><ele>870.6666666666667</ele><time>2026-05-01T15:12:09.997Z</time></trkpt><trkpt lat="44.7501483" lon="9.6388633"><ele>870.3333333333334</ele><time>2026-05-01T15:12:10.996Z</time></trkpt><trkpt lat="44.750195" lon="9.6387917"><ele>870.0</ele><time>2026-05-01T15:12:11.997Z</time></trkpt><trkpt lat="44.7502483" lon="9.6387367"><ele>869.5</ele><time>2026-05-01T15:12:12.997Z</time></trkpt><trkpt lat="44.7503517" lon="9.6387117"><ele>869.0</ele><time>2026-05-01T15:12:14.996Z</time></trkpt><trkpt lat="44.750425" lon="9.6387383"><ele>868.5</ele><time>2026-05-01T15:12:15.997Z</time></trkpt><trkpt lat="44.750505" lon="9.63876"><ele>868.0</ele><time>2026-05-01T15:12:16.996Z</time></trkpt><trkpt lat="44.7505833" lon="9.6387783"><ele>867.5</ele><time>2026-05-01T15:12:17.996Z</time></trkpt><trkpt lat="44.7506667" lon="9.638805"><ele>867.0</ele><time>2026-05-01T15:12:18.996Z</time></trkpt><trkpt lat="44.7507467" lon="9.6388417"><ele>867.0</ele><time>2026-05-01T15:12:19.996Z</time></trkpt><trkpt lat="44.750835" lon="9.6388967"><ele>867.0</ele><time>2026-05-01T15:12:20.996Z</time></trkpt><trkpt lat="44.750915" lon="9.638965"><ele>867.0</ele><time>2026-05-01T15:12:21.996Z</time></trkpt><trkpt lat="44.750995" lon="9.6390383"><ele>867.0</ele><time>2026-05-01T15:12:22.996Z</time></trkpt><trkpt lat="44.7510783" lon="9.6391033"><ele>867.0</ele><time>2026-05-01T15:12:23.996Z</time></trkpt><trkpt lat="44.7511583" lon="9.639155"><ele>866.8333333333334</ele><time>2026-05-01T15:12:24.996Z</time></trkpt><trkpt lat="44.751235" lon="9.639215"><ele>866.6666666666667</ele><time>2026-05-01T15:12:25.996Z</time></trkpt><trkpt lat="44.7513167" lon="9.6392733"><ele>866.5</ele><time>2026-05-01T15:12:26.996Z</time></trkpt><trkpt lat="44.75139" lon="9.63932"><ele>866.3333333333334</ele><time>2026-05-01T15:12:27.996Z</time></trkpt><trkpt lat="44.75146" lon="9.6393683"><ele>866.1666666666667</ele><time>2026-05-01T15:12:28.997Z</time></trkpt><trkpt lat="44.7515267" lon="9.6394233"><ele>866.0</ele><time>2026-05-01T15:12:29.996Z</time></trkpt><trkpt lat="44.75159" lon="9.6395017"><ele>866.0</ele><time>2026-05-01T15:12:30.996Z</time></trkpt><trkpt lat="44.75165" lon="9.6395967"><ele>865.9999999999999</ele><time>2026-05-01T15:12:31.997Z</time></trkpt><trkpt lat="44.7517017" lon="9.6397183"><ele>865.9999999999999</ele><time>2026-05-01T15:12:32.997Z</time></trkpt><trkpt lat="44.7517567" lon="9.6398333"><ele>866.0</ele><time>2026-05-01T15:12:33.996Z</time></trkpt><trkpt lat="44.7518133" lon="9.6399317"><ele>866.0</ele><time>2026-05-01T15:12:34.997Z</time></trkpt><trkpt lat="44.7518883" lon="9.64001"><ele>865.1999999999999</ele><time>2026-05-01T15:12:35.996Z</time></trkpt><trkpt lat="44.7519867" lon="9.6400633"><ele>864.3999999999999</ele><time>2026-05-01T15:12:36.997Z</time></trkpt><trkpt lat="44.7520967" lon="9.6400967"><ele>863.6</ele><time>2026-05-01T15:12:37.996Z</time></trkpt><trkpt lat="44.752205" lon="9.6401217"><ele>862.8</ele><time>2026-05-01T15:12:38.997Z</time></trkpt><trkpt lat="44.7523" lon="9.6401433"><ele>862.0</ele><time>2026-05-01T15:12:39.996Z</time></trkpt><trkpt lat="44.7523817" lon="9.640175"><ele>861.9999999999999</ele><time>2026-05-01T15:12:40.997Z</time></trkpt><trkpt lat="44.7524533" lon="9.6402217"><ele>862.0</ele><time>2026-05-01T15:12:41.995Z</time></trkpt><trkpt lat="44.7525117" lon="9.6402833"><ele>862.0</ele><time>2026-05-01T15:12:42.996Z</time></trkpt><trkpt lat="44.7525667" lon="9.6403533"><ele>862.0</ele><time>2026-05-01T15:12:43.996Z</time></trkpt><trkpt lat="44.75262" lon="9.6404333"><ele>861.9999999999999</ele><time>2026-05-01T15:12:44.996Z</time></trkpt><trkpt lat="44.7526717" lon="9.6405133"><ele>862.0</ele><time>2026-05-01T15:12:45.996Z</time></trkpt><trkpt lat="44.7527217" lon="9.6405917"><ele>863.4000000000001</ele><time>2026-05-01T15:12:46.996Z</time></trkpt><trkpt lat="44.75277" lon="9.6406583"><ele>864.8000000000001</ele><time>2026-05-01T15:12:47.998Z</time></trkpt><trkpt lat="44.7528733" lon="9.6407433"><ele>866.2</ele><time>2026-05-01T15:12:49.996Z</time></trkpt><trkpt lat="44.7529767" lon="9.64078"><ele>867.6</ele><time>2026-05-01T15:12:51.996Z</time></trkpt><trkpt lat="44.7530783" lon="9.6407933"><ele>869.0</ele><time>2026-05-01T15:12:53.996Z</time></trkpt><trkpt lat="44.7531983" lon="9.6408067"><ele>869.0</ele><time>2026-05-01T15:12:55.996Z</time></trkpt><trkpt lat="44.753265" lon="9.6408217"><ele>869.0</ele><time>2026-05-01T15:12:56.996Z</time></trkpt><trkpt lat="44.7533317" lon="9.64084"><ele>869.0</ele><time>2026-05-01T15:12:57.997Z</time></trkpt><trkpt lat="44.753405" lon="9.6408583"><ele>869.0</ele><time>2026-05-01T15:12:58.996Z</time></trkpt><trkpt lat="44.7534817" lon="9.6408683"><ele>869.0</ele><time>2026-05-01T15:12:59.996Z</time></trkpt><trkpt lat="44.7535567" lon="9.64086"><ele>869.0</ele><time>2026-05-01T15:13:00.996Z</time></trkpt><trkpt lat="44.7536267" lon="9.640835"><ele>869.0</ele><time>2026-05-01T15:13:01.996Z</time></trkpt><trkpt lat="44.7537017" lon="9.6407983"><ele>869.1666666666667</ele><time>2026-05-01T15:13:02.997Z</time></trkpt><trkpt lat="44.7537717" lon="9.6407483"><ele>869.3333333333334</ele><time>2026-05-01T15:13:03.996Z</time></trkpt><trkpt lat="44.7538417" lon="9.6406767"><ele>869.5</ele><time>2026-05-01T15:13:04.997Z</time></trkpt><trkpt lat="44.7539067" lon="9.64059"><ele>869.6666666666667</ele><time>2026-05-01T15:13:05.996Z</time></trkpt><trkpt lat="44.7539767" lon="9.6404967"><ele>869.8333333333334</ele><time>2026-05-01T15:13:06.996Z</time></trkpt><trkpt lat="44.7540467" lon="9.6404017"><ele>870.0</ele><time>2026-05-01T15:13:07.996Z</time></trkpt><trkpt lat="44.7541167" lon="9.6403183"><ele>869.0</ele><time>2026-05-01T15:13:08.997Z</time></trkpt><trkpt lat="44.7541833" lon="9.6402383"><ele>868.0</ele><time>2026-05-01T15:13:09.996Z</time></trkpt><trkpt lat="44.7542517" lon="9.6401667"><ele>867.0</ele><time>2026-05-01T15:13:10.996Z</time></trkpt><trkpt lat="44.7543283" lon="9.6401083"><ele>866.0</ele><time>2026-05-01T15:13:11.996Z</time></trkpt><trkpt lat="44.754405" lon="9.6400633"><ele>865.0</ele><time>2026-05-01T15:13:12.997Z</time></trkpt><trkpt lat="44.754485" lon="9.6400167"><ele>864.0</ele><time>2026-05-01T15:13:13.996Z</time></trkpt><trkpt lat="44.7545617" lon="9.6399617"><ele>864.0</ele><time>2026-05-01T15:13:14.996Z</time></trkpt><trkpt lat="44.7546317" lon="9.6398983"><ele>864.0</ele><time>2026-05-01T15:13:15.996Z</time></trkpt><trkpt lat="44.7546917" lon="9.6398217"><ele>864.0</ele><time>2026-05-01T15:13:16.997Z</time></trkpt><trkpt lat="44.7547433" lon="9.6397467"><ele>864.0</ele><time>2026-05-01T15:13:17.997Z</time></trkpt><trkpt lat="44.7547983" lon="9.63968"><ele>864.0</ele><time>2026-05-01T15:13:18.996Z</time></trkpt><trkpt lat="44.7548567" lon="9.6396267"><ele>864.0</ele><time>2026-05-01T15:13:19.996Z</time></trkpt><trkpt lat="44.75492" lon="9.6395917"><ele>864.0</ele><time>2026-05-01T15:13:20.998Z</time></trkpt><trkpt lat="44.7549867" lon="9.6395767"><ele>864.0</ele><time>2026-05-01T15:13:21.996Z</time></trkpt><trkpt lat="44.7550533" lon="9.639585"><ele>864.0</ele><time>2026-05-01T15:13:22.997Z</time></trkpt><trkpt lat="44.7551217" lon="9.6396067"><ele>864.0</ele><time>2026-05-01T15:13:23.996Z</time></trkpt><trkpt lat="44.7551917" lon="9.6396433"><ele>864.0</ele><time>2026-05-01T15:13:24.997Z</time></trkpt><trkpt lat="44.75526" lon="9.63969"><ele>864.0</ele><time>2026-05-01T15:13:25.996Z</time></trkpt><trkpt lat="44.7553283" lon="9.6397283"><ele>864.0</ele><time>2026-05-01T15:13:26.996Z</time></trkpt><trkpt lat="44.7553983" lon="9.6397567"><ele>864.0</ele><time>2026-05-01T15:13:27.996Z</time></trkpt><trkpt lat="44.7554733" lon="9.6397817"><ele>862.8333333333334</ele><time>2026-05-01T15:13:28.996Z</time></trkpt><trkpt lat="44.7555467" lon="9.639805"><ele>861.6666666666667</ele><time>2026-05-01T15:13:29.996Z</time></trkpt><trkpt lat="44.755615" lon="9.6398333"><ele>860.5</ele><time>2026-05-01T15:13:30.996Z</time></trkpt><trkpt lat="44.7556883" lon="9.63986"><ele>859.3333333333334</ele><time>2026-05-01T15:13:31.996Z</time></trkpt><trkpt lat="44.7557683" lon="9.639885"><ele>858.1666666666667</ele><time>2026-05-01T15:13:32.996Z</time></trkpt><trkpt lat="44.75585" lon="9.639905"><ele>857.0</ele><time>2026-05-01T15:13:33.997Z</time></trkpt><trkpt lat="44.7559283" lon="9.6399183"><ele>857.0000000000001</ele><time>2026-05-01T15:13:34.997Z</time></trkpt><trkpt lat="44.7560067" lon="9.6399383"><ele>857.0</ele><time>2026-05-01T15:13:35.996Z</time></trkpt><trkpt lat="44.7560817" lon="9.6399633"><ele>857.0</ele><time>2026-05-01T15:13:36.998Z</time></trkpt><trkpt lat="44.7561483" lon="9.64"><ele>857.0</ele><time>2026-05-01T15:13:37.996Z</time></trkpt><trkpt lat="44.75621" lon="9.6400467"><ele>857.0000000000001</ele><time>2026-05-01T15:13:38.996Z</time></trkpt><trkpt lat="44.7562633" lon="9.640095"><ele>857.0</ele><time>2026-05-01T15:13:39.997Z</time></trkpt><trkpt lat="44.7563533" lon="9.6402067"><ele>856.2857142857142</ele><time>2026-05-01T15:13:41.996Z</time></trkpt><trkpt lat="44.7564033" lon="9.6402733"><ele>855.5714285714286</ele><time>2026-05-01T15:13:42.998Z</time></trkpt><trkpt lat="44.756455" lon="9.64034"><ele>854.8571428571429</ele><time>2026-05-01T15:13:43.995Z</time></trkpt><trkpt lat="44.7565067" lon="9.6404083"><ele>854.1428571428571</ele><time>2026-05-01T15:13:44.997Z</time></trkpt><trkpt lat="44.7565567" lon="9.64048"><ele>853.4285714285714</ele><time>2026-05-01T15:13:45.996Z</time></trkpt><trkpt lat="44.75661" lon="9.6405517"><ele>852.7142857142857</ele><time>2026-05-01T15:13:46.996Z</time></trkpt><trkpt lat="44.7566667" lon="9.6406267"><ele>852.0</ele><time>2026-05-01T15:13:47.997Z</time></trkpt><trkpt lat="44.7567217" lon="9.6407033"><ele>851.8333333333334</ele><time>2026-05-01T15:13:48.997Z</time></trkpt><trkpt lat="44.7567767" lon="9.6407817"><ele>851.6666666666667</ele><time>2026-05-01T15:13:49.996Z</time></trkpt><trkpt lat="44.75683" lon="9.6408583"><ele>851.5</ele><time>2026-05-01T15:13:50.996Z</time></trkpt><trkpt lat="44.7568833" lon="9.6409317"><ele>851.3333333333334</ele><time>2026-05-01T15:13:51.996Z</time></trkpt><trkpt lat="44.75694" lon="9.641005"><ele>851.1666666666667</ele><time>2026-05-01T15:13:52.996Z</time></trkpt><trkpt lat="44.7570033" lon="9.6410833"><ele>851.0</ele><time>2026-05-01T15:13:53.995Z</time></trkpt><trkpt lat="44.7570667" lon="9.6411633"><ele>849.1666666666667</ele><time>2026-05-01T15:13:54.996Z</time></trkpt><trkpt lat="44.75713" lon="9.6412433"><ele>847.3333333333334</ele><time>2026-05-01T15:13:55.997Z</time></trkpt><trkpt lat="44.7571883" lon="9.6413283"><ele>845.5</ele><time>2026-05-01T15:13:56.997Z</time></trkpt><trkpt lat="44.7572417" lon="9.64142"><ele>843.6666666666667</ele><time>2026-05-01T15:13:57.997Z</time></trkpt><trkpt lat="44.75729" lon="9.641515"><ele>841.8333333333334</ele><time>2026-05-01T15:13:58.997Z</time></trkpt><trkpt lat="44.7573417" lon="9.6416133"><ele>840.0</ele><time>2026-05-01T15:13:59.997Z</time></trkpt><trkpt lat="44.7573933" lon="9.641715"><ele>840.0</ele><time>2026-05-01T15:14:00.998Z</time></trkpt><trkpt lat="44.7574467" lon="9.6418167"><ele>840.0</ele><time>2026-05-01T15:14:01.996Z</time></trkpt><trkpt lat="44.7575017" lon="9.6419133"><ele>840.0</ele><time>2026-05-01T15:14:02.997Z</time></trkpt><trkpt lat="44.75756" lon="9.6420133"><ele>840.0</ele><time>2026-05-01T15:14:03.996Z</time></trkpt><trkpt lat="44.757615" lon="9.6421133"><ele>840.0</ele><time>2026-05-01T15:14:04.996Z</time></trkpt><trkpt lat="44.7576667" lon="9.6422067"><ele>840.0</ele><time>2026-05-01T15:14:05.996Z</time></trkpt><trkpt lat="44.75772" lon="9.6423017"><ele>840.3333333333334</ele><time>2026-05-01T15:14:06.996Z</time></trkpt><trkpt lat="44.7577733" lon="9.642395"><ele>840.6666666666667</ele><time>2026-05-01T15:14:07.996Z</time></trkpt><trkpt lat="44.7578267" lon="9.642485"><ele>841.0</ele><time>2026-05-01T15:14:08.996Z</time></trkpt><trkpt lat="44.7578883" lon="9.6425717"><ele>841.3333333333334</ele><time>2026-05-01T15:14:09.997Z</time></trkpt><trkpt lat="44.7579567" lon="9.6426583"><ele>841.6666666666667</ele><time>2026-05-01T15:14:10.997Z</time></trkpt><trkpt lat="44.7580267" lon="9.6427383"><ele>842.0</ele><time>2026-05-01T15:14:11.997Z</time></trkpt><trkpt lat="44.7581" lon="9.6428133"><ele>842.0000000000001</ele><time>2026-05-01T15:14:12.997Z</time></trkpt><trkpt lat="44.7581683" lon="9.6428817"><ele>842.0</ele><time>2026-05-01T15:14:13.997Z</time></trkpt><trkpt lat="44.7582367" lon="9.6429417"><ele>842.0</ele><time>2026-05-01T15:14:14.998Z</time></trkpt><trkpt lat="44.7583083" lon="9.643"><ele>842.0</ele><time>2026-05-01T15:14:15.996Z</time></trkpt><trkpt lat="44.7583867" lon="9.6430667"><ele>842.0000000000001</ele><time>2026-05-01T15:14:16.997Z</time></trkpt><trkpt lat="44.7584733" lon="9.643135"><ele>842.0</ele><time>2026-05-01T15:14:17.996Z</time></trkpt><trkpt lat="44.75856" lon="9.6431983"><ele>841.2</ele><time>2026-05-01T15:14:18.996Z</time></trkpt><trkpt lat="44.75865" lon="9.643255"><ele>840.4000000000001</ele><time>2026-05-01T15:14:19.996Z</time></trkpt><trkpt lat="44.7587333" lon="9.6433117"><ele>839.5999999999999</ele><time>2026-05-01T15:14:20.998Z</time></trkpt><trkpt lat="44.7588167" lon="9.6433717"><ele>838.8</ele><time>2026-05-01T15:14:21.998Z</time></trkpt><trkpt lat="44.7589" lon="9.6434317"><ele>838.0</ele><time>2026-05-01T15:14:22.997Z</time></trkpt><trkpt lat="44.7589817" lon="9.6434867"><ele>837.9999999999999</ele><time>2026-05-01T15:14:23.997Z</time></trkpt><trkpt lat="44.7590633" lon="9.6435333"><ele>838.0</ele><time>2026-05-01T15:14:24.996Z</time></trkpt><trkpt lat="44.7591367" lon="9.6435783"><ele>838.0</ele><time>2026-05-01T15:14:25.996Z</time></trkpt><trkpt lat="44.75921" lon="9.6436217"><ele>838.0</ele><time>2026-05-01T15:14:26.997Z</time></trkpt><trkpt lat="44.7592917" lon="9.6436567"><ele>837.9999999999999</ele><time>2026-05-01T15:14:27.998Z</time></trkpt><trkpt lat="44.75938" lon="9.64367"><ele>838.0</ele><time>2026-05-01T15:14:28.996Z</time></trkpt><trkpt lat="44.7594717" lon="9.64366"><ele>837.8</ele><time>2026-05-01T15:14:29.996Z</time></trkpt><trkpt lat="44.7595667" lon="9.6436267"><ele>837.5999999999999</ele><time>2026-05-01T15:14:30.996Z</time></trkpt><trkpt lat="44.7596617" lon="9.6435867"><ele>837.4000000000001</ele><time>2026-05-01T15:14:31.998Z</time></trkpt><trkpt lat="44.7597567" lon="9.6435517"><ele>837.2</ele><time>2026-05-01T15:14:32.998Z</time></trkpt><trkpt lat="44.75985" lon="9.6435267"><ele>837.0</ele><time>2026-05-01T15:14:33.998Z</time></trkpt><trkpt lat="44.7599467" lon="9.6435083"><ele>837.0</ele><time>2026-05-01T15:14:34.997Z</time></trkpt><trkpt lat="44.7600467" lon="9.643495"><ele>837.0</ele><time>2026-05-01T15:14:35.997Z</time></trkpt><trkpt lat="44.7601483" lon="9.6434867"><ele>837.0</ele><time>2026-05-01T15:14:36.997Z</time></trkpt><trkpt lat="44.7602483" lon="9.6434817"><ele>837.0</ele><time>2026-05-01T15:14:37.998Z</time></trkpt><trkpt lat="44.7603467" lon="9.64348"><ele>837.0</ele><time>2026-05-01T15:14:39.076Z</time></trkpt><trkpt lat="44.7604367" lon="9.6434867"><ele>837.8</ele><time>2026-05-01T15:14:39.997Z</time></trkpt><trkpt lat="44.7605317" lon="9.6435067"><ele>838.6</ele><time>2026-05-01T15:14:40.997Z</time></trkpt><trkpt lat="44.76064" lon="9.6435267"><ele>839.4</ele><time>2026-05-01T15:14:41.997Z</time></trkpt><trkpt lat="44.76075" lon="9.64354"><ele>840.1999999999999</ele><time>2026-05-01T15:14:42.997Z</time></trkpt><trkpt lat="44.7608617" lon="9.6435533"><ele>841.0</ele><time>2026-05-01T15:14:43.996Z</time></trkpt><trkpt lat="44.7609683" lon="9.643575"><ele>843.4</ele><time>2026-05-01T15:14:44.998Z</time></trkpt><trkpt lat="44.7610717" lon="9.6436033"><ele>845.8</ele><time>2026-05-01T15:14:45.996Z</time></trkpt><trkpt lat="44.7611717" lon="9.6436317"><ele>848.1999999999999</ele><time>2026-05-01T15:14:46.997Z</time></trkpt><trkpt lat="44.761265" lon="9.6436617"><ele>850.5999999999999</ele><time>2026-05-01T15:14:47.997Z</time></trkpt><trkpt lat="44.76135" lon="9.6436917"><ele>853.0</ele><time>2026-05-01T15:14:48.997Z</time></trkpt><trkpt lat="44.7614283" lon="9.6437"><ele>852.9999999999999</ele><time>2026-05-01T15:14:49.996Z</time></trkpt><trkpt lat="44.7615067" lon="9.6436933"><ele>853.0</ele><time>2026-05-01T15:14:50.997Z</time></trkpt><trkpt lat="44.7615833" lon="9.6436833"><ele>853.0</ele><time>2026-05-01T15:14:51.996Z</time></trkpt><trkpt lat="44.7616503" lon="9.6436703"><ele>853.0</ele><time>2026-05-01T15:14:52.997Z</time></trkpt><trkpt lat="44.761734" lon="9.6435987"><ele>852.9999999999999</ele><time>2026-05-01T15:14:54.997Z</time></trkpt><trkpt lat="44.7617886" lon="9.6434705"><ele>853.0</ele><time>2026-05-01T15:14:56.996Z</time></trkpt><trkpt lat="44.7618242" lon="9.6433828"><ele>854.4</ele><time>2026-05-01T15:14:57.996Z</time></trkpt><trkpt lat="44.7618664" lon="9.6432889"><ele>855.8</ele><time>2026-05-01T15:14:58.997Z</time></trkpt><trkpt lat="44.7619174" lon="9.6431958"><ele>857.2</ele><time>2026-05-01T15:14:59.996Z</time></trkpt><trkpt lat="44.7619836" lon="9.6431218"><ele>858.6</ele><time>2026-05-01T15:15:00.997Z</time></trkpt><trkpt lat="44.762065" lon="9.6430537"><ele>860.0</ele><time>2026-05-01T15:15:01.996Z</time></trkpt><trkpt lat="44.7621658" lon="9.64299"><ele>860.0</ele><time>2026-05-01T15:15:02.997Z</time></trkpt><trkpt lat="44.7622714" lon="9.6429342"><ele>860.0</ele><time>2026-05-01T15:15:03.996Z</time></trkpt><trkpt lat="44.7623767" lon="9.6428895"><ele>860.0</ele><time>2026-05-01T15:15:04.996Z</time></trkpt><trkpt lat="44.7624837" lon="9.6428562"><ele>860.0</ele><time>2026-05-01T15:15:05.996Z</time></trkpt><trkpt lat="44.7625905" lon="9.6428296"><ele>860.0</ele><time>2026-05-01T15:15:06.997Z</time></trkpt><trkpt lat="44.762698" lon="9.642817"><ele>861.8</ele><time>2026-05-01T15:15:07.996Z</time></trkpt><trkpt lat="44.7628044" lon="9.6427988"><ele>863.6</ele><time>2026-05-01T15:15:08.997Z</time></trkpt><trkpt lat="44.7629052" lon="9.6427689"><ele>865.4000000000001</ele><time>2026-05-01T15:15:09.996Z</time></trkpt><trkpt lat="44.762997" lon="9.6427129"><ele>867.2</ele><time>2026-05-01T15:15:10.998Z</time></trkpt><trkpt lat="44.7630828" lon="9.6426282"><ele>869.0</ele><time>2026-05-01T15:15:11.996Z</time></trkpt><trkpt lat="44.7631672" lon="9.6425238"><ele>862.8000000000001</ele><time>2026-05-01T15:15:12.996Z</time></trkpt><trkpt lat="44.7632502" lon="9.6424208"><ele>856.6000000000001</ele><time>2026-05-01T15:15:13.996Z</time></trkpt><trkpt lat="44.7633278" lon="9.6423222"><ele>850.4</ele><time>2026-05-01T15:15:14.997Z</time></trkpt><trkpt lat="44.7633901" lon="9.6422228"><ele>844.2</ele><time>2026-05-01T15:15:15.997Z</time></trkpt><trkpt lat="44.7634369" lon="9.6421258"><ele>838.0</ele><time>2026-05-01T15:15:16.996Z</time></trkpt><trkpt lat="44.7634808" lon="9.6420308"><ele>836.2</ele><time>2026-05-01T15:15:17.998Z</time></trkpt><trkpt lat="44.763532" lon="9.6419399"><ele>834.4</ele><time>2026-05-01T15:15:18.997Z</time></trkpt><trkpt lat="44.7635976" lon="9.6418555"><ele>832.6</ele><time>2026-05-01T15:15:19.997Z</time></trkpt><trkpt lat="44.7636816" lon="9.6417814"><ele>830.8000000000001</ele><time>2026-05-01T15:15:20.996Z</time></trkpt><trkpt lat="44.7637759" lon="9.6417068"><ele>829.0</ele><time>2026-05-01T15:15:21.997Z</time></trkpt><trkpt lat="44.7638715" lon="9.64163"><ele>828.9999999999999</ele><time>2026-05-01T15:15:22.996Z</time></trkpt><trkpt lat="44.7639616" lon="9.6415554"><ele>829.0</ele><time>2026-05-01T15:15:23.997Z</time></trkpt><trkpt lat="44.764042" lon="9.6414844"><ele>829.0</ele><time>2026-05-01T15:15:24.996Z</time></trkpt><trkpt lat="44.7641175" lon="9.6414247"><ele>829.0</ele><time>2026-05-01T15:15:25.996Z</time></trkpt><trkpt lat="44.7641933" lon="9.6413869"><ele>828.9999999999999</ele><time>2026-05-01T15:15:26.998Z</time></trkpt><trkpt lat="44.7642699" lon="9.6413818"><ele>829.0</ele><time>2026-05-01T15:15:27.996Z</time></trkpt><trkpt lat="44.7643551" lon="9.6414139"><ele>827.25</ele><time>2026-05-01T15:15:28.997Z</time></trkpt><trkpt lat="44.7644496" lon="9.6414592"><ele>825.5</ele><time>2026-05-01T15:15:29.996Z</time></trkpt><trkpt lat="44.7645603" lon="9.6415052"><ele>823.75</ele><time>2026-05-01T15:15:30.996Z</time></trkpt><trkpt lat="44.7646794" lon="9.6415317"><ele>822.0</ele><time>2026-05-01T15:15:31.996Z</time></trkpt><trkpt lat="44.7647985" lon="9.6415377"><ele>822.0</ele><time>2026-05-01T15:15:32.996Z</time></trkpt><trkpt lat="44.7649172" lon="9.6415373"><ele>822.0</ele><time>2026-05-01T15:15:33.996Z</time></trkpt><trkpt lat="44.7650355" lon="9.6415498"><ele>822.0</ele><time>2026-05-01T15:15:34.997Z</time></trkpt><trkpt lat="44.7651552" lon="9.6415808"><ele>822.0</ele><time>2026-05-01T15:15:35.996Z</time></trkpt><trkpt lat="44.7652731" lon="9.6416274"><ele>820.0</ele><time>2026-05-01T15:15:36.997Z</time></trkpt><trkpt lat="44.7653851" lon="9.6416816"><ele>818.0</ele><time>2026-05-01T15:15:37.997Z</time></trkpt><trkpt lat="44.7654927" lon="9.6417384"><ele>816.0</ele><time>2026-05-01T15:15:38.999Z</time></trkpt><trkpt lat="44.7655933" lon="9.6417972"><ele>814.0</ele><time>2026-05-01T15:15:39.998Z</time></trkpt><trkpt lat="44.7656873" lon="9.6418604"><ele>812.0</ele><time>2026-05-01T15:15:40.998Z</time></trkpt><trkpt lat="44.7657758" lon="9.6419301"><ele>813.2</ele><time>2026-05-01T15:15:41.999Z</time></trkpt><trkpt lat="44.7658562" lon="9.6420091"><ele>814.4000000000001</ele><time>2026-05-01T15:15:42.999Z</time></trkpt><trkpt lat="44.7659327" lon="9.6420959"><ele>815.5999999999999</ele><time>2026-05-01T15:15:43.999Z</time></trkpt><trkpt lat="44.7660128" lon="9.6421836"><ele>816.8</ele><time>2026-05-01T15:15:45Z</time></trkpt><trkpt lat="44.7660963" lon="9.642265"><ele>818.0</ele><time>2026-05-01T15:15:45.997Z</time></trkpt><trkpt lat="44.7661817" lon="9.6423405"><ele>818.0</ele><time>2026-05-01T15:15:46.997Z</time></trkpt><trkpt lat="44.7662668" lon="9.6424105"><ele>818.0</ele><time>2026-05-01T15:15:47.997Z</time></trkpt><trkpt lat="44.7663547" lon="9.6424729"><ele>818.0</ele><time>2026-05-01T15:15:48.996Z</time></trkpt><trkpt lat="44.766442" lon="9.6425295"><ele>818.0</ele><time>2026-05-01T15:15:49.998Z</time></trkpt><trkpt lat="44.766523" lon="9.6425826"><ele>818.0</ele><time>2026-05-01T15:15:50.997Z</time></trkpt><trkpt lat="44.766598" lon="9.642641"><ele>818.0000000000001</ele><time>2026-05-01T15:15:51.996Z</time></trkpt><trkpt lat="44.766664" lon="9.6427105"><ele>818.0</ele><time>2026-05-01T15:15:52.997Z</time></trkpt><trkpt lat="44.7667148" lon="9.642789"><ele>818.0</ele><time>2026-05-01T15:15:53.996Z</time></trkpt><trkpt lat="44.7667463" lon="9.6428755"><ele>818.0</ele><time>2026-05-01T15:15:54.996Z</time></trkpt><trkpt lat="44.766759" lon="9.6429786"><ele>818.0000000000001</ele><time>2026-05-01T15:15:55.997Z</time></trkpt><trkpt lat="44.7667534" lon="9.6430973"><ele>818.0</ele><time>2026-05-01T15:15:56.997Z</time></trkpt><trkpt lat="44.7667368" lon="9.6432194"><ele>818.4</ele><time>2026-05-01T15:15:57.997Z</time></trkpt><trkpt lat="44.7667056" lon="9.6433456"><ele>818.8</ele><time>2026-05-01T15:15:58.998Z</time></trkpt><trkpt lat="44.7666631" lon="9.6434827"><ele>819.2</ele><time>2026-05-01T15:15:59.996Z</time></trkpt><trkpt lat="44.7666137" lon="9.6436325"><ele>819.6</ele><time>2026-05-01T15:16:00.996Z</time></trkpt><trkpt lat="44.7665667" lon="9.6437909"><ele>820.0</ele><time>2026-05-01T15:16:01.996Z</time></trkpt><trkpt lat="44.7665283" lon="9.6439521"><ele>818.5</ele><time>2026-05-01T15:16:02.997Z</time></trkpt><trkpt lat="44.7665004" lon="9.6441133"><ele>817.0</ele><time>2026-05-01T15:16:03.996Z</time></trkpt><trkpt lat="44.7664815" lon="9.6442741"><ele>815.5</ele><time>2026-05-01T15:16:04.998Z</time></trkpt><trkpt lat="44.7664729" lon="9.6444383"><ele>814.0</ele><time>2026-05-01T15:16:05.999Z</time></trkpt><trkpt lat="44.7664717" lon="9.6446087"><ele>813.5</ele><time>2026-05-01T15:16:06.996Z</time></trkpt><trkpt lat="44.7664709" lon="9.6447794"><ele>813.0</ele><time>2026-05-01T15:16:07.997Z</time></trkpt><trkpt lat="44.7664669" lon="9.6449511"><ele>812.5</ele><time>2026-05-01T15:16:08.998Z</time></trkpt><trkpt lat="44.7664604" lon="9.6451156"><ele>812.0</ele><time>2026-05-01T15:16:09.996Z</time></trkpt><trkpt lat="44.7664588" lon="9.6452715"><ele>811.8</ele><time>2026-05-01T15:16:10.997Z</time></trkpt><trkpt lat="44.7664633" lon="9.6454187"><ele>811.6</ele><time>2026-05-01T15:16:11.996Z</time></trkpt><trkpt lat="44.7664808" lon="9.6455561"><ele>811.4</ele><time>2026-05-01T15:16:13Z</time></trkpt><trkpt lat="44.7665075" lon="9.6456819"><ele>811.1999999999999</ele><time>2026-05-01T15:16:13.998Z</time></trkpt><trkpt lat="44.7665352" lon="9.6458003"><ele>811.0</ele><time>2026-05-01T15:16:14.996Z</time></trkpt><trkpt lat="44.7665572" lon="9.6459159"><ele>810.9999999999999</ele><time>2026-05-01T15:16:15.997Z</time></trkpt><trkpt lat="44.7665666" lon="9.6460291"><ele>811.0</ele><time>2026-05-01T15:16:16.996Z</time></trkpt><trkpt lat="44.766554" lon="9.6461399"><ele>811.0</ele><time>2026-05-01T15:16:17.998Z</time></trkpt><trkpt lat="44.7665275" lon="9.6462496"><ele>811.0</ele><time>2026-05-01T15:16:18.996Z</time></trkpt><trkpt lat="44.766493" lon="9.6463703"><ele>810.9999999999999</ele><time>2026-05-01T15:16:19.996Z</time></trkpt><trkpt lat="44.7664615" lon="9.6465019"><ele>811.0</ele><time>2026-05-01T15:16:20.997Z</time></trkpt><trkpt lat="44.7664414" lon="9.6466335"><ele>810.4999999999999</ele><time>2026-05-01T15:16:21.997Z</time></trkpt><trkpt lat="44.766431" lon="9.6467581"><ele>810.0</ele><time>2026-05-01T15:16:22.996Z</time></trkpt><trkpt lat="44.7664283" lon="9.6468766"><ele>809.5</ele><time>2026-05-01T15:16:23.997Z</time></trkpt><trkpt lat="44.7664305" lon="9.6469941"><ele>809.0</ele><time>2026-05-01T15:16:25Z</time></trkpt><trkpt lat="44.7664454" lon="9.6471053"><ele>808.4999999999999</ele><time>2026-05-01T15:16:25.999Z</time></trkpt><trkpt lat="44.7664754" lon="9.6472136"><ele>808.0</ele><time>2026-05-01T15:16:26.999Z</time></trkpt><trkpt lat="44.7665202" lon="9.6473212"><ele>807.75</ele><time>2026-05-01T15:16:27.997Z</time></trkpt><trkpt lat="44.7665868" lon="9.6474301"><ele>807.5</ele><time>2026-05-01T15:16:29.001Z</time></trkpt><trkpt lat="44.7666833" lon="9.64754"><ele>807.25</ele><time>2026-05-01T15:16:29.997Z</time></trkpt><trkpt lat="44.7667733" lon="9.6476433"><ele>807.0</ele><time>2026-05-01T15:16:30.996Z</time></trkpt><trkpt lat="44.76686" lon="9.6477417"><ele>804.6</ele><time>2026-05-01T15:16:31.998Z</time></trkpt><trkpt lat="44.7669433" lon="9.6478317"><ele>802.2</ele><time>2026-05-01T15:16:32.997Z</time></trkpt><trkpt lat="44.7670233" lon="9.64791"><ele>799.8</ele><time>2026-05-01T15:16:33.996Z</time></trkpt><trkpt lat="44.7670967" lon="9.6479783"><ele>797.4</ele><time>2026-05-01T15:16:34.996Z</time></trkpt><trkpt lat="44.7671683" lon="9.6480467"><ele>795.0</ele><time>2026-05-01T15:16:35.997Z</time></trkpt><trkpt lat="44.7672367" lon="9.648105"><ele>795.0</ele><time>2026-05-01T15:16:36.996Z</time></trkpt><trkpt lat="44.7673" lon="9.648175"><ele>795.0</ele><time>2026-05-01T15:16:37.999Z</time></trkpt><trkpt lat="44.767355" lon="9.6482417"><ele>795.0</ele><time>2026-05-01T15:16:38.997Z</time></trkpt><trkpt lat="44.76739" lon="9.64832"><ele>795.0</ele><time>2026-05-01T15:16:39.996Z</time></trkpt><trkpt lat="44.7674083" lon="9.6484883"><ele>795.0</ele><time>2026-05-01T15:16:41.997Z</time></trkpt><trkpt lat="44.7673933" lon="9.64858"><ele>795.0</ele><time>2026-05-01T15:16:42.996Z</time></trkpt><trkpt lat="44.767365" lon="9.648675"><ele>792.6</ele><time>2026-05-01T15:16:43.996Z</time></trkpt><trkpt lat="44.767315" lon="9.6487683"><ele>790.2</ele><time>2026-05-01T15:16:44.998Z</time></trkpt><trkpt lat="44.7672533" lon="9.648855"><ele>787.8</ele><time>2026-05-01T15:16:45.996Z</time></trkpt><trkpt lat="44.767185" lon="9.6489417"><ele>785.4</ele><time>2026-05-01T15:16:46.996Z</time></trkpt><trkpt lat="44.767105" lon="9.6490333"><ele>783.0</ele><time>2026-05-01T15:16:47.998Z</time></trkpt><trkpt lat="44.767015" lon="9.6491317"><ele>783.0</ele><time>2026-05-01T15:16:48.997Z</time></trkpt><trkpt lat="44.76692" lon="9.6492367"><ele>783.0</ele><time>2026-05-01T15:16:49.998Z</time></trkpt><trkpt lat="44.766825" lon="9.6493483"><ele>783.0</ele><time>2026-05-01T15:16:50.998Z</time></trkpt><trkpt lat="44.766735" lon="9.6494567"><ele>783.0</ele><time>2026-05-01T15:16:51.996Z</time></trkpt><trkpt lat="44.7666467" lon="9.6495617"><ele>782.4</ele><time>2026-05-01T15:16:52.997Z</time></trkpt><trkpt lat="44.766565" lon="9.6496617"><ele>781.8</ele><time>2026-05-01T15:16:53.998Z</time></trkpt><trkpt lat="44.7664867" lon="9.6497583"><ele>781.2</ele><time>2026-05-01T15:16:54.997Z</time></trkpt><trkpt lat="44.7664117" lon="9.6498517"><ele>780.6</ele><time>2026-05-01T15:16:55.998Z</time></trkpt><trkpt lat="44.7663417" lon="9.6499367"><ele>780.0</ele><time>2026-05-01T15:16:56.999Z</time></trkpt><trkpt lat="44.76627" lon="9.6500217"><ele>780.0</ele><time>2026-05-01T15:16:57.998Z</time></trkpt><trkpt lat="44.766195" lon="9.6501"><ele>780.0</ele><time>2026-05-01T15:16:58.998Z</time></trkpt><trkpt lat="44.766115" lon="9.650165"><ele>780.0</ele><time>2026-05-01T15:16:59.996Z</time></trkpt><trkpt lat="44.766035" lon="9.6502233"><ele>780.0</ele><time>2026-05-01T15:17:00.996Z</time></trkpt><trkpt lat="44.765955" lon="9.6502783"><ele>780.0</ele><time>2026-05-01T15:17:01.999Z</time></trkpt><trkpt lat="44.7658817" lon="9.6503317"><ele>780.0</ele><time>2026-05-01T15:17:02.998Z</time></trkpt><trkpt lat="44.7658167" lon="9.6503933"><ele>779.2</ele><time>2026-05-01T15:17:04Z</time></trkpt><trkpt lat="44.7657667" lon="9.6504583"><ele>778.4</ele><time>2026-05-01T15:17:05Z</time></trkpt><trkpt lat="44.7657283" lon="9.6505317"><ele>777.5999999999999</ele><time>2026-05-01T15:17:05.999Z</time></trkpt><trkpt lat="44.7657017" lon="9.6506983"><ele>776.8</ele><time>2026-05-01T15:17:07.998Z</time></trkpt><trkpt lat="44.765765" lon="9.6508267"><ele>776.0</ele><time>2026-05-01T15:17:10Z</time></trkpt><trkpt lat="44.7658683" lon="9.65087"><ele>776.0000000000001</ele><time>2026-05-01T15:17:11.996Z</time></trkpt><trkpt lat="44.7659467" lon="9.6508567"><ele>776.0</ele><time>2026-05-01T15:17:14Z</time></trkpt><trkpt lat="44.766015" lon="9.6507833"><ele>776.0</ele><time>2026-05-01T15:17:15.996Z</time></trkpt><trkpt lat="44.7660877" lon="9.6506844"><ele>776.0</ele><time>2026-05-01T15:17:17.997Z</time></trkpt><trkpt lat="44.7661481" lon="9.6506206"><ele>776.0000000000001</ele><time>2026-05-01T15:17:21.081Z</time></trkpt><trkpt lat="44.7662001" lon="9.6505671"><ele>776.0</ele><time>2026-05-01T15:17:24.989Z</time></trkpt><trkpt lat="44.7663" lon="9.65053"><ele>774.4</ele><time>2026-05-01T15:17:41.996Z</time></trkpt><trkpt lat="44.7663717" lon="9.650505"><ele>772.8</ele><time>2026-05-01T15:17:42.996Z</time></trkpt><trkpt lat="44.76646" lon="9.650495"><ele>771.1999999999999</ele><time>2026-05-01T15:17:43.997Z</time></trkpt><trkpt lat="44.76656" lon="9.6504917"><ele>769.5999999999999</ele><time>2026-05-01T15:17:44.997Z</time></trkpt><trkpt lat="44.7666667" lon="9.6504917"><ele>768.0</ele><time>2026-05-01T15:17:45.997Z</time></trkpt><trkpt lat="44.7667817" lon="9.6504817"><ele>765.75</ele><time>2026-05-01T15:17:46.996Z</time></trkpt><trkpt lat="44.7668933" lon="9.6504633"><ele>763.5</ele><time>2026-05-01T15:17:47.997Z</time></trkpt><trkpt lat="44.767005" lon="9.6504283"><ele>761.25</ele><time>2026-05-01T15:17:48.997Z</time></trkpt><trkpt lat="44.76712" lon="9.650375"><ele>759.0</ele><time>2026-05-01T15:17:49.997Z</time></trkpt><trkpt lat="44.7672333" lon="9.6503083"><ele>758.75</ele><time>2026-05-01T15:17:50.997Z</time></trkpt><trkpt lat="44.7673467" lon="9.6502283"><ele>758.5</ele><time>2026-05-01T15:17:51.997Z</time></trkpt><trkpt lat="44.7674667" lon="9.65014"><ele>758.25</ele><time>2026-05-01T15:17:52.997Z</time></trkpt><trkpt lat="44.7675883" lon="9.6500583"><ele>758.0</ele><time>2026-05-01T15:17:54Z</time></trkpt><trkpt lat="44.76771" lon="9.6499817"><ele>758.0</ele><time>2026-05-01T15:17:54.997Z</time></trkpt><trkpt lat="44.7678333" lon="9.6499083"><ele>758.0</ele><time>2026-05-01T15:17:55.996Z</time></trkpt><trkpt lat="44.7679567" lon="9.649835"><ele>758.0</ele><time>2026-05-01T15:17:56.998Z</time></trkpt><trkpt lat="44.76808" lon="9.6497633"><ele>758.0</ele><time>2026-05-01T15:17:57.998Z</time></trkpt><trkpt lat="44.7681983" lon="9.6496967"><ele>758.0</ele><time>2026-05-01T15:17:58.996Z</time></trkpt><trkpt lat="44.76831" lon="9.6496333"><ele>758.0</ele><time>2026-05-01T15:17:59.996Z</time></trkpt><trkpt lat="44.7684183" lon="9.6495883"><ele>758.0</ele><time>2026-05-01T15:18:00.997Z</time></trkpt><trkpt lat="44.7685317" lon="9.6495633"><ele>758.0</ele><time>2026-05-01T15:18:01.998Z</time></trkpt><trkpt lat="44.76865" lon="9.6495717"><ele>756.75</ele><time>2026-05-01T15:18:02.996Z</time></trkpt><trkpt lat="44.768765" lon="9.6496083"><ele>755.5</ele><time>2026-05-01T15:18:03.996Z</time></trkpt><trkpt lat="44.76888" lon="9.649665"><ele>754.25</ele><time>2026-05-01T15:18:04.996Z</time></trkpt><trkpt lat="44.7689867" lon="9.649735"><ele>753.0</ele><time>2026-05-01T15:18:05.998Z</time></trkpt><trkpt lat="44.7690917" lon="9.6497967"><ele>753.0</ele><time>2026-05-01T15:18:06.997Z</time></trkpt><trkpt lat="44.769195" lon="9.64984"><ele>753.0</ele><time>2026-05-01T15:18:07.999Z</time></trkpt><trkpt lat="44.76929" lon="9.649855"><ele>753.0</ele><time>2026-05-01T15:18:08.999Z</time></trkpt><trkpt lat="44.76939" lon="9.649835"><ele>753.0</ele><time>2026-05-01T15:18:09.999Z</time></trkpt><trkpt lat="44.7694883" lon="9.6497817"><ele>753.0</ele><time>2026-05-01T15:18:10.998Z</time></trkpt><trkpt lat="44.7695883" lon="9.6496983"><ele>751.5</ele><time>2026-05-01T15:18:11.998Z</time></trkpt><trkpt lat="44.7696933" lon="9.649585"><ele>750.0</ele><time>2026-05-01T15:18:12.998Z</time></trkpt><trkpt lat="44.7698017" lon="9.6494517"><ele>748.5</ele><time>2026-05-01T15:18:13.998Z</time></trkpt><trkpt lat="44.7699083" lon="9.64931"><ele>747.0</ele><time>2026-05-01T15:18:14.996Z</time></trkpt><trkpt lat="44.77002" lon="9.64918"><ele>747.0</ele><time>2026-05-01T15:18:15.997Z</time></trkpt><trkpt lat="44.77014" lon="9.64907"><ele>747.0</ele><time>2026-05-01T15:18:16.995Z</time></trkpt><trkpt lat="44.7702733" lon="9.6489833"><ele>747.0</ele><time>2026-05-01T15:18:17.995Z</time></trkpt><trkpt lat="44.770415" lon="9.64891"><ele>747.0</ele><time>2026-05-01T15:18:18.995Z</time></trkpt><trkpt lat="44.7705683" lon="9.6488367"><ele>742.3333333333334</ele><time>2026-05-01T15:18:19.996Z</time></trkpt><trkpt lat="44.7707333" lon="9.6487633"><ele>737.6666666666667</ele><time>2026-05-01T15:18:20.996Z</time></trkpt><trkpt lat="44.7708983" lon="9.6486983"><ele>733.0</ele><time>2026-05-01T15:18:22.001Z</time></trkpt><trkpt lat="44.7710617" lon="9.6486483"><ele>732.5</ele><time>2026-05-01T15:18:22.996Z</time></trkpt><trkpt lat="44.7712167" lon="9.6486033"><ele>732.0</ele><time>2026-05-01T15:18:23.997Z</time></trkpt><trkpt lat="44.7713567" lon="9.648555"><ele>731.5</ele><time>2026-05-01T15:18:24.996Z</time></trkpt><trkpt lat="44.7714817" lon="9.64848"><ele>731.0</ele><time>2026-05-01T15:18:25.996Z</time></trkpt><trkpt lat="44.7716017" lon="9.6483733"><ele>731.0</ele><time>2026-05-01T15:18:26.997Z</time></trkpt><trkpt lat="44.7717167" lon="9.648235"><ele>731.0</ele><time>2026-05-01T15:18:27.997Z</time></trkpt><trkpt lat="44.7718267" lon="9.648105"><ele>731.0</ele><time>2026-05-01T15:18:28.995Z</time></trkpt><trkpt lat="44.7719367" lon="9.64799"><ele>731.0</ele><time>2026-05-01T15:18:29.996Z</time></trkpt><trkpt lat="44.7720517" lon="9.6479017"><ele>728.75</ele><time>2026-05-01T15:18:30.995Z</time></trkpt><trkpt lat="44.7721683" lon="9.647835"><ele>726.5</ele><time>2026-05-01T15:18:31.995Z</time></trkpt><trkpt lat="44.77229" lon="9.6478083"><ele>724.25</ele><time>2026-05-01T15:18:32.996Z</time></trkpt><trkpt lat="44.7724183" lon="9.6478217"><ele>722.0</ele><time>2026-05-01T15:18:33.997Z</time></trkpt><trkpt lat="44.7725567" lon="9.6478633"><ele>721.0</ele><time>2026-05-01T15:18:34.999Z</time></trkpt><trkpt lat="44.7727033" lon="9.6479167"><ele>720.0</ele><time>2026-05-01T15:18:35.997Z</time></trkpt><trkpt lat="44.7728567" lon="9.6479683"><ele>719.0</ele><time>2026-05-01T15:18:36.997Z</time></trkpt><trkpt lat="44.7730167" lon="9.64802"><ele>719.0</ele><time>2026-05-01T15:18:37.995Z</time></trkpt><trkpt lat="44.7731817" lon="9.6480683"><ele>719.0</ele><time>2026-05-01T15:18:38.996Z</time></trkpt><trkpt lat="44.7733467" lon="9.64811"><ele>719.0</ele><time>2026-05-01T15:18:39.995Z</time></trkpt><trkpt lat="44.7735067" lon="9.648155"><ele>718.0</ele><time>2026-05-01T15:18:40.996Z</time></trkpt><trkpt lat="44.77366" lon="9.6482017"><ele>717.0</ele><time>2026-05-01T15:18:41.996Z</time></trkpt><trkpt lat="44.77381" lon="9.648255"><ele>716.0</ele><time>2026-05-01T15:18:42.998Z</time></trkpt><trkpt lat="44.7739567" lon="9.64831"><ele>716.0</ele><time>2026-05-01T15:18:43.996Z</time></trkpt><trkpt lat="44.774105" lon="9.64837"><ele>716.0</ele><time>2026-05-01T15:18:44.997Z</time></trkpt><trkpt lat="44.77425" lon="9.64843"><ele>716.0</ele><time>2026-05-01T15:18:45.997Z</time></trkpt><trkpt lat="44.7743867" lon="9.64849"><ele>716.0</ele><time>2026-05-01T15:18:46.997Z</time></trkpt><trkpt lat="44.7745217" lon="9.6485417"><ele>715.5</ele><time>2026-05-01T15:18:47.995Z</time></trkpt><trkpt lat="44.7746583" lon="9.6485817"><ele>715.0</ele><time>2026-05-01T15:18:48.995Z</time></trkpt><trkpt lat="44.774795" lon="9.6486133"><ele>714.5</ele><time>2026-05-01T15:18:49.996Z</time></trkpt><trkpt lat="44.774935" lon="9.6486417"><ele>714.0</ele><time>2026-05-01T15:18:50.996Z</time></trkpt><trkpt lat="44.7750717" lon="9.6486683"><ele>714.25</ele><time>2026-05-01T15:18:51.995Z</time></trkpt><trkpt lat="44.7752033" lon="9.6486983"><ele>714.5</ele><time>2026-05-01T15:18:52.997Z</time></trkpt><trkpt lat="44.7753283" lon="9.648725"><ele>714.75</ele><time>2026-05-01T15:18:53.996Z</time></trkpt><trkpt lat="44.775445" lon="9.6487467"><ele>715.0</ele><time>2026-05-01T15:18:54.996Z</time></trkpt><trkpt lat="44.775555" lon="9.6487567"><ele>715.0</ele><time>2026-05-01T15:18:55.997Z</time></trkpt><trkpt lat="44.7756517" lon="9.6487417"><ele>715.0</ele><time>2026-05-01T15:18:56.997Z</time></trkpt><trkpt lat="44.775735" lon="9.6486967"><ele>715.0</ele><time>2026-05-01T15:18:57.995Z</time></trkpt><trkpt lat="44.775805" lon="9.64862"><ele>715.0</ele><time>2026-05-01T15:18:58.996Z</time></trkpt><trkpt lat="44.7758633" lon="9.648515"><ele>715.0</ele><time>2026-05-01T15:18:59.996Z</time></trkpt><trkpt lat="44.775895" lon="9.6483767"><ele>715.25</ele><time>2026-05-01T15:19:00.996Z</time></trkpt><trkpt lat="44.77591" lon="9.6482267"><ele>715.5</ele><time>2026-05-01T15:19:01.997Z</time></trkpt><trkpt lat="44.7759283" lon="9.6480733"><ele>715.75</ele><time>2026-05-01T15:19:02.997Z</time></trkpt><trkpt lat="44.775955" lon="9.6479167"><ele>716.0</ele><time>2026-05-01T15:19:03.995Z</time></trkpt><trkpt lat="44.776" lon="9.6477583"><ele>717.25</ele><time>2026-05-01T15:19:04.997Z</time></trkpt><trkpt lat="44.776055" lon="9.6476117"><ele>718.5</ele><time>2026-05-01T15:19:05.997Z</time></trkpt><trkpt lat="44.7761217" lon="9.6474817"><ele>719.75</ele><time>2026-05-01T15:19:06.996Z</time></trkpt><trkpt lat="44.776205" lon="9.6473783"><ele>721.0</ele><time>2026-05-01T15:19:07.995Z</time></trkpt><trkpt lat="44.7763033" lon="9.6473"><ele>721.0</ele><time>2026-05-01T15:19:08.996Z</time></trkpt><trkpt lat="44.7764167" lon="9.647235"><ele>721.0</ele><time>2026-05-01T15:19:09.996Z</time></trkpt><trkpt lat="44.7765333" lon="9.6471767"><ele>721.0</ele><time>2026-05-01T15:19:10.997Z</time></trkpt><trkpt lat="44.7766467" lon="9.647125"><ele>721.0</ele><time>2026-05-01T15:19:11.995Z</time></trkpt><trkpt lat="44.7767567" lon="9.6470783"><ele>719.8</ele><time>2026-05-01T15:19:12.996Z</time></trkpt><trkpt lat="44.776865" lon="9.6470567"><ele>718.5999999999999</ele><time>2026-05-01T15:19:13.995Z</time></trkpt><trkpt lat="44.7769633" lon="9.6470733"><ele>717.4</ele><time>2026-05-01T15:19:15.001Z</time></trkpt><trkpt lat="44.7770483" lon="9.6471283"><ele>716.2</ele><time>2026-05-01T15:19:15.995Z</time></trkpt><trkpt lat="44.7771117" lon="9.647225"><ele>715.0</ele><time>2026-05-01T15:19:16.995Z</time></trkpt><trkpt lat="44.77716" lon="9.6473433"><ele>715.0</ele><time>2026-05-01T15:19:17.996Z</time></trkpt><trkpt lat="44.777215" lon="9.6474617"><ele>715.0</ele><time>2026-05-01T15:19:18.995Z</time></trkpt><trkpt lat="44.7772917" lon="9.6475633"><ele>715.0</ele><time>2026-05-01T15:19:19.996Z</time></trkpt><trkpt lat="44.7773933" lon="9.647645"><ele>715.0</ele><time>2026-05-01T15:19:20.998Z</time></trkpt><trkpt lat="44.777505" lon="9.6476983"><ele>715.0</ele><time>2026-05-01T15:19:21.995Z</time></trkpt><trkpt lat="44.7776183" lon="9.6477217"><ele>716.25</ele><time>2026-05-01T15:19:22.996Z</time></trkpt><trkpt lat="44.7777317" lon="9.6477117"><ele>717.5</ele><time>2026-05-01T15:19:23.996Z</time></trkpt><trkpt lat="44.77783" lon="9.6476717"><ele>718.75</ele><time>2026-05-01T15:19:24.995Z</time></trkpt><trkpt lat="44.7779317" lon="9.6475867"><ele>720.0</ele><time>2026-05-01T15:19:25.995Z</time></trkpt><trkpt lat="44.7780333" lon="9.6474717"><ele>720.0</ele><time>2026-05-01T15:19:26.996Z</time></trkpt><trkpt lat="44.77812" lon="9.6473117"><ele>720.0</ele><time>2026-05-01T15:19:27.995Z</time></trkpt><trkpt lat="44.7782" lon="9.6471467"><ele>720.0</ele><time>2026-05-01T15:19:28.996Z</time></trkpt><trkpt lat="44.77828" lon="9.646995"><ele>720.0</ele><time>2026-05-01T15:19:29.995Z</time></trkpt><trkpt lat="44.7783533" lon="9.6468533"><ele>719.0</ele><time>2026-05-01T15:19:30.996Z</time></trkpt><trkpt lat="44.7784267" lon="9.6467233"><ele>718.0</ele><time>2026-05-01T15:19:31.996Z</time></trkpt><trkpt lat="44.7785233" lon="9.6466267"><ele>717.0</ele><time>2026-05-01T15:19:32.997Z</time></trkpt><trkpt lat="44.7786333" lon="9.6465583"><ele>716.0</ele><time>2026-05-01T15:19:34Z</time></trkpt><trkpt lat="44.7787467" lon="9.6465183"><ele>716.0</ele><time>2026-05-01T15:19:34.996Z</time></trkpt><trkpt lat="44.778855" lon="9.646515"><ele>716.0</ele><time>2026-05-01T15:19:35.996Z</time></trkpt><trkpt lat="44.7789567" lon="9.6465417"><ele>716.0</ele><time>2026-05-01T15:19:36.997Z</time></trkpt><trkpt lat="44.7790583" lon="9.6465967"><ele>716.0</ele><time>2026-05-01T15:19:37.995Z</time></trkpt><trkpt lat="44.779155" lon="9.6466817"><ele>716.0</ele><time>2026-05-01T15:19:38.997Z</time></trkpt><trkpt lat="44.779255" lon="9.6467583"><ele>715.75</ele><time>2026-05-01T15:19:39.996Z</time></trkpt><trkpt lat="44.7793617" lon="9.6468117"><ele>715.5</ele><time>2026-05-01T15:19:40.997Z</time></trkpt><trkpt lat="44.7794767" lon="9.64683"><ele>715.25</ele><time>2026-05-01T15:19:41.996Z</time></trkpt><trkpt lat="44.77959" lon="9.6468117"><ele>715.0</ele><time>2026-05-01T15:19:42.996Z</time></trkpt><trkpt lat="44.7797" lon="9.6467567"><ele>715.0</ele><time>2026-05-01T15:19:43.997Z</time></trkpt><trkpt lat="44.779805" lon="9.6466633"><ele>715.0</ele><time>2026-05-01T15:19:44.996Z</time></trkpt><trkpt lat="44.7799083" lon="9.6465433"><ele>715.0</ele><time>2026-05-01T15:19:45.996Z</time></trkpt><trkpt lat="44.7800117" lon="9.64641"><ele>715.0</ele><time>2026-05-01T15:19:46.997Z</time></trkpt><trkpt lat="44.780105" lon="9.6462617"><ele>715.75</ele><time>2026-05-01T15:19:47.997Z</time></trkpt><trkpt lat="44.78019" lon="9.646095"><ele>716.5</ele><time>2026-05-01T15:19:48.996Z</time></trkpt><trkpt lat="44.780265" lon="9.64591"><ele>717.25</ele><time>2026-05-01T15:19:49.995Z</time></trkpt><trkpt lat="44.78033" lon="9.645725"><ele>718.0</ele><time>2026-05-01T15:19:50.996Z</time></trkpt><trkpt lat="44.7803867" lon="9.64555"><ele>718.0</ele><time>2026-05-01T15:19:51.996Z</time></trkpt><trkpt lat="44.780445" lon="9.6453917"><ele>718.0</ele><time>2026-05-01T15:19:52.996Z</time></trkpt><trkpt lat="44.7805083" lon="9.645245"><ele>718.0</ele><time>2026-05-01T15:19:53.995Z</time></trkpt><trkpt lat="44.7805783" lon="9.645125"><ele>718.0</ele><time>2026-05-01T15:19:54.996Z</time></trkpt><trkpt lat="44.7806617" lon="9.6450383"><ele>716.0</ele><time>2026-05-01T15:19:55.996Z</time></trkpt><trkpt lat="44.78076" lon="9.644985"><ele>714.0</ele><time>2026-05-01T15:19:56.997Z</time></trkpt><trkpt lat="44.7808817" lon="9.6449517"><ele>712.0</ele><time>2026-05-01T15:19:57.996Z</time></trkpt><trkpt lat="44.7810183" lon="9.6449217"><ele>710.0</ele><time>2026-05-01T15:19:58.997Z</time></trkpt><trkpt lat="44.781165" lon="9.6448917"><ele>710.0</ele><time>2026-05-01T15:19:59.997Z</time></trkpt><trkpt lat="44.78131" lon="9.6448633"><ele>710.0</ele><time>2026-05-01T15:20:00.995Z</time></trkpt><trkpt lat="44.7814483" lon="9.64484"><ele>710.0</ele><time>2026-05-01T15:20:01.995Z</time></trkpt><trkpt lat="44.7815817" lon="9.64481"><ele>710.0</ele><time>2026-05-01T15:20:02.997Z</time></trkpt><trkpt lat="44.78171" lon="9.644755"><ele>710.0</ele><time>2026-05-01T15:20:03.995Z</time></trkpt><trkpt lat="44.7818317" lon="9.6446733"><ele>710.0</ele><time>2026-05-01T15:20:04.996Z</time></trkpt><trkpt lat="44.78195" lon="9.6445783"><ele>710.0</ele><time>2026-05-01T15:20:05.995Z</time></trkpt><trkpt lat="44.7820633" lon="9.6444817"><ele>710.0</ele><time>2026-05-01T15:20:06.995Z</time></trkpt><trkpt lat="44.7821767" lon="9.6444017"><ele>707.0</ele><time>2026-05-01T15:20:07.997Z</time></trkpt><trkpt lat="44.7822917" lon="9.6443417"><ele>704.0</ele><time>2026-05-01T15:20:08.996Z</time></trkpt><trkpt lat="44.7824067" lon="9.6443233"><ele>701.0</ele><time>2026-05-01T15:20:09.996Z</time></trkpt><trkpt lat="44.7825117" lon="9.64435"><ele>698.0</ele><time>2026-05-01T15:20:10.996Z</time></trkpt><trkpt lat="44.78261" lon="9.6444117"><ele>698.25</ele><time>2026-05-01T15:20:11.997Z</time></trkpt><trkpt lat="44.7827167" lon="9.6444867"><ele>698.5</ele><time>2026-05-01T15:20:12.997Z</time></trkpt><trkpt lat="44.7828317" lon="9.6445433"><ele>698.75</ele><time>2026-05-01T15:20:13.997Z</time></trkpt><trkpt lat="44.78296" lon="9.6445667"><ele>699.0</ele><time>2026-05-01T15:20:14.996Z</time></trkpt><trkpt lat="44.78309" lon="9.6445583"><ele>699.0</ele><time>2026-05-01T15:20:15.997Z</time></trkpt><trkpt lat="44.7832167" lon="9.6445317"><ele>699.0</ele><time>2026-05-01T15:20:16.996Z</time></trkpt><trkpt lat="44.7833417" lon="9.6445017"><ele>699.0</ele><time>2026-05-01T15:20:17.996Z</time></trkpt><trkpt lat="44.78346" lon="9.6444817"><ele>699.0</ele><time>2026-05-01T15:20:18.997Z</time></trkpt><trkpt lat="44.783575" lon="9.6444767"><ele>698.5</ele><time>2026-05-01T15:20:19.995Z</time></trkpt><trkpt lat="44.7836933" lon="9.644495"><ele>698.0</ele><time>2026-05-01T15:20:20.997Z</time></trkpt><trkpt lat="44.783815" lon="9.64454"><ele>697.5</ele><time>2026-05-01T15:20:21.996Z</time></trkpt><trkpt lat="44.78394" lon="9.6446117"><ele>697.0</ele><time>2026-05-01T15:20:22.996Z</time></trkpt><trkpt lat="44.78407" lon="9.6446933"><ele>697.0</ele><time>2026-05-01T15:20:23.996Z</time></trkpt><trkpt lat="44.7841983" lon="9.6447783"><ele>697.0</ele><time>2026-05-01T15:20:24.998Z</time></trkpt><trkpt lat="44.784325" lon="9.6448617"><ele>697.0</ele><time>2026-05-01T15:20:25.995Z</time></trkpt><trkpt lat="44.7844483" lon="9.64494"><ele>697.0</ele><time>2026-05-01T15:20:26.998Z</time></trkpt><trkpt lat="44.7845683" lon="9.6450117"><ele>695.8</ele><time>2026-05-01T15:20:27.996Z</time></trkpt><trkpt lat="44.78468" lon="9.6450833"><ele>694.6</ele><time>2026-05-01T15:20:28.995Z</time></trkpt><trkpt lat="44.7847833" lon="9.64515"><ele>693.4</ele><time>2026-05-01T15:20:29.995Z</time></trkpt><trkpt lat="44.784875" lon="9.6452217"><ele>692.1999999999999</ele><time>2026-05-01T15:20:30.996Z</time></trkpt><trkpt lat="44.784955" lon="9.6453117"><ele>691.0</ele><time>2026-05-01T15:20:31.996Z</time></trkpt><trkpt lat="44.7850233" lon="9.645425"><ele>691.0</ele><time>2026-05-01T15:20:32.996Z</time></trkpt><trkpt lat="44.78508" lon="9.6455667"><ele>691.0</ele><time>2026-05-01T15:20:33.996Z</time></trkpt><trkpt lat="44.7851317" lon="9.6457233"><ele>691.0</ele><time>2026-05-01T15:20:34.996Z</time></trkpt><trkpt lat="44.7851833" lon="9.64588"><ele>691.0</ele><time>2026-05-01T15:20:35.997Z</time></trkpt><trkpt lat="44.7852367" lon="9.6460267"><ele>689.0</ele><time>2026-05-01T15:20:36.996Z</time></trkpt><trkpt lat="44.7853083" lon="9.6461433"><ele>687.0</ele><time>2026-05-01T15:20:37.996Z</time></trkpt><trkpt lat="44.7853867" lon="9.646235"><ele>685.0</ele><time>2026-05-01T15:20:38.997Z</time></trkpt><trkpt lat="44.7854617" lon="9.6462983"><ele>683.0</ele><time>2026-05-01T15:20:39.996Z</time></trkpt><trkpt lat="44.785525" lon="9.6463483"><ele>681.0</ele><time>2026-05-01T15:20:40.995Z</time></trkpt><trkpt lat="44.7856" lon="9.6464483"><ele>681.0</ele><time>2026-05-01T15:20:42.997Z</time></trkpt><trkpt lat="44.7855817" lon="9.64655"><ele>681.0</ele><time>2026-05-01T15:20:44.997Z</time></trkpt><trkpt lat="44.7854783" lon="9.6466083"><ele>681.0</ele><time>2026-05-01T15:20:46.996Z</time></trkpt><trkpt lat="44.785395" lon="9.646645"><ele>681.0</ele><time>2026-05-01T15:20:47.996Z</time></trkpt><trkpt lat="44.7853067" lon="9.6466767"><ele>681.0</ele><time>2026-05-01T15:20:48.996Z</time></trkpt><trkpt lat="44.7852133" lon="9.64671"><ele>681.5999999999999</ele><time>2026-05-01T15:20:49.996Z</time></trkpt><trkpt lat="44.785115" lon="9.646745"><ele>682.2</ele><time>2026-05-01T15:20:50.996Z</time></trkpt><trkpt lat="44.785015" lon="9.6467783"><ele>682.8</ele><time>2026-05-01T15:20:51.996Z</time></trkpt><trkpt lat="44.7849117" lon="9.6467983"><ele>683.4000000000001</ele><time>2026-05-01T15:20:52.995Z</time></trkpt><trkpt lat="44.78481" lon="9.646815"><ele>684.0</ele><time>2026-05-01T15:20:53.996Z</time></trkpt><trkpt lat="44.7847117" lon="9.6468367"><ele>684.0</ele><time>2026-05-01T15:20:54.995Z</time></trkpt><trkpt lat="44.7846133" lon="9.6468517"><ele>684.0</ele><time>2026-05-01T15:20:55.997Z</time></trkpt><trkpt lat="44.7845217" lon="9.6468583"><ele>684.0</ele><time>2026-05-01T15:20:56.997Z</time></trkpt><trkpt lat="44.78443" lon="9.6468583"><ele>684.0</ele><time>2026-05-01T15:20:57.997Z</time></trkpt><trkpt lat="44.78435" lon="9.6468617"><ele>684.0</ele><time>2026-05-01T15:20:58.996Z</time></trkpt><trkpt lat="44.78426" lon="9.6468767"><ele>684.25</ele><time>2026-05-01T15:20:59.996Z</time></trkpt><trkpt lat="44.7841717" lon="9.646905"><ele>684.5</ele><time>2026-05-01T15:21:00.995Z</time></trkpt><trkpt lat="44.78405" lon="9.646985"><ele>684.75</ele><time>2026-05-01T15:21:01.995Z</time></trkpt><trkpt lat="44.78393" lon="9.6470633"><ele>685.0</ele><time>2026-05-01T15:21:02.997Z</time></trkpt><trkpt lat="44.783815" lon="9.647135"><ele>683.4</ele><time>2026-05-01T15:21:03.995Z</time></trkpt><trkpt lat="44.7837068" lon="9.6472045"><ele>681.8</ele><time>2026-05-01T15:21:04.995Z</time></trkpt><trkpt lat="44.7836013" lon="9.6472651"><ele>680.2</ele><time>2026-05-01T15:21:05.995Z</time></trkpt><trkpt lat="44.7835042" lon="9.6473217"><ele>678.6</ele><time>2026-05-01T15:21:06.995Z</time></trkpt><trkpt lat="44.7834271" lon="9.6473788"><ele>677.0</ele><time>2026-05-01T15:21:07.997Z</time></trkpt><trkpt lat="44.7833749" lon="9.6474474"><ele>677.0</ele><time>2026-05-01T15:21:08.997Z</time></trkpt><trkpt lat="44.7833407" lon="9.6475297"><ele>677.0</ele><time>2026-05-01T15:21:09.997Z</time></trkpt><trkpt lat="44.7833966" lon="9.6476771"><ele>677.0</ele><time>2026-05-01T15:21:11.996Z</time></trkpt><trkpt lat="44.7835199" lon="9.6477219"><ele>677.0</ele><time>2026-05-01T15:21:13.996Z</time></trkpt><trkpt lat="44.7836071" lon="9.6476965"><ele>677.0</ele><time>2026-05-01T15:21:14.997Z</time></trkpt><trkpt lat="44.7837048" lon="9.6476673"><ele>675.75</ele><time>2026-05-01T15:21:15.995Z</time></trkpt><trkpt lat="44.7838173" lon="9.6476462"><ele>674.5</ele><time>2026-05-01T15:21:16.995Z</time></trkpt><trkpt lat="44.7839404" lon="9.6476415"><ele>673.25</ele><time>2026-05-01T15:21:17.995Z</time></trkpt><trkpt lat="44.7840712" lon="9.6476408"><ele>672.0</ele><time>2026-05-01T15:21:18.995Z</time></trkpt><trkpt lat="44.7842005" lon="9.6476345"><ele>672.0</ele><time>2026-05-01T15:21:19.996Z</time></trkpt><trkpt lat="44.7843273" lon="9.6476373"><ele>672.0</ele><time>2026-05-01T15:21:20.996Z</time></trkpt><trkpt lat="44.7844495" lon="9.647655"><ele>672.0</ele><time>2026-05-01T15:21:21.995Z</time></trkpt><trkpt lat="44.7845701" lon="9.6476913"><ele>672.0</ele><time>2026-05-01T15:21:22.995Z</time></trkpt><trkpt lat="44.7846874" lon="9.647738"><ele>671.75</ele><time>2026-05-01T15:21:23.995Z</time></trkpt><trkpt lat="44.7847994" lon="9.6477881"><ele>671.5</ele><time>2026-05-01T15:21:24.996Z</time></trkpt><trkpt lat="44.784906" lon="9.6478499"><ele>671.25</ele><time>2026-05-01T15:21:25.996Z</time></trkpt><trkpt lat="44.7850091" lon="9.6479206"><ele>671.0</ele><time>2026-05-01T15:21:26.996Z</time></trkpt><trkpt lat="44.7851093" lon="9.6480017"><ele>669.0</ele><time>2026-05-01T15:21:27.996Z</time></trkpt><trkpt lat="44.7852102" lon="9.6480998"><ele>667.0</ele><time>2026-05-01T15:21:28.996Z</time></trkpt><trkpt lat="44.785305" lon="9.6482175"><ele>665.0</ele><time>2026-05-01T15:21:29.998Z</time></trkpt><trkpt lat="44.7853964" lon="9.648342"><ele>663.0</ele><time>2026-05-01T15:21:30.997Z</time></trkpt><trkpt lat="44.7854846" lon="9.6484612"><ele>663.0</ele><time>2026-05-01T15:21:31.995Z</time></trkpt><trkpt lat="44.7855807" lon="9.6485465"><ele>663.0</ele><time>2026-05-01T15:21:32.998Z</time></trkpt><trkpt lat="44.7856955" lon="9.6485988"><ele>663.0</ele><time>2026-05-01T15:21:33.996Z</time></trkpt><trkpt lat="44.7858215" lon="9.648637"><ele>663.0</ele><time>2026-05-01T15:21:34.997Z</time></trkpt><trkpt lat="44.7859486" lon="9.6486876"><ele>662.0</ele><time>2026-05-01T15:21:35.998Z</time></trkpt><trkpt lat="44.7860642" lon="9.6487579"><ele>661.0</ele><time>2026-05-01T15:21:36.998Z</time></trkpt><trkpt lat="44.7861631" lon="9.648847"><ele>660.0</ele><time>2026-05-01T15:21:37.997Z</time></trkpt><trkpt lat="44.7862486" lon="9.6489529"><ele>659.0</ele><time>2026-05-01T15:21:38.997Z</time></trkpt><trkpt lat="44.7863196" lon="9.6490767"><ele>659.0</ele><time>2026-05-01T15:21:39.997Z</time></trkpt><trkpt lat="44.7863766" lon="9.6492158"><ele>659.0</ele><time>2026-05-01T15:21:40.996Z</time></trkpt><trkpt lat="44.7864144" lon="9.6493612"><ele>659.0</ele><time>2026-05-01T15:21:41.996Z</time></trkpt><trkpt lat="44.7864337" lon="9.6495088"><ele>659.0</ele><time>2026-05-01T15:21:42.996Z</time></trkpt><trkpt lat="44.7864355" lon="9.6496653"><ele>659.0</ele><time>2026-05-01T15:21:43.995Z</time></trkpt><trkpt lat="44.7864183" lon="9.649835"><ele>657.75</ele><time>2026-05-01T15:21:45Z</time></trkpt><trkpt lat="44.7864017" lon="9.6500117"><ele>656.5</ele><time>2026-05-01T15:21:45.996Z</time></trkpt><trkpt lat="44.7863817" lon="9.650195"><ele>655.25</ele><time>2026-05-01T15:21:46.996Z</time></trkpt><trkpt lat="44.78636" lon="9.6503717"><ele>654.0</ele><time>2026-05-01T15:21:47.997Z</time></trkpt><trkpt lat="44.7863483" lon="9.6505417"><ele>653.0</ele><time>2026-05-01T15:21:48.997Z</time></trkpt><trkpt lat="44.7863567" lon="9.6507133"><ele>652.0</ele><time>2026-05-01T15:21:49.996Z</time></trkpt><trkpt lat="44.7863933" lon="9.650885"><ele>651.0</ele><time>2026-05-01T15:21:50.998Z</time></trkpt><trkpt lat="44.7864533" lon="9.6510767"><ele>650.0</ele><time>2026-05-01T15:21:51.998Z</time></trkpt><trkpt lat="44.7865167" lon="9.6512833"><ele>647.0</ele><time>2026-05-01T15:21:52.997Z</time></trkpt><trkpt lat="44.7865667" lon="9.6514933"><ele>644.0</ele><time>2026-05-01T15:21:53.997Z</time></trkpt><trkpt lat="44.7866183" lon="9.6517"><ele>641.0</ele><time>2026-05-01T15:21:54.999Z</time></trkpt><trkpt lat="44.7866783" lon="9.6519033"><ele>640.5</ele><time>2026-05-01T15:21:55.997Z</time></trkpt><trkpt lat="44.7867367" lon="9.6521"><ele>640.0</ele><time>2026-05-01T15:21:56.998Z</time></trkpt><trkpt lat="44.786785" lon="9.65229"><ele>639.5</ele><time>2026-05-01T15:21:57.997Z</time></trkpt><trkpt lat="44.7868233" lon="9.6524667"><ele>639.0</ele><time>2026-05-01T15:21:58.998Z</time></trkpt><trkpt lat="44.78687" lon="9.6526333"><ele>637.0</ele><time>2026-05-01T15:21:59.998Z</time></trkpt><trkpt lat="44.7869383" lon="9.65279"><ele>635.0</ele><time>2026-05-01T15:22:00.998Z</time></trkpt><trkpt lat="44.78701" lon="9.6529483"><ele>633.0</ele><time>2026-05-01T15:22:01.998Z</time></trkpt><trkpt lat="44.787065" lon="9.653105"><ele>631.0</ele><time>2026-05-01T15:22:02.998Z</time></trkpt><trkpt lat="44.7871133" lon="9.6532483"><ele>631.0</ele><time>2026-05-01T15:22:03.998Z</time></trkpt><trkpt lat="44.7871683" lon="9.65337"><ele>631.0</ele><time>2026-05-01T15:22:04.999Z</time></trkpt><trkpt lat="44.7872467" lon="9.6534683"><ele>631.0</ele><time>2026-05-01T15:22:05.997Z</time></trkpt><trkpt lat="44.78734" lon="9.65355"><ele>631.0</ele><time>2026-05-01T15:22:06.998Z</time></trkpt><trkpt lat="44.7874317" lon="9.65363"><ele>631.0</ele><time>2026-05-01T15:22:07.997Z</time></trkpt><trkpt lat="44.7875167" lon="9.653705"><ele>630.6666666666667</ele><time>2026-05-01T15:22:08.998Z</time></trkpt><trkpt lat="44.7875883" lon="9.6537833"><ele>630.3333333333334</ele><time>2026-05-01T15:22:09.996Z</time></trkpt><trkpt lat="44.7876367" lon="9.6538683"><ele>630.0</ele><time>2026-05-01T15:22:10.997Z</time></trkpt><trkpt lat="44.78767" lon="9.6539767"><ele>629.6666666666666</ele><time>2026-05-01T15:22:11.997Z</time></trkpt><trkpt lat="44.7877083" lon="9.6540967"><ele>629.3333333333333</ele><time>2026-05-01T15:22:12.996Z</time></trkpt><trkpt lat="44.7877533" lon="9.6542217"><ele>629.0</ele><time>2026-05-01T15:22:13.997Z</time></trkpt><trkpt lat="44.7878" lon="9.6543383"><ele>629.0</ele><time>2026-05-01T15:22:14.997Z</time></trkpt><trkpt lat="44.7878533" lon="9.6544533"><ele>629.0</ele><time>2026-05-01T15:22:15.995Z</time></trkpt><trkpt lat="44.7879183" lon="9.654565"><ele>629.0</ele><time>2026-05-01T15:22:16.997Z</time></trkpt><trkpt lat="44.7879883" lon="9.6546733"><ele>629.0</ele><time>2026-05-01T15:22:17.997Z</time></trkpt><trkpt lat="44.788055" lon="9.65478"><ele>629.0</ele><time>2026-05-01T15:22:18.997Z</time></trkpt><trkpt lat="44.7881133" lon="9.654895"><ele>627.2</ele><time>2026-05-01T15:22:19.996Z</time></trkpt><trkpt lat="44.788155" lon="9.655015"><ele>625.4</ele><time>2026-05-01T15:22:20.997Z</time></trkpt><trkpt lat="44.78817" lon="9.6551417"><ele>623.6</ele><time>2026-05-01T15:22:21.997Z</time></trkpt><trkpt lat="44.78818" lon="9.6552733"><ele>621.8</ele><time>2026-05-01T15:22:22.998Z</time></trkpt><trkpt lat="44.788195" lon="9.6554017"><ele>620.0</ele><time>2026-05-01T15:22:23.997Z</time></trkpt><trkpt lat="44.7882217" lon="9.6555133"><ele>620.0</ele><time>2026-05-01T15:22:24.996Z</time></trkpt><trkpt lat="44.78827" lon="9.65561"><ele>620.0</ele><time>2026-05-01T15:22:25.998Z</time></trkpt><trkpt lat="44.788345" lon="9.6556983"><ele>620.0</ele><time>2026-05-01T15:22:26.997Z</time></trkpt><trkpt lat="44.788445" lon="9.6557883"><ele>620.0</ele><time>2026-05-01T15:22:27.997Z</time></trkpt><trkpt lat="44.788565" lon="9.6558917"><ele>620.0</ele><time>2026-05-01T15:22:28.997Z</time></trkpt><trkpt lat="44.7887017" lon="9.65601"><ele>617.6666666666666</ele><time>2026-05-01T15:22:29.996Z</time></trkpt><trkpt lat="44.7888433" lon="9.65614"><ele>615.3333333333334</ele><time>2026-05-01T15:22:30.996Z</time></trkpt><trkpt lat="44.7889817" lon="9.6562683"><ele>613.0</ele><time>2026-05-01T15:22:31.998Z</time></trkpt><trkpt lat="44.7891083" lon="9.6563883"><ele>613.0</ele><time>2026-05-01T15:22:32.996Z</time></trkpt><trkpt lat="44.7892317" lon="9.6565133"><ele>613.0</ele><time>2026-05-01T15:22:33.999Z</time></trkpt><trkpt lat="44.7893417" lon="9.6566383"><ele>613.0</ele><time>2026-05-01T15:22:34.998Z</time></trkpt><trkpt lat="44.7894417" lon="9.6567633"><ele>613.0</ele><time>2026-05-01T15:22:35.999Z</time></trkpt><trkpt lat="44.7895367" lon="9.65688"><ele>611.75</ele><time>2026-05-01T15:22:36.997Z</time></trkpt><trkpt lat="44.789635" lon="9.6569883"><ele>610.5</ele><time>2026-05-01T15:22:37.998Z</time></trkpt><trkpt lat="44.78973" lon="9.657095"><ele>609.25</ele><time>2026-05-01T15:22:38.998Z</time></trkpt><trkpt lat="44.7898283" lon="9.6571917"><ele>608.0</ele><time>2026-05-01T15:22:39.998Z</time></trkpt><trkpt lat="44.7899283" lon="9.6572717"><ele>608.0</ele><time>2026-05-01T15:22:40.997Z</time></trkpt><trkpt lat="44.79003" lon="9.6573233"><ele>608.0</ele><time>2026-05-01T15:22:41.998Z</time></trkpt><trkpt lat="44.790135" lon="9.6573483"><ele>608.0</ele><time>2026-05-01T15:22:42.997Z</time></trkpt><trkpt lat="44.7902383" lon="9.6573433"><ele>608.0</ele><time>2026-05-01T15:22:43.995Z</time></trkpt><trkpt lat="44.79034" lon="9.6573333"><ele>608.0</ele><time>2026-05-01T15:22:44.996Z</time></trkpt><trkpt lat="44.7904367" lon="9.6573467"><ele>609.4</ele><time>2026-05-01T15:22:45.997Z</time></trkpt><trkpt lat="44.7905283" lon="9.6574"><ele>610.8</ele><time>2026-05-01T15:22:46.996Z</time></trkpt><trkpt lat="44.7906117" lon="9.6574833"><ele>612.2</ele><time>2026-05-01T15:22:47.997Z</time></trkpt><trkpt lat="44.7906933" lon="9.657565"><ele>613.6</ele><time>2026-05-01T15:22:48.996Z</time></trkpt><trkpt lat="44.7907767" lon="9.6576267"><ele>615.0</ele><time>2026-05-01T15:22:49.996Z</time></trkpt><trkpt lat="44.7908633" lon="9.6576683"><ele>615.0</ele><time>2026-05-01T15:22:50.997Z</time></trkpt><trkpt lat="44.7909383" lon="9.65771"><ele>615.0</ele><time>2026-05-01T15:22:51.996Z</time></trkpt><trkpt lat="44.7909883" lon="9.6577767"><ele>615.0</ele><time>2026-05-01T15:22:52.996Z</time></trkpt><trkpt lat="44.791015" lon="9.657865"><ele>615.0</ele><time>2026-05-01T15:22:53.996Z</time></trkpt><trkpt lat="44.7910317" lon="9.6579733"><ele>615.0</ele><time>2026-05-01T15:22:54.995Z</time></trkpt><trkpt lat="44.7910617" lon="9.6580817"><ele>615.0</ele><time>2026-05-01T15:22:55.996Z</time></trkpt><trkpt lat="44.7911133" lon="9.65818"><ele>614.6</ele><time>2026-05-01T15:22:56.997Z</time></trkpt><trkpt lat="44.7911933" lon="9.6582583"><ele>614.2</ele><time>2026-05-01T15:22:57.996Z</time></trkpt><trkpt lat="44.791285" lon="9.6583217"><ele>613.8</ele><time>2026-05-01T15:22:58.996Z</time></trkpt><trkpt lat="44.7913733" lon="9.6583567"><ele>613.4</ele><time>2026-05-01T15:22:59.997Z</time></trkpt><trkpt lat="44.7914567" lon="9.6583617"><ele>613.0</ele><time>2026-05-01T15:23:00.996Z</time></trkpt><trkpt lat="44.7915433" lon="9.6583317"><ele>613.0</ele><time>2026-05-01T15:23:01.996Z</time></trkpt><trkpt lat="44.79162" lon="9.6583133"><ele>613.0</ele><time>2026-05-01T15:23:02.996Z</time></trkpt><trkpt lat="44.7916933" lon="9.6583117"><ele>613.0</ele><time>2026-05-01T15:23:03.997Z</time></trkpt><trkpt lat="44.7917633" lon="9.65833"><ele>613.0</ele><time>2026-05-01T15:23:04.996Z</time></trkpt><trkpt lat="44.79183" lon="9.6583867"><ele>613.0</ele><time>2026-05-01T15:23:05.997Z</time></trkpt><trkpt lat="44.791895" lon="9.6584817"><ele>613.0</ele><time>2026-05-01T15:23:06.996Z</time></trkpt><trkpt lat="44.791955" lon="9.6586"><ele>612.4</ele><time>2026-05-01T15:23:07.995Z</time></trkpt><trkpt lat="44.7920183" lon="9.6587133"><ele>611.8</ele><time>2026-05-01T15:23:08.997Z</time></trkpt><trkpt lat="44.7920833" lon="9.6588183"><ele>611.2</ele><time>2026-05-01T15:23:09.995Z</time></trkpt><trkpt lat="44.7921583" lon="9.658905"><ele>610.6</ele><time>2026-05-01T15:23:10.998Z</time></trkpt><trkpt lat="44.792255" lon="9.6589667"><ele>610.0</ele><time>2026-05-01T15:23:11.996Z</time></trkpt><trkpt lat="44.79236" lon="9.65901"><ele>610.0</ele><time>2026-05-01T15:23:12.997Z</time></trkpt><trkpt lat="44.79246" lon="9.659045"><ele>610.0</ele><time>2026-05-01T15:23:13.996Z</time></trkpt><trkpt lat="44.79254" lon="9.6590867"><ele>610.0</ele><time>2026-05-01T15:23:14.998Z</time></trkpt><trkpt lat="44.7926" lon="9.65914"><ele>610.0</ele><time>2026-05-01T15:23:15.997Z</time></trkpt><trkpt lat="44.7926467" lon="9.6592083"><ele>610.0</ele><time>2026-05-01T15:23:16.996Z</time></trkpt><trkpt lat="44.7926783" lon="9.6593117"><ele>610.0</ele><time>2026-05-01T15:23:17.997Z</time></trkpt><trkpt lat="44.7927083" lon="9.6594433"><ele>611.0</ele><time>2026-05-01T15:23:18.996Z</time></trkpt><trkpt lat="44.79275" lon="9.6595833"><ele>612.0</ele><time>2026-05-01T15:23:19.997Z</time></trkpt><trkpt lat="44.79279" lon="9.6597317"><ele>613.0</ele><time>2026-05-01T15:23:20.996Z</time></trkpt><trkpt lat="44.7928267" lon="9.6598767"><ele>614.0</ele><time>2026-05-01T15:23:21.997Z</time></trkpt><trkpt lat="44.792855" lon="9.6600117"><ele>615.0</ele><time>2026-05-01T15:23:22.996Z</time></trkpt><trkpt lat="44.7928717" lon="9.6601383"><ele>615.0</ele><time>2026-05-01T15:23:23.997Z</time></trkpt><trkpt lat="44.792875" lon="9.66027"><ele>615.0</ele><time>2026-05-01T15:23:24.996Z</time></trkpt><trkpt lat="44.7928717" lon="9.6604017"><ele>615.0</ele><time>2026-05-01T15:23:25.996Z</time></trkpt><trkpt lat="44.792855" lon="9.6605283"><ele>615.0</ele><time>2026-05-01T15:23:26.996Z</time></trkpt><trkpt lat="44.7928383" lon="9.6606433"><ele>615.0</ele><time>2026-05-01T15:23:27.996Z</time></trkpt><trkpt lat="44.79283" lon="9.6607583"><ele>615.0</ele><time>2026-05-01T15:23:28.995Z</time></trkpt><trkpt lat="44.7928383" lon="9.66087"><ele>613.6666666666666</ele><time>2026-05-01T15:23:29.995Z</time></trkpt><trkpt lat="44.79287" lon="9.6609667"><ele>612.3333333333334</ele><time>2026-05-01T15:23:30.996Z</time></trkpt><trkpt lat="44.79292" lon="9.6610367"><ele>611.0</ele><time>2026-05-01T15:23:31.997Z</time></trkpt><trkpt lat="44.7929867" lon="9.6610733"><ele>609.6666666666667</ele><time>2026-05-01T15:23:32.996Z</time></trkpt><trkpt lat="44.7930633" lon="9.6610833"><ele>608.3333333333334</ele><time>2026-05-01T15:23:33.996Z</time></trkpt><trkpt lat="44.793135" lon="9.6610383"><ele>607.0</ele><time>2026-05-01T15:23:34.996Z</time></trkpt><trkpt lat="44.7932017" lon="9.6609583"><ele>607.0</ele><time>2026-05-01T15:23:35.996Z</time></trkpt><trkpt lat="44.7932733" lon="9.6608683"><ele>607.0</ele><time>2026-05-01T15:23:36.996Z</time></trkpt><trkpt lat="44.7933567" lon="9.6608033"><ele>607.0</ele><time>2026-05-01T15:23:37.996Z</time></trkpt><trkpt lat="44.7934517" lon="9.66074"><ele>607.0</ele><time>2026-05-01T15:23:38.997Z</time></trkpt><trkpt lat="44.79355" lon="9.6606933"><ele>607.0</ele><time>2026-05-01T15:23:39.996Z</time></trkpt><trkpt lat="44.793645" lon="9.660665"><ele>607.2</ele><time>2026-05-01T15:23:40.998Z</time></trkpt><trkpt lat="44.7937417" lon="9.6606617"><ele>607.4000000000001</ele><time>2026-05-01T15:23:41.997Z</time></trkpt><trkpt lat="44.7938367" lon="9.6606833"><ele>607.5999999999999</ele><time>2026-05-01T15:23:42.996Z</time></trkpt><trkpt lat="44.7939217" lon="9.6607317"><ele>607.8</ele><time>2026-05-01T15:23:43.997Z</time></trkpt><trkpt lat="44.7940033" lon="9.6608"><ele>608.0</ele><time>2026-05-01T15:23:44.998Z</time></trkpt><trkpt lat="44.7940883" lon="9.6608883"><ele>608.0</ele><time>2026-05-01T15:23:45.996Z</time></trkpt><trkpt lat="44.7941733" lon="9.6609817"><ele>608.0</ele><time>2026-05-01T15:23:46.997Z</time></trkpt><trkpt lat="44.7942583" lon="9.6610733"><ele>608.0</ele><time>2026-05-01T15:23:47.997Z</time></trkpt><trkpt lat="44.79434" lon="9.6611583"><ele>608.0</ele><time>2026-05-01T15:23:48.999Z</time></trkpt><trkpt lat="44.79442" lon="9.661235"><ele>608.0</ele><time>2026-05-01T15:23:49.999Z</time></trkpt><trkpt lat="44.7944983" lon="9.6613067"><ele>608.0</ele><time>2026-05-01T15:23:50.998Z</time></trkpt><trkpt lat="44.79457" lon="9.66138"><ele>608.0</ele><time>2026-05-01T15:23:51.998Z</time></trkpt><trkpt lat="44.7946383" lon="9.6614533"><ele>608.0</ele><time>2026-05-01T15:23:52.998Z</time></trkpt><trkpt lat="44.7947067" lon="9.6615333"><ele>608.0</ele><time>2026-05-01T15:23:53.998Z</time></trkpt><trkpt lat="44.794775" lon="9.66162"><ele>608.0</ele><time>2026-05-01T15:23:54.998Z</time></trkpt><trkpt lat="44.7948383" lon="9.6617117"><ele>608.0</ele><time>2026-05-01T15:23:56Z</time></trkpt><trkpt lat="44.7949" lon="9.661805"><ele>608.0</ele><time>2026-05-01T15:23:56.997Z</time></trkpt><trkpt lat="44.794955" lon="9.6619017"><ele>608.0</ele><time>2026-05-01T15:23:57.996Z</time></trkpt><trkpt lat="44.7950017" lon="9.6620067"><ele>608.0</ele><time>2026-05-01T15:23:58.997Z</time></trkpt><trkpt lat="44.79504" lon="9.66211"><ele>608.0</ele><time>2026-05-01T15:23:59.996Z</time></trkpt><trkpt lat="44.795075" lon="9.6622133"><ele>608.0</ele><time>2026-05-01T15:24:00.996Z</time></trkpt><trkpt lat="44.7951133" lon="9.662305"><ele>608.0</ele><time>2026-05-01T15:24:01.996Z</time></trkpt><trkpt lat="44.7951617" lon="9.662385"><ele>606.4</ele><time>2026-05-01T15:24:02.996Z</time></trkpt><trkpt lat="44.79522" lon="9.6624583"><ele>604.8</ele><time>2026-05-01T15:24:03.997Z</time></trkpt><trkpt lat="44.7952817" lon="9.662525"><ele>603.2</ele><time>2026-05-01T15:24:04.995Z</time></trkpt><trkpt lat="44.79534" lon="9.6625833"><ele>601.6</ele><time>2026-05-01T15:24:05.997Z</time></trkpt><trkpt lat="44.7954083" lon="9.6627117"><ele>600.0</ele><time>2026-05-01T15:24:07.996Z</time></trkpt><trkpt lat="44.7954117" lon="9.6628717"><ele>597.2</ele><time>2026-05-01T15:24:09.995Z</time></trkpt><trkpt lat="44.7953733" lon="9.6630567"><ele>594.4</ele><time>2026-05-01T15:24:11.995Z</time></trkpt><trkpt lat="44.79535" lon="9.6631633"><ele>591.6</ele><time>2026-05-01T15:24:12.995Z</time></trkpt><trkpt lat="44.795325" lon="9.663275"><ele>588.8</ele><time>2026-05-01T15:24:13.995Z</time></trkpt><trkpt lat="44.7953017" lon="9.6633883"><ele>586.0</ele><time>2026-05-01T15:24:14.996Z</time></trkpt><trkpt lat="44.7952817" lon="9.6634967"><ele>586.0</ele><time>2026-05-01T15:24:15.996Z</time></trkpt><trkpt lat="44.7952583" lon="9.6636017"><ele>586.0</ele><time>2026-05-01T15:24:16.998Z</time></trkpt><trkpt lat="44.7952333" lon="9.6636867"><ele>586.0</ele><time>2026-05-01T15:24:17.996Z</time></trkpt><trkpt lat="44.7951967" lon="9.6637617"><ele>586.0</ele><time>2026-05-01T15:24:18.997Z</time></trkpt><trkpt lat="44.7951483" lon="9.6638417"><ele>586.0</ele><time>2026-05-01T15:24:19.997Z</time></trkpt><trkpt lat="44.7950983" lon="9.663905"><ele>586.0</ele><time>2026-05-01T15:24:20.997Z</time></trkpt><trkpt lat="44.7950233" lon="9.66404"><ele>584.8</ele><time>2026-05-01T15:24:22.997Z</time></trkpt><trkpt lat="44.7949717" lon="9.66419"><ele>583.6</ele><time>2026-05-01T15:24:24.997Z</time></trkpt><trkpt lat="44.7949367" lon="9.6643217"><ele>582.4</ele><time>2026-05-01T15:24:26.996Z</time></trkpt><trkpt lat="44.7949767" lon="9.66441"><ele>581.2</ele><time>2026-05-01T15:24:29.996Z</time></trkpt><trkpt lat="44.79504" lon="9.664435"><ele>580.0</ele><time>2026-05-01T15:24:32.997Z</time></trkpt><trkpt lat="44.7951267" lon="9.6643567"><ele>577.75</ele><time>2026-05-01T15:24:35.998Z</time></trkpt><trkpt lat="44.7952267" lon="9.6642917"><ele>575.5</ele><time>2026-05-01T15:24:38Z</time></trkpt><trkpt lat="44.79534" lon="9.66423"><ele>573.25</ele><time>2026-05-01T15:24:39.997Z</time></trkpt><trkpt lat="44.7954533" lon="9.6641733"><ele>571.0</ele><time>2026-05-01T15:24:41.998Z</time></trkpt><trkpt lat="44.7955617" lon="9.66408"><ele>571.0</ele><time>2026-05-01T15:24:43.998Z</time></trkpt><trkpt lat="44.795655" lon="9.6639783"><ele>571.0</ele><time>2026-05-01T15:24:46.097Z</time></trkpt><trkpt lat="44.7957118" lon="9.6639256"><ele>571.0</ele><time>2026-05-01T15:24:46.996Z</time></trkpt><trkpt lat="44.7957788" lon="9.6638767"><ele>571.0</ele><time>2026-05-01T15:24:47.996Z</time></trkpt><trkpt lat="44.795844" lon="9.6638467"><ele>571.0</ele><time>2026-05-01T15:24:48.997Z</time></trkpt><trkpt lat="44.795965" lon="9.6638543"><ele>572.3333333333334</ele><time>2026-05-01T15:24:50.997Z</time></trkpt><trkpt lat="44.7960572" lon="9.6639411"><ele>573.6666666666667</ele><time>2026-05-01T15:24:52.996Z</time></trkpt><trkpt lat="44.7960738" lon="9.6640997"><ele>575.0</ele><time>2026-05-01T15:24:54.998Z</time></trkpt><trkpt lat="44.7960791" lon="9.6641978"><ele>576.3333333333334</ele><time>2026-05-01T15:24:55.997Z</time></trkpt><trkpt lat="44.7960925" lon="9.6642948"><ele>577.6666666666666</ele><time>2026-05-01T15:24:56.999Z</time></trkpt><trkpt lat="44.7961159" lon="9.6643783"><ele>579.0</ele><time>2026-05-01T15:24:57.996Z</time></trkpt><trkpt lat="44.7961651" lon="9.6644898"><ele>575.2</ele><time>2026-05-01T15:24:59.997Z</time></trkpt><trkpt lat="44.79624" lon="9.6645734"><ele>571.4</ele><time>2026-05-01T15:25:01.998Z</time></trkpt><trkpt lat="44.7963263" lon="9.6646743"><ele>567.6</ele><time>2026-05-01T15:25:03.996Z</time></trkpt><trkpt lat="44.7963834" lon="9.6647933"><ele>563.8</ele><time>2026-05-01T15:25:05.996Z</time></trkpt><trkpt lat="44.7963832" lon="9.6649239"><ele>560.0</ele><time>2026-05-01T15:25:07.996Z</time></trkpt><trkpt lat="44.7963284" lon="9.6650435"><ele>560.0</ele><time>2026-05-01T15:25:09.996Z</time></trkpt><trkpt lat="44.7962305" lon="9.665113"><ele>560.0</ele><time>2026-05-01T15:25:11.997Z</time></trkpt><trkpt lat="44.7961091" lon="9.6651014"><ele>560.0</ele><time>2026-05-01T15:25:13.997Z</time></trkpt><trkpt lat="44.7960469" lon="9.6650767"><ele>560.0</ele><time>2026-05-01T15:25:14.996Z</time></trkpt><trkpt lat="44.7959849" lon="9.6650516"><ele>560.0</ele><time>2026-05-01T15:25:15.997Z</time></trkpt><trkpt lat="44.795869" lon="9.6650639"><ele>558.8</ele><time>2026-05-01T15:25:17.996Z</time></trkpt><trkpt lat="44.795791" lon="9.6651768"><ele>557.6</ele><time>2026-05-01T15:25:19.996Z</time></trkpt><trkpt lat="44.7957545" lon="9.6653492"><ele>556.4</ele><time>2026-05-01T15:25:21.999Z</time></trkpt><trkpt lat="44.7957337" lon="9.6654395"><ele>555.2</ele><time>2026-05-01T15:25:22.998Z</time></trkpt><trkpt lat="44.7957101" lon="9.6655393"><ele>554.0</ele><time>2026-05-01T15:25:23.998Z</time></trkpt><trkpt lat="44.7956852" lon="9.6656459"><ele>552.1666666666666</ele><time>2026-05-01T15:25:24.999Z</time></trkpt><trkpt lat="44.7956614" lon="9.6657512"><ele>550.3333333333333</ele><time>2026-05-01T15:25:25.998Z</time></trkpt><trkpt lat="44.7956413" lon="9.6658535"><ele>548.5</ele><time>2026-05-01T15:25:26.999Z</time></trkpt><trkpt lat="44.795622" lon="9.6659537"><ele>546.6666666666666</ele><time>2026-05-01T15:25:27.996Z</time></trkpt><trkpt lat="44.7956013" lon="9.6660534"><ele>544.8333333333334</ele><time>2026-05-01T15:25:28.997Z</time></trkpt><trkpt lat="44.795577" lon="9.6661515"><ele>543.0</ele><time>2026-05-01T15:25:29.996Z</time></trkpt><trkpt lat="44.7955418" lon="9.666248"><ele>541.8</ele><time>2026-05-01T15:25:30.997Z</time></trkpt><trkpt lat="44.7955023" lon="9.6663349"><ele>540.5999999999999</ele><time>2026-05-01T15:25:31.997Z</time></trkpt><trkpt lat="44.7954567" lon="9.66641"><ele>539.4000000000001</ele><time>2026-05-01T15:25:32.999Z</time></trkpt><trkpt lat="44.7954095" lon="9.6664746"><ele>538.2</ele><time>2026-05-01T15:25:33.996Z</time></trkpt><trkpt lat="44.7953289" lon="9.6665956"><ele>537.0</ele><time>2026-05-01T15:25:35.996Z</time></trkpt><trkpt lat="44.7952751" lon="9.6667561"><ele>537.0</ele><time>2026-05-01T15:25:37.996Z</time></trkpt><trkpt lat="44.7952657" lon="9.6668473"><ele>537.0</ele><time>2026-05-01T15:25:38.997Z</time></trkpt><trkpt lat="44.7952621" lon="9.6669456"><ele>537.0</ele><time>2026-05-01T15:25:39.996Z</time></trkpt><trkpt lat="44.7952551" lon="9.6670491"><ele>537.0</ele><time>2026-05-01T15:25:40.996Z</time></trkpt><trkpt lat="44.7952458" lon="9.667152"><ele>537.0</ele><time>2026-05-01T15:25:41.998Z</time></trkpt><trkpt lat="44.7952209" lon="9.6672606"><ele>537.0</ele><time>2026-05-01T15:25:42.996Z</time></trkpt><trkpt lat="44.7951808" lon="9.6673798"><ele>535.0</ele><time>2026-05-01T15:25:43.996Z</time></trkpt><trkpt lat="44.7951472" lon="9.6674966"><ele>533.0</ele><time>2026-05-01T15:25:44.996Z</time></trkpt><trkpt lat="44.7951092" lon="9.6676166"><ele>531.0</ele><time>2026-05-01T15:25:45.997Z</time></trkpt><trkpt lat="44.7950755" lon="9.6677334"><ele>529.0</ele><time>2026-05-01T15:25:46.997Z</time></trkpt><trkpt lat="44.7950382" lon="9.6678423"><ele>527.0</ele><time>2026-05-01T15:25:47.997Z</time></trkpt><trkpt lat="44.7949928" lon="9.6679334"><ele>525.0</ele><time>2026-05-01T15:25:48.996Z</time></trkpt><trkpt lat="44.7949351" lon="9.6680086"><ele>523.0</ele><time>2026-05-01T15:25:49.999Z</time></trkpt><trkpt lat="44.7948735" lon="9.6680761"><ele>521.0</ele><time>2026-05-01T15:25:50.996Z</time></trkpt><trkpt lat="44.7948011" lon="9.6681373"><ele>519.0</ele><time>2026-05-01T15:25:51.996Z</time></trkpt><trkpt lat="44.7947279" lon="9.668186"><ele>517.0</ele><time>2026-05-01T15:25:52.997Z</time></trkpt><trkpt lat="44.7946623" lon="9.6682271"><ele>515.0</ele><time>2026-05-01T15:25:53.996Z</time></trkpt><trkpt lat="44.7946055" lon="9.6682836"><ele>513.0</ele><time>2026-05-01T15:25:54.996Z</time></trkpt><trkpt lat="44.7945593" lon="9.6683572"><ele>513.0</ele><time>2026-05-01T15:25:55.996Z</time></trkpt><trkpt lat="44.7945182" lon="9.6684485"><ele>513.0</ele><time>2026-05-01T15:25:56.997Z</time></trkpt><trkpt lat="44.7944794" lon="9.6685361"><ele>513.0</ele><time>2026-05-01T15:25:57.996Z</time></trkpt><trkpt lat="44.7944485" lon="9.6686211"><ele>513.0</ele><time>2026-05-01T15:25:58.997Z</time></trkpt><trkpt lat="44.794414" lon="9.6687004"><ele>513.0</ele><time>2026-05-01T15:25:59.997Z</time></trkpt><trkpt lat="44.7943354" lon="9.6688159"><ele>513.0</ele><time>2026-05-01T15:26:01.998Z</time></trkpt><trkpt lat="44.7942486" lon="9.6688788"><ele>510.5</ele><time>2026-05-01T15:26:03.996Z</time></trkpt><trkpt lat="44.7941941" lon="9.6689389"><ele>508.0</ele><time>2026-05-01T15:26:05.997Z</time></trkpt><trkpt lat="44.7941756" lon="9.6690251"><ele>505.5</ele><time>2026-05-01T15:26:08.996Z</time></trkpt><trkpt lat="44.7942066" lon="9.6691075"><ele>503.0</ele><time>2026-05-01T15:26:14.998Z</time></trkpt><trkpt lat="44.7942871" lon="9.669093"><ele>500.5</ele><time>2026-05-01T15:26:18.996Z</time></trkpt><trkpt lat="44.7943613" lon="9.6690797"><ele>498.0</ele><time>2026-05-01T15:26:20.997Z</time></trkpt><trkpt lat="44.7944577" lon="9.6690681"><ele>498.0</ele><time>2026-05-01T15:26:22.996Z</time></trkpt><trkpt lat="44.794584" lon="9.6690811"><ele>498.0</ele><time>2026-05-01T15:26:24.996Z</time></trkpt><trkpt lat="44.794654" lon="9.6690997"><ele>498.0</ele><time>2026-05-01T15:26:25.996Z</time></trkpt><trkpt lat="44.7947168" lon="9.6691338"><ele>498.0</ele><time>2026-05-01T15:26:26.996Z</time></trkpt><trkpt lat="44.7947867" lon="9.6691917"><ele>498.0</ele><time>2026-05-01T15:26:27.996Z</time></trkpt><trkpt lat="44.7948533" lon="9.669245"><ele>498.0</ele><time>2026-05-01T15:26:28.996Z</time></trkpt><trkpt lat="44.7949233" lon="9.6693"><ele>498.0</ele><time>2026-05-01T15:26:29.997Z</time></trkpt><trkpt lat="44.7949967" lon="9.6693483"><ele>498.0</ele><time>2026-05-01T15:26:30.996Z</time></trkpt><trkpt lat="44.7950633" lon="9.6693967"><ele>498.0</ele><time>2026-05-01T15:26:31.996Z</time></trkpt><trkpt lat="44.79513" lon="9.6694383"><ele>498.0</ele><time>2026-05-01T15:26:32.997Z</time></trkpt><trkpt lat="44.795185" lon="9.6694933"><ele>498.0</ele><time>2026-05-01T15:26:33.997Z</time></trkpt><trkpt lat="44.7952583" lon="9.669615"><ele>498.0</ele><time>2026-05-01T15:26:35.997Z</time></trkpt><trkpt lat="44.7952583" lon="9.6697267"><ele>497.1666666666667</ele><time>2026-05-01T15:26:37.996Z</time></trkpt><trkpt lat="44.7951767" lon="9.669815"><ele>496.33333333333337</ele><time>2026-05-01T15:26:39.996Z</time></trkpt><trkpt lat="44.7951183" lon="9.669875"><ele>495.5</ele><time>2026-05-01T15:26:40.996Z</time></trkpt><trkpt lat="44.7950667" lon="9.6699433"><ele>494.6666666666667</ele><time>2026-05-01T15:26:41.997Z</time></trkpt><trkpt lat="44.7950333" lon="9.67007"><ele>493.83333333333337</ele><time>2026-05-01T15:26:43.997Z</time></trkpt><trkpt lat="44.7950667" lon="9.67018"><ele>493.0</ele><time>2026-05-01T15:26:45.998Z</time></trkpt><trkpt lat="44.7951283" lon="9.6703233"><ele>490.4</ele><time>2026-05-01T15:26:47.996Z</time></trkpt><trkpt lat="44.79516" lon="9.670405"><ele>487.79999999999995</ele><time>2026-05-01T15:26:48.996Z</time></trkpt><trkpt lat="44.795195" lon="9.6704817"><ele>485.2</ele><time>2026-05-01T15:26:49.997Z</time></trkpt><trkpt lat="44.7952667" lon="9.6705867"><ele>482.6</ele><time>2026-05-01T15:26:51.997Z</time></trkpt><trkpt lat="44.7953467" lon="9.67065"><ele>480.0</ele><time>2026-05-01T15:26:53.996Z</time></trkpt><trkpt lat="44.7954683" lon="9.67071"><ele>480.0</ele><time>2026-05-01T15:26:55.997Z</time></trkpt><trkpt lat="44.79555" lon="9.6707417"><ele>480.0</ele><time>2026-05-01T15:26:56.996Z</time></trkpt><trkpt lat="44.7956317" lon="9.6707717"><ele>480.0</ele><time>2026-05-01T15:26:57.997Z</time></trkpt><trkpt lat="44.79571" lon="9.6708017"><ele>480.0</ele><time>2026-05-01T15:26:58.998Z</time></trkpt><trkpt lat="44.7957767" lon="9.6708233"><ele>480.0</ele><time>2026-05-01T15:26:59.997Z</time></trkpt><trkpt lat="44.7958367" lon="9.6708517"><ele>480.0</ele><time>2026-05-01T15:27:00.997Z</time></trkpt><trkpt lat="44.795915" lon="9.6709633"><ele>478.4</ele><time>2026-05-01T15:27:02.998Z</time></trkpt><trkpt lat="44.79595" lon="9.671125"><ele>476.8</ele><time>2026-05-01T15:27:04.999Z</time></trkpt><trkpt lat="44.79597" lon="9.6712983"><ele>475.20000000000005</ele><time>2026-05-01T15:27:06.997Z</time></trkpt><trkpt lat="44.7959883" lon="9.6713867"><ele>473.6</ele><time>2026-05-01T15:27:07.997Z</time></trkpt><trkpt lat="44.79607" lon="9.67152"><ele>472.0</ele><time>2026-05-01T15:27:09.997Z</time></trkpt><trkpt lat="44.796135" lon="9.6715717"><ele>471.6666666666667</ele><time>2026-05-01T15:27:10.997Z</time></trkpt><trkpt lat="44.79621" lon="9.6716183"><ele>471.33333333333337</ele><time>2026-05-01T15:27:11.996Z</time></trkpt><trkpt lat="44.79629" lon="9.6716617"><ele>471.0</ele><time>2026-05-01T15:27:12.996Z</time></trkpt><trkpt lat="44.79637" lon="9.6717"><ele>470.66666666666663</ele><time>2026-05-01T15:27:13.996Z</time></trkpt><trkpt lat="44.796455" lon="9.6717433"><ele>470.3333333333333</ele><time>2026-05-01T15:27:14.996Z</time></trkpt><trkpt lat="44.7965383" lon="9.6717933"><ele>470.0</ele><time>2026-05-01T15:27:15.996Z</time></trkpt><trkpt lat="44.7966217" lon="9.67186"><ele>470.0</ele><time>2026-05-01T15:27:16.996Z</time></trkpt><trkpt lat="44.796705" lon="9.6719367"><ele>470.0</ele><time>2026-05-01T15:27:17.997Z</time></trkpt><trkpt lat="44.7967867" lon="9.6720167"><ele>470.0</ele><time>2026-05-01T15:27:18.999Z</time></trkpt><trkpt lat="44.7968667" lon="9.6720967"><ele>470.0</ele><time>2026-05-01T15:27:19.996Z</time></trkpt><trkpt lat="44.79694" lon="9.6721733"><ele>470.0</ele><time>2026-05-01T15:27:20.997Z</time></trkpt><trkpt lat="44.79701" lon="9.672245"><ele>469.16666666666663</ele><time>2026-05-01T15:27:21.996Z</time></trkpt><trkpt lat="44.7970767" lon="9.672305"><ele>468.3333333333333</ele><time>2026-05-01T15:27:22.998Z</time></trkpt><trkpt lat="44.797145" lon="9.6723667"><ele>467.5</ele><time>2026-05-01T15:27:23.996Z</time></trkpt><trkpt lat="44.797215" lon="9.6724233"><ele>466.66666666666663</ele><time>2026-05-01T15:27:24.996Z</time></trkpt><trkpt lat="44.7972883" lon="9.6724733"><ele>465.8333333333333</ele><time>2026-05-01T15:27:25.997Z</time></trkpt><trkpt lat="44.7973667" lon="9.6725233"><ele>465.0</ele><time>2026-05-01T15:27:26.997Z</time></trkpt><trkpt lat="44.7974467" lon="9.67257"><ele>465.0</ele><time>2026-05-01T15:27:27.997Z</time></trkpt><trkpt lat="44.797525" lon="9.6726117"><ele>465.0</ele><time>2026-05-01T15:27:28.998Z</time></trkpt><trkpt lat="44.7976017" lon="9.6726467"><ele>465.0</ele><time>2026-05-01T15:27:29.998Z</time></trkpt><trkpt lat="44.7976717" lon="9.6726667"><ele>465.0</ele><time>2026-05-01T15:27:30.998Z</time></trkpt><trkpt lat="44.7977383" lon="9.6726683"><ele>465.0</ele><time>2026-05-01T15:27:31.998Z</time></trkpt><trkpt lat="44.7978033" lon="9.67265"><ele>465.0</ele><time>2026-05-01T15:27:32.998Z</time></trkpt><trkpt lat="44.797865" lon="9.67262"><ele>465.0</ele><time>2026-05-01T15:27:33.997Z</time></trkpt><trkpt lat="44.7979317" lon="9.67258"><ele>465.57142857142856</ele><time>2026-05-01T15:27:34.996Z</time></trkpt><trkpt lat="44.7979933" lon="9.6725383"><ele>466.14285714285717</ele><time>2026-05-01T15:27:35.997Z</time></trkpt><trkpt lat="44.7980583" lon="9.6725017"><ele>466.7142857142857</ele><time>2026-05-01T15:27:36.997Z</time></trkpt><trkpt lat="44.79812" lon="9.67248"><ele>467.2857142857143</ele><time>2026-05-01T15:27:37.997Z</time></trkpt><trkpt lat="44.79819" lon="9.672485"><ele>467.8571428571429</ele><time>2026-05-01T15:27:38.996Z</time></trkpt><trkpt lat="44.7982667" lon="9.672505"><ele>468.42857142857144</ele><time>2026-05-01T15:27:39.998Z</time></trkpt><trkpt lat="44.798345" lon="9.6725367"><ele>469.0</ele><time>2026-05-01T15:27:40.996Z</time></trkpt><trkpt lat="44.798425" lon="9.672565"><ele>471.79999999999995</ele><time>2026-05-01T15:27:41.996Z</time></trkpt><trkpt lat="44.798515" lon="9.6725867"><ele>474.59999999999997</ele><time>2026-05-01T15:27:42.997Z</time></trkpt><trkpt lat="44.7986133" lon="9.6726183"><ele>477.4</ele><time>2026-05-01T15:27:43.996Z</time></trkpt><trkpt lat="44.798715" lon="9.672645"><ele>480.2</ele><time>2026-05-01T15:27:44.996Z</time></trkpt><trkpt lat="44.798805" lon="9.6726917"><ele>483.0</ele><time>2026-05-01T15:27:45.996Z</time></trkpt><trkpt lat="44.7988867" lon="9.6727533"><ele>481.3333333333333</ele><time>2026-05-01T15:27:46.996Z</time></trkpt><trkpt lat="44.7989533" lon="9.6728383"><ele>479.66666666666663</ele><time>2026-05-01T15:27:47.998Z</time></trkpt><trkpt lat="44.7990183" lon="9.6729233"><ele>478.0</ele><time>2026-05-01T15:27:48.996Z</time></trkpt><trkpt lat="44.7990783" lon="9.673015"><ele>476.3333333333333</ele><time>2026-05-01T15:27:49.996Z</time></trkpt><trkpt lat="44.7991417" lon="9.6731017"><ele>474.66666666666663</ele><time>2026-05-01T15:27:50.997Z</time></trkpt><trkpt lat="44.799205" lon="9.6731733"><ele>473.0</ele><time>2026-05-01T15:27:51.996Z</time></trkpt><trkpt lat="44.79927" lon="9.6732267"><ele>473.4</ele><time>2026-05-01T15:27:53.004Z</time></trkpt><trkpt lat="44.7993483" lon="9.6732517"><ele>473.79999999999995</ele><time>2026-05-01T15:27:53.998Z</time></trkpt><trkpt lat="44.7994417" lon="9.6732467"><ele>474.2</ele><time>2026-05-01T15:27:54.999Z</time></trkpt><trkpt lat="44.799545" lon="9.6732283"><ele>474.6</ele><time>2026-05-01T15:27:55.999Z</time></trkpt><trkpt lat="44.7996483" lon="9.6732083"><ele>475.0</ele><time>2026-05-01T15:27:56.999Z</time></trkpt><trkpt lat="44.7997467" lon="9.6731917"><ele>475.00000000000006</ele><time>2026-05-01T15:27:57.999Z</time></trkpt><trkpt lat="44.7998333" lon="9.6731783"><ele>475.0</ele><time>2026-05-01T15:27:58.998Z</time></trkpt><trkpt lat="44.7998983" lon="9.673165"><ele>475.0</ele><time>2026-05-01T15:27:59.996Z</time></trkpt><trkpt lat="44.8000017" lon="9.6731033"><ele>475.0</ele><time>2026-05-01T15:28:01.996Z</time></trkpt><trkpt lat="44.8000583" lon="9.6730517"><ele>475.00000000000006</ele><time>2026-05-01T15:28:02.999Z</time></trkpt><trkpt lat="44.80012" lon="9.6729967"><ele>475.0</ele><time>2026-05-01T15:28:03.996Z</time></trkpt><trkpt lat="44.8001833" lon="9.672945"><ele>474.00000000000006</ele><time>2026-05-01T15:28:04.997Z</time></trkpt><trkpt lat="44.8002467" lon="9.6728867"><ele>473.0</ele><time>2026-05-01T15:28:05.996Z</time></trkpt><trkpt lat="44.80031" lon="9.6728217"><ele>472.0</ele><time>2026-05-01T15:28:06.996Z</time></trkpt><trkpt lat="44.800375" lon="9.6727467"><ele>471.0</ele><time>2026-05-01T15:28:07.996Z</time></trkpt><trkpt lat="44.8004333" lon="9.6726683"><ele>470.00000000000006</ele><time>2026-05-01T15:28:08.996Z</time></trkpt><trkpt lat="44.800495" lon="9.672595"><ele>469.0</ele><time>2026-05-01T15:28:09.996Z</time></trkpt><trkpt lat="44.8005633" lon="9.67252"><ele>473.0</ele><time>2026-05-01T15:28:10.997Z</time></trkpt><trkpt lat="44.80064" lon="9.6724517"><ele>477.0</ele><time>2026-05-01T15:28:11.999Z</time></trkpt><trkpt lat="44.8007183" lon="9.672385"><ele>481.0</ele><time>2026-05-01T15:28:12.999Z</time></trkpt><trkpt lat="44.8008033" lon="9.672315"><ele>485.0</ele><time>2026-05-01T15:28:13.999Z</time></trkpt><trkpt lat="44.8008867" lon="9.672235"><ele>489.0</ele><time>2026-05-01T15:28:14.997Z</time></trkpt><trkpt lat="44.8009667" lon="9.67217"><ele>488.14285714285717</ele><time>2026-05-01T15:28:15.996Z</time></trkpt><trkpt lat="44.8010433" lon="9.6721333"><ele>487.28571428571433</ele><time>2026-05-01T15:28:16.996Z</time></trkpt><trkpt lat="44.80112" lon="9.6721283"><ele>486.42857142857144</ele><time>2026-05-01T15:28:17.997Z</time></trkpt><trkpt lat="44.8011917" lon="9.6721467"><ele>485.57142857142856</ele><time>2026-05-01T15:28:18.997Z</time></trkpt><trkpt lat="44.8012633" lon="9.6721517"><ele>484.7142857142857</ele><time>2026-05-01T15:28:19.997Z</time></trkpt><trkpt lat="44.8013283" lon="9.672145"><ele>483.8571428571429</ele><time>2026-05-01T15:28:20.997Z</time></trkpt><trkpt lat="44.8013967" lon="9.6721033"><ele>483.0</ele><time>2026-05-01T15:28:21.997Z</time></trkpt><trkpt lat="44.801455" lon="9.6720167"><ele>484.6666666666667</ele><time>2026-05-01T15:28:22.998Z</time></trkpt><trkpt lat="44.8015033" lon="9.6719233"><ele>486.33333333333337</ele><time>2026-05-01T15:28:24Z</time></trkpt><trkpt lat="44.8015433" lon="9.6718317"><ele>488.0</ele><time>2026-05-01T15:28:24.999Z</time></trkpt><trkpt lat="44.8015867" lon="9.671755"><ele>489.6666666666667</ele><time>2026-05-01T15:28:25.999Z</time></trkpt><trkpt lat="44.8016883" lon="9.67168"><ele>491.33333333333337</ele><time>2026-05-01T15:28:28Z</time></trkpt><trkpt lat="44.8017733" lon="9.6717117"><ele>493.0</ele><time>2026-05-01T15:28:29.998Z</time></trkpt><trkpt lat="44.8018833" lon="9.671805"><ele>492.33333333333337</ele><time>2026-05-01T15:28:31.999Z</time></trkpt><trkpt lat="44.8019417" lon="9.6718667"><ele>491.6666666666667</ele><time>2026-05-01T15:28:33Z</time></trkpt><trkpt lat="44.8019967" lon="9.67193"><ele>491.0</ele><time>2026-05-01T15:28:33.999Z</time></trkpt><trkpt lat="44.802045" lon="9.6720017"><ele>490.33333333333337</ele><time>2026-05-01T15:28:34.999Z</time></trkpt><trkpt lat="44.8021317" lon="9.6721033"><ele>489.6666666666667</ele><time>2026-05-01T15:28:36.998Z</time></trkpt><trkpt lat="44.80219" lon="9.672155"><ele>489.0</ele><time>2026-05-01T15:28:38.999Z</time></trkpt><trkpt lat="44.8022783" lon="9.672205"><ele>489.0</ele><time>2026-05-01T15:29:04.998Z</time></trkpt><trkpt lat="44.8023983" lon="9.6722383"><ele>489.0</ele><time>2026-05-01T15:29:06.997Z</time></trkpt><trkpt lat="44.802465" lon="9.672255"><ele>489.0</ele><time>2026-05-01T15:29:07.999Z</time></trkpt><trkpt lat="44.8025383" lon="9.6722633"><ele>489.0</ele><time>2026-05-01T15:29:08.999Z</time></trkpt><trkpt lat="44.8026133" lon="9.6722633"><ele>489.0</ele><time>2026-05-01T15:29:09.997Z</time></trkpt><trkpt lat="44.8026833" lon="9.6722467"><ele>489.0</ele><time>2026-05-01T15:29:10.997Z</time></trkpt><trkpt lat="44.8027483" lon="9.6722117"><ele>489.1666666666667</ele><time>2026-05-01T15:29:11.996Z</time></trkpt><trkpt lat="44.8028117" lon="9.672165"><ele>489.33333333333337</ele><time>2026-05-01T15:29:12.997Z</time></trkpt><trkpt lat="44.802875" lon="9.6721"><ele>489.5</ele><time>2026-05-01T15:29:13.997Z</time></trkpt><trkpt lat="44.80293" lon="9.672035"><ele>489.6666666666667</ele><time>2026-05-01T15:29:14.997Z</time></trkpt><trkpt lat="44.8030217" lon="9.67191"><ele>489.83333333333337</ele><time>2026-05-01T15:29:16.998Z</time></trkpt><trkpt lat="44.8030683" lon="9.6718383"><ele>490.0</ele><time>2026-05-01T15:29:17.998Z</time></trkpt><trkpt lat="44.8031133" lon="9.6717667"><ele>492.33333333333337</ele><time>2026-05-01T15:29:18.997Z</time></trkpt><trkpt lat="44.80316" lon="9.671705"><ele>494.6666666666667</ele><time>2026-05-01T15:29:19.999Z</time></trkpt><trkpt lat="44.8032133" lon="9.67165"><ele>497.0</ele><time>2026-05-01T15:29:20.999Z</time></trkpt><trkpt lat="44.80331" lon="9.671565"><ele>499.33333333333337</ele><time>2026-05-01T15:29:22.997Z</time></trkpt><trkpt lat="44.8033633" lon="9.671485"><ele>501.6666666666667</ele><time>2026-05-01T15:29:24.997Z</time></trkpt><trkpt lat="44.803305" lon="9.6713983"><ele>504.0</ele><time>2026-05-01T15:29:27.996Z</time></trkpt><trkpt lat="44.8032017" lon="9.6713417"><ele>504.0</ele><time>2026-05-01T15:29:29.998Z</time></trkpt><trkpt lat="44.8031417" lon="9.6713133"><ele>504.0</ele><time>2026-05-01T15:29:30.997Z</time></trkpt><trkpt lat="44.8030367" lon="9.6712617"><ele>504.0</ele><time>2026-05-01T15:29:32.997Z</time></trkpt><trkpt lat="44.802985" lon="9.67118"><ele>504.0</ele><time>2026-05-01T15:29:34.997Z</time></trkpt><trkpt lat="44.8029983" lon="9.6710667"><ele>504.0</ele><time>2026-05-01T15:29:36.997Z</time></trkpt><trkpt lat="44.8030817" lon="9.6709883"><ele>504.0</ele><time>2026-05-01T15:29:38.997Z</time></trkpt><trkpt lat="44.8031433" lon="9.6709567"><ele>505.5</ele><time>2026-05-01T15:29:39.996Z</time></trkpt><trkpt lat="44.8032167" lon="9.67093"><ele>507.0</ele><time>2026-05-01T15:29:40.996Z</time></trkpt><trkpt lat="44.8032983" lon="9.6709033"><ele>508.5</ele><time>2026-05-01T15:29:41.997Z</time></trkpt><trkpt lat="44.8033783" lon="9.6708733"><ele>510.0</ele><time>2026-05-01T15:29:42.997Z</time></trkpt><trkpt lat="44.803455" lon="9.670845"><ele>511.5</ele><time>2026-05-01T15:29:43.997Z</time></trkpt><trkpt lat="44.8035293" lon="9.670813"><ele>513.0</ele><time>2026-05-01T15:29:44.997Z</time></trkpt><trkpt lat="44.8036047" lon="9.6707758"><ele>513.0</ele><time>2026-05-01T15:29:45.998Z</time></trkpt><trkpt lat="44.8036787" lon="9.6707307"><ele>513.0</ele><time>2026-05-01T15:29:46.997Z</time></trkpt><trkpt lat="44.803753" lon="9.6706848"><ele>513.0</ele><time>2026-05-01T15:29:47.998Z</time></trkpt><trkpt lat="44.8038266" lon="9.6706373"><ele>513.0</ele><time>2026-05-01T15:29:48.998Z</time></trkpt><trkpt lat="44.8038959" lon="9.6705854"><ele>513.0</ele><time>2026-05-01T15:29:49.996Z</time></trkpt><trkpt lat="44.8039598" lon="9.6705383"><ele>513.0</ele><time>2026-05-01T15:29:50.998Z</time></trkpt><trkpt lat="44.8040597" lon="9.670451"><ele>513.0</ele><time>2026-05-01T15:29:52.997Z</time></trkpt><trkpt lat="44.8041447" lon="9.6703812"><ele>513.0</ele><time>2026-05-01T15:29:54.997Z</time></trkpt><trkpt lat="44.8042202" lon="9.6703094"><ele>513.0</ele><time>2026-05-01T15:29:57Z</time></trkpt><trkpt lat="44.8042923" lon="9.6701971"><ele>513.0</ele><time>2026-05-01T15:29:58.999Z</time></trkpt><trkpt lat="44.8043228" lon="9.6701144"><ele>513.0</ele><time>2026-05-01T15:29:59.997Z</time></trkpt><trkpt lat="44.804344" lon="9.6700174"><ele>513.0</ele><time>2026-05-01T15:30:00.997Z</time></trkpt><trkpt lat="44.8043588" lon="9.66991"><ele>514.8571428571429</ele><time>2026-05-01T15:30:01.997Z</time></trkpt><trkpt lat="44.8043708" lon="9.6698093"><ele>516.7142857142858</ele><time>2026-05-01T15:30:02.998Z</time></trkpt><trkpt lat="44.8043842" lon="9.669719"><ele>518.5714285714286</ele><time>2026-05-01T15:30:03.998Z</time></trkpt><trkpt lat="44.8043997" lon="9.6696269"><ele>520.4285714285714</ele><time>2026-05-01T15:30:04.999Z</time></trkpt><trkpt lat="44.8044206" lon="9.6695284"><ele>522.2857142857142</ele><time>2026-05-01T15:30:05.999Z</time></trkpt><trkpt lat="44.8044451" lon="9.6694263"><ele>524.1428571428571</ele><time>2026-05-01T15:30:06.999Z</time></trkpt><trkpt lat="44.8044731" lon="9.6693226"><ele>526.0</ele><time>2026-05-01T15:30:07.999Z</time></trkpt><trkpt lat="44.8045015" lon="9.6692171"><ele>529.1666666666667</ele><time>2026-05-01T15:30:09Z</time></trkpt><trkpt lat="44.8045325" lon="9.6691132"><ele>532.3333333333334</ele><time>2026-05-01T15:30:09.998Z</time></trkpt><trkpt lat="44.8045633" lon="9.6690072"><ele>535.5</ele><time>2026-05-01T15:30:10.999Z</time></trkpt><trkpt lat="44.8045947" lon="9.6689034"><ele>538.6666666666666</ele><time>2026-05-01T15:30:11.999Z</time></trkpt><trkpt lat="44.804627" lon="9.6688125"><ele>541.8333333333333</ele><time>2026-05-01T15:30:12.998Z</time></trkpt><trkpt lat="44.8046991" lon="9.6686808"><ele>545.0</ele><time>2026-05-01T15:30:14.999Z</time></trkpt><trkpt lat="44.8048081" lon="9.6685998"><ele>547.1666666666666</ele><time>2026-05-01T15:30:16.997Z</time></trkpt><trkpt lat="44.8048718" lon="9.6685801"><ele>549.3333333333333</ele><time>2026-05-01T15:30:17.999Z</time></trkpt><trkpt lat="44.8049363" lon="9.6685696"><ele>551.5</ele><time>2026-05-01T15:30:18.998Z</time></trkpt><trkpt lat="44.8050602" lon="9.6685738"><ele>553.6666666666666</ele><time>2026-05-01T15:30:20.996Z</time></trkpt><trkpt lat="44.8051238" lon="9.6685953"><ele>555.8333333333334</ele><time>2026-05-01T15:30:21.997Z</time></trkpt><trkpt lat="44.8051874" lon="9.668628"><ele>558.0</ele><time>2026-05-01T15:30:22.996Z</time></trkpt><trkpt lat="44.8052561" lon="9.6686706"><ele>559.4285714285713</ele><time>2026-05-01T15:30:23.996Z</time></trkpt><trkpt lat="44.8053281" lon="9.6687217"><ele>560.8571428571429</ele><time>2026-05-01T15:30:24.996Z</time></trkpt><trkpt lat="44.8053974" lon="9.668768"><ele>562.2857142857142</ele><time>2026-05-01T15:30:25.996Z</time></trkpt><trkpt lat="44.8054628" lon="9.6688093"><ele>563.7142857142857</ele><time>2026-05-01T15:30:26.997Z</time></trkpt><trkpt lat="44.8055228" lon="9.6688519"><ele>565.1428571428571</ele><time>2026-05-01T15:30:27.998Z</time></trkpt><trkpt lat="44.8055793" lon="9.6689011"><ele>566.5714285714286</ele><time>2026-05-01T15:30:28.996Z</time></trkpt><trkpt lat="44.8056299" lon="9.6689669"><ele>568.0</ele><time>2026-05-01T15:30:29.996Z</time></trkpt><trkpt lat="44.8056698" lon="9.6690477"><ele>568.0</ele><time>2026-05-01T15:30:30.996Z</time></trkpt><trkpt lat="44.8057045" lon="9.6691358"><ele>568.0</ele><time>2026-05-01T15:30:31.997Z</time></trkpt><trkpt lat="44.8057467" lon="9.6692183"><ele>568.0</ele><time>2026-05-01T15:30:32.996Z</time></trkpt><trkpt lat="44.8057917" lon="9.6692967"><ele>568.0</ele><time>2026-05-01T15:30:33.996Z</time></trkpt><trkpt lat="44.8058433" lon="9.66937"><ele>568.0</ele><time>2026-05-01T15:30:34.997Z</time></trkpt><trkpt lat="44.8059" lon="9.6694383"><ele>568.0</ele><time>2026-05-01T15:30:35.997Z</time></trkpt><trkpt lat="44.80596" lon="9.6694983"><ele>568.0</ele><time>2026-05-01T15:30:36.996Z</time></trkpt><trkpt lat="44.8060133" lon="9.66955"><ele>567.0</ele><time>2026-05-01T15:30:37.997Z</time></trkpt><trkpt lat="44.8060783" lon="9.6695883"><ele>566.0</ele><time>2026-05-01T15:30:38.996Z</time></trkpt><trkpt lat="44.8061433" lon="9.669615"><ele>565.0</ele><time>2026-05-01T15:30:39.996Z</time></trkpt><trkpt lat="44.80621" lon="9.6696233"><ele>564.0</ele><time>2026-05-01T15:30:40.996Z</time></trkpt><trkpt lat="44.80632" lon="9.66959"><ele>563.0</ele><time>2026-05-01T15:30:42.998Z</time></trkpt><trkpt lat="44.8063783" lon="9.6695367"><ele>562.0</ele><time>2026-05-01T15:30:44Z</time></trkpt><trkpt lat="44.8064367" lon="9.6694917"><ele>565.8000000000001</ele><time>2026-05-01T15:30:44.996Z</time></trkpt><trkpt lat="44.8065483" lon="9.669435"><ele>569.6</ele><time>2026-05-01T15:30:46.996Z</time></trkpt><trkpt lat="44.8066483" lon="9.669425"><ele>573.4000000000001</ele><time>2026-05-01T15:30:48.997Z</time></trkpt><trkpt lat="44.8067167" lon="9.6693533"><ele>577.2</ele><time>2026-05-01T15:30:50.998Z</time></trkpt><trkpt lat="44.8067283" lon="9.6692333"><ele>581.0</ele><time>2026-05-01T15:30:52.998Z</time></trkpt><trkpt lat="44.8066383" lon="9.6691033"><ele>581.0</ele><time>2026-05-01T15:30:54.996Z</time></trkpt><trkpt lat="44.8065783" lon="9.6690433"><ele>581.0</ele><time>2026-05-01T15:30:55.997Z</time></trkpt><trkpt lat="44.8065133" lon="9.6689883"><ele>581.0</ele><time>2026-05-01T15:30:56.998Z</time></trkpt><trkpt lat="44.80645" lon="9.668945"><ele>581.0</ele><time>2026-05-01T15:30:57.996Z</time></trkpt><trkpt lat="44.80632" lon="9.6689283"><ele>581.0</ele><time>2026-05-01T15:30:59.997Z</time></trkpt><trkpt lat="44.8062083" lon="9.6688917"><ele>581.0</ele><time>2026-05-01T15:31:01.996Z</time></trkpt><trkpt lat="44.8061433" lon="9.668775"><ele>581.0</ele><time>2026-05-01T15:31:03.996Z</time></trkpt><trkpt lat="44.8061083" lon="9.66862"><ele>581.0</ele><time>2026-05-01T15:31:05.997Z</time></trkpt><trkpt lat="44.8060933" lon="9.66848"><ele>581.0</ele><time>2026-05-01T15:31:07.999Z</time></trkpt><trkpt lat="44.8061267" lon="9.6683817"><ele>581.0</ele><time>2026-05-01T15:31:09.996Z</time></trkpt><trkpt lat="44.8062017" lon="9.6683233"><ele>584.6</ele><time>2026-05-01T15:31:11.997Z</time></trkpt><trkpt lat="44.80633" lon="9.6683183"><ele>588.2</ele><time>2026-05-01T15:31:13.996Z</time></trkpt><trkpt lat="44.8064067" lon="9.6683317"><ele>591.8</ele><time>2026-05-01T15:31:14.996Z</time></trkpt><trkpt lat="44.80647" lon="9.6683433"><ele>595.4</ele><time>2026-05-01T15:31:15.996Z</time></trkpt><trkpt lat="44.8065633" lon="9.6683033"><ele>599.0</ele><time>2026-05-01T15:31:17.998Z</time></trkpt><trkpt lat="44.80659" lon="9.6681833"><ele>599.0</ele><time>2026-05-01T15:31:19.996Z</time></trkpt><trkpt lat="44.80653" lon="9.6680433"><ele>599.0</ele><time>2026-05-01T15:31:21.997Z</time></trkpt><trkpt lat="44.8064617" lon="9.6678983"><ele>599.0</ele><time>2026-05-01T15:31:23.996Z</time></trkpt><trkpt lat="44.80644" lon="9.6678017"><ele>599.0</ele><time>2026-05-01T15:31:24.998Z</time></trkpt><trkpt lat="44.806425" lon="9.6677017"><ele>599.0</ele><time>2026-05-01T15:31:25.998Z</time></trkpt><trkpt lat="44.8064167" lon="9.6676"><ele>600.6666666666666</ele><time>2026-05-01T15:31:26.997Z</time></trkpt><trkpt lat="44.8064117" lon="9.667495"><ele>602.3333333333333</ele><time>2026-05-01T15:31:27.997Z</time></trkpt><trkpt lat="44.8064067" lon="9.6673933"><ele>604.0</ele><time>2026-05-01T15:31:28.996Z</time></trkpt><trkpt lat="44.8064" lon="9.6672783"><ele>605.6666666666666</ele><time>2026-05-01T15:31:29.996Z</time></trkpt><trkpt lat="44.8063933" lon="9.6671633"><ele>607.3333333333334</ele><time>2026-05-01T15:31:30.998Z</time></trkpt><trkpt lat="44.8063883" lon="9.6670417"><ele>609.0</ele><time>2026-05-01T15:31:31.997Z</time></trkpt><trkpt lat="44.8063833" lon="9.6669183"><ele>609.0</ele><time>2026-05-01T15:31:32.999Z</time></trkpt><trkpt lat="44.8063783" lon="9.666795"><ele>609.0</ele><time>2026-05-01T15:31:33.998Z</time></trkpt><trkpt lat="44.806375" lon="9.666675"><ele>609.0</ele><time>2026-05-01T15:31:35Z</time></trkpt><trkpt lat="44.8063683" lon="9.66656"><ele>609.0</ele><time>2026-05-01T15:31:36Z</time></trkpt><trkpt lat="44.806355" lon="9.66645"><ele>609.0</ele><time>2026-05-01T15:31:36.999Z</time></trkpt><trkpt lat="44.806325" lon="9.6663417"><ele>609.0</ele><time>2026-05-01T15:31:37.999Z</time></trkpt><trkpt lat="44.80628" lon="9.666235"><ele>609.0</ele><time>2026-05-01T15:31:38.999Z</time></trkpt><trkpt lat="44.806225" lon="9.6661267"><ele>609.0</ele><time>2026-05-01T15:31:39.999Z</time></trkpt><trkpt lat="44.8061783" lon="9.6660233"><ele>609.0</ele><time>2026-05-01T15:31:40.999Z</time></trkpt><trkpt lat="44.8061467" lon="9.665925"><ele>609.0</ele><time>2026-05-01T15:31:41.999Z</time></trkpt><trkpt lat="44.8061183" lon="9.6658167"><ele>609.0</ele><time>2026-05-01T15:31:42.999Z</time></trkpt><trkpt lat="44.8060883" lon="9.6657117"><ele>609.0</ele><time>2026-05-01T15:31:43.999Z</time></trkpt><trkpt lat="44.80605" lon="9.66562"><ele>610.3333333333334</ele><time>2026-05-01T15:31:44.999Z</time></trkpt><trkpt lat="44.8060033" lon="9.665545"><ele>611.6666666666666</ele><time>2026-05-01T15:31:45.999Z</time></trkpt><trkpt lat="44.8059567" lon="9.6654733"><ele>613.0</ele><time>2026-05-01T15:31:46.997Z</time></trkpt><trkpt lat="44.8059117" lon="9.6653967"><ele>614.3333333333333</ele><time>2026-05-01T15:31:47.996Z</time></trkpt><trkpt lat="44.80587" lon="9.6653083"><ele>615.6666666666666</ele><time>2026-05-01T15:31:48.999Z</time></trkpt><trkpt lat="44.8058383" lon="9.6652033"><ele>617.0</ele><time>2026-05-01T15:31:49.997Z</time></trkpt><trkpt lat="44.8058083" lon="9.6650917"><ele>617.6666666666666</ele><time>2026-05-01T15:31:50.997Z</time></trkpt><trkpt lat="44.8057717" lon="9.664985"><ele>618.3333333333333</ele><time>2026-05-01T15:31:51.996Z</time></trkpt><trkpt lat="44.805725" lon="9.6648917"><ele>619.0</ele><time>2026-05-01T15:31:52.996Z</time></trkpt><trkpt lat="44.8056733" lon="9.6648067"><ele>619.6666666666666</ele><time>2026-05-01T15:31:53.997Z</time></trkpt><trkpt lat="44.80563" lon="9.6647233"><ele>620.3333333333334</ele><time>2026-05-01T15:31:54.997Z</time></trkpt><trkpt lat="44.8056033" lon="9.6646317"><ele>621.0</ele><time>2026-05-01T15:31:55.998Z</time></trkpt><trkpt lat="44.8055917" lon="9.6645333"><ele>621.8</ele><time>2026-05-01T15:31:56.997Z</time></trkpt><trkpt lat="44.8055917" lon="9.6644217"><ele>622.6</ele><time>2026-05-01T15:31:57.996Z</time></trkpt><trkpt lat="44.80559" lon="9.664295"><ele>623.4</ele><time>2026-05-01T15:31:58.997Z</time></trkpt><trkpt lat="44.8055917" lon="9.6641567"><ele>624.2</ele><time>2026-05-01T15:31:59.996Z</time></trkpt><trkpt lat="44.805595" lon="9.6640167"><ele>625.0</ele><time>2026-05-01T15:32:00.997Z</time></trkpt><trkpt lat="44.8056067" lon="9.663895"><ele>625.0</ele><time>2026-05-01T15:32:01.996Z</time></trkpt><trkpt lat="44.8056183" lon="9.66378"><ele>625.0</ele><time>2026-05-01T15:32:02.998Z</time></trkpt><trkpt lat="44.8056233" lon="9.66368"><ele>625.0</ele><time>2026-05-01T15:32:03.997Z</time></trkpt><trkpt lat="44.8056217" lon="9.663585"><ele>625.0</ele><time>2026-05-01T15:32:04.998Z</time></trkpt><trkpt lat="44.8056" lon="9.663485"><ele>625.0</ele><time>2026-05-01T15:32:05.999Z</time></trkpt><trkpt lat="44.8055633" lon="9.6633833"><ele>625.0</ele><time>2026-05-01T15:32:06.999Z</time></trkpt><trkpt lat="44.8055133" lon="9.6632883"><ele>627.5</ele><time>2026-05-01T15:32:07.999Z</time></trkpt><trkpt lat="44.8054533" lon="9.663205"><ele>630.0</ele><time>2026-05-01T15:32:09Z</time></trkpt><trkpt lat="44.8053883" lon="9.6631467"><ele>632.5</ele><time>2026-05-01T15:32:09.999Z</time></trkpt><trkpt lat="44.80532" lon="9.6630967"><ele>635.0</ele><time>2026-05-01T15:32:10.998Z</time></trkpt><trkpt lat="44.80526" lon="9.6630333"><ele>637.5</ele><time>2026-05-01T15:32:11.997Z</time></trkpt><trkpt lat="44.8052083" lon="9.662955"><ele>640.0</ele><time>2026-05-01T15:32:12.996Z</time></trkpt><trkpt lat="44.8051667" lon="9.6628567"><ele>642.3333333333334</ele><time>2026-05-01T15:32:13.997Z</time></trkpt><trkpt lat="44.8051183" lon="9.6627467"><ele>644.6666666666667</ele><time>2026-05-01T15:32:14.996Z</time></trkpt><trkpt lat="44.805065" lon="9.66264"><ele>647.0</ele><time>2026-05-01T15:32:15.996Z</time></trkpt><trkpt lat="44.8050117" lon="9.66254"><ele>649.3333333333334</ele><time>2026-05-01T15:32:16.997Z</time></trkpt><trkpt lat="44.8049667" lon="9.6624367"><ele>651.6666666666666</ele><time>2026-05-01T15:32:17.998Z</time></trkpt><trkpt lat="44.8049333" lon="9.6623267"><ele>654.0</ele><time>2026-05-01T15:32:18.996Z</time></trkpt><trkpt lat="44.8049117" lon="9.66221"><ele>654.0</ele><time>2026-05-01T15:32:19.999Z</time></trkpt><trkpt lat="44.8049" lon="9.6620883"><ele>654.0</ele><time>2026-05-01T15:32:20.997Z</time></trkpt><trkpt lat="44.8048833" lon="9.6619633"><ele>654.0</ele><time>2026-05-01T15:32:21.997Z</time></trkpt><trkpt lat="44.8048533" lon="9.66185"><ele>654.0</ele><time>2026-05-01T15:32:22.998Z</time></trkpt><trkpt lat="44.8048267" lon="9.6617433"><ele>654.0</ele><time>2026-05-01T15:32:23.999Z</time></trkpt><trkpt lat="44.804805" lon="9.6616367"><ele>654.0</ele><time>2026-05-01T15:32:24.999Z</time></trkpt><trkpt lat="44.8047967" lon="9.6615383"><ele>655.3333333333334</ele><time>2026-05-01T15:32:25.999Z</time></trkpt><trkpt lat="44.80481" lon="9.6614283"><ele>656.6666666666666</ele><time>2026-05-01T15:32:26.997Z</time></trkpt><trkpt lat="44.804835" lon="9.6613133"><ele>658.0</ele><time>2026-05-01T15:32:27.997Z</time></trkpt><trkpt lat="44.8048567" lon="9.6611933"><ele>659.3333333333333</ele><time>2026-05-01T15:32:28.998Z</time></trkpt><trkpt lat="44.80487" lon="9.6610767"><ele>660.6666666666666</ele><time>2026-05-01T15:32:29.998Z</time></trkpt><trkpt lat="44.8048733" lon="9.660965"><ele>662.0</ele><time>2026-05-01T15:32:30.998Z</time></trkpt><trkpt lat="44.8048567" lon="9.6608583"><ele>662.0</ele><time>2026-05-01T15:32:31.999Z</time></trkpt><trkpt lat="44.804825" lon="9.6607633"><ele>662.0</ele><time>2026-05-01T15:32:32.998Z</time></trkpt><trkpt lat="44.80478" lon="9.6606767"><ele>662.0</ele><time>2026-05-01T15:32:33.998Z</time></trkpt><trkpt lat="44.804735" lon="9.6606067"><ele>662.0</ele><time>2026-05-01T15:32:34.998Z</time></trkpt><trkpt lat="44.8046783" lon="9.66049"><ele>662.0</ele><time>2026-05-01T15:32:36.998Z</time></trkpt><trkpt lat="44.8046817" lon="9.6603967"><ele>662.0</ele><time>2026-05-01T15:32:38.998Z</time></trkpt><trkpt lat="44.8047117" lon="9.6602483"><ele>660.6666666666666</ele><time>2026-05-01T15:32:40.998Z</time></trkpt><trkpt lat="44.80473" lon="9.6601483"><ele>659.3333333333333</ele><time>2026-05-01T15:32:41.997Z</time></trkpt><trkpt lat="44.8047433" lon="9.6600383"><ele>658.0</ele><time>2026-05-01T15:32:42.996Z</time></trkpt><trkpt lat="44.8047517" lon="9.659915"><ele>656.6666666666666</ele><time>2026-05-01T15:32:43.997Z</time></trkpt><trkpt lat="44.8047517" lon="9.6597883"><ele>655.3333333333334</ele><time>2026-05-01T15:32:44.997Z</time></trkpt><trkpt lat="44.8047417" lon="9.6596583"><ele>654.0</ele><time>2026-05-01T15:32:45.996Z</time></trkpt><trkpt lat="44.8047167" lon="9.6595283"><ele>653.3333333333334</ele><time>2026-05-01T15:32:46.996Z</time></trkpt><trkpt lat="44.804685" lon="9.6594033"><ele>652.6666666666666</ele><time>2026-05-01T15:32:47.998Z</time></trkpt><trkpt lat="44.8046533" lon="9.659285"><ele>652.0</ele><time>2026-05-01T15:32:48.997Z</time></trkpt><trkpt lat="44.8046217" lon="9.659175"><ele>651.3333333333333</ele><time>2026-05-01T15:32:49.996Z</time></trkpt><trkpt lat="44.8045917" lon="9.6590767"><ele>650.6666666666666</ele><time>2026-05-01T15:32:50.999Z</time></trkpt><trkpt lat="44.8045683" lon="9.6589783"><ele>650.0</ele><time>2026-05-01T15:32:51.998Z</time></trkpt><trkpt lat="44.804555" lon="9.658885"><ele>650.0</ele><time>2026-05-01T15:32:52.998Z</time></trkpt><trkpt lat="44.804585" lon="9.6587267"><ele>650.0</ele><time>2026-05-01T15:32:54.996Z</time></trkpt><trkpt lat="44.8046333" lon="9.6586533"><ele>650.0</ele><time>2026-05-01T15:32:55.996Z</time></trkpt><trkpt lat="44.8047" lon="9.658585"><ele>650.0</ele><time>2026-05-01T15:32:57Z</time></trkpt><trkpt lat="44.8047867" lon="9.6585267"><ele>650.0</ele><time>2026-05-01T15:32:57.996Z</time></trkpt><trkpt lat="44.8048833" lon="9.658475"><ele>652.0</ele><time>2026-05-01T15:32:58.996Z</time></trkpt><trkpt lat="44.8049833" lon="9.658435"><ele>654.0</ele><time>2026-05-01T15:32:59.997Z</time></trkpt><trkpt lat="44.8050833" lon="9.65839"><ele>656.0</ele><time>2026-05-01T15:33:00.996Z</time></trkpt><trkpt lat="44.8051767" lon="9.6583567"><ele>658.0</ele><time>2026-05-01T15:33:01.996Z</time></trkpt><trkpt lat="44.8052667" lon="9.6583433"><ele>660.0</ele><time>2026-05-01T15:33:02.997Z</time></trkpt><trkpt lat="44.8053583" lon="9.6583383"><ele>660.0</ele><time>2026-05-01T15:33:03.996Z</time></trkpt><trkpt lat="44.805465" lon="9.6583567"><ele>660.0</ele><time>2026-05-01T15:33:04.996Z</time></trkpt><trkpt lat="44.8055767" lon="9.6583617"><ele>660.0</ele><time>2026-05-01T15:33:05.996Z</time></trkpt><trkpt lat="44.8056867" lon="9.658365"><ele>660.0</ele><time>2026-05-01T15:33:06.998Z</time></trkpt><trkpt lat="44.80578" lon="9.6583833"><ele>660.0</ele><time>2026-05-01T15:33:07.997Z</time></trkpt><trkpt lat="44.8058833" lon="9.6584183"><ele>660.0</ele><time>2026-05-01T15:33:08.997Z</time></trkpt><trkpt lat="44.8059883" lon="9.6584767"><ele>660.0</ele><time>2026-05-01T15:33:09.996Z</time></trkpt><trkpt lat="44.8060933" lon="9.6585417"><ele>660.0</ele><time>2026-05-01T15:33:10.996Z</time></trkpt><trkpt lat="44.80619" lon="9.658585"><ele>660.0</ele><time>2026-05-01T15:33:11.996Z</time></trkpt><trkpt lat="44.8062917" lon="9.65861"><ele>660.0</ele><time>2026-05-01T15:33:12.997Z</time></trkpt><trkpt lat="44.8064" lon="9.6586233"><ele>660.0</ele><time>2026-05-01T15:33:13.996Z</time></trkpt><trkpt lat="44.8065033" lon="9.658635"><ele>660.0</ele><time>2026-05-01T15:33:14.996Z</time></trkpt><trkpt lat="44.8066017" lon="9.6586333"><ele>660.0</ele><time>2026-05-01T15:33:15.996Z</time></trkpt><trkpt lat="44.8067" lon="9.658605"><ele>660.0</ele><time>2026-05-01T15:33:16.997Z</time></trkpt><trkpt lat="44.8067933" lon="9.6585633"><ele>660.0</ele><time>2026-05-01T15:33:17.997Z</time></trkpt><trkpt lat="44.806895" lon="9.6585017"><ele>657.3333333333334</ele><time>2026-05-01T15:33:18.996Z</time></trkpt><trkpt lat="44.806985" lon="9.6584367"><ele>654.6666666666666</ele><time>2026-05-01T15:33:19.996Z</time></trkpt><trkpt lat="44.807065" lon="9.6583783"><ele>652.0</ele><time>2026-05-01T15:33:20.997Z</time></trkpt><trkpt lat="44.8071433" lon="9.6583217"><ele>649.3333333333333</ele><time>2026-05-01T15:33:21.997Z</time></trkpt><trkpt lat="44.80722" lon="9.6582783"><ele>646.6666666666666</ele><time>2026-05-01T15:33:22.997Z</time></trkpt><trkpt lat="44.80729" lon="9.6582367"><ele>644.0</ele><time>2026-05-01T15:33:23.997Z</time></trkpt><trkpt lat="44.807345" lon="9.6581833"><ele>644.0</ele><time>2026-05-01T15:33:24.996Z</time></trkpt><trkpt lat="44.8074017" lon="9.6580383"><ele>644.0</ele><time>2026-05-01T15:33:26.998Z</time></trkpt><trkpt lat="44.8073733" lon="9.6578667"><ele>644.0</ele><time>2026-05-01T15:33:28.997Z</time></trkpt><trkpt lat="44.80733" lon="9.6577717"><ele>644.0</ele><time>2026-05-01T15:33:29.996Z</time></trkpt><trkpt lat="44.8072917" lon="9.6576817"><ele>644.0</ele><time>2026-05-01T15:33:30.997Z</time></trkpt><trkpt lat="44.8072683" lon="9.6575933"><ele>644.8000000000001</ele><time>2026-05-01T15:33:31.996Z</time></trkpt><trkpt lat="44.807295" lon="9.657415"><ele>645.6</ele><time>2026-05-01T15:33:33.996Z</time></trkpt><trkpt lat="44.8073467" lon="9.6573283"><ele>646.4</ele><time>2026-05-01T15:33:34.998Z</time></trkpt><trkpt lat="44.8074" lon="9.65724"><ele>647.2</ele><time>2026-05-01T15:33:35.997Z</time></trkpt><trkpt lat="44.807455" lon="9.6571383"><ele>648.0</ele><time>2026-05-01T15:33:36.997Z</time></trkpt><trkpt lat="44.8075" lon="9.6570267"><ele>648.3333333333334</ele><time>2026-05-01T15:33:37.996Z</time></trkpt><trkpt lat="44.80755" lon="9.6569133"><ele>648.6666666666666</ele><time>2026-05-01T15:33:39Z</time></trkpt><trkpt lat="44.8075983" lon="9.6567917"><ele>649.0</ele><time>2026-05-01T15:33:39.996Z</time></trkpt><trkpt lat="44.807645" lon="9.6566833"><ele>649.3333333333333</ele><time>2026-05-01T15:33:40.996Z</time></trkpt><trkpt lat="44.8076867" lon="9.65659"><ele>649.6666666666666</ele><time>2026-05-01T15:33:41.996Z</time></trkpt><trkpt lat="44.807725" lon="9.6565133"><ele>650.0</ele><time>2026-05-01T15:33:42.997Z</time></trkpt><trkpt lat="44.8078083" lon="9.65639"><ele>643.0</ele><time>2026-05-01T15:33:44.996Z</time></trkpt><trkpt lat="44.8078733" lon="9.6562633"><ele>636.0</ele><time>2026-05-01T15:33:46.997Z</time></trkpt><trkpt lat="44.8078833" lon="9.6561333"><ele>629.0</ele><time>2026-05-01T15:33:48.996Z</time></trkpt><trkpt lat="44.8078517" lon="9.6559983"><ele>622.0</ele><time>2026-05-01T15:33:50.997Z</time></trkpt><trkpt lat="44.8077833" lon="9.65586"><ele>615.0</ele><time>2026-05-01T15:33:52.999Z</time></trkpt><trkpt lat="44.8077417" lon="9.6557933"><ele>614.75</ele><time>2026-05-01T15:33:53.998Z</time></trkpt><trkpt lat="44.8076883" lon="9.6556583"><ele>614.5</ele><time>2026-05-01T15:33:55.997Z</time></trkpt><trkpt lat="44.8077033" lon="9.655505"><ele>614.25</ele><time>2026-05-01T15:33:57.999Z</time></trkpt><trkpt lat="44.8077717" lon="9.6553717"><ele>614.0</ele><time>2026-05-01T15:33:59.999Z</time></trkpt><trkpt lat="44.807845" lon="9.6552367"><ele>613.7142857142857</ele><time>2026-05-01T15:34:02Z</time></trkpt><trkpt lat="44.8078683" lon="9.6551467"><ele>613.4285714285714</ele><time>2026-05-01T15:34:02.999Z</time></trkpt><trkpt lat="44.8078817" lon="9.6550517"><ele>613.1428571428571</ele><time>2026-05-01T15:34:03.998Z</time></trkpt><trkpt lat="44.807895" lon="9.654955"><ele>612.8571428571429</ele><time>2026-05-01T15:34:04.999Z</time></trkpt><trkpt lat="44.807905" lon="9.6548567"><ele>612.5714285714286</ele><time>2026-05-01T15:34:06Z</time></trkpt><trkpt lat="44.807915" lon="9.65476"><ele>612.2857142857142</ele><time>2026-05-01T15:34:06.998Z</time></trkpt><trkpt lat="44.8079283" lon="9.6546617"><ele>612.0</ele><time>2026-05-01T15:34:07.999Z</time></trkpt><trkpt lat="44.807945" lon="9.6545617"><ele>612.0</ele><time>2026-05-01T15:34:08.999Z</time></trkpt><trkpt lat="44.80797" lon="9.6544667"><ele>612.0</ele><time>2026-05-01T15:34:09.998Z</time></trkpt><trkpt lat="44.8080033" lon="9.654375"><ele>612.0</ele><time>2026-05-01T15:34:10.998Z</time></trkpt><trkpt lat="44.8080467" lon="9.6542767"><ele>612.0</ele><time>2026-05-01T15:34:11.999Z</time></trkpt><trkpt lat="44.8080933" lon="9.6541683"><ele>612.0</ele><time>2026-05-01T15:34:12.999Z</time></trkpt><trkpt lat="44.808135" lon="9.6540583"><ele>612.0</ele><time>2026-05-01T15:34:13.999Z</time></trkpt><trkpt lat="44.8081733" lon="9.65396"><ele>612.5</ele><time>2026-05-01T15:34:14.999Z</time></trkpt><trkpt lat="44.8082117" lon="9.6538717"><ele>613.0</ele><time>2026-05-01T15:34:15.999Z</time></trkpt><trkpt lat="44.80825" lon="9.6537917"><ele>613.5</ele><time>2026-05-01T15:34:16.998Z</time></trkpt><trkpt lat="44.80829" lon="9.65372"><ele>614.0</ele><time>2026-05-01T15:34:18Z</time></trkpt><trkpt lat="44.8083683" lon="9.6536267"><ele>614.5</ele><time>2026-05-01T15:34:19.999Z</time></trkpt><trkpt lat="44.80844" lon="9.6535983"><ele>615.0</ele><time>2026-05-01T15:34:21.998Z</time></trkpt><trkpt lat="44.8085133" lon="9.653615"><ele>612.0</ele><time>2026-05-01T15:34:23.999Z</time></trkpt><trkpt lat="44.8085683" lon="9.6536833"><ele>609.0</ele><time>2026-05-01T15:34:25.997Z</time></trkpt><trkpt lat="44.808595" lon="9.6537983"><ele>606.0</ele><time>2026-05-01T15:34:27.996Z</time></trkpt><trkpt lat="44.8086167" lon="9.6539217"><ele>603.0</ele><time>2026-05-01T15:34:29.997Z</time></trkpt><trkpt lat="44.8086467" lon="9.6540583"><ele>600.0</ele><time>2026-05-01T15:34:31.999Z</time></trkpt><trkpt lat="44.808695" lon="9.6541833"><ele>600.0</ele><time>2026-05-01T15:34:33.998Z</time></trkpt><trkpt lat="44.8087767" lon="9.6542867"><ele>600.0</ele><time>2026-05-01T15:34:35.999Z</time></trkpt><trkpt lat="44.808885" lon="9.654385"><ele>600.0</ele><time>2026-05-01T15:34:37.998Z</time></trkpt><trkpt lat="44.8089433" lon="9.6544283"><ele>600.0</ele><time>2026-05-01T15:34:38.998Z</time></trkpt><trkpt lat="44.8090033" lon="9.6544667"><ele>600.0</ele><time>2026-05-01T15:34:39.998Z</time></trkpt><trkpt lat="44.809065" lon="9.654505"><ele>600.0</ele><time>2026-05-01T15:34:40.999Z</time></trkpt><trkpt lat="44.8091267" lon="9.654545"><ele>599.7142857142857</ele><time>2026-05-01T15:34:41.997Z</time></trkpt><trkpt lat="44.8091817" lon="9.6545933"><ele>599.4285714285714</ele><time>2026-05-01T15:34:42.997Z</time></trkpt><trkpt lat="44.8092283" lon="9.6546533"><ele>599.1428571428571</ele><time>2026-05-01T15:34:43.998Z</time></trkpt><trkpt lat="44.8092717" lon="9.6547217"><ele>598.8571428571429</ele><time>2026-05-01T15:34:44.997Z</time></trkpt><trkpt lat="44.80932" lon="9.6547967"><ele>598.5714285714286</ele><time>2026-05-01T15:34:45.996Z</time></trkpt><trkpt lat="44.80937" lon="9.6548733"><ele>598.2857142857142</ele><time>2026-05-01T15:34:46.997Z</time></trkpt><trkpt lat="44.8094217" lon="9.6549483"><ele>598.0</ele><time>2026-05-01T15:34:47.996Z</time></trkpt><trkpt lat="44.809475" lon="9.6550133"><ele>596.1666666666667</ele><time>2026-05-01T15:34:48.997Z</time></trkpt><trkpt lat="44.80953" lon="9.6550633"><ele>594.3333333333334</ele><time>2026-05-01T15:34:49.997Z</time></trkpt><trkpt lat="44.8096433" lon="9.6550983"><ele>592.5</ele><time>2026-05-01T15:34:51.998Z</time></trkpt><trkpt lat="44.809745" lon="9.655025"><ele>590.6666666666666</ele><time>2026-05-01T15:34:54Z</time></trkpt><trkpt lat="44.809785" lon="9.65495"><ele>588.8333333333333</ele><time>2026-05-01T15:34:54.998Z</time></trkpt><trkpt lat="44.8098303" lon="9.6548691"><ele>587.0</ele><time>2026-05-01T15:34:55.999Z</time></trkpt><trkpt lat="44.8098816" lon="9.6547879"><ele>587.0</ele><time>2026-05-01T15:34:56.999Z</time></trkpt><trkpt lat="44.8099401" lon="9.6547117"><ele>587.0</ele><time>2026-05-01T15:34:57.999Z</time></trkpt><trkpt lat="44.8100056" lon="9.654646"><ele>587.0</ele><time>2026-05-01T15:34:59Z</time></trkpt><trkpt lat="44.8100809" lon="9.6545953"><ele>587.0</ele><time>2026-05-01T15:34:59.998Z</time></trkpt><trkpt lat="44.8101689" lon="9.6545606"><ele>587.0</ele><time>2026-05-01T15:35:00.998Z</time></trkpt><trkpt lat="44.8102605" lon="9.6545411"><ele>587.0</ele><time>2026-05-01T15:35:02Z</time></trkpt><trkpt lat="44.8103512" lon="9.6545258"><ele>585.1666666666666</ele><time>2026-05-01T15:35:02.998Z</time></trkpt><trkpt lat="44.810436" lon="9.654513"><ele>583.3333333333333</ele><time>2026-05-01T15:35:03.998Z</time></trkpt><trkpt lat="44.8105144" lon="9.6545079"><ele>581.5</ele><time>2026-05-01T15:35:04.998Z</time></trkpt><trkpt lat="44.810584" lon="9.6545151"><ele>579.6666666666666</ele><time>2026-05-01T15:35:05.999Z</time></trkpt><trkpt lat="44.8106482" lon="9.6545363"><ele>577.8333333333334</ele><time>2026-05-01T15:35:06.998Z</time></trkpt><trkpt lat="44.8107597" lon="9.6546158"><ele>576.0</ele><time>2026-05-01T15:35:08.997Z</time></trkpt><trkpt lat="44.8108763" lon="9.6546683"><ele>575.8333333333334</ele><time>2026-05-01T15:35:10.998Z</time></trkpt><trkpt lat="44.8109953" lon="9.6546923"><ele>575.6666666666666</ele><time>2026-05-01T15:35:12.996Z</time></trkpt><trkpt lat="44.8111054" lon="9.6547318"><ele>575.5</ele><time>2026-05-01T15:35:14.997Z</time></trkpt><trkpt lat="44.8111674" lon="9.6547536"><ele>575.3333333333333</ele><time>2026-05-01T15:35:15.997Z</time></trkpt><trkpt lat="44.8112336" lon="9.6547753"><ele>575.1666666666666</ele><time>2026-05-01T15:35:16.998Z</time></trkpt><trkpt lat="44.8112966" lon="9.6547943"><ele>575.0</ele><time>2026-05-01T15:35:18Z</time></trkpt><trkpt lat="44.8114031" lon="9.654815"><ele>575.0</ele><time>2026-05-01T15:35:19.998Z</time></trkpt><trkpt lat="44.8115132" lon="9.6548174"><ele>575.0</ele><time>2026-05-01T15:35:21.998Z</time></trkpt><trkpt lat="44.8115801" lon="9.6548076"><ele>575.0</ele><time>2026-05-01T15:35:22.998Z</time></trkpt><trkpt lat="44.8116573" lon="9.6547904"><ele>575.0</ele><time>2026-05-01T15:35:23.998Z</time></trkpt><trkpt lat="44.8117423" lon="9.6547661"><ele>575.0</ele><time>2026-05-01T15:35:24.999Z</time></trkpt><trkpt lat="44.8118334" lon="9.6547222"><ele>575.0</ele><time>2026-05-01T15:35:25.996Z</time></trkpt><trkpt lat="44.8119277" lon="9.6546585"><ele>576.0</ele><time>2026-05-01T15:35:26.997Z</time></trkpt><trkpt lat="44.8120247" lon="9.6545872"><ele>577.0</ele><time>2026-05-01T15:35:27.996Z</time></trkpt><trkpt lat="44.8121153" lon="9.6545285"><ele>578.0</ele><time>2026-05-01T15:35:29Z</time></trkpt><trkpt lat="44.8122017" lon="9.6544828"><ele>579.0</ele><time>2026-05-01T15:35:29.998Z</time></trkpt><trkpt lat="44.8122813" lon="9.6544516"><ele>580.0</ele><time>2026-05-01T15:35:30.998Z</time></trkpt><trkpt lat="44.812355" lon="9.6544453"><ele>580.1666666666667</ele><time>2026-05-01T15:35:31.999Z</time></trkpt><trkpt lat="44.8124229" lon="9.654463"><ele>580.3333333333334</ele><time>2026-05-01T15:35:32.999Z</time></trkpt><trkpt lat="44.8124759" lon="9.6545182"><ele>580.5</ele><time>2026-05-01T15:35:33.998Z</time></trkpt><trkpt lat="44.8125161" lon="9.6545973"><ele>580.6666666666666</ele><time>2026-05-01T15:35:34.998Z</time></trkpt><trkpt lat="44.8125467" lon="9.6546867"><ele>580.8333333333333</ele><time>2026-05-01T15:35:35.999Z</time></trkpt><trkpt lat="44.8126367" lon="9.6547783"><ele>581.0</ele><time>2026-05-01T15:35:37.999Z</time></trkpt><trkpt lat="44.812735" lon="9.6547333"><ele>581.2857142857143</ele><time>2026-05-01T15:35:39.999Z</time></trkpt><trkpt lat="44.81279" lon="9.6546767"><ele>581.5714285714286</ele><time>2026-05-01T15:35:41Z</time></trkpt><trkpt lat="44.8128483" lon="9.65461"><ele>581.8571428571429</ele><time>2026-05-01T15:35:41.999Z</time></trkpt><trkpt lat="44.8129067" lon="9.6545417"><ele>582.1428571428571</ele><time>2026-05-01T15:35:42.999Z</time></trkpt><trkpt lat="44.8129667" lon="9.6544933"><ele>582.4285714285714</ele><time>2026-05-01T15:35:43.996Z</time></trkpt><trkpt lat="44.8130367" lon="9.6544567"><ele>582.7142857142858</ele><time>2026-05-01T15:35:44.997Z</time></trkpt><trkpt lat="44.813115" lon="9.6544433"><ele>583.0</ele><time>2026-05-01T15:35:45.996Z</time></trkpt><trkpt lat="44.813195" lon="9.65444"><ele>583.0</ele><time>2026-05-01T15:35:46.996Z</time></trkpt><trkpt lat="44.8132683" lon="9.6544533"><ele>583.0</ele><time>2026-05-01T15:35:47.996Z</time></trkpt><trkpt lat="44.8133333" lon="9.654475"><ele>583.0</ele><time>2026-05-01T15:35:48.996Z</time></trkpt><trkpt lat="44.81342" lon="9.6545567"><ele>583.0</ele><time>2026-05-01T15:35:50.997Z</time></trkpt><trkpt lat="44.8134633" lon="9.654695"><ele>583.0</ele><time>2026-05-01T15:35:52.996Z</time></trkpt><trkpt lat="44.8134733" lon="9.65479"><ele>583.0</ele><time>2026-05-01T15:35:53.998Z</time></trkpt><trkpt lat="44.8134833" lon="9.654915"><ele>581.6</ele><time>2026-05-01T15:35:54.997Z</time></trkpt><trkpt lat="44.8134933" lon="9.6550567"><ele>580.1999999999999</ele><time>2026-05-01T15:35:55.997Z</time></trkpt><trkpt lat="44.813505" lon="9.655195"><ele>578.8</ele><time>2026-05-01T15:35:56.997Z</time></trkpt><trkpt lat="44.813515" lon="9.6553217"><ele>577.4</ele><time>2026-05-01T15:35:57.999Z</time></trkpt><trkpt lat="44.81353" lon="9.655445"><ele>576.0</ele><time>2026-05-01T15:35:59.001Z</time></trkpt><trkpt lat="44.8135533" lon="9.6555617"><ele>578.3333333333334</ele><time>2026-05-01T15:35:59.999Z</time></trkpt><trkpt lat="44.8135833" lon="9.6556683"><ele>580.6666666666666</ele><time>2026-05-01T15:36:00.998Z</time></trkpt><trkpt lat="44.81363" lon="9.655765"><ele>583.0</ele><time>2026-05-01T15:36:01.999Z</time></trkpt><trkpt lat="44.813685" lon="9.6558583"><ele>585.3333333333333</ele><time>2026-05-01T15:36:02.998Z</time></trkpt><trkpt lat="44.813745" lon="9.6559567"><ele>587.6666666666666</ele><time>2026-05-01T15:36:03.998Z</time></trkpt><trkpt lat="44.813795" lon="9.6560583"><ele>590.0</ele><time>2026-05-01T15:36:04.998Z</time></trkpt><trkpt lat="44.8138367" lon="9.65617"><ele>590.4</ele><time>2026-05-01T15:36:05.999Z</time></trkpt><trkpt lat="44.8138717" lon="9.6562917"><ele>590.8</ele><time>2026-05-01T15:36:06.998Z</time></trkpt><trkpt lat="44.81391" lon="9.6564283"><ele>591.2</ele><time>2026-05-01T15:36:07.998Z</time></trkpt><trkpt lat="44.8139567" lon="9.6565783"><ele>591.6</ele><time>2026-05-01T15:36:08.998Z</time></trkpt><trkpt lat="44.8140017" lon="9.656725"><ele>592.0</ele><time>2026-05-01T15:36:09.997Z</time></trkpt><trkpt lat="44.814045" lon="9.656865"><ele>589.4</ele><time>2026-05-01T15:36:10.998Z</time></trkpt><trkpt lat="44.8140883" lon="9.6570033"><ele>586.8000000000001</ele><time>2026-05-01T15:36:11.998Z</time></trkpt><trkpt lat="44.81413" lon="9.6571417"><ele>584.2</ele><time>2026-05-01T15:36:12.997Z</time></trkpt><trkpt lat="44.814175" lon="9.6572733"><ele>581.6</ele><time>2026-05-01T15:36:13.999Z</time></trkpt><trkpt lat="44.81423" lon="9.6573867"><ele>579.0</ele><time>2026-05-01T15:36:14.997Z</time></trkpt><trkpt lat="44.8142883" lon="9.6574683"><ele>578.2857142857142</ele><time>2026-05-01T15:36:15.998Z</time></trkpt><trkpt lat="44.8143533" lon="9.6575317"><ele>577.5714285714286</ele><time>2026-05-01T15:36:16.997Z</time></trkpt><trkpt lat="44.8144167" lon="9.6575817"><ele>576.8571428571429</ele><time>2026-05-01T15:36:17.998Z</time></trkpt><trkpt lat="44.8144717" lon="9.657635"><ele>576.1428571428571</ele><time>2026-05-01T15:36:18.999Z</time></trkpt><trkpt lat="44.8145217" lon="9.657695"><ele>575.4285714285714</ele><time>2026-05-01T15:36:19.997Z</time></trkpt><trkpt lat="44.8145717" lon="9.65776"><ele>574.7142857142857</ele><time>2026-05-01T15:36:20.997Z</time></trkpt><trkpt lat="44.8146217" lon="9.65783"><ele>574.0</ele><time>2026-05-01T15:36:21.997Z</time></trkpt><trkpt lat="44.8146733" lon="9.6578917"><ele>573.4285714285714</ele><time>2026-05-01T15:36:22.998Z</time></trkpt><trkpt lat="44.814725" lon="9.6579517"><ele>572.8571428571429</ele><time>2026-05-01T15:36:24Z</time></trkpt><trkpt lat="44.8147767" lon="9.6580167"><ele>572.2857142857142</ele><time>2026-05-01T15:36:24.999Z</time></trkpt><trkpt lat="44.8148283" lon="9.6580867"><ele>571.7142857142858</ele><time>2026-05-01T15:36:25.997Z</time></trkpt><trkpt lat="44.814885" lon="9.6581617"><ele>571.1428571428571</ele><time>2026-05-01T15:36:26.997Z</time></trkpt><trkpt lat="44.814945" lon="9.65823"><ele>570.5714285714286</ele><time>2026-05-01T15:36:27.997Z</time></trkpt><trkpt lat="44.815005" lon="9.65828"><ele>570.0</ele><time>2026-05-01T15:36:28.997Z</time></trkpt><trkpt lat="44.8151083" lon="9.6582867"><ele>570.2</ele><time>2026-05-01T15:36:30.996Z</time></trkpt><trkpt lat="44.815165" lon="9.6581517"><ele>570.4</ele><time>2026-05-01T15:36:32.999Z</time></trkpt><trkpt lat="44.815185" lon="9.6580467"><ele>570.6</ele><time>2026-05-01T15:36:33.998Z</time></trkpt><trkpt lat="44.8152183" lon="9.657935"><ele>570.8</ele><time>2026-05-01T15:36:34.997Z</time></trkpt><trkpt lat="44.8152717" lon="9.6578317"><ele>571.0</ele><time>2026-05-01T15:36:35.996Z</time></trkpt><trkpt lat="44.815345" lon="9.6577483"><ele>568.25</ele><time>2026-05-01T15:36:36.996Z</time></trkpt><trkpt lat="44.815435" lon="9.65768"><ele>565.5</ele><time>2026-05-01T15:36:37.997Z</time></trkpt><trkpt lat="44.815545" lon="9.6576167"><ele>562.75</ele><time>2026-05-01T15:36:38.997Z</time></trkpt><trkpt lat="44.8156633" lon="9.65756"><ele>560.0</ele><time>2026-05-01T15:36:39.996Z</time></trkpt><trkpt lat="44.8157817" lon="9.6574983"><ele>560.0</ele><time>2026-05-01T15:36:40.996Z</time></trkpt><trkpt lat="44.81589" lon="9.6574283"><ele>560.0</ele><time>2026-05-01T15:36:41.996Z</time></trkpt><trkpt lat="44.8159783" lon="9.65735"><ele>560.0</ele><time>2026-05-01T15:36:42.997Z</time></trkpt><trkpt lat="44.8160483" lon="9.65726"><ele>560.0</ele><time>2026-05-01T15:36:43.998Z</time></trkpt><trkpt lat="44.816095" lon="9.6571567"><ele>560.0</ele><time>2026-05-01T15:36:44.997Z</time></trkpt><trkpt lat="44.8161167" lon="9.65703"><ele>555.8</ele><time>2026-05-01T15:36:45.997Z</time></trkpt><trkpt lat="44.8161167" lon="9.65689"><ele>551.6</ele><time>2026-05-01T15:36:46.996Z</time></trkpt><trkpt lat="44.8161233" lon="9.6567533"><ele>547.4</ele><time>2026-05-01T15:36:47.996Z</time></trkpt><trkpt lat="44.816145" lon="9.6566217"><ele>543.2</ele><time>2026-05-01T15:36:48.998Z</time></trkpt><trkpt lat="44.816175" lon="9.656495"><ele>539.0</ele><time>2026-05-01T15:36:49.996Z</time></trkpt><trkpt lat="44.8162" lon="9.6563683"><ele>539.0</ele><time>2026-05-01T15:36:50.996Z</time></trkpt><trkpt lat="44.8162133" lon="9.6562483"><ele>539.0</ele><time>2026-05-01T15:36:51.997Z</time></trkpt><trkpt lat="44.8162167" lon="9.6561417"><ele>539.0</ele><time>2026-05-01T15:36:52.996Z</time></trkpt><trkpt lat="44.8162133" lon="9.65601"><ele>539.0</ele><time>2026-05-01T15:36:54.996Z</time></trkpt><trkpt lat="44.81628" lon="9.65599"><ele>539.0</ele><time>2026-05-01T15:36:58Z</time></trkpt><trkpt lat="44.81631" lon="9.656105"><ele>539.0</ele><time>2026-05-01T15:36:59.996Z</time></trkpt><trkpt lat="44.816315" lon="9.6562017"><ele>539.0</ele><time>2026-05-01T15:37:00.996Z</time></trkpt><trkpt lat="44.8163217" lon="9.6562983"><ele>539.0</ele><time>2026-05-01T15:37:01.996Z</time></trkpt><trkpt lat="44.8163367" lon="9.656405"><ele>539.0</ele><time>2026-05-01T15:37:02.997Z</time></trkpt><trkpt lat="44.8163683" lon="9.6565133"><ele>539.0</ele><time>2026-05-01T15:37:03.998Z</time></trkpt><trkpt lat="44.8164183" lon="9.6566"><ele>539.0</ele><time>2026-05-01T15:37:04.999Z</time></trkpt><trkpt lat="44.8164817" lon="9.6566567"><ele>539.0</ele><time>2026-05-01T15:37:05.998Z</time></trkpt><trkpt lat="44.816555" lon="9.6566883"><ele>539.0</ele><time>2026-05-01T15:37:06.999Z</time></trkpt><trkpt lat="44.8166333" lon="9.6566817"><ele>539.0</ele><time>2026-05-01T15:37:07.998Z</time></trkpt><trkpt lat="44.8167217" lon="9.6566533"><ele>539.0</ele><time>2026-05-01T15:37:08.999Z</time></trkpt><trkpt lat="44.8168217" lon="9.656615"><ele>539.0</ele><time>2026-05-01T15:37:09.999Z</time></trkpt><trkpt lat="44.816925" lon="9.6565967"><ele>539.0</ele><time>2026-05-01T15:37:10.998Z</time></trkpt><trkpt lat="44.8170367" lon="9.6566083"><ele>538.6</ele><time>2026-05-01T15:37:11.998Z</time></trkpt><trkpt lat="44.8171467" lon="9.6566483"><ele>538.2</ele><time>2026-05-01T15:37:12.998Z</time></trkpt><trkpt lat="44.8172483" lon="9.6567083"><ele>537.8000000000001</ele><time>2026-05-01T15:37:13.998Z</time></trkpt><trkpt lat="44.817335" lon="9.6567867"><ele>537.4</ele><time>2026-05-01T15:37:14.998Z</time></trkpt><trkpt lat="44.8174" lon="9.65689"><ele>537.0</ele><time>2026-05-01T15:37:15.996Z</time></trkpt><trkpt lat="44.81746" lon="9.6570167"><ele>537.0</ele><time>2026-05-01T15:37:16.997Z</time></trkpt><trkpt lat="44.8175233" lon="9.6571233"><ele>537.0</ele><time>2026-05-01T15:37:17.997Z</time></trkpt><trkpt lat="44.8176117" lon="9.6572"><ele>537.0</ele><time>2026-05-01T15:37:18.998Z</time></trkpt><trkpt lat="44.8177283" lon="9.6572533"><ele>537.0</ele><time>2026-05-01T15:37:19.997Z</time></trkpt><trkpt lat="44.8178683" lon="9.657295"><ele>534.0</ele><time>2026-05-01T15:37:20.997Z</time></trkpt><trkpt lat="44.81801" lon="9.6573433"><ele>531.0</ele><time>2026-05-01T15:37:21.996Z</time></trkpt><trkpt lat="44.8181367" lon="9.6574033"><ele>528.0</ele><time>2026-05-01T15:37:22.996Z</time></trkpt><trkpt lat="44.818235" lon="9.6574783"><ele>525.0</ele><time>2026-05-01T15:37:23.997Z</time></trkpt><trkpt lat="44.8183017" lon="9.6575633"><ele>525.0</ele><time>2026-05-01T15:37:24.997Z</time></trkpt><trkpt lat="44.818345" lon="9.6576567"><ele>525.0</ele><time>2026-05-01T15:37:25.999Z</time></trkpt><trkpt lat="44.8183633" lon="9.6577583"><ele>525.0</ele><time>2026-05-01T15:37:26.998Z</time></trkpt><trkpt lat="44.8183533" lon="9.6578717"><ele>525.0</ele><time>2026-05-01T15:37:27.996Z</time></trkpt><trkpt lat="44.8183167" lon="9.6579867"><ele>525.0</ele><time>2026-05-01T15:37:28.996Z</time></trkpt><trkpt lat="44.81826" lon="9.65811"><ele>525.0</ele><time>2026-05-01T15:37:29.997Z</time></trkpt><trkpt lat="44.8182067" lon="9.658245"><ele>525.0</ele><time>2026-05-01T15:37:30.996Z</time></trkpt><trkpt lat="44.8181767" lon="9.6584033"><ele>525.0</ele><time>2026-05-01T15:37:31.996Z</time></trkpt><trkpt lat="44.8181867" lon="9.6585833"><ele>525.0</ele><time>2026-05-01T15:37:32.998Z</time></trkpt><trkpt lat="44.8182367" lon="9.6587917"><ele>525.0</ele><time>2026-05-01T15:37:33.996Z</time></trkpt><trkpt lat="44.8183083" lon="9.6590117"><ele>526.3333333333334</ele><time>2026-05-01T15:37:34.996Z</time></trkpt><trkpt lat="44.818385" lon="9.6592233"><ele>527.6666666666667</ele><time>2026-05-01T15:37:35.997Z</time></trkpt><trkpt lat="44.8184567" lon="9.6594133"><ele>529.0</ele><time>2026-05-01T15:37:36.998Z</time></trkpt><trkpt lat="44.8185183" lon="9.659585"><ele>523.5</ele><time>2026-05-01T15:37:37.998Z</time></trkpt><trkpt lat="44.818555" lon="9.6597533"><ele>518.0</ele><time>2026-05-01T15:37:38.999Z</time></trkpt><trkpt lat="44.8185617" lon="9.65993"><ele>512.5</ele><time>2026-05-01T15:37:39.996Z</time></trkpt><trkpt lat="44.8185517" lon="9.6601033"><ele>507.0</ele><time>2026-05-01T15:37:40.997Z</time></trkpt><trkpt lat="44.81855" lon="9.6602633"><ele>508.40000000000003</ele><time>2026-05-01T15:37:41.998Z</time></trkpt><trkpt lat="44.818575" lon="9.6604"><ele>509.80000000000007</ele><time>2026-05-01T15:37:42.999Z</time></trkpt><trkpt lat="44.8186317" lon="9.66052"><ele>511.2</ele><time>2026-05-01T15:37:44Z</time></trkpt><trkpt lat="44.8187183" lon="9.6606183"><ele>512.6</ele><time>2026-05-01T15:37:44.998Z</time></trkpt><trkpt lat="44.8188183" lon="9.6606933"><ele>514.0</ele><time>2026-05-01T15:37:45.996Z</time></trkpt><trkpt lat="44.8189233" lon="9.6607633"><ele>514.0</ele><time>2026-05-01T15:37:46.996Z</time></trkpt><trkpt lat="44.8190167" lon="9.6608433"><ele>514.0</ele><time>2026-05-01T15:37:47.996Z</time></trkpt><trkpt lat="44.8190817" lon="9.6609417"><ele>514.0</ele><time>2026-05-01T15:37:48.997Z</time></trkpt><trkpt lat="44.8191333" lon="9.6610667"><ele>514.0</ele><time>2026-05-01T15:37:49.996Z</time></trkpt><trkpt lat="44.8191733" lon="9.6612133"><ele>514.0</ele><time>2026-05-01T15:37:50.997Z</time></trkpt><trkpt lat="44.8192183" lon="9.6613667"><ele>515.5</ele><time>2026-05-01T15:37:51.997Z</time></trkpt><trkpt lat="44.819265" lon="9.661525"><ele>517.0</ele><time>2026-05-01T15:37:52.997Z</time></trkpt><trkpt lat="44.8193117" lon="9.661685"><ele>518.5</ele><time>2026-05-01T15:37:53.996Z</time></trkpt><trkpt lat="44.8193617" lon="9.66185"><ele>520.0</ele><time>2026-05-01T15:37:54.997Z</time></trkpt><trkpt lat="44.81941" lon="9.66202"><ele>514.75</ele><time>2026-05-01T15:37:55.997Z</time></trkpt><trkpt lat="44.8194533" lon="9.6621917"><ele>509.5</ele><time>2026-05-01T15:37:56.999Z</time></trkpt><trkpt lat="44.81949" lon="9.6623567"><ele>504.25</ele><time>2026-05-01T15:37:57.997Z</time></trkpt><trkpt lat="44.8195233" lon="9.662515"><ele>499.0</ele><time>2026-05-01T15:37:58.999Z</time></trkpt><trkpt lat="44.8195417" lon="9.6626683"><ele>497.75</ele><time>2026-05-01T15:37:59.997Z</time></trkpt><trkpt lat="44.8195467" lon="9.6628233"><ele>496.5</ele><time>2026-05-01T15:38:00.997Z</time></trkpt><trkpt lat="44.8195333" lon="9.662985"><ele>495.25</ele><time>2026-05-01T15:38:01.997Z</time></trkpt><trkpt lat="44.8195067" lon="9.6631583"><ele>494.0</ele><time>2026-05-01T15:38:02.997Z</time></trkpt><trkpt lat="44.8194683" lon="9.6633333"><ele>494.0</ele><time>2026-05-01T15:38:03.998Z</time></trkpt><trkpt lat="44.8194283" lon="9.6635117"><ele>494.0</ele><time>2026-05-01T15:38:04.997Z</time></trkpt><trkpt lat="44.8193933" lon="9.6636817"><ele>494.0</ele><time>2026-05-01T15:38:05.997Z</time></trkpt><trkpt lat="44.81936" lon="9.663845"><ele>494.0</ele><time>2026-05-01T15:38:06.996Z</time></trkpt><trkpt lat="44.8193283" lon="9.6639933"><ele>496.3333333333333</ele><time>2026-05-01T15:38:07.997Z</time></trkpt><trkpt lat="44.8192983" lon="9.6641167"><ele>498.66666666666663</ele><time>2026-05-01T15:38:08.996Z</time></trkpt><trkpt lat="44.8192667" lon="9.6642283"><ele>501.0</ele><time>2026-05-01T15:38:09.996Z</time></trkpt><trkpt lat="44.81923" lon="9.6643333"><ele>503.33333333333337</ele><time>2026-05-01T15:38:10.996Z</time></trkpt><trkpt lat="44.8191917" lon="9.6644383"><ele>505.6666666666667</ele><time>2026-05-01T15:38:11.996Z</time></trkpt><trkpt lat="44.819145" lon="9.6645517"><ele>508.0</ele><time>2026-05-01T15:38:12.996Z</time></trkpt><trkpt lat="44.819095" lon="9.664675"><ele>508.0</ele><time>2026-05-01T15:38:13.996Z</time></trkpt><trkpt lat="44.8190383" lon="9.6648017"><ele>507.99999999999994</ele><time>2026-05-01T15:38:14.997Z</time></trkpt><trkpt lat="44.8189883" lon="9.6649317"><ele>507.99999999999994</ele><time>2026-05-01T15:38:15.997Z</time></trkpt><trkpt lat="44.8189417" lon="9.6650533"><ele>508.0</ele><time>2026-05-01T15:38:16.997Z</time></trkpt><trkpt lat="44.8189" lon="9.665165"><ele>508.0</ele><time>2026-05-01T15:38:17.997Z</time></trkpt><trkpt lat="44.8188617" lon="9.6652683"><ele>508.2</ele><time>2026-05-01T15:38:18.996Z</time></trkpt><trkpt lat="44.818825" lon="9.66537"><ele>508.4</ele><time>2026-05-01T15:38:19.996Z</time></trkpt><trkpt lat="44.8187933" lon="9.6654583"><ele>508.59999999999997</ele><time>2026-05-01T15:38:20.997Z</time></trkpt><trkpt lat="44.8187617" lon="9.6655883"><ele>508.79999999999995</ele><time>2026-05-01T15:38:22.997Z</time></trkpt><trkpt lat="44.8188083" lon="9.665705"><ele>509.0</ele><time>2026-05-01T15:38:24.997Z</time></trkpt><trkpt lat="44.8189233" lon="9.6657867"><ele>509.0</ele><time>2026-05-01T15:38:26.997Z</time></trkpt><trkpt lat="44.8190067" lon="9.665795"><ele>509.0</ele><time>2026-05-01T15:38:27.996Z</time></trkpt><trkpt lat="44.8191067" lon="9.6657833"><ele>509.0</ele><time>2026-05-01T15:38:28.997Z</time></trkpt><trkpt lat="44.8192233" lon="9.665765"><ele>509.0</ele><time>2026-05-01T15:38:29.996Z</time></trkpt><trkpt lat="44.819335" lon="9.6657333"><ele>509.0</ele><time>2026-05-01T15:38:30.997Z</time></trkpt><trkpt lat="44.8194467" lon="9.6656717"><ele>510.79999999999995</ele><time>2026-05-01T15:38:31.996Z</time></trkpt><trkpt lat="44.8195517" lon="9.6655883"><ele>512.5999999999999</ele><time>2026-05-01T15:38:32.997Z</time></trkpt><trkpt lat="44.8196417" lon="9.6655083"><ele>514.4</ele><time>2026-05-01T15:38:33.998Z</time></trkpt><trkpt lat="44.8197217" lon="9.6654567"><ele>516.1999999999999</ele><time>2026-05-01T15:38:34.996Z</time></trkpt><trkpt lat="44.8198033" lon="9.6654217"><ele>518.0</ele><time>2026-05-01T15:38:35.996Z</time></trkpt><trkpt lat="44.8198967" lon="9.6654167"><ele>518.0</ele><time>2026-05-01T15:38:36.998Z</time></trkpt><trkpt lat="44.82" lon="9.6654217"><ele>518.0</ele><time>2026-05-01T15:38:37.996Z</time></trkpt><trkpt lat="44.8201083" lon="9.6654233"><ele>518.0</ele><time>2026-05-01T15:38:38.998Z</time></trkpt><trkpt lat="44.8202167" lon="9.6654217"><ele>518.0</ele><time>2026-05-01T15:38:39.997Z</time></trkpt><trkpt lat="44.820325" lon="9.6654283"><ele>518.0</ele><time>2026-05-01T15:38:40.999Z</time></trkpt><trkpt lat="44.820425" lon="9.6654583"><ele>519.0</ele><time>2026-05-01T15:38:42Z</time></trkpt><trkpt lat="44.820525" lon="9.6655083"><ele>520.0</ele><time>2026-05-01T15:38:42.998Z</time></trkpt><trkpt lat="44.8206167" lon="9.6655817"><ele>521.0</ele><time>2026-05-01T15:38:43.998Z</time></trkpt><trkpt lat="44.8207017" lon="9.6656833"><ele>522.0</ele><time>2026-05-01T15:38:44.998Z</time></trkpt><trkpt lat="44.82077" lon="9.6658017"><ele>523.0</ele><time>2026-05-01T15:38:45.998Z</time></trkpt><trkpt lat="44.82082" lon="9.6659233"><ele>523.0</ele><time>2026-05-01T15:38:46.998Z</time></trkpt><trkpt lat="44.820835" lon="9.66605"><ele>523.0</ele><time>2026-05-01T15:38:47.999Z</time></trkpt><trkpt lat="44.82082" lon="9.6661683"><ele>523.0</ele><time>2026-05-01T15:38:48.996Z</time></trkpt><trkpt lat="44.8207733" lon="9.6662833"><ele>523.0</ele><time>2026-05-01T15:38:49.997Z</time></trkpt><trkpt lat="44.8207233" lon="9.6663983"><ele>523.0</ele><time>2026-05-01T15:38:50.996Z</time></trkpt><trkpt lat="44.8206967" lon="9.6665167"><ele>525.0</ele><time>2026-05-01T15:38:51.997Z</time></trkpt><trkpt lat="44.820705" lon="9.6666567"><ele>527.0</ele><time>2026-05-01T15:38:52.996Z</time></trkpt><trkpt lat="44.8207433" lon="9.6668133"><ele>529.0</ele><time>2026-05-01T15:38:53.997Z</time></trkpt><trkpt lat="44.8208017" lon="9.6669783"><ele>531.0</ele><time>2026-05-01T15:38:54.998Z</time></trkpt><trkpt lat="44.8208683" lon="9.6671433"><ele>531.2</ele><time>2026-05-01T15:38:55.997Z</time></trkpt><trkpt lat="44.8209317" lon="9.6673067"><ele>531.4000000000001</ele><time>2026-05-01T15:38:56.997Z</time></trkpt><trkpt lat="44.820985" lon="9.6674583"><ele>531.6</ele><time>2026-05-01T15:38:57.997Z</time></trkpt><trkpt lat="44.8210333" lon="9.6675883"><ele>531.8000000000001</ele><time>2026-05-01T15:38:58.996Z</time></trkpt><trkpt lat="44.821075" lon="9.6677017"><ele>532.0</ele><time>2026-05-01T15:38:59.996Z</time></trkpt><trkpt lat="44.8211183" lon="9.6678033"><ele>531.0</ele><time>2026-05-01T15:39:00.997Z</time></trkpt><trkpt lat="44.8211683" lon="9.6679"><ele>530.0</ele><time>2026-05-01T15:39:01.997Z</time></trkpt><trkpt lat="44.82122" lon="9.6680017"><ele>529.0</ele><time>2026-05-01T15:39:02.997Z</time></trkpt><trkpt lat="44.82128" lon="9.668115"><ele>528.0</ele><time>2026-05-01T15:39:03.996Z</time></trkpt><trkpt lat="44.8213517" lon="9.6682433"><ele>527.0</ele><time>2026-05-01T15:39:04.996Z</time></trkpt><trkpt lat="44.82143" lon="9.668385"><ele>527.0</ele><time>2026-05-01T15:39:05.998Z</time></trkpt><trkpt lat="44.8215117" lon="9.6685283"><ele>527.0</ele><time>2026-05-01T15:39:06.999Z</time></trkpt><trkpt lat="44.8215933" lon="9.6686717"><ele>527.0</ele><time>2026-05-01T15:39:07.999Z</time></trkpt><trkpt lat="44.8216667" lon="9.6688117"><ele>527.0</ele><time>2026-05-01T15:39:08.999Z</time></trkpt><trkpt lat="44.8217383" lon="9.6689583"><ele>527.5</ele><time>2026-05-01T15:39:09.999Z</time></trkpt><trkpt lat="44.8218083" lon="9.66912"><ele>528.0</ele><time>2026-05-01T15:39:10.998Z</time></trkpt><trkpt lat="44.82187" lon="9.6692983"><ele>528.5</ele><time>2026-05-01T15:39:12Z</time></trkpt><trkpt lat="44.8219317" lon="9.6694817"><ele>529.0</ele><time>2026-05-01T15:39:13Z</time></trkpt><trkpt lat="44.8220017" lon="9.6696533"><ele>527.75</ele><time>2026-05-01T15:39:13.999Z</time></trkpt><trkpt lat="44.8220917" lon="9.6698017"><ele>526.5</ele><time>2026-05-01T15:39:14.999Z</time></trkpt><trkpt lat="44.822205" lon="9.6699217"><ele>525.25</ele><time>2026-05-01T15:39:15.997Z</time></trkpt><trkpt lat="44.8223367" lon="9.67001"><ele>524.0</ele><time>2026-05-01T15:39:16.998Z</time></trkpt><trkpt lat="44.82249" lon="9.670085"><ele>524.0</ele><time>2026-05-01T15:39:17.997Z</time></trkpt><trkpt lat="44.8226433" lon="9.6701533"><ele>524.0</ele><time>2026-05-01T15:39:18.997Z</time></trkpt><trkpt lat="44.8227833" lon="9.67022"><ele>524.0</ele><time>2026-05-01T15:39:19.996Z</time></trkpt><trkpt lat="44.82293" lon="9.670285"><ele>522.6666666666666</ele><time>2026-05-01T15:39:20.997Z</time></trkpt><trkpt lat="44.8230833" lon="9.6703467"><ele>521.3333333333334</ele><time>2026-05-01T15:39:21.997Z</time></trkpt><trkpt lat="44.8232367" lon="9.6704033"><ele>520.0</ele><time>2026-05-01T15:39:22.998Z</time></trkpt><trkpt lat="44.82339" lon="9.6704483"><ele>518.5</ele><time>2026-05-01T15:39:23.998Z</time></trkpt><trkpt lat="44.823535" lon="9.6704917"><ele>517.0</ele><time>2026-05-01T15:39:24.999Z</time></trkpt><trkpt lat="44.8236717" lon="9.6705417"><ele>515.5</ele><time>2026-05-01T15:39:25.999Z</time></trkpt><trkpt lat="44.823795" lon="9.67061"><ele>514.0</ele><time>2026-05-01T15:39:26.999Z</time></trkpt><trkpt lat="44.8239117" lon="9.6707"><ele>514.0</ele><time>2026-05-01T15:39:27.999Z</time></trkpt><trkpt lat="44.8240317" lon="9.6708067"><ele>514.0</ele><time>2026-05-01T15:39:28.999Z</time></trkpt><trkpt lat="44.824155" lon="9.6709233"><ele>514.0</ele><time>2026-05-01T15:39:29.996Z</time></trkpt><trkpt lat="44.8242783" lon="9.671035"><ele>514.0</ele><time>2026-05-01T15:39:30.997Z</time></trkpt><trkpt lat="44.824395" lon="9.6711433"><ele>511.25</ele><time>2026-05-01T15:39:31.996Z</time></trkpt><trkpt lat="44.8244983" lon="9.671265"><ele>508.5</ele><time>2026-05-01T15:39:32.997Z</time></trkpt><trkpt lat="44.8245867" lon="9.6714"><ele>505.75</ele><time>2026-05-01T15:39:33.996Z</time></trkpt><trkpt lat="44.8246617" lon="9.6715417"><ele>503.0</ele><time>2026-05-01T15:39:34.997Z</time></trkpt><trkpt lat="44.8247383" lon="9.6716783"><ele>503.0</ele><time>2026-05-01T15:39:35.997Z</time></trkpt><trkpt lat="44.824825" lon="9.6718033"><ele>503.0</ele><time>2026-05-01T15:39:36.997Z</time></trkpt><trkpt lat="44.8249317" lon="9.6719267"><ele>503.0</ele><time>2026-05-01T15:39:37.997Z</time></trkpt><trkpt lat="44.825045" lon="9.6720483"><ele>503.0</ele><time>2026-05-01T15:39:38.997Z</time></trkpt><trkpt lat="44.8251567" lon="9.6721667"><ele>499.75</ele><time>2026-05-01T15:39:39.996Z</time></trkpt><trkpt lat="44.8252633" lon="9.67229"><ele>496.5</ele><time>2026-05-01T15:39:40.997Z</time></trkpt><trkpt lat="44.8253583" lon="9.6724217"><ele>493.25</ele><time>2026-05-01T15:39:41.997Z</time></trkpt><trkpt lat="44.8254517" lon="9.6725467"><ele>490.0</ele><time>2026-05-01T15:39:42.998Z</time></trkpt><trkpt lat="44.8255483" lon="9.672655"><ele>490.0</ele><time>2026-05-01T15:39:43.998Z</time></trkpt><trkpt lat="44.825645" lon="9.6727417"><ele>490.0</ele><time>2026-05-01T15:39:44.999Z</time></trkpt><trkpt lat="44.8257467" lon="9.6728267"><ele>490.0</ele><time>2026-05-01T15:39:45.996Z</time></trkpt><trkpt lat="44.825845" lon="9.67293"><ele>490.0</ele><time>2026-05-01T15:39:46.996Z</time></trkpt><trkpt lat="44.825935" lon="9.6730567"><ele>487.5</ele><time>2026-05-01T15:39:47.998Z</time></trkpt><trkpt lat="44.8260233" lon="9.6731917"><ele>485.0</ele><time>2026-05-01T15:39:48.999Z</time></trkpt><trkpt lat="44.82612" lon="9.6733083"><ele>482.5</ele><time>2026-05-01T15:39:49.998Z</time></trkpt><trkpt lat="44.82623" lon="9.6734033"><ele>480.0</ele><time>2026-05-01T15:39:50.998Z</time></trkpt><trkpt lat="44.82635" lon="9.6734817"><ele>480.0</ele><time>2026-05-01T15:39:51.997Z</time></trkpt><trkpt lat="44.82647" lon="9.6735583"><ele>480.0</ele><time>2026-05-01T15:39:52.997Z</time></trkpt><trkpt lat="44.82658" lon="9.6736283"><ele>480.0</ele><time>2026-05-01T15:39:53.997Z</time></trkpt><trkpt lat="44.826675" lon="9.6736767"><ele>480.0</ele><time>2026-05-01T15:39:54.997Z</time></trkpt><trkpt lat="44.82677" lon="9.67369"><ele>480.0</ele><time>2026-05-01T15:39:55.997Z</time></trkpt><trkpt lat="44.826865" lon="9.67365"><ele>477.75</ele><time>2026-05-01T15:39:56.998Z</time></trkpt><trkpt lat="44.8269667" lon="9.6735633"><ele>475.5</ele><time>2026-05-01T15:39:57.996Z</time></trkpt><trkpt lat="44.8270783" lon="9.673475"><ele>473.25</ele><time>2026-05-01T15:39:58.996Z</time></trkpt><trkpt lat="44.8271933" lon="9.6733967"><ele>471.0</ele><time>2026-05-01T15:39:59.997Z</time></trkpt><trkpt lat="44.82731" lon="9.67332"><ele>471.0</ele><time>2026-05-01T15:40:00.997Z</time></trkpt><trkpt lat="44.8274233" lon="9.6732483"><ele>471.0</ele><time>2026-05-01T15:40:01.996Z</time></trkpt><trkpt lat="44.8275417" lon="9.6731917"><ele>471.0</ele><time>2026-05-01T15:40:02.998Z</time></trkpt><trkpt lat="44.8276583" lon="9.6731533"><ele>471.0</ele><time>2026-05-01T15:40:03.997Z</time></trkpt><trkpt lat="44.8277633" lon="9.67312"><ele>469.8571428571429</ele><time>2026-05-01T15:40:04.996Z</time></trkpt><trkpt lat="44.82785" lon="9.6730983"><ele>468.7142857142857</ele><time>2026-05-01T15:40:05.997Z</time></trkpt><trkpt lat="44.827925" lon="9.6730833"><ele>467.57142857142856</ele><time>2026-05-01T15:40:06.997Z</time></trkpt><trkpt lat="44.8279933" lon="9.673095"><ele>466.42857142857144</ele><time>2026-05-01T15:40:07.997Z</time></trkpt><trkpt lat="44.8280517" lon="9.67313"><ele>465.2857142857142</ele><time>2026-05-01T15:40:08.998Z</time></trkpt><trkpt lat="44.8281083" lon="9.673175"><ele>464.1428571428571</ele><time>2026-05-01T15:40:09.996Z</time></trkpt><trkpt lat="44.82818" lon="9.673225"><ele>463.0</ele><time>2026-05-01T15:40:10.996Z</time></trkpt><trkpt lat="44.8282633" lon="9.6732683"><ele>463.0</ele><time>2026-05-01T15:40:11.997Z</time></trkpt><trkpt lat="44.8283533" lon="9.673305"><ele>462.99999999999994</ele><time>2026-05-01T15:40:12.996Z</time></trkpt><trkpt lat="44.8284483" lon="9.6733317"><ele>462.99999999999994</ele><time>2026-05-01T15:40:13.997Z</time></trkpt><trkpt lat="44.8285517" lon="9.6733483"><ele>463.0</ele><time>2026-05-01T15:40:14.997Z</time></trkpt><trkpt lat="44.8286533" lon="9.6733533"><ele>463.0</ele><time>2026-05-01T15:40:15.996Z</time></trkpt><trkpt lat="44.8287533" lon="9.673365"><ele>462.00000000000006</ele><time>2026-05-01T15:40:16.996Z</time></trkpt><trkpt lat="44.8288483" lon="9.6733783"><ele>461.0</ele><time>2026-05-01T15:40:17.997Z</time></trkpt><trkpt lat="44.8289367" lon="9.67339"><ele>460.0</ele><time>2026-05-01T15:40:18.997Z</time></trkpt><trkpt lat="44.8290133" lon="9.67339"><ele>459.0</ele><time>2026-05-01T15:40:19.997Z</time></trkpt><trkpt lat="44.8290783" lon="9.6733783"><ele>458.00000000000006</ele><time>2026-05-01T15:40:20.998Z</time></trkpt><trkpt lat="44.82914" lon="9.6733483"><ele>457.0</ele><time>2026-05-01T15:40:21.997Z</time></trkpt><trkpt lat="44.8291967" lon="9.673305"><ele>457.00000000000006</ele><time>2026-05-01T15:40:22.999Z</time></trkpt><trkpt lat="44.829255" lon="9.673265"><ele>457.0</ele><time>2026-05-01T15:40:24Z</time></trkpt><trkpt lat="44.8293817" lon="9.6732467"><ele>457.0</ele><time>2026-05-01T15:40:25.999Z</time></trkpt><trkpt lat="44.8294467" lon="9.673265"><ele>457.0</ele><time>2026-05-01T15:40:27Z</time></trkpt><trkpt lat="44.829505" lon="9.67331"><ele>457.00000000000006</ele><time>2026-05-01T15:40:28Z</time></trkpt><trkpt lat="44.829565" lon="9.6733783"><ele>457.0</ele><time>2026-05-01T15:40:28.999Z</time></trkpt><trkpt lat="44.82963" lon="9.6734733"><ele>453.40000000000003</ele><time>2026-05-01T15:40:29.999Z</time></trkpt><trkpt lat="44.8297" lon="9.6735617"><ele>449.80000000000007</ele><time>2026-05-01T15:40:30.999Z</time></trkpt><trkpt lat="44.829775" lon="9.67364"><ele>446.2</ele><time>2026-05-01T15:40:31.999Z</time></trkpt><trkpt lat="44.8298567" lon="9.6737167"><ele>442.6</ele><time>2026-05-01T15:40:33Z</time></trkpt><trkpt lat="44.8299483" lon="9.67379"><ele>439.0</ele><time>2026-05-01T15:40:33.998Z</time></trkpt><trkpt lat="44.8300433" lon="9.6738533"><ele>438.4</ele><time>2026-05-01T15:40:34.999Z</time></trkpt><trkpt lat="44.8301367" lon="9.6739017"><ele>437.79999999999995</ele><time>2026-05-01T15:40:35.998Z</time></trkpt><trkpt lat="44.830235" lon="9.6739317"><ele>437.20000000000005</ele><time>2026-05-01T15:40:36.999Z</time></trkpt><trkpt lat="44.8303333" lon="9.67396"><ele>436.6</ele><time>2026-05-01T15:40:38Z</time></trkpt><trkpt lat="44.83043" lon="9.67399"><ele>436.0</ele><time>2026-05-01T15:40:39.001Z</time></trkpt><trkpt lat="44.83052" lon="9.6740267"><ele>435.20000000000005</ele><time>2026-05-01T15:40:39.997Z</time></trkpt><trkpt lat="44.830595" lon="9.6740633"><ele>434.40000000000003</ele><time>2026-05-01T15:40:40.997Z</time></trkpt><trkpt lat="44.8306583" lon="9.674095"><ele>433.6</ele><time>2026-05-01T15:40:41.996Z</time></trkpt><trkpt lat="44.8307533" lon="9.6741017"><ele>432.8</ele><time>2026-05-01T15:40:43.997Z</time></trkpt><trkpt lat="44.8308267" lon="9.6740117"><ele>432.0</ele><time>2026-05-01T15:40:45.996Z</time></trkpt><trkpt lat="44.8308917" lon="9.673855"><ele>432.0</ele><time>2026-05-01T15:40:47.997Z</time></trkpt><trkpt lat="44.8309333" lon="9.6737717"><ele>432.0</ele><time>2026-05-01T15:40:48.999Z</time></trkpt><trkpt lat="44.8309767" lon="9.67369"><ele>432.0</ele><time>2026-05-01T15:40:49.999Z</time></trkpt><trkpt lat="44.8310267" lon="9.673615"><ele>432.0</ele><time>2026-05-01T15:40:50.999Z</time></trkpt><trkpt lat="44.8310833" lon="9.673555"><ele>432.0</ele><time>2026-05-01T15:40:51.998Z</time></trkpt><trkpt lat="44.831155" lon="9.67352"><ele>432.0</ele><time>2026-05-01T15:40:52.998Z</time></trkpt><trkpt lat="44.8312333" lon="9.6735033"><ele>432.0</ele><time>2026-05-01T15:40:54Z</time></trkpt><trkpt lat="44.8313233" lon="9.6734917"><ele>429.20000000000005</ele><time>2026-05-01T15:40:54.998Z</time></trkpt><trkpt lat="44.831425" lon="9.6734717"><ele>426.40000000000003</ele><time>2026-05-01T15:40:55.998Z</time></trkpt><trkpt lat="44.8315283" lon="9.6734483"><ele>423.6</ele><time>2026-05-01T15:40:56.998Z</time></trkpt><trkpt lat="44.8316267" lon="9.673425"><ele>420.79999999999995</ele><time>2026-05-01T15:40:57.998Z</time></trkpt><trkpt lat="44.831715" lon="9.673405"><ele>418.0</ele><time>2026-05-01T15:40:58.998Z</time></trkpt><trkpt lat="44.831795" lon="9.6733883"><ele>414.59999999999997</ele><time>2026-05-01T15:40:59.997Z</time></trkpt><trkpt lat="44.8318617" lon="9.6733933"><ele>411.2</ele><time>2026-05-01T15:41:00.996Z</time></trkpt><trkpt lat="44.8319667" lon="9.6735"><ele>407.8</ele><time>2026-05-01T15:41:02.997Z</time></trkpt><trkpt lat="44.832015" lon="9.6735883"><ele>404.4</ele><time>2026-05-01T15:41:03.997Z</time></trkpt><trkpt lat="44.8320633" lon="9.6736883"><ele>401.0</ele><time>2026-05-01T15:41:04.998Z</time></trkpt><trkpt lat="44.832115" lon="9.6738"><ele>400.4</ele><time>2026-05-01T15:41:05.997Z</time></trkpt><trkpt lat="44.8321683" lon="9.6739183"><ele>399.8</ele><time>2026-05-01T15:41:06.997Z</time></trkpt><trkpt lat="44.8322267" lon="9.674045"><ele>399.2</ele><time>2026-05-01T15:41:07.997Z</time></trkpt><trkpt lat="44.8322833" lon="9.6741733"><ele>398.59999999999997</ele><time>2026-05-01T15:41:08.998Z</time></trkpt><trkpt lat="44.832335" lon="9.67429"><ele>398.0</ele><time>2026-05-01T15:41:09.997Z</time></trkpt><trkpt lat="44.8323817" lon="9.6743917"><ele>397.8333333333333</ele><time>2026-05-01T15:41:10.999Z</time></trkpt><trkpt lat="44.83243" lon="9.6744767"><ele>397.66666666666663</ele><time>2026-05-01T15:41:11.999Z</time></trkpt><trkpt lat="44.83248" lon="9.674555"><ele>397.5</ele><time>2026-05-01T15:41:12.999Z</time></trkpt><trkpt lat="44.8325283" lon="9.6746267"><ele>397.33333333333337</ele><time>2026-05-01T15:41:13.997Z</time></trkpt><trkpt lat="44.832575" lon="9.6746967"><ele>397.1666666666667</ele><time>2026-05-01T15:41:14.998Z</time></trkpt><trkpt lat="44.8326183" lon="9.674765"><ele>397.0</ele><time>2026-05-01T15:41:15.998Z</time></trkpt><trkpt lat="44.8326933" lon="9.67488"><ele>397.0</ele><time>2026-05-01T15:41:17.998Z</time></trkpt><trkpt lat="44.8327567" lon="9.6749617"><ele>397.0</ele><time>2026-05-01T15:41:19.998Z</time></trkpt><trkpt lat="44.83282" lon="9.67503"><ele>397.0</ele><time>2026-05-01T15:41:21.999Z</time></trkpt><trkpt lat="44.8328933" lon="9.675085"><ele>397.0</ele><time>2026-05-01T15:41:24Z</time></trkpt><trkpt lat="44.8329783" lon="9.6751283"><ele>397.0</ele><time>2026-05-01T15:41:25.997Z</time></trkpt><trkpt lat="44.83309" lon="9.6751883"><ele>397.0</ele><time>2026-05-01T15:41:27.996Z</time></trkpt><trkpt lat="44.833155" lon="9.6752283"><ele>397.0</ele><time>2026-05-01T15:41:28.996Z</time></trkpt><trkpt lat="44.8332133" lon="9.6752717"><ele>397.0</ele><time>2026-05-01T15:41:29.996Z</time></trkpt><trkpt lat="44.8332667" lon="9.6753217"><ele>397.0</ele><time>2026-05-01T15:41:30.996Z</time></trkpt><trkpt lat="44.833325" lon="9.67539"><ele>397.0</ele><time>2026-05-01T15:41:31.997Z</time></trkpt><trkpt lat="44.8333883" lon="9.675455"><ele>397.0</ele><time>2026-05-01T15:41:32.997Z</time></trkpt><trkpt lat="44.8334617" lon="9.6755"><ele>397.0</ele><time>2026-05-01T15:41:33.996Z</time></trkpt><trkpt lat="44.8335433" lon="9.675535"><ele>398.40000000000003</ele><time>2026-05-01T15:41:34.996Z</time></trkpt><trkpt lat="44.83364" lon="9.6755633"><ele>399.8</ele><time>2026-05-01T15:41:35.998Z</time></trkpt><trkpt lat="44.83374" lon="9.6755883"><ele>401.2</ele><time>2026-05-01T15:41:36.997Z</time></trkpt><trkpt lat="44.8338417" lon="9.67562"><ele>402.6</ele><time>2026-05-01T15:41:37.998Z</time></trkpt><trkpt lat="44.8339383" lon="9.6756533"><ele>404.0</ele><time>2026-05-01T15:41:38.997Z</time></trkpt><trkpt lat="44.83403" lon="9.6756817"><ele>403.99999999999994</ele><time>2026-05-01T15:41:39.997Z</time></trkpt><trkpt lat="44.83412" lon="9.6757083"><ele>404.0</ele><time>2026-05-01T15:41:40.996Z</time></trkpt><trkpt lat="44.8342033" lon="9.675725"><ele>404.0</ele><time>2026-05-01T15:41:41.998Z</time></trkpt><trkpt lat="44.8342817" lon="9.675735"><ele>404.0</ele><time>2026-05-01T15:41:42.998Z</time></trkpt><trkpt lat="44.8343617" lon="9.6757367"><ele>403.99999999999994</ele><time>2026-05-01T15:41:43.998Z</time></trkpt><trkpt lat="44.834445" lon="9.67573"><ele>404.0</ele><time>2026-05-01T15:41:44.998Z</time></trkpt><trkpt lat="44.834525" lon="9.67572"><ele>404.49999999999994</ele><time>2026-05-01T15:41:45.997Z</time></trkpt><trkpt lat="44.8346017" lon="9.675705"><ele>405.0</ele><time>2026-05-01T15:41:46.998Z</time></trkpt><trkpt lat="44.8346767" lon="9.6756917"><ele>405.5</ele><time>2026-05-01T15:41:47.997Z</time></trkpt><trkpt lat="44.8347533" lon="9.6756733"><ele>406.0</ele><time>2026-05-01T15:41:48.997Z</time></trkpt><trkpt lat="44.8348283" lon="9.675655"><ele>406.49999999999994</ele><time>2026-05-01T15:41:49.998Z</time></trkpt><trkpt lat="44.8349017" lon="9.67563"><ele>407.0</ele><time>2026-05-01T15:41:50.998Z</time></trkpt><trkpt lat="44.8349733" lon="9.6756033"><ele>406.99999999999994</ele><time>2026-05-01T15:41:51.999Z</time></trkpt><trkpt lat="44.8350467" lon="9.67558"><ele>407.0</ele><time>2026-05-01T15:41:52.998Z</time></trkpt><trkpt lat="44.83512" lon="9.675565"><ele>407.0</ele><time>2026-05-01T15:41:53.998Z</time></trkpt><trkpt lat="44.8351967" lon="9.6755583"><ele>407.0</ele><time>2026-05-01T15:41:54.997Z</time></trkpt><trkpt lat="44.8352767" lon="9.6755517"><ele>406.99999999999994</ele><time>2026-05-01T15:41:55.997Z</time></trkpt><trkpt lat="44.8353683" lon="9.6755483"><ele>407.0</ele><time>2026-05-01T15:41:56.996Z</time></trkpt><trkpt lat="44.8354667" lon="9.67554"><ele>406.66666666666663</ele><time>2026-05-01T15:41:57.996Z</time></trkpt><trkpt lat="44.8355583" lon="9.675535"><ele>406.3333333333333</ele><time>2026-05-01T15:41:58.997Z</time></trkpt><trkpt lat="44.8356483" lon="9.67553"><ele>406.0</ele><time>2026-05-01T15:41:59.998Z</time></trkpt><trkpt lat="44.83573" lon="9.6755233"><ele>405.66666666666663</ele><time>2026-05-01T15:42:00.996Z</time></trkpt><trkpt lat="44.835805" lon="9.6755317"><ele>405.3333333333333</ele><time>2026-05-01T15:42:01.998Z</time></trkpt><trkpt lat="44.8358717" lon="9.675555"><ele>405.0</ele><time>2026-05-01T15:42:02.997Z</time></trkpt><trkpt lat="44.8359317" lon="9.6755933"><ele>403.0</ele><time>2026-05-01T15:42:03.996Z</time></trkpt><trkpt lat="44.8359867" lon="9.6756567"><ele>401.0</ele><time>2026-05-01T15:42:04.996Z</time></trkpt><trkpt lat="44.8360267" lon="9.6757467"><ele>399.0</ele><time>2026-05-01T15:42:05.997Z</time></trkpt><trkpt lat="44.836065" lon="9.67584"><ele>397.0</ele><time>2026-05-01T15:42:06.997Z</time></trkpt><trkpt lat="44.8360917" lon="9.67594"><ele>395.0</ele><time>2026-05-01T15:42:07.997Z</time></trkpt><trkpt lat="44.8361167" lon="9.676045"><ele>393.0</ele><time>2026-05-01T15:42:08.998Z</time></trkpt><trkpt lat="44.8361383" lon="9.67615"><ele>393.0</ele><time>2026-05-01T15:42:09.996Z</time></trkpt><trkpt lat="44.8361667" lon="9.6762533"><ele>393.0</ele><time>2026-05-01T15:42:10.998Z</time></trkpt><trkpt lat="44.8362017" lon="9.676345"><ele>393.0</ele><time>2026-05-01T15:42:11.996Z</time></trkpt><trkpt lat="44.8362433" lon="9.67643"><ele>393.0</ele><time>2026-05-01T15:42:12.996Z</time></trkpt><trkpt lat="44.8362917" lon="9.676515"><ele>393.0</ele><time>2026-05-01T15:42:13.999Z</time></trkpt><trkpt lat="44.8363533" lon="9.67659"><ele>393.0</ele><time>2026-05-01T15:42:15Z</time></trkpt><trkpt lat="44.83642" lon="9.6766567"><ele>393.0</ele><time>2026-05-01T15:42:15.999Z</time></trkpt><trkpt lat="44.83649" lon="9.6767167"><ele>393.0</ele><time>2026-05-01T15:42:16.999Z</time></trkpt><trkpt lat="44.8365583" lon="9.6767767"><ele>393.0</ele><time>2026-05-01T15:42:17.999Z</time></trkpt><trkpt lat="44.8366317" lon="9.67684"><ele>393.0</ele><time>2026-05-01T15:42:19Z</time></trkpt><trkpt lat="44.836705" lon="9.67691"><ele>393.0</ele><time>2026-05-01T15:42:19.996Z</time></trkpt><trkpt lat="44.8367783" lon="9.67697"><ele>393.0</ele><time>2026-05-01T15:42:20.998Z</time></trkpt><trkpt lat="44.83685" lon="9.6770217"><ele>391.5</ele><time>2026-05-01T15:42:21.997Z</time></trkpt><trkpt lat="44.8369117" lon="9.67706"><ele>390.0</ele><time>2026-05-01T15:42:22.997Z</time></trkpt><trkpt lat="44.8369983" lon="9.677115"><ele>388.5</ele><time>2026-05-01T15:42:24.997Z</time></trkpt><trkpt lat="44.8370633" lon="9.6772383"><ele>387.0</ele><time>2026-05-01T15:42:26.997Z</time></trkpt><trkpt lat="44.8371017" lon="9.6773283"><ele>385.5</ele><time>2026-05-01T15:42:27.997Z</time></trkpt><trkpt lat="44.8371533" lon="9.6774317"><ele>384.0</ele><time>2026-05-01T15:42:28.997Z</time></trkpt><trkpt lat="44.837205" lon="9.6775483"><ele>384.0</ele><time>2026-05-01T15:42:29.997Z</time></trkpt><trkpt lat="44.8372633" lon="9.6776667"><ele>384.0</ele><time>2026-05-01T15:42:30.998Z</time></trkpt><trkpt lat="44.8373367" lon="9.67779"><ele>384.0</ele><time>2026-05-01T15:42:31.998Z</time></trkpt><trkpt lat="44.8374283" lon="9.677925"><ele>384.0</ele><time>2026-05-01T15:42:32.999Z</time></trkpt><trkpt lat="44.8375283" lon="9.67807"><ele>386.0</ele><time>2026-05-01T15:42:33.997Z</time></trkpt><trkpt lat="44.8376283" lon="9.67822"><ele>388.0</ele><time>2026-05-01T15:42:34.997Z</time></trkpt><trkpt lat="44.8377183" lon="9.6783517"><ele>390.0</ele><time>2026-05-01T15:42:35.996Z</time></trkpt><trkpt lat="44.837805" lon="9.67847"><ele>392.0</ele><time>2026-05-01T15:42:36.995Z</time></trkpt><trkpt lat="44.8378817" lon="9.678575"><ele>394.6</ele><time>2026-05-01T15:42:37.997Z</time></trkpt><trkpt lat="44.837955" lon="9.678665"><ele>397.20000000000005</ele><time>2026-05-01T15:42:38.996Z</time></trkpt><trkpt lat="44.83803" lon="9.6787467"><ele>399.8</ele><time>2026-05-01T15:42:39.997Z</time></trkpt><trkpt lat="44.838115" lon="9.67881"><ele>402.4</ele><time>2026-05-01T15:42:40.996Z</time></trkpt><trkpt lat="44.83821" lon="9.6788467"><ele>405.0</ele><time>2026-05-01T15:42:41.996Z</time></trkpt><trkpt lat="44.8383133" lon="9.6788467"><ele>405.0</ele><time>2026-05-01T15:42:42.996Z</time></trkpt><trkpt lat="44.83842" lon="9.678815"><ele>405.0</ele><time>2026-05-01T15:42:43.995Z</time></trkpt><trkpt lat="44.8385217" lon="9.6787733"><ele>405.0</ele><time>2026-05-01T15:42:44.996Z</time></trkpt><trkpt lat="44.8386167" lon="9.6787383"><ele>405.0</ele><time>2026-05-01T15:42:45.995Z</time></trkpt><trkpt lat="44.838705" lon="9.678715"><ele>405.0</ele><time>2026-05-01T15:42:46.996Z</time></trkpt><trkpt lat="44.8387867" lon="9.6787033"><ele>405.6666666666667</ele><time>2026-05-01T15:42:47.995Z</time></trkpt><trkpt lat="44.838855" lon="9.6787083"><ele>406.33333333333337</ele><time>2026-05-01T15:42:48.996Z</time></trkpt><trkpt lat="44.83897" lon="9.67879"><ele>407.0</ele><time>2026-05-01T15:42:50.996Z</time></trkpt><trkpt lat="44.83903" lon="9.6788517"><ele>407.6666666666667</ele><time>2026-05-01T15:42:51.997Z</time></trkpt><trkpt lat="44.8390933" lon="9.678925"><ele>408.33333333333337</ele><time>2026-05-01T15:42:52.995Z</time></trkpt><trkpt lat="44.8391683" lon="9.6789983"><ele>409.0</ele><time>2026-05-01T15:42:53.995Z</time></trkpt><trkpt lat="44.8392533" lon="9.6790717"><ele>408.0</ele><time>2026-05-01T15:42:54.996Z</time></trkpt><trkpt lat="44.839355" lon="9.679145"><ele>407.0</ele><time>2026-05-01T15:42:55.996Z</time></trkpt><trkpt lat="44.839455" lon="9.679205"><ele>406.0</ele><time>2026-05-01T15:42:56.997Z</time></trkpt><trkpt lat="44.8395517" lon="9.6792583"><ele>405.0</ele><time>2026-05-01T15:42:57.997Z</time></trkpt><trkpt lat="44.8396517" lon="9.6793167"><ele>404.0</ele><time>2026-05-01T15:42:58.997Z</time></trkpt><trkpt lat="44.8397467" lon="9.6793683"><ele>403.99999999999994</ele><time>2026-05-01T15:42:59.996Z</time></trkpt><trkpt lat="44.8398333" lon="9.6794167"><ele>404.0</ele><time>2026-05-01T15:43:00.998Z</time></trkpt><trkpt lat="44.8399083" lon="9.6794617"><ele>404.0</ele><time>2026-05-01T15:43:01.996Z</time></trkpt><trkpt lat="44.8399767" lon="9.6795133"><ele>404.0</ele><time>2026-05-01T15:43:02.997Z</time></trkpt><trkpt lat="44.8400433" lon="9.679575"><ele>403.99999999999994</ele><time>2026-05-01T15:43:03.997Z</time></trkpt><trkpt lat="44.8401083" lon="9.679645"><ele>404.0</ele><time>2026-05-01T15:43:04.996Z</time></trkpt><trkpt lat="44.8401767" lon="9.6797217"><ele>403.8333333333333</ele><time>2026-05-01T15:43:05.995Z</time></trkpt><trkpt lat="44.840245" lon="9.6798067"><ele>403.66666666666663</ele><time>2026-05-01T15:43:06.995Z</time></trkpt><trkpt lat="44.8403117" lon="9.6798917"><ele>403.5</ele><time>2026-05-01T15:43:07.996Z</time></trkpt><trkpt lat="44.8403717" lon="9.6799717"><ele>403.33333333333337</ele><time>2026-05-01T15:43:08.996Z</time></trkpt><trkpt lat="44.8404233" lon="9.6800633"><ele>403.1666666666667</ele><time>2026-05-01T15:43:09.995Z</time></trkpt><trkpt lat="44.8404733" lon="9.68018"><ele>403.0</ele><time>2026-05-01T15:43:10.995Z</time></trkpt><trkpt lat="44.840525" lon="9.6803117"><ele>403.0</ele><time>2026-05-01T15:43:11.996Z</time></trkpt><trkpt lat="44.8405867" lon="9.6804517"><ele>403.0</ele><time>2026-05-01T15:43:12.997Z</time></trkpt><trkpt lat="44.8406567" lon="9.6805817"><ele>403.0</ele><time>2026-05-01T15:43:13.995Z</time></trkpt><trkpt lat="44.8407233" lon="9.6807133"><ele>403.0</ele><time>2026-05-01T15:43:14.996Z</time></trkpt><trkpt lat="44.840785" lon="9.6808433"><ele>403.0</ele><time>2026-05-01T15:43:15.995Z</time></trkpt><trkpt lat="44.8408383" lon="9.6809733"><ele>403.0</ele><time>2026-05-01T15:43:16.996Z</time></trkpt><trkpt lat="44.8408783" lon="9.681095"><ele>403.0</ele><time>2026-05-01T15:43:17.996Z</time></trkpt><trkpt lat="44.8409167" lon="9.6812167"><ele>403.0</ele><time>2026-05-01T15:43:18.996Z</time></trkpt><trkpt lat="44.8409683" lon="9.681335"><ele>403.0</ele><time>2026-05-01T15:43:19.997Z</time></trkpt><trkpt lat="44.84103" lon="9.681435"><ele>403.83333333333337</ele><time>2026-05-01T15:43:20.996Z</time></trkpt><trkpt lat="44.8410917" lon="9.6815267"><ele>404.6666666666667</ele><time>2026-05-01T15:43:21.996Z</time></trkpt><trkpt lat="44.8411583" lon="9.6815983"><ele>405.5</ele><time>2026-05-01T15:43:22.995Z</time></trkpt><trkpt lat="44.8412317" lon="9.6816517"><ele>406.33333333333337</ele><time>2026-05-01T15:43:23.996Z</time></trkpt><trkpt lat="44.8413083" lon="9.681685"><ele>407.1666666666667</ele><time>2026-05-01T15:43:24.996Z</time></trkpt><trkpt lat="44.8413933" lon="9.681715"><ele>408.0</ele><time>2026-05-01T15:43:25.997Z</time></trkpt><trkpt lat="44.841485" lon="9.681765"><ele>408.0</ele><time>2026-05-01T15:43:26.998Z</time></trkpt><trkpt lat="44.8415767" lon="9.6818383"><ele>408.0</ele><time>2026-05-01T15:43:27.998Z</time></trkpt><trkpt lat="44.8416717" lon="9.6819217"><ele>408.0</ele><time>2026-05-01T15:43:28.997Z</time></trkpt><trkpt lat="44.8417517" lon="9.6820117"><ele>408.0</ele><time>2026-05-01T15:43:29.998Z</time></trkpt><trkpt lat="44.8418283" lon="9.6820983"><ele>408.0</ele><time>2026-05-01T15:43:30.997Z</time></trkpt><trkpt lat="44.8419133" lon="9.682175"><ele>406.79999999999995</ele><time>2026-05-01T15:43:31.999Z</time></trkpt><trkpt lat="44.842" lon="9.6822433"><ele>405.6</ele><time>2026-05-01T15:43:32.997Z</time></trkpt><trkpt lat="44.8420783" lon="9.6823167"><ele>404.4</ele><time>2026-05-01T15:43:33.997Z</time></trkpt><trkpt lat="44.8421517" lon="9.682405"><ele>403.20000000000005</ele><time>2026-05-01T15:43:34.996Z</time></trkpt><trkpt lat="44.84222" lon="9.682505"><ele>402.0</ele><time>2026-05-01T15:43:35.997Z</time></trkpt><trkpt lat="44.8422917" lon="9.6826067"><ele>402.0</ele><time>2026-05-01T15:43:36.996Z</time></trkpt><trkpt lat="44.842365" lon="9.6827033"><ele>402.0</ele><time>2026-05-01T15:43:37.997Z</time></trkpt><trkpt lat="44.8424317" lon="9.6828017"><ele>402.0</ele><time>2026-05-01T15:43:38.997Z</time></trkpt><trkpt lat="44.8424917" lon="9.6828967"><ele>402.0</ele><time>2026-05-01T15:43:39.997Z</time></trkpt><trkpt lat="44.8425533" lon="9.682975"><ele>402.0</ele><time>2026-05-01T15:43:40.998Z</time></trkpt><trkpt lat="44.8426067" lon="9.6830267"><ele>402.0</ele><time>2026-05-01T15:43:41.997Z</time></trkpt><trkpt lat="44.8427183" lon="9.6830767"><ele>401.6666666666667</ele><time>2026-05-01T15:43:43.995Z</time></trkpt><trkpt lat="44.84282" lon="9.683"><ele>401.33333333333337</ele><time>2026-05-01T15:43:45.997Z</time></trkpt><trkpt lat="44.8428633" lon="9.6829317"><ele>401.0</ele><time>2026-05-01T15:43:46.995Z</time></trkpt><trkpt lat="44.8429167" lon="9.6828717"><ele>400.6666666666667</ele><time>2026-05-01T15:43:47.995Z</time></trkpt><trkpt lat="44.84303" lon="9.6828333"><ele>400.33333333333337</ele><time>2026-05-01T15:43:50Z</time></trkpt><trkpt lat="44.8430983" lon="9.6828517"><ele>400.0</ele><time>2026-05-01T15:43:50.997Z</time></trkpt><trkpt lat="44.8431817" lon="9.6828933"><ele>400.0</ele><time>2026-05-01T15:43:51.996Z</time></trkpt><trkpt lat="44.843275" lon="9.6829383"><ele>400.0</ele><time>2026-05-01T15:43:52.995Z</time></trkpt><trkpt lat="44.8433717" lon="9.6829733"><ele>400.0</ele><time>2026-05-01T15:43:53.995Z</time></trkpt><trkpt lat="44.8434667" lon="9.6830167"><ele>400.0</ele><time>2026-05-01T15:43:54.995Z</time></trkpt><trkpt lat="44.843555" lon="9.6830717"><ele>400.0</ele><time>2026-05-01T15:43:55.995Z</time></trkpt><trkpt lat="44.8436433" lon="9.6831467"><ele>401.4</ele><time>2026-05-01T15:43:56.996Z</time></trkpt><trkpt lat="44.8437333" lon="9.683225"><ele>402.8</ele><time>2026-05-01T15:43:57.997Z</time></trkpt><trkpt lat="44.843835" lon="9.683295"><ele>404.20000000000005</ele><time>2026-05-01T15:43:58.995Z</time></trkpt><trkpt lat="44.8439433" lon="9.6833533"><ele>405.6</ele><time>2026-05-01T15:43:59.996Z</time></trkpt><trkpt lat="44.84405" lon="9.6834067"><ele>407.0</ele><time>2026-05-01T15:44:00.995Z</time></trkpt><trkpt lat="44.8441533" lon="9.683455"><ele>407.0</ele><time>2026-05-01T15:44:01.996Z</time></trkpt><trkpt lat="44.8442583" lon="9.6834917"><ele>407.0</ele><time>2026-05-01T15:44:02.996Z</time></trkpt><trkpt lat="44.8443633" lon="9.6835233"><ele>407.0</ele><time>2026-05-01T15:44:03.996Z</time></trkpt><trkpt lat="44.8444717" lon="9.6835483"><ele>407.0</ele><time>2026-05-01T15:44:04.996Z</time></trkpt><trkpt lat="44.844585" lon="9.6835633"><ele>407.0</ele><time>2026-05-01T15:44:05.995Z</time></trkpt><trkpt lat="44.8446983" lon="9.683575"><ele>407.20000000000005</ele><time>2026-05-01T15:44:06.996Z</time></trkpt><trkpt lat="44.8448133" lon="9.6835867"><ele>407.4</ele><time>2026-05-01T15:44:07.996Z</time></trkpt><trkpt lat="44.84492" lon="9.6836067"><ele>407.6</ele><time>2026-05-01T15:44:08.997Z</time></trkpt><trkpt lat="44.8450183" lon="9.6836517"><ele>407.79999999999995</ele><time>2026-05-01T15:44:09.998Z</time></trkpt><trkpt lat="44.8451083" lon="9.6837117"><ele>408.0</ele><time>2026-05-01T15:44:10.998Z</time></trkpt><trkpt lat="44.8452" lon="9.6837917"><ele>407.0</ele><time>2026-05-01T15:44:11.999Z</time></trkpt><trkpt lat="44.8452967" lon="9.68388"><ele>406.0</ele><time>2026-05-01T15:44:12.998Z</time></trkpt><trkpt lat="44.8454033" lon="9.683965"><ele>405.0</ele><time>2026-05-01T15:44:13.997Z</time></trkpt><trkpt lat="44.8455183" lon="9.6840383"><ele>404.0</ele><time>2026-05-01T15:44:14.999Z</time></trkpt><trkpt lat="44.8456333" lon="9.6841033"><ele>404.0</ele><time>2026-05-01T15:44:15.996Z</time></trkpt><trkpt lat="44.8457517" lon="9.6841667"><ele>404.0</ele><time>2026-05-01T15:44:16.999Z</time></trkpt><trkpt lat="44.8458767" lon="9.6842117"><ele>404.0</ele><time>2026-05-01T15:44:17.997Z</time></trkpt><trkpt lat="44.8459983" lon="9.6842333"><ele>404.0</ele><time>2026-05-01T15:44:18.998Z</time></trkpt><trkpt lat="44.846115" lon="9.684245"><ele>402.4</ele><time>2026-05-01T15:44:19.998Z</time></trkpt><trkpt lat="44.8462233" lon="9.6842533"><ele>400.79999999999995</ele><time>2026-05-01T15:44:20.999Z</time></trkpt><trkpt lat="44.8463233" lon="9.684265"><ele>399.20000000000005</ele><time>2026-05-01T15:44:21.998Z</time></trkpt><trkpt lat="44.8464167" lon="9.6842783"><ele>397.6</ele><time>2026-05-01T15:44:22.995Z</time></trkpt><trkpt lat="44.8464933" lon="9.6843033"><ele>396.0</ele><time>2026-05-01T15:44:23.995Z</time></trkpt><trkpt lat="44.84657" lon="9.6843467"><ele>396.0</ele><time>2026-05-01T15:44:24.997Z</time></trkpt><trkpt lat="44.84665" lon="9.684405"><ele>396.0</ele><time>2026-05-01T15:44:25.997Z</time></trkpt><trkpt lat="44.8467317" lon="9.684485"><ele>396.0</ele><time>2026-05-01T15:44:26.996Z</time></trkpt><trkpt lat="44.84681" lon="9.684585"><ele>396.0</ele><time>2026-05-01T15:44:27.996Z</time></trkpt><trkpt lat="44.846885" lon="9.6846967"><ele>396.0</ele><time>2026-05-01T15:44:28.996Z</time></trkpt><trkpt lat="44.8469667" lon="9.6848183"><ele>395.0</ele><time>2026-05-01T15:44:29.996Z</time></trkpt><trkpt lat="44.8470567" lon="9.6849517"><ele>394.0</ele><time>2026-05-01T15:44:30.997Z</time></trkpt><trkpt lat="44.84715" lon="9.6850817"><ele>393.0</ele><time>2026-05-01T15:44:31.996Z</time></trkpt><trkpt lat="44.847255" lon="9.6852117"><ele>392.0</ele><time>2026-05-01T15:44:32.996Z</time></trkpt><trkpt lat="44.8473617" lon="9.6853467"><ele>391.75</ele><time>2026-05-01T15:44:33.995Z</time></trkpt><trkpt lat="44.8474683" lon="9.6854783"><ele>391.5</ele><time>2026-05-01T15:44:34.996Z</time></trkpt><trkpt lat="44.8475733" lon="9.6856067"><ele>391.25</ele><time>2026-05-01T15:44:35.998Z</time></trkpt><trkpt lat="44.8476767" lon="9.685735"><ele>391.0</ele><time>2026-05-01T15:44:36.996Z</time></trkpt><trkpt lat="44.8477717" lon="9.6858583"><ele>390.75</ele><time>2026-05-01T15:44:37.997Z</time></trkpt><trkpt lat="44.8478617" lon="9.6859733"><ele>390.5</ele><time>2026-05-01T15:44:38.996Z</time></trkpt><trkpt lat="44.8479417" lon="9.686085"><ele>390.25</ele><time>2026-05-01T15:44:39.996Z</time></trkpt><trkpt lat="44.8480167" lon="9.6861983"><ele>390.0</ele><time>2026-05-01T15:44:40.995Z</time></trkpt><trkpt lat="44.8480867" lon="9.68631"><ele>390.4</ele><time>2026-05-01T15:44:41.997Z</time></trkpt><trkpt lat="44.84815" lon="9.6864183"><ele>390.8</ele><time>2026-05-01T15:44:42.996Z</time></trkpt><trkpt lat="44.8482083" lon="9.6865217"><ele>391.20000000000005</ele><time>2026-05-01T15:44:43.997Z</time></trkpt><trkpt lat="44.848265" lon="9.6866233"><ele>391.6</ele><time>2026-05-01T15:44:44.997Z</time></trkpt><trkpt lat="44.8483217" lon="9.686735"><ele>392.0</ele><time>2026-05-01T15:44:45.996Z</time></trkpt><trkpt lat="44.8483783" lon="9.686855"><ele>390.8</ele><time>2026-05-01T15:44:46.997Z</time></trkpt><trkpt lat="44.8484267" lon="9.6869817"><ele>389.6</ele><time>2026-05-01T15:44:47.996Z</time></trkpt><trkpt lat="44.8484667" lon="9.687115"><ele>388.40000000000003</ele><time>2026-05-01T15:44:48.998Z</time></trkpt><trkpt lat="44.8485067" lon="9.687245"><ele>387.20000000000005</ele><time>2026-05-01T15:44:49.996Z</time></trkpt><trkpt lat="44.8485583" lon="9.68737"><ele>386.0</ele><time>2026-05-01T15:44:50.997Z</time></trkpt><trkpt lat="44.8486183" lon="9.6874867"><ele>385.0</ele><time>2026-05-01T15:44:51.995Z</time></trkpt><trkpt lat="44.8486833" lon="9.6876"><ele>384.0</ele><time>2026-05-01T15:44:52.997Z</time></trkpt><trkpt lat="44.8487567" lon="9.6877133"><ele>383.0</ele><time>2026-05-01T15:44:53.997Z</time></trkpt><trkpt lat="44.84883" lon="9.687825"><ele>382.0</ele><time>2026-05-01T15:44:54.996Z</time></trkpt><trkpt lat="44.8489" lon="9.6879333"><ele>381.0</ele><time>2026-05-01T15:44:55.996Z</time></trkpt><trkpt lat="44.84896" lon="9.6880283"><ele>381.0</ele><time>2026-05-01T15:44:56.998Z</time></trkpt><trkpt lat="44.84901" lon="9.6880967"><ele>381.0</ele><time>2026-05-01T15:44:57.996Z</time></trkpt><trkpt lat="44.84908" lon="9.68815"><ele>381.0</ele><time>2026-05-01T15:44:59.997Z</time></trkpt><trkpt lat="44.8490833" lon="9.687965"><ele>381.0</ele><time>2026-05-01T15:45:02.997Z</time></trkpt><trkpt lat="44.8490683" lon="9.6878317"><ele>381.0</ele><time>2026-05-01T15:45:03.997Z</time></trkpt><trkpt lat="44.849055" lon="9.68767"><ele>381.0</ele><time>2026-05-01T15:45:04.997Z</time></trkpt><trkpt lat="44.849045" lon="9.687475"><ele>381.0</ele><time>2026-05-01T15:45:05.996Z</time></trkpt><trkpt lat="44.8490317" lon="9.6872667"><ele>381.0</ele><time>2026-05-01T15:45:06.997Z</time></trkpt><trkpt lat="44.84902" lon="9.6870667"><ele>381.0</ele><time>2026-05-01T15:45:07.996Z</time></trkpt><trkpt lat="44.8490083" lon="9.6868817"><ele>380.6</ele><time>2026-05-01T15:45:08.996Z</time></trkpt><trkpt lat="44.8489967" lon="9.6867183"><ele>380.20000000000005</ele><time>2026-05-01T15:45:09.996Z</time></trkpt><trkpt lat="44.848985" lon="9.6865683"><ele>379.79999999999995</ele><time>2026-05-01T15:45:10.996Z</time></trkpt><trkpt lat="44.8489683" lon="9.686425"><ele>379.4</ele><time>2026-05-01T15:45:11.996Z</time></trkpt><trkpt lat="44.8489467" lon="9.6862817"><ele>379.0</ele><time>2026-05-01T15:45:12.996Z</time></trkpt><trkpt lat="44.8489167" lon="9.6861317"><ele>377.75</ele><time>2026-05-01T15:45:13.996Z</time></trkpt><trkpt lat="44.848875" lon="9.685975"><ele>376.5</ele><time>2026-05-01T15:45:14.996Z</time></trkpt><trkpt lat="44.8488183" lon="9.6858067"><ele>375.25</ele><time>2026-05-01T15:45:15.996Z</time></trkpt><trkpt lat="44.8487483" lon="9.68563"><ele>374.0</ele><time>2026-05-01T15:45:16.995Z</time></trkpt><trkpt lat="44.8486733" lon="9.68546"><ele>374.0</ele><time>2026-05-01T15:45:17.996Z</time></trkpt><trkpt lat="44.84861" lon="9.685305"><ele>374.0</ele><time>2026-05-01T15:45:18.996Z</time></trkpt><trkpt lat="44.8485583" lon="9.6851617"><ele>374.0</ele><time>2026-05-01T15:45:19.995Z</time></trkpt><trkpt lat="44.848525" lon="9.6850217"><ele>374.0</ele><time>2026-05-01T15:45:20.996Z</time></trkpt><trkpt lat="44.8485067" lon="9.6848733"><ele>371.5</ele><time>2026-05-01T15:45:21.995Z</time></trkpt><trkpt lat="44.8484967" lon="9.684705"><ele>369.0</ele><time>2026-05-01T15:45:22.996Z</time></trkpt><trkpt lat="44.8485033" lon="9.6845267"><ele>366.5</ele><time>2026-05-01T15:45:23.995Z</time></trkpt><trkpt lat="44.84852" lon="9.6843483"><ele>364.0</ele><time>2026-05-01T15:45:24.995Z</time></trkpt><trkpt lat="44.84854" lon="9.68417"><ele>361.75</ele><time>2026-05-01T15:45:25.995Z</time></trkpt><trkpt lat="44.8485533" lon="9.6839817"><ele>359.5</ele><time>2026-05-01T15:45:26.996Z</time></trkpt><trkpt lat="44.8485483" lon="9.68377"><ele>357.25</ele><time>2026-05-01T15:45:27.997Z</time></trkpt><trkpt lat="44.8485317" lon="9.6835483"><ele>355.0</ele><time>2026-05-01T15:45:28.996Z</time></trkpt><trkpt lat="44.848505" lon="9.6833267"><ele>353.5</ele><time>2026-05-01T15:45:29.996Z</time></trkpt><trkpt lat="44.8484783" lon="9.68311"><ele>352.0</ele><time>2026-05-01T15:45:30.995Z</time></trkpt><trkpt lat="44.8484583" lon="9.6829117"><ele>350.5</ele><time>2026-05-01T15:45:31.996Z</time></trkpt><trkpt lat="44.8484317" lon="9.6827317"><ele>349.0</ele><time>2026-05-01T15:45:32.996Z</time></trkpt><trkpt lat="44.848385" lon="9.6825717"><ele>349.0</ele><time>2026-05-01T15:45:33.995Z</time></trkpt><trkpt lat="44.8483267" lon="9.6824133"><ele>349.0</ele><time>2026-05-01T15:45:34.996Z</time></trkpt><trkpt lat="44.84826" lon="9.6822683"><ele>349.0</ele><time>2026-05-01T15:45:35.996Z</time></trkpt><trkpt lat="44.8482" lon="9.6821417"><ele>349.0</ele><time>2026-05-01T15:45:36.997Z</time></trkpt><trkpt lat="44.8481467" lon="9.6820383"><ele>349.0</ele><time>2026-05-01T15:45:37.996Z</time></trkpt><trkpt lat="44.8481017" lon="9.6819567"><ele>346.0</ele><time>2026-05-01T15:45:38.996Z</time></trkpt><trkpt lat="44.8480267" lon="9.6818267"><ele>343.0</ele><time>2026-05-01T15:45:40.998Z</time></trkpt><trkpt lat="44.8479833" lon="9.681655"><ele>340.0</ele><time>2026-05-01T15:45:42.998Z</time></trkpt><trkpt lat="44.8479667" lon="9.6815533"><ele>337.0</ele><time>2026-05-01T15:45:43.996Z</time></trkpt><trkpt lat="44.8479667" lon="9.68144"><ele>334.0</ele><time>2026-05-01T15:45:44.997Z</time></trkpt><trkpt lat="44.84799" lon="9.6813367"><ele>334.0</ele><time>2026-05-01T15:45:45.995Z</time></trkpt><trkpt lat="44.8480217" lon="9.6812383"><ele>334.0</ele><time>2026-05-01T15:45:46.996Z</time></trkpt><trkpt lat="44.84806" lon="9.6811433"><ele>334.0</ele><time>2026-05-01T15:45:47.996Z</time></trkpt><trkpt lat="44.8480983" lon="9.68105"><ele>334.0</ele><time>2026-05-01T15:45:48.996Z</time></trkpt><trkpt lat="44.8481367" lon="9.6809483"><ele>334.0</ele><time>2026-05-01T15:45:49.998Z</time></trkpt><trkpt lat="44.8481733" lon="9.6808367"><ele>334.0</ele><time>2026-05-01T15:45:50.998Z</time></trkpt><trkpt lat="44.8482067" lon="9.6807183"><ele>333.42857142857144</ele><time>2026-05-01T15:45:51.996Z</time></trkpt><trkpt lat="44.848235" lon="9.6806033"><ele>332.8571428571429</ele><time>2026-05-01T15:45:52.996Z</time></trkpt><trkpt lat="44.8482567" lon="9.6805033"><ele>332.28571428571433</ele><time>2026-05-01T15:45:53.999Z</time></trkpt><trkpt lat="44.8482883" lon="9.68041"><ele>331.7142857142857</ele><time>2026-05-01T15:45:54.999Z</time></trkpt><trkpt lat="44.8483267" lon="9.680325"><ele>331.14285714285717</ele><time>2026-05-01T15:45:55.996Z</time></trkpt><trkpt lat="44.848375" lon="9.6802517"><ele>330.5714285714286</ele><time>2026-05-01T15:45:56.996Z</time></trkpt><trkpt lat="44.8484283" lon="9.6802017"><ele>330.0</ele><time>2026-05-01T15:45:57.996Z</time></trkpt><trkpt lat="44.84855" lon="9.6801817"><ele>327.6</ele><time>2026-05-01T15:45:59.995Z</time></trkpt><trkpt lat="44.8486183" lon="9.6802183"><ele>325.2</ele><time>2026-05-01T15:46:00.996Z</time></trkpt><trkpt lat="44.848695" lon="9.6802783"><ele>322.8</ele><time>2026-05-01T15:46:01.997Z</time></trkpt><trkpt lat="44.8487817" lon="9.6803433"><ele>320.4</ele><time>2026-05-01T15:46:02.996Z</time></trkpt><trkpt lat="44.848885" lon="9.6804033"><ele>318.0</ele><time>2026-05-01T15:46:03.997Z</time></trkpt><trkpt lat="44.8489883" lon="9.6804633"><ele>318.0</ele><time>2026-05-01T15:46:04.996Z</time></trkpt><trkpt lat="44.8490883" lon="9.6805317"><ele>318.0</ele><time>2026-05-01T15:46:05.997Z</time></trkpt><trkpt lat="44.8491833" lon="9.6806067"><ele>318.0</ele><time>2026-05-01T15:46:06.999Z</time></trkpt><trkpt lat="44.8492767" lon="9.6806867"><ele>318.0</ele><time>2026-05-01T15:46:07.996Z</time></trkpt><trkpt lat="44.8493633" lon="9.6807667"><ele>318.0</ele><time>2026-05-01T15:46:08.997Z</time></trkpt><trkpt lat="44.8494467" lon="9.680835"><ele>315.2</ele><time>2026-05-01T15:46:09.996Z</time></trkpt><trkpt lat="44.8495317" lon="9.6808833"><ele>312.4</ele><time>2026-05-01T15:46:10.997Z</time></trkpt><trkpt lat="44.84962" lon="9.6809033"><ele>309.59999999999997</ele><time>2026-05-01T15:46:11.997Z</time></trkpt><trkpt lat="44.84971" lon="9.6808883"><ele>306.8</ele><time>2026-05-01T15:46:12.996Z</time></trkpt><trkpt lat="44.8497967" lon="9.6808333"><ele>304.0</ele><time>2026-05-01T15:46:13.997Z</time></trkpt><trkpt lat="44.8498683" lon="9.6807533"><ele>304.0</ele><time>2026-05-01T15:46:14.996Z</time></trkpt><trkpt lat="44.84992" lon="9.680645"><ele>304.0</ele><time>2026-05-01T15:46:15.997Z</time></trkpt><trkpt lat="44.8499433" lon="9.6805233"><ele>304.0</ele><time>2026-05-01T15:46:16.995Z</time></trkpt><trkpt lat="44.8499417" lon="9.680415"><ele>304.0</ele><time>2026-05-01T15:46:17.996Z</time></trkpt><trkpt lat="44.849925" lon="9.680305"><ele>304.0</ele><time>2026-05-01T15:46:18.996Z</time></trkpt><trkpt lat="44.8499067" lon="9.6801883"><ele>304.0</ele><time>2026-05-01T15:46:19.996Z</time></trkpt><trkpt lat="44.8498883" lon="9.680075"><ele>303.2</ele><time>2026-05-01T15:46:20.996Z</time></trkpt><trkpt lat="44.8498717" lon="9.6799567"><ele>302.4</ele><time>2026-05-01T15:46:21.996Z</time></trkpt><trkpt lat="44.8498533" lon="9.6798267"><ele>301.6</ele><time>2026-05-01T15:46:22.998Z</time></trkpt><trkpt lat="44.849835" lon="9.6796817"><ele>300.8</ele><time>2026-05-01T15:46:23.998Z</time></trkpt><trkpt lat="44.8498217" lon="9.679525"><ele>300.0</ele><time>2026-05-01T15:46:24.998Z</time></trkpt><trkpt lat="44.849815" lon="9.6793667"><ele>298.6</ele><time>2026-05-01T15:46:25.999Z</time></trkpt><trkpt lat="44.84981" lon="9.6792217"><ele>297.2</ele><time>2026-05-01T15:46:26.999Z</time></trkpt><trkpt lat="44.84981" lon="9.6790967"><ele>295.8</ele><time>2026-05-01T15:46:27.999Z</time></trkpt><trkpt lat="44.849825" lon="9.6789983"><ele>294.4</ele><time>2026-05-01T15:46:28.998Z</time></trkpt><trkpt lat="44.8499233" lon="9.678875"><ele>293.0</ele><time>2026-05-01T15:46:30.998Z</time></trkpt><trkpt lat="44.850005" lon="9.6788233"><ele>293.0</ele><time>2026-05-01T15:46:31.998Z</time></trkpt><trkpt lat="44.8500917" lon="9.678765"><ele>293.0</ele><time>2026-05-01T15:46:32.999Z</time></trkpt><trkpt lat="44.85018" lon="9.67869"><ele>293.0</ele><time>2026-05-01T15:46:33.997Z</time></trkpt><trkpt lat="44.8502567" lon="9.6786033"><ele>293.0</ele><time>2026-05-01T15:46:34.997Z</time></trkpt><trkpt lat="44.8503067" lon="9.6784967"><ele>293.0</ele><time>2026-05-01T15:46:35.996Z</time></trkpt><trkpt lat="44.8503317" lon="9.6783683"><ele>291.4</ele><time>2026-05-01T15:46:36.996Z</time></trkpt><trkpt lat="44.8503367" lon="9.6782233"><ele>289.8</ele><time>2026-05-01T15:46:37.997Z</time></trkpt><trkpt lat="44.8503333" lon="9.6780733"><ele>288.2</ele><time>2026-05-01T15:46:38.997Z</time></trkpt><trkpt lat="44.8503233" lon="9.6779233"><ele>286.6</ele><time>2026-05-01T15:46:39.996Z</time></trkpt><trkpt lat="44.850325" lon="9.677785"><ele>285.0</ele><time>2026-05-01T15:46:40.996Z</time></trkpt><trkpt lat="44.8503533" lon="9.67764"><ele>285.0</ele><time>2026-05-01T15:46:41.996Z</time></trkpt><trkpt lat="44.8503983" lon="9.6774883"><ele>285.0</ele><time>2026-05-01T15:46:42.996Z</time></trkpt><trkpt lat="44.850455" lon="9.6773333"><ele>285.0</ele><time>2026-05-01T15:46:43.996Z</time></trkpt><trkpt lat="44.8505133" lon="9.6771933"><ele>285.0</ele><time>2026-05-01T15:46:44.996Z</time></trkpt><trkpt lat="44.8505633" lon="9.677075"><ele>285.0</ele><time>2026-05-01T15:46:45.996Z</time></trkpt><trkpt lat="44.8506133" lon="9.67697"><ele>285.0</ele><time>2026-05-01T15:46:46.997Z</time></trkpt><trkpt lat="44.8506733" lon="9.67688"><ele>285.0</ele><time>2026-05-01T15:46:47.996Z</time></trkpt><trkpt lat="44.8507533" lon="9.6768233"><ele>285.0</ele><time>2026-05-01T15:46:48.997Z</time></trkpt><trkpt lat="44.850855" lon="9.67681"><ele>285.0</ele><time>2026-05-01T15:46:49.996Z</time></trkpt><trkpt lat="44.850975" lon="9.6768133"><ele>288.75</ele><time>2026-05-01T15:46:50.997Z</time></trkpt><trkpt lat="44.8511167" lon="9.6768233"><ele>292.5</ele><time>2026-05-01T15:46:51.997Z</time></trkpt><trkpt lat="44.8512717" lon="9.6768433"><ele>296.25</ele><time>2026-05-01T15:46:52.998Z</time></trkpt><trkpt lat="44.8514117" lon="9.6768583"><ele>300.0</ele><time>2026-05-01T15:46:53.996Z</time></trkpt><trkpt lat="44.851535" lon="9.67687"><ele>300.0</ele><time>2026-05-01T15:46:54.997Z</time></trkpt><trkpt lat="44.85165" lon="9.6768633"><ele>300.0</ele><time>2026-05-01T15:46:55.999Z</time></trkpt><trkpt lat="44.8517633" lon="9.676825"><ele>300.0</ele><time>2026-05-01T15:46:56.997Z</time></trkpt><trkpt lat="44.8518817" lon="9.67676"><ele>300.0</ele><time>2026-05-01T15:46:57.997Z</time></trkpt><trkpt lat="44.8520033" lon="9.676695"><ele>302.0</ele><time>2026-05-01T15:46:58.996Z</time></trkpt><trkpt lat="44.852115" lon="9.6766333"><ele>304.0</ele><time>2026-05-01T15:46:59.996Z</time></trkpt><trkpt lat="44.8522167" lon="9.6765733"><ele>306.0</ele><time>2026-05-01T15:47:00.997Z</time></trkpt><trkpt lat="44.8522967" lon="9.6765"><ele>308.0</ele><time>2026-05-01T15:47:01.997Z</time></trkpt><trkpt lat="44.8523583" lon="9.6764033"><ele>310.0</ele><time>2026-05-01T15:47:02.996Z</time></trkpt><trkpt lat="44.8524" lon="9.67628"><ele>310.0</ele><time>2026-05-01T15:47:03.996Z</time></trkpt><trkpt lat="44.852435" lon="9.6761367"><ele>310.0</ele><time>2026-05-01T15:47:04.997Z</time></trkpt><trkpt lat="44.8524667" lon="9.675995"><ele>310.0</ele><time>2026-05-01T15:47:05.997Z</time></trkpt><trkpt lat="44.8525" lon="9.6758667"><ele>310.0</ele><time>2026-05-01T15:47:06.997Z</time></trkpt><trkpt lat="44.8525367" lon="9.675735"><ele>310.0</ele><time>2026-05-01T15:47:07.998Z</time></trkpt><trkpt lat="44.8525767" lon="9.6756083"><ele>311.0</ele><time>2026-05-01T15:47:08.996Z</time></trkpt><trkpt lat="44.852615" lon="9.6754917"><ele>312.0</ele><time>2026-05-01T15:47:09.998Z</time></trkpt><trkpt lat="44.8526567" lon="9.6753833"><ele>313.0</ele><time>2026-05-01T15:47:10.996Z</time></trkpt><trkpt lat="44.8527033" lon="9.67527"><ele>314.0</ele><time>2026-05-01T15:47:11.996Z</time></trkpt><trkpt lat="44.8527633" lon="9.67515"><ele>315.0</ele><time>2026-05-01T15:47:12.999Z</time></trkpt><trkpt lat="44.85282" lon="9.6750217"><ele>317.0</ele><time>2026-05-01T15:47:13.997Z</time></trkpt><trkpt lat="44.8528567" lon="9.674875"><ele>319.0</ele><time>2026-05-01T15:47:14.997Z</time></trkpt><trkpt lat="44.8528683" lon="9.6747067"><ele>321.0</ele><time>2026-05-01T15:47:15.998Z</time></trkpt><trkpt lat="44.8528517" lon="9.674525"><ele>323.0</ele><time>2026-05-01T15:47:16.999Z</time></trkpt><trkpt lat="44.8528233" lon="9.6743383"><ele>324.5</ele><time>2026-05-01T15:47:17.998Z</time></trkpt><trkpt lat="44.85281" lon="9.674165"><ele>326.0</ele><time>2026-05-01T15:47:18.998Z</time></trkpt><trkpt lat="44.8528233" lon="9.6739983"><ele>327.5</ele><time>2026-05-01T15:47:19.998Z</time></trkpt><trkpt lat="44.8528567" lon="9.673835"><ele>329.0</ele><time>2026-05-01T15:47:21Z</time></trkpt><trkpt lat="44.8529017" lon="9.6736933"><ele>331.0</ele><time>2026-05-01T15:47:21.998Z</time></trkpt><trkpt lat="44.8529717" lon="9.67359"><ele>333.0</ele><time>2026-05-01T15:47:22.999Z</time></trkpt><trkpt lat="44.8530617" lon="9.6735133"><ele>335.0</ele><time>2026-05-01T15:47:23.998Z</time></trkpt><trkpt lat="44.8531667" lon="9.67344"><ele>337.0</ele><time>2026-05-01T15:47:24.999Z</time></trkpt><trkpt lat="44.8532667" lon="9.6733583"><ele>339.0</ele><time>2026-05-01T15:47:25.999Z</time></trkpt><trkpt lat="44.853355" lon="9.6732767"><ele>339.0</ele><time>2026-05-01T15:47:26.999Z</time></trkpt><trkpt lat="44.8534433" lon="9.6732133"><ele>339.0</ele><time>2026-05-01T15:47:27.998Z</time></trkpt><trkpt lat="44.853535" lon="9.6731683"><ele>339.0</ele><time>2026-05-01T15:47:28.997Z</time></trkpt><trkpt lat="44.8536167" lon="9.6731333"><ele>339.0</ele><time>2026-05-01T15:47:29.997Z</time></trkpt><trkpt lat="44.8536833" lon="9.6731033"><ele>339.0</ele><time>2026-05-01T15:47:30.997Z</time></trkpt><trkpt lat="44.8537733" lon="9.6730383"><ele>338.4</ele><time>2026-05-01T15:47:32.997Z</time></trkpt><trkpt lat="44.8538067" lon="9.6729483"><ele>337.79999999999995</ele><time>2026-05-01T15:47:34.996Z</time></trkpt><trkpt lat="44.853805" lon="9.6728317"><ele>337.20000000000005</ele><time>2026-05-01T15:47:36.999Z</time></trkpt><trkpt lat="44.85376" lon="9.6726517"><ele>336.6</ele><time>2026-05-01T15:47:38.998Z</time></trkpt><trkpt lat="44.8537233" lon="9.672545"><ele>336.0</ele><time>2026-05-01T15:47:39.996Z</time></trkpt><trkpt lat="44.8536783" lon="9.67242"><ele>335.8</ele><time>2026-05-01T15:47:40.996Z</time></trkpt><trkpt lat="44.8536333" lon="9.6722867"><ele>335.6</ele><time>2026-05-01T15:47:41.996Z</time></trkpt><trkpt lat="44.853595" lon="9.672145"><ele>335.4</ele><time>2026-05-01T15:47:42.997Z</time></trkpt><trkpt lat="44.8535733" lon="9.6719967"><ele>335.2</ele><time>2026-05-01T15:47:43.996Z</time></trkpt><trkpt lat="44.853565" lon="9.6718417"><ele>335.0</ele><time>2026-05-01T15:47:44.998Z</time></trkpt><trkpt lat="44.8535583" lon="9.6716783"><ele>337.25</ele><time>2026-05-01T15:47:45.996Z</time></trkpt><trkpt lat="44.8535433" lon="9.67152"><ele>339.5</ele><time>2026-05-01T15:47:46.997Z</time></trkpt><trkpt lat="44.853525" lon="9.6713617"><ele>341.75</ele><time>2026-05-01T15:47:47.998Z</time></trkpt><trkpt lat="44.8535017" lon="9.6712017"><ele>344.0</ele><time>2026-05-01T15:47:48.998Z</time></trkpt><trkpt lat="44.853465" lon="9.6710383"><ele>349.75</ele><time>2026-05-01T15:47:49.998Z</time></trkpt><trkpt lat="44.8534133" lon="9.6708817"><ele>355.5</ele><time>2026-05-01T15:47:50.998Z</time></trkpt><trkpt lat="44.85335" lon="9.670715"><ele>361.25</ele><time>2026-05-01T15:47:51.999Z</time></trkpt><trkpt lat="44.8532833" lon="9.670545"><ele>367.0</ele><time>2026-05-01T15:47:52.999Z</time></trkpt><trkpt lat="44.853215" lon="9.670375"><ele>366.25</ele><time>2026-05-01T15:47:53.999Z</time></trkpt><trkpt lat="44.853145" lon="9.6702117"><ele>365.5</ele><time>2026-05-01T15:47:54.999Z</time></trkpt><trkpt lat="44.8530817" lon="9.67006"><ele>364.75</ele><time>2026-05-01T15:47:55.998Z</time></trkpt><trkpt lat="44.8530233" lon="9.6699133"><ele>364.0</ele><time>2026-05-01T15:47:57Z</time></trkpt><trkpt lat="44.8529683" lon="9.6697733"><ele>364.0</ele><time>2026-05-01T15:47:57.999Z</time></trkpt><trkpt lat="44.8529167" lon="9.6696283"><ele>364.0</ele><time>2026-05-01T15:47:58.998Z</time></trkpt><trkpt lat="44.8528733" lon="9.6694817"><ele>364.0</ele><time>2026-05-01T15:47:59.998Z</time></trkpt><trkpt lat="44.8528483" lon="9.669335"><ele>364.0</ele><time>2026-05-01T15:48:00.998Z</time></trkpt><trkpt lat="44.8528417" lon="9.669185"><ele>364.0</ele><time>2026-05-01T15:48:02Z</time></trkpt><trkpt lat="44.85284" lon="9.66904"><ele>364.0</ele><time>2026-05-01T15:48:02.996Z</time></trkpt><trkpt lat="44.8528267" lon="9.6688917"><ele>364.0</ele><time>2026-05-01T15:48:03.995Z</time></trkpt><trkpt lat="44.8527983" lon="9.6687317"><ele>364.0</ele><time>2026-05-01T15:48:04.996Z</time></trkpt><trkpt lat="44.852755" lon="9.668565"><ele>364.0</ele><time>2026-05-01T15:48:05.996Z</time></trkpt><trkpt lat="44.852705" lon="9.668395"><ele>365.0</ele><time>2026-05-01T15:48:06.996Z</time></trkpt><trkpt lat="44.8526533" lon="9.66823"><ele>366.0</ele><time>2026-05-01T15:48:07.996Z</time></trkpt><trkpt lat="44.8526" lon="9.6680717"><ele>367.0</ele><time>2026-05-01T15:48:08.997Z</time></trkpt><trkpt lat="44.85255" lon="9.66792"><ele>368.0</ele><time>2026-05-01T15:48:09.996Z</time></trkpt><trkpt lat="44.8525017" lon="9.667775"><ele>369.6666666666667</ele><time>2026-05-01T15:48:10.996Z</time></trkpt><trkpt lat="44.852465" lon="9.6676433"><ele>371.33333333333337</ele><time>2026-05-01T15:48:11.997Z</time></trkpt><trkpt lat="44.85244" lon="9.6675183"><ele>373.0</ele><time>2026-05-01T15:48:13.067Z</time></trkpt><trkpt lat="44.852435" lon="9.667405"><ele>374.6666666666667</ele><time>2026-05-01T15:48:13.996Z</time></trkpt><trkpt lat="44.85245" lon="9.6673133"><ele>376.3333333333333</ele><time>2026-05-01T15:48:14.996Z</time></trkpt><trkpt lat="44.8525267" lon="9.667205"><ele>378.0</ele><time>2026-05-01T15:48:16.997Z</time></trkpt><trkpt lat="44.85261" lon="9.66722"><ele>379.25</ele><time>2026-05-01T15:48:17.997Z</time></trkpt><trkpt lat="44.85271" lon="9.6672617"><ele>380.5</ele><time>2026-05-01T15:48:18.997Z</time></trkpt><trkpt lat="44.8528567" lon="9.66733"><ele>381.75</ele><time>2026-05-01T15:48:19.998Z</time></trkpt><trkpt lat="44.8530283" lon="9.6674033"><ele>383.0</ele><time>2026-05-01T15:48:20.997Z</time></trkpt><trkpt lat="44.8531933" lon="9.66747"><ele>383.0</ele><time>2026-05-01T15:48:21.997Z</time></trkpt><trkpt lat="44.8533467" lon="9.667525"><ele>383.0</ele><time>2026-05-01T15:48:22.997Z</time></trkpt><trkpt lat="44.85348" lon="9.66756"><ele>383.0</ele><time>2026-05-01T15:48:23.998Z</time></trkpt><trkpt lat="44.853605" lon="9.667575"><ele>383.0</ele><time>2026-05-01T15:48:24.997Z</time></trkpt><trkpt lat="44.8537317" lon="9.6675517"><ele>384.0</ele><time>2026-05-01T15:48:25.997Z</time></trkpt><trkpt lat="44.8538717" lon="9.6674833"><ele>385.0</ele><time>2026-05-01T15:48:26.996Z</time></trkpt><trkpt lat="44.85401" lon="9.667385"><ele>386.0</ele><time>2026-05-01T15:48:27.995Z</time></trkpt><trkpt lat="44.8541383" lon="9.667295"><ele>387.0</ele><time>2026-05-01T15:48:28.997Z</time></trkpt><trkpt lat="44.8542617" lon="9.66722"><ele>387.75</ele><time>2026-05-01T15:48:29.996Z</time></trkpt><trkpt lat="44.8543883" lon="9.6671817"><ele>388.5</ele><time>2026-05-01T15:48:30.997Z</time></trkpt><trkpt lat="44.8545167" lon="9.66718"><ele>389.25</ele><time>2026-05-01T15:48:31.997Z</time></trkpt><trkpt lat="44.8546383" lon="9.667205"><ele>390.0</ele><time>2026-05-01T15:48:32.996Z</time></trkpt><trkpt lat="44.8547483" lon="9.6672583"><ele>390.0</ele><time>2026-05-01T15:48:33.996Z</time></trkpt><trkpt lat="44.85486" lon="9.6673267"><ele>390.0</ele><time>2026-05-01T15:48:34.997Z</time></trkpt><trkpt lat="44.8549633" lon="9.66739"><ele>390.0</ele><time>2026-05-01T15:48:35.995Z</time></trkpt><trkpt lat="44.85506" lon="9.667445"><ele>390.0</ele><time>2026-05-01T15:48:36.996Z</time></trkpt><trkpt lat="44.8551467" lon="9.66748"><ele>390.0</ele><time>2026-05-01T15:48:37.996Z</time></trkpt><trkpt lat="44.8552333" lon="9.667475"><ele>390.3333333333333</ele><time>2026-05-01T15:48:38.997Z</time></trkpt><trkpt lat="44.8553083" lon="9.6674467"><ele>390.66666666666663</ele><time>2026-05-01T15:48:39.997Z</time></trkpt><trkpt lat="44.8553767" lon="9.66742"><ele>391.0</ele><time>2026-05-01T15:48:40.996Z</time></trkpt><trkpt lat="44.8554917" lon="9.6674383"><ele>391.3333333333333</ele><time>2026-05-01T15:48:42.998Z</time></trkpt><trkpt lat="44.855555" lon="9.667505"><ele>391.66666666666663</ele><time>2026-05-01T15:48:43.997Z</time></trkpt><trkpt lat="44.8556217" lon="9.6676083"><ele>392.0</ele><time>2026-05-01T15:48:44.997Z</time></trkpt><trkpt lat="44.8557083" lon="9.6677283"><ele>391.75</ele><time>2026-05-01T15:48:45.995Z</time></trkpt><trkpt lat="44.8558233" lon="9.6678683"><ele>391.5</ele><time>2026-05-01T15:48:46.996Z</time></trkpt><trkpt lat="44.8559417" lon="9.667995"><ele>391.25</ele><time>2026-05-01T15:48:47.996Z</time></trkpt><trkpt lat="44.8560717" lon="9.66809"><ele>391.0</ele><time>2026-05-01T15:48:48.996Z</time></trkpt><trkpt lat="44.8561983" lon="9.668155"><ele>391.8</ele><time>2026-05-01T15:48:49.997Z</time></trkpt><trkpt lat="44.8563167" lon="9.6682083"><ele>392.6</ele><time>2026-05-01T15:48:50.996Z</time></trkpt><trkpt lat="44.85642" lon="9.66828"><ele>393.4</ele><time>2026-05-01T15:48:51.996Z</time></trkpt><trkpt lat="44.8565017" lon="9.668365"><ele>394.2</ele><time>2026-05-01T15:48:52.996Z</time></trkpt><trkpt lat="44.8565617" lon="9.66848"><ele>395.0</ele><time>2026-05-01T15:48:53.996Z</time></trkpt><trkpt lat="44.8566033" lon="9.66862"><ele>395.2</ele><time>2026-05-01T15:48:54.996Z</time></trkpt><trkpt lat="44.8566317" lon="9.6687733"><ele>395.4</ele><time>2026-05-01T15:48:55.997Z</time></trkpt><trkpt lat="44.8566567" lon="9.6689183"><ele>395.6</ele><time>2026-05-01T15:48:56.997Z</time></trkpt><trkpt lat="44.8566883" lon="9.6690467"><ele>395.8</ele><time>2026-05-01T15:48:57.996Z</time></trkpt><trkpt lat="44.856735" lon="9.6691717"><ele>396.0</ele><time>2026-05-01T15:48:58.997Z</time></trkpt><trkpt lat="44.856815" lon="9.6692767"><ele>396.0</ele><time>2026-05-01T15:48:59.995Z</time></trkpt><trkpt lat="44.8569167" lon="9.6693817"><ele>396.0</ele><time>2026-05-01T15:49:00.997Z</time></trkpt><trkpt lat="44.8570283" lon="9.6694917"><ele>396.0</ele><time>2026-05-01T15:49:01.998Z</time></trkpt><trkpt lat="44.8571517" lon="9.6696067"><ele>396.0</ele><time>2026-05-01T15:49:02.996Z</time></trkpt><trkpt lat="44.8572867" lon="9.669725"><ele>396.75</ele><time>2026-05-01T15:49:03.995Z</time></trkpt><trkpt lat="44.8574183" lon="9.6698483"><ele>397.5</ele><time>2026-05-01T15:49:04.997Z</time></trkpt><trkpt lat="44.857535" lon="9.6699683"><ele>398.25</ele><time>2026-05-01T15:49:05.995Z</time></trkpt><trkpt lat="44.8576483" lon="9.6700817"><ele>399.0</ele><time>2026-05-01T15:49:06.995Z</time></trkpt><trkpt lat="44.8577533" lon="9.67019"><ele>399.25</ele><time>2026-05-01T15:49:07.995Z</time></trkpt><trkpt lat="44.8578483" lon="9.670295"><ele>399.5</ele><time>2026-05-01T15:49:08.997Z</time></trkpt><trkpt lat="44.8579367" lon="9.6704"><ele>399.75</ele><time>2026-05-01T15:49:09.996Z</time></trkpt><trkpt lat="44.8580167" lon="9.670515"><ele>400.0</ele><time>2026-05-01T15:49:10.996Z</time></trkpt><trkpt lat="44.8580883" lon="9.6706417"><ele>400.0</ele><time>2026-05-01T15:49:11.997Z</time></trkpt><trkpt lat="44.858145" lon="9.6707733"><ele>400.0</ele><time>2026-05-01T15:49:12.996Z</time></trkpt><trkpt lat="44.8581883" lon="9.6709183"><ele>400.0</ele><time>2026-05-01T15:49:13.996Z</time></trkpt><trkpt lat="44.8582133" lon="9.6710767"><ele>400.0</ele><time>2026-05-01T15:49:14.997Z</time></trkpt><trkpt lat="44.858235" lon="9.6712383"><ele>399.4</ele><time>2026-05-01T15:49:15.996Z</time></trkpt><trkpt lat="44.8582583" lon="9.6713967"><ele>398.8</ele><time>2026-05-01T15:49:16.996Z</time></trkpt><trkpt lat="44.8582867" lon="9.67155"><ele>398.20000000000005</ele><time>2026-05-01T15:49:17.996Z</time></trkpt><trkpt lat="44.8583133" lon="9.6716983"><ele>397.6</ele><time>2026-05-01T15:49:18.996Z</time></trkpt><trkpt lat="44.8583633" lon="9.6718333"><ele>397.0</ele><time>2026-05-01T15:49:19.996Z</time></trkpt><trkpt lat="44.858435" lon="9.671965"><ele>395.0</ele><time>2026-05-01T15:49:20.996Z</time></trkpt><trkpt lat="44.8585267" lon="9.6720983"><ele>393.0</ele><time>2026-05-01T15:49:21.997Z</time></trkpt><trkpt lat="44.8586317" lon="9.6722317"><ele>391.0</ele><time>2026-05-01T15:49:22.998Z</time></trkpt><trkpt lat="44.8587383" lon="9.6723617"><ele>389.0</ele><time>2026-05-01T15:49:23.997Z</time></trkpt><trkpt lat="44.8588417" lon="9.672485"><ele>389.0</ele><time>2026-05-01T15:49:24.997Z</time></trkpt><trkpt lat="44.858945" lon="9.6726017"><ele>389.0</ele><time>2026-05-01T15:49:25.997Z</time></trkpt><trkpt lat="44.8590433" lon="9.6727117"><ele>389.0</ele><time>2026-05-01T15:49:26.999Z</time></trkpt><trkpt lat="44.8591417" lon="9.6728167"><ele>389.0</ele><time>2026-05-01T15:49:27.998Z</time></trkpt><trkpt lat="44.8592367" lon="9.67291"><ele>387.4</ele><time>2026-05-01T15:49:28.998Z</time></trkpt><trkpt lat="44.8593283" lon="9.6729967"><ele>385.79999999999995</ele><time>2026-05-01T15:49:29.999Z</time></trkpt><trkpt lat="44.8594167" lon="9.67308"><ele>384.20000000000005</ele><time>2026-05-01T15:49:30.997Z</time></trkpt><trkpt lat="44.8595017" lon="9.6731617"><ele>382.6</ele><time>2026-05-01T15:49:31.998Z</time></trkpt><trkpt lat="44.8595817" lon="9.67324"><ele>381.0</ele><time>2026-05-01T15:49:32.999Z</time></trkpt><trkpt lat="44.8596433" lon="9.6733117"><ele>381.0</ele><time>2026-05-01T15:49:33.999Z</time></trkpt><trkpt lat="44.85969" lon="9.6733733"><ele>381.0</ele><time>2026-05-01T15:49:34.998Z</time></trkpt><trkpt lat="44.8597533" lon="9.6734683"><ele>381.0</ele><time>2026-05-01T15:49:36.998Z</time></trkpt><trkpt lat="44.8598433" lon="9.67346"><ele>381.0</ele><time>2026-05-01T15:49:39.998Z</time></trkpt><trkpt lat="44.859915" lon="9.67334"><ele>381.0</ele><time>2026-05-01T15:49:41.998Z</time></trkpt><trkpt lat="44.85996" lon="9.6732517"><ele>381.0</ele><time>2026-05-01T15:49:42.998Z</time></trkpt><trkpt lat="44.8600167" lon="9.673165"><ele>381.0</ele><time>2026-05-01T15:49:43.999Z</time></trkpt><trkpt lat="44.860085" lon="9.6730817"><ele>381.0</ele><time>2026-05-01T15:49:44.998Z</time></trkpt><trkpt lat="44.8601567" lon="9.6730117"><ele>381.0</ele><time>2026-05-01T15:49:45.996Z</time></trkpt><trkpt lat="44.8602333" lon="9.67296"><ele>381.0</ele><time>2026-05-01T15:49:46.996Z</time></trkpt><trkpt lat="44.86031" lon="9.67292"><ele>381.0</ele><time>2026-05-01T15:49:47.996Z</time></trkpt><trkpt lat="44.8603883" lon="9.6728867"><ele>381.0</ele><time>2026-05-01T15:49:48.996Z</time></trkpt><trkpt lat="44.8604667" lon="9.6728683"><ele>379.0</ele><time>2026-05-01T15:49:49.997Z</time></trkpt><trkpt lat="44.8605433" lon="9.6728533"><ele>377.0</ele><time>2026-05-01T15:49:50.998Z</time></trkpt><trkpt lat="44.8606267" lon="9.67284"><ele>375.0</ele><time>2026-05-01T15:49:51.998Z</time></trkpt><trkpt lat="44.8607183" lon="9.6728417"><ele>373.0</ele><time>2026-05-01T15:49:52.998Z</time></trkpt><trkpt lat="44.8608217" lon="9.6728367"><ele>371.0</ele><time>2026-05-01T15:49:53.995Z</time></trkpt><trkpt lat="44.8609217" lon="9.6728317"><ele>369.4</ele><time>2026-05-01T15:49:54.997Z</time></trkpt><trkpt lat="44.8610167" lon="9.6728267"><ele>367.8</ele><time>2026-05-01T15:49:55.997Z</time></trkpt><trkpt lat="44.8611133" lon="9.672825"><ele>366.2</ele><time>2026-05-01T15:49:56.998Z</time></trkpt><trkpt lat="44.861215" lon="9.67282"><ele>364.59999999999997</ele><time>2026-05-01T15:49:57.997Z</time></trkpt><trkpt lat="44.861315" lon="9.67282"><ele>363.0</ele><time>2026-05-01T15:49:58.997Z</time></trkpt><trkpt lat="44.861415" lon="9.6728233"><ele>363.0</ele><time>2026-05-01T15:49:59.996Z</time></trkpt><trkpt lat="44.86152" lon="9.672835"><ele>363.0</ele><time>2026-05-01T15:50:00.996Z</time></trkpt><trkpt lat="44.861625" lon="9.6728683"><ele>363.0</ele><time>2026-05-01T15:50:01.997Z</time></trkpt><trkpt lat="44.8617267" lon="9.67292"><ele>363.0</ele><time>2026-05-01T15:50:02.998Z</time></trkpt><trkpt lat="44.8618333" lon="9.672995"><ele>363.0</ele><time>2026-05-01T15:50:03.999Z</time></trkpt><trkpt lat="44.8619467" lon="9.6730767"><ele>362.25</ele><time>2026-05-01T15:50:04.997Z</time></trkpt><trkpt lat="44.8620583" lon="9.6731583"><ele>361.5</ele><time>2026-05-01T15:50:06.081Z</time></trkpt><trkpt lat="44.8621633" lon="9.6732317"><ele>360.75</ele><time>2026-05-01T15:50:06.998Z</time></trkpt><trkpt lat="44.86227" lon="9.6732917"><ele>360.0</ele><time>2026-05-01T15:50:07.999Z</time></trkpt><trkpt lat="44.86238" lon="9.67335"><ele>360.0</ele><time>2026-05-01T15:50:09Z</time></trkpt><trkpt lat="44.8624867" lon="9.6734183"><ele>360.0</ele><time>2026-05-01T15:50:09.996Z</time></trkpt><trkpt lat="44.862585" lon="9.6734967"><ele>360.0</ele><time>2026-05-01T15:50:10.996Z</time></trkpt><trkpt lat="44.8626883" lon="9.6735917"><ele>360.0</ele><time>2026-05-01T15:50:11.997Z</time></trkpt><trkpt lat="44.86279" lon="9.6736867"><ele>358.75</ele><time>2026-05-01T15:50:12.998Z</time></trkpt><trkpt lat="44.8628867" lon="9.6737767"><ele>357.5</ele><time>2026-05-01T15:50:13.996Z</time></trkpt><trkpt lat="44.8629883" lon="9.673865"><ele>356.25</ele><time>2026-05-01T15:50:14.996Z</time></trkpt><trkpt lat="44.8630867" lon="9.6739567"><ele>355.0</ele><time>2026-05-01T15:50:15.997Z</time></trkpt><trkpt lat="44.8631817" lon="9.6740517"><ele>355.0</ele><time>2026-05-01T15:50:16.997Z</time></trkpt><trkpt lat="44.863265" lon="9.674145"><ele>355.0</ele><time>2026-05-01T15:50:17.995Z</time></trkpt><trkpt lat="44.86335" lon="9.67422"><ele>355.0</ele><time>2026-05-01T15:50:18.997Z</time></trkpt><trkpt lat="44.8634267" lon="9.6742817"><ele>355.0</ele><time>2026-05-01T15:50:19.997Z</time></trkpt><trkpt lat="44.8635067" lon="9.6743417"><ele>355.0</ele><time>2026-05-01T15:50:20.996Z</time></trkpt><trkpt lat="44.8635917" lon="9.6744133"><ele>355.5</ele><time>2026-05-01T15:50:21.996Z</time></trkpt><trkpt lat="44.8636867" lon="9.6744867"><ele>356.0</ele><time>2026-05-01T15:50:22.995Z</time></trkpt><trkpt lat="44.8637933" lon="9.67455"><ele>356.5</ele><time>2026-05-01T15:50:23.998Z</time></trkpt><trkpt lat="44.8639033" lon="9.674605"><ele>357.0</ele><time>2026-05-01T15:50:24.996Z</time></trkpt><trkpt lat="44.86401" lon="9.674655"><ele>357.0</ele><time>2026-05-01T15:50:25.996Z</time></trkpt><trkpt lat="44.8641083" lon="9.6747083"><ele>357.0</ele><time>2026-05-01T15:50:26.998Z</time></trkpt><trkpt lat="44.8642067" lon="9.6747633"><ele>357.0</ele><time>2026-05-01T15:50:27.998Z</time></trkpt><trkpt lat="44.8643017" lon="9.67482"><ele>357.0</ele><time>2026-05-01T15:50:28.998Z</time></trkpt><trkpt lat="44.864395" lon="9.6748883"><ele>357.0</ele><time>2026-05-01T15:50:29.999Z</time></trkpt><trkpt lat="44.864485" lon="9.6749717"><ele>355.6</ele><time>2026-05-01T15:50:30.996Z</time></trkpt><trkpt lat="44.8645767" lon="9.6750467"><ele>354.20000000000005</ele><time>2026-05-01T15:50:31.996Z</time></trkpt><trkpt lat="44.8646667" lon="9.67512"><ele>352.8</ele><time>2026-05-01T15:50:32.998Z</time></trkpt><trkpt lat="44.8647533" lon="9.6751917"><ele>351.4</ele><time>2026-05-01T15:50:33.996Z</time></trkpt><trkpt lat="44.8648417" lon="9.6752583"><ele>350.0</ele><time>2026-05-01T15:50:34.996Z</time></trkpt><trkpt lat="44.8649317" lon="9.675325"><ele>349.6</ele><time>2026-05-01T15:50:35.997Z</time></trkpt><trkpt lat="44.8650233" lon="9.67539"><ele>349.2</ele><time>2026-05-01T15:50:36.998Z</time></trkpt><trkpt lat="44.86511" lon="9.6754567"><ele>348.79999999999995</ele><time>2026-05-01T15:50:37.998Z</time></trkpt><trkpt lat="44.8651933" lon="9.6755183"><ele>348.4</ele><time>2026-05-01T15:50:38.998Z</time></trkpt><trkpt lat="44.86528" lon="9.6755767"><ele>348.0</ele><time>2026-05-01T15:50:39.999Z</time></trkpt><trkpt lat="44.8653717" lon="9.675635"><ele>347.2</ele><time>2026-05-01T15:50:40.998Z</time></trkpt><trkpt lat="44.8654633" lon="9.67569"><ele>346.4</ele><time>2026-05-01T15:50:41.998Z</time></trkpt><trkpt lat="44.865555" lon="9.6757433"><ele>345.59999999999997</ele><time>2026-05-01T15:50:42.997Z</time></trkpt><trkpt lat="44.86565" lon="9.6757883"><ele>344.79999999999995</ele><time>2026-05-01T15:50:43.998Z</time></trkpt><trkpt lat="44.865745" lon="9.6758267"><ele>344.0</ele><time>2026-05-01T15:50:44.998Z</time></trkpt><trkpt lat="44.8658383" lon="9.6758617"><ele>344.0</ele><time>2026-05-01T15:50:45.997Z</time></trkpt><trkpt lat="44.8659367" lon="9.67589"><ele>344.0</ele><time>2026-05-01T15:50:46.998Z</time></trkpt><trkpt lat="44.86604" lon="9.6759083"><ele>344.0</ele><time>2026-05-01T15:50:47.998Z</time></trkpt><trkpt lat="44.8661483" lon="9.6759183"><ele>344.0</ele><time>2026-05-01T15:50:48.998Z</time></trkpt><trkpt lat="44.8662567" lon="9.6759183"><ele>344.0</ele><time>2026-05-01T15:50:49.996Z</time></trkpt><trkpt lat="44.8663633" lon="9.6759183"><ele>343.0</ele><time>2026-05-01T15:50:50.996Z</time></trkpt><trkpt lat="44.866465" lon="9.67592"><ele>342.0</ele><time>2026-05-01T15:50:51.996Z</time></trkpt><trkpt lat="44.8665667" lon="9.675925"><ele>341.0</ele><time>2026-05-01T15:50:52.998Z</time></trkpt><trkpt lat="44.866675" lon="9.67593"><ele>340.0</ele><time>2026-05-01T15:50:53.996Z</time></trkpt><trkpt lat="44.8667867" lon="9.6759383"><ele>339.0</ele><time>2026-05-01T15:50:54.997Z</time></trkpt><trkpt lat="44.8668983" lon="9.6759517"><ele>338.4</ele><time>2026-05-01T15:50:55.997Z</time></trkpt><trkpt lat="44.8670067" lon="9.675965"><ele>337.79999999999995</ele><time>2026-05-01T15:50:56.998Z</time></trkpt><trkpt lat="44.8671133" lon="9.6759783"><ele>337.20000000000005</ele><time>2026-05-01T15:50:57.996Z</time></trkpt><trkpt lat="44.86722" lon="9.6759933"><ele>336.6</ele><time>2026-05-01T15:50:58.997Z</time></trkpt><trkpt lat="44.8673233" lon="9.6760017"><ele>336.0</ele><time>2026-05-01T15:50:59.998Z</time></trkpt><trkpt lat="44.8674217" lon="9.6760033"><ele>336.0</ele><time>2026-05-01T15:51:00.997Z</time></trkpt><trkpt lat="44.86752" lon="9.6759967"><ele>336.0</ele><time>2026-05-01T15:51:01.996Z</time></trkpt><trkpt lat="44.867615" lon="9.67599"><ele>336.0</ele><time>2026-05-01T15:51:02.997Z</time></trkpt><trkpt lat="44.8677083" lon="9.6759967"><ele>336.0</ele><time>2026-05-01T15:51:03.997Z</time></trkpt><trkpt lat="44.8677983" lon="9.6760183"><ele>336.0</ele><time>2026-05-01T15:51:04.996Z</time></trkpt><trkpt lat="44.8678867" lon="9.6760617"><ele>335.0</ele><time>2026-05-01T15:51:05.998Z</time></trkpt><trkpt lat="44.8679733" lon="9.676125"><ele>334.0</ele><time>2026-05-01T15:51:06.996Z</time></trkpt><trkpt lat="44.868055" lon="9.67621"><ele>333.0</ele><time>2026-05-01T15:51:07.996Z</time></trkpt><trkpt lat="44.8681367" lon="9.6763067"><ele>332.0</ele><time>2026-05-01T15:51:08.997Z</time></trkpt><trkpt lat="44.8682233" lon="9.6764017"><ele>331.0</ele><time>2026-05-01T15:51:09.996Z</time></trkpt><trkpt lat="44.8683083" lon="9.676495"><ele>331.0</ele><time>2026-05-01T15:51:10.997Z</time></trkpt><trkpt lat="44.86839" lon="9.6765817"><ele>331.0</ele><time>2026-05-01T15:51:11.996Z</time></trkpt><trkpt lat="44.8684733" lon="9.6766683"><ele>331.0</ele><time>2026-05-01T15:51:12.996Z</time></trkpt><trkpt lat="44.868555" lon="9.6767533"><ele>331.0</ele><time>2026-05-01T15:51:13.997Z</time></trkpt><trkpt lat="44.868635" lon="9.676835"><ele>331.0</ele><time>2026-05-01T15:51:14.997Z</time></trkpt><trkpt lat="44.868715" lon="9.6769067"><ele>330.0</ele><time>2026-05-01T15:51:15.996Z</time></trkpt><trkpt lat="44.8688017" lon="9.6769717"><ele>329.0</ele><time>2026-05-01T15:51:16.996Z</time></trkpt><trkpt lat="44.8688917" lon="9.6770267"><ele>328.0</ele><time>2026-05-01T15:51:17.996Z</time></trkpt><trkpt lat="44.86898" lon="9.6770783"><ele>327.0</ele><time>2026-05-01T15:51:18.996Z</time></trkpt><trkpt lat="44.8690617" lon="9.6771333"><ele>326.0</ele><time>2026-05-01T15:51:20Z</time></trkpt><trkpt lat="44.8691383" lon="9.6771983"><ele>326.0</ele><time>2026-05-01T15:51:20.998Z</time></trkpt><trkpt lat="44.869215" lon="9.6772583"><ele>326.0</ele><time>2026-05-01T15:51:21.997Z</time></trkpt><trkpt lat="44.869295" lon="9.677315"><ele>326.0</ele><time>2026-05-01T15:51:22.999Z</time></trkpt><trkpt lat="44.8693717" lon="9.677375"><ele>326.0</ele><time>2026-05-01T15:51:23.998Z</time></trkpt><trkpt lat="44.869445" lon="9.6774333"><ele>326.0</ele><time>2026-05-01T15:51:24.999Z</time></trkpt><trkpt lat="44.8695183" lon="9.677485"><ele>326.0</ele><time>2026-05-01T15:51:25.997Z</time></trkpt><trkpt lat="44.8695867" lon="9.6775367"><ele>325.5</ele><time>2026-05-01T15:51:26.998Z</time></trkpt><trkpt lat="44.8696517" lon="9.677585"><ele>325.0</ele><time>2026-05-01T15:51:27.998Z</time></trkpt><trkpt lat="44.869715" lon="9.6776217"><ele>324.5</ele><time>2026-05-01T15:51:28.999Z</time></trkpt><trkpt lat="44.869775" lon="9.6776567"><ele>324.0</ele><time>2026-05-01T15:51:29.998Z</time></trkpt><trkpt lat="44.869835" lon="9.6776967"><ele>323.5</ele><time>2026-05-01T15:51:30.998Z</time></trkpt><trkpt lat="44.8699417" lon="9.677755"><ele>323.0</ele><time>2026-05-01T15:51:32.999Z</time></trkpt><trkpt lat="44.87004" lon="9.677825"><ele>322.2</ele><time>2026-05-01T15:51:34.998Z</time></trkpt><trkpt lat="44.8701233" lon="9.6779"><ele>321.4</ele><time>2026-05-01T15:51:36.997Z</time></trkpt><trkpt lat="44.8701967" lon="9.67801"><ele>320.59999999999997</ele><time>2026-05-01T15:51:38.997Z</time></trkpt><trkpt lat="44.8702733" lon="9.678105"><ele>319.79999999999995</ele><time>2026-05-01T15:51:40.997Z</time></trkpt><trkpt lat="44.8703583" lon="9.6781583"><ele>319.0</ele><time>2026-05-01T15:51:42.996Z</time></trkpt><trkpt lat="44.870435" lon="9.6781833"><ele>319.0</ele><time>2026-05-01T15:51:44.996Z</time></trkpt><trkpt lat="44.8705033" lon="9.67819"><ele>319.0</ele><time>2026-05-01T15:51:46.996Z</time></trkpt><trkpt lat="44.87058" lon="9.6781967"><ele>319.0</ele><time>2026-05-01T15:51:48.996Z</time></trkpt><trkpt lat="44.8706517" lon="9.67821"><ele>319.0</ele><time>2026-05-01T15:51:50.997Z</time></trkpt><trkpt lat="44.8707367" lon="9.6782083"><ele>319.0</ele><time>2026-05-01T15:51:52.997Z</time></trkpt><trkpt lat="44.870825" lon="9.678215"><ele>319.0</ele><time>2026-05-01T15:51:54.999Z</time></trkpt><trkpt lat="44.8709033" lon="9.6782267"><ele>318.2</ele><time>2026-05-01T15:51:56.999Z</time></trkpt><trkpt lat="44.870995" lon="9.6782483"><ele>317.4</ele><time>2026-05-01T15:51:58.999Z</time></trkpt><trkpt lat="44.8711067" lon="9.67827"><ele>316.6</ele><time>2026-05-01T15:52:00.999Z</time></trkpt><trkpt lat="44.8712233" lon="9.67831"><ele>315.8</ele><time>2026-05-01T15:52:02.998Z</time></trkpt><trkpt lat="44.8712817" lon="9.6783467"><ele>315.0</ele><time>2026-05-01T15:52:03.998Z</time></trkpt><trkpt lat="44.8713367" lon="9.6783967"><ele>315.0</ele><time>2026-05-01T15:52:04.997Z</time></trkpt><trkpt lat="44.8713833" lon="9.6784583"><ele>315.0</ele><time>2026-05-01T15:52:05.996Z</time></trkpt><trkpt lat="44.8714217" lon="9.67853"><ele>315.0</ele><time>2026-05-01T15:52:06.997Z</time></trkpt><trkpt lat="44.8714733" lon="9.67869"><ele>315.0</ele><time>2026-05-01T15:52:08.997Z</time></trkpt><trkpt lat="44.87149" lon="9.6787767"><ele>315.0</ele><time>2026-05-01T15:52:09.997Z</time></trkpt><trkpt lat="44.87151" lon="9.6788633"><ele>315.0</ele><time>2026-05-01T15:52:10.996Z</time></trkpt><trkpt lat="44.87159" lon="9.6789917"><ele>314.6</ele><time>2026-05-01T15:52:13.069Z</time></trkpt><trkpt lat="44.87165" lon="9.679035"><ele>314.2</ele><time>2026-05-01T15:52:13.997Z</time></trkpt><trkpt lat="44.871725" lon="9.6790683"><ele>313.8</ele><time>2026-05-01T15:52:14.997Z</time></trkpt><trkpt lat="44.8718167" lon="9.6790917"><ele>313.4</ele><time>2026-05-01T15:52:15.996Z</time></trkpt><trkpt lat="44.87192" lon="9.679115"><ele>313.0</ele><time>2026-05-01T15:52:16.996Z</time></trkpt><trkpt lat="44.8720267" lon="9.6791383"><ele>312.6</ele><time>2026-05-01T15:52:17.997Z</time></trkpt><trkpt lat="44.87213" lon="9.6791583"><ele>312.20000000000005</ele><time>2026-05-01T15:52:18.997Z</time></trkpt><trkpt lat="44.87223" lon="9.67918"><ele>311.8</ele><time>2026-05-01T15:52:19.996Z</time></trkpt><trkpt lat="44.8723267" lon="9.679205"><ele>311.40000000000003</ele><time>2026-05-01T15:52:20.998Z</time></trkpt><trkpt lat="44.8724183" lon="9.6792367"><ele>311.0</ele><time>2026-05-01T15:52:21.997Z</time></trkpt><trkpt lat="44.872505" lon="9.67927"><ele>311.0</ele><time>2026-05-01T15:52:22.998Z</time></trkpt><trkpt lat="44.87259" lon="9.67931"><ele>311.0</ele><time>2026-05-01T15:52:23.998Z</time></trkpt><trkpt lat="44.872675" lon="9.679345"><ele>311.0</ele><time>2026-05-01T15:52:24.998Z</time></trkpt><trkpt lat="44.8727633" lon="9.679355"><ele>311.0</ele><time>2026-05-01T15:52:25.998Z</time></trkpt><trkpt lat="44.8728567" lon="9.679345"><ele>311.0</ele><time>2026-05-01T15:52:26.999Z</time></trkpt><trkpt lat="44.8729483" lon="9.6793317"><ele>309.6666666666667</ele><time>2026-05-01T15:52:27.998Z</time></trkpt><trkpt lat="44.87304" lon="9.6793383"><ele>308.33333333333337</ele><time>2026-05-01T15:52:28.997Z</time></trkpt><trkpt lat="44.8731267" lon="9.67936"><ele>307.0</ele><time>2026-05-01T15:52:29.997Z</time></trkpt><trkpt lat="44.8732083" lon="9.6793733"><ele>305.6666666666667</ele><time>2026-05-01T15:52:30.996Z</time></trkpt><trkpt lat="44.8732867" lon="9.6793767"><ele>304.3333333333333</ele><time>2026-05-01T15:52:31.997Z</time></trkpt><trkpt lat="44.8733633" lon="9.6793533"><ele>303.0</ele><time>2026-05-01T15:52:32.998Z</time></trkpt><trkpt lat="44.8734367" lon="9.679305"><ele>301.2</ele><time>2026-05-01T15:52:33.997Z</time></trkpt><trkpt lat="44.8735133" lon="9.6792333"><ele>299.4</ele><time>2026-05-01T15:52:34.996Z</time></trkpt><trkpt lat="44.873595" lon="9.679135"><ele>297.59999999999997</ele><time>2026-05-01T15:52:35.996Z</time></trkpt><trkpt lat="44.87368" lon="9.6790233"><ele>295.8</ele><time>2026-05-01T15:52:36.996Z</time></trkpt><trkpt lat="44.8737667" lon="9.6789083"><ele>294.0</ele><time>2026-05-01T15:52:37.996Z</time></trkpt><trkpt lat="44.873845" lon="9.6787917"><ele>294.0</ele><time>2026-05-01T15:52:38.996Z</time></trkpt><trkpt lat="44.8739233" lon="9.6786767"><ele>294.0</ele><time>2026-05-01T15:52:39.995Z</time></trkpt><trkpt lat="44.8740083" lon="9.6785683"><ele>294.0</ele><time>2026-05-01T15:52:40.997Z</time></trkpt><trkpt lat="44.8740983" lon="9.6784617"><ele>294.0</ele><time>2026-05-01T15:52:41.995Z</time></trkpt><trkpt lat="44.8741933" lon="9.6783617"><ele>292.5</ele><time>2026-05-01T15:52:42.996Z</time></trkpt><trkpt lat="44.8742917" lon="9.67826"><ele>291.0</ele><time>2026-05-01T15:52:43.997Z</time></trkpt><trkpt lat="44.8743983" lon="9.6781467"><ele>289.5</ele><time>2026-05-01T15:52:44.996Z</time></trkpt><trkpt lat="44.8745067" lon="9.6780333"><ele>288.0</ele><time>2026-05-01T15:52:45.997Z</time></trkpt><trkpt lat="44.8746067" lon="9.6779267"><ele>288.0</ele><time>2026-05-01T15:52:46.996Z</time></trkpt><trkpt lat="44.8747" lon="9.67783"><ele>288.0</ele><time>2026-05-01T15:52:47.997Z</time></trkpt><trkpt lat="44.87479" lon="9.6777367"><ele>288.0</ele><time>2026-05-01T15:52:48.997Z</time></trkpt><trkpt lat="44.8748822" lon="9.6776426"><ele>288.0</ele><time>2026-05-01T15:52:49.996Z</time></trkpt><trkpt lat="44.8749766" lon="9.6775531"><ele>288.6</ele><time>2026-05-01T15:52:50.996Z</time></trkpt><trkpt lat="44.8750668" lon="9.6774713"><ele>289.20000000000005</ele><time>2026-05-01T15:52:51.996Z</time></trkpt><trkpt lat="44.8751536" lon="9.677395"><ele>289.8</ele><time>2026-05-01T15:52:52.996Z</time></trkpt><trkpt lat="44.8752361" lon="9.6773266"><ele>290.40000000000003</ele><time>2026-05-01T15:52:53.996Z</time></trkpt><trkpt lat="44.8753224" lon="9.6772674"><ele>291.0</ele><time>2026-05-01T15:52:54.996Z</time></trkpt><trkpt lat="44.8754169" lon="9.6772167"><ele>289.0</ele><time>2026-05-01T15:52:55.999Z</time></trkpt><trkpt lat="44.8755223" lon="9.6771708"><ele>287.0</ele><time>2026-05-01T15:52:56.997Z</time></trkpt><trkpt lat="44.8756332" lon="9.6771269"><ele>285.0</ele><time>2026-05-01T15:52:57.998Z</time></trkpt><trkpt lat="44.8757494" lon="9.6770843"><ele>283.0</ele><time>2026-05-01T15:52:58.999Z</time></trkpt><trkpt lat="44.8758623" lon="9.6770363"><ele>281.0</ele><time>2026-05-01T15:52:59.999Z</time></trkpt><trkpt lat="44.875959" lon="9.6769857"><ele>279.0</ele><time>2026-05-01T15:53:00.998Z</time></trkpt><trkpt lat="44.8760435" lon="9.6769264"><ele>277.0</ele><time>2026-05-01T15:53:01.998Z</time></trkpt><trkpt lat="44.8761135" lon="9.6768487"><ele>275.0</ele><time>2026-05-01T15:53:02.998Z</time></trkpt><trkpt lat="44.8761717" lon="9.6767527"><ele>273.0</ele><time>2026-05-01T15:53:03.999Z</time></trkpt><trkpt lat="44.8762285" lon="9.6766538"><ele>272.6</ele><time>2026-05-01T15:53:04.999Z</time></trkpt><trkpt lat="44.8762966" lon="9.6765678"><ele>272.20000000000005</ele><time>2026-05-01T15:53:05.998Z</time></trkpt><trkpt lat="44.8763856" lon="9.6765016"><ele>271.8</ele><time>2026-05-01T15:53:06.998Z</time></trkpt><trkpt lat="44.8764962" lon="9.6764457"><ele>271.40000000000003</ele><time>2026-05-01T15:53:07.998Z</time></trkpt><trkpt lat="44.8766235" lon="9.6763935"><ele>271.0</ele><time>2026-05-01T15:53:08.999Z</time></trkpt><trkpt lat="44.876756" lon="9.6763403"><ele>270.75</ele><time>2026-05-01T15:53:09.999Z</time></trkpt><trkpt lat="44.8768848" lon="9.6762858"><ele>270.5</ele><time>2026-05-01T15:53:10.999Z</time></trkpt><trkpt lat="44.8770165" lon="9.6762242"><ele>270.25</ele><time>2026-05-01T15:53:11.999Z</time></trkpt><trkpt lat="44.8771501" lon="9.6761645"><ele>270.0</ele><time>2026-05-01T15:53:12.999Z</time></trkpt><trkpt lat="44.8772779" lon="9.6761126"><ele>269.5</ele><time>2026-05-01T15:53:13.998Z</time></trkpt><trkpt lat="44.8774054" lon="9.6760651"><ele>269.0</ele><time>2026-05-01T15:53:14.998Z</time></trkpt><trkpt lat="44.8775429" lon="9.6760227"><ele>268.5</ele><time>2026-05-01T15:53:15.998Z</time></trkpt><trkpt lat="44.8776862" lon="9.6759817"><ele>268.0</ele><time>2026-05-01T15:53:16.998Z</time></trkpt><trkpt lat="44.877827" lon="9.6759374"><ele>267.25</ele><time>2026-05-01T15:53:17.999Z</time></trkpt><trkpt lat="44.8779629" lon="9.6758948"><ele>266.5</ele><time>2026-05-01T15:53:19Z</time></trkpt><trkpt lat="44.878088" lon="9.675855"><ele>265.75</ele><time>2026-05-01T15:53:19.998Z</time></trkpt><trkpt lat="44.8782058" lon="9.6758125"><ele>265.0</ele><time>2026-05-01T15:53:20.999Z</time></trkpt><trkpt lat="44.8783188" lon="9.6757751"><ele>265.0</ele><time>2026-05-01T15:53:21.999Z</time></trkpt><trkpt lat="44.8784231" lon="9.6757403"><ele>265.0</ele><time>2026-05-01T15:53:23Z</time></trkpt><trkpt lat="44.8785165" lon="9.6757092"><ele>265.0</ele><time>2026-05-01T15:53:23.998Z</time></trkpt><trkpt lat="44.8785922" lon="9.6756717"><ele>265.0</ele><time>2026-05-01T15:53:24.998Z</time></trkpt><trkpt lat="44.878659" lon="9.6756305"><ele>265.0</ele><time>2026-05-01T15:53:25.999Z</time></trkpt><trkpt lat="44.8787168" lon="9.675576"><ele>265.0</ele><time>2026-05-01T15:53:26.998Z</time></trkpt><trkpt lat="44.8787706" lon="9.6755078"><ele>263.2</ele><time>2026-05-01T15:53:27.999Z</time></trkpt><trkpt lat="44.8788337" lon="9.6754345"><ele>261.4</ele><time>2026-05-01T15:53:28.998Z</time></trkpt><trkpt lat="44.8789063" lon="9.6753633"><ele>259.6</ele><time>2026-05-01T15:53:29.999Z</time></trkpt><trkpt lat="44.8789911" lon="9.675303"><ele>257.8</ele><time>2026-05-01T15:53:30.998Z</time></trkpt><trkpt lat="44.8790936" lon="9.6752612"><ele>256.0</ele><time>2026-05-01T15:53:31.998Z</time></trkpt><trkpt lat="44.8791965" lon="9.6752207"><ele>252.8</ele><time>2026-05-01T15:53:32.997Z</time></trkpt><trkpt lat="44.8792908" lon="9.6751722"><ele>249.60000000000002</ele><time>2026-05-01T15:53:33.997Z</time></trkpt><trkpt lat="44.8793742" lon="9.675106"><ele>246.4</ele><time>2026-05-01T15:53:34.998Z</time></trkpt><trkpt lat="44.8794467" lon="9.6750168"><ele>243.2</ele><time>2026-05-01T15:53:35.997Z</time></trkpt><trkpt lat="44.8795138" lon="9.6749212"><ele>240.0</ele><time>2026-05-01T15:53:36.996Z</time></trkpt><trkpt lat="44.879585" lon="9.674845"><ele>240.0</ele><time>2026-05-01T15:53:37.997Z</time></trkpt><trkpt lat="44.879665" lon="9.6748017"><ele>240.0</ele><time>2026-05-01T15:53:38.998Z</time></trkpt><trkpt lat="44.8797533" lon="9.6747867"><ele>240.0</ele><time>2026-05-01T15:53:39.997Z</time></trkpt><trkpt lat="44.879845" lon="9.674795"><ele>240.0</ele><time>2026-05-01T15:53:40.996Z</time></trkpt><trkpt lat="44.8799317" lon="9.67483"><ele>240.0</ele><time>2026-05-01T15:53:41.997Z</time></trkpt><trkpt lat="44.8800167" lon="9.6748817"><ele>240.0</ele><time>2026-05-01T15:53:42.997Z</time></trkpt><trkpt lat="44.8801167" lon="9.6749433"><ele>236.2</ele><time>2026-05-01T15:53:43.996Z</time></trkpt><trkpt lat="44.8802183" lon="9.67501"><ele>232.4</ele><time>2026-05-01T15:53:44.997Z</time></trkpt><trkpt lat="44.8803183" lon="9.675075"><ele>228.60000000000002</ele><time>2026-05-01T15:53:45.995Z</time></trkpt><trkpt lat="44.8804117" lon="9.6751017"><ele>224.8</ele><time>2026-05-01T15:53:46.996Z</time></trkpt><trkpt lat="44.880505" lon="9.675085"><ele>221.0</ele><time>2026-05-01T15:53:47.997Z</time></trkpt><trkpt lat="44.8806033" lon="9.675035"><ele>221.0</ele><time>2026-05-01T15:53:48.996Z</time></trkpt><trkpt lat="44.8806917" lon="9.6749583"><ele>221.00000000000003</ele><time>2026-05-01T15:53:49.998Z</time></trkpt><trkpt lat="44.8807683" lon="9.674865"><ele>221.00000000000003</ele><time>2026-05-01T15:53:50.997Z</time></trkpt><trkpt lat="44.880825" lon="9.674765"><ele>221.0</ele><time>2026-05-01T15:53:51.997Z</time></trkpt><trkpt lat="44.8808633" lon="9.674665"><ele>221.0</ele><time>2026-05-01T15:53:52.998Z</time></trkpt><trkpt lat="44.8808767" lon="9.674555"><ele>218.60000000000002</ele><time>2026-05-01T15:53:53.996Z</time></trkpt><trkpt lat="44.8808633" lon="9.674435"><ele>216.20000000000002</ele><time>2026-05-01T15:53:54.997Z</time></trkpt><trkpt lat="44.8808133" lon="9.67431"><ele>213.8</ele><time>2026-05-01T15:53:55.998Z</time></trkpt><trkpt lat="44.880755" lon="9.6741967"><ele>211.39999999999998</ele><time>2026-05-01T15:53:56.998Z</time></trkpt><trkpt lat="44.8806867" lon="9.6740917"><ele>209.0</ele><time>2026-05-01T15:53:57.996Z</time></trkpt><trkpt lat="44.8806117" lon="9.673995"><ele>209.00000000000003</ele><time>2026-05-01T15:53:58.997Z</time></trkpt><trkpt lat="44.8805367" lon="9.6739083"><ele>209.0</ele><time>2026-05-01T15:53:59.998Z</time></trkpt><trkpt lat="44.8804817" lon="9.67383"><ele>209.0</ele><time>2026-05-01T15:54:00.996Z</time></trkpt><trkpt lat="44.88045" lon="9.673745"><ele>209.0</ele><time>2026-05-01T15:54:01.996Z</time></trkpt><trkpt lat="44.880435" lon="9.673655"><ele>209.00000000000003</ele><time>2026-05-01T15:54:02.996Z</time></trkpt><trkpt lat="44.8804367" lon="9.6735633"><ele>209.0</ele><time>2026-05-01T15:54:03.996Z</time></trkpt><trkpt lat="44.8804567" lon="9.6734583"><ele>207.83333333333334</ele><time>2026-05-01T15:54:04.998Z</time></trkpt><trkpt lat="44.8804817" lon="9.6733533"><ele>206.66666666666669</ele><time>2026-05-01T15:54:05.998Z</time></trkpt><trkpt lat="44.8805183" lon="9.6732467"><ele>205.5</ele><time>2026-05-01T15:54:06.998Z</time></trkpt><trkpt lat="44.88055" lon="9.6731517"><ele>204.33333333333331</ele><time>2026-05-01T15:54:07.998Z</time></trkpt><trkpt lat="44.8805917" lon="9.6730617"><ele>203.16666666666666</ele><time>2026-05-01T15:54:08.998Z</time></trkpt><trkpt lat="44.8806467" lon="9.672965"><ele>202.0</ele><time>2026-05-01T15:54:09.996Z</time></trkpt><trkpt lat="44.8807183" lon="9.6728483"><ele>202.0</ele><time>2026-05-01T15:54:10.997Z</time></trkpt><trkpt lat="44.8807933" lon="9.6727317"><ele>202.0</ele><time>2026-05-01T15:54:11.996Z</time></trkpt><trkpt lat="44.8808717" lon="9.6726267"><ele>202.0</ele><time>2026-05-01T15:54:12.997Z</time></trkpt><trkpt lat="44.8809417" lon="9.672525"><ele>202.0</ele><time>2026-05-01T15:54:13.998Z</time></trkpt><trkpt lat="44.8810117" lon="9.67243"><ele>202.0</ele><time>2026-05-01T15:54:14.997Z</time></trkpt><trkpt lat="44.8810783" lon="9.67234"><ele>200.99999999999997</ele><time>2026-05-01T15:54:15.996Z</time></trkpt><trkpt lat="44.8811367" lon="9.6722567"><ele>200.0</ele><time>2026-05-01T15:54:16.997Z</time></trkpt><trkpt lat="44.8811867" lon="9.6721917"><ele>199.0</ele><time>2026-05-01T15:54:17.996Z</time></trkpt><trkpt lat="44.88125" lon="9.672125"><ele>198.0</ele><time>2026-05-01T15:54:19.997Z</time></trkpt><trkpt lat="44.8813133" lon="9.672155"><ele>196.99999999999997</ele><time>2026-05-01T15:54:32.996Z</time></trkpt><trkpt lat="44.881415" lon="9.672245"><ele>196.0</ele><time>2026-05-01T15:54:34.997Z</time></trkpt><trkpt lat="44.8814867" lon="9.67232"><ele>196.0</ele><time>2026-05-01T15:54:35.997Z</time></trkpt><trkpt lat="44.8815683" lon="9.6724017"><ele>196.0</ele><time>2026-05-01T15:54:36.996Z</time></trkpt><trkpt lat="44.8816617" lon="9.6724967"><ele>196.0</ele><time>2026-05-01T15:54:37.996Z</time></trkpt><trkpt lat="44.88176" lon="9.672595"><ele>196.0</ele><time>2026-05-01T15:54:38.996Z</time></trkpt><trkpt lat="44.8818667" lon="9.6727083"><ele>195.5</ele><time>2026-05-01T15:54:39.997Z</time></trkpt><trkpt lat="44.8819833" lon="9.6728283"><ele>195.0</ele><time>2026-05-01T15:54:40.997Z</time></trkpt><trkpt lat="44.8820983" lon="9.67295"><ele>194.5</ele><time>2026-05-01T15:54:41.997Z</time></trkpt><trkpt lat="44.8822133" lon="9.6730683"><ele>194.0</ele><time>2026-05-01T15:54:42.998Z</time></trkpt><trkpt lat="44.88233" lon="9.6731917"><ele>194.0</ele><time>2026-05-01T15:54:43.998Z</time></trkpt><trkpt lat="44.8824517" lon="9.67332"><ele>194.0</ele><time>2026-05-01T15:54:44.997Z</time></trkpt><trkpt lat="44.8825783" lon="9.6734517"><ele>194.0</ele><time>2026-05-01T15:54:45.997Z</time></trkpt><trkpt lat="44.882705" lon="9.673585"><ele>192.33333333333334</ele><time>2026-05-01T15:54:46.997Z</time></trkpt><trkpt lat="44.882835" lon="9.6737233"><ele>190.66666666666669</ele><time>2026-05-01T15:54:47.997Z</time></trkpt><trkpt lat="44.8829617" lon="9.673865"><ele>189.0</ele><time>2026-05-01T15:54:48.997Z</time></trkpt><trkpt lat="44.883085" lon="9.6740083"><ele>189.0</ele><time>2026-05-01T15:54:49.998Z</time></trkpt><trkpt lat="44.8832067" lon="9.6741617"><ele>189.0</ele><time>2026-05-01T15:54:50.996Z</time></trkpt><trkpt lat="44.88333" lon="9.6743283"><ele>189.0</ele><time>2026-05-01T15:54:51.997Z</time></trkpt><trkpt lat="44.88346" lon="9.6745133"><ele>188.33333333333334</ele><time>2026-05-01T15:54:52.998Z</time></trkpt><trkpt lat="44.88359" lon="9.6747017"><ele>187.66666666666669</ele><time>2026-05-01T15:54:53.999Z</time></trkpt><trkpt lat="44.8837133" lon="9.6748833"><ele>187.0</ele><time>2026-05-01T15:54:55Z</time></trkpt><trkpt lat="44.8838283" lon="9.675055"><ele>187.0</ele><time>2026-05-01T15:54:55.998Z</time></trkpt><trkpt lat="44.883945" lon="9.6752167"><ele>187.0</ele><time>2026-05-01T15:54:56.999Z</time></trkpt><trkpt lat="44.8840733" lon="9.675375"><ele>187.0</ele><time>2026-05-01T15:54:58Z</time></trkpt><trkpt lat="44.884225" lon="9.6755267"><ele>185.66666666666669</ele><time>2026-05-01T15:54:58.999Z</time></trkpt><trkpt lat="44.8843983" lon="9.6756783"><ele>184.33333333333334</ele><time>2026-05-01T15:54:59.998Z</time></trkpt><trkpt lat="44.8845883" lon="9.67584"><ele>183.0</ele><time>2026-05-01T15:55:00.999Z</time></trkpt><trkpt lat="44.884795" lon="9.676015"><ele>183.0</ele><time>2026-05-01T15:55:01.998Z</time></trkpt><trkpt lat="44.8850133" lon="9.6762017"><ele>183.0</ele><time>2026-05-01T15:55:02.998Z</time></trkpt><trkpt lat="44.88524" lon="9.6763917"><ele>182.0</ele><time>2026-05-01T15:55:03.998Z</time></trkpt><trkpt lat="44.8854717" lon="9.6765867"><ele>181.0</ele><time>2026-05-01T15:55:04.998Z</time></trkpt><trkpt lat="44.8857067" lon="9.6767817"><ele>179.5</ele><time>2026-05-01T15:55:05.999Z</time></trkpt><trkpt lat="44.8859333" lon="9.6769683"><ele>178.0</ele><time>2026-05-01T15:55:06.998Z</time></trkpt><trkpt lat="44.886145" lon="9.677145"><ele>178.0</ele><time>2026-05-01T15:55:07.998Z</time></trkpt><trkpt lat="44.8863467" lon="9.677315"><ele>178.0</ele><time>2026-05-01T15:55:08.999Z</time></trkpt><trkpt lat="44.8865467" lon="9.6774817"><ele>178.0</ele><time>2026-05-01T15:55:09.999Z</time></trkpt><trkpt lat="44.8867367" lon="9.6776433"><ele>178.0</ele><time>2026-05-01T15:55:10.998Z</time></trkpt><trkpt lat="44.886915" lon="9.6778"><ele>178.0</ele><time>2026-05-01T15:55:12Z</time></trkpt><trkpt lat="44.8870833" lon="9.6779683"><ele>178.33333333333334</ele><time>2026-05-01T15:55:12.999Z</time></trkpt><trkpt lat="44.88724" lon="9.6781617"><ele>178.66666666666666</ele><time>2026-05-01T15:55:13.998Z</time></trkpt><trkpt lat="44.8873917" lon="9.67839"><ele>179.0</ele><time>2026-05-01T15:55:14.998Z</time></trkpt><trkpt lat="44.887535" lon="9.67864"><ele>178.0</ele><time>2026-05-01T15:55:15.998Z</time></trkpt><trkpt lat="44.8876667" lon="9.678915"><ele>177.0</ele><time>2026-05-01T15:55:16.996Z</time></trkpt><trkpt lat="44.887785" lon="9.67921"><ele>175.5</ele><time>2026-05-01T15:55:17.997Z</time></trkpt><trkpt lat="44.8878967" lon="9.679525"><ele>174.0</ele><time>2026-05-01T15:55:18.996Z</time></trkpt><trkpt lat="44.8880083" lon="9.67985"><ele>174.0</ele><time>2026-05-01T15:55:19.996Z</time></trkpt><trkpt lat="44.8881217" lon="9.6801783"><ele>174.0</ele><time>2026-05-01T15:55:20.997Z</time></trkpt><trkpt lat="44.888235" lon="9.6805083"><ele>174.0</ele><time>2026-05-01T15:55:21.996Z</time></trkpt><trkpt lat="44.8883483" lon="9.680835"><ele>174.0</ele><time>2026-05-01T15:55:23Z</time></trkpt><trkpt lat="44.88846" lon="9.681155"><ele>174.0</ele><time>2026-05-01T15:55:23.997Z</time></trkpt><trkpt lat="44.8885733" lon="9.6814717"><ele>174.0</ele><time>2026-05-01T15:55:24.997Z</time></trkpt><trkpt lat="44.8886867" lon="9.6817783"><ele>177.0</ele><time>2026-05-01T15:55:25.997Z</time></trkpt><trkpt lat="44.8888033" lon="9.6820767"><ele>180.0</ele><time>2026-05-01T15:55:26.998Z</time></trkpt><trkpt lat="44.88893" lon="9.68236"><ele>180.0</ele><time>2026-05-01T15:55:27.997Z</time></trkpt><trkpt lat="44.88907" lon="9.6826383"><ele>180.0</ele><time>2026-05-01T15:55:28.997Z</time></trkpt><trkpt lat="44.8892217" lon="9.68291"><ele>177.0</ele><time>2026-05-01T15:55:29.998Z</time></trkpt><trkpt lat="44.88938" lon="9.68318"><ele>174.0</ele><time>2026-05-01T15:55:30.997Z</time></trkpt><trkpt lat="44.889535" lon="9.6834433"><ele>177.0</ele><time>2026-05-01T15:55:32Z</time></trkpt><trkpt lat="44.8896833" lon="9.6836933"><ele>180.0</ele><time>2026-05-01T15:55:32.997Z</time></trkpt><trkpt lat="44.8898267" lon="9.6839367"><ele>180.0</ele><time>2026-05-01T15:55:33.997Z</time></trkpt><trkpt lat="44.8899667" lon="9.684175"><ele>180.0</ele><time>2026-05-01T15:55:34.996Z</time></trkpt><trkpt lat="44.890105" lon="9.6844117"><ele>180.0</ele><time>2026-05-01T15:55:35.997Z</time></trkpt><trkpt lat="44.8902417" lon="9.684645"><ele>180.33333333333334</ele><time>2026-05-01T15:55:36.998Z</time></trkpt><trkpt lat="44.8903783" lon="9.6848767"><ele>180.66666666666669</ele><time>2026-05-01T15:55:37.997Z</time></trkpt><trkpt lat="44.890515" lon="9.6851033"><ele>181.0</ele><time>2026-05-01T15:55:38.997Z</time></trkpt><trkpt lat="44.8906533" lon="9.6853283"><ele>181.0</ele><time>2026-05-01T15:55:39.997Z</time></trkpt><trkpt lat="44.89079" lon="9.6855567"><ele>181.0</ele><time>2026-05-01T15:55:40.997Z</time></trkpt><trkpt lat="44.8909283" lon="9.68579"><ele>181.0</ele><time>2026-05-01T15:55:41.997Z</time></trkpt><trkpt lat="44.891065" lon="9.68602"><ele>181.33333333333334</ele><time>2026-05-01T15:55:42.997Z</time></trkpt><trkpt lat="44.8912017" lon="9.6862517"><ele>181.66666666666666</ele><time>2026-05-01T15:55:44Z</time></trkpt><trkpt lat="44.8913367" lon="9.686485"><ele>182.0</ele><time>2026-05-01T15:55:44.998Z</time></trkpt><trkpt lat="44.8914717" lon="9.6867167"><ele>183.33333333333331</ele><time>2026-05-01T15:55:45.996Z</time></trkpt><trkpt lat="44.8916067" lon="9.6869467"><ele>184.66666666666666</ele><time>2026-05-01T15:55:46.996Z</time></trkpt><trkpt lat="44.891735" lon="9.6871633"><ele>186.0</ele><time>2026-05-01T15:55:47.997Z</time></trkpt><trkpt lat="44.8918583" lon="9.6873667"><ele>183.66666666666666</ele><time>2026-05-01T15:55:48.997Z</time></trkpt><trkpt lat="44.8919683" lon="9.6875533"><ele>181.33333333333331</ele><time>2026-05-01T15:55:49.996Z</time></trkpt><trkpt lat="44.8920717" lon="9.6877133"><ele>179.0</ele><time>2026-05-01T15:55:50.997Z</time></trkpt><trkpt lat="44.89217" lon="9.6878433"><ele>179.0</ele><time>2026-05-01T15:55:51.997Z</time></trkpt><trkpt lat="44.8922683" lon="9.68795"><ele>179.0</ele><time>2026-05-01T15:55:52.997Z</time></trkpt><trkpt lat="44.8923717" lon="9.6880367"><ele>179.0</ele><time>2026-05-01T15:55:53.997Z</time></trkpt><trkpt lat="44.8924817" lon="9.6881083"><ele>179.0</ele><time>2026-05-01T15:55:54.996Z</time></trkpt><trkpt lat="44.89259" lon="9.6881717"><ele>177.75</ele><time>2026-05-01T15:55:55.997Z</time></trkpt><trkpt lat="44.8926917" lon="9.6882283"><ele>176.5</ele><time>2026-05-01T15:55:56.997Z</time></trkpt><trkpt lat="44.8927917" lon="9.68828"><ele>175.25</ele><time>2026-05-01T15:55:57.996Z</time></trkpt><trkpt lat="44.8929" lon="9.68833"><ele>174.0</ele><time>2026-05-01T15:55:58.996Z</time></trkpt><trkpt lat="44.8930233" lon="9.68838"><ele>174.0</ele><time>2026-05-01T15:55:59.996Z</time></trkpt><trkpt lat="44.8931583" lon="9.6884233"><ele>174.0</ele><time>2026-05-01T15:56:00.996Z</time></trkpt><trkpt lat="44.8932967" lon="9.6884667"><ele>174.0</ele><time>2026-05-01T15:56:01.997Z</time></trkpt><trkpt lat="44.893435" lon="9.688515"><ele>174.0</ele><time>2026-05-01T15:56:02.997Z</time></trkpt><trkpt lat="44.8935667" lon="9.6885583"><ele>173.25</ele><time>2026-05-01T15:56:03.996Z</time></trkpt><trkpt lat="44.89369" lon="9.6885883"><ele>172.5</ele><time>2026-05-01T15:56:04.997Z</time></trkpt><trkpt lat="44.8938017" lon="9.6885883"><ele>171.75</ele><time>2026-05-01T15:56:05.997Z</time></trkpt><trkpt lat="44.8939083" lon="9.6885517"><ele>171.0</ele><time>2026-05-01T15:56:06.996Z</time></trkpt><trkpt lat="44.89402" lon="9.6884717"><ele>171.0</ele><time>2026-05-01T15:56:07.996Z</time></trkpt><trkpt lat="44.89414" lon="9.6883767"><ele>171.0</ele><time>2026-05-01T15:56:08.997Z</time></trkpt><trkpt lat="44.894265" lon="9.6882817"><ele>171.0</ele><time>2026-05-01T15:56:09.997Z</time></trkpt><trkpt lat="44.8943967" lon="9.6882083"><ele>171.0</ele><time>2026-05-01T15:56:10.997Z</time></trkpt><trkpt lat="44.8945333" lon="9.6881467"><ele>170.0</ele><time>2026-05-01T15:56:11.997Z</time></trkpt><trkpt lat="44.8946667" lon="9.688095"><ele>169.0</ele><time>2026-05-01T15:56:12.996Z</time></trkpt><trkpt lat="44.894795" lon="9.6880467"><ele>168.0</ele><time>2026-05-01T15:56:13.998Z</time></trkpt><trkpt lat="44.89492" lon="9.6880117"><ele>167.0</ele><time>2026-05-01T15:56:14.998Z</time></trkpt><trkpt lat="44.8950467" lon="9.6879983"><ele>166.5</ele><time>2026-05-01T15:56:15.996Z</time></trkpt><trkpt lat="44.8951817" lon="9.688015"><ele>166.0</ele><time>2026-05-01T15:56:16.996Z</time></trkpt><trkpt lat="44.8953283" lon="9.688045"><ele>165.5</ele><time>2026-05-01T15:56:17.997Z</time></trkpt><trkpt lat="44.8954833" lon="9.6880867"><ele>165.0</ele><time>2026-05-01T15:56:18.996Z</time></trkpt><trkpt lat="44.8956467" lon="9.68813"><ele>165.0</ele><time>2026-05-01T15:56:19.999Z</time></trkpt><trkpt lat="44.895815" lon="9.6881717"><ele>165.0</ele><time>2026-05-01T15:56:20.996Z</time></trkpt><trkpt lat="44.89599" lon="9.68822"><ele>165.0</ele><time>2026-05-01T15:56:21.997Z</time></trkpt><trkpt lat="44.8961683" lon="9.6882667"><ele>165.0</ele><time>2026-05-01T15:56:22.997Z</time></trkpt><trkpt lat="44.8963467" lon="9.68831"><ele>165.0</ele><time>2026-05-01T15:56:23.996Z</time></trkpt><trkpt lat="44.8965283" lon="9.6883533"><ele>165.0</ele><time>2026-05-01T15:56:24.996Z</time></trkpt><trkpt lat="44.8967117" lon="9.688395"><ele>164.66666666666666</ele><time>2026-05-01T15:56:26.001Z</time></trkpt><trkpt lat="44.8968917" lon="9.6884367"><ele>164.33333333333331</ele><time>2026-05-01T15:56:26.997Z</time></trkpt><trkpt lat="44.897075" lon="9.6884783"><ele>164.0</ele><time>2026-05-01T15:56:27.996Z</time></trkpt><trkpt lat="44.8972533" lon="9.688525"><ele>164.0</ele><time>2026-05-01T15:56:28.996Z</time></trkpt><trkpt lat="44.8974283" lon="9.6885633"><ele>164.0</ele><time>2026-05-01T15:56:29.997Z</time></trkpt><trkpt lat="44.8975933" lon="9.6886017"><ele>164.0</ele><time>2026-05-01T15:56:30.997Z</time></trkpt><trkpt lat="44.8977467" lon="9.6886383"><ele>163.75</ele><time>2026-05-01T15:56:31.997Z</time></trkpt><trkpt lat="44.8978933" lon="9.6886733"><ele>163.5</ele><time>2026-05-01T15:56:32.998Z</time></trkpt><trkpt lat="44.8980367" lon="9.68871"><ele>163.25</ele><time>2026-05-01T15:56:33.998Z</time></trkpt><trkpt lat="44.8981767" lon="9.688745"><ele>163.0</ele><time>2026-05-01T15:56:34.998Z</time></trkpt><trkpt lat="44.8983217" lon="9.68878"><ele>163.25</ele><time>2026-05-01T15:56:35.999Z</time></trkpt><trkpt lat="44.8984683" lon="9.688805"><ele>163.5</ele><time>2026-05-01T15:56:36.998Z</time></trkpt><trkpt lat="44.8986167" lon="9.6888183"><ele>163.75</ele><time>2026-05-01T15:56:37.999Z</time></trkpt><trkpt lat="44.8987583" lon="9.6888217"><ele>164.0</ele><time>2026-05-01T15:56:39Z</time></trkpt><trkpt lat="44.8988967" lon="9.6888217"><ele>164.0</ele><time>2026-05-01T15:56:39.998Z</time></trkpt><trkpt lat="44.8990367" lon="9.688815"><ele>164.0</ele><time>2026-05-01T15:56:40.997Z</time></trkpt><trkpt lat="44.8991767" lon="9.6888033"><ele>164.0</ele><time>2026-05-01T15:56:41.996Z</time></trkpt><trkpt lat="44.8993083" lon="9.68879"><ele>164.0</ele><time>2026-05-01T15:56:42.998Z</time></trkpt><trkpt lat="44.899435" lon="9.688785"><ele>163.5</ele><time>2026-05-01T15:56:43.996Z</time></trkpt><trkpt lat="44.8995583" lon="9.68881"><ele>163.0</ele><time>2026-05-01T15:56:44.997Z</time></trkpt><trkpt lat="44.8996833" lon="9.6888633"><ele>162.5</ele><time>2026-05-01T15:56:45.996Z</time></trkpt><trkpt lat="44.8998133" lon="9.6889433"><ele>162.0</ele><time>2026-05-01T15:56:46.996Z</time></trkpt><trkpt lat="44.8999483" lon="9.6890267"><ele>161.33333333333334</ele><time>2026-05-01T15:56:47.998Z</time></trkpt><trkpt lat="44.9000883" lon="9.689105"><ele>160.66666666666669</ele><time>2026-05-01T15:56:48.998Z</time></trkpt><trkpt lat="44.9002367" lon="9.68917"><ele>160.0</ele><time>2026-05-01T15:56:49.998Z</time></trkpt><trkpt lat="44.9003917" lon="9.6892267"><ele>160.0</ele><time>2026-05-01T15:56:50.997Z</time></trkpt><trkpt lat="44.9005567" lon="9.6892767"><ele>160.0</ele><time>2026-05-01T15:56:51.997Z</time></trkpt><trkpt lat="44.9007267" lon="9.68932"><ele>160.0</ele><time>2026-05-01T15:56:52.997Z</time></trkpt><trkpt lat="44.9009" lon="9.689365"><ele>160.0</ele><time>2026-05-01T15:56:53.997Z</time></trkpt><trkpt lat="44.9010717" lon="9.6894083"><ele>160.0</ele><time>2026-05-01T15:56:54.996Z</time></trkpt><trkpt lat="44.9012467" lon="9.6894567"><ele>160.0</ele><time>2026-05-01T15:56:55.998Z</time></trkpt><trkpt lat="44.9014217" lon="9.689505"><ele>160.0</ele><time>2026-05-01T15:56:56.997Z</time></trkpt><trkpt lat="44.9016" lon="9.6895567"><ele>160.0</ele><time>2026-05-01T15:56:57.998Z</time></trkpt><trkpt lat="44.9017783" lon="9.6896083"><ele>160.0</ele><time>2026-05-01T15:56:58.996Z</time></trkpt><trkpt lat="44.90196" lon="9.68966"><ele>159.66666666666669</ele><time>2026-05-01T15:56:59.998Z</time></trkpt><trkpt lat="44.90214" lon="9.6897133"><ele>159.33333333333334</ele><time>2026-05-01T15:57:00.996Z</time></trkpt><trkpt lat="44.9023167" lon="9.6897683"><ele>159.0</ele><time>2026-05-01T15:57:01.997Z</time></trkpt><trkpt lat="44.9024833" lon="9.6898217"><ele>159.0</ele><time>2026-05-01T15:57:03Z</time></trkpt><trkpt lat="44.9026417" lon="9.6898733"><ele>159.0</ele><time>2026-05-01T15:57:03.999Z</time></trkpt><trkpt lat="44.9027933" lon="9.689925"><ele>159.0</ele><time>2026-05-01T15:57:04.998Z</time></trkpt><trkpt lat="44.90294" lon="9.6899733"><ele>159.0</ele><time>2026-05-01T15:57:05.999Z</time></trkpt><trkpt lat="44.9030783" lon="9.6900233"><ele>159.0</ele><time>2026-05-01T15:57:07Z</time></trkpt><trkpt lat="44.90321" lon="9.69007"><ele>159.0</ele><time>2026-05-01T15:57:07.998Z</time></trkpt><trkpt lat="44.9033267" lon="9.6901167"><ele>159.0</ele><time>2026-05-01T15:57:09Z</time></trkpt><trkpt lat="44.9034217" lon="9.69017"><ele>159.0</ele><time>2026-05-01T15:57:09.997Z</time></trkpt><trkpt lat="44.9034883" lon="9.69023"><ele>159.0</ele><time>2026-05-01T15:57:10.997Z</time></trkpt><trkpt lat="44.9035417" lon="9.6903017"><ele>159.0</ele><time>2026-05-01T15:57:11.999Z</time></trkpt><trkpt lat="44.9035917" lon="9.6903683"><ele>159.0</ele><time>2026-05-01T15:57:13Z</time></trkpt><trkpt lat="44.903655" lon="9.69041"><ele>159.0</ele><time>2026-05-01T15:57:13.996Z</time></trkpt><trkpt lat="44.903735" lon="9.690425"><ele>159.0</ele><time>2026-05-01T15:57:14.998Z</time></trkpt><trkpt lat="44.9038267" lon="9.690425"><ele>159.0</ele><time>2026-05-01T15:57:15.996Z</time></trkpt><trkpt lat="44.9039267" lon="9.690405"><ele>159.0</ele><time>2026-05-01T15:57:16.996Z</time></trkpt><trkpt lat="44.9040417" lon="9.6903783"><ele>159.0</ele><time>2026-05-01T15:57:17.996Z</time></trkpt><trkpt lat="44.9041683" lon="9.69037"><ele>159.0</ele><time>2026-05-01T15:57:18.996Z</time></trkpt><trkpt lat="44.9043067" lon="9.690385"><ele>158.0</ele><time>2026-05-01T15:57:19.998Z</time></trkpt><trkpt lat="44.9044533" lon="9.6904117"><ele>157.0</ele><time>2026-05-01T15:57:20.997Z</time></trkpt><trkpt lat="44.9046083" lon="9.690445"><ele>156.0</ele><time>2026-05-01T15:57:21.997Z</time></trkpt><trkpt lat="44.9047717" lon="9.6904783"><ele>156.0</ele><time>2026-05-01T15:57:22.999Z</time></trkpt><trkpt lat="44.90494" lon="9.6905133"><ele>156.0</ele><time>2026-05-01T15:57:24Z</time></trkpt><trkpt lat="44.9051117" lon="9.69055"><ele>156.0</ele><time>2026-05-01T15:57:24.999Z</time></trkpt><trkpt lat="44.9052883" lon="9.6905867"><ele>156.33333333333334</ele><time>2026-05-01T15:57:25.998Z</time></trkpt><trkpt lat="44.9054617" lon="9.690625"><ele>156.66666666666669</ele><time>2026-05-01T15:57:27Z</time></trkpt><trkpt lat="44.905625" lon="9.6906617"><ele>157.0</ele><time>2026-05-01T15:57:27.999Z</time></trkpt><trkpt lat="44.9057733" lon="9.690695"><ele>157.0</ele><time>2026-05-01T15:57:28.999Z</time></trkpt><trkpt lat="44.9059083" lon="9.6907217"><ele>157.0</ele><time>2026-05-01T15:57:29.999Z</time></trkpt><trkpt lat="44.9060333" lon="9.6907483"><ele>157.0</ele><time>2026-05-01T15:57:30.998Z</time></trkpt><trkpt lat="44.9061467" lon="9.69078"><ele>157.0</ele><time>2026-05-01T15:57:32.002Z</time></trkpt><trkpt lat="44.9062483" lon="9.6908333"><ele>156.5</ele><time>2026-05-01T15:57:32.998Z</time></trkpt><trkpt lat="44.9063367" lon="9.6909067"><ele>156.0</ele><time>2026-05-01T15:57:33.998Z</time></trkpt><trkpt lat="44.90642" lon="9.691"><ele>155.5</ele><time>2026-05-01T15:57:34.998Z</time></trkpt><trkpt lat="44.9065083" lon="9.6911133"><ele>155.0</ele><time>2026-05-01T15:57:35.996Z</time></trkpt><trkpt lat="44.9066033" lon="9.6912433"><ele>155.0</ele><time>2026-05-01T15:57:36.997Z</time></trkpt><trkpt lat="44.9067033" lon="9.6913683"><ele>155.0</ele><time>2026-05-01T15:57:37.996Z</time></trkpt><trkpt lat="44.9068" lon="9.6914867"><ele>155.0</ele><time>2026-05-01T15:57:38.997Z</time></trkpt><trkpt lat="44.9068983" lon="9.6916133"><ele>155.0</ele><time>2026-05-01T15:57:39.997Z</time></trkpt><trkpt lat="44.9069933" lon="9.6917433"><ele>154.6</ele><time>2026-05-01T15:57:40.996Z</time></trkpt><trkpt lat="44.9070817" lon="9.6918783"><ele>154.2</ele><time>2026-05-01T15:57:41.996Z</time></trkpt><trkpt lat="44.9071567" lon="9.6920133"><ele>153.8</ele><time>2026-05-01T15:57:42.997Z</time></trkpt><trkpt lat="44.90722" lon="9.69213"><ele>153.4</ele><time>2026-05-01T15:57:43.997Z</time></trkpt><trkpt lat="44.9072633" lon="9.6922233"><ele>153.0</ele><time>2026-05-01T15:57:44.998Z</time></trkpt><trkpt lat="44.9073183" lon="9.6923517"><ele>153.0</ele><time>2026-05-01T15:57:46.996Z</time></trkpt><trkpt lat="44.9073883" lon="9.6923267"><ele>153.0</ele><time>2026-05-01T15:57:49.998Z</time></trkpt><trkpt lat="44.907445" lon="9.6921833"><ele>153.0</ele><time>2026-05-01T15:57:51.997Z</time></trkpt><trkpt lat="44.90747" lon="9.6920967"><ele>153.0</ele><time>2026-05-01T15:57:52.998Z</time></trkpt><trkpt lat="44.9074983" lon="9.6920167"><ele>153.0</ele><time>2026-05-01T15:57:54Z</time></trkpt><trkpt lat="44.90757" lon="9.6918983"><ele>153.0</ele><time>2026-05-01T15:57:55.999Z</time></trkpt><trkpt lat="44.9076517" lon="9.6918167"><ele>152.83333333333334</ele><time>2026-05-01T15:57:57.999Z</time></trkpt><trkpt lat="44.90774" lon="9.6917933"><ele>152.66666666666666</ele><time>2026-05-01T15:57:59.999Z</time></trkpt><trkpt lat="44.90782" lon="9.6918017"><ele>152.5</ele><time>2026-05-01T15:58:01.997Z</time></trkpt><trkpt lat="44.9078983" lon="9.691755"><ele>152.33333333333331</ele><time>2026-05-01T15:58:03.996Z</time></trkpt><trkpt lat="44.9080017" lon="9.6916783"><ele>152.16666666666666</ele><time>2026-05-01T15:58:05.998Z</time></trkpt><trkpt lat="44.9080617" lon="9.6916483"><ele>152.0</ele><time>2026-05-01T15:58:06.997Z</time></trkpt><trkpt lat="44.9081283" lon="9.6916317"><ele>152.0</ele><time>2026-05-01T15:58:07.997Z</time></trkpt><trkpt lat="44.9082483" lon="9.6916317"><ele>152.0</ele><time>2026-05-01T15:58:09.996Z</time></trkpt><trkpt lat="44.90835" lon="9.6916867"><ele>152.0</ele><time>2026-05-01T15:58:11.997Z</time></trkpt><trkpt lat="44.9084517" lon="9.6917933"><ele>152.0</ele><time>2026-05-01T15:58:13.996Z</time></trkpt><trkpt lat="44.9085017" lon="9.691865"><ele>152.0</ele><time>2026-05-01T15:58:14.996Z</time></trkpt><trkpt lat="44.9085483" lon="9.691935"><ele>151.57142857142856</ele><time>2026-05-01T15:58:15.996Z</time></trkpt><trkpt lat="44.908595" lon="9.6919983"><ele>151.14285714285717</ele><time>2026-05-01T15:58:16.996Z</time></trkpt><trkpt lat="44.908645" lon="9.6920617"><ele>150.71428571428572</ele><time>2026-05-01T15:58:17.998Z</time></trkpt><trkpt lat="44.9087" lon="9.69213"><ele>150.28571428571428</ele><time>2026-05-01T15:58:19Z</time></trkpt><trkpt lat="44.90875" lon="9.6922033"><ele>149.85714285714283</ele><time>2026-05-01T15:58:19.999Z</time></trkpt><trkpt lat="44.908795" lon="9.6922867"><ele>149.42857142857142</ele><time>2026-05-01T15:58:20.999Z</time></trkpt><trkpt lat="44.908835" lon="9.6923733"><ele>149.0</ele><time>2026-05-01T15:58:21.999Z</time></trkpt><trkpt lat="44.9088683" lon="9.6924583"><ele>149.0</ele><time>2026-05-01T15:58:22.998Z</time></trkpt><trkpt lat="44.9088983" lon="9.6925417"><ele>149.0</ele><time>2026-05-01T15:58:23.999Z</time></trkpt><trkpt lat="44.90893" lon="9.6926217"><ele>149.0</ele><time>2026-05-01T15:58:24.998Z</time></trkpt><trkpt lat="44.9089917" lon="9.6927567"><ele>149.0</ele><time>2026-05-01T15:58:26.999Z</time></trkpt><trkpt lat="44.9090733" lon="9.6928833"><ele>149.0</ele><time>2026-05-01T15:58:28.998Z</time></trkpt><trkpt lat="44.9091267" lon="9.6929567"><ele>149.0</ele><time>2026-05-01T15:58:29.999Z</time></trkpt><trkpt lat="44.9091833" lon="9.69304"><ele>149.0</ele><time>2026-05-01T15:58:30.999Z</time></trkpt><trkpt lat="44.9092367" lon="9.6931217"><ele>149.0</ele><time>2026-05-01T15:58:31.998Z</time></trkpt><trkpt lat="44.9092883" lon="9.693205"><ele>149.0</ele><time>2026-05-01T15:58:32.997Z</time></trkpt><trkpt lat="44.9093417" lon="9.693285"><ele>149.0</ele><time>2026-05-01T15:58:33.996Z</time></trkpt><trkpt lat="44.90939" lon="9.693365"><ele>149.0</ele><time>2026-05-01T15:58:34.997Z</time></trkpt><trkpt lat="44.909435" lon="9.69344"><ele>149.0</ele><time>2026-05-01T15:58:35.996Z</time></trkpt><trkpt lat="44.909475" lon="9.693515"><ele>149.0</ele><time>2026-05-01T15:58:36.997Z</time></trkpt><trkpt lat="44.9095167" lon="9.693585"><ele>149.0</ele><time>2026-05-01T15:58:37.997Z</time></trkpt><trkpt lat="44.9096133" lon="9.6937017"><ele>149.0</ele><time>2026-05-01T15:58:39.998Z</time></trkpt><trkpt lat="44.9096633" lon="9.6937617"><ele>149.0</ele><time>2026-05-01T15:58:40.996Z</time></trkpt><trkpt lat="44.9097083" lon="9.693825"><ele>149.0</ele><time>2026-05-01T15:58:41.996Z</time></trkpt><trkpt lat="44.9097767" lon="9.6939383"><ele>149.0</ele><time>2026-05-01T15:58:43.996Z</time></trkpt><trkpt lat="44.909845" lon="9.69403"><ele>149.0</ele><time>2026-05-01T15:58:45.996Z</time></trkpt><trkpt lat="44.9099233" lon="9.6940967"><ele>149.0</ele><time>2026-05-01T15:58:47.997Z</time></trkpt><trkpt lat="44.9100183" lon="9.6941333"><ele>149.0</ele><time>2026-05-01T15:58:49.997Z</time></trkpt><trkpt lat="44.9101" lon="9.6941517"><ele>149.0</ele><time>2026-05-01T15:58:51.998Z</time></trkpt><trkpt lat="44.9101667" lon="9.6941233"><ele>149.0</ele><time>2026-05-01T15:58:53.999Z</time></trkpt><trkpt lat="44.9102167" lon="9.6940567"><ele>149.0</ele><time>2026-05-01T15:58:55.996Z</time></trkpt><trkpt lat="44.9102817" lon="9.6939933"><ele>148.83333333333331</ele><time>2026-05-01T15:58:58.996Z</time></trkpt><trkpt lat="44.9103283" lon="9.6940533"><ele>148.66666666666666</ele><time>2026-05-01T15:59:01.997Z</time></trkpt><trkpt lat="44.9104033" lon="9.6941033"><ele>148.5</ele><time>2026-05-01T15:59:04.997Z</time></trkpt><trkpt lat="44.910455" lon="9.69416"><ele>148.33333333333334</ele><time>2026-05-01T15:59:06.998Z</time></trkpt><trkpt lat="44.9105233" lon="9.69424"><ele>148.16666666666669</ele><time>2026-05-01T15:59:09.998Z</time></trkpt><trkpt lat="44.9106033" lon="9.6942717"><ele>148.0</ele><time>2026-05-01T15:59:12.997Z</time></trkpt><trkpt lat="44.91068" lon="9.6943233"><ele>148.0</ele><time>2026-05-01T16:01:56.998Z</time></trkpt><trkpt lat="44.9107733" lon="9.694305"><ele>148.0</ele><time>2026-05-01T16:01:59.998Z</time></trkpt><trkpt lat="44.9108767" lon="9.6943367"><ele>148.0</ele><time>2026-05-01T16:02:01.998Z</time></trkpt><trkpt lat="44.9109367" lon="9.694365"><ele>148.0</ele><time>2026-05-01T16:02:02.997Z</time></trkpt><trkpt lat="44.91104" lon="9.694425"><ele>148.0</ele><time>2026-05-01T16:02:04.997Z</time></trkpt><trkpt lat="44.9111567" lon="9.6944783"><ele>147.6</ele><time>2026-05-01T16:02:06.997Z</time></trkpt><trkpt lat="44.91122" lon="9.6945067"><ele>147.20000000000002</ele><time>2026-05-01T16:02:07.997Z</time></trkpt><trkpt lat="44.911325" lon="9.6945667"><ele>146.8</ele><time>2026-05-01T16:02:09.997Z</time></trkpt><trkpt lat="44.9114083" lon="9.69462"><ele>146.4</ele><time>2026-05-01T16:02:11.997Z</time></trkpt><trkpt lat="44.9114833" lon="9.6946717"><ele>146.0</ele><time>2026-05-01T16:02:13.999Z</time></trkpt><trkpt lat="44.9115917" lon="9.6947583"><ele>146.0</ele><time>2026-05-01T16:02:15.997Z</time></trkpt><trkpt lat="44.9116567" lon="9.69481"><ele>146.0</ele><time>2026-05-01T16:02:16.996Z</time></trkpt><trkpt lat="44.9117267" lon="9.69486"><ele>146.0</ele><time>2026-05-01T16:02:17.996Z</time></trkpt><trkpt lat="44.9117967" lon="9.6949083"><ele>146.0</ele><time>2026-05-01T16:02:18.996Z</time></trkpt><trkpt lat="44.9118633" lon="9.6949583"><ele>146.0</ele><time>2026-05-01T16:02:19.996Z</time></trkpt><trkpt lat="44.9119233" lon="9.6950133"><ele>146.0</ele><time>2026-05-01T16:02:20.997Z</time></trkpt><trkpt lat="44.91198" lon="9.69507"><ele>146.0</ele><time>2026-05-01T16:02:21.996Z</time></trkpt><trkpt lat="44.9120367" lon="9.6951283"><ele>146.0</ele><time>2026-05-01T16:02:22.997Z</time></trkpt><trkpt lat="44.9120933" lon="9.6951817"><ele>146.0</ele><time>2026-05-01T16:02:23.996Z</time></trkpt><trkpt lat="44.9121917" lon="9.6952967"><ele>146.0</ele><time>2026-05-01T16:02:26.001Z</time></trkpt><trkpt lat="44.912245" lon="9.6953567"><ele>146.0</ele><time>2026-05-01T16:02:26.997Z</time></trkpt><trkpt lat="44.9123083" lon="9.69541"><ele>146.0</ele><time>2026-05-01T16:02:27.998Z</time></trkpt><trkpt lat="44.912375" lon="9.6954617"><ele>146.0</ele><time>2026-05-01T16:02:28.996Z</time></trkpt><trkpt lat="44.9124367" lon="9.695505"><ele>146.0</ele><time>2026-05-01T16:02:29.998Z</time></trkpt><trkpt lat="44.9124983" lon="9.695555"><ele>146.0</ele><time>2026-05-01T16:02:30.996Z</time></trkpt><trkpt lat="44.9125733" lon="9.69561"><ele>146.0</ele><time>2026-05-01T16:02:31.997Z</time></trkpt><trkpt lat="44.9126483" lon="9.6956717"><ele>146.0</ele><time>2026-05-01T16:02:32.999Z</time></trkpt><trkpt lat="44.9127183" lon="9.6957267"><ele>146.0</ele><time>2026-05-01T16:02:33.996Z</time></trkpt><trkpt lat="44.912785" lon="9.695785"><ele>146.0</ele><time>2026-05-01T16:02:34.996Z</time></trkpt><trkpt lat="44.91285" lon="9.6958433"><ele>145.83333333333331</ele><time>2026-05-01T16:02:35.998Z</time></trkpt><trkpt lat="44.9129117" lon="9.6958883"><ele>145.66666666666666</ele><time>2026-05-01T16:02:36.997Z</time></trkpt><trkpt lat="44.91297" lon="9.6959233"><ele>145.5</ele><time>2026-05-01T16:02:37.998Z</time></trkpt><trkpt lat="44.91308" lon="9.6959933"><ele>145.33333333333334</ele><time>2026-05-01T16:02:39.996Z</time></trkpt><trkpt lat="44.9131533" lon="9.6960733"><ele>145.16666666666669</ele><time>2026-05-01T16:02:41.996Z</time></trkpt><trkpt lat="44.9131683" lon="9.6962017"><ele>145.0</ele><time>2026-05-01T16:02:43.997Z</time></trkpt><trkpt lat="44.9132" lon="9.6963283"><ele>144.83333333333334</ele><time>2026-05-01T16:02:45.997Z</time></trkpt><trkpt lat="44.9132633" lon="9.6964083"><ele>144.66666666666669</ele><time>2026-05-01T16:02:47.998Z</time></trkpt><trkpt lat="44.91333" lon="9.6964367"><ele>144.5</ele><time>2026-05-01T16:02:49.996Z</time></trkpt><trkpt lat="44.9134217" lon="9.6964483"><ele>144.33333333333334</ele><time>2026-05-01T16:02:51.996Z</time></trkpt><trkpt lat="44.913515" lon="9.6964733"><ele>144.16666666666666</ele><time>2026-05-01T16:02:54Z</time></trkpt><trkpt lat="44.9136033" lon="9.6965517"><ele>144.0</ele><time>2026-05-01T16:02:55.998Z</time></trkpt><trkpt lat="44.9136583" lon="9.6966717"><ele>144.0</ele><time>2026-05-01T16:02:57.997Z</time></trkpt><trkpt lat="44.9136817" lon="9.6968167"><ele>144.0</ele><time>2026-05-01T16:02:59.998Z</time></trkpt><trkpt lat="44.9137048" lon="9.6969722"><ele>144.0</ele><time>2026-05-01T16:03:01.997Z</time></trkpt><trkpt lat="44.9137464" lon="9.697103"><ele>144.0</ele><time>2026-05-01T16:03:03.996Z</time></trkpt><trkpt lat="44.9137935" lon="9.6972591"><ele>144.0</ele><time>2026-05-01T16:03:05.997Z</time></trkpt><trkpt lat="44.9138229" lon="9.6974245"><ele>144.2</ele><time>2026-05-01T16:03:08Z</time></trkpt><trkpt lat="44.9138566" lon="9.6975661"><ele>144.4</ele><time>2026-05-01T16:03:09.996Z</time></trkpt><trkpt lat="44.913903" lon="9.6977016"><ele>144.6</ele><time>2026-05-01T16:03:11.996Z</time></trkpt><trkpt lat="44.9139848" lon="9.6978357"><ele>144.8</ele><time>2026-05-01T16:03:13.997Z</time></trkpt><trkpt lat="44.9140446" lon="9.6978878"><ele>145.0</ele><time>2026-05-01T16:03:14.997Z</time></trkpt><trkpt lat="44.9141151" lon="9.6979245"><ele>145.16666666666669</ele><time>2026-05-01T16:03:15.997Z</time></trkpt><trkpt lat="44.9141966" lon="9.6979492"><ele>145.33333333333334</ele><time>2026-05-01T16:03:16.998Z</time></trkpt><trkpt lat="44.9142825" lon="9.6979681"><ele>145.5</ele><time>2026-05-01T16:03:17.996Z</time></trkpt><trkpt lat="44.9143637" lon="9.6979828"><ele>145.66666666666666</ele><time>2026-05-01T16:03:18.997Z</time></trkpt><trkpt lat="44.9144408" lon="9.6979975"><ele>145.83333333333331</ele><time>2026-05-01T16:03:19.997Z</time></trkpt><trkpt lat="44.9145211" lon="9.6980118"><ele>146.0</ele><time>2026-05-01T16:03:20.998Z</time></trkpt><trkpt lat="44.9146045" lon="9.698021"><ele>145.6</ele><time>2026-05-01T16:03:21.997Z</time></trkpt><trkpt lat="44.9146941" lon="9.6980263"><ele>145.2</ele><time>2026-05-01T16:03:22.997Z</time></trkpt><trkpt lat="44.9147892" lon="9.698033"><ele>144.8</ele><time>2026-05-01T16:03:23.997Z</time></trkpt><trkpt lat="44.9148918" lon="9.6980332"><ele>144.4</ele><time>2026-05-01T16:03:24.997Z</time></trkpt><trkpt lat="44.9150014" lon="9.6980276"><ele>144.0</ele><time>2026-05-01T16:03:25.997Z</time></trkpt><trkpt lat="44.9151106" lon="9.6980224"><ele>143.8</ele><time>2026-05-01T16:03:26.998Z</time></trkpt><trkpt lat="44.9152122" lon="9.6980205"><ele>143.60000000000002</ele><time>2026-05-01T16:03:27.997Z</time></trkpt><trkpt lat="44.9153085" lon="9.6980268"><ele>143.4</ele><time>2026-05-01T16:03:28.999Z</time></trkpt><trkpt lat="44.9154017" lon="9.6980499"><ele>143.20000000000002</ele><time>2026-05-01T16:03:29.997Z</time></trkpt><trkpt lat="44.9154939" lon="9.6980899"><ele>143.0</ele><time>2026-05-01T16:03:30.997Z</time></trkpt><trkpt lat="44.9155811" lon="9.6981412"><ele>143.0</ele><time>2026-05-01T16:03:31.997Z</time></trkpt><trkpt lat="44.9156644" lon="9.6982014"><ele>143.0</ele><time>2026-05-01T16:03:32.998Z</time></trkpt><trkpt lat="44.915748" lon="9.6982736"><ele>143.0</ele><time>2026-05-01T16:03:33.996Z</time></trkpt><trkpt lat="44.9158275" lon="9.6983511"><ele>143.0</ele><time>2026-05-01T16:03:34.997Z</time></trkpt><trkpt lat="44.915903" lon="9.6984407"><ele>143.0</ele><time>2026-05-01T16:03:35.998Z</time></trkpt><trkpt lat="44.9159735" lon="9.6985342"><ele>142.5</ele><time>2026-05-01T16:03:36.997Z</time></trkpt><trkpt lat="44.9160439" lon="9.6986268"><ele>142.0</ele><time>2026-05-01T16:03:37.996Z</time></trkpt><trkpt lat="44.9161098" lon="9.69872"><ele>141.5</ele><time>2026-05-01T16:03:38.997Z</time></trkpt><trkpt lat="44.9161674" lon="9.6988113"><ele>141.0</ele><time>2026-05-01T16:03:39.997Z</time></trkpt><trkpt lat="44.9162156" lon="9.6989043"><ele>140.5</ele><time>2026-05-01T16:03:40.997Z</time></trkpt><trkpt lat="44.9162501" lon="9.6990047"><ele>140.0</ele><time>2026-05-01T16:03:41.997Z</time></trkpt><trkpt lat="44.9162752" lon="9.6991152"><ele>140.0</ele><time>2026-05-01T16:03:42.997Z</time></trkpt><trkpt lat="44.9162897" lon="9.6992262"><ele>140.0</ele><time>2026-05-01T16:03:43.999Z</time></trkpt><trkpt lat="44.9162835" lon="9.699356"><ele>140.0</ele><time>2026-05-01T16:03:44.998Z</time></trkpt><trkpt lat="44.9162605" lon="9.6995045"><ele>140.0</ele><time>2026-05-01T16:03:45.996Z</time></trkpt><trkpt lat="44.9162366" lon="9.6996626"><ele>140.0</ele><time>2026-05-01T16:03:46.997Z</time></trkpt><trkpt lat="44.9162298" lon="9.6998214"><ele>140.0</ele><time>2026-05-01T16:03:47.996Z</time></trkpt><trkpt lat="44.9162334" lon="9.6999876"><ele>140.0</ele><time>2026-05-01T16:03:48.996Z</time></trkpt><trkpt lat="44.9162375" lon="9.7001572"><ele>140.0</ele><time>2026-05-01T16:03:49.998Z</time></trkpt><trkpt lat="44.9162432" lon="9.700326"><ele>140.0</ele><time>2026-05-01T16:03:50.998Z</time></trkpt><trkpt lat="44.9162488" lon="9.7004924"><ele>140.0</ele><time>2026-05-01T16:03:51.998Z</time></trkpt><trkpt lat="44.916256" lon="9.7006444"><ele>140.0</ele><time>2026-05-01T16:03:52.999Z</time></trkpt><trkpt lat="44.9162673" lon="9.7007881"><ele>140.0</ele><time>2026-05-01T16:03:53.999Z</time></trkpt><trkpt lat="44.9163043" lon="9.7009157"><ele>140.0</ele><time>2026-05-01T16:03:54.998Z</time></trkpt><trkpt lat="44.9163766" lon="9.7010379"><ele>140.0</ele><time>2026-05-01T16:03:56Z</time></trkpt><trkpt lat="44.9164834" lon="9.7011543"><ele>140.0</ele><time>2026-05-01T16:03:56.999Z</time></trkpt><trkpt lat="44.9166204" lon="9.7012698"><ele>140.0</ele><time>2026-05-01T16:03:57.999Z</time></trkpt><trkpt lat="44.9167835" lon="9.7013927"><ele>140.0</ele><time>2026-05-01T16:03:58.999Z</time></trkpt><trkpt lat="44.9169637" lon="9.7015323"><ele>139.33333333333331</ele><time>2026-05-01T16:03:59.996Z</time></trkpt><trkpt lat="44.9171545" lon="9.7016851"><ele>138.66666666666666</ele><time>2026-05-01T16:04:00.997Z</time></trkpt><trkpt lat="44.9173456" lon="9.7018349"><ele>138.0</ele><time>2026-05-01T16:04:01.997Z</time></trkpt><trkpt lat="44.9175268" lon="9.7019715"><ele>137.66666666666666</ele><time>2026-05-01T16:04:02.997Z</time></trkpt><trkpt lat="44.9176967" lon="9.7020933"><ele>137.33333333333331</ele><time>2026-05-01T16:04:03.997Z</time></trkpt><trkpt lat="44.9178558" lon="9.7022019"><ele>137.0</ele><time>2026-05-01T16:04:04.997Z</time></trkpt><trkpt lat="44.9180102" lon="9.702307"><ele>137.0</ele><time>2026-05-01T16:04:05.997Z</time></trkpt><trkpt lat="44.9181589" lon="9.7024162"><ele>137.0</ele><time>2026-05-01T16:04:06.997Z</time></trkpt><trkpt lat="44.9182992" lon="9.7025336"><ele>137.0</ele><time>2026-05-01T16:04:07.997Z</time></trkpt><trkpt lat="44.9184292" lon="9.7026556"><ele>136.75</ele><time>2026-05-01T16:04:08.997Z</time></trkpt><trkpt lat="44.918549" lon="9.7027777"><ele>136.5</ele><time>2026-05-01T16:04:09.996Z</time></trkpt><trkpt lat="44.9186636" lon="9.7028963"><ele>136.25</ele><time>2026-05-01T16:04:10.996Z</time></trkpt><trkpt lat="44.9187733" lon="9.7030117"><ele>136.0</ele><time>2026-05-01T16:04:11.998Z</time></trkpt><trkpt lat="44.9188795" lon="9.7031233"><ele>136.0</ele><time>2026-05-01T16:04:12.997Z</time></trkpt><trkpt lat="44.9189814" lon="9.7032344"><ele>136.0</ele><time>2026-05-01T16:04:13.997Z</time></trkpt><trkpt lat="44.9190826" lon="9.7033517"><ele>136.0</ele><time>2026-05-01T16:04:14.998Z</time></trkpt><trkpt lat="44.9191754" lon="9.7034659"><ele>136.0</ele><time>2026-05-01T16:04:15.996Z</time></trkpt><trkpt lat="44.9192607" lon="9.7035724"><ele>136.16666666666669</ele><time>2026-05-01T16:04:16.996Z</time></trkpt><trkpt lat="44.9193318" lon="9.7036674"><ele>136.33333333333334</ele><time>2026-05-01T16:04:17.996Z</time></trkpt><trkpt lat="44.9193872" lon="9.7037467"><ele>136.5</ele><time>2026-05-01T16:04:18.997Z</time></trkpt><trkpt lat="44.9194653" lon="9.7038529"><ele>136.66666666666666</ele><time>2026-05-01T16:04:20.997Z</time></trkpt><trkpt lat="44.9195501" lon="9.7038813"><ele>136.83333333333331</ele><time>2026-05-01T16:04:22.999Z</time></trkpt><trkpt lat="44.9196142" lon="9.7038637"><ele>137.0</ele><time>2026-05-01T16:04:23.999Z</time></trkpt><trkpt lat="44.9196931" lon="9.7038236"><ele>137.0</ele><time>2026-05-01T16:04:24.998Z</time></trkpt><trkpt lat="44.9197898" lon="9.7037629"><ele>137.0</ele><time>2026-05-01T16:04:25.998Z</time></trkpt><trkpt lat="44.9198989" lon="9.7036935"><ele>137.0</ele><time>2026-05-01T16:04:27Z</time></trkpt><trkpt lat="44.9200159" lon="9.7036191"><ele>137.0</ele><time>2026-05-01T16:04:27.998Z</time></trkpt><trkpt lat="44.9201348" lon="9.7035472"><ele>137.25</ele><time>2026-05-01T16:04:28.999Z</time></trkpt><trkpt lat="44.9202569" lon="9.703476"><ele>137.5</ele><time>2026-05-01T16:04:29.998Z</time></trkpt><trkpt lat="44.9203788" lon="9.7034028"><ele>137.75</ele><time>2026-05-01T16:04:30.999Z</time></trkpt><trkpt lat="44.920497" lon="9.7033321"><ele>138.0</ele><time>2026-05-01T16:04:31.996Z</time></trkpt><trkpt lat="44.920611" lon="9.7032651"><ele>138.0</ele><time>2026-05-01T16:04:32.998Z</time></trkpt><trkpt lat="44.9207167" lon="9.7032049"><ele>138.0</ele><time>2026-05-01T16:04:33.996Z</time></trkpt><trkpt lat="44.9208194" lon="9.7031459"><ele>138.0</ele><time>2026-05-01T16:04:34.996Z</time></trkpt><trkpt lat="44.9209181" lon="9.7030912"><ele>138.0</ele><time>2026-05-01T16:04:35.996Z</time></trkpt><trkpt lat="44.9210171" lon="9.7030584"><ele>138.0</ele><time>2026-05-01T16:04:36.997Z</time></trkpt><trkpt lat="44.9211086" lon="9.7030498"><ele>137.0</ele><time>2026-05-01T16:04:37.997Z</time></trkpt><trkpt lat="44.9211955" lon="9.7030675"><ele>136.0</ele><time>2026-05-01T16:04:38.997Z</time></trkpt><trkpt lat="44.9216117" lon="9.7033687"><ele>134.66666666666669</ele><time>2026-05-01T16:04:42.998Z</time></trkpt><trkpt lat="44.9217538" lon="9.7034793"><ele>133.33333333333334</ele><time>2026-05-01T16:04:43.998Z</time></trkpt><trkpt lat="44.9218975" lon="9.7035897"><ele>132.0</ele><time>2026-05-01T16:04:44.999Z</time></trkpt><trkpt lat="44.9220345" lon="9.7036958"><ele>132.0</ele><time>2026-05-01T16:04:45.997Z</time></trkpt><trkpt lat="44.9221653" lon="9.7037997"><ele>132.0</ele><time>2026-05-01T16:04:46.997Z</time></trkpt><trkpt lat="44.9222862" lon="9.7039017"><ele>132.0</ele><time>2026-05-01T16:04:47.997Z</time></trkpt><trkpt lat="44.9223942" lon="9.7040046"><ele>132.0</ele><time>2026-05-01T16:04:48.997Z</time></trkpt><trkpt lat="44.922487" lon="9.7041166"><ele>132.25</ele><time>2026-05-01T16:04:49.999Z</time></trkpt><trkpt lat="44.9225657" lon="9.7042461"><ele>132.5</ele><time>2026-05-01T16:04:51Z</time></trkpt><trkpt lat="44.9226339" lon="9.7043993"><ele>132.75</ele><time>2026-05-01T16:04:52Z</time></trkpt><trkpt lat="44.9227026" lon="9.7045713"><ele>133.0</ele><time>2026-05-01T16:04:53Z</time></trkpt><trkpt lat="44.9227791" lon="9.7047569"><ele>133.0</ele><time>2026-05-01T16:04:54Z</time></trkpt><trkpt lat="44.9228631" lon="9.7049542"><ele>133.0</ele><time>2026-05-01T16:04:54.999Z</time></trkpt><trkpt lat="44.9229517" lon="9.7051617"><ele>133.0</ele><time>2026-05-01T16:04:56Z</time></trkpt><trkpt lat="44.9230435" lon="9.7053758"><ele>133.33333333333334</ele><time>2026-05-01T16:04:57Z</time></trkpt><trkpt lat="44.9231359" lon="9.7055921"><ele>133.66666666666666</ele><time>2026-05-01T16:04:58Z</time></trkpt><trkpt lat="44.9232278" lon="9.7058063"><ele>134.0</ele><time>2026-05-01T16:04:58.999Z</time></trkpt><trkpt lat="44.9233147" lon="9.7060094"><ele>134.25</ele><time>2026-05-01T16:04:59.998Z</time></trkpt><trkpt lat="44.9233949" lon="9.7062002"><ele>134.5</ele><time>2026-05-01T16:05:00.997Z</time></trkpt><trkpt lat="44.9234713" lon="9.7063747"><ele>134.75</ele><time>2026-05-01T16:05:01.998Z</time></trkpt><trkpt lat="44.9235403" lon="9.7065361"><ele>135.0</ele><time>2026-05-01T16:05:02.997Z</time></trkpt><trkpt lat="44.9236036" lon="9.7066873"><ele>134.4</ele><time>2026-05-01T16:05:03.997Z</time></trkpt><trkpt lat="44.9236613" lon="9.7068289"><ele>133.8</ele><time>2026-05-01T16:05:04.996Z</time></trkpt><trkpt lat="44.9237174" lon="9.7069593"><ele>133.2</ele><time>2026-05-01T16:05:05.997Z</time></trkpt><trkpt lat="44.9237695" lon="9.7070822"><ele>132.6</ele><time>2026-05-01T16:05:06.998Z</time></trkpt><trkpt lat="44.9238238" lon="9.7072026"><ele>132.0</ele><time>2026-05-01T16:05:07.996Z</time></trkpt><trkpt lat="44.9238773" lon="9.7073235"><ele>132.0</ele><time>2026-05-01T16:05:08.997Z</time></trkpt><trkpt lat="44.9239276" lon="9.7074406"><ele>132.0</ele><time>2026-05-01T16:05:09.998Z</time></trkpt><trkpt lat="44.9239732" lon="9.7075495"><ele>132.0</ele><time>2026-05-01T16:05:10.996Z</time></trkpt><trkpt lat="44.9240105" lon="9.7076456"><ele>132.0</ele><time>2026-05-01T16:05:11.996Z</time></trkpt><trkpt lat="44.9240404" lon="9.7077251"><ele>132.0</ele><time>2026-05-01T16:05:12.998Z</time></trkpt><trkpt lat="44.9240907" lon="9.7078224"><ele>132.0</ele><time>2026-05-01T16:05:14.997Z</time></trkpt><trkpt lat="44.9241562" lon="9.7078281"><ele>131.83333333333334</ele><time>2026-05-01T16:05:16.997Z</time></trkpt><trkpt lat="44.9242464" lon="9.7077929"><ele>131.66666666666666</ele><time>2026-05-01T16:05:18.997Z</time></trkpt><trkpt lat="44.9243461" lon="9.7077321"><ele>131.5</ele><time>2026-05-01T16:05:20.998Z</time></trkpt><trkpt lat="44.924402" lon="9.7076825"><ele>131.33333333333331</ele><time>2026-05-01T16:05:21.997Z</time></trkpt><trkpt lat="44.9244593" lon="9.7076214"><ele>131.16666666666666</ele><time>2026-05-01T16:05:22.998Z</time></trkpt><trkpt lat="44.9245189" lon="9.7075585"><ele>131.0</ele><time>2026-05-01T16:05:23.997Z</time></trkpt><trkpt lat="44.9245791" lon="9.7075046"><ele>131.0</ele><time>2026-05-01T16:05:24.997Z</time></trkpt><trkpt lat="44.9246436" lon="9.7074662"><ele>131.0</ele><time>2026-05-01T16:05:25.997Z</time></trkpt><trkpt lat="44.92471" lon="9.7074433"><ele>131.0</ele><time>2026-05-01T16:05:26.998Z</time></trkpt><trkpt lat="44.9248217" lon="9.7074267"><ele>131.0</ele><time>2026-05-01T16:05:28.996Z</time></trkpt><trkpt lat="44.9249483" lon="9.70746"><ele>131.0</ele><time>2026-05-01T16:05:30.997Z</time></trkpt><trkpt lat="44.92503" lon="9.7074933"><ele>130.5</ele><time>2026-05-01T16:05:31.996Z</time></trkpt><trkpt lat="44.9251217" lon="9.7075367"><ele>130.0</ele><time>2026-05-01T16:05:32.997Z</time></trkpt><trkpt lat="44.9252117" lon="9.7075817"><ele>129.5</ele><time>2026-05-01T16:05:33.996Z</time></trkpt><trkpt lat="44.9252967" lon="9.70762"><ele>129.0</ele><time>2026-05-01T16:05:34.998Z</time></trkpt><trkpt lat="44.92538" lon="9.7076467"><ele>128.5</ele><time>2026-05-01T16:05:35.998Z</time></trkpt><trkpt lat="44.9254583" lon="9.7076633"><ele>128.0</ele><time>2026-05-01T16:05:36.997Z</time></trkpt><trkpt lat="44.92553" lon="9.7076783"><ele>127.99999999999999</ele><time>2026-05-01T16:05:37.998Z</time></trkpt><trkpt lat="44.9256033" lon="9.70769"><ele>128.0</ele><time>2026-05-01T16:05:38.997Z</time></trkpt><trkpt lat="44.9256817" lon="9.7076983"><ele>128.0</ele><time>2026-05-01T16:05:39.998Z</time></trkpt><trkpt lat="44.9257617" lon="9.7076983"><ele>128.0</ele><time>2026-05-01T16:05:40.998Z</time></trkpt><trkpt lat="44.9258383" lon="9.707685"><ele>127.99999999999999</ele><time>2026-05-01T16:05:41.997Z</time></trkpt><trkpt lat="44.925915" lon="9.7076617"><ele>128.0</ele><time>2026-05-01T16:05:42.998Z</time></trkpt><trkpt lat="44.9259983" lon="9.7076367"><ele>128.16666666666666</ele><time>2026-05-01T16:05:43.998Z</time></trkpt><trkpt lat="44.9260817" lon="9.7076183"><ele>128.33333333333331</ele><time>2026-05-01T16:05:44.997Z</time></trkpt><trkpt lat="44.9261617" lon="9.7076017"><ele>128.5</ele><time>2026-05-01T16:05:45.996Z</time></trkpt><trkpt lat="44.9262367" lon="9.7075883"><ele>128.66666666666666</ele><time>2026-05-01T16:05:46.997Z</time></trkpt><trkpt lat="44.9263117" lon="9.7075733"><ele>128.83333333333334</ele><time>2026-05-01T16:05:47.997Z</time></trkpt><trkpt lat="44.9263867" lon="9.707555"><ele>129.0</ele><time>2026-05-01T16:05:48.997Z</time></trkpt><trkpt lat="44.9264617" lon="9.7075383"><ele>129.0</ele><time>2026-05-01T16:05:49.997Z</time></trkpt><trkpt lat="44.92654" lon="9.7075117"><ele>129.0</ele><time>2026-05-01T16:05:51Z</time></trkpt><trkpt lat="44.926615" lon="9.7074783"><ele>129.0</ele><time>2026-05-01T16:05:52Z</time></trkpt><trkpt lat="44.9266867" lon="9.7074417"><ele>129.0</ele><time>2026-05-01T16:05:53Z</time></trkpt><trkpt lat="44.9267583" lon="9.7074067"><ele>129.0</ele><time>2026-05-01T16:05:54Z</time></trkpt><trkpt lat="44.9268317" lon="9.70738"><ele>129.0</ele><time>2026-05-01T16:05:54.997Z</time></trkpt><trkpt lat="44.9269017" lon="9.7073617"><ele>128.83333333333334</ele><time>2026-05-01T16:05:55.997Z</time></trkpt><trkpt lat="44.92697" lon="9.7073517"><ele>128.66666666666666</ele><time>2026-05-01T16:05:56.997Z</time></trkpt><trkpt lat="44.927045" lon="9.7073533"><ele>128.5</ele><time>2026-05-01T16:05:57.996Z</time></trkpt><trkpt lat="44.9271217" lon="9.707385"><ele>128.33333333333331</ele><time>2026-05-01T16:05:58.996Z</time></trkpt><trkpt lat="44.9271983" lon="9.70742"><ele>128.16666666666666</ele><time>2026-05-01T16:05:59.996Z</time></trkpt><trkpt lat="44.9272767" lon="9.7074567"><ele>128.0</ele><time>2026-05-01T16:06:00.998Z</time></trkpt><trkpt lat="44.9273567" lon="9.707495"><ele>127.99999999999999</ele><time>2026-05-01T16:06:01.998Z</time></trkpt><trkpt lat="44.9274317" lon="9.7075417"><ele>128.0</ele><time>2026-05-01T16:06:02.997Z</time></trkpt><trkpt lat="44.927505" lon="9.7075883"><ele>128.0</ele><time>2026-05-01T16:06:03.996Z</time></trkpt><trkpt lat="44.9275733" lon="9.707635"><ele>128.0</ele><time>2026-05-01T16:06:04.997Z</time></trkpt><trkpt lat="44.9276367" lon="9.7076817"><ele>127.99999999999999</ele><time>2026-05-01T16:06:05.997Z</time></trkpt><trkpt lat="44.9276933" lon="9.70774"><ele>128.0</ele><time>2026-05-01T16:06:06.996Z</time></trkpt><trkpt lat="44.9277467" lon="9.707815"><ele>127.83333333333333</ele><time>2026-05-01T16:06:07.997Z</time></trkpt><trkpt lat="44.9277983" lon="9.7078917"><ele>127.66666666666666</ele><time>2026-05-01T16:06:08.998Z</time></trkpt><trkpt lat="44.9278433" lon="9.70797"><ele>127.5</ele><time>2026-05-01T16:06:09.996Z</time></trkpt><trkpt lat="44.9278833" lon="9.70804"><ele>127.33333333333334</ele><time>2026-05-01T16:06:10.996Z</time></trkpt><trkpt lat="44.9279183" lon="9.70812"><ele>127.16666666666667</ele><time>2026-05-01T16:06:11.996Z</time></trkpt><trkpt lat="44.9279733" lon="9.7082933"><ele>127.0</ele><time>2026-05-01T16:06:13.996Z</time></trkpt><trkpt lat="44.9280017" lon="9.7084017"><ele>127.0</ele><time>2026-05-01T16:06:14.996Z</time></trkpt><trkpt lat="44.9280267" lon="9.7085283"><ele>126.99999999999999</ele><time>2026-05-01T16:06:15.996Z</time></trkpt><trkpt lat="44.92805" lon="9.708665"><ele>126.99999999999999</ele><time>2026-05-01T16:06:16.996Z</time></trkpt><trkpt lat="44.9280717" lon="9.7087933"><ele>127.0</ele><time>2026-05-01T16:06:17.996Z</time></trkpt><trkpt lat="44.9280983" lon="9.708915"><ele>127.0</ele><time>2026-05-01T16:06:18.995Z</time></trkpt><trkpt lat="44.9281283" lon="9.7090283"><ele>126.85714285714286</ele><time>2026-05-01T16:06:19.997Z</time></trkpt><trkpt lat="44.9281483" lon="9.709125"><ele>126.71428571428571</ele><time>2026-05-01T16:06:20.996Z</time></trkpt><trkpt lat="44.9281733" lon="9.7092117"><ele>126.57142857142857</ele><time>2026-05-01T16:06:21.996Z</time></trkpt><trkpt lat="44.9282067" lon="9.7092883"><ele>126.42857142857143</ele><time>2026-05-01T16:06:22.996Z</time></trkpt><trkpt lat="44.9282467" lon="9.7093617"><ele>126.28571428571428</ele><time>2026-05-01T16:06:23.996Z</time></trkpt><trkpt lat="44.928295" lon="9.7094233"><ele>126.14285714285714</ele><time>2026-05-01T16:06:24.996Z</time></trkpt><trkpt lat="44.928345" lon="9.7094783"><ele>126.0</ele><time>2026-05-01T16:06:25.995Z</time></trkpt><trkpt lat="44.9284033" lon="9.7095367"><ele>125.85714285714286</ele><time>2026-05-01T16:06:26.996Z</time></trkpt><trkpt lat="44.9284617" lon="9.7095917"><ele>125.71428571428572</ele><time>2026-05-01T16:06:27.996Z</time></trkpt><trkpt lat="44.928515" lon="9.7096433"><ele>125.57142857142857</ele><time>2026-05-01T16:06:28.996Z</time></trkpt><trkpt lat="44.9285667" lon="9.7096983"><ele>125.42857142857143</ele><time>2026-05-01T16:06:29.995Z</time></trkpt><trkpt lat="44.9286217" lon="9.7097567"><ele>125.28571428571429</ele><time>2026-05-01T16:06:30.997Z</time></trkpt><trkpt lat="44.9286717" lon="9.7098233"><ele>125.14285714285714</ele><time>2026-05-01T16:06:31.995Z</time></trkpt><trkpt lat="44.9287167" lon="9.7098933"><ele>125.0</ele><time>2026-05-01T16:06:32.997Z</time></trkpt><trkpt lat="44.9287817" lon="9.7100317"><ele>124.99999999999999</ele><time>2026-05-01T16:06:34.997Z</time></trkpt><trkpt lat="44.9288433" lon="9.7101633"><ele>125.0</ele><time>2026-05-01T16:06:36.996Z</time></trkpt><trkpt lat="44.9288733" lon="9.7102467"><ele>125.0</ele><time>2026-05-01T16:06:38.997Z</time></trkpt><trkpt lat="44.928895" lon="9.7103367"><ele>125.0</ele><time>2026-05-01T16:06:56.997Z</time></trkpt><trkpt lat="44.928955" lon="9.710455"><ele>124.99999999999999</ele><time>2026-05-01T16:06:58.995Z</time></trkpt><trkpt lat="44.9289883" lon="9.7105333"><ele>125.0</ele><time>2026-05-01T16:06:59.997Z</time></trkpt><trkpt lat="44.92902" lon="9.7106183"><ele>125.0</ele><time>2026-05-01T16:07:00.997Z</time></trkpt><trkpt lat="44.92906" lon="9.7107117"><ele>125.0</ele><time>2026-05-01T16:07:01.999Z</time></trkpt><trkpt lat="44.9291083" lon="9.7108117"><ele>125.0</ele><time>2026-05-01T16:07:02.996Z</time></trkpt><trkpt lat="44.9291633" lon="9.710925"><ele>125.0</ele><time>2026-05-01T16:07:03.996Z</time></trkpt><trkpt lat="44.92922" lon="9.7110417"><ele>125.0</ele><time>2026-05-01T16:07:04.995Z</time></trkpt><trkpt lat="44.9292717" lon="9.7111467"><ele>125.0</ele><time>2026-05-01T16:07:05.996Z</time></trkpt><trkpt lat="44.9293267" lon="9.711255"><ele>125.0</ele><time>2026-05-01T16:07:06.997Z</time></trkpt><trkpt lat="44.929385" lon="9.711365"><ele>125.0</ele><time>2026-05-01T16:07:07.996Z</time></trkpt><trkpt lat="44.9294367" lon="9.7114717"><ele>125.0</ele><time>2026-05-01T16:07:08.997Z</time></trkpt><trkpt lat="44.9294817" lon="9.711575"><ele>125.0</ele><time>2026-05-01T16:07:09.996Z</time></trkpt><trkpt lat="44.9295267" lon="9.7116817"><ele>125.0</ele><time>2026-05-01T16:07:10.997Z</time></trkpt><trkpt lat="44.92957" lon="9.7117867"><ele>125.0</ele><time>2026-05-01T16:07:11.996Z</time></trkpt><trkpt lat="44.92961" lon="9.71188"><ele>125.0</ele><time>2026-05-01T16:07:12.996Z</time></trkpt><trkpt lat="44.9296467" lon="9.7119633"><ele>125.0</ele><time>2026-05-01T16:07:13.997Z</time></trkpt><trkpt lat="44.929685" lon="9.71204"><ele>125.0</ele><time>2026-05-01T16:07:14.996Z</time></trkpt><trkpt lat="44.9297267" lon="9.7121183"><ele>125.0</ele><time>2026-05-01T16:07:15.997Z</time></trkpt><trkpt lat="44.9297683" lon="9.7122017"><ele>125.0</ele><time>2026-05-01T16:07:16.998Z</time></trkpt><trkpt lat="44.9298117" lon="9.7122867"><ele>124.8</ele><time>2026-05-01T16:07:17.997Z</time></trkpt><trkpt lat="44.929855" lon="9.7123683"><ele>124.6</ele><time>2026-05-01T16:07:18.996Z</time></trkpt><trkpt lat="44.9298917" lon="9.712445"><ele>124.4</ele><time>2026-05-01T16:07:19.995Z</time></trkpt><trkpt lat="44.9299667" lon="9.7125767"><ele>124.2</ele><time>2026-05-01T16:07:21.996Z</time></trkpt><trkpt lat="44.9300433" lon="9.7127283"><ele>124.0</ele><time>2026-05-01T16:07:23.995Z</time></trkpt><trkpt lat="44.9300883" lon="9.71281"><ele>123.85714285714286</ele><time>2026-05-01T16:07:24.996Z</time></trkpt><trkpt lat="44.93013" lon="9.7128833"><ele>123.71428571428572</ele><time>2026-05-01T16:07:25.999Z</time></trkpt><trkpt lat="44.930175" lon="9.7129517"><ele>123.57142857142858</ele><time>2026-05-01T16:07:26.997Z</time></trkpt><trkpt lat="44.9302167" lon="9.71302"><ele>123.42857142857144</ele><time>2026-05-01T16:07:27.996Z</time></trkpt><trkpt lat="44.9302617" lon="9.7130883"><ele>123.28571428571429</ele><time>2026-05-01T16:07:28.997Z</time></trkpt><trkpt lat="44.9303117" lon="9.7131733"><ele>123.14285714285717</ele><time>2026-05-01T16:07:29.996Z</time></trkpt><trkpt lat="44.9303633" lon="9.7132683"><ele>123.00000000000001</ele><time>2026-05-01T16:07:30.996Z</time></trkpt><trkpt lat="44.930405" lon="9.71336"><ele>123.00000000000001</ele><time>2026-05-01T16:07:31.996Z</time></trkpt><trkpt lat="44.9304383" lon="9.7134483"><ele>123.0</ele><time>2026-05-01T16:07:32.997Z</time></trkpt><trkpt lat="44.930465" lon="9.713535"><ele>123.00000000000001</ele><time>2026-05-01T16:07:33.996Z</time></trkpt><trkpt lat="44.93049" lon="9.7136217"><ele>123.00000000000001</ele><time>2026-05-01T16:07:34.996Z</time></trkpt><trkpt lat="44.9305167" lon="9.7137133"><ele>123.0</ele><time>2026-05-01T16:07:35.996Z</time></trkpt><trkpt lat="44.9305567" lon="9.7138067"><ele>123.00000000000001</ele><time>2026-05-01T16:07:36.996Z</time></trkpt><trkpt lat="44.9306067" lon="9.7139033"><ele>123.00000000000001</ele><time>2026-05-01T16:07:37.996Z</time></trkpt><trkpt lat="44.93066" lon="9.7140033"><ele>123.16666666666667</ele><time>2026-05-01T16:07:38.997Z</time></trkpt><trkpt lat="44.9307133" lon="9.7141"><ele>123.33333333333334</ele><time>2026-05-01T16:07:39.995Z</time></trkpt><trkpt lat="44.9307617" lon="9.714195"><ele>123.5</ele><time>2026-05-01T16:07:40.995Z</time></trkpt><trkpt lat="44.9308117" lon="9.7142867"><ele>123.66666666666667</ele><time>2026-05-01T16:07:41.996Z</time></trkpt><trkpt lat="44.93086" lon="9.7143783"><ele>123.83333333333334</ele><time>2026-05-01T16:07:42.996Z</time></trkpt><trkpt lat="44.9309083" lon="9.7144617"><ele>124.0</ele><time>2026-05-01T16:07:43.996Z</time></trkpt><trkpt lat="44.9309583" lon="9.7145483"><ele>123.66666666666667</ele><time>2026-05-01T16:07:44.997Z</time></trkpt><trkpt lat="44.9310067" lon="9.71465"><ele>123.33333333333334</ele><time>2026-05-01T16:07:45.997Z</time></trkpt><trkpt lat="44.9310567" lon="9.7147467"><ele>123.0</ele><time>2026-05-01T16:07:46.996Z</time></trkpt><trkpt lat="44.9311017" lon="9.7148383"><ele>122.66666666666666</ele><time>2026-05-01T16:07:47.996Z</time></trkpt><trkpt lat="44.93114" lon="9.7149233"><ele>122.33333333333333</ele><time>2026-05-01T16:07:48.996Z</time></trkpt><trkpt lat="44.9311817" lon="9.7150067"><ele>122.0</ele><time>2026-05-01T16:07:49.997Z</time></trkpt><trkpt lat="44.931225" lon="9.715095"><ele>121.99999999999999</ele><time>2026-05-01T16:07:50.997Z</time></trkpt><trkpt lat="44.9312717" lon="9.71519"><ele>122.0</ele><time>2026-05-01T16:07:51.995Z</time></trkpt><trkpt lat="44.9313183" lon="9.71527"><ele>122.0</ele><time>2026-05-01T16:07:52.996Z</time></trkpt><trkpt lat="44.9313633" lon="9.7153467"><ele>122.0</ele><time>2026-05-01T16:07:53.996Z</time></trkpt><trkpt lat="44.9314033" lon="9.7154217"><ele>121.99999999999999</ele><time>2026-05-01T16:07:54.996Z</time></trkpt><trkpt lat="44.9314417" lon="9.7154933"><ele>122.0</ele><time>2026-05-01T16:07:55.996Z</time></trkpt><trkpt lat="44.9315333" lon="9.7156183"><ele>121.83333333333333</ele><time>2026-05-01T16:07:57.996Z</time></trkpt><trkpt lat="44.9315967" lon="9.7156967"><ele>121.66666666666666</ele><time>2026-05-01T16:07:58.996Z</time></trkpt><trkpt lat="44.9316633" lon="9.7157833"><ele>121.5</ele><time>2026-05-01T16:07:59.995Z</time></trkpt><trkpt lat="44.9317267" lon="9.7158683"><ele>121.33333333333334</ele><time>2026-05-01T16:08:00.996Z</time></trkpt><trkpt lat="44.9317833" lon="9.71595"><ele>121.16666666666667</ele><time>2026-05-01T16:08:01.996Z</time></trkpt><trkpt lat="44.93184" lon="9.7160333"><ele>121.0</ele><time>2026-05-01T16:08:02.996Z</time></trkpt><trkpt lat="44.9318983" lon="9.716125"><ele>120.83333333333334</ele><time>2026-05-01T16:08:03.996Z</time></trkpt><trkpt lat="44.9319617" lon="9.7162167"><ele>120.66666666666667</ele><time>2026-05-01T16:08:04.995Z</time></trkpt><trkpt lat="44.9320267" lon="9.7163017"><ele>120.5</ele><time>2026-05-01T16:08:05.996Z</time></trkpt><trkpt lat="44.9320933" lon="9.7163833"><ele>120.33333333333334</ele><time>2026-05-01T16:08:06.995Z</time></trkpt><trkpt lat="44.932155" lon="9.7164667"><ele>120.16666666666667</ele><time>2026-05-01T16:08:07.996Z</time></trkpt><trkpt lat="44.93221" lon="9.7165483"><ele>120.0</ele><time>2026-05-01T16:08:08.996Z</time></trkpt><trkpt lat="44.9322617" lon="9.7166317"><ele>120.0</ele><time>2026-05-01T16:08:10.083Z</time></trkpt><trkpt lat="44.9323067" lon="9.7167167"><ele>120.0</ele><time>2026-05-01T16:08:10.996Z</time></trkpt><trkpt lat="44.93235" lon="9.7168"><ele>120.0</ele><time>2026-05-01T16:08:11.996Z</time></trkpt><trkpt lat="44.9323983" lon="9.7168867"><ele>120.0</ele><time>2026-05-01T16:08:12.997Z</time></trkpt><trkpt lat="44.9324583" lon="9.716985"><ele>120.0</ele><time>2026-05-01T16:08:13.995Z</time></trkpt><trkpt lat="44.93252" lon="9.7170917"><ele>120.0</ele><time>2026-05-01T16:08:14.996Z</time></trkpt><trkpt lat="44.9325767" lon="9.7172"><ele>120.0</ele><time>2026-05-01T16:08:15.997Z</time></trkpt><trkpt lat="44.9326283" lon="9.7173"><ele>120.0</ele><time>2026-05-01T16:08:16.996Z</time></trkpt><trkpt lat="44.93268" lon="9.71739"><ele>120.0</ele><time>2026-05-01T16:08:17.995Z</time></trkpt><trkpt lat="44.93273" lon="9.7174733"><ele>120.0</ele><time>2026-05-01T16:08:18.996Z</time></trkpt><trkpt lat="44.932775" lon="9.717565"><ele>120.0</ele><time>2026-05-01T16:08:19.997Z</time></trkpt><trkpt lat="44.932825" lon="9.717665"><ele>120.0</ele><time>2026-05-01T16:08:20.996Z</time></trkpt><trkpt lat="44.9328783" lon="9.7177667"><ele>120.0</ele><time>2026-05-01T16:08:21.996Z</time></trkpt><trkpt lat="44.932935" lon="9.7178733"><ele>120.0</ele><time>2026-05-01T16:08:22.996Z</time></trkpt><trkpt lat="44.93299" lon="9.7179817"><ele>120.0</ele><time>2026-05-01T16:08:23.996Z</time></trkpt><trkpt lat="44.93304" lon="9.71809"><ele>120.0</ele><time>2026-05-01T16:08:24.997Z</time></trkpt><trkpt lat="44.9330833" lon="9.7181933"><ele>120.0</ele><time>2026-05-01T16:08:25.997Z</time></trkpt><trkpt lat="44.9331217" lon="9.7182983"><ele>120.0</ele><time>2026-05-01T16:08:26.997Z</time></trkpt><trkpt lat="44.9331583" lon="9.7184"><ele>120.0</ele><time>2026-05-01T16:08:27.995Z</time></trkpt><trkpt lat="44.9332067" lon="9.7185033"><ele>120.0</ele><time>2026-05-01T16:08:28.996Z</time></trkpt><trkpt lat="44.933265" lon="9.71861"><ele>120.0</ele><time>2026-05-01T16:08:29.997Z</time></trkpt><trkpt lat="44.933325" lon="9.7187183"><ele>120.0</ele><time>2026-05-01T16:08:30.998Z</time></trkpt><trkpt lat="44.9333883" lon="9.7188217"><ele>120.0</ele><time>2026-05-01T16:08:31.996Z</time></trkpt><trkpt lat="44.9334517" lon="9.7189283"><ele>119.83333333333333</ele><time>2026-05-01T16:08:32.997Z</time></trkpt><trkpt lat="44.9335133" lon="9.7190233"><ele>119.66666666666666</ele><time>2026-05-01T16:08:33.996Z</time></trkpt><trkpt lat="44.9335717" lon="9.7191083"><ele>119.5</ele><time>2026-05-01T16:08:34.997Z</time></trkpt><trkpt lat="44.9336283" lon="9.719185"><ele>119.33333333333333</ele><time>2026-05-01T16:08:35.996Z</time></trkpt><trkpt lat="44.933685" lon="9.7192433"><ele>119.16666666666666</ele><time>2026-05-01T16:08:36.996Z</time></trkpt><trkpt lat="44.933745" lon="9.7192933"><ele>119.0</ele><time>2026-05-01T16:08:37.996Z</time></trkpt><trkpt lat="44.9338167" lon="9.7193417"><ele>118.99999999999999</ele><time>2026-05-01T16:08:38.998Z</time></trkpt><trkpt lat="44.9338983" lon="9.7193867"><ele>119.0</ele><time>2026-05-01T16:08:39.996Z</time></trkpt><trkpt lat="44.9339817" lon="9.7194233"><ele>119.0</ele><time>2026-05-01T16:08:40.997Z</time></trkpt><trkpt lat="44.9340633" lon="9.719465"><ele>119.0</ele><time>2026-05-01T16:08:41.995Z</time></trkpt><trkpt lat="44.934145" lon="9.71952"><ele>118.99999999999999</ele><time>2026-05-01T16:08:42.995Z</time></trkpt><trkpt lat="44.9342233" lon="9.7195833"><ele>119.0</ele><time>2026-05-01T16:08:43.997Z</time></trkpt><trkpt lat="44.9342917" lon="9.7196383"><ele>118.6</ele><time>2026-05-01T16:08:44.997Z</time></trkpt><trkpt lat="44.934385" lon="9.7197267"><ele>118.2</ele><time>2026-05-01T16:08:46.996Z</time></trkpt><trkpt lat="44.93445" lon="9.71981"><ele>117.79999999999998</ele><time>2026-05-01T16:08:48.996Z</time></trkpt><trkpt lat="44.9345183" lon="9.719865"><ele>117.39999999999999</ele><time>2026-05-01T16:08:51.997Z</time></trkpt><trkpt lat="44.9345817" lon="9.7199233"><ele>117.0</ele><time>2026-05-01T16:08:53.995Z</time></trkpt><trkpt lat="44.9346733" lon="9.720015"><ele>117.0</ele><time>2026-05-01T16:08:55.997Z</time></trkpt><trkpt lat="44.934725" lon="9.7200783"><ele>117.00000000000001</ele><time>2026-05-01T16:08:56.996Z</time></trkpt><trkpt lat="44.9347783" lon="9.7201417"><ele>117.0</ele><time>2026-05-01T16:08:57.997Z</time></trkpt><trkpt lat="44.9348317" lon="9.720205"><ele>117.0</ele><time>2026-05-01T16:08:58.996Z</time></trkpt><trkpt lat="44.9348867" lon="9.7202667"><ele>117.00000000000001</ele><time>2026-05-01T16:08:59.996Z</time></trkpt><trkpt lat="44.9349467" lon="9.72032"><ele>117.0</ele><time>2026-05-01T16:09:00.996Z</time></trkpt><trkpt lat="44.935" lon="9.7203683"><ele>117.0</ele><time>2026-05-01T16:09:01.997Z</time></trkpt><trkpt lat="44.93511" lon="9.72044"><ele>117.0</ele><time>2026-05-01T16:09:03.996Z</time></trkpt><trkpt lat="44.9351733" lon="9.72048"><ele>116.99999999999999</ele><time>2026-05-01T16:09:04.996Z</time></trkpt><trkpt lat="44.9352567" lon="9.72053"><ele>116.99999999999999</ele><time>2026-05-01T16:09:05.995Z</time></trkpt><trkpt lat="44.9353583" lon="9.7205883"><ele>117.0</ele><time>2026-05-01T16:09:06.997Z</time></trkpt><trkpt lat="44.9354583" lon="9.720655"><ele>117.0</ele><time>2026-05-01T16:09:07.995Z</time></trkpt><trkpt lat="44.9355583" lon="9.7207217"><ele>117.0</ele><time>2026-05-01T16:09:08.996Z</time></trkpt><trkpt lat="44.935655" lon="9.720785"><ele>116.99999999999999</ele><time>2026-05-01T16:09:09.996Z</time></trkpt><trkpt lat="44.9357483" lon="9.720835"><ele>116.99999999999999</ele><time>2026-05-01T16:09:10.997Z</time></trkpt><trkpt lat="44.9358383" lon="9.720875"><ele>117.0</ele><time>2026-05-01T16:09:11.995Z</time></trkpt><trkpt lat="44.9359217" lon="9.720905"><ele>117.0</ele><time>2026-05-01T16:09:12.997Z</time></trkpt><trkpt lat="44.9359967" lon="9.7209383"><ele>117.0</ele><time>2026-05-01T16:09:13.997Z</time></trkpt><trkpt lat="44.9360533" lon="9.720985"><ele>117.0</ele><time>2026-05-01T16:09:14.996Z</time></trkpt><trkpt lat="44.93612" lon="9.7210383"><ele>117.0</ele><time>2026-05-01T16:09:15.997Z</time></trkpt><trkpt lat="44.936205" lon="9.7210917"><ele>117.0</ele><time>2026-05-01T16:09:16.995Z</time></trkpt><trkpt lat="44.9362917" lon="9.7211467"><ele>117.0</ele><time>2026-05-01T16:09:17.996Z</time></trkpt><trkpt lat="44.9363683" lon="9.7212"><ele>117.0</ele><time>2026-05-01T16:09:18.996Z</time></trkpt><trkpt lat="44.9364367" lon="9.7212683"><ele>117.0</ele><time>2026-05-01T16:09:19.996Z</time></trkpt><trkpt lat="44.9365067" lon="9.7213433"><ele>117.0</ele><time>2026-05-01T16:09:20.998Z</time></trkpt><trkpt lat="44.9365733" lon="9.7214133"><ele>117.0</ele><time>2026-05-01T16:09:21.997Z</time></trkpt><trkpt lat="44.936635" lon="9.721475"><ele>117.0</ele><time>2026-05-01T16:09:22.996Z</time></trkpt><trkpt lat="44.9366917" lon="9.7215317"><ele>117.0</ele><time>2026-05-01T16:09:23.996Z</time></trkpt><trkpt lat="44.9367483" lon="9.7215767"><ele>117.0</ele><time>2026-05-01T16:09:24.996Z</time></trkpt><trkpt lat="44.9368467" lon="9.7216367"><ele>116.66666666666667</ele><time>2026-05-01T16:09:26.997Z</time></trkpt><trkpt lat="44.9369567" lon="9.7216833"><ele>116.33333333333334</ele><time>2026-05-01T16:09:28.996Z</time></trkpt><trkpt lat="44.9370717" lon="9.7217317"><ele>116.0</ele><time>2026-05-01T16:09:30.996Z</time></trkpt><trkpt lat="44.9371383" lon="9.7217617"><ele>115.66666666666667</ele><time>2026-05-01T16:09:31.997Z</time></trkpt><trkpt lat="44.9372033" lon="9.721795"><ele>115.33333333333334</ele><time>2026-05-01T16:09:32.996Z</time></trkpt><trkpt lat="44.937275" lon="9.7218267"><ele>115.0</ele><time>2026-05-01T16:09:33.995Z</time></trkpt><trkpt lat="44.9373367" lon="9.721855"><ele>114.99999999999999</ele><time>2026-05-01T16:09:34.997Z</time></trkpt><trkpt lat="44.9374" lon="9.7218767"><ele>115.0</ele><time>2026-05-01T16:09:35.996Z</time></trkpt><trkpt lat="44.9374667" lon="9.7218983"><ele>114.99999999999999</ele><time>2026-05-01T16:09:36.996Z</time></trkpt><trkpt lat="44.9375317" lon="9.7219233"><ele>114.99999999999999</ele><time>2026-05-01T16:09:37.995Z</time></trkpt><trkpt lat="44.9375933" lon="9.7219483"><ele>115.0</ele><time>2026-05-01T16:09:38.996Z</time></trkpt><trkpt lat="44.9376583" lon="9.7219767"><ele>114.99999999999999</ele><time>2026-05-01T16:09:39.997Z</time></trkpt><trkpt lat="44.9377217" lon="9.7220033"><ele>114.99999999999999</ele><time>2026-05-01T16:09:40.996Z</time></trkpt><trkpt lat="44.937835" lon="9.7220717"><ele>114.83333333333334</ele><time>2026-05-01T16:09:42.997Z</time></trkpt><trkpt lat="44.9378967" lon="9.7221017"><ele>114.66666666666667</ele><time>2026-05-01T16:09:43.996Z</time></trkpt><trkpt lat="44.9379667" lon="9.7221283"><ele>114.5</ele><time>2026-05-01T16:09:44.996Z</time></trkpt><trkpt lat="44.9380433" lon="9.72215"><ele>114.33333333333334</ele><time>2026-05-01T16:09:45.997Z</time></trkpt><trkpt lat="44.9381233" lon="9.7221583"><ele>114.16666666666667</ele><time>2026-05-01T16:09:46.996Z</time></trkpt><trkpt lat="44.9382017" lon="9.722155"><ele>114.0</ele><time>2026-05-01T16:09:47.997Z</time></trkpt><trkpt lat="44.93828" lon="9.7221467"><ele>114.0</ele><time>2026-05-01T16:09:48.996Z</time></trkpt><trkpt lat="44.93835" lon="9.7221317"><ele>114.0</ele><time>2026-05-01T16:09:49.996Z</time></trkpt><trkpt lat="44.9384767" lon="9.7221233"><ele>114.0</ele><time>2026-05-01T16:09:51.996Z</time></trkpt><trkpt lat="44.9385483" lon="9.72212"><ele>114.0</ele><time>2026-05-01T16:09:52.997Z</time></trkpt><trkpt lat="44.9386217" lon="9.72211"><ele>114.0</ele><time>2026-05-01T16:09:53.996Z</time></trkpt><trkpt lat="44.9387" lon="9.7221033"><ele>114.0</ele><time>2026-05-01T16:09:54.996Z</time></trkpt><trkpt lat="44.9387817" lon="9.7221017"><ele>114.14285714285714</ele><time>2026-05-01T16:09:55.996Z</time></trkpt><trkpt lat="44.9388617" lon="9.7221017"><ele>114.28571428571428</ele><time>2026-05-01T16:09:56.996Z</time></trkpt><trkpt lat="44.9389417" lon="9.7221"><ele>114.42857142857142</ele><time>2026-05-01T16:09:57.995Z</time></trkpt><trkpt lat="44.939015" lon="9.7220967"><ele>114.57142857142856</ele><time>2026-05-01T16:09:58.996Z</time></trkpt><trkpt lat="44.939085" lon="9.7220933"><ele>114.71428571428571</ele><time>2026-05-01T16:09:59.997Z</time></trkpt><trkpt lat="44.939155" lon="9.7220933"><ele>114.85714285714283</ele><time>2026-05-01T16:10:00.996Z</time></trkpt><trkpt lat="44.93922" lon="9.72209"><ele>114.99999999999999</ele><time>2026-05-01T16:10:01.997Z</time></trkpt><trkpt lat="44.939345" lon="9.7220833"><ele>115.14285714285712</ele><time>2026-05-01T16:10:03.997Z</time></trkpt><trkpt lat="44.93941" lon="9.7220733"><ele>115.28571428571428</ele><time>2026-05-01T16:10:04.997Z</time></trkpt><trkpt lat="44.93948" lon="9.7220717"><ele>115.42857142857143</ele><time>2026-05-01T16:10:05.996Z</time></trkpt><trkpt lat="44.9395533" lon="9.7220883"><ele>115.57142857142857</ele><time>2026-05-01T16:10:06.997Z</time></trkpt><trkpt lat="44.93963" lon="9.7221317"><ele>115.71428571428572</ele><time>2026-05-01T16:10:07.995Z</time></trkpt><trkpt lat="44.9397033" lon="9.7221817"><ele>115.85714285714288</ele><time>2026-05-01T16:10:08.998Z</time></trkpt><trkpt lat="44.93976" lon="9.7222267"><ele>116.00000000000001</ele><time>2026-05-01T16:10:09.996Z</time></trkpt><trkpt lat="44.9398" lon="9.7223117"><ele>115.99999999999999</ele><time>2026-05-01T16:10:11.995Z</time></trkpt><trkpt lat="44.93975" lon="9.7224167"><ele>116.0</ele><time>2026-05-01T16:10:13.997Z</time></trkpt><trkpt lat="44.9397083" lon="9.7224917"><ele>116.0</ele><time>2026-05-01T16:10:14.997Z</time></trkpt><trkpt lat="44.939675" lon="9.72258"><ele>116.0</ele><time>2026-05-01T16:10:15.996Z</time></trkpt><trkpt lat="44.9396533" lon="9.7226683"><ele>115.99999999999999</ele><time>2026-05-01T16:10:16.997Z</time></trkpt><trkpt lat="44.93964" lon="9.7228467"><ele>116.0</ele><time>2026-05-01T16:10:18.996Z</time></trkpt><trkpt lat="44.9396383" lon="9.7229367"><ele>116.0</ele><time>2026-05-01T16:10:19.998Z</time></trkpt><trkpt lat="44.9396183" lon="9.7230917"><ele>116.0</ele><time>2026-05-01T16:10:21.999Z</time></trkpt><trkpt lat="44.939605" lon="9.7231883"><ele>116.0</ele><time>2026-05-01T16:10:23.997Z</time></trkpt><trkpt lat="44.9396633" lon="9.7232683"><ele>116.0</ele><time>2026-05-01T16:10:26.996Z</time></trkpt><trkpt lat="44.93978" lon="9.72331"><ele>116.0</ele><time>2026-05-01T16:10:28.996Z</time></trkpt><trkpt lat="44.93985" lon="9.723325"><ele>116.0</ele><time>2026-05-01T16:10:29.996Z</time></trkpt><trkpt lat="44.9399283" lon="9.7233333"><ele>116.0</ele><time>2026-05-01T16:10:30.996Z</time></trkpt><trkpt lat="44.9400167" lon="9.723345"><ele>116.0</ele><time>2026-05-01T16:10:31.996Z</time></trkpt><trkpt lat="44.94011" lon="9.72336"><ele>116.0</ele><time>2026-05-01T16:10:32.996Z</time></trkpt><trkpt lat="44.940205" lon="9.723375"><ele>116.0</ele><time>2026-05-01T16:10:33.997Z</time></trkpt><trkpt lat="44.9403017" lon="9.7233883"><ele>115.8</ele><time>2026-05-01T16:10:34.996Z</time></trkpt><trkpt lat="44.9403983" lon="9.72341"><ele>115.6</ele><time>2026-05-01T16:10:35.996Z</time></trkpt><trkpt lat="44.9404983" lon="9.7234367"><ele>115.4</ele><time>2026-05-01T16:10:36.996Z</time></trkpt><trkpt lat="44.9406" lon="9.7234617"><ele>115.2</ele><time>2026-05-01T16:10:37.995Z</time></trkpt><trkpt lat="44.94071" lon="9.7234833"><ele>115.0</ele><time>2026-05-01T16:10:38.996Z</time></trkpt><trkpt lat="44.9408283" lon="9.7235017"><ele>115.0</ele><time>2026-05-01T16:10:39.997Z</time></trkpt><trkpt lat="44.94094" lon="9.7235233"><ele>115.0</ele><time>2026-05-01T16:10:40.996Z</time></trkpt><trkpt lat="44.9410417" lon="9.72354"><ele>115.0</ele><time>2026-05-01T16:10:41.996Z</time></trkpt><trkpt lat="44.941135" lon="9.723555"><ele>115.0</ele><time>2026-05-01T16:10:42.996Z</time></trkpt><trkpt lat="44.94122" lon="9.72357"><ele>115.0</ele><time>2026-05-01T16:10:43.996Z</time></trkpt><trkpt lat="44.9412983" lon="9.7235867"><ele>114.99999999999999</ele><time>2026-05-01T16:10:44.997Z</time></trkpt><trkpt lat="44.9413667" lon="9.72361"><ele>115.0</ele><time>2026-05-01T16:10:45.997Z</time></trkpt><trkpt lat="44.9414333" lon="9.7236467"><ele>114.99999999999999</ele><time>2026-05-01T16:10:46.996Z</time></trkpt><trkpt lat="44.9414933" lon="9.7236933"><ele>114.99999999999999</ele><time>2026-05-01T16:10:47.996Z</time></trkpt><trkpt lat="44.941555" lon="9.72375"><ele>115.0</ele><time>2026-05-01T16:10:48.997Z</time></trkpt><trkpt lat="44.94162" lon="9.7238033"><ele>114.99999999999999</ele><time>2026-05-01T16:10:49.996Z</time></trkpt><trkpt lat="44.9416967" lon="9.7238683"><ele>114.99999999999999</ele><time>2026-05-01T16:10:50.996Z</time></trkpt><trkpt lat="44.9417783" lon="9.7239367"><ele>115.0</ele><time>2026-05-01T16:10:51.998Z</time></trkpt><trkpt lat="44.9418667" lon="9.72401"><ele>115.0</ele><time>2026-05-01T16:10:53Z</time></trkpt><trkpt lat="44.9419617" lon="9.7240883"><ele>115.0</ele><time>2026-05-01T16:10:53.998Z</time></trkpt><trkpt lat="44.94206" lon="9.7241617"><ele>115.0</ele><time>2026-05-01T16:10:54.996Z</time></trkpt><trkpt lat="44.942155" lon="9.72423"><ele>115.0</ele><time>2026-05-01T16:10:55.995Z</time></trkpt><trkpt lat="44.9422433" lon="9.7243"><ele>115.0</ele><time>2026-05-01T16:10:56.996Z</time></trkpt><trkpt lat="44.942325" lon="9.7243633"><ele>115.0</ele><time>2026-05-01T16:10:57.996Z</time></trkpt><trkpt lat="44.942405" lon="9.72442"><ele>115.0</ele><time>2026-05-01T16:10:58.996Z</time></trkpt><trkpt lat="44.9424783" lon="9.7244733"><ele>115.0</ele><time>2026-05-01T16:10:59.997Z</time></trkpt><trkpt lat="44.9425467" lon="9.72452"><ele>115.0</ele><time>2026-05-01T16:11:00.997Z</time></trkpt><trkpt lat="44.9426467" lon="9.7246133"><ele>115.0</ele><time>2026-05-01T16:11:02.997Z</time></trkpt><trkpt lat="44.9427183" lon="9.724725"><ele>115.0</ele><time>2026-05-01T16:11:04.997Z</time></trkpt><trkpt lat="44.9427733" lon="9.7248483"><ele>115.0</ele><time>2026-05-01T16:11:06.996Z</time></trkpt><trkpt lat="44.9428783" lon="9.724935"><ele>115.0</ele><time>2026-05-01T16:11:08.996Z</time></trkpt><trkpt lat="44.9429467" lon="9.7249717"><ele>115.0</ele><time>2026-05-01T16:11:09.995Z</time></trkpt><trkpt lat="44.9430533" lon="9.7249867"><ele>115.0</ele><time>2026-05-01T16:11:11.996Z</time></trkpt><trkpt lat="44.9431667" lon="9.7249233"><ele>115.0</ele><time>2026-05-01T16:11:13.997Z</time></trkpt><trkpt lat="44.943245" lon="9.7249133"><ele>115.0</ele><time>2026-05-01T16:11:14.996Z</time></trkpt><trkpt lat="44.9433467" lon="9.724935"><ele>115.0</ele><time>2026-05-01T16:11:15.996Z</time></trkpt><trkpt lat="44.9434633" lon="9.7249867"><ele>115.0</ele><time>2026-05-01T16:11:16.996Z</time></trkpt><trkpt lat="44.9435767" lon="9.72504"><ele>114.8</ele><time>2026-05-01T16:11:17.996Z</time></trkpt><trkpt lat="44.943685" lon="9.7250883"><ele>114.6</ele><time>2026-05-01T16:11:18.996Z</time></trkpt><trkpt lat="44.9437867" lon="9.7251367"><ele>114.4</ele><time>2026-05-01T16:11:19.996Z</time></trkpt><trkpt lat="44.9438817" lon="9.725185"><ele>114.2</ele><time>2026-05-01T16:11:20.997Z</time></trkpt><trkpt lat="44.943965" lon="9.725225"><ele>114.0</ele><time>2026-05-01T16:11:21.997Z</time></trkpt><trkpt lat="44.9440467" lon="9.7252617"><ele>114.0</ele><time>2026-05-01T16:11:22.996Z</time></trkpt><trkpt lat="44.9441217" lon="9.7253"><ele>114.0</ele><time>2026-05-01T16:11:23.997Z</time></trkpt><trkpt lat="44.9441917" lon="9.7253483"><ele>114.0</ele><time>2026-05-01T16:11:24.996Z</time></trkpt><trkpt lat="44.9442633" lon="9.7254133"><ele>114.0</ele><time>2026-05-01T16:11:25.996Z</time></trkpt><trkpt lat="44.9443433" lon="9.7255117"><ele>114.0</ele><time>2026-05-01T16:11:26.996Z</time></trkpt><trkpt lat="44.9444317" lon="9.7256233"><ele>113.80000000000001</ele><time>2026-05-01T16:11:27.996Z</time></trkpt><trkpt lat="44.9445217" lon="9.7257383"><ele>113.60000000000001</ele><time>2026-05-01T16:11:28.997Z</time></trkpt><trkpt lat="44.9446033" lon="9.725845"><ele>113.4</ele><time>2026-05-01T16:11:29.996Z</time></trkpt><trkpt lat="44.94468" lon="9.72594"><ele>113.2</ele><time>2026-05-01T16:11:30.996Z</time></trkpt><trkpt lat="44.9447483" lon="9.7260217"><ele>113.0</ele><time>2026-05-01T16:11:31.997Z</time></trkpt><trkpt lat="44.94481" lon="9.7260817"><ele>113.0</ele><time>2026-05-01T16:11:32.996Z</time></trkpt><trkpt lat="44.944865" lon="9.7261317"><ele>113.00000000000001</ele><time>2026-05-01T16:11:33.996Z</time></trkpt><trkpt lat="44.9449417" lon="9.72625"><ele>113.00000000000001</ele><time>2026-05-01T16:11:35.996Z</time></trkpt><trkpt lat="44.9449367" lon="9.726435"><ele>113.0</ele><time>2026-05-01T16:11:37.997Z</time></trkpt><trkpt lat="44.9449033" lon="9.72657"><ele>113.0</ele><time>2026-05-01T16:11:38.996Z</time></trkpt><trkpt lat="44.9448633" lon="9.7267533"><ele>112.0</ele><time>2026-05-01T16:11:39.997Z</time></trkpt><trkpt lat="44.94482" lon="9.72697"><ele>111.0</ele><time>2026-05-01T16:11:40.997Z</time></trkpt><trkpt lat="44.944775" lon="9.7272183"><ele>110.0</ele><time>2026-05-01T16:11:41.996Z</time></trkpt><trkpt lat="44.944725" lon="9.727485"><ele>109.33333333333333</ele><time>2026-05-01T16:11:42.996Z</time></trkpt><trkpt lat="44.9446767" lon="9.7277583"><ele>108.66666666666666</ele><time>2026-05-01T16:11:43.997Z</time></trkpt><trkpt lat="44.94463" lon="9.7280283"><ele>108.0</ele><time>2026-05-01T16:11:44.997Z</time></trkpt><trkpt lat="44.944585" lon="9.7282917"><ele>108.0</ele><time>2026-05-01T16:11:45.996Z</time></trkpt><trkpt lat="44.9445417" lon="9.7285483"><ele>108.0</ele><time>2026-05-01T16:11:46.996Z</time></trkpt><trkpt lat="44.9444983" lon="9.7287983"><ele>108.0</ele><time>2026-05-01T16:11:47.997Z</time></trkpt><trkpt lat="44.944455" lon="9.7290467"><ele>108.0</ele><time>2026-05-01T16:11:48.997Z</time></trkpt><trkpt lat="44.9444133" lon="9.7292967"><ele>108.0</ele><time>2026-05-01T16:11:49.998Z</time></trkpt><trkpt lat="44.9443733" lon="9.729545"><ele>108.0</ele><time>2026-05-01T16:11:50.998Z</time></trkpt><trkpt lat="44.9443367" lon="9.7297783"><ele>108.33333333333334</ele><time>2026-05-01T16:11:51.998Z</time></trkpt><trkpt lat="44.9443" lon="9.7300017"><ele>108.66666666666667</ele><time>2026-05-01T16:11:52.998Z</time></trkpt><trkpt lat="44.944265" lon="9.73021"><ele>109.0</ele><time>2026-05-01T16:11:54Z</time></trkpt><trkpt lat="44.9442317" lon="9.7304067"><ele>109.25</ele><time>2026-05-01T16:11:54.997Z</time></trkpt><trkpt lat="44.9442" lon="9.7305883"><ele>109.5</ele><time>2026-05-01T16:11:55.997Z</time></trkpt><trkpt lat="44.94417" lon="9.73076"><ele>109.75</ele><time>2026-05-01T16:11:56.997Z</time></trkpt><trkpt lat="44.9441417" lon="9.7309183"><ele>110.0</ele><time>2026-05-01T16:11:57.995Z</time></trkpt><trkpt lat="44.944115" lon="9.731065"><ele>109.99999999999999</ele><time>2026-05-01T16:11:58.996Z</time></trkpt><trkpt lat="44.94409" lon="9.7312033"><ele>110.0</ele><time>2026-05-01T16:11:59.997Z</time></trkpt><trkpt lat="44.9440667" lon="9.7313317"><ele>110.0</ele><time>2026-05-01T16:12:00.997Z</time></trkpt><trkpt lat="44.9440467" lon="9.73144"><ele>110.0</ele><time>2026-05-01T16:12:01.996Z</time></trkpt><trkpt lat="44.9440183" lon="9.73157"><ele>109.99999999999999</ele><time>2026-05-01T16:12:03.996Z</time></trkpt><trkpt lat="44.944035" lon="9.7316733"><ele>110.0</ele><time>2026-05-01T16:12:13.996Z</time></trkpt><trkpt lat="44.94415" lon="9.7317217"><ele>110.0</ele><time>2026-05-01T16:12:15.997Z</time></trkpt><trkpt lat="44.9442383" lon="9.731745"><ele>110.0</ele><time>2026-05-01T16:12:16.997Z</time></trkpt><trkpt lat="44.9443417" lon="9.73177"><ele>110.0</ele><time>2026-05-01T16:12:17.996Z</time></trkpt><trkpt lat="44.94445" lon="9.7318"><ele>110.0</ele><time>2026-05-01T16:12:18.997Z</time></trkpt><trkpt lat="44.94457" lon="9.7318283"><ele>110.0</ele><time>2026-05-01T16:12:19.996Z</time></trkpt><trkpt lat="44.9447017" lon="9.7318583"><ele>110.0</ele><time>2026-05-01T16:12:20.999Z</time></trkpt><trkpt lat="44.9448417" lon="9.7318883"><ele>110.0</ele><time>2026-05-01T16:12:21.997Z</time></trkpt><trkpt lat="44.944985" lon="9.7319233"><ele>110.0</ele><time>2026-05-01T16:12:22.998Z</time></trkpt><trkpt lat="44.9451317" lon="9.7319583"><ele>110.0</ele><time>2026-05-01T16:12:23.998Z</time></trkpt><trkpt lat="44.9452733" lon="9.731995"><ele>109.5</ele><time>2026-05-01T16:12:24.997Z</time></trkpt><trkpt lat="44.945415" lon="9.732025"><ele>109.0</ele><time>2026-05-01T16:12:25.996Z</time></trkpt><trkpt lat="44.9455533" lon="9.732055"><ele>108.5</ele><time>2026-05-01T16:12:26.997Z</time></trkpt><trkpt lat="44.9456933" lon="9.7320867"><ele>108.0</ele><time>2026-05-01T16:12:27.996Z</time></trkpt><trkpt lat="44.94583" lon="9.73212"><ele>107.5</ele><time>2026-05-01T16:12:28.996Z</time></trkpt><trkpt lat="44.9459667" lon="9.7321533"><ele>107.0</ele><time>2026-05-01T16:12:29.997Z</time></trkpt><trkpt lat="44.946105" lon="9.73219"><ele>106.5</ele><time>2026-05-01T16:12:30.997Z</time></trkpt><trkpt lat="44.946245" lon="9.7322267"><ele>106.0</ele><time>2026-05-01T16:12:31.996Z</time></trkpt><trkpt lat="44.94638" lon="9.73226"><ele>106.0</ele><time>2026-05-01T16:12:32.998Z</time></trkpt><trkpt lat="44.9465067" lon="9.7322933"><ele>106.0</ele><time>2026-05-01T16:12:33.997Z</time></trkpt><trkpt lat="44.946635" lon="9.732325"><ele>106.0</ele><time>2026-05-01T16:12:34.998Z</time></trkpt><trkpt lat="44.9467717" lon="9.7323583"><ele>106.0</ele><time>2026-05-01T16:12:36Z</time></trkpt><trkpt lat="44.9469133" lon="9.7323917"><ele>106.0</ele><time>2026-05-01T16:12:36.996Z</time></trkpt><trkpt lat="44.9470517" lon="9.7324267"><ele>106.0</ele><time>2026-05-01T16:12:37.997Z</time></trkpt><trkpt lat="44.9471867" lon="9.7324567"><ele>106.0</ele><time>2026-05-01T16:12:38.996Z</time></trkpt><trkpt lat="44.947315" lon="9.732485"><ele>106.0</ele><time>2026-05-01T16:12:39.996Z</time></trkpt><trkpt lat="44.9474383" lon="9.732515"><ele>105.75</ele><time>2026-05-01T16:12:40.996Z</time></trkpt><trkpt lat="44.94756" lon="9.732545"><ele>105.5</ele><time>2026-05-01T16:12:41.997Z</time></trkpt><trkpt lat="44.94768" lon="9.7325783"><ele>105.25</ele><time>2026-05-01T16:12:42.996Z</time></trkpt><trkpt lat="44.9478" lon="9.73261"><ele>105.0</ele><time>2026-05-01T16:12:43.996Z</time></trkpt><trkpt lat="44.9479267" lon="9.73264"><ele>105.0</ele><time>2026-05-01T16:12:44.997Z</time></trkpt><trkpt lat="44.9480567" lon="9.73267"><ele>105.0</ele><time>2026-05-01T16:12:45.996Z</time></trkpt><trkpt lat="44.9481967" lon="9.732705"><ele>105.0</ele><time>2026-05-01T16:12:46.996Z</time></trkpt><trkpt lat="44.948345" lon="9.7327467"><ele>105.0</ele><time>2026-05-01T16:12:47.997Z</time></trkpt><trkpt lat="44.9484983" lon="9.732795"><ele>105.33333333333334</ele><time>2026-05-01T16:12:48.996Z</time></trkpt><trkpt lat="44.9486517" lon="9.7328467"><ele>105.66666666666667</ele><time>2026-05-01T16:12:49.996Z</time></trkpt><trkpt lat="44.9488067" lon="9.7328933"><ele>106.0</ele><time>2026-05-01T16:12:50.997Z</time></trkpt><trkpt lat="44.9489633" lon="9.7329383"><ele>106.0</ele><time>2026-05-01T16:12:51.996Z</time></trkpt><trkpt lat="44.9491217" lon="9.7329833"><ele>106.0</ele><time>2026-05-01T16:12:52.997Z</time></trkpt><trkpt lat="44.9492817" lon="9.7330233"><ele>106.0</ele><time>2026-05-01T16:12:53.996Z</time></trkpt><trkpt lat="44.9494483" lon="9.7330667"><ele>105.66666666666667</ele><time>2026-05-01T16:12:54.997Z</time></trkpt><trkpt lat="44.949625" lon="9.733115"><ele>105.33333333333334</ele><time>2026-05-01T16:12:55.997Z</time></trkpt><trkpt lat="44.9498033" lon="9.7331633"><ele>105.0</ele><time>2026-05-01T16:12:56.998Z</time></trkpt><trkpt lat="44.9499717" lon="9.73321"><ele>105.33333333333334</ele><time>2026-05-01T16:12:57.996Z</time></trkpt><trkpt lat="44.95013" lon="9.7332483"><ele>105.66666666666667</ele><time>2026-05-01T16:12:58.997Z</time></trkpt><trkpt lat="44.9502817" lon="9.7332867"><ele>106.0</ele><time>2026-05-01T16:12:59.997Z</time></trkpt><trkpt lat="44.9504317" lon="9.7333167"><ele>106.0</ele><time>2026-05-01T16:13:00.996Z</time></trkpt><trkpt lat="44.9505833" lon="9.7333433"><ele>106.0</ele><time>2026-05-01T16:13:01.996Z</time></trkpt><trkpt lat="44.9507317" lon="9.7333683"><ele>106.0</ele><time>2026-05-01T16:13:02.997Z</time></trkpt><trkpt lat="44.9508817" lon="9.7333883"><ele>105.66666666666667</ele><time>2026-05-01T16:13:03.996Z</time></trkpt><trkpt lat="44.9510317" lon="9.7334017"><ele>105.33333333333334</ele><time>2026-05-01T16:13:04.996Z</time></trkpt><trkpt lat="44.951185" lon="9.7334067"><ele>105.0</ele><time>2026-05-01T16:13:05.997Z</time></trkpt><trkpt lat="44.9513383" lon="9.73341"><ele>105.0</ele><time>2026-05-01T16:13:06.998Z</time></trkpt><trkpt lat="44.95149" lon="9.7334183"><ele>105.0</ele><time>2026-05-01T16:13:07.996Z</time></trkpt><trkpt lat="44.9516333" lon="9.7334383"><ele>105.0</ele><time>2026-05-01T16:13:08.998Z</time></trkpt><trkpt lat="44.9517833" lon="9.73346"><ele>105.0</ele><time>2026-05-01T16:13:09.996Z</time></trkpt><trkpt lat="44.951935" lon="9.733485"><ele>105.0</ele><time>2026-05-01T16:13:10.996Z</time></trkpt><trkpt lat="44.9520833" lon="9.7335083"><ele>105.0</ele><time>2026-05-01T16:13:11.997Z</time></trkpt><trkpt lat="44.9522183" lon="9.7335417"><ele>105.0</ele><time>2026-05-01T16:13:12.996Z</time></trkpt><trkpt lat="44.9523483" lon="9.7335867"><ele>105.0</ele><time>2026-05-01T16:13:13.997Z</time></trkpt><trkpt lat="44.9524717" lon="9.733655"><ele>104.75</ele><time>2026-05-01T16:13:14.997Z</time></trkpt><trkpt lat="44.95259" lon="9.73374"><ele>104.5</ele><time>2026-05-01T16:13:15.996Z</time></trkpt><trkpt lat="44.9526917" lon="9.7338383"><ele>104.25</ele><time>2026-05-01T16:13:16.996Z</time></trkpt><trkpt lat="44.9527767" lon="9.7339617"><ele>104.0</ele><time>2026-05-01T16:13:17.996Z</time></trkpt><trkpt lat="44.9528433" lon="9.7341067"><ele>104.0</ele><time>2026-05-01T16:13:18.996Z</time></trkpt><trkpt lat="44.9529" lon="9.7342817"><ele>104.0</ele><time>2026-05-01T16:13:19.997Z</time></trkpt><trkpt lat="44.95296" lon="9.734475"><ele>104.0</ele><time>2026-05-01T16:13:20.997Z</time></trkpt><trkpt lat="44.95302" lon="9.7346733"><ele>104.0</ele><time>2026-05-01T16:13:21.996Z</time></trkpt><trkpt lat="44.95308" lon="9.734865"><ele>104.0</ele><time>2026-05-01T16:13:22.997Z</time></trkpt><trkpt lat="44.9531333" lon="9.735045"><ele>104.0</ele><time>2026-05-01T16:13:23.996Z</time></trkpt><trkpt lat="44.9531833" lon="9.7352133"><ele>104.0</ele><time>2026-05-01T16:13:24.997Z</time></trkpt><trkpt lat="44.9532283" lon="9.7353717"><ele>104.0</ele><time>2026-05-01T16:13:25.998Z</time></trkpt><trkpt lat="44.9532733" lon="9.7355183"><ele>104.4</ele><time>2026-05-01T16:13:26.998Z</time></trkpt><trkpt lat="44.95332" lon="9.7356583"><ele>104.80000000000001</ele><time>2026-05-01T16:13:27.998Z</time></trkpt><trkpt lat="44.9533733" lon="9.7357883"><ele>105.19999999999999</ele><time>2026-05-01T16:13:28.996Z</time></trkpt><trkpt lat="44.9534333" lon="9.7358933"><ele>105.6</ele><time>2026-05-01T16:13:29.998Z</time></trkpt><trkpt lat="44.953505" lon="9.735975"><ele>106.0</ele><time>2026-05-01T16:13:30.998Z</time></trkpt><trkpt lat="44.9535917" lon="9.7360333"><ele>105.8</ele><time>2026-05-01T16:13:31.996Z</time></trkpt><trkpt lat="44.9536883" lon="9.7360767"><ele>105.6</ele><time>2026-05-01T16:13:32.996Z</time></trkpt><trkpt lat="44.9537867" lon="9.73611"><ele>105.4</ele><time>2026-05-01T16:13:33.998Z</time></trkpt><trkpt lat="44.9538883" lon="9.7361383"><ele>105.2</ele><time>2026-05-01T16:13:34.996Z</time></trkpt><trkpt lat="44.95399" lon="9.7361683"><ele>105.0</ele><time>2026-05-01T16:13:35.996Z</time></trkpt><trkpt lat="44.95409" lon="9.7361967"><ele>105.0</ele><time>2026-05-01T16:13:36.996Z</time></trkpt><trkpt lat="44.9541917" lon="9.736225"><ele>105.0</ele><time>2026-05-01T16:13:37.997Z</time></trkpt><trkpt lat="44.95429" lon="9.73625"><ele>105.0</ele><time>2026-05-01T16:13:38.996Z</time></trkpt><trkpt lat="44.9543967" lon="9.7362783"><ele>105.0</ele><time>2026-05-01T16:13:39.996Z</time></trkpt><trkpt lat="44.954505" lon="9.73631"><ele>105.0</ele><time>2026-05-01T16:13:40.997Z</time></trkpt><trkpt lat="44.9546117" lon="9.7363417"><ele>105.2</ele><time>2026-05-01T16:13:41.997Z</time></trkpt><trkpt lat="44.9547167" lon="9.7363767"><ele>105.4</ele><time>2026-05-01T16:13:42.996Z</time></trkpt><trkpt lat="44.9548167" lon="9.73641"><ele>105.6</ele><time>2026-05-01T16:13:43.997Z</time></trkpt><trkpt lat="44.9549117" lon="9.7364367"><ele>105.8</ele><time>2026-05-01T16:13:44.996Z</time></trkpt><trkpt lat="44.9550017" lon="9.736465"><ele>106.0</ele><time>2026-05-01T16:13:45.996Z</time></trkpt><trkpt lat="44.955085" lon="9.7364917"><ele>105.66666666666667</ele><time>2026-05-01T16:13:46.997Z</time></trkpt><trkpt lat="44.9551633" lon="9.7365167"><ele>105.33333333333334</ele><time>2026-05-01T16:13:47.997Z</time></trkpt><trkpt lat="44.9552317" lon="9.7365383"><ele>105.0</ele><time>2026-05-01T16:13:48.997Z</time></trkpt><trkpt lat="44.9553117" lon="9.736585"><ele>104.66666666666666</ele><time>2026-05-01T16:13:50.997Z</time></trkpt><trkpt lat="44.955395" lon="9.736595"><ele>104.33333333333333</ele><time>2026-05-01T16:14:52.996Z</time></trkpt><trkpt lat="44.9554767" lon="9.7366017"><ele>104.0</ele><time>2026-05-01T16:14:54.995Z</time></trkpt><trkpt lat="44.95554" lon="9.73662"><ele>104.0</ele><time>2026-05-01T16:14:55.996Z</time></trkpt><trkpt lat="44.9556167" lon="9.736645"><ele>104.0</ele><time>2026-05-01T16:14:56.998Z</time></trkpt><trkpt lat="44.9557083" lon="9.7366683"><ele>104.0</ele><time>2026-05-01T16:14:57.996Z</time></trkpt><trkpt lat="44.955805" lon="9.7366983"><ele>104.0</ele><time>2026-05-01T16:14:58.997Z</time></trkpt><trkpt lat="44.955905" lon="9.7367317"><ele>104.0</ele><time>2026-05-01T16:14:59.996Z</time></trkpt><trkpt lat="44.95601" lon="9.7367733"><ele>104.2</ele><time>2026-05-01T16:15:00.996Z</time></trkpt><trkpt lat="44.9561117" lon="9.7368083"><ele>104.4</ele><time>2026-05-01T16:15:01.998Z</time></trkpt><trkpt lat="44.95621" lon="9.7368417"><ele>104.6</ele><time>2026-05-01T16:15:02.996Z</time></trkpt><trkpt lat="44.9563183" lon="9.7368733"><ele>104.8</ele><time>2026-05-01T16:15:03.996Z</time></trkpt><trkpt lat="44.956425" lon="9.7369067"><ele>105.0</ele><time>2026-05-01T16:15:04.996Z</time></trkpt><trkpt lat="44.9565283" lon="9.7369433"><ele>104.6</ele><time>2026-05-01T16:15:05.996Z</time></trkpt><trkpt lat="44.9566233" lon="9.7369767"><ele>104.2</ele><time>2026-05-01T16:15:06.996Z</time></trkpt><trkpt lat="44.9567117" lon="9.73701"><ele>103.80000000000001</ele><time>2026-05-01T16:15:07.997Z</time></trkpt><trkpt lat="44.9567983" lon="9.7370383"><ele>103.4</ele><time>2026-05-01T16:15:08.997Z</time></trkpt><trkpt lat="44.9568917" lon="9.7370633"><ele>103.0</ele><time>2026-05-01T16:15:09.998Z</time></trkpt><trkpt lat="44.9569967" lon="9.7370867"><ele>102.80000000000001</ele><time>2026-05-01T16:15:10.997Z</time></trkpt><trkpt lat="44.9571033" lon="9.7371117"><ele>102.6</ele><time>2026-05-01T16:15:11.995Z</time></trkpt><trkpt lat="44.95721" lon="9.7371433"><ele>102.4</ele><time>2026-05-01T16:15:12.996Z</time></trkpt><trkpt lat="44.9573167" lon="9.7371833"><ele>102.19999999999999</ele><time>2026-05-01T16:15:13.997Z</time></trkpt><trkpt lat="44.9574233" lon="9.7372267"><ele>102.0</ele><time>2026-05-01T16:15:14.996Z</time></trkpt><trkpt lat="44.957535" lon="9.7372783"><ele>101.8</ele><time>2026-05-01T16:15:15.996Z</time></trkpt><trkpt lat="44.9576517" lon="9.7373433"><ele>101.6</ele><time>2026-05-01T16:15:16.996Z</time></trkpt><trkpt lat="44.9577633" lon="9.73742"><ele>101.39999999999999</ele><time>2026-05-01T16:15:17.996Z</time></trkpt><trkpt lat="44.9578567" lon="9.7374817"><ele>101.19999999999999</ele><time>2026-05-01T16:15:18.996Z</time></trkpt><trkpt lat="44.9579233" lon="9.7375417"><ele>101.0</ele><time>2026-05-01T16:15:19.997Z</time></trkpt><trkpt lat="44.9579933" lon="9.7376617"><ele>101.0</ele><time>2026-05-01T16:15:21.997Z</time></trkpt><trkpt lat="44.9580567" lon="9.7377267"><ele>101.0</ele><time>2026-05-01T16:15:23.996Z</time></trkpt><trkpt lat="44.958195" lon="9.737755"><ele>101.0</ele><time>2026-05-01T16:15:25.997Z</time></trkpt><trkpt lat="44.9583233" lon="9.737735"><ele>101.0</ele><time>2026-05-01T16:15:26.996Z</time></trkpt><trkpt lat="44.9584933" lon="9.73772"><ele>100.33333333333333</ele><time>2026-05-01T16:15:27.996Z</time></trkpt><trkpt lat="44.9586967" lon="9.7377167"><ele>99.66666666666666</ele><time>2026-05-01T16:15:28.996Z</time></trkpt><trkpt lat="44.95893" lon="9.737715"><ele>99.0</ele><time>2026-05-01T16:15:29.996Z</time></trkpt><trkpt lat="44.9591833" lon="9.73771"><ele>99.0</ele><time>2026-05-01T16:15:30.995Z</time></trkpt><trkpt lat="44.9594433" lon="9.7377067"><ele>99.0</ele><time>2026-05-01T16:15:31.995Z</time></trkpt><trkpt lat="44.9596817" lon="9.737715"><ele>99.0</ele><time>2026-05-01T16:15:32.996Z</time></trkpt><trkpt lat="44.9599017" lon="9.7377217"><ele>99.0</ele><time>2026-05-01T16:15:33.996Z</time></trkpt><trkpt lat="44.960125" lon="9.7377267"><ele>99.0</ele><time>2026-05-01T16:15:34.996Z</time></trkpt><trkpt lat="44.9603517" lon="9.7377333"><ele>98.33333333333334</ele><time>2026-05-01T16:15:35.996Z</time></trkpt><trkpt lat="44.9605767" lon="9.737735"><ele>97.66666666666667</ele><time>2026-05-01T16:15:36.997Z</time></trkpt><trkpt lat="44.9608" lon="9.73774"><ele>97.0</ele><time>2026-05-01T16:15:37.995Z</time></trkpt><trkpt lat="44.9610133" lon="9.737745"><ele>95.66666666666667</ele><time>2026-05-01T16:15:38.997Z</time></trkpt><trkpt lat="44.9612233" lon="9.73775"><ele>94.33333333333334</ele><time>2026-05-01T16:15:39.996Z</time></trkpt><trkpt lat="44.96143" lon="9.7377517"><ele>93.0</ele><time>2026-05-01T16:15:40.996Z</time></trkpt><trkpt lat="44.9616317" lon="9.7377567"><ele>93.66666666666667</ele><time>2026-05-01T16:15:41.997Z</time></trkpt><trkpt lat="44.9618267" lon="9.73776"><ele>94.33333333333334</ele><time>2026-05-01T16:15:42.996Z</time></trkpt><trkpt lat="44.96202" lon="9.737765"><ele>95.0</ele><time>2026-05-01T16:15:43.996Z</time></trkpt><trkpt lat="44.9622117" lon="9.7377667"><ele>95.0</ele><time>2026-05-01T16:15:44.997Z</time></trkpt><trkpt lat="44.9624067" lon="9.7377683"><ele>95.0</ele><time>2026-05-01T16:15:45.995Z</time></trkpt><trkpt lat="44.9626" lon="9.7377717"><ele>95.0</ele><time>2026-05-01T16:15:46.997Z</time></trkpt><trkpt lat="44.9627933" lon="9.7377767"><ele>95.33333333333334</ele><time>2026-05-01T16:15:47.996Z</time></trkpt><trkpt lat="44.96299" lon="9.73778"><ele>95.66666666666667</ele><time>2026-05-01T16:15:48.996Z</time></trkpt><trkpt lat="44.96319" lon="9.737785"><ele>96.0</ele><time>2026-05-01T16:15:49.997Z</time></trkpt><trkpt lat="44.9633967" lon="9.7377917"><ele>95.33333333333333</ele><time>2026-05-01T16:15:50.996Z</time></trkpt><trkpt lat="44.9636067" lon="9.737795"><ele>94.66666666666666</ele><time>2026-05-01T16:15:51.997Z</time></trkpt><trkpt lat="44.9638167" lon="9.7377967"><ele>94.0</ele><time>2026-05-01T16:15:52.997Z</time></trkpt><trkpt lat="44.9640283" lon="9.7377967"><ele>93.33333333333333</ele><time>2026-05-01T16:15:53.997Z</time></trkpt><trkpt lat="44.9642417" lon="9.7377933"><ele>92.66666666666667</ele><time>2026-05-01T16:15:54.997Z</time></trkpt><trkpt lat="44.96446" lon="9.7377917"><ele>92.0</ele><time>2026-05-01T16:15:55.999Z</time></trkpt><trkpt lat="44.9646867" lon="9.7378"><ele>92.0</ele><time>2026-05-01T16:15:56.999Z</time></trkpt><trkpt lat="44.96491" lon="9.73781"><ele>92.0</ele><time>2026-05-01T16:15:57.997Z</time></trkpt><trkpt lat="44.9651167" lon="9.7378217"><ele>92.0</ele><time>2026-05-01T16:15:58.998Z</time></trkpt><trkpt lat="44.9653117" lon="9.7378283"><ele>92.66666666666667</ele><time>2026-05-01T16:15:59.997Z</time></trkpt><trkpt lat="44.9655" lon="9.7378333"><ele>93.33333333333333</ele><time>2026-05-01T16:16:00.997Z</time></trkpt><trkpt lat="44.96569" lon="9.73784"><ele>94.0</ele><time>2026-05-01T16:16:01.996Z</time></trkpt><trkpt lat="44.9658833" lon="9.73785"><ele>94.0</ele><time>2026-05-01T16:16:02.997Z</time></trkpt><trkpt lat="44.9660817" lon="9.7378633"><ele>94.0</ele><time>2026-05-01T16:16:03.997Z</time></trkpt><trkpt lat="44.9662817" lon="9.73788"><ele>94.0</ele><time>2026-05-01T16:16:04.996Z</time></trkpt><trkpt lat="44.96648" lon="9.7379033"><ele>94.0</ele><time>2026-05-01T16:16:05.996Z</time></trkpt><trkpt lat="44.9666817" lon="9.7379367"><ele>94.0</ele><time>2026-05-01T16:16:06.997Z</time></trkpt><trkpt lat="44.9668817" lon="9.7379867"><ele>94.0</ele><time>2026-05-01T16:16:07.998Z</time></trkpt><trkpt lat="44.9670867" lon="9.7380583"><ele>93.33333333333333</ele><time>2026-05-01T16:16:08.997Z</time></trkpt><trkpt lat="44.9672917" lon="9.7381417"><ele>92.66666666666667</ele><time>2026-05-01T16:16:09.997Z</time></trkpt><trkpt lat="44.9675" lon="9.7382317"><ele>92.0</ele><time>2026-05-01T16:16:10.997Z</time></trkpt><trkpt lat="44.9677133" lon="9.7383217"><ele>91.0</ele><time>2026-05-01T16:16:11.996Z</time></trkpt><trkpt lat="44.9679283" lon="9.7384133"><ele>90.0</ele><time>2026-05-01T16:16:12.997Z</time></trkpt><trkpt lat="44.9681483" lon="9.73851"><ele>90.5</ele><time>2026-05-01T16:16:13.997Z</time></trkpt><trkpt lat="44.96837" lon="9.738605"><ele>91.0</ele><time>2026-05-01T16:16:14.996Z</time></trkpt><trkpt lat="44.968595" lon="9.7387"><ele>91.0</ele><time>2026-05-01T16:16:15.996Z</time></trkpt><trkpt lat="44.9688183" lon="9.738795"><ele>91.0</ele><time>2026-05-01T16:16:16.996Z</time></trkpt><trkpt lat="44.969035" lon="9.7388883"><ele>90.33333333333333</ele><time>2026-05-01T16:16:17.995Z</time></trkpt><trkpt lat="44.9692483" lon="9.73898"><ele>89.66666666666667</ele><time>2026-05-01T16:16:18.997Z</time></trkpt><trkpt lat="44.9694617" lon="9.739075"><ele>89.0</ele><time>2026-05-01T16:16:19.996Z</time></trkpt><trkpt lat="44.969675" lon="9.7391683"><ele>89.0</ele><time>2026-05-01T16:16:20.998Z</time></trkpt><trkpt lat="44.969885" lon="9.7392583"><ele>89.0</ele><time>2026-05-01T16:16:21.996Z</time></trkpt><trkpt lat="44.97009" lon="9.7393467"><ele>89.0</ele><time>2026-05-01T16:16:22.997Z</time></trkpt><trkpt lat="44.9702883" lon="9.7394333"><ele>88.33333333333334</ele><time>2026-05-01T16:16:23.996Z</time></trkpt><trkpt lat="44.9704767" lon="9.7395133"><ele>87.66666666666667</ele><time>2026-05-01T16:16:24.997Z</time></trkpt><trkpt lat="44.970655" lon="9.7395883"><ele>87.0</ele><time>2026-05-01T16:16:25.997Z</time></trkpt><trkpt lat="44.9708233" lon="9.739655"><ele>87.33333333333333</ele><time>2026-05-01T16:16:26.998Z</time></trkpt><trkpt lat="44.97099" lon="9.739705"><ele>87.66666666666666</ele><time>2026-05-01T16:16:27.998Z</time></trkpt><trkpt lat="44.9711567" lon="9.7397217"><ele>88.0</ele><time>2026-05-01T16:16:28.998Z</time></trkpt><trkpt lat="44.9713217" lon="9.73971"><ele>88.0</ele><time>2026-05-01T16:16:29.996Z</time></trkpt><trkpt lat="44.9714783" lon="9.7396933"><ele>88.0</ele><time>2026-05-01T16:16:30.997Z</time></trkpt><trkpt lat="44.9716233" lon="9.7396867"><ele>88.0</ele><time>2026-05-01T16:16:31.997Z</time></trkpt><trkpt lat="44.9717617" lon="9.7397017"><ele>88.0</ele><time>2026-05-01T16:16:32.996Z</time></trkpt><trkpt lat="44.9718883" lon="9.73974"><ele>88.0</ele><time>2026-05-01T16:16:33.996Z</time></trkpt><trkpt lat="44.9719967" lon="9.73981"><ele>88.0</ele><time>2026-05-01T16:16:34.997Z</time></trkpt><trkpt lat="44.9720767" lon="9.7399117"><ele>88.0</ele><time>2026-05-01T16:16:35.997Z</time></trkpt><trkpt lat="44.9721283" lon="9.74003"><ele>88.0</ele><time>2026-05-01T16:16:36.995Z</time></trkpt><trkpt lat="44.9721667" lon="9.7401517"><ele>88.0</ele><time>2026-05-01T16:16:37.996Z</time></trkpt><trkpt lat="44.9722283" lon="9.740255"><ele>88.0</ele><time>2026-05-01T16:16:38.997Z</time></trkpt><trkpt lat="44.9723183" lon="9.7403283"><ele>88.0</ele><time>2026-05-01T16:16:39.996Z</time></trkpt><trkpt lat="44.9724367" lon="9.7403667"><ele>88.0</ele><time>2026-05-01T16:16:40.996Z</time></trkpt><trkpt lat="44.972585" lon="9.740385"><ele>88.0</ele><time>2026-05-01T16:16:41.996Z</time></trkpt><trkpt lat="44.9727567" lon="9.7404233"><ele>88.0</ele><time>2026-05-01T16:16:42.997Z</time></trkpt><trkpt lat="44.97293" lon="9.7404833"><ele>88.0</ele><time>2026-05-01T16:16:43.997Z</time></trkpt><trkpt lat="44.9730933" lon="9.7405333"><ele>88.0</ele><time>2026-05-01T16:16:44.996Z</time></trkpt><trkpt lat="44.9732517" lon="9.74057"><ele>87.0</ele><time>2026-05-01T16:16:45.997Z</time></trkpt><trkpt lat="44.9734117" lon="9.740605"><ele>86.0</ele><time>2026-05-01T16:16:46.996Z</time></trkpt><trkpt lat="44.9735667" lon="9.7406333"><ele>85.0</ele><time>2026-05-01T16:16:47.996Z</time></trkpt><trkpt lat="44.9737133" lon="9.7406617"><ele>85.0</ele><time>2026-05-01T16:16:48.996Z</time></trkpt><trkpt lat="44.9738567" lon="9.740685"><ele>85.0</ele><time>2026-05-01T16:16:49.997Z</time></trkpt><trkpt lat="44.9740033" lon="9.740705"><ele>85.0</ele><time>2026-05-01T16:16:50.997Z</time></trkpt><trkpt lat="44.9741483" lon="9.74072"><ele>85.0</ele><time>2026-05-01T16:16:51.997Z</time></trkpt><trkpt lat="44.974295" lon="9.7407333"><ele>85.75</ele><time>2026-05-01T16:16:52.996Z</time></trkpt><trkpt lat="44.9744433" lon="9.740745"><ele>86.5</ele><time>2026-05-01T16:16:53.997Z</time></trkpt><trkpt lat="44.97459" lon="9.740755"><ele>87.25</ele><time>2026-05-01T16:16:54.998Z</time></trkpt><trkpt lat="44.9747333" lon="9.7407667"><ele>88.0</ele><time>2026-05-01T16:16:55.999Z</time></trkpt><trkpt lat="44.974875" lon="9.7407783"><ele>88.0</ele><time>2026-05-01T16:16:57Z</time></trkpt><trkpt lat="44.9750133" lon="9.7407917"><ele>88.0</ele><time>2026-05-01T16:16:57.999Z</time></trkpt><trkpt lat="44.97515" lon="9.7408067"><ele>88.0</ele><time>2026-05-01T16:16:58.998Z</time></trkpt><trkpt lat="44.9752833" lon="9.7408267"><ele>88.0</ele><time>2026-05-01T16:16:59.997Z</time></trkpt><trkpt lat="44.9754217" lon="9.74085"><ele>87.75</ele><time>2026-05-01T16:17:00.996Z</time></trkpt><trkpt lat="44.9755583" lon="9.7408717"><ele>87.5</ele><time>2026-05-01T16:17:01.996Z</time></trkpt><trkpt lat="44.9756933" lon="9.7408917"><ele>87.25</ele><time>2026-05-01T16:17:02.997Z</time></trkpt><trkpt lat="44.9758283" lon="9.7409133"><ele>87.0</ele><time>2026-05-01T16:17:03.997Z</time></trkpt><trkpt lat="44.9759567" lon="9.740935"><ele>87.0</ele><time>2026-05-01T16:17:04.997Z</time></trkpt><trkpt lat="44.9760817" lon="9.7409533"><ele>87.0</ele><time>2026-05-01T16:17:05.998Z</time></trkpt><trkpt lat="44.976205" lon="9.7409717"><ele>87.0</ele><time>2026-05-01T16:17:06.997Z</time></trkpt><trkpt lat="44.97633" lon="9.7409883"><ele>87.0</ele><time>2026-05-01T16:17:07.999Z</time></trkpt><trkpt lat="44.9764567" lon="9.7410017"><ele>87.0</ele><time>2026-05-01T16:17:08.997Z</time></trkpt><trkpt lat="44.97658" lon="9.7410117"><ele>87.0</ele><time>2026-05-01T16:17:09.997Z</time></trkpt><trkpt lat="44.9767" lon="9.7410167"><ele>87.0</ele><time>2026-05-01T16:17:10.997Z</time></trkpt><trkpt lat="44.9768117" lon="9.7410167"><ele>87.0</ele><time>2026-05-01T16:17:11.996Z</time></trkpt><trkpt lat="44.9769133" lon="9.7410117"><ele>87.19999999999999</ele><time>2026-05-01T16:17:12.997Z</time></trkpt><trkpt lat="44.97701" lon="9.7410017"><ele>87.4</ele><time>2026-05-01T16:17:13.996Z</time></trkpt><trkpt lat="44.9771" lon="9.74099"><ele>87.6</ele><time>2026-05-01T16:17:14.999Z</time></trkpt><trkpt lat="44.9771917" lon="9.74097"><ele>87.80000000000001</ele><time>2026-05-01T16:17:15.997Z</time></trkpt><trkpt lat="44.9772983" lon="9.7409417"><ele>88.0</ele><time>2026-05-01T16:17:16.997Z</time></trkpt><trkpt lat="44.97743" lon="9.740915"><ele>87.66666666666666</ele><time>2026-05-01T16:17:17.998Z</time></trkpt><trkpt lat="44.977585" lon="9.7408967"><ele>87.33333333333333</ele><time>2026-05-01T16:17:18.997Z</time></trkpt><trkpt lat="44.9777417" lon="9.7408867"><ele>87.0</ele><time>2026-05-01T16:17:19.998Z</time></trkpt><trkpt lat="44.9778867" lon="9.7408717"><ele>87.0</ele><time>2026-05-01T16:17:20.997Z</time></trkpt><trkpt lat="44.9780167" lon="9.7408517"><ele>87.0</ele><time>2026-05-01T16:17:21.997Z</time></trkpt><trkpt lat="44.9781317" lon="9.7408317"><ele>87.0</ele><time>2026-05-01T16:17:22.996Z</time></trkpt><trkpt lat="44.978225" lon="9.740815"><ele>87.0</ele><time>2026-05-01T16:17:23.997Z</time></trkpt><trkpt lat="44.978295" lon="9.7408017"><ele>87.0</ele><time>2026-05-01T16:17:24.996Z</time></trkpt><trkpt lat="44.9783867" lon="9.7407817"><ele>86.6</ele><time>2026-05-01T16:17:26.996Z</time></trkpt><trkpt lat="44.978455" lon="9.740775"><ele>86.19999999999999</ele><time>2026-05-01T16:17:29.996Z</time></trkpt><trkpt lat="44.97852" lon="9.7407733"><ele>85.8</ele><time>2026-05-01T16:17:33.996Z</time></trkpt><trkpt lat="44.97863" lon="9.74076"><ele>85.4</ele><time>2026-05-01T16:17:36.996Z</time></trkpt><trkpt lat="44.9787267" lon="9.7407583"><ele>85.0</ele><time>2026-05-01T16:17:37.997Z</time></trkpt><trkpt lat="44.97885" lon="9.740755"><ele>85.0</ele><time>2026-05-01T16:17:38.996Z</time></trkpt><trkpt lat="44.9790017" lon="9.7407483"><ele>85.0</ele><time>2026-05-01T16:17:39.996Z</time></trkpt><trkpt lat="44.97918" lon="9.7407367"><ele>85.0</ele><time>2026-05-01T16:17:40.996Z</time></trkpt><trkpt lat="44.9793867" lon="9.7407233"><ele>84.66666666666666</ele><time>2026-05-01T16:17:41.996Z</time></trkpt><trkpt lat="44.9796117" lon="9.7406917"><ele>84.33333333333333</ele><time>2026-05-01T16:17:42.997Z</time></trkpt><trkpt lat="44.9798267" lon="9.7406383"><ele>84.0</ele><time>2026-05-01T16:17:43.996Z</time></trkpt><trkpt lat="44.9800133" lon="9.74057"><ele>83.33333333333333</ele><time>2026-05-01T16:17:44.996Z</time></trkpt><trkpt lat="44.980175" lon="9.7404933"><ele>82.66666666666666</ele><time>2026-05-01T16:17:45.996Z</time></trkpt><trkpt lat="44.980325" lon="9.7404133"><ele>82.0</ele><time>2026-05-01T16:17:46.996Z</time></trkpt><trkpt lat="44.980465" lon="9.7403467"><ele>82.0</ele><time>2026-05-01T16:17:47.996Z</time></trkpt><trkpt lat="44.9806017" lon="9.7402833"><ele>82.0</ele><time>2026-05-01T16:17:48.996Z</time></trkpt><trkpt lat="44.9807217" lon="9.7402217"><ele>82.0</ele><time>2026-05-01T16:17:49.998Z</time></trkpt><trkpt lat="44.9808233" lon="9.7401467"><ele>82.0</ele><time>2026-05-01T16:17:50.997Z</time></trkpt><trkpt lat="44.9808967" lon="9.740035"><ele>81.66666666666666</ele><time>2026-05-01T16:17:51.997Z</time></trkpt><trkpt lat="44.9809433" lon="9.7398717"><ele>81.33333333333333</ele><time>2026-05-01T16:17:52.996Z</time></trkpt><trkpt lat="44.98097" lon="9.73965"><ele>81.0</ele><time>2026-05-01T16:17:53.997Z</time></trkpt><trkpt lat="44.9809933" lon="9.739375"><ele>82.5</ele><time>2026-05-01T16:17:54.996Z</time></trkpt><trkpt lat="44.9810283" lon="9.7390433"><ele>84.0</ele><time>2026-05-01T16:17:55.995Z</time></trkpt><trkpt lat="44.9810683" lon="9.7386983"><ele>84.33333333333333</ele><time>2026-05-01T16:17:56.998Z</time></trkpt><trkpt lat="44.9811033" lon="9.738385"><ele>84.66666666666666</ele><time>2026-05-01T16:17:57.996Z</time></trkpt><trkpt lat="44.9811383" lon="9.7380967"><ele>85.0</ele><time>2026-05-01T16:17:58.996Z</time></trkpt><trkpt lat="44.9811683" lon="9.7378267"><ele>84.0</ele><time>2026-05-01T16:17:59.997Z</time></trkpt><trkpt lat="44.9812" lon="9.7375717"><ele>83.0</ele><time>2026-05-01T16:18:00.996Z</time></trkpt><trkpt lat="44.9812317" lon="9.7373317"><ele>82.0</ele><time>2026-05-01T16:18:01.996Z</time></trkpt><trkpt lat="44.9812683" lon="9.737085"><ele>81.66666666666666</ele><time>2026-05-01T16:18:02.996Z</time></trkpt><trkpt lat="44.9813167" lon="9.736815"><ele>81.33333333333333</ele><time>2026-05-01T16:18:03.997Z</time></trkpt><trkpt lat="44.98137" lon="9.7365133"><ele>81.0</ele><time>2026-05-01T16:18:04.996Z</time></trkpt><trkpt lat="44.9814167" lon="9.7361867"><ele>81.5</ele><time>2026-05-01T16:18:05.996Z</time></trkpt><trkpt lat="44.9814583" lon="9.7358317"><ele>82.0</ele><time>2026-05-01T16:18:06.997Z</time></trkpt><trkpt lat="44.981485" lon="9.7354567"><ele>81.5</ele><time>2026-05-01T16:18:07.996Z</time></trkpt><trkpt lat="44.981515" lon="9.7350833"><ele>81.0</ele><time>2026-05-01T16:18:08.996Z</time></trkpt><trkpt lat="44.981545" lon="9.7347033"><ele>81.5</ele><time>2026-05-01T16:18:09.998Z</time></trkpt><trkpt lat="44.9815933" lon="9.7342983"><ele>82.0</ele><time>2026-05-01T16:18:10.997Z</time></trkpt><trkpt lat="44.9816467" lon="9.7338667"><ele>82.0</ele><time>2026-05-01T16:18:11.996Z</time></trkpt><trkpt lat="44.9816983" lon="9.73342"><ele>82.0</ele><time>2026-05-01T16:18:12.997Z</time></trkpt><trkpt lat="44.9817533" lon="9.732965"><ele>82.0</ele><time>2026-05-01T16:18:13.996Z</time></trkpt><trkpt lat="44.9818067" lon="9.7325267"><ele>82.0</ele><time>2026-05-01T16:18:14.997Z</time></trkpt><trkpt lat="44.981855" lon="9.7321317"><ele>81.0</ele><time>2026-05-01T16:18:15.996Z</time></trkpt><trkpt lat="44.9819" lon="9.7317667"><ele>80.0</ele><time>2026-05-01T16:18:16.997Z</time></trkpt><trkpt lat="44.9819433" lon="9.7314333"><ele>80.0</ele><time>2026-05-01T16:18:17.996Z</time></trkpt><trkpt lat="44.9819833" lon="9.7311217"><ele>80.0</ele><time>2026-05-01T16:18:18.997Z</time></trkpt><trkpt lat="44.9820167" lon="9.7308383"><ele>80.0</ele><time>2026-05-01T16:18:19.996Z</time></trkpt><trkpt lat="44.9820467" lon="9.7305967"><ele>80.2</ele><time>2026-05-01T16:18:20.997Z</time></trkpt><trkpt lat="44.98207" lon="9.7304067"><ele>80.4</ele><time>2026-05-01T16:18:21.996Z</time></trkpt><trkpt lat="44.9820867" lon="9.7302733"><ele>80.6</ele><time>2026-05-01T16:18:22.996Z</time></trkpt><trkpt lat="44.9820983" lon="9.7301417"><ele>80.8</ele><time>2026-05-01T16:18:24.996Z</time></trkpt><trkpt lat="44.982085" lon="9.730045"><ele>81.0</ele><time>2026-05-01T16:18:30.074Z</time></trkpt><trkpt lat="44.9819933" lon="9.730025"><ele>81.0</ele><time>2026-05-01T16:18:31.995Z</time></trkpt><trkpt lat="44.9818917" lon="9.7300317"><ele>81.0</ele><time>2026-05-01T16:18:33.995Z</time></trkpt></trkseg></trk></gpx>